﻿<?xml version="1.0" encoding="utf-8"?><gpx creator="Garmin Desktop App" version="1.1" xsi:schemaLocation="http://www.topografix.com/GPX/1/1 http://www.topografix.com/GPX/1/1/gpx.xsd http://www.garmin.com/xmlschemas/WaypointExtension/v1 http://www8.garmin.com/xmlschemas/WaypointExtensionv1.xsd http://www.garmin.com/xmlschemas/TrackPointExtension/v1 http://www.garmin.com/xmlschemas/TrackPointExtensionv1.xsd http://www.garmin.com/xmlschemas/GpxExtensions/v3 http://www8.garmin.com/xmlschemas/GpxExtensionsv3.xsd http://www.garmin.com/xmlschemas/ActivityExtension/v1 http://www8.garmin.com/xmlschemas/ActivityExtensionv1.xsd http://www.garmin.com/xmlschemas/AdventuresExtensions/v1 http://www8.garmin.com/xmlschemas/AdventuresExtensionv1.xsd http://www.garmin.com/xmlschemas/PressureExtension/v1 http://www.garmin.com/xmlschemas/PressureExtensionv1.xsd http://www.garmin.com/xmlschemas/TripExtensions/v1 http://www.garmin.com/xmlschemas/TripExtensionsv1.xsd http://www.garmin.com/xmlschemas/TripMetaDataExtensions/v1 http://www.garmin.com/xmlschemas/TripMetaDataExtensionsv1.xsd http://www.garmin.com/xmlschemas/ViaPointTransportationModeExtensions/v1 http://www.garmin.com/xmlschemas/ViaPointTransportationModeExtensionsv1.xsd http://www.garmin.com/xmlschemas/CreationTimeExtension/v1 http://www.garmin.com/xmlschemas/CreationTimeExtensionsv1.xsd http://www.garmin.com/xmlschemas/AccelerationExtension/v1 http://www.garmin.com/xmlschemas/AccelerationExtensionv1.xsd http://www.garmin.com/xmlschemas/PowerExtension/v1 http://www.garmin.com/xmlschemas/PowerExtensionv1.xsd http://www.garmin.com/xmlschemas/VideoExtension/v1 http://www.garmin.com/xmlschemas/VideoExtensionv1.xsd" xmlns="http://www.topografix.com/GPX/1/1" xmlns:xsi="http://www.w3.org/2001/XMLSchema-instance" xmlns:wptx1="http://www.garmin.com/xmlschemas/WaypointExtension/v1" xmlns:gpxtrx="http://www.garmin.com/xmlschemas/GpxExtensions/v3" xmlns:gpxtpx="http://www.garmin.com/xmlschemas/TrackPointExtension/v1" xmlns:gpxx="http://www.garmin.com/xmlschemas/GpxExtensions/v3" xmlns:trp="http://www.garmin.com/xmlschemas/TripExtensions/v1" xmlns:adv="http://www.garmin.com/xmlschemas/AdventuresExtensions/v1" xmlns:prs="http://www.garmin.com/xmlschemas/PressureExtension/v1" xmlns:tmd="http://www.garmin.com/xmlschemas/TripMetaDataExtensions/v1" xmlns:vptm="http://www.garmin.com/xmlschemas/ViaPointTransportationModeExtensions/v1" xmlns:ctx="http://www.garmin.com/xmlschemas/CreationTimeExtension/v1" xmlns:gpxacc="http://www.garmin.com/xmlschemas/AccelerationExtension/v1" xmlns:gpxpx="http://www.garmin.com/xmlschemas/PowerExtension/v1" xmlns:vidx1="http://www.garmin.com/xmlschemas/VideoExtension/v1">

  <metadata>
    <link href="http://www.garmin.com">
      <text>Garmin International</text>
    </link>
    <time>2025-05-18T19:26:22Z</time>
    <bounds maxlat="43.858516970649362" maxlon="7.427625004202128" minlat="43.545921016484499" minlon="6.091906959190965" />
  </metadata>

  <trk>
    <name>250518_G_Track</name>
    <extensions>
      <gpxx:TrackExtension>
        <gpxx:DisplayColor>DarkGray</gpxx:DisplayColor>
      </gpxx:TrackExtension>
    </extensions>
    <trkseg>
      <trkpt lat="43.817899022251368" lon="6.091906959190965">
        <ele>531.75</ele>
        <time>2025-05-18T06:03:46Z</time>
      </trkpt>
      <trkpt lat="43.817898016422987" lon="6.091907965019345">
        <ele>531.26999999999998</ele>
        <time>2025-05-18T06:04:40Z</time>
      </trkpt>
      <trkpt lat="43.817899022251368" lon="6.091907965019345">
        <ele>531.26999999999998</ele>
        <time>2025-05-18T06:05:19Z</time>
      </trkpt>
      <trkpt lat="43.817897010594606" lon="6.091907965019345">
        <ele>531.26999999999998</ele>
        <time>2025-05-18T06:06:04Z</time>
      </trkpt>
      <trkpt lat="43.817894998937845" lon="6.091922968626022">
        <ele>530.78999999999996</ele>
        <time>2025-05-18T06:06:11Z</time>
      </trkpt>
      <trkpt lat="43.817903967574239" lon="6.091986000537872">
        <ele>530.78999999999996</ele>
        <time>2025-05-18T06:06:13Z</time>
      </trkpt>
      <trkpt lat="43.817858034744859" lon="6.092091025784612">
        <ele>530.29999999999995</ele>
        <time>2025-05-18T06:06:15Z</time>
      </trkpt>
      <trkpt lat="43.817833978682756" lon="6.092145005241036">
        <ele>530.29999999999995</ele>
        <time>2025-05-18T06:06:16Z</time>
      </trkpt>
      <trkpt lat="43.817812018096447" lon="6.092197978869081">
        <ele>529.82000000000005</ele>
        <time>2025-05-18T06:06:24Z</time>
      </trkpt>
      <trkpt lat="43.817812018096447" lon="6.092197978869081">
        <ele>528.86000000000001</ele>
        <time>2025-05-18T06:06:32Z</time>
      </trkpt>
      <trkpt lat="43.817553017288446" lon="6.092111980542541">
        <ele>525.01999999999998</ele>
        <time>2025-05-18T06:06:46Z</time>
      </trkpt>
      <trkpt lat="43.817464001476765" lon="6.092081973329186">
        <ele>523.09000000000003</ele>
        <time>2025-05-18T06:06:58Z</time>
      </trkpt>
      <trkpt lat="43.817425025627017" lon="6.092068981379271">
        <ele>523.09000000000003</ele>
        <time>2025-05-18T06:07:06Z</time>
      </trkpt>
      <trkpt lat="43.817425025627017" lon="6.092068981379271">
        <ele>523.58000000000004</ele>
        <time>2025-05-18T06:07:07Z</time>
      </trkpt>
      <trkpt lat="43.817425025627017" lon="6.092068981379271">
        <ele>524.05999999999995</ele>
        <time>2025-05-18T06:07:23Z</time>
      </trkpt>
      <trkpt lat="43.817409016191959" lon="6.092139976099134">
        <ele>525.01999999999998</ele>
        <time>2025-05-18T06:07:37Z</time>
      </trkpt>
      <trkpt lat="43.817321006208658" lon="6.092525962740183">
        <ele>524.53999999999996</ele>
        <time>2025-05-18T06:07:46Z</time>
      </trkpt>
      <trkpt lat="43.817209023982286" lon="6.093042958527803">
        <ele>522.61000000000001</ele>
        <time>2025-05-18T06:07:56Z</time>
      </trkpt>
      <trkpt lat="43.8171979598701" lon="6.093099033460021">
        <ele>522.13</ele>
        <time>2025-05-18T06:07:57Z</time>
      </trkpt>
      <trkpt lat="43.817189997062087" lon="6.093156030401588">
        <ele>522.13</ele>
        <time>2025-05-18T06:07:58Z</time>
      </trkpt>
      <trkpt lat="43.817188991233706" lon="6.093142032623291">
        <ele>521.64999999999998</ele>
        <time>2025-05-18T06:07:59Z</time>
      </trkpt>
      <trkpt lat="43.817193014547229" lon="6.093253009021282">
        <ele>521.64999999999998</ele>
        <time>2025-05-18T06:08:00Z</time>
      </trkpt>
      <trkpt lat="43.81719502620399" lon="6.093309000134468">
        <ele>521.16999999999996</ele>
        <time>2025-05-18T06:08:01Z</time>
      </trkpt>
      <trkpt lat="43.817197037860751" lon="6.093367002904415">
        <ele>521.16999999999996</ele>
        <time>2025-05-18T06:08:02Z</time>
      </trkpt>
      <trkpt lat="43.817202989012003" lon="6.093548974022269">
        <ele>520.21000000000004</ele>
        <time>2025-05-18T06:08:05Z</time>
      </trkpt>
      <trkpt lat="43.817208018153906" lon="6.09367897734046">
        <ele>520.21000000000004</ele>
        <time>2025-05-18T06:08:07Z</time>
      </trkpt>
      <trkpt lat="43.817254034802318" lon="6.0938720125705">
        <ele>520.69000000000005</ele>
        <time>2025-05-18T06:08:11Z</time>
      </trkpt>
      <trkpt lat="43.817254034802318" lon="6.0938720125705">
        <ele>521.64999999999998</ele>
        <time>2025-05-18T06:08:17Z</time>
      </trkpt>
      <trkpt lat="43.817254034802318" lon="6.0938720125705">
        <ele>521.64999999999998</ele>
        <time>2025-05-18T06:08:18Z</time>
      </trkpt>
      <trkpt lat="43.817266020923853" lon="6.093908976763487">
        <ele>522.13</ele>
        <time>2025-05-18T06:08:19Z</time>
      </trkpt>
      <trkpt lat="43.817297033965588" lon="6.09400000423193">
        <ele>522.13</ele>
        <time>2025-05-18T06:08:20Z</time>
      </trkpt>
      <trkpt lat="43.817297033965588" lon="6.09400000423193">
        <ele>522.13</ele>
        <time>2025-05-18T06:08:21Z</time>
      </trkpt>
      <trkpt lat="43.817297033965588" lon="6.094007967039943">
        <ele>522.13</ele>
        <time>2025-05-18T06:08:22Z</time>
      </trkpt>
      <trkpt lat="43.817284964025021" lon="6.094188010320067">
        <ele>523.09000000000003</ele>
        <time>2025-05-18T06:08:32Z</time>
      </trkpt>
      <trkpt lat="43.81728395819664" lon="6.094213994219899">
        <ele>523.09000000000003</ele>
        <time>2025-05-18T06:08:33Z</time>
      </trkpt>
      <trkpt lat="43.817274989560246" lon="6.09434399753809">
        <ele>522.61000000000001</ele>
        <time>2025-05-18T06:08:34Z</time>
      </trkpt>
      <trkpt lat="43.817288987338543" lon="6.09434500336647">
        <ele>522.13</ele>
        <time>2025-05-18T06:08:35Z</time>
      </trkpt>
      <trkpt lat="43.817335003986955" lon="6.094350032508373">
        <ele>522.13</ele>
        <time>2025-05-18T06:08:36Z</time>
      </trkpt>
      <trkpt lat="43.817378003150225" lon="6.094353972002864">
        <ele>521.64999999999998</ele>
        <time>2025-05-18T06:08:37Z</time>
      </trkpt>
      <trkpt lat="43.817455032840371" lon="6.094303010031581">
        <ele>521.16999999999996</ele>
        <time>2025-05-18T06:08:38Z</time>
      </trkpt>
      <trkpt lat="43.817479005083442" lon="6.094346009194851">
        <ele>520.69000000000005</ele>
        <time>2025-05-18T06:08:39Z</time>
      </trkpt>
      <trkpt lat="43.817507000640035" lon="6.09440702944994">
        <ele>520.21000000000004</ele>
        <time>2025-05-18T06:08:40Z</time>
      </trkpt>
      <trkpt lat="43.817531978711486" lon="6.094465032219887">
        <ele>519.73000000000002</ele>
        <time>2025-05-18T06:08:41Z</time>
      </trkpt>
      <trkpt lat="43.817557962611318" lon="6.094524962827563">
        <ele>518.76999999999998</ele>
        <time>2025-05-18T06:08:42Z</time>
      </trkpt>
      <trkpt lat="43.817588975653052" lon="6.094592018052936">
        <ele>518.28999999999996</ele>
        <time>2025-05-18T06:08:43Z</time>
      </trkpt>
      <trkpt lat="43.817620994523168" lon="6.094663012772799">
        <ele>517.80999999999995</ele>
        <time>2025-05-18T06:08:44Z</time>
      </trkpt>
      <trkpt lat="43.817655025050044" lon="6.094738030806184">
        <ele>517.33000000000004</ele>
        <time>2025-05-18T06:08:45Z</time>
      </trkpt>
      <trkpt lat="43.817686038091779" lon="6.094825034961104">
        <ele>516.85000000000002</ele>
        <time>2025-05-18T06:08:46Z</time>
      </trkpt>
      <trkpt lat="43.817723002284765" lon="6.094911033287644">
        <ele>516.37</ele>
        <time>2025-05-18T06:08:47Z</time>
      </trkpt>
      <trkpt lat="43.817764995619655" lon="6.094981022179127">
        <ele>515.88</ele>
        <time>2025-05-18T06:08:48Z</time>
      </trkpt>
      <trkpt lat="43.817804977297783" lon="6.095047993585467">
        <ele>515.39999999999998</ele>
        <time>2025-05-18T06:08:49Z</time>
      </trkpt>
      <trkpt lat="43.817843031138182" lon="6.095112031325698">
        <ele>514.91999999999996</ele>
        <time>2025-05-18T06:08:50Z</time>
      </trkpt>
      <trkpt lat="43.817879995331168" lon="6.095171961933374">
        <ele>514.91999999999996</ele>
        <time>2025-05-18T06:08:51Z</time>
      </trkpt>
      <trkpt lat="43.817922994494438" lon="6.095233988016844">
        <ele>514.91999999999996</ele>
        <time>2025-05-18T06:08:52Z</time>
      </trkpt>
      <trkpt lat="43.817983008921146" lon="6.095309006050229">
        <ele>514.91999999999996</ele>
        <time>2025-05-18T06:08:53Z</time>
      </trkpt>
      <trkpt lat="43.818001030012965" lon="6.095356028527021">
        <ele>514.91999999999996</ele>
        <time>2025-05-18T06:08:54Z</time>
      </trkpt>
      <trkpt lat="43.818046962842345" lon="6.09548301436007">
        <ele>514.91999999999996</ele>
        <time>2025-05-18T06:08:55Z</time>
      </trkpt>
      <trkpt lat="43.818032965064049" lon="6.095577981323004">
        <ele>514.91999999999996</ele>
        <time>2025-05-18T06:08:56Z</time>
      </trkpt>
      <trkpt lat="43.818018967285752" lon="6.095674959942699">
        <ele>515.39999999999998</ele>
        <time>2025-05-18T06:08:57Z</time>
      </trkpt>
      <trkpt lat="43.818004969507456" lon="6.095772022381425">
        <ele>515.39999999999998</ele>
        <time>2025-05-18T06:08:58Z</time>
      </trkpt>
      <trkpt lat="43.817988038063049" lon="6.095881992951036">
        <ele>515.88</ele>
        <time>2025-05-18T06:08:59Z</time>
      </trkpt>
      <trkpt lat="43.817961970344186" lon="6.096060024574399">
        <ele>516.37</ele>
        <time>2025-05-18T06:09:00Z</time>
      </trkpt>
      <trkpt lat="43.817964987829328" lon="6.096091037616134">
        <ele>516.37</ele>
        <time>2025-05-18T06:09:01Z</time>
      </trkpt>
      <trkpt lat="43.817975968122482" lon="6.096203019842506">
        <ele>516.85000000000002</ele>
        <time>2025-05-18T06:09:02Z</time>
      </trkpt>
      <trkpt lat="43.817999018356204" lon="6.096551036462188">
        <ele>519.73000000000002</ele>
        <time>2025-05-18T06:09:05Z</time>
      </trkpt>
      <trkpt lat="43.818004969507456" lon="6.09666695818305">
        <ele>521.16999999999996</ele>
        <time>2025-05-18T06:09:06Z</time>
      </trkpt>
      <trkpt lat="43.818060960620642" lon="6.097665997222066">
        <ele>526.94000000000005</ele>
        <time>2025-05-18T06:09:14Z</time>
      </trkpt>
      <trkpt lat="43.818068001419306" lon="6.097785020247102">
        <ele>526.94000000000005</ele>
        <time>2025-05-18T06:09:15Z</time>
      </trkpt>
      <trkpt lat="43.818112006410956" lon="6.099051022902131">
        <ele>529.82000000000005</ele>
        <time>2025-05-18T06:09:25Z</time>
      </trkpt>
      <trkpt lat="43.818112006410956" lon="6.099184965714812">
        <ele>530.29999999999995</ele>
        <time>2025-05-18T06:09:26Z</time>
      </trkpt>
      <trkpt lat="43.818112006410956" lon="6.099313041195273">
        <ele>530.29999999999995</ele>
        <time>2025-05-18T06:09:27Z</time>
      </trkpt>
      <trkpt lat="43.818145031109452" lon="6.100121978670359">
        <ele>532.23000000000002</ele>
        <time>2025-05-18T06:09:33Z</time>
      </trkpt>
      <trkpt lat="43.81816104054451" lon="6.100264973938465">
        <ele>532.71000000000004</ele>
        <time>2025-05-18T06:09:34Z</time>
      </trkpt>
      <trkpt lat="43.818178977817297" lon="6.100405035540462">
        <ele>533.66999999999996</ele>
        <time>2025-05-18T06:09:35Z</time>
      </trkpt>
      <trkpt lat="43.818554989993572" lon="6.101909000426531">
        <ele>540.88</ele>
        <time>2025-05-18T06:09:46Z</time>
      </trkpt>
      <trkpt lat="43.818997973576188" lon="6.103508016094565">
        <ele>550.00999999999999</ele>
        <time>2025-05-18T06:09:57Z</time>
      </trkpt>
      <trkpt lat="43.819187991321087" lon="6.104135988280177">
        <ele>553.38</ele>
        <time>2025-05-18T06:10:01Z</time>
      </trkpt>
      <trkpt lat="43.81923601962626" lon="6.10429298132658">
        <ele>553.86000000000001</ele>
        <time>2025-05-18T06:10:02Z</time>
      </trkpt>
      <trkpt lat="43.819281030446291" lon="6.104443017393351">
        <ele>554.34000000000003</ele>
        <time>2025-05-18T06:10:03Z</time>
      </trkpt>
      <trkpt lat="43.819573977962136" lon="6.106306985020638">
        <ele>554.82000000000005</ele>
        <time>2025-05-18T06:10:14Z</time>
      </trkpt>
      <trkpt lat="43.819728037342429" lon="6.107913041487336">
        <ele>557.70000000000005</ele>
        <time>2025-05-18T06:10:24Z</time>
      </trkpt>
      <trkpt lat="43.819742035120726" lon="6.108061987906694">
        <ele>558.17999999999995</ele>
        <time>2025-05-18T06:10:25Z</time>
      </trkpt>
      <trkpt lat="43.819785034283996" lon="6.108364993706346">
        <ele>559.13999999999999</ele>
        <time>2025-05-18T06:10:27Z</time>
      </trkpt>
      <trkpt lat="43.820254001766443" lon="6.110059982165694">
        <ele>562.02999999999997</ele>
        <time>2025-05-18T06:10:38Z</time>
      </trkpt>
      <trkpt lat="43.820434967055917" lon="6.11086598597467">
        <ele>562.99000000000001</ele>
        <time>2025-05-18T06:10:43Z</time>
      </trkpt>
      <trkpt lat="43.820454999804497" lon="6.111032031476498">
        <ele>562.99000000000001</ele>
        <time>2025-05-18T06:10:44Z</time>
      </trkpt>
      <trkpt lat="43.82074199616909" lon="6.112987026572228">
        <ele>568.75999999999999</ele>
        <time>2025-05-18T06:10:56Z</time>
      </trkpt>
      <trkpt lat="43.821247005835176" lon="6.114677991718054">
        <ele>570.20000000000005</ele>
        <time>2025-05-18T06:11:07Z</time>
      </trkpt>
      <trkpt lat="43.821296961978078" lon="6.114836996421218">
        <ele>570.20000000000005</ele>
        <time>2025-05-18T06:11:08Z</time>
      </trkpt>
      <trkpt lat="43.821787973865867" lon="6.116803977638483">
        <ele>571.63999999999999</ele>
        <time>2025-05-18T06:11:18Z</time>
      </trkpt>
      <trkpt lat="43.822159040719271" lon="6.11836401745677">
        <ele>573.08000000000004</ele>
        <time>2025-05-18T06:11:25Z</time>
      </trkpt>
      <trkpt lat="43.82220002822578" lon="6.118593011051416">
        <ele>573.55999999999995</ele>
        <time>2025-05-18T06:11:26Z</time>
      </trkpt>
      <trkpt lat="43.822317961603403" lon="6.119256019592285">
        <ele>574.52999999999997</ele>
        <time>2025-05-18T06:11:29Z</time>
      </trkpt>
      <trkpt lat="43.82230999879539" lon="6.119458023458719">
        <ele>574.03999999999996</ele>
        <time>2025-05-18T06:11:30Z</time>
      </trkpt>
      <trkpt lat="43.822284014895558" lon="6.120118014514446">
        <ele>574.03999999999996</ele>
        <time>2025-05-18T06:11:33Z</time>
      </trkpt>
      <trkpt lat="43.822274962440133" lon="6.120340973138809">
        <ele>574.03999999999996</ele>
        <time>2025-05-18T06:11:34Z</time>
      </trkpt>
      <trkpt lat="43.822342017665505" lon="6.120552029460669">
        <ele>574.03999999999996</ele>
        <time>2025-05-18T06:11:35Z</time>
      </trkpt>
      <trkpt lat="43.822411000728607" lon="6.120759984478355">
        <ele>574.03999999999996</ele>
        <time>2025-05-18T06:11:36Z</time>
      </trkpt>
      <trkpt lat="43.822489036247134" lon="6.120968023315072">
        <ele>574.52999999999997</ele>
        <time>2025-05-18T06:11:37Z</time>
      </trkpt>
      <trkpt lat="43.822590038180351" lon="6.12115703523159">
        <ele>574.52999999999997</ele>
        <time>2025-05-18T06:11:38Z</time>
      </trkpt>
      <trkpt lat="43.824225012212992" lon="6.124158008024097">
        <ele>580.76999999999998</ele>
        <time>2025-05-18T06:11:54Z</time>
      </trkpt>
      <trkpt lat="43.825007965788245" lon="6.125277997925878">
        <ele>586.05999999999995</ele>
        <time>2025-05-18T06:12:02Z</time>
      </trkpt>
      <trkpt lat="43.825830984860659" lon="6.126424977555871">
        <ele>591.35000000000002</ele>
        <time>2025-05-18T06:12:12Z</time>
      </trkpt>
      <trkpt lat="43.826459962874651" lon="6.127884015440941">
        <ele>596.63999999999999</ele>
        <time>2025-05-18T06:12:22Z</time>
      </trkpt>
      <trkpt lat="43.826741008087993" lon="6.128607960417867">
        <ele>596.63999999999999</ele>
        <time>2025-05-18T06:12:27Z</time>
      </trkpt>
      <trkpt lat="43.826791970059276" lon="6.128748022019863">
        <ele>596.63999999999999</ele>
        <time>2025-05-18T06:12:28Z</time>
      </trkpt>
      <trkpt lat="43.82699497975409" lon="6.129680005833507">
        <ele>598.08000000000004</ele>
        <time>2025-05-18T06:12:34Z</time>
      </trkpt>
      <trkpt lat="43.826987016946077" lon="6.130004972219467">
        <ele>599.51999999999998</ele>
        <time>2025-05-18T06:12:36Z</time>
      </trkpt>
      <trkpt lat="43.826976958662271" lon="6.130170011892915">
        <ele>599.51999999999998</ele>
        <time>2025-05-18T06:12:37Z</time>
      </trkpt>
      <trkpt lat="43.826810996979475" lon="6.131955021992326">
        <ele>604.80999999999995</ele>
        <time>2025-05-18T06:12:48Z</time>
      </trkpt>
      <trkpt lat="43.826780989766121" lon="6.132793966680765">
        <ele>606.25</ele>
        <time>2025-05-18T06:12:52Z</time>
      </trkpt>
      <trkpt lat="43.826988022774458" lon="6.135237039998174">
        <ele>606.25</ele>
        <time>2025-05-18T06:13:02Z</time>
      </trkpt>
      <trkpt lat="43.82729304023087" lon="6.136144967749715">
        <ele>606.73000000000002</ele>
        <time>2025-05-18T06:13:06Z</time>
      </trkpt>
      <trkpt lat="43.827390018850565" lon="6.136361975222826">
        <ele>606.73000000000002</ele>
        <time>2025-05-18T06:13:07Z</time>
      </trkpt>
      <trkpt lat="43.827497977763414" lon="6.136565990746021">
        <ele>606.73000000000002</ele>
        <time>2025-05-18T06:13:08Z</time>
      </trkpt>
      <trkpt lat="43.828488970175385" lon="6.138049000874162">
        <ele>608.16999999999996</ele>
        <time>2025-05-18T06:13:16Z</time>
      </trkpt>
      <trkpt lat="43.829479040578008" lon="6.139104031026363">
        <ele>608.64999999999998</ele>
        <time>2025-05-18T06:13:23Z</time>
      </trkpt>
      <trkpt lat="43.830374982208014" lon="6.1398930195719">
        <ele>607.21000000000004</ele>
        <time>2025-05-18T06:13:29Z</time>
      </trkpt>
      <trkpt lat="43.830524012446404" lon="6.140011958777905">
        <ele>606.73000000000002</ele>
        <time>2025-05-18T06:13:30Z</time>
      </trkpt>
      <trkpt lat="43.830668013542891" lon="6.140152020379901">
        <ele>606.25</ele>
        <time>2025-05-18T06:13:31Z</time>
      </trkpt>
      <trkpt lat="43.831296991556883" lon="6.141064977273345">
        <ele>605.76999999999998</ele>
        <time>2025-05-18T06:13:36Z</time>
      </trkpt>
      <trkpt lat="43.831617012619972" lon="6.141587002202869">
        <ele>605.76999999999998</ele>
        <time>2025-05-18T06:13:39Z</time>
      </trkpt>
      <trkpt lat="43.831738969311118" lon="6.141717005521059">
        <ele>605.76999999999998</ele>
        <time>2025-05-18T06:13:40Z</time>
      </trkpt>
      <trkpt lat="43.83187199011445" lon="6.141793029382825">
        <ele>605.76999999999998</ele>
        <time>2025-05-18T06:13:41Z</time>
      </trkpt>
      <trkpt lat="43.832013979554176" lon="6.141851032152772">
        <ele>605.76999999999998</ele>
        <time>2025-05-18T06:13:42Z</time>
      </trkpt>
      <trkpt lat="43.832169966772199" lon="6.141849020496011">
        <ele>605.76999999999998</ele>
        <time>2025-05-18T06:13:43Z</time>
      </trkpt>
      <trkpt lat="43.832289995625615" lon="6.141765033826232">
        <ele>606.25</ele>
        <time>2025-05-18T06:13:44Z</time>
      </trkpt>
      <trkpt lat="43.832418993115425" lon="6.141631007194519">
        <ele>606.25</ele>
        <time>2025-05-18T06:13:45Z</time>
      </trkpt>
      <trkpt lat="43.832508008927107" lon="6.141465967521071">
        <ele>606.73000000000002</ele>
        <time>2025-05-18T06:13:46Z</time>
      </trkpt>
      <trkpt lat="43.83260197006166" lon="6.141291037201881">
        <ele>607.21000000000004</ele>
        <time>2025-05-18T06:13:47Z</time>
      </trkpt>
      <trkpt lat="43.832682017236948" lon="6.141143012791872">
        <ele>607.69000000000005</ele>
        <time>2025-05-18T06:13:48Z</time>
      </trkpt>
      <trkpt lat="43.83281797170639" lon="6.141026001423597">
        <ele>607.69000000000005</ele>
        <time>2025-05-18T06:13:49Z</time>
      </trkpt>
      <trkpt lat="43.832947975024581" lon="6.14094796590507">
        <ele>608.16999999999996</ele>
        <time>2025-05-18T06:13:50Z</time>
      </trkpt>
      <trkpt lat="43.833083007484674" lon="6.140928016975522">
        <ele>608.64999999999998</ele>
        <time>2025-05-18T06:13:51Z</time>
      </trkpt>
      <trkpt lat="43.833228014409542" lon="6.14094696007669">
        <ele>609.61000000000001</ele>
        <time>2025-05-18T06:13:52Z</time>
      </trkpt>
      <trkpt lat="43.833390036597848" lon="6.141005968675017">
        <ele>610.09000000000003</ele>
        <time>2025-05-18T06:13:53Z</time>
      </trkpt>
      <trkpt lat="43.833560021594167" lon="6.141066988930106">
        <ele>610.57000000000005</ele>
        <time>2025-05-18T06:13:54Z</time>
      </trkpt>
      <trkpt lat="43.833733024075627" lon="6.141130020841956">
        <ele>611.05999999999995</ele>
        <time>2025-05-18T06:13:55Z</time>
      </trkpt>
      <trkpt lat="43.833910971879959" lon="6.141193974763155">
        <ele>612.01999999999998</ele>
        <time>2025-05-18T06:13:56Z</time>
      </trkpt>
      <trkpt lat="43.834075005725026" lon="6.141326995566487">
        <ele>612.5</ele>
        <time>2025-05-18T06:13:57Z</time>
      </trkpt>
      <trkpt lat="43.834235016256571" lon="6.141477031633258">
        <ele>612.98000000000002</ele>
        <time>2025-05-18T06:13:58Z</time>
      </trkpt>
      <trkpt lat="43.834398966282606" lon="6.141631007194519">
        <ele>613.94000000000005</ele>
        <time>2025-05-18T06:13:59Z</time>
      </trkpt>
      <trkpt lat="43.83515601977706" lon="6.1423400323838">
        <ele>616.34000000000003</ele>
        <time>2025-05-18T06:14:04Z</time>
      </trkpt>
      <trkpt lat="43.835302032530308" lon="6.142476992681623">
        <ele>616.82000000000005</ele>
        <time>2025-05-18T06:14:05Z</time>
      </trkpt>
      <trkpt lat="43.835433963686228" lon="6.142639014869928">
        <ele>617.29999999999995</ele>
        <time>2025-05-18T06:14:06Z</time>
      </trkpt>
      <trkpt lat="43.83556698448956" lon="6.142808999866247">
        <ele>617.77999999999997</ele>
        <time>2025-05-18T06:14:07Z</time>
      </trkpt>
      <trkpt lat="43.835701011121273" lon="6.142979990690947">
        <ele>618.25999999999999</ele>
        <time>2025-05-18T06:14:08Z</time>
      </trkpt>
      <trkpt lat="43.836480025202036" lon="6.14397500641644">
        <ele>621.63</ele>
        <time>2025-05-18T06:14:14Z</time>
      </trkpt>
      <trkpt lat="43.836572980508208" lon="6.14419000223279">
        <ele>622.11000000000001</ele>
        <time>2025-05-18T06:14:15Z</time>
      </trkpt>
      <trkpt lat="43.837039014324546" lon="6.145341005176306">
        <ele>624.50999999999999</ele>
        <time>2025-05-18T06:14:20Z</time>
      </trkpt>
      <trkpt lat="43.837100034579635" lon="6.145595982670784">
        <ele>624.50999999999999</ele>
        <time>2025-05-18T06:14:21Z</time>
      </trkpt>
      <trkpt lat="43.837274964898825" lon="6.146282041445375">
        <ele>625.96000000000004</ele>
        <time>2025-05-18T06:14:24Z</time>
      </trkpt>
      <trkpt lat="43.837491972371936" lon="6.14696198143065">
        <ele>626.91999999999996</ele>
        <time>2025-05-18T06:14:27Z</time>
      </trkpt>
      <trkpt lat="43.837558021768928" lon="6.147206984460354">
        <ele>626.91999999999996</ele>
        <time>2025-05-18T06:14:28Z</time>
      </trkpt>
      <trkpt lat="43.837584005668759" lon="6.147471014410257">
        <ele>626.91999999999996</ele>
        <time>2025-05-18T06:14:29Z</time>
      </trkpt>
      <trkpt lat="43.837608983740211" lon="6.147737978026271">
        <ele>626.91999999999996</ele>
        <time>2025-05-18T06:14:30Z</time>
      </trkpt>
      <trkpt lat="43.837608983740211" lon="6.14801499992609">
        <ele>627.39999999999998</ele>
        <time>2025-05-18T06:14:31Z</time>
      </trkpt>
      <trkpt lat="43.837598003447056" lon="6.14829302765429">
        <ele>627.88</ele>
        <time>2025-05-18T06:14:32Z</time>
      </trkpt>
      <trkpt lat="43.837592974305153" lon="6.150670973584056">
        <ele>629.79999999999995</ele>
        <time>2025-05-18T06:14:41Z</time>
      </trkpt>
      <trkpt lat="43.837647959589958" lon="6.150903990492225">
        <ele>630.27999999999997</ele>
        <time>2025-05-18T06:14:42Z</time>
      </trkpt>
      <trkpt lat="43.837704034522176" lon="6.151142958551645">
        <ele>630.27999999999997</ele>
        <time>2025-05-18T06:14:43Z</time>
      </trkpt>
      <trkpt lat="43.837762959301472" lon="6.151391984894872">
        <ele>630.75999999999999</ele>
        <time>2025-05-18T06:14:44Z</time>
      </trkpt>
      <trkpt lat="43.837821967899799" lon="6.151645034551621">
        <ele>630.75999999999999</ele>
        <time>2025-05-18T06:14:45Z</time>
      </trkpt>
      <trkpt lat="43.838127991184592" lon="6.153701031580567">
        <ele>633.16999999999996</ele>
        <time>2025-05-18T06:14:53Z</time>
      </trkpt>
      <trkpt lat="43.838183982297778" lon="6.153951985761523">
        <ele>633.64999999999998</ele>
        <time>2025-05-18T06:14:54Z</time>
      </trkpt>
      <trkpt lat="43.838249025866389" lon="6.154190031811595">
        <ele>634.13</ele>
        <time>2025-05-18T06:14:55Z</time>
      </trkpt>
      <trkpt lat="43.83891899138689" lon="6.156106973066926">
        <ele>636.04999999999995</ele>
        <time>2025-05-18T06:15:03Z</time>
      </trkpt>
      <trkpt lat="43.839109009131789" lon="6.156589016318321">
        <ele>636.52999999999997</ele>
        <time>2025-05-18T06:15:05Z</time>
      </trkpt>
      <trkpt lat="43.83923901244998" lon="6.156793031841517">
        <ele>636.52999999999997</ele>
        <time>2025-05-18T06:15:06Z</time>
      </trkpt>
      <trkpt lat="43.83939097635448" lon="6.156961005181074">
        <ele>636.52999999999997</ele>
        <time>2025-05-18T06:15:07Z</time>
      </trkpt>
      <trkpt lat="43.839546041563153" lon="6.157127972692251">
        <ele>636.52999999999997</ele>
        <time>2025-05-18T06:15:08Z</time>
      </trkpt>
      <trkpt lat="43.839701022952795" lon="6.15729502402246">
        <ele>637.00999999999999</ele>
        <time>2025-05-18T06:15:09Z</time>
      </trkpt>
      <trkpt lat="43.839852986857295" lon="6.157471965998411">
        <ele>637.00999999999999</ele>
        <time>2025-05-18T06:15:10Z</time>
      </trkpt>
      <trkpt lat="43.839991958811879" lon="6.15766198374331">
        <ele>637.00999999999999</ele>
        <time>2025-05-18T06:15:11Z</time>
      </trkpt>
      <trkpt lat="43.840262023732066" lon="6.158029027283192">
        <ele>637.49000000000001</ele>
        <time>2025-05-18T06:15:13Z</time>
      </trkpt>
      <trkpt lat="43.840403007343411" lon="6.158179985359311">
        <ele>637.97000000000003</ele>
        <time>2025-05-18T06:15:14Z</time>
      </trkpt>
      <trkpt lat="43.840562012046576" lon="6.158289033919573">
        <ele>637.97000000000003</ele>
        <time>2025-05-18T06:15:15Z</time>
      </trkpt>
      <trkpt lat="43.840726967900991" lon="6.158384000882506">
        <ele>638.45000000000005</ele>
        <time>2025-05-18T06:15:16Z</time>
      </trkpt>
      <trkpt lat="43.840901982039213" lon="6.158471005037427">
        <ele>637.97000000000003</ele>
        <time>2025-05-18T06:15:17Z</time>
      </trkpt>
      <trkpt lat="43.841428030282259" lon="6.158767975866795">
        <ele>638.45000000000005</ele>
        <time>2025-05-18T06:15:20Z</time>
      </trkpt>
      <trkpt lat="43.841574965044856" lon="6.15890602581203">
        <ele>638.45000000000005</ele>
        <time>2025-05-18T06:15:21Z</time>
      </trkpt>
      <trkpt lat="43.841716032475233" lon="6.159064024686813">
        <ele>638.92999999999995</ele>
        <time>2025-05-18T06:15:22Z</time>
      </trkpt>
      <trkpt lat="43.84181896224618" lon="6.15927399136126">
        <ele>639.88999999999999</ele>
        <time>2025-05-18T06:15:23Z</time>
      </trkpt>
      <trkpt lat="43.841921975836158" lon="6.159485969692469">
        <ele>640.38</ele>
        <time>2025-05-18T06:15:24Z</time>
      </trkpt>
      <trkpt lat="43.842020966112614" lon="6.159687973558903">
        <ele>641.34000000000003</ele>
        <time>2025-05-18T06:15:25Z</time>
      </trkpt>
      <trkpt lat="43.842120040208101" lon="6.159873967990279">
        <ele>641.82000000000005</ele>
        <time>2025-05-18T06:15:26Z</time>
      </trkpt>
      <trkpt lat="43.842250965535641" lon="6.16002500988543">
        <ele>642.77999999999997</ele>
        <time>2025-05-18T06:15:27Z</time>
      </trkpt>
      <trkpt lat="43.842387003824115" lon="6.160179991275072">
        <ele>643.74000000000001</ele>
        <time>2025-05-18T06:15:28Z</time>
      </trkpt>
      <trkpt lat="43.842646004632115" lon="6.16051803342998">
        <ele>645.65999999999997</ele>
        <time>2025-05-18T06:15:30Z</time>
      </trkpt>
      <trkpt lat="43.842866029590368" lon="6.160844005644321">
        <ele>647.59000000000003</ele>
        <time>2025-05-18T06:15:32Z</time>
      </trkpt>
      <trkpt lat="43.842998966574669" lon="6.160966968163848">
        <ele>648.54999999999995</ele>
        <time>2025-05-18T06:15:33Z</time>
      </trkpt>
      <trkpt lat="43.843145985156298" lon="6.161084985360503">
        <ele>649.50999999999999</ele>
        <time>2025-05-18T06:15:34Z</time>
      </trkpt>
      <trkpt lat="43.843309013172984" lon="6.161193028092384">
        <ele>650.47000000000003</ele>
        <time>2025-05-18T06:15:35Z</time>
      </trkpt>
      <trkpt lat="43.843484027311206" lon="6.16129201836884">
        <ele>651.42999999999995</ele>
        <time>2025-05-18T06:15:36Z</time>
      </trkpt>
      <trkpt lat="43.843834977596998" lon="6.161444988101721">
        <ele>653.35000000000002</ele>
        <time>2025-05-18T06:15:38Z</time>
      </trkpt>
      <trkpt lat="43.844006974250078" lon="6.161480024456978">
        <ele>654.30999999999995</ele>
        <time>2025-05-18T06:15:39Z</time>
      </trkpt>
      <trkpt lat="43.844170002266765" lon="6.161495028063655">
        <ele>654.79999999999995</ele>
        <time>2025-05-18T06:15:40Z</time>
      </trkpt>
      <trkpt lat="43.844311991706491" lon="6.16150600835681">
        <ele>655.27999999999997</ele>
        <time>2025-05-18T06:15:41Z</time>
      </trkpt>
      <trkpt lat="43.844470996409655" lon="6.161580020561814">
        <ele>655.75999999999999</ele>
        <time>2025-05-18T06:15:42Z</time>
      </trkpt>
      <trkpt lat="43.844613991677761" lon="6.161646991968155">
        <ele>655.75999999999999</ele>
        <time>2025-05-18T06:15:43Z</time>
      </trkpt>
      <trkpt lat="43.844731003046036" lon="6.161791998893023">
        <ele>655.75999999999999</ele>
        <time>2025-05-18T06:15:44Z</time>
      </trkpt>
      <trkpt lat="43.844841979444027" lon="6.161947986111045">
        <ele>656.24000000000001</ele>
        <time>2025-05-18T06:15:45Z</time>
      </trkpt>
      <trkpt lat="43.844958990812302" lon="6.162113025784493">
        <ele>656.72000000000003</ele>
        <time>2025-05-18T06:15:46Z</time>
      </trkpt>
      <trkpt lat="43.845064016059041" lon="6.162308994680643">
        <ele>657.20000000000005</ele>
        <time>2025-05-18T06:15:47Z</time>
      </trkpt>
      <trkpt lat="43.846106976270676" lon="6.164200035855174">
        <ele>659.60000000000002</ele>
        <time>2025-05-18T06:15:56Z</time>
      </trkpt>
      <trkpt lat="43.847556039690971" lon="6.166875958442688">
        <ele>662.49000000000001</ele>
        <time>2025-05-18T06:16:08Z</time>
      </trkpt>
      <trkpt lat="43.848768984898925" lon="6.16934702731669">
        <ele>669.70000000000005</ele>
        <time>2025-05-18T06:16:19Z</time>
      </trkpt>
      <trkpt lat="43.849070984870195" lon="6.170345982536674">
        <ele>672.58000000000004</ele>
        <time>2025-05-18T06:16:23Z</time>
      </trkpt>
      <trkpt lat="43.849172992631793" lon="6.170568019151688">
        <ele>673.05999999999995</ele>
        <time>2025-05-18T06:16:24Z</time>
      </trkpt>
      <trkpt lat="43.849291009828448" lon="6.170778991654515">
        <ele>674.01999999999998</ele>
        <time>2025-05-18T06:16:25Z</time>
      </trkpt>
      <trkpt lat="43.849411960691214" lon="6.170984013006091">
        <ele>674.5</ele>
        <time>2025-05-18T06:16:26Z</time>
      </trkpt>
      <trkpt lat="43.849565014243126" lon="6.171145029366016">
        <ele>674.5</ele>
        <time>2025-05-18T06:16:27Z</time>
      </trkpt>
      <trkpt lat="43.85039197281003" lon="6.172065027058125">
        <ele>676.90999999999997</ele>
        <time>2025-05-18T06:16:33Z</time>
      </trkpt>
      <trkpt lat="43.850479982793331" lon="6.172252027317882">
        <ele>677.38999999999999</ele>
        <time>2025-05-18T06:16:34Z</time>
      </trkpt>
      <trkpt lat="43.850568998605013" lon="6.17244497872889">
        <ele>677.87</ele>
        <time>2025-05-18T06:16:35Z</time>
      </trkpt>
      <trkpt lat="43.850650973618031" lon="6.172644970938563">
        <ele>678.35000000000002</ele>
        <time>2025-05-18T06:16:36Z</time>
      </trkpt>
      <trkpt lat="43.850695984438062" lon="6.172875976189971">
        <ele>678.83000000000004</ele>
        <time>2025-05-18T06:16:37Z</time>
      </trkpt>
      <trkpt lat="43.850740995258093" lon="6.17310899309814">
        <ele>679.78999999999996</ele>
        <time>2025-05-18T06:16:38Z</time>
      </trkpt>
      <trkpt lat="43.851087000221014" lon="6.175460033118725">
        <ele>687</ele>
        <time>2025-05-18T06:16:48Z</time>
      </trkpt>
      <trkpt lat="43.851127987727523" lon="6.175692966207862">
        <ele>687.48000000000002</ele>
        <time>2025-05-18T06:16:49Z</time>
      </trkpt>
      <trkpt lat="43.851988976821303" lon="6.17807200178504">
        <ele>693.25</ele>
        <time>2025-05-18T06:17:00Z</time>
      </trkpt>
      <trkpt lat="43.852455010637641" lon="6.179650984704495">
        <ele>697.09000000000003</ele>
        <time>2025-05-18T06:17:07Z</time>
      </trkpt>
      <trkpt lat="43.85247697122395" lon="6.179894981905818">
        <ele>698.04999999999995</ele>
        <time>2025-05-18T06:17:08Z</time>
      </trkpt>
      <trkpt lat="43.852500021457672" lon="6.180146019905806">
        <ele>699.01999999999998</ele>
        <time>2025-05-18T06:17:09Z</time>
      </trkpt>
      <trkpt lat="43.852500021457672" lon="6.180398985743523">
        <ele>699.98000000000002</ele>
        <time>2025-05-18T06:17:10Z</time>
      </trkpt>
      <trkpt lat="43.852479988709092" lon="6.180657986551523">
        <ele>700.94000000000005</ele>
        <time>2025-05-18T06:17:11Z</time>
      </trkpt>
      <trkpt lat="43.852428020909429" lon="6.18090701289475">
        <ele>701.41999999999996</ele>
        <time>2025-05-18T06:17:12Z</time>
      </trkpt>
      <trkpt lat="43.852374041453004" lon="6.181161990389228">
        <ele>702.38</ele>
        <time>2025-05-18T06:17:13Z</time>
      </trkpt>
      <trkpt lat="43.851865008473396" lon="6.183759961277247">
        <ele>707.19000000000005</ele>
        <time>2025-05-18T06:17:23Z</time>
      </trkpt>
      <trkpt lat="43.852081010118127" lon="6.185370041057468">
        <ele>709.59000000000003</ele>
        <time>2025-05-18T06:17:29Z</time>
      </trkpt>
      <trkpt lat="43.852878967300057" lon="6.1872230283916">
        <ele>713.91999999999996</ele>
        <time>2025-05-18T06:17:37Z</time>
      </trkpt>
      <trkpt lat="43.854539003223181" lon="6.190760023891926">
        <ele>725.45000000000005</ele>
        <time>2025-05-18T06:17:53Z</time>
      </trkpt>
      <trkpt lat="43.855079971253872" lon="6.191942961886525">
        <ele>730.25999999999999</ele>
        <time>2025-05-18T06:18:00Z</time>
      </trkpt>
      <trkpt lat="43.855842975899577" lon="6.193608026951551">
        <ele>728.82000000000005</ele>
        <time>2025-05-18T06:18:08Z</time>
      </trkpt>
      <trkpt lat="43.856852995231748" lon="6.195820011198521">
        <ele>718.72000000000003</ele>
        <time>2025-05-18T06:18:18Z</time>
      </trkpt>
      <trkpt lat="43.857449032366276" lon="6.197158014401794">
        <ele>711.02999999999997</ele>
        <time>2025-05-18T06:18:25Z</time>
      </trkpt>
      <trkpt lat="43.857561014592648" lon="6.19728097692132">
        <ele>710.07000000000005</ele>
        <time>2025-05-18T06:18:26Z</time>
      </trkpt>
      <trkpt lat="43.857689006254077" lon="6.197389019653201">
        <ele>708.63</ele>
        <time>2025-05-18T06:18:27Z</time>
      </trkpt>
      <trkpt lat="43.857822027057409" lon="6.197499996051192">
        <ele>707.19000000000005</ele>
        <time>2025-05-18T06:18:28Z</time>
      </trkpt>
      <trkpt lat="43.857945995405316" lon="6.197612984105945">
        <ele>705.75</ele>
        <time>2025-05-18T06:18:29Z</time>
      </trkpt>
      <trkpt lat="43.858036017045379" lon="6.197766037657857">
        <ele>704.77999999999997</ele>
        <time>2025-05-18T06:18:30Z</time>
      </trkpt>
      <trkpt lat="43.858116986230016" lon="6.197904003784061">
        <ele>703.82000000000005</ele>
        <time>2025-05-18T06:18:31Z</time>
      </trkpt>
      <trkpt lat="43.858261993154883" lon="6.198151018470526">
        <ele>701.41999999999996</ele>
        <time>2025-05-18T06:18:33Z</time>
      </trkpt>
      <trkpt lat="43.858323013409972" lon="6.198254032060504">
        <ele>700.46000000000004</ele>
        <time>2025-05-18T06:18:34Z</time>
      </trkpt>
      <trkpt lat="43.858427032828331" lon="6.198431979864836">
        <ele>697.57000000000005</ele>
        <time>2025-05-18T06:18:36Z</time>
      </trkpt>
      <trkpt lat="43.85846802033484" lon="6.198502974584699">
        <ele>696.61000000000001</ele>
        <time>2025-05-18T06:18:37Z</time>
      </trkpt>
      <trkpt lat="43.858516970649362" lon="6.198585033416748">
        <ele>696.13</ele>
        <time>2025-05-18T06:18:38Z</time>
      </trkpt>
      <trkpt lat="43.858504984527826" lon="6.198642030358315">
        <ele>695.16999999999996</ele>
        <time>2025-05-18T06:18:39Z</time>
      </trkpt>
      <trkpt lat="43.858471037819982" lon="6.198704978451133">
        <ele>694.21000000000004</ele>
        <time>2025-05-18T06:18:40Z</time>
      </trkpt>
      <trkpt lat="43.858427032828331" lon="6.198727022856474">
        <ele>693.73000000000002</ele>
        <time>2025-05-18T06:18:41Z</time>
      </trkpt>
      <trkpt lat="43.858311027288437" lon="6.198630966246128">
        <ele>692.76999999999998</ele>
        <time>2025-05-18T06:18:42Z</time>
      </trkpt>
      <trkpt lat="43.858227962628007" lon="6.198543040081859">
        <ele>691.80999999999995</ele>
        <time>2025-05-18T06:18:43Z</time>
      </trkpt>
      <trkpt lat="43.858128972351551" lon="6.1984390206635">
        <ele>691.33000000000004</ele>
        <time>2025-05-18T06:18:44Z</time>
      </trkpt>
      <trkpt lat="43.8576740026474" lon="6.197961000725627">
        <ele>688.44000000000005</ele>
        <time>2025-05-18T06:18:48Z</time>
      </trkpt>
      <trkpt lat="43.857533019036055" lon="6.197909032925963">
        <ele>687.96000000000004</ele>
        <time>2025-05-18T06:18:49Z</time>
      </trkpt>
      <trkpt lat="43.857252979651093" lon="6.197808030992746">
        <ele>686.03999999999996</ele>
        <time>2025-05-18T06:18:51Z</time>
      </trkpt>
      <trkpt lat="43.857113001868129" lon="6.197727983817458">
        <ele>685.08000000000004</ele>
        <time>2025-05-18T06:18:52Z</time>
      </trkpt>
      <trkpt lat="43.856949973851442" lon="6.197620024904609">
        <ele>684.12</ele>
        <time>2025-05-18T06:18:53Z</time>
      </trkpt>
      <trkpt lat="43.856842014938593" lon="6.197484992444515">
        <ele>683.14999999999998</ele>
        <time>2025-05-18T06:18:54Z</time>
      </trkpt>
      <trkpt lat="43.85672802105546" lon="6.197341997176409">
        <ele>682.19000000000005</ele>
        <time>2025-05-18T06:18:55Z</time>
      </trkpt>
      <trkpt lat="43.856630036607385" lon="6.197160026058555">
        <ele>681.23000000000002</ele>
        <time>2025-05-18T06:18:56Z</time>
      </trkpt>
      <trkpt lat="43.856544038280845" lon="6.196974031627178">
        <ele>680.26999999999998</ele>
        <time>2025-05-18T06:18:57Z</time>
      </trkpt>
      <trkpt lat="43.856456028297544" lon="6.196782002225518">
        <ele>679.30999999999995</ele>
        <time>2025-05-18T06:18:58Z</time>
      </trkpt>
      <trkpt lat="43.856368018314242" lon="6.196590978652239">
        <ele>678.83000000000004</ele>
        <time>2025-05-18T06:18:59Z</time>
      </trkpt>
      <trkpt lat="43.856263998895884" lon="6.196429962292314">
        <ele>677.87</ele>
        <time>2025-05-18T06:19:00Z</time>
      </trkpt>
      <trkpt lat="43.856141036376357" lon="6.196288978680968">
        <ele>677.38999999999999</ele>
        <time>2025-05-18T06:19:01Z</time>
      </trkpt>
      <trkpt lat="43.856021007522941" lon="6.196151012554765">
        <ele>676.41999999999996</ele>
        <time>2025-05-18T06:19:02Z</time>
      </trkpt>
      <trkpt lat="43.855702998116612" lon="6.195784974843264">
        <ele>674.01999999999998</ele>
        <time>2025-05-18T06:19:05Z</time>
      </trkpt>
      <trkpt lat="43.855532007291913" lon="6.195588000118733">
        <ele>672.10000000000002</ele>
        <time>2025-05-18T06:19:07Z</time>
      </trkpt>
      <trkpt lat="43.855469981208444" lon="6.19551700539887">
        <ele>671.62</ele>
        <time>2025-05-18T06:19:08Z</time>
      </trkpt>
      <trkpt lat="43.855411978438497" lon="6.195488004013896">
        <ele>670.65999999999997</ele>
        <time>2025-05-18T06:19:09Z</time>
      </trkpt>
      <trkpt lat="43.85535498149693" lon="6.195521028712392">
        <ele>670.17999999999995</ele>
        <time>2025-05-18T06:19:10Z</time>
      </trkpt>
      <trkpt lat="43.855327991768718" lon="6.195624964311719">
        <ele>670.17999999999995</ele>
        <time>2025-05-18T06:19:11Z</time>
      </trkpt>
      <trkpt lat="43.855340983718634" lon="6.195687996223569">
        <ele>669.70000000000005</ele>
        <time>2025-05-18T06:19:12Z</time>
      </trkpt>
      <trkpt lat="43.855407033115625" lon="6.19579897262156">
        <ele>668.73000000000002</ele>
        <time>2025-05-18T06:19:13Z</time>
      </trkpt>
      <trkpt lat="43.855466963723302" lon="6.195897962898016">
        <ele>667.76999999999998</ele>
        <time>2025-05-18T06:19:14Z</time>
      </trkpt>
      <trkpt lat="43.856009021401405" lon="6.196802034974098">
        <ele>662.00999999999999</ele>
        <time>2025-05-18T06:19:20Z</time>
      </trkpt>
      <trkpt lat="43.856203984469175" lon="6.197150973603129">
        <ele>660.55999999999995</ele>
        <time>2025-05-18T06:19:22Z</time>
      </trkpt>
      <trkpt lat="43.856520988047123" lon="6.198030989617109">
        <ele>657.67999999999995</ele>
        <time>2025-05-18T06:19:28Z</time>
      </trkpt>
      <trkpt lat="43.856520988047123" lon="6.198110030964017">
        <ele>657.67999999999995</ele>
        <time>2025-05-18T06:19:29Z</time>
      </trkpt>
      <trkpt lat="43.856477988883853" lon="6.198177002370358">
        <ele>657.20000000000005</ele>
        <time>2025-05-18T06:19:30Z</time>
      </trkpt>
      <trkpt lat="43.856412023305893" lon="6.1981609929353">
        <ele>657.20000000000005</ele>
        <time>2025-05-18T06:19:31Z</time>
      </trkpt>
      <trkpt lat="43.856359971687198" lon="6.19809796102345">
        <ele>656.72000000000003</ele>
        <time>2025-05-18T06:19:32Z</time>
      </trkpt>
      <trkpt lat="43.856295011937618" lon="6.197980027645826">
        <ele>656.24000000000001</ele>
        <time>2025-05-18T06:19:33Z</time>
      </trkpt>
      <trkpt lat="43.856208007782698" lon="6.197824040427804">
        <ele>655.75999999999999</ele>
        <time>2025-05-18T06:19:34Z</time>
      </trkpt>
      <trkpt lat="43.856114968657494" lon="6.197655983269215">
        <ele>655.27999999999997</ele>
        <time>2025-05-18T06:19:35Z</time>
      </trkpt>
      <trkpt lat="43.855998041108251" lon="6.197492033243179">
        <ele>654.79999999999995</ele>
        <time>2025-05-18T06:19:36Z</time>
      </trkpt>
      <trkpt lat="43.855841970071197" lon="6.197350965812802">
        <ele>653.83000000000004</ele>
        <time>2025-05-18T06:19:37Z</time>
      </trkpt>
      <trkpt lat="43.854660037904978" lon="6.196404984220862">
        <ele>648.54999999999995</ele>
        <time>2025-05-18T06:19:44Z</time>
      </trkpt>
      <trkpt lat="43.854539003223181" lon="6.196261988952756">
        <ele>647.59000000000003</ele>
        <time>2025-05-18T06:19:45Z</time>
      </trkpt>
      <trkpt lat="43.854415034875274" lon="6.196115976199508">
        <ele>646.62</ele>
        <time>2025-05-18T06:19:46Z</time>
      </trkpt>
      <trkpt lat="43.854286037385464" lon="6.195965018123388">
        <ele>645.65999999999997</ele>
        <time>2025-05-18T06:19:47Z</time>
      </trkpt>
      <trkpt lat="43.85412996634841" lon="6.19586200453341">
        <ele>644.70000000000005</ele>
        <time>2025-05-18T06:19:48Z</time>
      </trkpt>
      <trkpt lat="43.853966016322374" lon="6.195753961801529">
        <ele>643.74000000000001</ele>
        <time>2025-05-18T06:19:49Z</time>
      </trkpt>
      <trkpt lat="43.853381965309381" lon="6.195420026779175">
        <ele>639.40999999999997</ele>
        <time>2025-05-18T06:19:53Z</time>
      </trkpt>
      <trkpt lat="43.853256991133094" lon="6.195404017344117">
        <ele>638.45000000000005</ele>
        <time>2025-05-18T06:19:54Z</time>
      </trkpt>
      <trkpt lat="43.853109972551465" lon="6.195392031222582">
        <ele>637.00999999999999</ele>
        <time>2025-05-18T06:19:55Z</time>
      </trkpt>
      <trkpt lat="43.852949040010571" lon="6.195426983758807">
        <ele>636.04999999999995</ele>
        <time>2025-05-18T06:19:56Z</time>
      </trkpt>
      <trkpt lat="43.852778971195221" lon="6.195464031770825">
        <ele>635.57000000000005</ele>
        <time>2025-05-18T06:19:57Z</time>
      </trkpt>
      <trkpt lat="43.852044967934489" lon="6.195622030645609">
        <ele>630.75999999999999</ele>
        <time>2025-05-18T06:20:01Z</time>
      </trkpt>
      <trkpt lat="43.851866014301777" lon="6.19560300372541">
        <ele>629.79999999999995</ele>
        <time>2025-05-18T06:20:02Z</time>
      </trkpt>
      <trkpt lat="43.851693011820316" lon="6.195580959320068">
        <ele>628.36000000000001</ele>
        <time>2025-05-18T06:20:03Z</time>
      </trkpt>
      <trkpt lat="43.851527972146869" lon="6.19556000456214">
        <ele>627.39999999999998</ele>
        <time>2025-05-18T06:20:04Z</time>
      </trkpt>
      <trkpt lat="43.851364022120833" lon="6.195591017603874">
        <ele>626.91999999999996</ele>
        <time>2025-05-18T06:20:05Z</time>
      </trkpt>
      <trkpt lat="43.851194959133863" lon="6.1956259701401">
        <ele>625.96000000000004</ele>
        <time>2025-05-18T06:20:06Z</time>
      </trkpt>
      <trkpt lat="43.851024974137545" lon="6.195695959031582">
        <ele>625.47000000000003</ele>
        <time>2025-05-18T06:20:07Z</time>
      </trkpt>
      <trkpt lat="43.85086202993989" lon="6.195763014256954">
        <ele>624.50999999999999</ele>
        <time>2025-05-18T06:20:08Z</time>
      </trkpt>
      <trkpt lat="43.850705958902836" lon="6.195827974006534">
        <ele>624.02999999999997</ele>
        <time>2025-05-18T06:20:09Z</time>
      </trkpt>
      <trkpt lat="43.850202960893512" lon="6.196130979806185">
        <ele>622.11000000000001</ele>
        <time>2025-05-18T06:20:12Z</time>
      </trkpt>
      <trkpt lat="43.849483039230108" lon="6.196799017488957">
        <ele>619.23000000000002</ele>
        <time>2025-05-18T06:20:17Z</time>
      </trkpt>
      <trkpt lat="43.849374996498227" lon="6.196963973343372">
        <ele>618.75</ele>
        <time>2025-05-18T06:20:18Z</time>
      </trkpt>
      <trkpt lat="43.849285980686545" lon="6.197160026058555">
        <ele>618.75</ele>
        <time>2025-05-18T06:20:19Z</time>
      </trkpt>
      <trkpt lat="43.849099986255169" lon="6.197568979114294">
        <ele>616.34000000000003</ele>
        <time>2025-05-18T06:20:21Z</time>
      </trkpt>
      <trkpt lat="43.848986998200417" lon="6.197740975767374">
        <ele>615.86000000000001</ele>
        <time>2025-05-18T06:20:22Z</time>
      </trkpt>
      <trkpt lat="43.848750041797757" lon="6.19809603318572">
        <ele>613.94000000000005</ele>
        <time>2025-05-18T06:20:24Z</time>
      </trkpt>
      <trkpt lat="43.848649961873889" lon="6.198307005688548">
        <ele>612.98000000000002</ele>
        <time>2025-05-18T06:20:25Z</time>
      </trkpt>
      <trkpt lat="43.848558012396097" lon="6.198532981798053">
        <ele>612.01999999999998</ele>
        <time>2025-05-18T06:20:26Z</time>
      </trkpt>
      <trkpt lat="43.848171019926667" lon="6.199431018903852">
        <ele>606.73000000000002</ele>
        <time>2025-05-18T06:20:30Z</time>
      </trkpt>
      <trkpt lat="43.847022028639913" lon="6.20147000066936">
        <ele>597.60000000000002</ele>
        <time>2025-05-18T06:20:39Z</time>
      </trkpt>
      <trkpt lat="43.84615701623261" lon="6.20297396555543">
        <ele>592.78999999999996</ele>
        <time>2025-05-18T06:20:47Z</time>
      </trkpt>
      <trkpt lat="43.846129020676017" lon="6.203078990802169">
        <ele>592.30999999999995</ele>
        <time>2025-05-18T06:20:48Z</time>
      </trkpt>
      <trkpt lat="43.84611401706934" lon="6.203199019655585">
        <ele>592.30999999999995</ele>
        <time>2025-05-18T06:20:49Z</time>
      </trkpt>
      <trkpt lat="43.846131032332778" lon="6.203322988003492">
        <ele>592.30999999999995</ele>
        <time>2025-05-18T06:20:50Z</time>
      </trkpt>
      <trkpt lat="43.846149975433946" lon="6.203462965786457">
        <ele>591.83000000000004</ele>
        <time>2025-05-18T06:20:51Z</time>
      </trkpt>
      <trkpt lat="43.846178976818919" lon="6.203671004623175">
        <ele>591.35000000000002</ele>
        <time>2025-05-18T06:20:52Z</time>
      </trkpt>
      <trkpt lat="43.846142012625933" lon="6.203779969364405">
        <ele>591.35000000000002</ele>
        <time>2025-05-18T06:20:53Z</time>
      </trkpt>
      <trkpt lat="43.846054002642632" lon="6.203932017087936">
        <ele>590.87</ele>
        <time>2025-05-18T06:20:54Z</time>
      </trkpt>
      <trkpt lat="43.84594595991075" lon="6.204052967950702">
        <ele>590.87</ele>
        <time>2025-05-18T06:20:55Z</time>
      </trkpt>
      <trkpt lat="43.845826014876366" lon="6.204172996804118">
        <ele>590.38999999999999</ele>
        <time>2025-05-18T06:20:56Z</time>
      </trkpt>
      <trkpt lat="43.844699990004301" lon="6.205456014722586">
        <ele>585.58000000000004</ele>
        <time>2025-05-18T06:21:05Z</time>
      </trkpt>
      <trkpt lat="43.844527993351221" lon="6.205782992765307">
        <ele>584.13999999999999</ele>
        <time>2025-05-18T06:21:07Z</time>
      </trkpt>
      <trkpt lat="43.84446102194488" lon="6.205954989418387">
        <ele>583.65999999999997</ele>
        <time>2025-05-18T06:21:08Z</time>
      </trkpt>
      <trkpt lat="43.843835983425379" lon="6.207560040056706">
        <ele>579.80999999999995</ele>
        <time>2025-05-18T06:21:17Z</time>
      </trkpt>
      <trkpt lat="43.843182027339935" lon="6.209596004337072">
        <ele>576.92999999999995</ele>
        <time>2025-05-18T06:21:27Z</time>
      </trkpt>
      <trkpt lat="43.842445006594062" lon="6.212023990228772">
        <ele>577.88999999999999</ele>
        <time>2025-05-18T06:21:38Z</time>
      </trkpt>
      <trkpt lat="43.842319026589394" lon="6.212438978254795">
        <ele>577.88999999999999</ele>
        <time>2025-05-18T06:21:40Z</time>
      </trkpt>
      <trkpt lat="43.842125991359353" lon="6.213408010080457">
        <ele>576.45000000000005</ele>
        <time>2025-05-18T06:21:45Z</time>
      </trkpt>
      <trkpt lat="43.842137977480888" lon="6.213570032268763">
        <ele>576.45000000000005</ele>
        <time>2025-05-18T06:21:46Z</time>
      </trkpt>
      <trkpt lat="43.842167984694242" lon="6.213699029758573">
        <ele>575.97000000000003</ele>
        <time>2025-05-18T06:21:47Z</time>
      </trkpt>
      <trkpt lat="43.842219030484557" lon="6.213809000328183">
        <ele>575.97000000000003</ele>
        <time>2025-05-18T06:21:48Z</time>
      </trkpt>
      <trkpt lat="43.84226999245584" lon="6.213916959241033">
        <ele>575.97000000000003</ele>
        <time>2025-05-18T06:21:49Z</time>
      </trkpt>
      <trkpt lat="43.84233201853931" lon="6.214006980881095">
        <ele>575.49000000000001</ele>
        <time>2025-05-18T06:21:50Z</time>
      </trkpt>
      <trkpt lat="43.842422962188721" lon="6.214099014177918">
        <ele>575.49000000000001</ele>
        <time>2025-05-18T06:21:51Z</time>
      </trkpt>
      <trkpt lat="43.842524969950318" lon="6.214151987805963">
        <ele>575.49000000000001</ele>
        <time>2025-05-18T06:21:52Z</time>
      </trkpt>
      <trkpt lat="43.84306401014328" lon="6.21442599222064">
        <ele>576.45000000000005</ele>
        <time>2025-05-18T06:21:57Z</time>
      </trkpt>
      <trkpt lat="43.843657029792666" lon="6.214655991643667">
        <ele>577.40999999999997</ele>
        <time>2025-05-18T06:22:03Z</time>
      </trkpt>
      <trkpt lat="43.843904966488481" lon="6.214808039367199">
        <ele>577.40999999999997</ele>
        <time>2025-05-18T06:22:06Z</time>
      </trkpt>
      <trkpt lat="43.843971015885472" lon="6.214896971359849">
        <ele>577.40999999999997</ele>
        <time>2025-05-18T06:22:07Z</time>
      </trkpt>
      <trkpt lat="43.844096995890141" lon="6.215085983276367">
        <ele>577.88999999999999</ele>
        <time>2025-05-18T06:22:09Z</time>
      </trkpt>
      <trkpt lat="43.844160027801991" lon="6.215168964117765">
        <ele>578.37</ele>
        <time>2025-05-18T06:22:10Z</time>
      </trkpt>
      <trkpt lat="43.844426991418004" lon="6.215570960193873">
        <ele>578.37</ele>
        <time>2025-05-18T06:22:15Z</time>
      </trkpt>
      <trkpt lat="43.84443998336792" lon="6.215729964897037">
        <ele>578.85000000000002</ele>
        <time>2025-05-18T06:22:16Z</time>
      </trkpt>
      <trkpt lat="43.844450963661075" lon="6.215790985152125">
        <ele>578.85000000000002</ele>
        <time>2025-05-18T06:22:18Z</time>
      </trkpt>
      <trkpt lat="43.844459010288119" lon="6.21584395878017">
        <ele>579.33000000000004</ele>
        <time>2025-05-18T06:22:19Z</time>
      </trkpt>
      <trkpt lat="43.844501003623009" lon="6.21586499735713">
        <ele>579.33000000000004</ele>
        <time>2025-05-18T06:22:20Z</time>
      </trkpt>
      <trkpt lat="43.844530005007982" lon="6.215870026499033">
        <ele>578.85000000000002</ele>
        <time>2025-05-18T06:22:21Z</time>
      </trkpt>
      <trkpt lat="43.844562023878098" lon="6.215874971821904">
        <ele>578.85000000000002</ele>
        <time>2025-05-18T06:22:22Z</time>
      </trkpt>
      <trkpt lat="43.844591025263071" lon="6.215880000963807">
        <ele>578.85000000000002</ele>
        <time>2025-05-18T06:22:23Z</time>
      </trkpt>
      <trkpt lat="43.844593036919832" lon="6.215858962386847">
        <ele>579.33000000000004</ele>
        <time>2025-05-18T06:22:24Z</time>
      </trkpt>
      <trkpt lat="43.844599993899465" lon="6.215808000415564">
        <ele>579.33000000000004</ele>
        <time>2025-05-18T06:22:25Z</time>
      </trkpt>
      <trkpt lat="43.844607034698129" lon="6.215749997645617">
        <ele>578.85000000000002</ele>
        <time>2025-05-18T06:22:26Z</time>
      </trkpt>
      <trkpt lat="43.844611980021" lon="6.215708004310727">
        <ele>578.85000000000002</ele>
        <time>2025-05-18T06:22:27Z</time>
      </trkpt>
      <trkpt lat="43.844715999439359" lon="6.215675985440612">
        <ele>578.85000000000002</ele>
        <time>2025-05-18T06:22:28Z</time>
      </trkpt>
      <trkpt lat="43.844756986945868" lon="6.215663999319077">
        <ele>578.37</ele>
        <time>2025-05-18T06:22:29Z</time>
      </trkpt>
      <trkpt lat="43.844801997765899" lon="6.21565000154078">
        <ele>578.37</ele>
        <time>2025-05-18T06:22:30Z</time>
      </trkpt>
      <trkpt lat="43.84489101357758" lon="6.215622005984187">
        <ele>578.37</ele>
        <time>2025-05-18T06:22:32Z</time>
      </trkpt>
      <trkpt lat="43.844948010519147" lon="6.215622005984187">
        <ele>577.88999999999999</ele>
        <time>2025-05-18T06:22:33Z</time>
      </trkpt>
      <trkpt lat="43.845006013289094" lon="6.215622005984187">
        <ele>577.88999999999999</ele>
        <time>2025-05-18T06:22:34Z</time>
      </trkpt>
      <trkpt lat="43.845068039372563" lon="6.215655030682683">
        <ele>577.88999999999999</ele>
        <time>2025-05-18T06:22:35Z</time>
      </trkpt>
      <trkpt lat="43.845121013000607" lon="6.215722002089024">
        <ele>577.40999999999997</ele>
        <time>2025-05-18T06:22:36Z</time>
      </trkpt>
      <trkpt lat="43.845160994678736" lon="6.215815963223577">
        <ele>576.92999999999995</ele>
        <time>2025-05-18T06:22:37Z</time>
      </trkpt>
      <trkpt lat="43.845199970528483" lon="6.215915037319064">
        <ele>576.92999999999995</ele>
        <time>2025-05-18T06:22:38Z</time>
      </trkpt>
      <trkpt lat="43.845237018540502" lon="6.216006986796856">
        <ele>576.92999999999995</ele>
        <time>2025-05-18T06:22:39Z</time>
      </trkpt>
      <trkpt lat="43.845269959419966" lon="6.216091979295015">
        <ele>577.88999999999999</ele>
        <time>2025-05-18T06:22:40Z</time>
      </trkpt>
      <trkpt lat="43.845398034900427" lon="6.216416023671627">
        <ele>579.80999999999995</ele>
        <time>2025-05-18T06:22:44Z</time>
      </trkpt>
      <trkpt lat="43.845467017963529" lon="6.216565975919366">
        <ele>580.28999999999996</ele>
        <time>2025-05-18T06:22:46Z</time>
      </trkpt>
      <trkpt lat="43.845516974106431" lon="6.216621967032552">
        <ele>580.28999999999996</ele>
        <time>2025-05-18T06:22:47Z</time>
      </trkpt>
      <trkpt lat="43.845563996583223" lon="6.216676030308008">
        <ele>580.76999999999998</ele>
        <time>2025-05-18T06:22:48Z</time>
      </trkpt>
      <trkpt lat="43.845614036545157" lon="6.216732021421194">
        <ele>581.25</ele>
        <time>2025-05-18T06:22:49Z</time>
      </trkpt>
      <trkpt lat="43.845661981031299" lon="6.216787006705999">
        <ele>581.73000000000002</ele>
        <time>2025-05-18T06:22:50Z</time>
      </trkpt>
      <trkpt lat="43.846055008471012" lon="6.217071991413832">
        <ele>584.13999999999999</ele>
        <time>2025-05-18T06:22:57Z</time>
      </trkpt>
      <trkpt lat="43.84611401706934" lon="6.217128988355398">
        <ele>584.62</ele>
        <time>2025-05-18T06:22:58Z</time>
      </trkpt>
      <trkpt lat="43.846460022032261" lon="6.217454038560391">
        <ele>587.5</ele>
        <time>2025-05-18T06:23:05Z</time>
      </trkpt>
      <trkpt lat="43.846586002036929" lon="6.217554034665227">
        <ele>588.95000000000005</ele>
        <time>2025-05-18T06:23:08Z</time>
      </trkpt>
      <trkpt lat="43.846586002036929" lon="6.217554034665227">
        <ele>588.95000000000005</ele>
        <time>2025-05-18T06:23:09Z</time>
      </trkpt>
      <trkpt lat="43.846586002036929" lon="6.217554034665227">
        <ele>588.95000000000005</ele>
        <time>2025-05-18T06:23:10Z</time>
      </trkpt>
      <trkpt lat="43.846570998430252" lon="6.21754196472466">
        <ele>589.90999999999997</ele>
        <time>2025-05-18T06:23:20Z</time>
      </trkpt>
      <trkpt lat="43.846552977338433" lon="6.217526961117983">
        <ele>589.90999999999997</ele>
        <time>2025-05-18T06:23:21Z</time>
      </trkpt>
      <trkpt lat="43.846520958468318" lon="6.217501983046532">
        <ele>589.90999999999997</ele>
        <time>2025-05-18T06:23:22Z</time>
      </trkpt>
      <trkpt lat="43.846101025119424" lon="6.217113984748721">
        <ele>588.95000000000005</ele>
        <time>2025-05-18T06:23:29Z</time>
      </trkpt>
      <trkpt lat="43.845414966344833" lon="6.216460028663278">
        <ele>588.95000000000005</ele>
        <time>2025-05-18T06:23:39Z</time>
      </trkpt>
      <trkpt lat="43.845366016030312" lon="6.216333964839578">
        <ele>588.95000000000005</ele>
        <time>2025-05-18T06:23:40Z</time>
      </trkpt>
      <trkpt lat="43.845315976068377" lon="6.216206979006529">
        <ele>588.95000000000005</ele>
        <time>2025-05-18T06:23:41Z</time>
      </trkpt>
      <trkpt lat="43.845266019925475" lon="6.216083010658622">
        <ele>588.46000000000004</ele>
        <time>2025-05-18T06:23:42Z</time>
      </trkpt>
      <trkpt lat="43.845220003277063" lon="6.215963987633586">
        <ele>587.98000000000002</ele>
        <time>2025-05-18T06:23:43Z</time>
      </trkpt>
      <trkpt lat="43.845174992457032" lon="6.215850999578834">
        <ele>587.5</ele>
        <time>2025-05-18T06:23:44Z</time>
      </trkpt>
      <trkpt lat="43.845126964151859" lon="6.215729964897037">
        <ele>586.53999999999996</ele>
        <time>2025-05-18T06:23:45Z</time>
      </trkpt>
      <trkpt lat="43.845072984695435" lon="6.215662993490696">
        <ele>586.53999999999996</ele>
        <time>2025-05-18T06:23:46Z</time>
      </trkpt>
      <trkpt lat="43.845006013289094" lon="6.215622005984187">
        <ele>586.05999999999995</ele>
        <time>2025-05-18T06:23:47Z</time>
      </trkpt>
      <trkpt lat="43.844932001084089" lon="6.215622005984187">
        <ele>585.10000000000002</ele>
        <time>2025-05-18T06:23:48Z</time>
      </trkpt>
      <trkpt lat="43.844865029677749" lon="6.2156299687922">
        <ele>584.62</ele>
        <time>2025-05-18T06:23:49Z</time>
      </trkpt>
      <trkpt lat="43.844799986109138" lon="6.21565000154078">
        <ele>584.13999999999999</ele>
        <time>2025-05-18T06:23:50Z</time>
      </trkpt>
      <trkpt lat="43.844611980021" lon="6.215708004310727">
        <ele>582.70000000000005</ele>
        <time>2025-05-18T06:23:55Z</time>
      </trkpt>
      <trkpt lat="43.844464961439371" lon="6.21569300070405">
        <ele>582.22000000000003</ele>
        <time>2025-05-18T06:23:56Z</time>
      </trkpt>
      <trkpt lat="43.844456998631358" lon="6.215826021507382">
        <ele>581.73000000000002</ele>
        <time>2025-05-18T06:23:57Z</time>
      </trkpt>
      <trkpt lat="43.844462027773261" lon="6.215858962386847">
        <ele>581.25</ele>
        <time>2025-05-18T06:23:58Z</time>
      </trkpt>
      <trkpt lat="43.844595970585942" lon="6.215890981256962">
        <ele>581.25</ele>
        <time>2025-05-18T06:23:59Z</time>
      </trkpt>
      <trkpt lat="43.844625977799296" lon="6.215961975976825">
        <ele>581.25</ele>
        <time>2025-05-18T06:24:00Z</time>
      </trkpt>
      <trkpt lat="43.84469797834754" lon="6.216130033135414">
        <ele>580.28999999999996</ele>
        <time>2025-05-18T06:24:02Z</time>
      </trkpt>
      <trkpt lat="43.844742989167571" lon="6.216234974563122">
        <ele>579.80999999999995</ele>
        <time>2025-05-18T06:24:03Z</time>
      </trkpt>
      <trkpt lat="43.84484801441431" lon="6.216480983421207">
        <ele>577.88999999999999</ele>
        <time>2025-05-18T06:24:05Z</time>
      </trkpt>
      <trkpt lat="43.844879027456045" lon="6.216618027538061">
        <ele>577.40999999999997</ele>
        <time>2025-05-18T06:24:06Z</time>
      </trkpt>
      <trkpt lat="43.844951028004289" lon="6.217254968360066">
        <ele>575.97000000000003</ele>
        <time>2025-05-18T06:24:10Z</time>
      </trkpt>
      <trkpt lat="43.844948010519147" lon="6.217422019690275">
        <ele>575.97000000000003</ele>
        <time>2025-05-18T06:24:11Z</time>
      </trkpt>
      <trkpt lat="43.844928983598948" lon="6.217585969716311">
        <ele>575.97000000000003</ele>
        <time>2025-05-18T06:24:12Z</time>
      </trkpt>
      <trkpt lat="43.844909034669399" lon="6.217761989682913">
        <ele>575.49000000000001</ele>
        <time>2025-05-18T06:24:13Z</time>
      </trkpt>
      <trkpt lat="43.84489101357758" lon="6.217917976900935">
        <ele>575.49000000000001</ele>
        <time>2025-05-18T06:24:14Z</time>
      </trkpt>
      <trkpt lat="43.844789005815983" lon="6.21824998408556">
        <ele>575.49000000000001</ele>
        <time>2025-05-18T06:24:16Z</time>
      </trkpt>
      <trkpt lat="43.844738965854049" lon="6.218413012102246">
        <ele>575.97000000000003</ele>
        <time>2025-05-18T06:24:17Z</time>
      </trkpt>
      <trkpt lat="43.844673000276089" lon="6.21855198405683">
        <ele>576.45000000000005</ele>
        <time>2025-05-18T06:24:18Z</time>
      </trkpt>
      <trkpt lat="43.844593958929181" lon="6.218681987375021">
        <ele>576.92999999999995</ele>
        <time>2025-05-18T06:24:19Z</time>
      </trkpt>
      <trkpt lat="43.844512989744544" lon="6.218814002349973">
        <ele>577.40999999999997</ele>
        <time>2025-05-18T06:24:20Z</time>
      </trkpt>
      <trkpt lat="43.844421962276101" lon="6.218927996233106">
        <ele>577.88999999999999</ele>
        <time>2025-05-18T06:24:21Z</time>
      </trkpt>
      <trkpt lat="43.844219036400318" lon="6.219148021191359">
        <ele>578.85000000000002</ele>
        <time>2025-05-18T06:24:23Z</time>
      </trkpt>
      <trkpt lat="43.844105964526534" lon="6.219225972890854">
        <ele>579.33000000000004</ele>
        <time>2025-05-18T06:24:24Z</time>
      </trkpt>
      <trkpt lat="43.843990964815021" lon="6.219299985095859">
        <ele>579.80999999999995</ele>
        <time>2025-05-18T06:24:25Z</time>
      </trkpt>
      <trkpt lat="43.843153025954962" lon="6.219609025865793">
        <ele>584.62</ele>
        <time>2025-05-18T06:24:33Z</time>
      </trkpt>
      <trkpt lat="43.842751029878855" lon="6.219717990607023">
        <ele>587.01999999999998</ele>
        <time>2025-05-18T06:24:37Z</time>
      </trkpt>
      <trkpt lat="43.842660002410412" lon="6.219741962850094">
        <ele>588.46000000000004</ele>
        <time>2025-05-18T06:24:39Z</time>
      </trkpt>
      <trkpt lat="43.842606022953987" lon="6.219772975891829">
        <ele>588.95000000000005</ele>
        <time>2025-05-18T06:24:40Z</time>
      </trkpt>
      <trkpt lat="43.842577021569014" lon="6.219788985326886">
        <ele>589.90999999999997</ele>
        <time>2025-05-18T06:24:41Z</time>
      </trkpt>
      <trkpt lat="43.842555982992053" lon="6.219801977276802">
        <ele>590.38999999999999</ele>
        <time>2025-05-18T06:24:42Z</time>
      </trkpt>
      <trkpt lat="43.842542991042137" lon="6.219809018075466">
        <ele>591.35000000000002</ele>
        <time>2025-05-18T06:24:43Z</time>
      </trkpt>
      <trkpt lat="43.842532010748982" lon="6.219814969226718">
        <ele>591.83000000000004</ele>
        <time>2025-05-18T06:24:44Z</time>
      </trkpt>
      <trkpt lat="43.842532010748982" lon="6.219814969226718">
        <ele>592.30999999999995</ele>
        <time>2025-05-18T06:24:45Z</time>
      </trkpt>
      <trkpt lat="43.842532010748982" lon="6.219814969226718">
        <ele>593.26999999999998</ele>
        <time>2025-05-18T06:25:00Z</time>
      </trkpt>
      <trkpt lat="43.842475013807416" lon="6.21977599337697">
        <ele>592.78999999999996</ele>
        <time>2025-05-18T06:36:58Z</time>
      </trkpt>
      <trkpt lat="43.842494962736964" lon="6.219772975891829">
        <ele>596.14999999999998</ele>
        <time>2025-05-18T06:37:18Z</time>
      </trkpt>
      <trkpt lat="43.842476019635797" lon="6.219785967841744">
        <ele>595.19000000000005</ele>
        <time>2025-05-18T06:37:30Z</time>
      </trkpt>
      <trkpt lat="43.842468978837132" lon="6.219851011410356">
        <ele>594.71000000000004</ele>
        <time>2025-05-18T06:37:32Z</time>
      </trkpt>
      <trkpt lat="43.84244098328054" lon="6.219867020845413">
        <ele>594.71000000000004</ele>
        <time>2025-05-18T06:37:33Z</time>
      </trkpt>
      <trkpt lat="43.842393038794398" lon="6.219895016402006">
        <ele>594.71000000000004</ele>
        <time>2025-05-18T06:37:34Z</time>
      </trkpt>
      <trkpt lat="43.842327995225787" lon="6.219936003908515">
        <ele>594.71000000000004</ele>
        <time>2025-05-18T06:37:35Z</time>
      </trkpt>
      <trkpt lat="43.842252977192402" lon="6.21998998336494">
        <ele>594.71000000000004</ele>
        <time>2025-05-18T06:37:36Z</time>
      </trkpt>
      <trkpt lat="43.842080980539322" lon="6.220112023875117">
        <ele>595.66999999999996</ele>
        <time>2025-05-18T06:37:38Z</time>
      </trkpt>
      <trkpt lat="43.841996993869543" lon="6.220211014151573">
        <ele>596.14999999999998</ele>
        <time>2025-05-18T06:37:39Z</time>
      </trkpt>
      <trkpt lat="43.841335996985435" lon="6.221067979931831">
        <ele>603.85000000000002</ele>
        <time>2025-05-18T06:37:47Z</time>
      </trkpt>
      <trkpt lat="43.841272965073586" lon="6.22114802710712">
        <ele>604.33000000000004</ele>
        <time>2025-05-18T06:37:48Z</time>
      </trkpt>
      <trkpt lat="43.841156959533691" lon="6.221201000735164">
        <ele>604.80999999999995</ele>
        <time>2025-05-18T06:37:49Z</time>
      </trkpt>
      <trkpt lat="43.84110800921917" lon="6.221251040697098">
        <ele>605.28999999999996</ele>
        <time>2025-05-18T06:37:50Z</time>
      </trkpt>
      <trkpt lat="43.841030979529023" lon="6.221327986568213">
        <ele>605.76999999999998</ele>
        <time>2025-05-18T06:37:51Z</time>
      </trkpt>
      <trkpt lat="43.840318014845252" lon="6.221877001225948">
        <ele>605.76999999999998</ele>
        <time>2025-05-18T06:37:58Z</time>
      </trkpt>
      <trkpt lat="43.840207038447261" lon="6.221908014267683">
        <ele>605.28999999999996</ele>
        <time>2025-05-18T06:37:59Z</time>
      </trkpt>
      <trkpt lat="43.839671015739441" lon="6.221947995945811">
        <ele>604.80999999999995</ele>
        <time>2025-05-18T06:38:04Z</time>
      </trkpt>
      <trkpt lat="43.839574959129095" lon="6.221875995397568">
        <ele>604.80999999999995</ele>
        <time>2025-05-18T06:38:05Z</time>
      </trkpt>
      <trkpt lat="43.839482003822923" lon="6.221806006506085">
        <ele>604.33000000000004</ele>
        <time>2025-05-18T06:38:06Z</time>
      </trkpt>
      <trkpt lat="43.839393993839622" lon="6.221724031493068">
        <ele>603.85000000000002</ele>
        <time>2025-05-18T06:38:07Z</time>
      </trkpt>
      <trkpt lat="43.839317969977856" lon="6.221616994589567">
        <ele>603.85000000000002</ele>
        <time>2025-05-18T06:38:08Z</time>
      </trkpt>
      <trkpt lat="43.839237000793219" lon="6.221504006534815">
        <ele>603.36000000000001</ele>
        <time>2025-05-18T06:38:09Z</time>
      </trkpt>
      <trkpt lat="43.839148990809917" lon="6.221403004601598">
        <ele>602.88</ele>
        <time>2025-05-18T06:38:10Z</time>
      </trkpt>
      <trkpt lat="43.839051006361842" lon="6.221305020153523">
        <ele>602.39999999999998</ele>
        <time>2025-05-18T06:38:11Z</time>
      </trkpt>
      <trkpt lat="43.838947992771864" lon="6.221236037090421">
        <ele>601.91999999999996</ele>
        <time>2025-05-18T06:38:12Z</time>
      </trkpt>
      <trkpt lat="43.838841039687395" lon="6.22123796492815">
        <ele>600.96000000000004</ele>
        <time>2025-05-18T06:38:13Z</time>
      </trkpt>
      <trkpt lat="43.838730985298753" lon="6.22125799767673">
        <ele>600.48000000000002</ele>
        <time>2025-05-18T06:38:14Z</time>
      </trkpt>
      <trkpt lat="43.838654039427638" lon="6.22132102958858">
        <ele>599.51999999999998</ele>
        <time>2025-05-18T06:38:15Z</time>
      </trkpt>
      <trkpt lat="43.838580027222633" lon="6.221435023471713">
        <ele>599.03999999999996</ele>
        <time>2025-05-18T06:38:16Z</time>
      </trkpt>
      <trkpt lat="43.838500985875726" lon="6.221555974334478">
        <ele>598.55999999999995</ele>
        <time>2025-05-18T06:38:17Z</time>
      </trkpt>
      <trkpt lat="43.838414987549186" lon="6.221688995137811">
        <ele>597.12</ele>
        <time>2025-05-18T06:38:18Z</time>
      </trkpt>
      <trkpt lat="43.838304011151195" lon="6.221741968765855">
        <ele>596.14999999999998</ele>
        <time>2025-05-18T06:38:19Z</time>
      </trkpt>
      <trkpt lat="43.838216001167893" lon="6.221780022606254">
        <ele>595.19000000000005</ele>
        <time>2025-05-18T06:38:20Z</time>
      </trkpt>
      <trkpt lat="43.838137965649366" lon="6.221740962937474">
        <ele>593.75</ele>
        <time>2025-05-18T06:38:21Z</time>
      </trkpt>
      <trkpt lat="43.838079962879419" lon="6.221640966832638">
        <ele>592.78999999999996</ele>
        <time>2025-05-18T06:38:22Z</time>
      </trkpt>
      <trkpt lat="43.83801600895822" lon="6.221521021798253">
        <ele>591.83000000000004</ele>
        <time>2025-05-18T06:38:23Z</time>
      </trkpt>
      <trkpt lat="43.837939985096455" lon="6.221394035965204">
        <ele>590.87</ele>
        <time>2025-05-18T06:38:24Z</time>
      </trkpt>
      <trkpt lat="43.837840994819999" lon="6.221283981576562">
        <ele>589.90999999999997</ele>
        <time>2025-05-18T06:38:25Z</time>
      </trkpt>
      <trkpt lat="43.837725995108485" lon="6.221180967986584">
        <ele>588.95000000000005</ele>
        <time>2025-05-18T06:38:26Z</time>
      </trkpt>
      <trkpt lat="43.836715975776315" lon="6.220765979960561">
        <ele>579.80999999999995</ele>
        <time>2025-05-18T06:38:33Z</time>
      </trkpt>
      <trkpt lat="43.836442977190018" lon="6.220706971362233">
        <ele>577.88999999999999</ele>
        <time>2025-05-18T06:38:35Z</time>
      </trkpt>
      <trkpt lat="43.836315991356969" lon="6.22069900855422">
        <ele>576.45000000000005</ele>
        <time>2025-05-18T06:38:36Z</time>
      </trkpt>
      <trkpt lat="43.836195962503552" lon="6.22074100188911">
        <ele>575.49000000000001</ele>
        <time>2025-05-18T06:38:37Z</time>
      </trkpt>
      <trkpt lat="43.836074005812407" lon="6.220782995223999">
        <ele>574.52999999999997</ele>
        <time>2025-05-18T06:38:38Z</time>
      </trkpt>
      <trkpt lat="43.835945008322597" lon="6.220829011872411">
        <ele>573.55999999999995</ele>
        <time>2025-05-18T06:38:39Z</time>
      </trkpt>
      <trkpt lat="43.835816010832787" lon="6.220867987722158">
        <ele>572.60000000000002</ele>
        <time>2025-05-18T06:38:40Z</time>
      </trkpt>
      <trkpt lat="43.835692964494228" lon="6.220904029905796">
        <ele>571.15999999999997</ele>
        <time>2025-05-18T06:38:41Z</time>
      </trkpt>
      <trkpt lat="43.835576958954334" lon="6.220938982442021">
        <ele>570.67999999999995</ele>
        <time>2025-05-18T06:38:42Z</time>
      </trkpt>
      <trkpt lat="43.835461959242821" lon="6.220973012968898">
        <ele>569.72000000000003</ele>
        <time>2025-05-18T06:38:43Z</time>
      </trkpt>
      <trkpt lat="43.835336985066533" lon="6.221015006303787">
        <ele>568.27999999999997</ele>
        <time>2025-05-18T06:38:44Z</time>
      </trkpt>
      <trkpt lat="43.8352420181036" lon="6.221133023500443">
        <ele>567.32000000000005</ele>
        <time>2025-05-18T06:38:45Z</time>
      </trkpt>
      <trkpt lat="43.835171023383737" lon="6.221222961321473">
        <ele>566.35000000000002</ele>
        <time>2025-05-18T06:38:46Z</time>
      </trkpt>
      <trkpt lat="43.835108997300267" lon="6.221420019865036">
        <ele>565.38999999999999</ele>
        <time>2025-05-18T06:38:47Z</time>
      </trkpt>
      <trkpt lat="43.835060968995094" lon="6.221569972112775">
        <ele>564.42999999999995</ele>
        <time>2025-05-18T06:38:48Z</time>
      </trkpt>
      <trkpt lat="43.835011012852192" lon="6.221714979037643">
        <ele>563.95000000000005</ele>
        <time>2025-05-18T06:38:49Z</time>
      </trkpt>
      <trkpt lat="43.834929037839174" lon="6.221840959042311">
        <ele>562.50999999999999</ele>
        <time>2025-05-18T06:38:50Z</time>
      </trkpt>
      <trkpt lat="43.834824012592435" lon="6.2219019792974">
        <ele>561.54999999999995</ele>
        <time>2025-05-18T06:38:51Z</time>
      </trkpt>
      <trkpt lat="43.834716975688934" lon="6.221932992339134">
        <ele>560.59000000000003</ele>
        <time>2025-05-18T06:38:52Z</time>
      </trkpt>
      <trkpt lat="43.834603987634182" lon="6.22196601703763">
        <ele>559.13999999999999</ele>
        <time>2025-05-18T06:38:53Z</time>
      </trkpt>
      <trkpt lat="43.834486976265907" lon="6.222013961523771">
        <ele>558.17999999999995</ele>
        <time>2025-05-18T06:38:54Z</time>
      </trkpt>
      <trkpt lat="43.834387985989451" lon="6.222112029790878">
        <ele>557.22000000000003</ele>
        <time>2025-05-18T06:38:55Z</time>
      </trkpt>
      <trkpt lat="43.834294024854898" lon="6.222206996753812">
        <ele>556.74000000000001</ele>
        <time>2025-05-18T06:38:56Z</time>
      </trkpt>
      <trkpt lat="43.834216995164752" lon="6.222284026443958">
        <ele>555.77999999999997</ele>
        <time>2025-05-18T06:38:57Z</time>
      </trkpt>
      <trkpt lat="43.834137031808496" lon="6.222300035879016">
        <ele>555.29999999999995</ele>
        <time>2025-05-18T06:38:58Z</time>
      </trkpt>
      <trkpt lat="43.834069976583123" lon="6.222274973988533">
        <ele>554.34000000000003</ele>
        <time>2025-05-18T06:38:59Z</time>
      </trkpt>
      <trkpt lat="43.834003005176783" lon="6.222162991762161">
        <ele>553.38</ele>
        <time>2025-05-18T06:39:00Z</time>
      </trkpt>
      <trkpt lat="43.834000993520021" lon="6.222016979008913">
        <ele>552.40999999999997</ele>
        <time>2025-05-18T06:39:01Z</time>
      </trkpt>
      <trkpt lat="43.834050027653575" lon="6.221918994560838">
        <ele>551.45000000000005</ele>
        <time>2025-05-18T06:39:02Z</time>
      </trkpt>
      <trkpt lat="43.834125967696309" lon="6.221814975142479">
        <ele>550.97000000000003</ele>
        <time>2025-05-18T06:39:03Z</time>
      </trkpt>
      <trkpt lat="43.834210960194468" lon="6.221701987087727">
        <ele>550.00999999999999</ele>
        <time>2025-05-18T06:39:04Z</time>
      </trkpt>
      <trkpt lat="43.834303999319673" lon="6.22157801873982">
        <ele>549.52999999999997</ele>
        <time>2025-05-18T06:39:05Z</time>
      </trkpt>
      <trkpt lat="43.834574986249208" lon="6.221217010170221">
        <ele>547.61000000000001</ele>
        <time>2025-05-18T06:39:08Z</time>
      </trkpt>
      <trkpt lat="43.834637012332678" lon="6.22110603377223">
        <ele>546.64999999999998</ele>
        <time>2025-05-18T06:39:09Z</time>
      </trkpt>
      <trkpt lat="43.834648998454213" lon="6.220990028232336">
        <ele>546.16999999999996</ele>
        <time>2025-05-18T06:39:10Z</time>
      </trkpt>
      <trkpt lat="43.834635000675917" lon="6.220896989107132">
        <ele>545.69000000000005</ele>
        <time>2025-05-18T06:39:11Z</time>
      </trkpt>
      <trkpt lat="43.83457800373435" lon="6.220829011872411">
        <ele>545.20000000000005</ele>
        <time>2025-05-18T06:39:12Z</time>
      </trkpt>
      <trkpt lat="43.834516983479261" lon="6.22080503962934">
        <ele>544.24000000000001</ele>
        <time>2025-05-18T06:39:13Z</time>
      </trkpt>
      <trkpt lat="43.834430985152721" lon="6.220835968852043">
        <ele>543.27999999999997</ele>
        <time>2025-05-18T06:39:14Z</time>
      </trkpt>
      <trkpt lat="43.834324032068253" lon="6.220874022692442">
        <ele>542.32000000000005</ele>
        <time>2025-05-18T06:39:15Z</time>
      </trkpt>
      <trkpt lat="43.834210960194468" lon="6.220922973006964">
        <ele>541.84000000000003</ele>
        <time>2025-05-18T06:39:16Z</time>
      </trkpt>
      <trkpt lat="43.833807958289981" lon="6.221162024885416">
        <ele>538.96000000000004</ele>
        <time>2025-05-18T06:39:19Z</time>
      </trkpt>
      <trkpt lat="43.833530014380813" lon="6.221376014873385">
        <ele>537.02999999999997</ele>
        <time>2025-05-18T06:39:21Z</time>
      </trkpt>
      <trkpt lat="43.833393976092339" lon="6.221503000706434">
        <ele>536.07000000000005</ele>
        <time>2025-05-18T06:39:22Z</time>
      </trkpt>
      <trkpt lat="43.833261961117387" lon="6.221639038994908">
        <ele>535.11000000000001</ele>
        <time>2025-05-18T06:39:23Z</time>
      </trkpt>
      <trkpt lat="43.833144027739763" lon="6.221805000677705">
        <ele>534.63</ele>
        <time>2025-05-18T06:39:24Z</time>
      </trkpt>
      <trkpt lat="43.83302902802825" lon="6.221970040351152">
        <ele>533.66999999999996</ele>
        <time>2025-05-18T06:39:25Z</time>
      </trkpt>
      <trkpt lat="43.831665962934494" lon="6.224090997129679">
        <ele>530.29999999999995</ele>
        <time>2025-05-18T06:39:37Z</time>
      </trkpt>
      <trkpt lat="43.831193977966905" lon="6.22469499707222">
        <ele>529.34000000000003</ele>
        <time>2025-05-18T06:39:41Z</time>
      </trkpt>
      <trkpt lat="43.831071015447378" lon="6.224809996783733">
        <ele>528.86000000000001</ele>
        <time>2025-05-18T06:39:42Z</time>
      </trkpt>
      <trkpt lat="43.830939000472426" lon="6.224883003160358">
        <ele>528.38</ele>
        <time>2025-05-18T06:39:43Z</time>
      </trkpt>
      <trkpt lat="43.830684022977948" lon="6.224949974566698">
        <ele>527.89999999999998</ele>
        <time>2025-05-18T06:39:45Z</time>
      </trkpt>
      <trkpt lat="43.830316979438066" lon="6.224989034235477">
        <ele>526.46000000000004</ele>
        <time>2025-05-18T06:39:48Z</time>
      </trkpt>
      <trkpt lat="43.828801028430462" lon="6.224747970700264">
        <ele>522.61000000000001</ele>
        <time>2025-05-18T06:39:59Z</time>
      </trkpt>
      <trkpt lat="43.828165009617805" lon="6.224679993465543">
        <ele>525.98000000000002</ele>
        <time>2025-05-18T06:40:05Z</time>
      </trkpt>
      <trkpt lat="43.828111030161381" lon="6.224677981808782">
        <ele>526.46000000000004</ele>
        <time>2025-05-18T06:40:06Z</time>
      </trkpt>
      <trkpt lat="43.828016985207796" lon="6.224582009017468">
        <ele>527.41999999999996</ele>
        <time>2025-05-18T06:40:07Z</time>
      </trkpt>
      <trkpt lat="43.82798102684319" lon="6.22462903149426">
        <ele>527.89999999999998</ele>
        <time>2025-05-18T06:40:08Z</time>
      </trkpt>
      <trkpt lat="43.827971974387765" lon="6.224708994850516">
        <ele>528.38</ele>
        <time>2025-05-18T06:40:09Z</time>
      </trkpt>
      <trkpt lat="43.827982032671571" lon="6.224762974306941">
        <ele>528.86000000000001</ele>
        <time>2025-05-18T06:40:10Z</time>
      </trkpt>
      <trkpt lat="43.828070964664221" lon="6.224815025925636">
        <ele>529.34000000000003</ele>
        <time>2025-05-18T06:40:11Z</time>
      </trkpt>
      <trkpt lat="43.828099966049194" lon="6.224912004545331">
        <ele>529.82000000000005</ele>
        <time>2025-05-18T06:40:12Z</time>
      </trkpt>
      <trkpt lat="43.82813198491931" lon="6.225019041448832">
        <ele>530.78999999999996</ele>
        <time>2025-05-18T06:40:13Z</time>
      </trkpt>
      <trkpt lat="43.828167021274567" lon="6.225135968998075">
        <ele>531.26999999999998</ele>
        <time>2025-05-18T06:40:14Z</time>
      </trkpt>
      <trkpt lat="43.828570023179054" lon="6.22600601054728">
        <ele>533.66999999999996</ele>
        <time>2025-05-18T06:40:20Z</time>
      </trkpt>
      <trkpt lat="43.828657027333975" lon="6.226132996380329">
        <ele>534.14999999999998</ele>
        <time>2025-05-18T06:40:21Z</time>
      </trkpt>
      <trkpt lat="43.828746965155005" lon="6.226265011355281">
        <ele>534.14999999999998</ele>
        <time>2025-05-18T06:40:22Z</time>
      </trkpt>
      <trkpt lat="43.828807985410094" lon="6.226404989138246">
        <ele>534.63</ele>
        <time>2025-05-18T06:40:23Z</time>
      </trkpt>
      <trkpt lat="43.828855007886887" lon="6.22656399384141">
        <ele>535.11000000000001</ele>
        <time>2025-05-18T06:40:24Z</time>
      </trkpt>
      <trkpt lat="43.828898007050157" lon="6.226749988272786">
        <ele>535.11000000000001</ele>
        <time>2025-05-18T06:40:25Z</time>
      </trkpt>
      <trkpt lat="43.829010995104909" lon="6.227149972692132">
        <ele>535.59000000000003</ele>
        <time>2025-05-18T06:40:27Z</time>
      </trkpt>
      <trkpt lat="43.829219033941627" lon="6.227608965709806">
        <ele>536.54999999999995</ele>
        <time>2025-05-18T06:40:30Z</time>
      </trkpt>
      <trkpt lat="43.829297991469502" lon="6.22780904173851">
        <ele>536.54999999999995</ele>
        <time>2025-05-18T06:40:32Z</time>
      </trkpt>
      <trkpt lat="43.829298997297883" lon="6.22791700065136">
        <ele>536.54999999999995</ele>
        <time>2025-05-18T06:40:33Z</time>
      </trkpt>
      <trkpt lat="43.829254992306232" lon="6.22798296622932">
        <ele>536.07000000000005</ele>
        <time>2025-05-18T06:40:34Z</time>
      </trkpt>
      <trkpt lat="43.829147033393383" lon="6.227979026734829">
        <ele>536.07000000000005</ele>
        <time>2025-05-18T06:40:35Z</time>
      </trkpt>
      <trkpt lat="43.829089030623436" lon="6.227946002036333">
        <ele>536.07000000000005</ele>
        <time>2025-05-18T06:40:36Z</time>
      </trkpt>
      <trkpt lat="43.829033961519599" lon="6.227802000939846">
        <ele>536.07000000000005</ele>
        <time>2025-05-18T06:40:37Z</time>
      </trkpt>
      <trkpt lat="43.828987022861838" lon="6.227650037035346">
        <ele>535.59000000000003</ele>
        <time>2025-05-18T06:40:38Z</time>
      </trkpt>
      <trkpt lat="43.828936982899904" lon="6.22748801484704">
        <ele>535.59000000000003</ele>
        <time>2025-05-18T06:40:39Z</time>
      </trkpt>
      <trkpt lat="43.828790970146656" lon="6.227151984348893">
        <ele>535.11000000000001</ele>
        <time>2025-05-18T06:40:41Z</time>
      </trkpt>
      <trkpt lat="43.828528029844165" lon="6.22671696357429">
        <ele>535.59000000000003</ele>
        <time>2025-05-18T06:40:44Z</time>
      </trkpt>
      <trkpt lat="43.828438008204103" lon="6.226615039631724">
        <ele>536.07000000000005</ele>
        <time>2025-05-18T06:40:45Z</time>
      </trkpt>
      <trkpt lat="43.828320996835828" lon="6.226576985791326">
        <ele>536.54999999999995</ele>
        <time>2025-05-18T06:40:46Z</time>
      </trkpt>
      <trkpt lat="43.828213037922978" lon="6.226601041853428">
        <ele>537.50999999999999</ele>
        <time>2025-05-18T06:40:47Z</time>
      </trkpt>
      <trkpt lat="43.828107006847858" lon="6.226654015481472">
        <ele>537.99000000000001</ele>
        <time>2025-05-18T06:40:48Z</time>
      </trkpt>
      <trkpt lat="43.828001981601119" lon="6.226730961352587">
        <ele>538.48000000000002</ele>
        <time>2025-05-18T06:40:49Z</time>
      </trkpt>
      <trkpt lat="43.827887987717986" lon="6.226829029619694">
        <ele>539.44000000000005</ele>
        <time>2025-05-18T06:40:50Z</time>
      </trkpt>
      <trkpt lat="43.82776795886457" lon="6.226933971047401">
        <ele>539.91999999999996</ele>
        <time>2025-05-18T06:40:51Z</time>
      </trkpt>
      <trkpt lat="43.827440980821848" lon="6.227216022089124">
        <ele>542.32000000000005</ele>
        <time>2025-05-18T06:40:54Z</time>
      </trkpt>
      <trkpt lat="43.82738096639514" lon="6.227318029850721">
        <ele>543.27999999999997</ele>
        <time>2025-05-18T06:40:55Z</time>
      </trkpt>
      <trkpt lat="43.827367974445224" lon="6.227407967671752">
        <ele>544.72000000000003</ele>
        <time>2025-05-18T06:40:56Z</time>
      </trkpt>
      <trkpt lat="43.82738096639514" lon="6.227481979876757">
        <ele>546.16999999999996</ele>
        <time>2025-05-18T06:40:57Z</time>
      </trkpt>
      <trkpt lat="43.827426983043551" lon="6.22751098126173">
        <ele>548.09000000000003</ele>
        <time>2025-05-18T06:40:58Z</time>
      </trkpt>
      <trkpt lat="43.827506024390459" lon="6.227538976818323">
        <ele>549.52999999999997</ele>
        <time>2025-05-18T06:40:59Z</time>
      </trkpt>
      <trkpt lat="43.827614989131689" lon="6.227559009566903">
        <ele>550.97000000000003</ele>
        <time>2025-05-18T06:41:00Z</time>
      </trkpt>
      <trkpt lat="43.827737029641867" lon="6.227580970153213">
        <ele>551.92999999999995</ele>
        <time>2025-05-18T06:41:01Z</time>
      </trkpt>
      <trkpt lat="43.828055039048195" lon="6.227651964873076">
        <ele>554.34000000000003</ele>
        <time>2025-05-18T06:41:04Z</time>
      </trkpt>
      <trkpt lat="43.828101977705956" lon="6.22772203758359">
        <ele>554.82000000000005</ele>
        <time>2025-05-18T06:41:05Z</time>
      </trkpt>
      <trkpt lat="43.828128967434168" lon="6.227796971797943">
        <ele>555.77999999999997</ele>
        <time>2025-05-18T06:41:06Z</time>
      </trkpt>
      <trkpt lat="43.828116981312633" lon="6.227877018973231">
        <ele>556.25999999999999</ele>
        <time>2025-05-18T06:41:07Z</time>
      </trkpt>
      <trkpt lat="43.828041041269898" lon="6.227950025349855">
        <ele>556.74000000000001</ele>
        <time>2025-05-18T06:41:08Z</time>
      </trkpt>
      <trkpt lat="43.827950013801455" lon="6.227992018684745">
        <ele>557.22000000000003</ele>
        <time>2025-05-18T06:41:09Z</time>
      </trkpt>
      <trkpt lat="43.827840965241194" lon="6.228041974827647">
        <ele>558.17999999999995</ele>
        <time>2025-05-18T06:41:10Z</time>
      </trkpt>
      <trkpt lat="43.827719008550048" lon="6.228098971769214">
        <ele>558.65999999999997</ele>
        <time>2025-05-18T06:41:11Z</time>
      </trkpt>
      <trkpt lat="43.827585987746716" lon="6.228159992024303">
        <ele>559.62</ele>
        <time>2025-05-18T06:41:12Z</time>
      </trkpt>
      <trkpt lat="43.827453972771764" lon="6.228257976472378">
        <ele>560.59000000000003</ele>
        <time>2025-05-18T06:41:13Z</time>
      </trkpt>
      <trkpt lat="43.82731500081718" lon="6.228372976183891">
        <ele>562.02999999999997</ele>
        <time>2025-05-18T06:41:14Z</time>
      </trkpt>
      <trkpt lat="43.826532969251275" lon="6.228977981954813">
        <ele>565.87</ele>
        <time>2025-05-18T06:41:19Z</time>
      </trkpt>
      <trkpt lat="43.82570399902761" lon="6.229388024657965">
        <ele>571.63999999999999</ele>
        <time>2025-05-18T06:41:25Z</time>
      </trkpt>
      <trkpt lat="43.825629986822605" lon="6.229472011327744">
        <ele>572.60000000000002</ele>
        <time>2025-05-18T06:41:26Z</time>
      </trkpt>
      <trkpt lat="43.825582964345813" lon="6.229577036574483">
        <ele>574.03999999999996</ele>
        <time>2025-05-18T06:41:27Z</time>
      </trkpt>
      <trkpt lat="43.82555304095149" lon="6.229681978002191">
        <ele>575.00999999999999</ele>
        <time>2025-05-18T06:41:28Z</time>
      </trkpt>
      <trkpt lat="43.825541976839304" lon="6.22980703599751">
        <ele>576.45000000000005</ele>
        <time>2025-05-18T06:41:29Z</time>
      </trkpt>
      <trkpt lat="43.825527979061007" lon="6.229949025437236">
        <ele>576.92999999999995</ele>
        <time>2025-05-18T06:41:30Z</time>
      </trkpt>
      <trkpt lat="43.82551297545433" lon="6.230111969634891">
        <ele>577.88999999999999</ele>
        <time>2025-05-18T06:41:31Z</time>
      </trkpt>
      <trkpt lat="43.825479028746486" lon="6.230483036488295">
        <ele>579.80999999999995</ele>
        <time>2025-05-18T06:41:33Z</time>
      </trkpt>
      <trkpt lat="43.825432006269693" lon="6.230648998171091">
        <ele>580.28999999999996</ele>
        <time>2025-05-18T06:41:34Z</time>
      </trkpt>
      <trkpt lat="43.825367968529463" lon="6.230800040066242">
        <ele>581.25</ele>
        <time>2025-05-18T06:41:35Z</time>
      </trkpt>
      <trkpt lat="43.825285993516445" lon="6.230931971222162">
        <ele>581.73000000000002</ele>
        <time>2025-05-18T06:41:36Z</time>
      </trkpt>
      <trkpt lat="43.825183985754848" lon="6.231063986197114">
        <ele>582.70000000000005</ele>
        <time>2025-05-18T06:41:37Z</time>
      </trkpt>
      <trkpt lat="43.824349986389279" lon="6.232119016349316">
        <ele>590.87</ele>
        <time>2025-05-18T06:41:44Z</time>
      </trkpt>
      <trkpt lat="43.824076987802982" lon="6.232338035479188">
        <ele>593.26999999999998</ele>
        <time>2025-05-18T06:41:46Z</time>
      </trkpt>
      <trkpt lat="43.823893005028367" lon="6.232425961643457">
        <ele>594.23000000000002</ele>
        <time>2025-05-18T06:41:47Z</time>
      </trkpt>
      <trkpt lat="43.823734000325203" lon="6.232500979676843">
        <ele>594.71000000000004</ele>
        <time>2025-05-18T06:41:48Z</time>
      </trkpt>
      <trkpt lat="43.823586981743574" lon="6.232540961354971">
        <ele>595.66999999999996</ele>
        <time>2025-05-18T06:41:49Z</time>
      </trkpt>
      <trkpt lat="43.823435017839074" lon="6.232496034353972">
        <ele>596.63999999999999</ele>
        <time>2025-05-18T06:41:50Z</time>
      </trkpt>
      <trkpt lat="43.823284981772304" lon="6.232452029362321">
        <ele>597.60000000000002</ele>
        <time>2025-05-18T06:41:51Z</time>
      </trkpt>
      <trkpt lat="43.823157995939255" lon="6.232357984408736">
        <ele>598.55999999999995</ele>
        <time>2025-05-18T06:41:52Z</time>
      </trkpt>
      <trkpt lat="43.823036961257458" lon="6.232254970818758">
        <ele>599.51999999999998</ele>
        <time>2025-05-18T06:41:53Z</time>
      </trkpt>
      <trkpt lat="43.822906035929918" lon="6.232181964442134">
        <ele>600.48000000000002</ele>
        <time>2025-05-18T06:41:54Z</time>
      </trkpt>
      <trkpt lat="43.822772009298205" lon="6.232134019955993">
        <ele>601.44000000000005</ele>
        <time>2025-05-18T06:41:55Z</time>
      </trkpt>
      <trkpt lat="43.822620967403054" lon="6.232111975550652">
        <ele>602.88</ele>
        <time>2025-05-18T06:41:56Z</time>
      </trkpt>
      <trkpt lat="43.822470009326935" lon="6.232137037441135">
        <ele>603.85000000000002</ele>
        <time>2025-05-18T06:41:57Z</time>
      </trkpt>
      <trkpt lat="43.822312010452151" lon="6.232164027169347">
        <ele>605.28999999999996</ele>
        <time>2025-05-18T06:41:58Z</time>
      </trkpt>
      <trkpt lat="43.822146970778704" lon="6.232197973877192">
        <ele>606.73000000000002</ele>
        <time>2025-05-18T06:41:59Z</time>
      </trkpt>
      <trkpt lat="43.821986960247159" lon="6.232272991910577">
        <ele>608.16999999999996</ele>
        <time>2025-05-18T06:42:00Z</time>
      </trkpt>
      <trkpt lat="43.821506006643176" lon="6.232583038508892">
        <ele>612.5</ele>
        <time>2025-05-18T06:42:03Z</time>
      </trkpt>
      <trkpt lat="43.821366028860211" lon="6.232702983543277">
        <ele>613.94000000000005</ele>
        <time>2025-05-18T06:42:04Z</time>
      </trkpt>
      <trkpt lat="43.821242982521653" lon="6.232822006568313">
        <ele>615.38</ele>
        <time>2025-05-18T06:42:05Z</time>
      </trkpt>
      <trkpt lat="43.821143992245197" lon="6.23296701349318">
        <ele>616.82000000000005</ele>
        <time>2025-05-18T06:42:06Z</time>
      </trkpt>
      <trkpt lat="43.821050031110644" lon="6.233102967962623">
        <ele>618.25999999999999</ele>
        <time>2025-05-18T06:42:07Z</time>
      </trkpt>
      <trkpt lat="43.820881973952055" lon="6.233346965163946">
        <ele>620.66999999999996</ele>
        <time>2025-05-18T06:42:09Z</time>
      </trkpt>
      <trkpt lat="43.820799998939037" lon="6.233466994017363">
        <ele>621.63</ele>
        <time>2025-05-18T06:42:10Z</time>
      </trkpt>
      <trkpt lat="43.820689022541046" lon="6.233530025929213">
        <ele>622.59000000000003</ele>
        <time>2025-05-18T06:42:11Z</time>
      </trkpt>
      <trkpt lat="43.820585003122687" lon="6.233584005385637">
        <ele>623.54999999999995</ele>
        <time>2025-05-18T06:42:12Z</time>
      </trkpt>
      <trkpt lat="43.820487018674612" lon="6.233635973185301">
        <ele>624.50999999999999</ele>
        <time>2025-05-18T06:42:13Z</time>
      </trkpt>
      <trkpt lat="43.820391967892647" lon="6.233685007318854">
        <ele>624.99000000000001</ele>
        <time>2025-05-18T06:42:14Z</time>
      </trkpt>
      <trkpt lat="43.820292977616191" lon="6.23374099843204">
        <ele>625.96000000000004</ele>
        <time>2025-05-18T06:42:15Z</time>
      </trkpt>
      <trkpt lat="43.820214020088315" lon="6.233836971223354">
        <ele>626.91999999999996</ele>
        <time>2025-05-18T06:42:16Z</time>
      </trkpt>
      <trkpt lat="43.820162974298" lon="6.233959011733532">
        <ele>627.39999999999998</ele>
        <time>2025-05-18T06:42:17Z</time>
      </trkpt>
      <trkpt lat="43.820121986791492" lon="6.234085997566581">
        <ele>628.36000000000001</ele>
        <time>2025-05-18T06:42:18Z</time>
      </trkpt>
      <trkpt lat="43.820080999284983" lon="6.234216000884771">
        <ele>628.84000000000003</ele>
        <time>2025-05-18T06:42:19Z</time>
      </trkpt>
      <trkpt lat="43.82001000456512" lon="6.234338041394949">
        <ele>629.32000000000005</ele>
        <time>2025-05-18T06:42:20Z</time>
      </trkpt>
      <trkpt lat="43.819915959611535" lon="6.234408030286431">
        <ele>629.79999999999995</ele>
        <time>2025-05-18T06:42:21Z</time>
      </trkpt>
      <trkpt lat="43.819849994033575" lon="6.234440971165896">
        <ele>630.75999999999999</ele>
        <time>2025-05-18T06:42:22Z</time>
      </trkpt>
      <trkpt lat="43.819725019857287" lon="6.234440971165896">
        <ele>631.24000000000001</ele>
        <time>2025-05-18T06:42:23Z</time>
      </trkpt>
      <trkpt lat="43.819616977125406" lon="6.234440971165896">
        <ele>632.20000000000005</ele>
        <time>2025-05-18T06:42:24Z</time>
      </trkpt>
      <trkpt lat="43.819504994899035" lon="6.23447097837925">
        <ele>632.67999999999995</ele>
        <time>2025-05-18T06:42:25Z</time>
      </trkpt>
      <trkpt lat="43.81940801627934" lon="6.23453501611948">
        <ele>632.67999999999995</ele>
        <time>2025-05-18T06:42:26Z</time>
      </trkpt>
      <trkpt lat="43.819292010739446" lon="6.234613973647356">
        <ele>633.16999999999996</ele>
        <time>2025-05-18T06:42:27Z</time>
      </trkpt>
      <trkpt lat="43.819226967170835" lon="6.234742971137166">
        <ele>634.13</ele>
        <time>2025-05-18T06:42:28Z</time>
      </trkpt>
      <trkpt lat="43.819163013249636" lon="6.234870040789247">
        <ele>634.61000000000001</ele>
        <time>2025-05-18T06:42:29Z</time>
      </trkpt>
      <trkpt lat="43.819136023521423" lon="6.235036002472043">
        <ele>635.09000000000003</ele>
        <time>2025-05-18T06:42:30Z</time>
      </trkpt>
      <trkpt lat="43.819123031571507" lon="6.235218979418278">
        <ele>635.09000000000003</ele>
        <time>2025-05-18T06:42:31Z</time>
      </trkpt>
      <trkpt lat="43.819127976894379" lon="6.235407991334796">
        <ele>634.61000000000001</ele>
        <time>2025-05-18T06:42:32Z</time>
      </trkpt>
      <trkpt lat="43.819116996601224" lon="6.235995981842279">
        <ele>633.64999999999998</ele>
        <time>2025-05-18T06:42:35Z</time>
      </trkpt>
      <trkpt lat="43.819076009094715" lon="6.236185999587178">
        <ele>633.16999999999996</ele>
        <time>2025-05-18T06:42:36Z</time>
      </trkpt>
      <trkpt lat="43.819035021588206" lon="6.236379034817219">
        <ele>632.67999999999995</ele>
        <time>2025-05-18T06:42:37Z</time>
      </trkpt>
      <trkpt lat="43.818994034081697" lon="6.236567040905356">
        <ele>632.67999999999995</ele>
        <time>2025-05-18T06:42:38Z</time>
      </trkpt>
      <trkpt lat="43.81895799189806" lon="6.236739037558436">
        <ele>633.16999999999996</ele>
        <time>2025-05-18T06:42:39Z</time>
      </trkpt>
      <trkpt lat="43.818962015211582" lon="6.236936012282968">
        <ele>633.16999999999996</ele>
        <time>2025-05-18T06:42:40Z</time>
      </trkpt>
      <trkpt lat="43.81897802464664" lon="6.237127035856247">
        <ele>633.16999999999996</ele>
        <time>2025-05-18T06:42:41Z</time>
      </trkpt>
      <trkpt lat="43.818992022424936" lon="6.237295009195805">
        <ele>633.64999999999998</ele>
        <time>2025-05-18T06:42:42Z</time>
      </trkpt>
      <trkpt lat="43.81897802464664" lon="6.237498018890619">
        <ele>633.16999999999996</ele>
        <time>2025-05-18T06:42:43Z</time>
      </trkpt>
      <trkpt lat="43.818953968584538" lon="6.237654006108642">
        <ele>633.16999999999996</ele>
        <time>2025-05-18T06:42:44Z</time>
      </trkpt>
      <trkpt lat="43.818888003006577" lon="6.237805970013142">
        <ele>633.16999999999996</ele>
        <time>2025-05-18T06:42:45Z</time>
      </trkpt>
      <trkpt lat="43.818818014115095" lon="6.237967992201448">
        <ele>632.67999999999995</ele>
        <time>2025-05-18T06:42:46Z</time>
      </trkpt>
      <trkpt lat="43.818747019395232" lon="6.238132026046515">
        <ele>632.20000000000005</ele>
        <time>2025-05-18T06:42:47Z</time>
      </trkpt>
      <trkpt lat="43.818280985578895" lon="6.239400962367654">
        <ele>627.88</ele>
        <time>2025-05-18T06:42:54Z</time>
      </trkpt>
      <trkpt lat="43.818190963938832" lon="6.239806981757283">
        <ele>624.99000000000001</ele>
        <time>2025-05-18T06:42:56Z</time>
      </trkpt>
      <trkpt lat="43.818097002804279" lon="6.24037804082036">
        <ele>621.14999999999998</ele>
        <time>2025-05-18T06:42:59Z</time>
      </trkpt>
      <trkpt lat="43.818018967285752" lon="6.240854971110821">
        <ele>617.77999999999997</ele>
        <time>2025-05-18T06:43:02Z</time>
      </trkpt>
      <trkpt lat="43.817983008921146" lon="6.241070972755551">
        <ele>616.34000000000003</ele>
        <time>2025-05-18T06:43:03Z</time>
      </trkpt>
      <trkpt lat="43.817992983385921" lon="6.241191001608968">
        <ele>615.38</ele>
        <time>2025-05-18T06:43:04Z</time>
      </trkpt>
      <trkpt lat="43.818040005862713" lon="6.241801958531141">
        <ele>612.5</ele>
        <time>2025-05-18T06:43:08Z</time>
      </trkpt>
      <trkpt lat="43.818051991984248" lon="6.241954006254673">
        <ele>612.5</ele>
        <time>2025-05-18T06:43:09Z</time>
      </trkpt>
      <trkpt lat="43.818069007247686" lon="6.242165984585881">
        <ele>611.53999999999996</ele>
        <time>2025-05-18T06:43:10Z</time>
      </trkpt>
      <trkpt lat="43.818048974499106" lon="6.24224997125566">
        <ele>611.05999999999995</ele>
        <time>2025-05-18T06:43:11Z</time>
      </trkpt>
      <trkpt lat="43.818003041669726" lon="6.242449041455984">
        <ele>610.57000000000005</ele>
        <time>2025-05-18T06:43:12Z</time>
      </trkpt>
      <trkpt lat="43.817953001707792" lon="6.242665965110064">
        <ele>610.09000000000003</ele>
        <time>2025-05-18T06:43:13Z</time>
      </trkpt>
      <trkpt lat="43.817789973691106" lon="6.243367027491331">
        <ele>609.13</ele>
        <time>2025-05-18T06:43:17Z</time>
      </trkpt>
      <trkpt lat="43.817660976201296" lon="6.24355997890234">
        <ele>608.64999999999998</ele>
        <time>2025-05-18T06:43:18Z</time>
      </trkpt>
      <trkpt lat="43.817645972594619" lon="6.24355997890234">
        <ele>608.16999999999996</ele>
        <time>2025-05-18T06:43:19Z</time>
      </trkpt>
      <trkpt lat="43.817485962063074" lon="6.243525026366115">
        <ele>608.16999999999996</ele>
        <time>2025-05-18T06:43:20Z</time>
      </trkpt>
      <trkpt lat="43.817422008141875" lon="6.243437016382814">
        <ele>607.69000000000005</ele>
        <time>2025-05-18T06:43:21Z</time>
      </trkpt>
      <trkpt lat="43.817349001765251" lon="6.243337020277977">
        <ele>608.64999999999998</ele>
        <time>2025-05-18T06:43:22Z</time>
      </trkpt>
      <trkpt lat="43.817267026752234" lon="6.243224032223225">
        <ele>608.64999999999998</ele>
        <time>2025-05-18T06:43:23Z</time>
      </trkpt>
      <trkpt lat="43.817175999283791" lon="6.243097968399525">
        <ele>608.64999999999998</ele>
        <time>2025-05-18T06:43:24Z</time>
      </trkpt>
      <trkpt lat="43.817080026492476" lon="6.242966037243605">
        <ele>609.13</ele>
        <time>2025-05-18T06:43:25Z</time>
      </trkpt>
      <trkpt lat="43.816984975710511" lon="6.242835028097034">
        <ele>609.13</ele>
        <time>2025-05-18T06:43:26Z</time>
      </trkpt>
      <trkpt lat="43.816895959898829" lon="6.242711981758475">
        <ele>609.61000000000001</ele>
        <time>2025-05-18T06:43:27Z</time>
      </trkpt>
      <trkpt lat="43.816806022077799" lon="6.242654984816909">
        <ele>610.09000000000003</ele>
        <time>2025-05-18T06:43:28Z</time>
      </trkpt>
      <trkpt lat="43.816684987396002" lon="6.242584995925427">
        <ele>611.05999999999995</ele>
        <time>2025-05-18T06:43:29Z</time>
      </trkpt>
      <trkpt lat="43.816568981856108" lon="6.242531016469002">
        <ele>611.53999999999996</ele>
        <time>2025-05-18T06:43:30Z</time>
      </trkpt>
      <trkpt lat="43.816424980759621" lon="6.242539985105395">
        <ele>612.01999999999998</ele>
        <time>2025-05-18T06:43:31Z</time>
      </trkpt>
      <trkpt lat="43.816223982721567" lon="6.242551971226931">
        <ele>612.98000000000002</ele>
        <time>2025-05-18T06:43:32Z</time>
      </trkpt>
      <trkpt lat="43.816123986616731" lon="6.242590025067329">
        <ele>613.46000000000004</ele>
        <time>2025-05-18T06:43:33Z</time>
      </trkpt>
      <trkpt lat="43.81597101688385" lon="6.242648027837277">
        <ele>613.46000000000004</ele>
        <time>2025-05-18T06:43:34Z</time>
      </trkpt>
      <trkpt lat="43.815814023837447" lon="6.242707036435604">
        <ele>613.94000000000005</ele>
        <time>2025-05-18T06:43:35Z</time>
      </trkpt>
      <trkpt lat="43.815510012209415" lon="6.24284902587533">
        <ele>614.89999999999998</ele>
        <time>2025-05-18T06:43:37Z</time>
      </trkpt>
      <trkpt lat="43.815379003062844" lon="6.242948016151786">
        <ele>615.38</ele>
        <time>2025-05-18T06:43:38Z</time>
      </trkpt>
      <trkpt lat="43.815149003639817" lon="6.243192013353109">
        <ele>616.82000000000005</ele>
        <time>2025-05-18T06:43:40Z</time>
      </trkpt>
      <trkpt lat="43.815059987828135" lon="6.243296032771468">
        <ele>617.77999999999997</ele>
        <time>2025-05-18T06:43:41Z</time>
      </trkpt>
      <trkpt lat="43.815013971179724" lon="6.243447996675968">
        <ele>618.25999999999999</ele>
        <time>2025-05-18T06:43:42Z</time>
      </trkpt>
      <trkpt lat="43.814966026693583" lon="6.243607001379132">
        <ele>618.25999999999999</ele>
        <time>2025-05-18T06:43:43Z</time>
      </trkpt>
      <trkpt lat="43.81491799838841" lon="6.243761982768774">
        <ele>618.75</ele>
        <time>2025-05-18T06:43:44Z</time>
      </trkpt>
      <trkpt lat="43.814761005342007" lon="6.244448963552713">
        <ele>620.19000000000005</ele>
        <time>2025-05-18T06:43:48Z</time>
      </trkpt>
      <trkpt lat="43.814722029492259" lon="6.24467602930963">
        <ele>620.66999999999996</ele>
        <time>2025-05-18T06:43:49Z</time>
      </trkpt>
      <trkpt lat="43.814727980643511" lon="6.244836039841175">
        <ele>620.19000000000005</ele>
        <time>2025-05-18T06:43:50Z</time>
      </trkpt>
      <trkpt lat="43.814733009785414" lon="6.24497601762414">
        <ele>619.71000000000004</ele>
        <time>2025-05-18T06:43:51Z</time>
      </trkpt>
      <trkpt lat="43.814737033098936" lon="6.245086994022131">
        <ele>619.23000000000002</ele>
        <time>2025-05-18T06:43:52Z</time>
      </trkpt>
      <trkpt lat="43.814740972593427" lon="6.245177015662193">
        <ele>618.75</ele>
        <time>2025-05-18T06:43:53Z</time>
      </trkpt>
      <trkpt lat="43.814752958714962" lon="6.245275000110269">
        <ele>617.77999999999997</ele>
        <time>2025-05-18T06:43:54Z</time>
      </trkpt>
      <trkpt lat="43.814770979806781" lon="6.245352029800415">
        <ele>616.82000000000005</ele>
        <time>2025-05-18T06:43:55Z</time>
      </trkpt>
      <trkpt lat="43.815002990886569" lon="6.245992993935943">
        <ele>613.46000000000004</ele>
        <time>2025-05-18T06:44:04Z</time>
      </trkpt>
      <trkpt lat="43.815190996974707" lon="6.246412005275488">
        <ele>610.57000000000005</ele>
        <time>2025-05-18T06:44:09Z</time>
      </trkpt>
      <trkpt lat="43.815217986702919" lon="6.246527004987001">
        <ele>609.61000000000001</ele>
        <time>2025-05-18T06:44:10Z</time>
      </trkpt>
      <trkpt lat="43.815235001966357" lon="6.24661099165678">
        <ele>608.64999999999998</ele>
        <time>2025-05-18T06:44:11Z</time>
      </trkpt>
      <trkpt lat="43.815200971439481" lon="6.246733032166958">
        <ele>607.21000000000004</ele>
        <time>2025-05-18T06:44:12Z</time>
      </trkpt>
      <trkpt lat="43.815165013074875" lon="6.246861023828387">
        <ele>606.25</ele>
        <time>2025-05-18T06:44:13Z</time>
      </trkpt>
      <trkpt lat="43.815126037225127" lon="6.246998989954591">
        <ele>605.76999999999998</ele>
        <time>2025-05-18T06:44:14Z</time>
      </trkpt>
      <trkpt lat="43.815086977556348" lon="6.247137961909175">
        <ele>604.80999999999995</ele>
        <time>2025-05-18T06:44:15Z</time>
      </trkpt>
      <trkpt lat="43.815053030848503" lon="6.247343989089131">
        <ele>603.85000000000002</ele>
        <time>2025-05-18T06:44:16Z</time>
      </trkpt>
      <trkpt lat="43.815082032233477" lon="6.247497964650393">
        <ele>603.36000000000001</ele>
        <time>2025-05-18T06:44:17Z</time>
      </trkpt>
      <trkpt lat="43.81511296145618" lon="6.247656969353557">
        <ele>602.39999999999998</ele>
        <time>2025-05-18T06:44:18Z</time>
      </trkpt>
      <trkpt lat="43.815128970891237" lon="6.247782027348876">
        <ele>601.91999999999996</ele>
        <time>2025-05-18T06:44:19Z</time>
      </trkpt>
      <trkpt lat="43.815128970891237" lon="6.247981013730168">
        <ele>601.44000000000005</ele>
        <time>2025-05-18T06:44:20Z</time>
      </trkpt>
      <trkpt lat="43.815065016970038" lon="6.248087966814637">
        <ele>600.96000000000004</ele>
        <time>2025-05-18T06:44:21Z</time>
      </trkpt>
      <trkpt lat="43.815013971179724" lon="6.248121997341514">
        <ele>600.96000000000004</ele>
        <time>2025-05-18T06:44:22Z</time>
      </trkpt>
      <trkpt lat="43.814909029752016" lon="6.248191986232996">
        <ele>601.44000000000005</ele>
        <time>2025-05-18T06:44:23Z</time>
      </trkpt>
      <trkpt lat="43.814793024212122" lon="6.248269015923142">
        <ele>601.91999999999996</ele>
        <time>2025-05-18T06:44:24Z</time>
      </trkpt>
      <trkpt lat="43.814670983701944" lon="6.248356020078063">
        <ele>602.39999999999998</ele>
        <time>2025-05-18T06:44:25Z</time>
      </trkpt>
      <trkpt lat="43.814571993425488" lon="6.248495997861028">
        <ele>602.88</ele>
        <time>2025-05-18T06:44:26Z</time>
      </trkpt>
      <trkpt lat="43.81446897983551" lon="6.248642010614276">
        <ele>603.36000000000001</ele>
        <time>2025-05-18T06:44:27Z</time>
      </trkpt>
      <trkpt lat="43.814369989559054" lon="6.24878098256886">
        <ele>603.36000000000001</ele>
        <time>2025-05-18T06:44:28Z</time>
      </trkpt>
      <trkpt lat="43.814297989010811" lon="6.248933030292392">
        <ele>603.85000000000002</ele>
        <time>2025-05-18T06:44:29Z</time>
      </trkpt>
      <trkpt lat="43.814262030646205" lon="6.249095974490047">
        <ele>603.85000000000002</ele>
        <time>2025-05-18T06:44:30Z</time>
      </trkpt>
      <trkpt lat="43.814228000119328" lon="6.249247016385198">
        <ele>603.85000000000002</ele>
        <time>2025-05-18T06:44:31Z</time>
      </trkpt>
      <trkpt lat="43.814206961542368" lon="6.249439967796207">
        <ele>603.85000000000002</ele>
        <time>2025-05-18T06:44:32Z</time>
      </trkpt>
      <trkpt lat="43.814236968755722" lon="6.249545998871326">
        <ele>603.85000000000002</ele>
        <time>2025-05-18T06:44:33Z</time>
      </trkpt>
      <trkpt lat="43.81427401676774" lon="6.249674996361136">
        <ele>603.85000000000002</ele>
        <time>2025-05-18T06:44:34Z</time>
      </trkpt>
      <trkpt lat="43.814289020374417" lon="6.249757977202535">
        <ele>603.85000000000002</ele>
        <time>2025-05-18T06:44:35Z</time>
      </trkpt>
      <trkpt lat="43.814249960705638" lon="6.249975990504026">
        <ele>603.36000000000001</ele>
        <time>2025-05-18T06:44:36Z</time>
      </trkpt>
      <trkpt lat="43.814234035089612" lon="6.249989988282323">
        <ele>603.36000000000001</ele>
        <time>2025-05-18T06:44:37Z</time>
      </trkpt>
      <trkpt lat="43.814136972650886" lon="6.250076992437244">
        <ele>604.33000000000004</ele>
        <time>2025-05-18T06:44:38Z</time>
      </trkpt>
      <trkpt lat="43.814035970717669" lon="6.250168019905686">
        <ele>604.33000000000004</ele>
        <time>2025-05-18T06:44:39Z</time>
      </trkpt>
      <trkpt lat="43.813429959118366" lon="6.250482005998492">
        <ele>605.28999999999996</ele>
        <time>2025-05-18T06:44:43Z</time>
      </trkpt>
      <trkpt lat="43.813292998820543" lon="6.250505978241563">
        <ele>605.28999999999996</ele>
        <time>2025-05-18T06:44:44Z</time>
      </trkpt>
      <trkpt lat="43.813219992443919" lon="6.250490974634886">
        <ele>604.80999999999995</ele>
        <time>2025-05-18T06:44:45Z</time>
      </trkpt>
      <trkpt lat="43.813109016045928" lon="6.250411011278629">
        <ele>604.33000000000004</ele>
        <time>2025-05-18T06:44:46Z</time>
      </trkpt>
      <trkpt lat="43.813042966648936" lon="6.250362982973456">
        <ele>604.33000000000004</ele>
        <time>2025-05-18T06:44:47Z</time>
      </trkpt>
      <trkpt lat="43.81298404186964" lon="6.250319983810186">
        <ele>604.33000000000004</ele>
        <time>2025-05-18T06:44:48Z</time>
      </trkpt>
      <trkpt lat="43.81298404186964" lon="6.250319983810186">
        <ele>604.33000000000004</ele>
        <time>2025-05-18T06:44:49Z</time>
      </trkpt>
      <trkpt lat="43.812875999137759" lon="6.250341022387147">
        <ele>606.73000000000002</ele>
        <time>2025-05-18T06:44:50Z</time>
      </trkpt>
      <trkpt lat="43.812875999137759" lon="6.250341022387147">
        <ele>608.16999999999996</ele>
        <time>2025-05-18T06:44:51Z</time>
      </trkpt>
      <trkpt lat="43.812831994146109" lon="6.250445041805506">
        <ele>609.61000000000001</ele>
        <time>2025-05-18T06:44:52Z</time>
      </trkpt>
      <trkpt lat="43.81281397305429" lon="6.250485023483634">
        <ele>611.05999999999995</ele>
        <time>2025-05-18T06:44:53Z</time>
      </trkpt>
      <trkpt lat="43.812811961397529" lon="6.250490974634886">
        <ele>612.5</ele>
        <time>2025-05-18T06:44:54Z</time>
      </trkpt>
      <trkpt lat="43.81281103938818" lon="6.250499021261931">
        <ele>612.98000000000002</ele>
        <time>2025-05-18T06:44:55Z</time>
      </trkpt>
      <trkpt lat="43.812809027731419" lon="6.250543026253581">
        <ele>613.94000000000005</ele>
        <time>2025-05-18T06:44:56Z</time>
      </trkpt>
      <trkpt lat="43.812794024124742" lon="6.250804038718343">
        <ele>617.29999999999995</ele>
        <time>2025-05-18T06:45:06Z</time>
      </trkpt>
      <trkpt lat="43.812790000811219" lon="6.250856006518006">
        <ele>620.19000000000005</ele>
        <time>2025-05-18T06:45:21Z</time>
      </trkpt>
      <trkpt lat="43.812790000811219" lon="6.250856006518006">
        <ele>622.59000000000003</ele>
        <time>2025-05-18T06:46:00Z</time>
      </trkpt>
      <trkpt lat="43.812790000811219" lon="6.250856006518006">
        <ele>626.44000000000005</ele>
        <time>2025-05-18T06:47:07Z</time>
      </trkpt>
      <trkpt lat="43.812795029953122" lon="6.25090797431767">
        <ele>632.20000000000005</ele>
        <time>2025-05-18T06:47:09Z</time>
      </trkpt>
      <trkpt lat="43.812798969447613" lon="6.250953990966082">
        <ele>635.09000000000003</ele>
        <time>2025-05-18T06:47:10Z</time>
      </trkpt>
      <trkpt lat="43.812803998589516" lon="6.251024985685945">
        <ele>636.52999999999997</ele>
        <time>2025-05-18T06:47:11Z</time>
      </trkpt>
      <trkpt lat="43.812882034108043" lon="6.251956969499588">
        <ele>639.40999999999997</ele>
        <time>2025-05-18T06:47:18Z</time>
      </trkpt>
      <trkpt lat="43.812940958887339" lon="6.253124987706542">
        <ele>639.40999999999997</ele>
        <time>2025-05-18T06:47:24Z</time>
      </trkpt>
      <trkpt lat="43.812886979430914" lon="6.253307964652777">
        <ele>638.92999999999995</ele>
        <time>2025-05-18T06:47:25Z</time>
      </trkpt>
      <trkpt lat="43.812827970832586" lon="6.253453977406025">
        <ele>638.92999999999995</ele>
        <time>2025-05-18T06:47:26Z</time>
      </trkpt>
      <trkpt lat="43.812739960849285" lon="6.253562020137906">
        <ele>638.45000000000005</ele>
        <time>2025-05-18T06:47:27Z</time>
      </trkpt>
      <trkpt lat="43.812634013593197" lon="6.253660004585981">
        <ele>638.92999999999995</ele>
        <time>2025-05-18T06:47:28Z</time>
      </trkpt>
      <trkpt lat="43.812524965032935" lon="6.253761006519198">
        <ele>639.40999999999997</ele>
        <time>2025-05-18T06:47:29Z</time>
      </trkpt>
      <trkpt lat="43.812441984191537" lon="6.253912970423698">
        <ele>639.88999999999999</ele>
        <time>2025-05-18T06:47:30Z</time>
      </trkpt>
      <trkpt lat="43.812368977814913" lon="6.254057977348566">
        <ele>639.88999999999999</ele>
        <time>2025-05-18T06:47:31Z</time>
      </trkpt>
      <trkpt lat="43.812305023893714" lon="6.254213964566588">
        <ele>640.86000000000001</ele>
        <time>2025-05-18T06:47:32Z</time>
      </trkpt>
      <trkpt lat="43.812264036387205" lon="6.254375986754894">
        <ele>640.86000000000001</ele>
        <time>2025-05-18T06:47:33Z</time>
      </trkpt>
      <trkpt lat="43.81223302334547" lon="6.254503978416324">
        <ele>641.34000000000003</ele>
        <time>2025-05-18T06:47:34Z</time>
      </trkpt>
      <trkpt lat="43.812253978103399" lon="6.254638005048037">
        <ele>641.82000000000005</ele>
        <time>2025-05-18T06:47:35Z</time>
      </trkpt>
      <trkpt lat="43.81227501668036" lon="6.25477496534586">
        <ele>642.29999999999995</ele>
        <time>2025-05-18T06:47:36Z</time>
      </trkpt>
      <trkpt lat="43.812295971438289" lon="6.254908991977572">
        <ele>642.77999999999997</ele>
        <time>2025-05-18T06:47:37Z</time>
      </trkpt>
      <trkpt lat="43.812263030558825" lon="6.255046036094427">
        <ele>642.77999999999997</ele>
        <time>2025-05-18T06:47:38Z</time>
      </trkpt>
      <trkpt lat="43.812204021960497" lon="6.255133040249348">
        <ele>643.25999999999999</ele>
        <time>2025-05-18T06:47:39Z</time>
      </trkpt>
      <trkpt lat="43.81214702501893" lon="6.255190037190914">
        <ele>643.74000000000001</ele>
        <time>2025-05-18T06:47:40Z</time>
      </trkpt>
      <trkpt lat="43.812035964801908" lon="6.255200011655688">
        <ele>643.74000000000001</ele>
        <time>2025-05-18T06:47:41Z</time>
      </trkpt>
      <trkpt lat="43.811915013939142" lon="6.255209986120462">
        <ele>644.22000000000003</ele>
        <time>2025-05-18T06:47:42Z</time>
      </trkpt>
      <trkpt lat="43.811775958165526" lon="6.255220966413617">
        <ele>644.70000000000005</ele>
        <time>2025-05-18T06:47:43Z</time>
      </trkpt>
      <trkpt lat="43.811326017603278" lon="6.255184002220631">
        <ele>648.07000000000005</ele>
        <time>2025-05-18T06:47:46Z</time>
      </trkpt>
      <trkpt lat="43.810967020690441" lon="6.255125999450684">
        <ele>650.47000000000003</ele>
        <time>2025-05-18T06:47:49Z</time>
      </trkpt>
      <trkpt lat="43.810865012928843" lon="6.255205040797591">
        <ele>650.47000000000003</ele>
        <time>2025-05-18T06:47:50Z</time>
      </trkpt>
      <trkpt lat="43.81077297963202" lon="6.255276035517454">
        <ele>650.47000000000003</ele>
        <time>2025-05-18T06:47:51Z</time>
      </trkpt>
      <trkpt lat="43.810730986297131" lon="6.255345018580556">
        <ele>650.47000000000003</ele>
        <time>2025-05-18T06:47:52Z</time>
      </trkpt>
      <trkpt lat="43.810668038204312" lon="6.255448032170534">
        <ele>650.95000000000005</ele>
        <time>2025-05-18T06:47:53Z</time>
      </trkpt>
      <trkpt lat="43.810608023777604" lon="6.255545010790229">
        <ele>651.42999999999995</ele>
        <time>2025-05-18T06:47:54Z</time>
      </trkpt>
      <trkpt lat="43.810529988259077" lon="6.255597984418273">
        <ele>651.42999999999995</ele>
        <time>2025-05-18T06:47:55Z</time>
      </trkpt>
      <trkpt lat="43.810494029894471" lon="6.255620028823614">
        <ele>651.42999999999995</ele>
        <time>2025-05-18T06:47:56Z</time>
      </trkpt>
      <trkpt lat="43.810384981334209" lon="6.255594966933131">
        <ele>651.42999999999995</ele>
        <time>2025-05-18T06:47:57Z</time>
      </trkpt>
      <trkpt lat="43.810300994664431" lon="6.255577029660344">
        <ele>651.42999999999995</ele>
        <time>2025-05-18T06:47:58Z</time>
      </trkpt>
      <trkpt lat="43.810209967195988" lon="6.255495976656675">
        <ele>651.90999999999997</ele>
        <time>2025-05-18T06:47:59Z</time>
      </trkpt>
      <trkpt lat="43.810111982747912" lon="6.255407966673374">
        <ele>652.38999999999999</ele>
        <time>2025-05-18T06:48:00Z</time>
      </trkpt>
      <trkpt lat="43.810045011341572" lon="6.255285004153848">
        <ele>652.87</ele>
        <time>2025-05-18T06:48:01Z</time>
      </trkpt>
      <trkpt lat="43.809963958337903" lon="6.255133040249348">
        <ele>653.35000000000002</ele>
        <time>2025-05-18T06:48:02Z</time>
      </trkpt>
      <trkpt lat="43.809866979718208" lon="6.254977975040674">
        <ele>653.83000000000004</ele>
        <time>2025-05-18T06:48:03Z</time>
      </trkpt>
      <trkpt lat="43.809764971956611" lon="6.254845038056374">
        <ele>654.30999999999995</ele>
        <time>2025-05-18T06:48:04Z</time>
      </trkpt>
      <trkpt lat="43.809636980295181" lon="6.254730960354209">
        <ele>654.79999999999995</ele>
        <time>2025-05-18T06:48:05Z</time>
      </trkpt>
      <trkpt lat="43.809497002512217" lon="6.254662983119488">
        <ele>654.79999999999995</ele>
        <time>2025-05-18T06:48:06Z</time>
      </trkpt>
      <trkpt lat="43.809361970052123" lon="6.254598023369908">
        <ele>655.27999999999997</ele>
        <time>2025-05-18T06:48:07Z</time>
      </trkpt>
      <trkpt lat="43.809230960905552" lon="6.254534991458058">
        <ele>655.27999999999997</ele>
        <time>2025-05-18T06:48:08Z</time>
      </trkpt>
      <trkpt lat="43.809112021699548" lon="6.254476988688111">
        <ele>655.75999999999999</ele>
        <time>2025-05-18T06:48:09Z</time>
      </trkpt>
      <trkpt lat="43.808928038924932" lon="6.254475982859731">
        <ele>655.27999999999997</ele>
        <time>2025-05-18T06:48:11Z</time>
      </trkpt>
      <trkpt lat="43.808855032548308" lon="6.254492998123169">
        <ele>655.27999999999997</ele>
        <time>2025-05-18T06:48:12Z</time>
      </trkpt>
      <trkpt lat="43.808796023949981" lon="6.254568016156554">
        <ele>654.79999999999995</ele>
        <time>2025-05-18T06:48:13Z</time>
      </trkpt>
      <trkpt lat="43.80873098038137" lon="6.254650996997953">
        <ele>654.79999999999995</ele>
        <time>2025-05-18T06:48:14Z</time>
      </trkpt>
      <trkpt lat="43.808658979833126" lon="6.254743030294776">
        <ele>654.79999999999995</ele>
        <time>2025-05-18T06:48:15Z</time>
      </trkpt>
      <trkpt lat="43.808560995385051" lon="6.2548160366714">
        <ele>654.79999999999995</ele>
        <time>2025-05-18T06:48:16Z</time>
      </trkpt>
      <trkpt lat="43.808453036472201" lon="6.254845038056374">
        <ele>654.79999999999995</ele>
        <time>2025-05-18T06:48:17Z</time>
      </trkpt>
      <trkpt lat="43.808340970426798" lon="6.254841014742851">
        <ele>654.79999999999995</ele>
        <time>2025-05-18T06:48:18Z</time>
      </trkpt>
      <trkpt lat="43.808223959058523" lon="6.254836991429329">
        <ele>654.79999999999995</ele>
        <time>2025-05-18T06:48:19Z</time>
      </trkpt>
      <trkpt lat="43.80810895934701" lon="6.254831962287426">
        <ele>654.79999999999995</ele>
        <time>2025-05-18T06:48:20Z</time>
      </trkpt>
      <trkpt lat="43.80765600129962" lon="6.254755016416311">
        <ele>654.79999999999995</ele>
        <time>2025-05-18T06:48:24Z</time>
      </trkpt>
      <trkpt lat="43.80755097605288" lon="6.254728026688099">
        <ele>655.27999999999997</ele>
        <time>2025-05-18T06:48:25Z</time>
      </trkpt>
      <trkpt lat="43.807228021323681" lon="6.254620989784598">
        <ele>657.20000000000005</ele>
        <time>2025-05-18T06:48:31Z</time>
      </trkpt>
      <trkpt lat="43.807228021323681" lon="6.254620989784598">
        <ele>658.15999999999997</ele>
        <time>2025-05-18T06:48:46Z</time>
      </trkpt>
      <trkpt lat="43.807170018553734" lon="6.254599029198289">
        <ele>660.08000000000004</ele>
        <time>2025-05-18T06:49:16Z</time>
      </trkpt>
      <trkpt lat="43.806730974465609" lon="6.254427032545209">
        <ele>661.51999999999998</ele>
        <time>2025-05-18T06:49:21Z</time>
      </trkpt>
      <trkpt lat="43.80662502720952" lon="6.254438012838364">
        <ele>661.51999999999998</ele>
        <time>2025-05-18T06:49:22Z</time>
      </trkpt>
      <trkpt lat="43.806535005569458" lon="6.254500960931182">
        <ele>662.00999999999999</ele>
        <time>2025-05-18T06:49:23Z</time>
      </trkpt>
      <trkpt lat="43.806441966444254" lon="6.254566004499793">
        <ele>662.00999999999999</ele>
        <time>2025-05-18T06:49:24Z</time>
      </trkpt>
      <trkpt lat="43.806336019188166" lon="6.254583019763231">
        <ele>662.00999999999999</ele>
        <time>2025-05-18T06:49:25Z</time>
      </trkpt>
      <trkpt lat="43.806245997548103" lon="6.2545570358634">
        <ele>662.49000000000001</ele>
        <time>2025-05-18T06:49:26Z</time>
      </trkpt>
      <trkpt lat="43.806156981736422" lon="6.254488974809647">
        <ele>662.49000000000001</ele>
        <time>2025-05-18T06:49:27Z</time>
      </trkpt>
      <trkpt lat="43.806062014773488" lon="6.254415968433023">
        <ele>662.97000000000003</ele>
        <time>2025-05-18T06:49:28Z</time>
      </trkpt>
      <trkpt lat="43.805977022275329" lon="6.254325024783611">
        <ele>663.45000000000005</ele>
        <time>2025-05-18T06:49:29Z</time>
      </trkpt>
      <trkpt lat="43.805904015898705" lon="6.25421698205173">
        <ele>663.45000000000005</ele>
        <time>2025-05-18T06:49:30Z</time>
      </trkpt>
      <trkpt lat="43.8058300036937" lon="6.254112040624023">
        <ele>663.45000000000005</ele>
        <time>2025-05-18T06:49:31Z</time>
      </trkpt>
      <trkpt lat="43.805740987882018" lon="6.254053032025695">
        <ele>662.97000000000003</ele>
        <time>2025-05-18T06:49:32Z</time>
      </trkpt>
      <trkpt lat="43.805631017312407" lon="6.254026964306831">
        <ele>662.97000000000003</ele>
        <time>2025-05-18T06:49:33Z</time>
      </trkpt>
      <trkpt lat="43.805513000115752" lon="6.254019001498818">
        <ele>662.97000000000003</ele>
        <time>2025-05-18T06:49:34Z</time>
      </trkpt>
      <trkpt lat="43.805390037596226" lon="6.254011038690805">
        <ele>662.49000000000001</ele>
        <time>2025-05-18T06:49:35Z</time>
      </trkpt>
      <trkpt lat="43.805261962115765" lon="6.254002992063761">
        <ele>662.49000000000001</ele>
        <time>2025-05-18T06:49:36Z</time>
      </trkpt>
      <trkpt lat="43.805130030959845" lon="6.253995029255748">
        <ele>662.00999999999999</ele>
        <time>2025-05-18T06:49:37Z</time>
      </trkpt>
      <trkpt lat="43.804998015984893" lon="6.253985976800323">
        <ele>662.00999999999999</ele>
        <time>2025-05-18T06:49:38Z</time>
      </trkpt>
      <trkpt lat="43.804618986323476" lon="6.253992011770606">
        <ele>661.03999999999996</ele>
        <time>2025-05-18T06:49:41Z</time>
      </trkpt>
      <trkpt lat="43.804495017975569" lon="6.254028975963593">
        <ele>660.55999999999995</ele>
        <time>2025-05-18T06:49:42Z</time>
      </trkpt>
      <trkpt lat="43.804271975532174" lon="6.254096031188965">
        <ele>659.60000000000002</ele>
        <time>2025-05-18T06:49:44Z</time>
      </trkpt>
      <trkpt lat="43.80417600274086" lon="6.254059989005327">
        <ele>659.60000000000002</ele>
        <time>2025-05-18T06:49:45Z</time>
      </trkpt>
      <trkpt lat="43.804087992757559" lon="6.254026964306831">
        <ele>659.12</ele>
        <time>2025-05-18T06:49:46Z</time>
      </trkpt>
      <trkpt lat="43.804006017744541" lon="6.253996035084128">
        <ele>659.12</ele>
        <time>2025-05-18T06:49:47Z</time>
      </trkpt>
      <trkpt lat="43.803929993882775" lon="6.253968039527535">
        <ele>658.63999999999999</ele>
        <time>2025-05-18T06:49:48Z</time>
      </trkpt>
      <trkpt lat="43.803858999162912" lon="6.254032999277115">
        <ele>658.63999999999999</ele>
        <time>2025-05-18T06:49:49Z</time>
      </trkpt>
      <trkpt lat="43.803806025534868" lon="6.254083039239049">
        <ele>658.15999999999997</ele>
        <time>2025-05-18T06:49:50Z</time>
      </trkpt>
      <trkpt lat="43.803748022764921" lon="6.254137018695474">
        <ele>658.15999999999997</ele>
        <time>2025-05-18T06:49:51Z</time>
      </trkpt>
      <trkpt lat="43.80368297919631" lon="6.254198038950563">
        <ele>657.67999999999995</ele>
        <time>2025-05-18T06:49:52Z</time>
      </trkpt>
      <trkpt lat="43.803471000865102" lon="6.254370035603643">
        <ele>656.24000000000001</ele>
        <time>2025-05-18T06:49:55Z</time>
      </trkpt>
      <trkpt lat="43.803396988660097" lon="6.254415968433023">
        <ele>655.75999999999999</ele>
        <time>2025-05-18T06:49:56Z</time>
      </trkpt>
      <trkpt lat="43.803323982283473" lon="6.254460979253054">
        <ele>655.75999999999999</ele>
        <time>2025-05-18T06:49:57Z</time>
      </trkpt>
      <trkpt lat="43.803244018927217" lon="6.254460979253054">
        <ele>655.27999999999997</ele>
        <time>2025-05-18T06:49:58Z</time>
      </trkpt>
      <trkpt lat="43.803164977580309" lon="6.254448993131518">
        <ele>655.27999999999997</ele>
        <time>2025-05-18T06:49:59Z</time>
      </trkpt>
      <trkpt lat="43.803089959546924" lon="6.254423009231687">
        <ele>655.27999999999997</ele>
        <time>2025-05-18T06:50:00Z</time>
      </trkpt>
      <trkpt lat="43.803023993968964" lon="6.254399958997965">
        <ele>655.75999999999999</ele>
        <time>2025-05-18T06:50:01Z</time>
      </trkpt>
      <trkpt lat="43.802965991199017" lon="6.254379004240036">
        <ele>655.75999999999999</ele>
        <time>2025-05-18T06:50:02Z</time>
      </trkpt>
      <trkpt lat="43.802922992035747" lon="6.254364000633359">
        <ele>656.24000000000001</ele>
        <time>2025-05-18T06:50:03Z</time>
      </trkpt>
      <trkpt lat="43.802890973165631" lon="6.254353020340204">
        <ele>656.24000000000001</ele>
        <time>2025-05-18T06:50:04Z</time>
      </trkpt>
      <trkpt lat="43.802869012579322" lon="6.25434497371316">
        <ele>657.67999999999995</ele>
        <time>2025-05-18T06:50:13Z</time>
      </trkpt>
      <trkpt lat="43.802869012579322" lon="6.25434497371316">
        <ele>657.67999999999995</ele>
        <time>2025-05-18T06:50:45Z</time>
      </trkpt>
      <trkpt lat="43.802869012579322" lon="6.25434497371316">
        <ele>657.67999999999995</ele>
        <time>2025-05-18T06:51:23Z</time>
      </trkpt>
      <trkpt lat="43.802869012579322" lon="6.25434497371316">
        <ele>659.12</ele>
        <time>2025-05-18T06:52:20Z</time>
      </trkpt>
      <trkpt lat="43.802869012579322" lon="6.25434497371316">
        <ele>659.60000000000002</ele>
        <time>2025-05-18T06:53:07Z</time>
      </trkpt>
      <trkpt lat="43.802770022302866" lon="6.254311027005315">
        <ele>660.55999999999995</ele>
        <time>2025-05-18T06:53:08Z</time>
      </trkpt>
      <trkpt lat="43.802770022302866" lon="6.254311027005315">
        <ele>661.51999999999998</ele>
        <time>2025-05-18T06:53:09Z</time>
      </trkpt>
      <trkpt lat="43.802729034796357" lon="6.254315972328186">
        <ele>662.49000000000001</ele>
        <time>2025-05-18T06:53:10Z</time>
      </trkpt>
      <trkpt lat="43.80267396569252" lon="6.25432301312685">
        <ele>662.49000000000001</ele>
        <time>2025-05-18T06:53:11Z</time>
      </trkpt>
      <trkpt lat="43.802615040913224" lon="6.254329970106483">
        <ele>662.97000000000003</ele>
        <time>2025-05-18T06:53:12Z</time>
      </trkpt>
      <trkpt lat="43.802567012608051" lon="6.254362994804978">
        <ele>662.97000000000003</ele>
        <time>2025-05-18T06:53:13Z</time>
      </trkpt>
      <trkpt lat="43.80252099595964" lon="6.25440901145339">
        <ele>662.97000000000003</ele>
        <time>2025-05-18T06:53:14Z</time>
      </trkpt>
      <trkpt lat="43.802473973482847" lon="6.254456033930183">
        <ele>662.49000000000001</ele>
        <time>2025-05-18T06:53:15Z</time>
      </trkpt>
      <trkpt lat="43.802442960441113" lon="6.254497021436691">
        <ele>662.49000000000001</ele>
        <time>2025-05-18T06:53:16Z</time>
      </trkpt>
      <trkpt lat="43.802419994026423" lon="6.254577990621328">
        <ele>662.49000000000001</ele>
        <time>2025-05-18T06:53:17Z</time>
      </trkpt>
      <trkpt lat="43.802395015954971" lon="6.254659965634346">
        <ele>662.00999999999999</ele>
        <time>2025-05-18T06:53:18Z</time>
      </trkpt>
      <trkpt lat="43.802315974608064" lon="6.254926007241011">
        <ele>661.51999999999998</ele>
        <time>2025-05-18T06:53:21Z</time>
      </trkpt>
      <trkpt lat="43.802284961566329" lon="6.25503296032548">
        <ele>661.03999999999996</ele>
        <time>2025-05-18T06:53:22Z</time>
      </trkpt>
      <trkpt lat="43.802235005423427" lon="6.2551389914006">
        <ele>661.03999999999996</ele>
        <time>2025-05-18T06:53:23Z</time>
      </trkpt>
      <trkpt lat="43.802175996825099" lon="6.255248039960861">
        <ele>661.03999999999996</ele>
        <time>2025-05-18T06:53:24Z</time>
      </trkpt>
      <trkpt lat="43.802100978791714" lon="6.255360022187233">
        <ele>661.03999999999996</ele>
        <time>2025-05-18T06:53:25Z</time>
      </trkpt>
      <trkpt lat="43.802001988515258" lon="6.255435962229967">
        <ele>661.03999999999996</ele>
        <time>2025-05-18T06:53:26Z</time>
      </trkpt>
      <trkpt lat="43.80189897492528" lon="6.255515003576875">
        <ele>661.51999999999998</ele>
        <time>2025-05-18T06:53:27Z</time>
      </trkpt>
      <trkpt lat="43.801794033497572" lon="6.255595972761512">
        <ele>661.51999999999998</ele>
        <time>2025-05-18T06:53:28Z</time>
      </trkpt>
      <trkpt lat="43.801689008250833" lon="6.2556760199368">
        <ele>661.51999999999998</ele>
        <time>2025-05-18T06:53:29Z</time>
      </trkpt>
      <trkpt lat="43.801567973569036" lon="6.255769981071353">
        <ele>661.51999999999998</ele>
        <time>2025-05-18T06:53:30Z</time>
      </trkpt>
      <trkpt lat="43.801495973020792" lon="6.25587098300457">
        <ele>661.51999999999998</ele>
        <time>2025-05-18T06:53:31Z</time>
      </trkpt>
      <trkpt lat="43.801408968865871" lon="6.255996040999889">
        <ele>661.51999999999998</ele>
        <time>2025-05-18T06:53:32Z</time>
      </trkpt>
      <trkpt lat="43.801319031044841" lon="6.256123026832938">
        <ele>661.51999999999998</ele>
        <time>2025-05-18T06:53:33Z</time>
      </trkpt>
      <trkpt lat="43.801219034940004" lon="6.256234003230929">
        <ele>661.51999999999998</ele>
        <time>2025-05-18T06:53:34Z</time>
      </trkpt>
      <trkpt lat="43.800529958680272" lon="6.257087029516697">
        <ele>662.00999999999999</ele>
        <time>2025-05-18T06:53:41Z</time>
      </trkpt>
      <trkpt lat="43.800441026687622" lon="6.257175961509347">
        <ele>662.00999999999999</ele>
        <time>2025-05-18T06:53:42Z</time>
      </trkpt>
      <trkpt lat="43.800359973683953" lon="6.257257014513016">
        <ele>662.00999999999999</ele>
        <time>2025-05-18T06:53:43Z</time>
      </trkpt>
      <trkpt lat="43.800298031419516" lon="6.257319040596485">
        <ele>662.00999999999999</ele>
        <time>2025-05-18T06:53:44Z</time>
      </trkpt>
      <trkpt lat="43.800297025591135" lon="6.257392968982458">
        <ele>661.51999999999998</ele>
        <time>2025-05-18T06:53:45Z</time>
      </trkpt>
      <trkpt lat="43.800320997834206" lon="6.257478967308998">
        <ele>661.51999999999998</ele>
        <time>2025-05-18T06:53:46Z</time>
      </trkpt>
      <trkpt lat="43.80035100504756" lon="6.257580975070596">
        <ele>661.51999999999998</ele>
        <time>2025-05-18T06:53:47Z</time>
      </trkpt>
      <trkpt lat="43.800383023917675" lon="6.257694968953729">
        <ele>661.03999999999996</ele>
        <time>2025-05-18T06:53:48Z</time>
      </trkpt>
      <trkpt lat="43.800418982282281" lon="6.257796976715326">
        <ele>661.51999999999998</ele>
        <time>2025-05-18T06:53:49Z</time>
      </trkpt>
      <trkpt lat="43.800491988658905" lon="6.25786998309195">
        <ele>661.51999999999998</ele>
        <time>2025-05-18T06:53:50Z</time>
      </trkpt>
      <trkpt lat="43.800571030005813" lon="6.257949024438858">
        <ele>661.51999999999998</ele>
        <time>2025-05-18T06:53:51Z</time>
      </trkpt>
      <trkpt lat="43.800644958391786" lon="6.258023036643863">
        <ele>661.51999999999998</ele>
        <time>2025-05-18T06:53:52Z</time>
      </trkpt>
      <trkpt lat="43.800697010010481" lon="6.258153039962053">
        <ele>661.51999999999998</ele>
        <time>2025-05-18T06:53:53Z</time>
      </trkpt>
      <trkpt lat="43.800745038315654" lon="6.258270973339677">
        <ele>662.00999999999999</ele>
        <time>2025-05-18T06:53:54Z</time>
      </trkpt>
      <trkpt lat="43.800792982801795" lon="6.258393013849855">
        <ele>662.00999999999999</ele>
        <time>2025-05-18T06:53:55Z</time>
      </trkpt>
      <trkpt lat="43.800811003893614" lon="6.258539026603103">
        <ele>662.49000000000001</ele>
        <time>2025-05-18T06:53:56Z</time>
      </trkpt>
      <trkpt lat="43.800799017772079" lon="6.258694007992744">
        <ele>662.49000000000001</ele>
        <time>2025-05-18T06:53:57Z</time>
      </trkpt>
      <trkpt lat="43.800788037478924" lon="6.25885502435267">
        <ele>662.97000000000003</ele>
        <time>2025-05-18T06:53:58Z</time>
      </trkpt>
      <trkpt lat="43.800774961709976" lon="6.259026015177369">
        <ele>663.45000000000005</ele>
        <time>2025-05-18T06:53:59Z</time>
      </trkpt>
      <trkpt lat="43.800762975588441" lon="6.259197006002069">
        <ele>663.92999999999995</ele>
        <time>2025-05-18T06:54:00Z</time>
      </trkpt>
      <trkpt lat="43.800745960325003" lon="6.25935198739171">
        <ele>664.40999999999997</ele>
        <time>2025-05-18T06:54:01Z</time>
      </trkpt>
      <trkpt lat="43.800702039152384" lon="6.259484002366662">
        <ele>664.88999999999999</ele>
        <time>2025-05-18T06:54:02Z</time>
      </trkpt>
      <trkpt lat="43.80063297227025" lon="6.259612999856472">
        <ele>665.37</ele>
        <time>2025-05-18T06:54:03Z</time>
      </trkpt>
      <trkpt lat="43.800542028620839" lon="6.259677959606051">
        <ele>665.85000000000002</ele>
        <time>2025-05-18T06:54:04Z</time>
      </trkpt>
      <trkpt lat="43.800427028909326" lon="6.259696986526251">
        <ele>665.85000000000002</ele>
        <time>2025-05-18T06:54:05Z</time>
      </trkpt>
      <trkpt lat="43.800311023369431" lon="6.259696986526251">
        <ele>666.33000000000004</ele>
        <time>2025-05-18T06:54:06Z</time>
      </trkpt>
      <trkpt lat="43.800192000344396" lon="6.259696986526251">
        <ele>666.80999999999995</ele>
        <time>2025-05-18T06:54:07Z</time>
      </trkpt>
      <trkpt lat="43.800079012289643" lon="6.259696986526251">
        <ele>666.80999999999995</ele>
        <time>2025-05-18T06:54:08Z</time>
      </trkpt>
      <trkpt lat="43.799974992871284" lon="6.259696986526251">
        <ele>666.80999999999995</ele>
        <time>2025-05-18T06:54:09Z</time>
      </trkpt>
      <trkpt lat="43.799882037565112" lon="6.259696986526251">
        <ele>667.28999999999996</ele>
        <time>2025-05-18T06:54:10Z</time>
      </trkpt>
      <trkpt lat="43.799791010096669" lon="6.259669996798039">
        <ele>667.28999999999996</ele>
        <time>2025-05-18T06:54:11Z</time>
      </trkpt>
      <trkpt lat="43.799696965143085" lon="6.259628003463149">
        <ele>667.76999999999998</ele>
        <time>2025-05-18T06:54:12Z</time>
      </trkpt>
      <trkpt lat="43.799597974866629" lon="6.259585004299879">
        <ele>668.25</ele>
        <time>2025-05-18T06:54:13Z</time>
      </trkpt>
      <trkpt lat="43.79949496127665" lon="6.259539993479848">
        <ele>668.73000000000002</ele>
        <time>2025-05-18T06:54:14Z</time>
      </trkpt>
      <trkpt lat="43.799389014020562" lon="6.259492971003056">
        <ele>668.73000000000002</ele>
        <time>2025-05-18T06:54:15Z</time>
      </trkpt>
      <trkpt lat="43.799278037622571" lon="6.259472016245127">
        <ele>668.73000000000002</ele>
        <time>2025-05-18T06:54:16Z</time>
      </trkpt>
      <trkpt lat="43.799162032082677" lon="6.259508980438113">
        <ele>668.73000000000002</ele>
        <time>2025-05-18T06:54:17Z</time>
      </trkpt>
      <trkpt lat="43.799043009057641" lon="6.259547034278512">
        <ele>668.73000000000002</ele>
        <time>2025-05-18T06:54:18Z</time>
      </trkpt>
      <trkpt lat="43.798919962719083" lon="6.259585004299879">
        <ele>668.73000000000002</ele>
        <time>2025-05-18T06:54:19Z</time>
      </trkpt>
      <trkpt lat="43.798430040478706" lon="6.259752977639437">
        <ele>668.73000000000002</ele>
        <time>2025-05-18T06:54:23Z</time>
      </trkpt>
      <trkpt lat="43.798326021060348" lon="6.259837970137596">
        <ele>669.22000000000003</ele>
        <time>2025-05-18T06:54:24Z</time>
      </trkpt>
      <trkpt lat="43.798240022733808" lon="6.259946012869477">
        <ele>668.73000000000002</ele>
        <time>2025-05-18T06:54:25Z</time>
      </trkpt>
      <trkpt lat="43.798165004700422" lon="6.260064030066133">
        <ele>668.73000000000002</ele>
        <time>2025-05-18T06:54:26Z</time>
      </trkpt>
      <trkpt lat="43.798097027465701" lon="6.260195961222053">
        <ele>668.25</ele>
        <time>2025-05-18T06:54:27Z</time>
      </trkpt>
      <trkpt lat="43.798026032745838" lon="6.260333005338907">
        <ele>668.25</ele>
        <time>2025-05-18T06:54:28Z</time>
      </trkpt>
      <trkpt lat="43.797955038025975" lon="6.260470971465111">
        <ele>667.76999999999998</ele>
        <time>2025-05-18T06:54:29Z</time>
      </trkpt>
      <trkpt lat="43.797888988628983" lon="6.26059896312654">
        <ele>667.28999999999996</ele>
        <time>2025-05-18T06:54:30Z</time>
      </trkpt>
      <trkpt lat="43.797834003344178" lon="6.26070499420166">
        <ele>666.80999999999995</ele>
        <time>2025-05-18T06:54:31Z</time>
      </trkpt>
      <trkpt lat="43.797843977808952" lon="6.260807001963258">
        <ele>666.33000000000004</ele>
        <time>2025-05-18T06:54:32Z</time>
      </trkpt>
      <trkpt lat="43.797853030264378" lon="6.260909009724855">
        <ele>665.37</ele>
        <time>2025-05-18T06:54:33Z</time>
      </trkpt>
      <trkpt lat="43.797884965315461" lon="6.261000959202647">
        <ele>664.88999999999999</ele>
        <time>2025-05-18T06:54:34Z</time>
      </trkpt>
      <trkpt lat="43.797941962257028" lon="6.261118976399303">
        <ele>664.40999999999997</ele>
        <time>2025-05-18T06:54:35Z</time>
      </trkpt>
      <trkpt lat="43.798001976683736" lon="6.261245040223002">
        <ele>663.92999999999995</ele>
        <time>2025-05-18T06:54:36Z</time>
      </trkpt>
      <trkpt lat="43.798110019415617" lon="6.261469004675746">
        <ele>662.97000000000003</ele>
        <time>2025-05-18T06:54:38Z</time>
      </trkpt>
      <trkpt lat="43.798127034679055" lon="6.261573024094105">
        <ele>662.00999999999999</ele>
        <time>2025-05-18T06:54:39Z</time>
      </trkpt>
      <trkpt lat="43.798115970566869" lon="6.261651981621981">
        <ele>661.51999999999998</ele>
        <time>2025-05-18T06:54:40Z</time>
      </trkpt>
      <trkpt lat="43.798086969181895" lon="6.261722976341844">
        <ele>660.55999999999995</ele>
        <time>2025-05-18T06:54:41Z</time>
      </trkpt>
      <trkpt lat="43.798035001382232" lon="6.261809980496764">
        <ele>660.08000000000004</ele>
        <time>2025-05-18T06:54:42Z</time>
      </trkpt>
      <trkpt lat="43.797950008884072" lon="6.261877035722137">
        <ele>659.12</ele>
        <time>2025-05-18T06:54:43Z</time>
      </trkpt>
      <trkpt lat="43.797749010846019" lon="6.26203503459692">
        <ele>658.63999999999999</ele>
        <time>2025-05-18T06:54:45Z</time>
      </trkpt>
      <trkpt lat="43.797663012519479" lon="6.262133019044995">
        <ele>658.15999999999997</ele>
        <time>2025-05-18T06:54:46Z</time>
      </trkpt>
      <trkpt lat="43.797467965632677" lon="6.262353966012597">
        <ele>658.15999999999997</ele>
        <time>2025-05-18T06:54:48Z</time>
      </trkpt>
      <trkpt lat="43.797362018376589" lon="6.262441975995898">
        <ele>658.15999999999997</ele>
        <time>2025-05-18T06:54:49Z</time>
      </trkpt>
      <trkpt lat="43.797247018665075" lon="6.262516994029284">
        <ele>658.15999999999997</ele>
        <time>2025-05-18T06:54:50Z</time>
      </trkpt>
      <trkpt lat="43.797135036438704" lon="6.262588994577527">
        <ele>658.15999999999997</ele>
        <time>2025-05-18T06:54:51Z</time>
      </trkpt>
      <trkpt lat="43.797023976221681" lon="6.262673987075687">
        <ele>658.15999999999997</ele>
        <time>2025-05-18T06:54:52Z</time>
      </trkpt>
      <trkpt lat="43.796924985945225" lon="6.262772977352142">
        <ele>658.15999999999997</ele>
        <time>2025-05-18T06:54:53Z</time>
      </trkpt>
      <trkpt lat="43.796722982078791" lon="6.262944974005222">
        <ele>658.15999999999997</ele>
        <time>2025-05-18T06:54:55Z</time>
      </trkpt>
      <trkpt lat="43.796599013730884" lon="6.262971041724086">
        <ele>658.15999999999997</ele>
        <time>2025-05-18T06:54:56Z</time>
      </trkpt>
      <trkpt lat="43.796470016241074" lon="6.262999037280679">
        <ele>658.15999999999997</ele>
        <time>2025-05-18T06:54:57Z</time>
      </trkpt>
      <trkpt lat="43.796339007094502" lon="6.263068020343781">
        <ele>657.67999999999995</ele>
        <time>2025-05-18T06:54:58Z</time>
      </trkpt>
      <trkpt lat="43.796210009604692" lon="6.263138009235263">
        <ele>657.67999999999995</ele>
        <time>2025-05-18T06:54:59Z</time>
      </trkpt>
      <trkpt lat="43.796081012114882" lon="6.263207998126745">
        <ele>657.20000000000005</ele>
        <time>2025-05-18T06:55:00Z</time>
      </trkpt>
      <trkpt lat="43.79594799131155" lon="6.26326197758317">
        <ele>657.20000000000005</ele>
        <time>2025-05-18T06:55:01Z</time>
      </trkpt>
      <trkpt lat="43.795809019356966" lon="6.263273041695356">
        <ele>657.20000000000005</ele>
        <time>2025-05-18T06:55:02Z</time>
      </trkpt>
      <trkpt lat="43.795668035745621" lon="6.263255020603538">
        <ele>657.20000000000005</ele>
        <time>2025-05-18T06:55:03Z</time>
      </trkpt>
      <trkpt lat="43.795536020770669" lon="6.263201963156462">
        <ele>657.20000000000005</ele>
        <time>2025-05-18T06:55:04Z</time>
      </trkpt>
      <trkpt lat="43.795410040766001" lon="6.263151001185179">
        <ele>657.20000000000005</ele>
        <time>2025-05-18T06:55:05Z</time>
      </trkpt>
      <trkpt lat="43.7953220307827" lon="6.263032983988524">
        <ele>657.67999999999995</ele>
        <time>2025-05-18T06:55:06Z</time>
      </trkpt>
      <trkpt lat="43.79523896612227" lon="6.262921001762152">
        <ele>657.67999999999995</ele>
        <time>2025-05-18T06:55:07Z</time>
      </trkpt>
      <trkpt lat="43.795157996937633" lon="6.262811031192541">
        <ele>657.67999999999995</ele>
        <time>2025-05-18T06:55:08Z</time>
      </trkpt>
      <trkpt lat="43.795079039409757" lon="6.26270298846066">
        <ele>657.67999999999995</ele>
        <time>2025-05-18T06:55:09Z</time>
      </trkpt>
      <trkpt lat="43.794989017769694" lon="6.262627970427275">
        <ele>657.67999999999995</ele>
        <time>2025-05-18T06:55:10Z</time>
      </trkpt>
      <trkpt lat="43.794890027493238" lon="6.26257399097085">
        <ele>657.20000000000005</ele>
        <time>2025-05-18T06:55:11Z</time>
      </trkpt>
      <trkpt lat="43.794799000024796" lon="6.262525040656328">
        <ele>657.20000000000005</ele>
        <time>2025-05-18T06:55:12Z</time>
      </trkpt>
      <trkpt lat="43.794721970334649" lon="6.262539038434625">
        <ele>657.20000000000005</ele>
        <time>2025-05-18T06:55:13Z</time>
      </trkpt>
      <trkpt lat="43.794650975614786" lon="6.262588994577527">
        <ele>656.72000000000003</ele>
        <time>2025-05-18T06:55:14Z</time>
      </trkpt>
      <trkpt lat="43.794600013643503" lon="6.262657977640629">
        <ele>656.72000000000003</ele>
        <time>2025-05-18T06:55:15Z</time>
      </trkpt>
      <trkpt lat="43.794559026136994" lon="6.262772977352142">
        <ele>656.24000000000001</ele>
        <time>2025-05-18T06:55:16Z</time>
      </trkpt>
      <trkpt lat="43.794512003660202" lon="6.262901974841952">
        <ele>656.24000000000001</ele>
        <time>2025-05-18T06:55:17Z</time>
      </trkpt>
      <trkpt lat="43.794460035860538" lon="6.263047987595201">
        <ele>655.75999999999999</ele>
        <time>2025-05-18T06:55:18Z</time>
      </trkpt>
      <trkpt lat="43.794391974806786" lon="6.263203974813223">
        <ele>655.75999999999999</ele>
        <time>2025-05-18T06:55:19Z</time>
      </trkpt>
      <trkpt lat="43.794302958995104" lon="6.263356022536755">
        <ele>655.75999999999999</ele>
        <time>2025-05-18T06:55:20Z</time>
      </trkpt>
      <trkpt lat="43.793978998437524" lon="6.264015007764101">
        <ele>656.72000000000003</ele>
        <time>2025-05-18T06:55:24Z</time>
      </trkpt>
      <trkpt lat="43.793928036466241" lon="6.264172000810504">
        <ele>657.20000000000005</ele>
        <time>2025-05-18T06:55:25Z</time>
      </trkpt>
      <trkpt lat="43.793831979855895" lon="6.264468971639872">
        <ele>658.15999999999997</ele>
        <time>2025-05-18T06:55:27Z</time>
      </trkpt>
      <trkpt lat="43.793779006227851" lon="6.264631999656558">
        <ele>659.12</ele>
        <time>2025-05-18T06:55:28Z</time>
      </trkpt>
      <trkpt lat="43.793683033436537" lon="6.264711041003466">
        <ele>659.60000000000002</ele>
        <time>2025-05-18T06:55:29Z</time>
      </trkpt>
      <trkpt lat="43.793574990704656" lon="6.264801984652877">
        <ele>660.55999999999995</ele>
        <time>2025-05-18T06:55:30Z</time>
      </trkpt>
      <trkpt lat="43.793464014306664" lon="6.264895023778081">
        <ele>661.51999999999998</ele>
        <time>2025-05-18T06:55:31Z</time>
      </trkpt>
      <trkpt lat="43.793353037908673" lon="6.264986973255873">
        <ele>662.00999999999999</ele>
        <time>2025-05-18T06:55:32Z</time>
      </trkpt>
      <trkpt lat="43.793235020712018" lon="6.265067020431161">
        <ele>662.97000000000003</ele>
        <time>2025-05-18T06:55:33Z</time>
      </trkpt>
      <trkpt lat="43.79311298020184" lon="6.265091998502612">
        <ele>663.45000000000005</ele>
        <time>2025-05-18T06:55:34Z</time>
      </trkpt>
      <trkpt lat="43.792881974950433" lon="6.265140026807785">
        <ele>664.88999999999999</ele>
        <time>2025-05-18T06:55:36Z</time>
      </trkpt>
      <trkpt lat="43.792644012719393" lon="6.265188977122307">
        <ele>665.85000000000002</ele>
        <time>2025-05-18T06:55:38Z</time>
      </trkpt>
      <trkpt lat="43.792525995522738" lon="6.265184031799436">
        <ele>666.33000000000004</ele>
        <time>2025-05-18T06:55:39Z</time>
      </trkpt>
      <trkpt lat="43.79190900363028" lon="6.26515100710094">
        <ele>668.73000000000002</ele>
        <time>2025-05-18T06:55:44Z</time>
      </trkpt>
      <trkpt lat="43.791785035282373" lon="6.265159975737333">
        <ele>669.22000000000003</ele>
        <time>2025-05-18T06:55:45Z</time>
      </trkpt>
      <trkpt lat="43.791552018374205" lon="6.265231976285577">
        <ele>670.65999999999997</ele>
        <time>2025-05-18T06:55:47Z</time>
      </trkpt>
      <trkpt lat="43.791440036147833" lon="6.26523801125586">
        <ele>671.62</ele>
        <time>2025-05-18T06:55:48Z</time>
      </trkpt>
      <trkpt lat="43.791327970102429" lon="6.265196017920971">
        <ele>672.10000000000002</ele>
        <time>2025-05-18T06:55:49Z</time>
      </trkpt>
      <trkpt lat="43.790874006226659" lon="6.265026032924652">
        <ele>674.98000000000002</ele>
        <time>2025-05-18T06:55:53Z</time>
      </trkpt>
      <trkpt lat="43.790771998465061" lon="6.265008011832833">
        <ele>675.46000000000004</ele>
        <time>2025-05-18T06:55:54Z</time>
      </trkpt>
      <trkpt lat="43.790678959339857" lon="6.265051010996103">
        <ele>675.94000000000005</ele>
        <time>2025-05-18T06:55:55Z</time>
      </trkpt>
      <trkpt lat="43.790579969063401" lon="6.265097027644515">
        <ele>676.41999999999996</ele>
        <time>2025-05-18T06:55:56Z</time>
      </trkpt>
      <trkpt lat="43.790478967130184" lon="6.265143966302276">
        <ele>676.90999999999997</ele>
        <time>2025-05-18T06:55:57Z</time>
      </trkpt>
      <trkpt lat="43.790385005995631" lon="6.265186965465546">
        <ele>677.38999999999999</ele>
        <time>2025-05-18T06:55:58Z</time>
      </trkpt>
      <trkpt lat="43.790298001840711" lon="6.265228036791086">
        <ele>678.35000000000002</ele>
        <time>2025-05-18T06:55:59Z</time>
      </trkpt>
      <trkpt lat="43.790214015170932" lon="6.265267012640834">
        <ele>679.30999999999995</ele>
        <time>2025-05-18T06:56:00Z</time>
      </trkpt>
      <trkpt lat="43.789951996877789" lon="6.265286039561033">
        <ele>680.75</ele>
        <time>2025-05-18T06:56:03Z</time>
      </trkpt>
      <trkpt lat="43.789869016036391" lon="6.265289979055524">
        <ele>681.71000000000004</ele>
        <time>2025-05-18T06:56:04Z</time>
      </trkpt>
      <trkpt lat="43.789629964157939" lon="6.265310011804104">
        <ele>683.63</ele>
        <time>2025-05-18T06:56:07Z</time>
      </trkpt>
      <trkpt lat="43.789548994973302" lon="6.265325015410781">
        <ele>683.63</ele>
        <time>2025-05-18T06:56:08Z</time>
      </trkpt>
      <trkpt lat="43.789466014131904" lon="6.265340019017458">
        <ele>684.60000000000002</ele>
        <time>2025-05-18T06:56:09Z</time>
      </trkpt>
      <trkpt lat="43.789395019412041" lon="6.265411013737321">
        <ele>684.60000000000002</ele>
        <time>2025-05-18T06:56:10Z</time>
      </trkpt>
      <trkpt lat="43.789321007207036" lon="6.265484020113945">
        <ele>685.08000000000004</ele>
        <time>2025-05-18T06:56:11Z</time>
      </trkpt>
      <trkpt lat="43.789273984730244" lon="6.265598013997078">
        <ele>685.08000000000004</ele>
        <time>2025-05-18T06:56:12Z</time>
      </trkpt>
      <trkpt lat="43.789227968081832" lon="6.265716031193733">
        <ele>685.55999999999995</ele>
        <time>2025-05-18T06:56:13Z</time>
      </trkpt>
      <trkpt lat="43.789182035252452" lon="6.265834970399737">
        <ele>686.03999999999996</ele>
        <time>2025-05-18T06:56:14Z</time>
      </trkpt>
      <trkpt lat="43.789151022210717" lon="6.26594896428287">
        <ele>686.51999999999998</ele>
        <time>2025-05-18T06:56:15Z</time>
      </trkpt>
      <trkpt lat="43.789127971976995" lon="6.266073016449809">
        <ele>687</ele>
        <time>2025-05-18T06:56:16Z</time>
      </trkpt>
      <trkpt lat="43.789103999733925" lon="6.266194973140955">
        <ele>687.48000000000002</ele>
        <time>2025-05-18T06:56:17Z</time>
      </trkpt>
      <trkpt lat="43.789080027490854" lon="6.266319025307894">
        <ele>688.44000000000005</ele>
        <time>2025-05-18T06:56:18Z</time>
      </trkpt>
      <trkpt lat="43.789057983085513" lon="6.266434025019407">
        <ele>688.91999999999996</ele>
        <time>2025-05-18T06:56:19Z</time>
      </trkpt>
      <trkpt lat="43.788989000022411" lon="6.266503008082509">
        <ele>689.39999999999998</ele>
        <time>2025-05-18T06:56:20Z</time>
      </trkpt>
      <trkpt lat="43.788916999474168" lon="6.266575008630753">
        <ele>689.88</ele>
        <time>2025-05-18T06:56:21Z</time>
      </trkpt>
      <trkpt lat="43.788843993097544" lon="6.266623958945274">
        <ele>690.36000000000001</ele>
        <time>2025-05-18T06:56:22Z</time>
      </trkpt>
      <trkpt lat="43.788751037791371" lon="6.266610966995359">
        <ele>690.84000000000003</ele>
        <time>2025-05-18T06:56:23Z</time>
      </trkpt>
      <trkpt lat="43.788653975352645" lon="6.266596969217062">
        <ele>691.80999999999995</ele>
        <time>2025-05-18T06:56:24Z</time>
      </trkpt>
      <trkpt lat="43.788554985076189" lon="6.266580959782004">
        <ele>692.76999999999998</ele>
        <time>2025-05-18T06:56:25Z</time>
      </trkpt>
      <trkpt lat="43.788044024258852" lon="6.266396977007389">
        <ele>695.16999999999996</ele>
        <time>2025-05-18T06:56:30Z</time>
      </trkpt>
      <trkpt lat="43.787957020103931" lon="6.266339980065823">
        <ele>695.64999999999998</ele>
        <time>2025-05-18T06:56:31Z</time>
      </trkpt>
      <trkpt lat="43.787786029279232" lon="6.266219029203057">
        <ele>697.09000000000003</ele>
        <time>2025-05-18T06:56:33Z</time>
      </trkpt>
      <trkpt lat="43.787710005417466" lon="6.266149962320924">
        <ele>697.57000000000005</ele>
        <time>2025-05-18T06:56:34Z</time>
      </trkpt>
      <trkpt lat="43.787650996819139" lon="6.266062036156654">
        <ele>698.04999999999995</ele>
        <time>2025-05-18T06:56:35Z</time>
      </trkpt>
      <trkpt lat="43.787597017362714" lon="6.265979977324605">
        <ele>698.52999999999997</ele>
        <time>2025-05-18T06:56:36Z</time>
      </trkpt>
      <trkpt lat="43.787551000714302" lon="6.265912000089884">
        <ele>699.01999999999998</ele>
        <time>2025-05-18T06:56:37Z</time>
      </trkpt>
      <trkpt lat="43.787514958530664" lon="6.265858020633459">
        <ele>699.5</ele>
        <time>2025-05-18T06:56:38Z</time>
      </trkpt>
      <trkpt lat="43.787470031529665" lon="6.265790965408087">
        <ele>699.98000000000002</ele>
        <time>2025-05-18T06:56:39Z</time>
      </trkpt>
      <trkpt lat="43.787440024316311" lon="6.265786020085216">
        <ele>700.46000000000004</ele>
        <time>2025-05-18T06:56:40Z</time>
      </trkpt>
      <trkpt lat="43.787385039031506" lon="6.26577596180141">
        <ele>700.94000000000005</ele>
        <time>2025-05-18T06:56:41Z</time>
      </trkpt>
      <trkpt lat="43.787315972149372" lon="6.26577696762979">
        <ele>701.41999999999996</ele>
        <time>2025-05-18T06:56:42Z</time>
      </trkpt>
      <trkpt lat="43.787241959944367" lon="6.265798006206751">
        <ele>701.89999999999998</ele>
        <time>2025-05-18T06:56:43Z</time>
      </trkpt>
      <trkpt lat="43.787161996588111" lon="6.265821978449822">
        <ele>702.38</ele>
        <time>2025-05-18T06:56:44Z</time>
      </trkpt>
      <trkpt lat="43.787071974948049" lon="6.265847962349653">
        <ele>703.34000000000003</ele>
        <time>2025-05-18T06:56:45Z</time>
      </trkpt>
      <trkpt lat="43.786786990240216" lon="6.26601099036634">
        <ele>704.77999999999997</ele>
        <time>2025-05-18T06:56:48Z</time>
      </trkpt>
      <trkpt lat="43.785961037501693" lon="6.26671900972724">
        <ele>709.11000000000001</ele>
        <time>2025-05-18T06:56:56Z</time>
      </trkpt>
      <trkpt lat="43.78584997728467" lon="6.266753040254116">
        <ele>709.11000000000001</ele>
        <time>2025-05-18T06:56:57Z</time>
      </trkpt>
      <trkpt lat="43.785745035856962" lon="6.266749016940594">
        <ele>709.11000000000001</ele>
        <time>2025-05-18T06:56:58Z</time>
      </trkpt>
      <trkpt lat="43.785543031990528" lon="6.266739964485169">
        <ele>709.11000000000001</ele>
        <time>2025-05-18T06:57:00Z</time>
      </trkpt>
      <trkpt lat="43.785449992865324" lon="6.266736024990678">
        <ele>709.59000000000003</ele>
        <time>2025-05-18T06:57:01Z</time>
      </trkpt>
      <trkpt lat="43.78535502590239" lon="6.266766032204032">
        <ele>709.59000000000003</ele>
        <time>2025-05-18T06:57:02Z</time>
      </trkpt>
      <trkpt lat="43.785259975120425" lon="6.266821017488837">
        <ele>710.07000000000005</ele>
        <time>2025-05-18T06:57:03Z</time>
      </trkpt>
      <trkpt lat="43.785170959308743" lon="6.266899975016713">
        <ele>710.07000000000005</ele>
        <time>2025-05-18T06:57:04Z</time>
      </trkpt>
      <trkpt lat="43.785076998174191" lon="6.266983961686492">
        <ele>710.54999999999995</ele>
        <time>2025-05-18T06:57:05Z</time>
      </trkpt>
      <trkpt lat="43.784454977139831" lon="6.267541022971273">
        <ele>714.39999999999998</ele>
        <time>2025-05-18T06:57:12Z</time>
      </trkpt>
      <trkpt lat="43.784412983804941" lon="6.26762299798429">
        <ele>714.88</ele>
        <time>2025-05-18T06:57:13Z</time>
      </trkpt>
      <trkpt lat="43.784379959106445" lon="6.267700027674437">
        <ele>714.88</ele>
        <time>2025-05-18T06:57:14Z</time>
      </trkpt>
      <trkpt lat="43.784370990470052" lon="6.267788959667087">
        <ele>715.84000000000003</ele>
        <time>2025-05-18T06:57:15Z</time>
      </trkpt>
      <trkpt lat="43.784360010176897" lon="6.267881998792291">
        <ele>716.79999999999995</ele>
        <time>2025-05-18T06:57:16Z</time>
      </trkpt>
      <trkpt lat="43.784349029883742" lon="6.267983000725508">
        <ele>717.27999999999997</ele>
        <time>2025-05-18T06:57:17Z</time>
      </trkpt>
      <trkpt lat="43.784323967993259" lon="6.269135009497404">
        <ele>720.64999999999998</ele>
        <time>2025-05-18T06:57:25Z</time>
      </trkpt>
      <trkpt lat="43.784563019871712" lon="6.270658001303673">
        <ele>724.00999999999999</ele>
        <time>2025-05-18T06:57:33Z</time>
      </trkpt>
      <trkpt lat="43.78458296880126" lon="6.270831003785133">
        <ele>724.00999999999999</ele>
        <time>2025-05-18T06:57:34Z</time>
      </trkpt>
      <trkpt lat="43.784591015428305" lon="6.27099797129631">
        <ele>724.49000000000001</ele>
        <time>2025-05-18T06:57:35Z</time>
      </trkpt>
      <trkpt lat="43.784550027921796" lon="6.271155970171094">
        <ele>724.49000000000001</ele>
        <time>2025-05-18T06:57:36Z</time>
      </trkpt>
      <trkpt lat="43.784506022930145" lon="6.271325033158064">
        <ele>724.97000000000003</ele>
        <time>2025-05-18T06:57:37Z</time>
      </trkpt>
      <trkpt lat="43.784466041252017" lon="6.271504992619157">
        <ele>724.97000000000003</ele>
        <time>2025-05-18T06:57:38Z</time>
      </trkpt>
      <trkpt lat="43.784466041252017" lon="6.271692998707295">
        <ele>724.97000000000003</ele>
        <time>2025-05-18T06:57:39Z</time>
      </trkpt>
      <trkpt lat="43.784466041252017" lon="6.271885028108954">
        <ele>725.45000000000005</ele>
        <time>2025-05-18T06:57:40Z</time>
      </trkpt>
      <trkpt lat="43.784466041252017" lon="6.272057024762034">
        <ele>724.97000000000003</ele>
        <time>2025-05-18T06:57:41Z</time>
      </trkpt>
      <trkpt lat="43.784466041252017" lon="6.272208988666534">
        <ele>724.97000000000003</ele>
        <time>2025-05-18T06:57:42Z</time>
      </trkpt>
      <trkpt lat="43.784466041252017" lon="6.27234703861177">
        <ele>724.49000000000001</ele>
        <time>2025-05-18T06:57:43Z</time>
      </trkpt>
      <trkpt lat="43.784460006281734" lon="6.272471006959677">
        <ele>724.49000000000001</ele>
        <time>2025-05-18T06:57:44Z</time>
      </trkpt>
      <trkpt lat="43.78438800573349" lon="6.272555999457836">
        <ele>724.49000000000001</ele>
        <time>2025-05-18T06:57:45Z</time>
      </trkpt>
      <trkpt lat="43.78430200740695" lon="6.272657001391053">
        <ele>724.49000000000001</ele>
        <time>2025-05-18T06:57:46Z</time>
      </trkpt>
      <trkpt lat="43.784203017130494" lon="6.272773006930947">
        <ele>724.97000000000003</ele>
        <time>2025-05-18T06:57:47Z</time>
      </trkpt>
      <trkpt lat="43.784095980226994" lon="6.272900998592377">
        <ele>724.97000000000003</ele>
        <time>2025-05-18T06:57:48Z</time>
      </trkpt>
      <trkpt lat="43.783997995778918" lon="6.273056985810399">
        <ele>725.45000000000005</ele>
        <time>2025-05-18T06:57:49Z</time>
      </trkpt>
      <trkpt lat="43.783712005242705" lon="6.273512961342931">
        <ele>728.34000000000003</ele>
        <time>2025-05-18T06:57:52Z</time>
      </trkpt>
      <trkpt lat="43.783629024401307" lon="6.273643970489502">
        <ele>729.29999999999995</ele>
        <time>2025-05-18T06:57:53Z</time>
      </trkpt>
      <trkpt lat="43.783583007752895" lon="6.273811021819711">
        <ele>730.25999999999999</ele>
        <time>2025-05-18T06:57:54Z</time>
      </trkpt>
      <trkpt lat="43.783535985276103" lon="6.273977989330888">
        <ele>731.22000000000003</ele>
        <time>2025-05-18T06:57:55Z</time>
      </trkpt>
      <trkpt lat="43.783478988334537" lon="6.274179993197322">
        <ele>732.17999999999995</ele>
        <time>2025-05-18T06:57:56Z</time>
      </trkpt>
      <trkpt lat="43.783457027748227" lon="6.274349978193641">
        <ele>733.13999999999999</ele>
        <time>2025-05-18T06:57:57Z</time>
      </trkpt>
      <trkpt lat="43.783393995836377" lon="6.274749040603638">
        <ele>735.07000000000005</ele>
        <time>2025-05-18T06:57:59Z</time>
      </trkpt>
      <trkpt lat="43.783350996673107" lon="6.274909973144531">
        <ele>736.02999999999997</ele>
        <time>2025-05-18T06:58:00Z</time>
      </trkpt>
      <trkpt lat="43.783240020275116" lon="6.27507995814085">
        <ele>737.47000000000003</ele>
        <time>2025-05-18T06:58:01Z</time>
      </trkpt>
      <trkpt lat="43.78314396366477" lon="6.275225970894098">
        <ele>738.42999999999995</ele>
        <time>2025-05-18T06:58:02Z</time>
      </trkpt>
      <trkpt lat="43.783051008358598" lon="6.275367960333824">
        <ele>739.38999999999999</ele>
        <time>2025-05-18T06:58:03Z</time>
      </trkpt>
      <trkpt lat="43.78296903334558" lon="6.275511961430311">
        <ele>740.83000000000004</ele>
        <time>2025-05-18T06:58:04Z</time>
      </trkpt>
      <trkpt lat="43.782903989776969" lon="6.275682030245662">
        <ele>741.30999999999995</ele>
        <time>2025-05-18T06:58:05Z</time>
      </trkpt>
      <trkpt lat="43.78283903002739" lon="6.275852015241981">
        <ele>741.78999999999996</ele>
        <time>2025-05-18T06:58:06Z</time>
      </trkpt>
      <trkpt lat="43.782793013378978" lon="6.276042032986879">
        <ele>742.75999999999999</ele>
        <time>2025-05-18T06:58:07Z</time>
      </trkpt>
      <trkpt lat="43.782757977023721" lon="6.276236996054649">
        <ele>742.75999999999999</ele>
        <time>2025-05-18T06:58:08Z</time>
      </trkpt>
      <trkpt lat="43.782693017274141" lon="6.276607979089022">
        <ele>743.72000000000003</ele>
        <time>2025-05-18T06:58:10Z</time>
      </trkpt>
      <trkpt lat="43.78266703337431" lon="6.276761032640934">
        <ele>744.20000000000005</ele>
        <time>2025-05-18T06:58:11Z</time>
      </trkpt>
      <trkpt lat="43.782577011734247" lon="6.276863040402532">
        <ele>744.67999999999995</ele>
        <time>2025-05-18T06:58:12Z</time>
      </trkpt>
      <trkpt lat="43.78249503672123" lon="6.276935040950775">
        <ele>745.63999999999999</ele>
        <time>2025-05-18T06:58:13Z</time>
      </trkpt>
      <trkpt lat="43.782399985939264" lon="6.276977034285665">
        <ele>746.60000000000002</ele>
        <time>2025-05-18T06:58:14Z</time>
      </trkpt>
      <trkpt lat="43.782293032854795" lon="6.277023972943425">
        <ele>747.55999999999995</ele>
        <time>2025-05-18T06:58:15Z</time>
      </trkpt>
      <trkpt lat="43.782189013436437" lon="6.277068983763456">
        <ele>748.51999999999998</ele>
        <time>2025-05-18T06:58:16Z</time>
      </trkpt>
      <trkpt lat="43.782121958211064" lon="6.277159005403519">
        <ele>749.49000000000001</ele>
        <time>2025-05-18T06:58:17Z</time>
      </trkpt>
      <trkpt lat="43.782041994854808" lon="6.277294037863612">
        <ele>750.45000000000005</ele>
        <time>2025-05-18T06:58:18Z</time>
      </trkpt>
      <trkpt lat="43.781954990699887" lon="6.277438960969448">
        <ele>751.40999999999997</ele>
        <time>2025-05-18T06:58:19Z</time>
      </trkpt>
      <trkpt lat="43.781860023736954" lon="6.277598971500993">
        <ele>752.37</ele>
        <time>2025-05-18T06:58:20Z</time>
      </trkpt>
      <trkpt lat="43.781756004318595" lon="6.277772979810834">
        <ele>753.80999999999995</ele>
        <time>2025-05-18T06:58:21Z</time>
      </trkpt>
      <trkpt lat="43.781236996874213" lon="6.278663976117969">
        <ele>761.5</ele>
        <time>2025-05-18T06:58:26Z</time>
      </trkpt>
      <trkpt lat="43.781062988564372" lon="6.278930017724633">
        <ele>763.89999999999998</ele>
        <time>2025-05-18T06:58:28Z</time>
      </trkpt>
      <trkpt lat="43.780985958874226" lon="6.279077958315611">
        <ele>765.35000000000002</ele>
        <time>2025-05-18T06:58:29Z</time>
      </trkpt>
      <trkpt lat="43.780937008559704" lon="6.279256995767355">
        <ele>766.30999999999995</ele>
        <time>2025-05-18T06:58:30Z</time>
      </trkpt>
      <trkpt lat="43.780912030488253" lon="6.279448019340634">
        <ele>767.75</ele>
        <time>2025-05-18T06:58:31Z</time>
      </trkpt>
      <trkpt lat="43.78088797442615" lon="6.279634013772011">
        <ele>768.71000000000004</ele>
        <time>2025-05-18T06:58:32Z</time>
      </trkpt>
      <trkpt lat="43.780866013839841" lon="6.279800981283188">
        <ele>770.14999999999998</ele>
        <time>2025-05-18T06:58:33Z</time>
      </trkpt>
      <trkpt lat="43.780845981091261" lon="6.279945988208056">
        <ele>771.11000000000001</ele>
        <time>2025-05-18T06:58:34Z</time>
      </trkpt>
      <trkpt lat="43.78079803660512" lon="6.280049001798034">
        <ele>772.08000000000004</ele>
        <time>2025-05-18T06:58:35Z</time>
      </trkpt>
      <trkpt lat="43.780737016350031" lon="6.28012896515429">
        <ele>773.03999999999996</ele>
        <time>2025-05-18T06:58:36Z</time>
      </trkpt>
      <trkpt lat="43.780675996094942" lon="6.280209012329578">
        <ele>774</ele>
        <time>2025-05-18T06:58:37Z</time>
      </trkpt>
      <trkpt lat="43.780609024688601" lon="6.280284030362964">
        <ele>775.44000000000005</ele>
        <time>2025-05-18T06:58:38Z</time>
      </trkpt>
      <trkpt lat="43.780535012483597" lon="6.280329963192344">
        <ele>777.36000000000001</ele>
        <time>2025-05-18T06:58:39Z</time>
      </trkpt>
      <trkpt lat="43.77974602393806" lon="6.280786022543907">
        <ele>787.46000000000004</ele>
        <time>2025-05-18T06:58:49Z</time>
      </trkpt>
      <trkpt lat="43.779493980109692" lon="6.280889036133885">
        <ele>789.38</ele>
        <time>2025-05-18T06:58:51Z</time>
      </trkpt>
      <trkpt lat="43.779360959306359" lon="6.28094301559031">
        <ele>790.34000000000003</ele>
        <time>2025-05-18T06:58:52Z</time>
      </trkpt>
      <trkpt lat="43.779237996786833" lon="6.281031025573611">
        <ele>791.29999999999995</ele>
        <time>2025-05-18T06:58:53Z</time>
      </trkpt>
      <trkpt lat="43.779114028438926" lon="6.281140996143222">
        <ele>792.25999999999999</ele>
        <time>2025-05-18T06:58:54Z</time>
      </trkpt>
      <trkpt lat="43.778987964615226" lon="6.281252978369594">
        <ele>793.71000000000004</ele>
        <time>2025-05-18T06:58:55Z</time>
      </trkpt>
      <trkpt lat="43.778593009337783" lon="6.281564030796289">
        <ele>796.59000000000003</ele>
        <time>2025-05-18T06:58:58Z</time>
      </trkpt>
      <trkpt lat="43.77768499776721" lon="6.282013971358538">
        <ele>802.36000000000001</ele>
        <time>2025-05-18T06:59:04Z</time>
      </trkpt>
      <trkpt lat="43.777520963922143" lon="6.282026963308454">
        <ele>803.32000000000005</ele>
        <time>2025-05-18T06:59:05Z</time>
      </trkpt>
      <trkpt lat="43.77639401704073" lon="6.282117990776897">
        <ele>809.57000000000005</ele>
        <time>2025-05-18T06:59:13Z</time>
      </trkpt>
      <trkpt lat="43.776178015395999" lon="6.282143974676728">
        <ele>811.97000000000003</ele>
        <time>2025-05-18T06:59:16Z</time>
      </trkpt>
      <trkpt lat="43.776134010404348" lon="6.282150009647012">
        <ele>812.45000000000005</ele>
        <time>2025-05-18T06:59:17Z</time>
      </trkpt>
      <trkpt lat="43.776105009019375" lon="6.282154032960534">
        <ele>813.40999999999997</ele>
        <time>2025-05-18T06:59:18Z</time>
      </trkpt>
      <trkpt lat="43.776083970442414" lon="6.282155960798264">
        <ele>813.88999999999999</ele>
        <time>2025-05-18T06:59:19Z</time>
      </trkpt>
      <trkpt lat="43.776083970442414" lon="6.282155960798264">
        <ele>814.37</ele>
        <time>2025-05-18T06:59:20Z</time>
      </trkpt>
      <trkpt lat="43.776024961844087" lon="6.282186973839998">
        <ele>815.82000000000005</ele>
        <time>2025-05-18T06:59:29Z</time>
      </trkpt>
      <trkpt lat="43.775998977944255" lon="6.282267021015286">
        <ele>816.77999999999997</ele>
        <time>2025-05-18T06:59:39Z</time>
      </trkpt>
      <trkpt lat="43.775837039574981" lon="6.282048001885414">
        <ele>753.33000000000004</ele>
        <time>2025-05-18T07:11:35Z</time>
      </trkpt>
      <trkpt lat="43.775926977396011" lon="6.282190997153521">
        <ele>815.82000000000005</ele>
        <time>2025-05-18T07:12:03Z</time>
      </trkpt>
      <trkpt lat="43.775923037901521" lon="6.282203989103437">
        <ele>815.34000000000003</ele>
        <time>2025-05-18T07:12:15Z</time>
      </trkpt>
      <trkpt lat="43.775991015136242" lon="6.282290993258357">
        <ele>814.85000000000002</ele>
        <time>2025-05-18T07:12:17Z</time>
      </trkpt>
      <trkpt lat="43.775991015136242" lon="6.282290993258357">
        <ele>815.34000000000003</ele>
        <time>2025-05-18T07:12:18Z</time>
      </trkpt>
      <trkpt lat="43.775991015136242" lon="6.282290993258357">
        <ele>815.82000000000005</ele>
        <time>2025-05-18T07:12:19Z</time>
      </trkpt>
      <trkpt lat="43.776012975722551" lon="6.282325023785234">
        <ele>815.82000000000005</ele>
        <time>2025-05-18T07:12:20Z</time>
      </trkpt>
      <trkpt lat="43.776038959622383" lon="6.282363999634981">
        <ele>816.29999999999995</ele>
        <time>2025-05-18T07:12:21Z</time>
      </trkpt>
      <trkpt lat="43.776066033169627" lon="6.28240498714149">
        <ele>816.77999999999997</ele>
        <time>2025-05-18T07:12:22Z</time>
      </trkpt>
      <trkpt lat="43.776076007634401" lon="6.282419990748167">
        <ele>816.77999999999997</ele>
        <time>2025-05-18T07:12:23Z</time>
      </trkpt>
      <trkpt lat="43.776121018454432" lon="6.282413033768535">
        <ele>816.77999999999997</ele>
        <time>2025-05-18T07:12:24Z</time>
      </trkpt>
      <trkpt lat="43.776183966547251" lon="6.282401969656348">
        <ele>816.77999999999997</ele>
        <time>2025-05-18T07:12:25Z</time>
      </trkpt>
      <trkpt lat="43.776259990409017" lon="6.282389983534813">
        <ele>816.77999999999997</ele>
        <time>2025-05-18T07:12:26Z</time>
      </trkpt>
      <trkpt lat="43.776335008442402" lon="6.282376991584897">
        <ele>816.77999999999997</ele>
        <time>2025-05-18T07:12:27Z</time>
      </trkpt>
      <trkpt lat="43.776420000940561" lon="6.282362993806601">
        <ele>817.25999999999999</ele>
        <time>2025-05-18T07:12:28Z</time>
      </trkpt>
      <trkpt lat="43.776522008702159" lon="6.282345978543162">
        <ele>817.25999999999999</ele>
        <time>2025-05-18T07:12:29Z</time>
      </trkpt>
      <trkpt lat="43.776636002585292" lon="6.282347990199924">
        <ele>817.74000000000001</ele>
        <time>2025-05-18T07:12:30Z</time>
      </trkpt>
      <trkpt lat="43.776746978983283" lon="6.282380009070039">
        <ele>818.22000000000003</ele>
        <time>2025-05-18T07:12:31Z</time>
      </trkpt>
      <trkpt lat="43.776857033371925" lon="6.282412027940154">
        <ele>818.70000000000005</ele>
        <time>2025-05-18T07:12:32Z</time>
      </trkpt>
      <trkpt lat="43.776967003941536" lon="6.282444968819618">
        <ele>818.70000000000005</ele>
        <time>2025-05-18T07:12:33Z</time>
      </trkpt>
      <trkpt lat="43.778021028265357" lon="6.282649990171194">
        <ele>822.54999999999995</ele>
        <time>2025-05-18T07:12:42Z</time>
      </trkpt>
      <trkpt lat="43.778497958555818" lon="6.28261998295784">
        <ele>824.47000000000003</ele>
        <time>2025-05-18T07:12:46Z</time>
      </trkpt>
      <trkpt lat="43.77860801294446" lon="6.282613025978208">
        <ele>824.95000000000005</ele>
        <time>2025-05-18T07:12:47Z</time>
      </trkpt>
      <trkpt lat="43.778717983514071" lon="6.282558040693402">
        <ele>825.42999999999995</ele>
        <time>2025-05-18T07:12:48Z</time>
      </trkpt>
      <trkpt lat="43.779435977339745" lon="6.282293004915118">
        <ele>830.72000000000003</ele>
        <time>2025-05-18T07:12:54Z</time>
      </trkpt>
      <trkpt lat="43.779582995921373" lon="6.282283030450344">
        <ele>831.67999999999995</ele>
        <time>2025-05-18T07:12:55Z</time>
      </trkpt>
      <trkpt lat="43.77972699701786" lon="6.282321000471711">
        <ele>832.15999999999997</ele>
        <time>2025-05-18T07:12:56Z</time>
      </trkpt>
      <trkpt lat="43.779873009771109" lon="6.282358970493078">
        <ele>832.63999999999999</ele>
        <time>2025-05-18T07:12:57Z</time>
      </trkpt>
      <trkpt lat="43.780011981725693" lon="6.282395012676716">
        <ele>833.12</ele>
        <time>2025-05-18T07:12:58Z</time>
      </trkpt>
      <trkpt lat="43.780145002529025" lon="6.282370034605265">
        <ele>833.60000000000002</ele>
        <time>2025-05-18T07:12:59Z</time>
      </trkpt>
      <trkpt lat="43.780282968655229" lon="6.282337009906769">
        <ele>834.08000000000004</ele>
        <time>2025-05-18T07:13:00Z</time>
      </trkpt>
      <trkpt lat="43.780416995286942" lon="6.282304991036654">
        <ele>834.55999999999995</ele>
        <time>2025-05-18T07:13:01Z</time>
      </trkpt>
      <trkpt lat="43.780616987496614" lon="6.282303985208273">
        <ele>835.03999999999996</ele>
        <time>2025-05-18T07:13:03Z</time>
      </trkpt>
      <trkpt lat="43.780668033286929" lon="6.282333992421627">
        <ele>835.51999999999998</ele>
        <time>2025-05-18T07:13:04Z</time>
      </trkpt>
      <trkpt lat="43.780675996094942" lon="6.282396018505096">
        <ele>835.51999999999998</ele>
        <time>2025-05-18T07:13:05Z</time>
      </trkpt>
      <trkpt lat="43.780684964731336" lon="6.282471958547831">
        <ele>835.51999999999998</ele>
        <time>2025-05-18T07:13:06Z</time>
      </trkpt>
      <trkpt lat="43.780665015801787" lon="6.282527027651668">
        <ele>836</ele>
        <time>2025-05-18T07:13:07Z</time>
      </trkpt>
      <trkpt lat="43.780560996383429" lon="6.282613025978208">
        <ele>836.48000000000002</ele>
        <time>2025-05-18T07:13:08Z</time>
      </trkpt>
      <trkpt lat="43.780487990006804" lon="6.282613025978208">
        <ele>836.96000000000004</ele>
        <time>2025-05-18T07:13:09Z</time>
      </trkpt>
      <trkpt lat="43.780361004173756" lon="6.282613025978208">
        <ele>837.45000000000005</ele>
        <time>2025-05-18T07:13:10Z</time>
      </trkpt>
      <trkpt lat="43.780225971713662" lon="6.282613025978208">
        <ele>838.40999999999997</ele>
        <time>2025-05-18T07:13:11Z</time>
      </trkpt>
      <trkpt lat="43.780081970617175" lon="6.282629035413265">
        <ele>839.37</ele>
        <time>2025-05-18T07:13:12Z</time>
      </trkpt>
      <trkpt lat="43.779462967067957" lon="6.282771024852991">
        <ele>843.21000000000004</ele>
        <time>2025-05-18T07:13:16Z</time>
      </trkpt>
      <trkpt lat="43.77931703813374" lon="6.282845959067345">
        <ele>844.17999999999995</ele>
        <time>2025-05-18T07:13:17Z</time>
      </trkpt>
      <trkpt lat="43.779175970703363" lon="6.282948972657323">
        <ele>845.13999999999999</ele>
        <time>2025-05-18T07:13:18Z</time>
      </trkpt>
      <trkpt lat="43.778747990727425" lon="6.283248038962483">
        <ele>848.01999999999998</ele>
        <time>2025-05-18T07:13:21Z</time>
      </trkpt>
      <trkpt lat="43.778584040701389" lon="6.283315010368824">
        <ele>848.98000000000002</ele>
        <time>2025-05-18T07:13:22Z</time>
      </trkpt>
      <trkpt lat="43.777360031381249" lon="6.283626984804869">
        <ele>856.66999999999996</ele>
        <time>2025-05-18T07:13:29Z</time>
      </trkpt>
      <trkpt lat="43.776921993121505" lon="6.283639976754785">
        <ele>859.08000000000004</ele>
        <time>2025-05-18T07:13:32Z</time>
      </trkpt>
      <trkpt lat="43.776797018945217" lon="6.28365003503859">
        <ele>859.55999999999995</ele>
        <time>2025-05-18T07:13:33Z</time>
      </trkpt>
      <trkpt lat="43.776694005355239" lon="6.28373502753675">
        <ele>861</ele>
        <time>2025-05-18T07:13:34Z</time>
      </trkpt>
      <trkpt lat="43.776479009538889" lon="6.28390803001821">
        <ele>861.96000000000004</ele>
        <time>2025-05-18T07:13:36Z</time>
      </trkpt>
      <trkpt lat="43.776385970413685" lon="6.284049013629556">
        <ele>862.44000000000005</ele>
        <time>2025-05-18T07:13:37Z</time>
      </trkpt>
      <trkpt lat="43.776298966258764" lon="6.284194020554423">
        <ele>862.91999999999996</ele>
        <time>2025-05-18T07:13:38Z</time>
      </trkpt>
      <trkpt lat="43.776211040094495" lon="6.284341039136052">
        <ele>863.39999999999998</ele>
        <time>2025-05-18T07:13:39Z</time>
      </trkpt>
      <trkpt lat="43.776125041767955" lon="6.284485040232539">
        <ele>863.88</ele>
        <time>2025-05-18T07:13:40Z</time>
      </trkpt>
      <trkpt lat="43.776043988764286" lon="6.284620994701982">
        <ele>864.84000000000003</ele>
        <time>2025-05-18T07:13:41Z</time>
      </trkpt>
      <trkpt lat="43.775966037064791" lon="6.284749992191792">
        <ele>865.79999999999995</ele>
        <time>2025-05-18T07:13:42Z</time>
      </trkpt>
      <trkpt lat="43.775913985446095" lon="6.284899022430182">
        <ele>866.76999999999998</ele>
        <time>2025-05-18T07:13:43Z</time>
      </trkpt>
      <trkpt lat="43.775862017646432" lon="6.285080993548036">
        <ele>867.73000000000002</ele>
        <time>2025-05-18T07:13:44Z</time>
      </trkpt>
      <trkpt lat="43.775846008211374" lon="6.285244021564722">
        <ele>868.69000000000005</ele>
        <time>2025-05-18T07:13:45Z</time>
      </trkpt>
      <trkpt lat="43.775826981291175" lon="6.285431021824479">
        <ele>870.13</ele>
        <time>2025-05-18T07:13:46Z</time>
      </trkpt>
      <trkpt lat="43.775808960199356" lon="6.285612992942333">
        <ele>871.09000000000003</ele>
        <time>2025-05-18T07:13:47Z</time>
      </trkpt>
      <trkpt lat="43.775791022926569" lon="6.285790018737316">
        <ele>872.52999999999997</ele>
        <time>2025-05-18T07:13:48Z</time>
      </trkpt>
      <trkpt lat="43.775788005441427" lon="6.285975007340312">
        <ele>873.5</ele>
        <time>2025-05-18T07:13:49Z</time>
      </trkpt>
      <trkpt lat="43.775839973241091" lon="6.286136023700237">
        <ele>874.94000000000005</ele>
        <time>2025-05-18T07:13:50Z</time>
      </trkpt>
      <trkpt lat="43.775894036516547" lon="6.286303997039795">
        <ele>875.89999999999998</ele>
        <time>2025-05-18T07:13:51Z</time>
      </trkpt>
      <trkpt lat="43.775951033458114" lon="6.286479011178017">
        <ele>877.34000000000003</ele>
        <time>2025-05-18T07:13:52Z</time>
      </trkpt>
      <trkpt lat="43.77600995823741" lon="6.286663999781013">
        <ele>878.77999999999997</ele>
        <time>2025-05-18T07:13:53Z</time>
      </trkpt>
      <trkpt lat="43.776043988764286" lon="6.286862986162305">
        <ele>879.74000000000001</ele>
        <time>2025-05-18T07:13:54Z</time>
      </trkpt>
      <trkpt lat="43.776076007634401" lon="6.287055015563965">
        <ele>881.19000000000005</ele>
        <time>2025-05-18T07:13:55Z</time>
      </trkpt>
      <trkpt lat="43.776076007634401" lon="6.287277974188328">
        <ele>882.14999999999998</ele>
        <time>2025-05-18T07:13:56Z</time>
      </trkpt>
      <trkpt lat="43.776076007634401" lon="6.287494981661439">
        <ele>883.11000000000001</ele>
        <time>2025-05-18T07:13:57Z</time>
      </trkpt>
      <trkpt lat="43.776076007634401" lon="6.287720035761595">
        <ele>884.07000000000005</ele>
        <time>2025-05-18T07:13:58Z</time>
      </trkpt>
      <trkpt lat="43.776076007634401" lon="6.288452027365565">
        <ele>885.99000000000001</ele>
        <time>2025-05-18T07:14:01Z</time>
      </trkpt>
      <trkpt lat="43.776049017906189" lon="6.289116041734815">
        <ele>887.90999999999997</ele>
        <time>2025-05-18T07:14:04Z</time>
      </trkpt>
      <trkpt lat="43.775972994044423" lon="6.289768991991878">
        <ele>891.75999999999999</ele>
        <time>2025-05-18T07:14:07Z</time>
      </trkpt>
      <trkpt lat="43.775976011529565" lon="6.289976025000215">
        <ele>892.72000000000003</ele>
        <time>2025-05-18T07:14:08Z</time>
      </trkpt>
      <trkpt lat="43.775938041508198" lon="6.29054700024426">
        <ele>895.61000000000001</ele>
        <time>2025-05-18T07:14:11Z</time>
      </trkpt>
      <trkpt lat="43.775894036516547" lon="6.290723020210862">
        <ele>896.57000000000005</ele>
        <time>2025-05-18T07:14:12Z</time>
      </trkpt>
      <trkpt lat="43.775847014039755" lon="6.290911026299">
        <ele>897.04999999999995</ele>
        <time>2025-05-18T07:14:13Z</time>
      </trkpt>
      <trkpt lat="43.775704018771648" lon="6.291483007371426">
        <ele>900.40999999999997</ele>
        <time>2025-05-18T07:14:16Z</time>
      </trkpt>
      <trkpt lat="43.775606034323573" lon="6.291644023731351">
        <ele>901.85000000000002</ele>
        <time>2025-05-18T07:14:17Z</time>
      </trkpt>
      <trkpt lat="43.775486005470157" lon="6.291791964322329">
        <ele>903.29999999999995</ele>
        <time>2025-05-18T07:14:18Z</time>
      </trkpt>
      <trkpt lat="43.774775974452496" lon="6.292750015854836">
        <ele>912.42999999999995</ele>
        <time>2025-05-18T07:14:25Z</time>
      </trkpt>
      <trkpt lat="43.774667009711266" lon="6.292997030541301">
        <ele>914.35000000000002</ele>
        <time>2025-05-18T07:14:27Z</time>
      </trkpt>
      <trkpt lat="43.774617975577712" lon="6.293112030252814">
        <ele>915.30999999999995</ele>
        <time>2025-05-18T07:14:28Z</time>
      </trkpt>
      <trkpt lat="43.774573970586061" lon="6.29323298111558">
        <ele>915.78999999999996</ele>
        <time>2025-05-18T07:14:29Z</time>
      </trkpt>
      <trkpt lat="43.774573970586061" lon="6.293364996090531">
        <ele>916.26999999999998</ele>
        <time>2025-05-18T07:14:30Z</time>
      </trkpt>
      <trkpt lat="43.774584028869867" lon="6.293507991358638">
        <ele>917.24000000000001</ele>
        <time>2025-05-18T07:14:31Z</time>
      </trkpt>
      <trkpt lat="43.774619987234473" lon="6.293647969141603">
        <ele>917.72000000000003</ele>
        <time>2025-05-18T07:14:32Z</time>
      </trkpt>
      <trkpt lat="43.774660974740982" lon="6.293803034350276">
        <ele>918.20000000000005</ele>
        <time>2025-05-18T07:14:33Z</time>
      </trkpt>
      <trkpt lat="43.774702968075871" lon="6.293972013518214">
        <ele>919.15999999999997</ele>
        <time>2025-05-18T07:14:34Z</time>
      </trkpt>
      <trkpt lat="43.774689976125956" lon="6.294158007949591">
        <ele>919.63999999999999</ele>
        <time>2025-05-18T07:14:35Z</time>
      </trkpt>
      <trkpt lat="43.774668015539646" lon="6.29430796019733">
        <ele>920.12</ele>
        <time>2025-05-18T07:14:36Z</time>
      </trkpt>
      <trkpt lat="43.774586040526628" lon="6.29443796351552">
        <ele>921.08000000000004</ele>
        <time>2025-05-18T07:14:37Z</time>
      </trkpt>
      <trkpt lat="43.774503981694579" lon="6.294569978490472">
        <ele>922.03999999999996</ele>
        <time>2025-05-18T07:14:38Z</time>
      </trkpt>
      <trkpt lat="43.774350006133318" lon="6.294813975691795">
        <ele>923.48000000000002</ele>
        <time>2025-05-18T07:14:40Z</time>
      </trkpt>
      <trkpt lat="43.7742680311203" lon="6.294944984838367">
        <ele>924.45000000000005</ele>
        <time>2025-05-18T07:14:41Z</time>
      </trkpt>
      <trkpt lat="43.774172980338335" lon="6.295096026733518">
        <ele>925.40999999999997</ele>
        <time>2025-05-18T07:14:42Z</time>
      </trkpt>
      <trkpt lat="43.773585995659232" lon="6.296465964987874">
        <ele>930.69000000000005</ele>
        <time>2025-05-18T07:14:48Z</time>
      </trkpt>
      <trkpt lat="43.773206965997815" lon="6.297620991244912">
        <ele>935.98000000000002</ele>
        <time>2025-05-18T07:14:53Z</time>
      </trkpt>
      <trkpt lat="43.773120967671275" lon="6.297794999554753">
        <ele>936.94000000000005</ele>
        <time>2025-05-18T07:14:54Z</time>
      </trkpt>
      <trkpt lat="43.773010997101665" lon="6.297926008701325">
        <ele>938.38</ele>
        <time>2025-05-18T07:14:55Z</time>
      </trkpt>
      <trkpt lat="43.772879987955093" lon="6.298020975664258">
        <ele>939.35000000000002</ele>
        <time>2025-05-18T07:14:56Z</time>
      </trkpt>
      <trkpt lat="43.772747972980142" lon="6.298117032274604">
        <ele>940.78999999999996</ele>
        <time>2025-05-18T07:14:57Z</time>
      </trkpt>
      <trkpt lat="43.772620987147093" lon="6.298208981752396">
        <ele>941.75</ele>
        <time>2025-05-18T07:14:58Z</time>
      </trkpt>
      <trkpt lat="43.772518979385495" lon="6.298319958150387">
        <ele>942.71000000000004</ele>
        <time>2025-05-18T07:14:59Z</time>
      </trkpt>
      <trkpt lat="43.772425018250942" lon="6.298477035015822">
        <ele>943.66999999999996</ele>
        <time>2025-05-18T07:15:00Z</time>
      </trkpt>
      <trkpt lat="43.77233499661088" lon="6.29862598143518">
        <ele>945.59000000000003</ele>
        <time>2025-05-18T07:15:01Z</time>
      </trkpt>
      <trkpt lat="43.772246986627579" lon="6.298749027773738">
        <ele>947.03999999999996</ele>
        <time>2025-05-18T07:15:02Z</time>
      </trkpt>
      <trkpt lat="43.772159982472658" lon="6.298854975029826">
        <ele>948.48000000000002</ele>
        <time>2025-05-18T07:15:03Z</time>
      </trkpt>
      <trkpt lat="43.772074989974499" lon="6.298957988619804">
        <ele>949.91999999999996</ele>
        <time>2025-05-18T07:15:04Z</time>
      </trkpt>
      <trkpt lat="43.771998966112733" lon="6.299050021916628">
        <ele>951.36000000000001</ele>
        <time>2025-05-18T07:15:05Z</time>
      </trkpt>
      <trkpt lat="43.771966025233269" lon="6.29914197139442">
        <ele>952.79999999999995</ele>
        <time>2025-05-18T07:15:06Z</time>
      </trkpt>
      <trkpt lat="43.771913973614573" lon="6.299285972490907">
        <ele>953.76999999999998</ele>
        <time>2025-05-18T07:15:07Z</time>
      </trkpt>
      <trkpt lat="43.771924031898379" lon="6.29941999912262">
        <ele>954.73000000000002</ele>
        <time>2025-05-18T07:15:08Z</time>
      </trkpt>
      <trkpt lat="43.771936018019915" lon="6.299589984118938">
        <ele>956.16999999999996</ele>
        <time>2025-05-18T07:15:09Z</time>
      </trkpt>
      <trkpt lat="43.771951021626592" lon="6.299780001863837">
        <ele>957.13</ele>
        <time>2025-05-18T07:15:10Z</time>
      </trkpt>
      <trkpt lat="43.772018998861313" lon="6.300653982907534">
        <ele>960.98000000000002</ele>
        <time>2025-05-18T07:15:14Z</time>
      </trkpt>
      <trkpt lat="43.771997038275003" lon="6.300869984552264">
        <ele>961.46000000000004</ele>
        <time>2025-05-18T07:15:15Z</time>
      </trkpt>
      <trkpt lat="43.771969964727759" lon="6.301089003682137">
        <ele>962.89999999999998</ele>
        <time>2025-05-18T07:15:16Z</time>
      </trkpt>
      <trkpt lat="43.771900981664658" lon="6.301295030862093">
        <ele>963.86000000000001</ele>
        <time>2025-05-18T07:15:17Z</time>
      </trkpt>
      <trkpt lat="43.77179604023695" lon="6.30148395895958">
        <ele>964.82000000000005</ele>
        <time>2025-05-18T07:15:18Z</time>
      </trkpt>
      <trkpt lat="43.771677017211914" lon="6.301668025553227">
        <ele>966.25999999999999</ele>
        <time>2025-05-18T07:15:19Z</time>
      </trkpt>
      <trkpt lat="43.771551959216595" lon="6.301834993064404">
        <ele>967.22000000000003</ele>
        <time>2025-05-18T07:15:20Z</time>
      </trkpt>
      <trkpt lat="43.771326988935471" lon="6.302134981378913">
        <ele>969.14999999999998</ele>
        <time>2025-05-18T07:15:22Z</time>
      </trkpt>
      <trkpt lat="43.771253982558846" lon="6.302317036315799">
        <ele>970.11000000000001</ele>
        <time>2025-05-18T07:15:23Z</time>
      </trkpt>
      <trkpt lat="43.771198997274041" lon="6.30251401104033">
        <ele>971.07000000000005</ele>
        <time>2025-05-18T07:15:24Z</time>
      </trkpt>
      <trkpt lat="43.771178964525461" lon="6.302735041826963">
        <ele>972.02999999999997</ele>
        <time>2025-05-18T07:15:25Z</time>
      </trkpt>
      <trkpt lat="43.771172007545829" lon="6.302949031814933">
        <ele>972.99000000000001</ele>
        <time>2025-05-18T07:15:26Z</time>
      </trkpt>
      <trkpt lat="43.771164966747165" lon="6.303148018196225">
        <ele>973.47000000000003</ele>
        <time>2025-05-18T07:15:27Z</time>
      </trkpt>
      <trkpt lat="43.771133031696081" lon="6.303313979879022">
        <ele>974.42999999999995</ele>
        <time>2025-05-18T07:15:28Z</time>
      </trkpt>
      <trkpt lat="43.771074023097754" lon="6.303473990410566">
        <ele>975.38999999999999</ele>
        <time>2025-05-18T07:15:29Z</time>
      </trkpt>
      <trkpt lat="43.771011997014284" lon="6.303641963750124">
        <ele>976.36000000000001</ele>
        <time>2025-05-18T07:15:30Z</time>
      </trkpt>
      <trkpt lat="43.770935973152518" lon="6.303729973733425">
        <ele>977.32000000000005</ele>
        <time>2025-05-18T07:15:31Z</time>
      </trkpt>
      <trkpt lat="43.770838994532824" lon="6.303746988996863">
        <ele>978.27999999999997</ele>
        <time>2025-05-18T07:15:32Z</time>
      </trkpt>
      <trkpt lat="43.770712008699775" lon="6.303770961239934">
        <ele>978.75999999999999</ele>
        <time>2025-05-18T07:15:33Z</time>
      </trkpt>
      <trkpt lat="43.770623998716474" lon="6.303733997046948">
        <ele>979.72000000000003</ele>
        <time>2025-05-18T07:15:34Z</time>
      </trkpt>
      <trkpt lat="43.770249998196959" lon="6.303649004548788">
        <ele>980.67999999999995</ele>
        <time>2025-05-18T07:15:37Z</time>
      </trkpt>
      <trkpt lat="43.770154025405645" lon="6.303641963750124">
        <ele>981.15999999999997</ele>
        <time>2025-05-18T07:15:38Z</time>
      </trkpt>
      <trkpt lat="43.770044976845384" lon="6.303707007318735">
        <ele>981.63999999999999</ele>
        <time>2025-05-18T07:15:39Z</time>
      </trkpt>
      <trkpt lat="43.769939029589295" lon="6.303770961239934">
        <ele>982.12</ele>
        <time>2025-05-18T07:15:40Z</time>
      </trkpt>
      <trkpt lat="43.769902987405658" lon="6.303856959566474">
        <ele>982.12</ele>
        <time>2025-05-18T07:15:41Z</time>
      </trkpt>
      <trkpt lat="43.769874991849065" lon="6.30397698841989">
        <ele>982.60000000000002</ele>
        <time>2025-05-18T07:15:42Z</time>
      </trkpt>
      <trkpt lat="43.769874991849065" lon="6.304118977859616">
        <ele>983.09000000000003</ele>
        <time>2025-05-18T07:15:43Z</time>
      </trkpt>
      <trkpt lat="43.769874991849065" lon="6.3042769767344">
        <ele>983.09000000000003</ele>
        <time>2025-05-18T07:15:44Z</time>
      </trkpt>
      <trkpt lat="43.769874991849065" lon="6.304648965597153">
        <ele>983.57000000000005</ele>
        <time>2025-05-18T07:15:46Z</time>
      </trkpt>
      <trkpt lat="43.769879015162587" lon="6.304861027747393">
        <ele>983.57000000000005</ele>
        <time>2025-05-18T07:15:47Z</time>
      </trkpt>
      <trkpt lat="43.769926959648728" lon="6.30505096167326">
        <ele>983.57000000000005</ele>
        <time>2025-05-18T07:15:48Z</time>
      </trkpt>
      <trkpt lat="43.769970964640379" lon="6.305225975811482">
        <ele>983.57000000000005</ele>
        <time>2025-05-18T07:15:49Z</time>
      </trkpt>
      <trkpt lat="43.770050005987287" lon="6.305344998836517">
        <ele>984.04999999999995</ele>
        <time>2025-05-18T07:15:50Z</time>
      </trkpt>
      <trkpt lat="43.770152013748884" lon="6.305452035740018">
        <ele>984.52999999999997</ele>
        <time>2025-05-18T07:15:51Z</time>
      </trkpt>
      <trkpt lat="43.770261984318495" lon="6.305568963289261">
        <ele>984.52999999999997</ele>
        <time>2025-05-18T07:15:52Z</time>
      </trkpt>
      <trkpt lat="43.770382013171911" lon="6.305695027112961">
        <ele>985.00999999999999</ele>
        <time>2025-05-18T07:15:53Z</time>
      </trkpt>
      <trkpt lat="43.770712008699775" lon="6.306044971570373">
        <ele>986.92999999999995</ele>
        <time>2025-05-18T07:15:56Z</time>
      </trkpt>
      <trkpt lat="43.770741010084748" lon="6.306161982938647">
        <ele>987.40999999999997</ele>
        <time>2025-05-18T07:15:57Z</time>
      </trkpt>
      <trkpt lat="43.770775962620974" lon="6.306302966549993">
        <ele>987.88999999999999</ele>
        <time>2025-05-18T07:15:58Z</time>
      </trkpt>
      <trkpt lat="43.770725000649691" lon="6.306399023160338">
        <ele>987.88999999999999</ele>
        <time>2025-05-18T07:15:59Z</time>
      </trkpt>
      <trkpt lat="43.770662974566221" lon="6.306517962366343">
        <ele>988.85000000000002</ele>
        <time>2025-05-18T07:16:00Z</time>
      </trkpt>
      <trkpt lat="43.770591979846358" lon="6.306652994826436">
        <ele>989.33000000000004</ele>
        <time>2025-05-18T07:16:01Z</time>
      </trkpt>
      <trkpt lat="43.770514028146863" lon="6.306802025064826">
        <ele>989.80999999999995</ele>
        <time>2025-05-18T07:16:02Z</time>
      </trkpt>
      <trkpt lat="43.770432975143194" lon="6.306954994797707">
        <ele>990.77999999999997</ele>
        <time>2025-05-18T07:16:03Z</time>
      </trkpt>
      <trkpt lat="43.770349994301796" lon="6.30711299367249">
        <ele>991.74000000000001</ele>
        <time>2025-05-18T07:16:04Z</time>
      </trkpt>
      <trkpt lat="43.770295009016991" lon="6.307290019467473">
        <ele>992.70000000000005</ele>
        <time>2025-05-18T07:16:05Z</time>
      </trkpt>
      <trkpt lat="43.770237006247044" lon="6.307480959221721">
        <ele>993.17999999999995</ele>
        <time>2025-05-18T07:16:06Z</time>
      </trkpt>
      <trkpt lat="43.77012200653553" lon="6.308121001347899">
        <ele>996.05999999999995</ele>
        <time>2025-05-18T07:16:09Z</time>
      </trkpt>
      <trkpt lat="43.770113037899137" lon="6.308343959972262">
        <ele>997.01999999999998</ele>
        <time>2025-05-18T07:16:10Z</time>
      </trkpt>
      <trkpt lat="43.770127035677433" lon="6.308541018515825">
        <ele>997.99000000000001</ele>
        <time>2025-05-18T07:16:11Z</time>
      </trkpt>
      <trkpt lat="43.770147990435362" lon="6.30872399546206">
        <ele>998.47000000000003</ele>
        <time>2025-05-18T07:16:12Z</time>
      </trkpt>
      <trkpt lat="43.770166011527181" lon="6.308878976851702">
        <ele>998.95000000000005</ele>
        <time>2025-05-18T07:16:13Z</time>
      </trkpt>
      <trkpt lat="43.770160982385278" lon="6.309006968513131">
        <ele>999.42999999999995</ele>
        <time>2025-05-18T07:16:14Z</time>
      </trkpt>
      <trkpt lat="43.770123012363911" lon="6.309103025123477">
        <ele>1000.39</ele>
        <time>2025-05-18T07:16:15Z</time>
      </trkpt>
      <trkpt lat="43.770055035129189" lon="6.309178965166211">
        <ele>1001.35</ele>
        <time>2025-05-18T07:16:16Z</time>
      </trkpt>
      <trkpt lat="43.769975993782282" lon="6.309267980977893">
        <ele>1002.3099999999999</ele>
        <time>2025-05-18T07:16:17Z</time>
      </trkpt>
      <trkpt lat="43.769846996292472" lon="6.309284996241331">
        <ele>1003.27</ele>
        <time>2025-05-18T07:16:18Z</time>
      </trkpt>
      <trkpt lat="43.769719004631042" lon="6.309284996241331">
        <ele>1003.75</ele>
        <time>2025-05-18T07:16:19Z</time>
      </trkpt>
      <trkpt lat="43.769587995484471" lon="6.309224981814623">
        <ele>1004.23</ele>
        <time>2025-05-18T07:16:20Z</time>
      </trkpt>
      <trkpt lat="43.76945598050952" lon="6.309140995144844">
        <ele>1004.72</ele>
        <time>2025-05-18T07:16:21Z</time>
      </trkpt>
      <trkpt lat="43.769317008554935" lon="6.309051979333162">
        <ele>1004.72</ele>
        <time>2025-05-18T07:16:22Z</time>
      </trkpt>
      <trkpt lat="43.769173007458448" lon="6.308961035683751">
        <ele>1005.2</ele>
        <time>2025-05-18T07:16:23Z</time>
      </trkpt>
      <trkpt lat="43.769029006361961" lon="6.308867996558547">
        <ele>1005.2</ele>
        <time>2025-05-18T07:16:24Z</time>
      </trkpt>
      <trkpt lat="43.768673026934266" lon="6.308642020449042">
        <ele>1005.6799999999999</ele>
        <time>2025-05-18T07:16:27Z</time>
      </trkpt>
      <trkpt lat="43.768560038879514" lon="6.308642020449042">
        <ele>1005.6799999999999</ele>
        <time>2025-05-18T07:16:28Z</time>
      </trkpt>
      <trkpt lat="43.768461970612407" lon="6.308642020449042">
        <ele>1005.6799999999999</ele>
        <time>2025-05-18T07:16:29Z</time>
      </trkpt>
      <trkpt lat="43.768369015306234" lon="6.308726007118821">
        <ele>1005.6799999999999</ele>
        <time>2025-05-18T07:16:30Z</time>
      </trkpt>
      <trkpt lat="43.768282011151314" lon="6.308832038193941">
        <ele>1005.6799999999999</ele>
        <time>2025-05-18T07:16:31Z</time>
      </trkpt>
      <trkpt lat="43.768200958147645" lon="6.308932034298778">
        <ele>1005.2</ele>
        <time>2025-05-18T07:16:32Z</time>
      </trkpt>
      <trkpt lat="43.768125018104911" lon="6.30902498960495">
        <ele>1005.2</ele>
        <time>2025-05-18T07:16:33Z</time>
      </trkpt>
      <trkpt lat="43.768053017556667" lon="6.309112999588251">
        <ele>1005.6799999999999</ele>
        <time>2025-05-18T07:16:34Z</time>
      </trkpt>
      <trkpt lat="43.767965007573366" lon="6.309220958501101">
        <ele>1005.6799999999999</ele>
        <time>2025-05-18T07:16:35Z</time>
      </trkpt>
      <trkpt lat="43.767922008410096" lon="6.309331012889743">
        <ele>1005.6799999999999</ele>
        <time>2025-05-18T07:16:36Z</time>
      </trkpt>
      <trkpt lat="43.767689997330308" lon="6.309914980083704">
        <ele>1007.12</ele>
        <time>2025-05-18T07:16:40Z</time>
      </trkpt>
      <trkpt lat="43.76756502315402" lon="6.31022997200489">
        <ele>1008.08</ele>
        <time>2025-05-18T07:16:42Z</time>
      </trkpt>
      <trkpt lat="43.767348015680909" lon="6.311042010784149">
        <ele>1010.48</ele>
        <time>2025-05-18T07:16:47Z</time>
      </trkpt>
      <trkpt lat="43.767354972660542" lon="6.311207972466946">
        <ele>1011.4400000000001</ele>
        <time>2025-05-18T07:16:48Z</time>
      </trkpt>
      <trkpt lat="43.767365030944347" lon="6.31140997633338">
        <ele>1011.9299999999999</ele>
        <time>2025-05-18T07:16:49Z</time>
      </trkpt>
      <trkpt lat="43.767425967380404" lon="6.311594964936376">
        <ele>1012.41</ele>
        <time>2025-05-18T07:16:50Z</time>
      </trkpt>
      <trkpt lat="43.767511965706944" lon="6.31177400238812">
        <ele>1012.89</ele>
        <time>2025-05-18T07:16:51Z</time>
      </trkpt>
      <trkpt lat="43.767615985125303" lon="6.311953961849213">
        <ele>1013.85</ele>
        <time>2025-05-18T07:16:52Z</time>
      </trkpt>
      <trkpt lat="43.767728973180056" lon="6.312149008736014">
        <ele>1014.8099999999999</ele>
        <time>2025-05-18T07:16:53Z</time>
      </trkpt>
      <trkpt lat="43.768313024193048" lon="6.313566975295544">
        <ele>1022.02</ele>
        <time>2025-05-18T07:16:59Z</time>
      </trkpt>
      <trkpt lat="43.768609995022416" lon="6.314973961561918">
        <ele>1028.75</ele>
        <time>2025-05-18T07:17:05Z</time>
      </trkpt>
      <trkpt lat="43.768646037206054" lon="6.315099019557238">
        <ele>1029.71</ele>
        <time>2025-05-18T07:17:06Z</time>
      </trkpt>
      <trkpt lat="43.768718959763646" lon="6.315200021490455">
        <ele>1030.6700000000001</ele>
        <time>2025-05-18T07:17:07Z</time>
      </trkpt>
      <trkpt lat="43.768802024424076" lon="6.315315021201968">
        <ele>1031.6300000000001</ele>
        <time>2025-05-18T07:17:08Z</time>
      </trkpt>
      <trkpt lat="43.76889699138701" lon="6.315390039235354">
        <ele>1032.1099999999999</ele>
        <time>2025-05-18T07:17:09Z</time>
      </trkpt>
      <trkpt lat="43.769380962476134" lon="6.315831011161208">
        <ele>1034.52</ele>
        <time>2025-05-18T07:17:13Z</time>
      </trkpt>
      <trkpt lat="43.769489005208015" lon="6.315952967852354">
        <ele>1035</ele>
        <time>2025-05-18T07:17:14Z</time>
      </trkpt>
      <trkpt lat="43.76956201158464" lon="6.316123036667705">
        <ele>1035.48</ele>
        <time>2025-05-18T07:17:15Z</time>
      </trkpt>
      <trkpt lat="43.76960601657629" lon="6.316296961158514">
        <ele>1035.48</ele>
        <time>2025-05-18T07:17:16Z</time>
      </trkpt>
      <trkpt lat="43.769639041274786" lon="6.316430987790227">
        <ele>1035.48</ele>
        <time>2025-05-18T07:17:17Z</time>
      </trkpt>
      <trkpt lat="43.769745994359255" lon="6.316561996936798">
        <ele>1035.48</ele>
        <time>2025-05-18T07:17:18Z</time>
      </trkpt>
      <trkpt lat="43.769854959100485" lon="6.316697029396892">
        <ele>1035</ele>
        <time>2025-05-18T07:17:19Z</time>
      </trkpt>
      <trkpt lat="43.769974987953901" lon="6.31684597581625">
        <ele>1034.52</ele>
        <time>2025-05-18T07:17:20Z</time>
      </trkpt>
      <trkpt lat="43.770080013200641" lon="6.317046973854303">
        <ele>1034.52</ele>
        <time>2025-05-18T07:17:21Z</time>
      </trkpt>
      <trkpt lat="43.770170034840703" lon="6.317243026569486">
        <ele>1034.04</ele>
        <time>2025-05-18T07:17:22Z</time>
      </trkpt>
      <trkpt lat="43.770243963226676" lon="6.317446958273649">
        <ele>1033.55</ele>
        <time>2025-05-18T07:17:23Z</time>
      </trkpt>
      <trkpt lat="43.770258966833353" lon="6.317608980461955">
        <ele>1033.0699999999999</ele>
        <time>2025-05-18T07:17:24Z</time>
      </trkpt>
      <trkpt lat="43.770231977105141" lon="6.317750969901681">
        <ele>1033.0699999999999</ele>
        <time>2025-05-18T07:17:25Z</time>
      </trkpt>
      <trkpt lat="43.770193001255393" lon="6.317904023453593">
        <ele>1033.0699999999999</ele>
        <time>2025-05-18T07:17:26Z</time>
      </trkpt>
      <trkpt lat="43.770150002092123" lon="6.318075014278293">
        <ele>1033.0699999999999</ele>
        <time>2025-05-18T07:17:27Z</time>
      </trkpt>
      <trkpt lat="43.769920002669096" lon="6.319084027782083">
        <ele>1031.6300000000001</ele>
        <time>2025-05-18T07:17:33Z</time>
      </trkpt>
      <trkpt lat="43.769898964092135" lon="6.319265998899937">
        <ele>1031.6300000000001</ele>
        <time>2025-05-18T07:17:34Z</time>
      </trkpt>
      <trkpt lat="43.769946992397308" lon="6.319442018866539">
        <ele>1030.6700000000001</ele>
        <time>2025-05-18T07:17:35Z</time>
      </trkpt>
      <trkpt lat="43.770006000995636" lon="6.319622984156013">
        <ele>1030.1900000000001</ele>
        <time>2025-05-18T07:17:36Z</time>
      </trkpt>
      <trkpt lat="43.770065009593964" lon="6.319807972759008">
        <ele>1029.71</ele>
        <time>2025-05-18T07:17:37Z</time>
      </trkpt>
      <trkpt lat="43.770113037899137" lon="6.320004025474191">
        <ele>1028.75</ele>
        <time>2025-05-18T07:17:38Z</time>
      </trkpt>
      <trkpt lat="43.770118989050388" lon="6.320208963006735">
        <ele>1027.79</ele>
        <time>2025-05-18T07:17:39Z</time>
      </trkpt>
      <trkpt lat="43.770176991820335" lon="6.321392990648747">
        <ele>1025.3800000000001</ele>
        <time>2025-05-18T07:17:44Z</time>
      </trkpt>
      <trkpt lat="43.770231977105141" lon="6.321613015606999">
        <ele>1025.3800000000001</ele>
        <time>2025-05-18T07:17:45Z</time>
      </trkpt>
      <trkpt lat="43.770288974046707" lon="6.321839997544885">
        <ele>1024.4200000000001</ele>
        <time>2025-05-18T07:17:46Z</time>
      </trkpt>
      <trkpt lat="43.770620981231332" lon="6.322706015780568">
        <ele>1021.0599999999999</ele>
        <time>2025-05-18T07:17:50Z</time>
      </trkpt>
      <trkpt lat="43.770737992599607" lon="6.322896033525467">
        <ele>1020.58</ele>
        <time>2025-05-18T07:17:51Z</time>
      </trkpt>
      <trkpt lat="43.770861038938165" lon="6.323082027956843">
        <ele>1019.62</ele>
        <time>2025-05-18T07:17:52Z</time>
      </trkpt>
      <trkpt lat="43.771005962044001" lon="6.323233991861343">
        <ele>1018.65</ele>
        <time>2025-05-18T07:17:53Z</time>
      </trkpt>
      <trkpt lat="43.771149041131139" lon="6.323383022099733">
        <ele>1017.6900000000001</ele>
        <time>2025-05-18T07:17:54Z</time>
      </trkpt>
      <trkpt lat="43.771672993898392" lon="6.324033960700035">
        <ele>1014.8099999999999</ele>
        <time>2025-05-18T07:17:58Z</time>
      </trkpt>
      <trkpt lat="43.771810960024595" lon="6.324136974290013">
        <ele>1013.85</ele>
        <time>2025-05-18T07:17:59Z</time>
      </trkpt>
      <trkpt lat="43.772078007459641" lon="6.324336966499686">
        <ele>1012.41</ele>
        <time>2025-05-18T07:18:01Z</time>
      </trkpt>
      <trkpt lat="43.772208010777831" lon="6.324467975646257">
        <ele>1011.4400000000001</ele>
        <time>2025-05-18T07:18:02Z</time>
      </trkpt>
      <trkpt lat="43.772325022146106" lon="6.324623040854931">
        <ele>1010.48</ele>
        <time>2025-05-18T07:18:03Z</time>
      </trkpt>
      <trkpt lat="43.772728024050593" lon="6.325216982513666">
        <ele>1007.6</ele>
        <time>2025-05-18T07:18:07Z</time>
      </trkpt>
      <trkpt lat="43.772777980193496" lon="6.325357966125011">
        <ele>1006.64</ele>
        <time>2025-05-18T07:18:08Z</time>
      </trkpt>
      <trkpt lat="43.772780997678638" lon="6.325497021898627">
        <ele>1006.16</ele>
        <time>2025-05-18T07:18:09Z</time>
      </trkpt>
      <trkpt lat="43.772760964930058" lon="6.325647979974747">
        <ele>1005.6799999999999</ele>
        <time>2025-05-18T07:18:10Z</time>
      </trkpt>
      <trkpt lat="43.772739004343748" lon="6.325816037133336">
        <ele>1004.72</ele>
        <time>2025-05-18T07:18:11Z</time>
      </trkpt>
      <trkpt lat="43.772716959938407" lon="6.326173022389412">
        <ele>1003.27</ele>
        <time>2025-05-18T07:18:13Z</time>
      </trkpt>
      <trkpt lat="43.772710002958775" lon="6.32634200155735">
        <ele>1002.79</ele>
        <time>2025-05-18T07:18:14Z</time>
      </trkpt>
      <trkpt lat="43.772758031263947" lon="6.326521039009094">
        <ele>1002.3099999999999</ele>
        <time>2025-05-18T07:18:15Z</time>
      </trkpt>
      <trkpt lat="43.772822991013527" lon="6.326692029833794">
        <ele>1001.35</ele>
        <time>2025-05-18T07:18:16Z</time>
      </trkpt>
      <trkpt lat="43.772891974076629" lon="6.326874000951648">
        <ele>1000.39</ele>
        <time>2025-05-18T07:18:17Z</time>
      </trkpt>
      <trkpt lat="43.772956011816859" lon="6.327059995383024">
        <ele>999.90999999999997</ele>
        <time>2025-05-18T07:18:18Z</time>
      </trkpt>
      <trkpt lat="43.773005967959762" lon="6.327260993421078">
        <ele>998.95000000000005</ele>
        <time>2025-05-18T07:18:19Z</time>
      </trkpt>
      <trkpt lat="43.773052990436554" lon="6.327467020601034">
        <ele>997.99000000000001</ele>
        <time>2025-05-18T07:18:20Z</time>
      </trkpt>
      <trkpt lat="43.77306698821485" lon="6.327701965346932">
        <ele>997.01999999999998</ele>
        <time>2025-05-18T07:18:21Z</time>
      </trkpt>
      <trkpt lat="43.773047039285302" lon="6.327941017225385">
        <ele>996.53999999999996</ele>
        <time>2025-05-18T07:18:22Z</time>
      </trkpt>
      <trkpt lat="43.773007979616523" lon="6.328189037740231">
        <ele>995.58000000000004</ele>
        <time>2025-05-18T07:18:23Z</time>
      </trkpt>
      <trkpt lat="43.772969003766775" lon="6.328434040769935">
        <ele>994.62</ele>
        <time>2025-05-18T07:18:24Z</time>
      </trkpt>
      <trkpt lat="43.772878982126713" lon="6.329112974926829">
        <ele>991.74000000000001</ele>
        <time>2025-05-18T07:18:27Z</time>
      </trkpt>
      <trkpt lat="43.772878982126713" lon="6.329334005713463">
        <ele>990.77999999999997</ele>
        <time>2025-05-18T07:18:28Z</time>
      </trkpt>
      <trkpt lat="43.772878982126713" lon="6.329552019014955">
        <ele>989.80999999999995</ele>
        <time>2025-05-18T07:18:29Z</time>
      </trkpt>
      <trkpt lat="43.772916030138731" lon="6.329777995124459">
        <ele>988.85000000000002</ele>
        <time>2025-05-18T07:18:30Z</time>
      </trkpt>
      <trkpt lat="43.772963974624872" lon="6.330002965405583">
        <ele>987.88999999999999</ele>
        <time>2025-05-18T07:18:31Z</time>
      </trkpt>
      <trkpt lat="43.773018037900329" lon="6.330234976485372">
        <ele>986.92999999999995</ele>
        <time>2025-05-18T07:18:32Z</time>
      </trkpt>
      <trkpt lat="43.773091966286302" lon="6.330450978130102">
        <ele>985.97000000000003</ele>
        <time>2025-05-18T07:18:33Z</time>
      </trkpt>
      <trkpt lat="43.773450963199139" lon="6.331431996077299">
        <ele>982.12</ele>
        <time>2025-05-18T07:18:38Z</time>
      </trkpt>
      <trkpt lat="43.773541990667582" lon="6.331556970253587">
        <ele>981.63999999999999</ele>
        <time>2025-05-18T07:18:39Z</time>
      </trkpt>
      <trkpt lat="43.773628994822502" lon="6.33166803047061">
        <ele>981.63999999999999</ele>
        <time>2025-05-18T07:18:40Z</time>
      </trkpt>
      <trkpt lat="43.773724967613816" lon="6.331760985776782">
        <ele>981.15999999999997</ele>
        <time>2025-05-18T07:18:41Z</time>
      </trkpt>
      <trkpt lat="43.773836027830839" lon="6.33179702796042">
        <ele>980.67999999999995</ele>
        <time>2025-05-18T07:18:42Z</time>
      </trkpt>
      <trkpt lat="43.773956978693604" lon="6.331836003810167">
        <ele>980.20000000000005</ele>
        <time>2025-05-18T07:18:43Z</time>
      </trkpt>
      <trkpt lat="43.774497024714947" lon="6.332048987969756">
        <ele>978.75999999999999</ele>
        <time>2025-05-18T07:18:47Z</time>
      </trkpt>
      <trkpt lat="43.774621998891234" lon="6.332157030701637">
        <ele>978.27999999999997</ele>
        <time>2025-05-18T07:18:48Z</time>
      </trkpt>
      <trkpt lat="43.774746973067522" lon="6.332263983786106">
        <ele>978.27999999999997</ele>
        <time>2025-05-18T07:18:49Z</time>
      </trkpt>
      <trkpt lat="43.774874964728951" lon="6.332374038174748">
        <ele>978.27999999999997</ele>
        <time>2025-05-18T07:18:50Z</time>
      </trkpt>
      <trkpt lat="43.774972027167678" lon="6.332498006522656">
        <ele>978.27999999999997</ele>
        <time>2025-05-18T07:18:51Z</time>
      </trkpt>
      <trkpt lat="43.775612991303205" lon="6.33323896676302">
        <ele>974.42999999999995</ele>
        <time>2025-05-18T07:18:57Z</time>
      </trkpt>
      <trkpt lat="43.775741988793015" lon="6.333338962867856">
        <ele>973.95000000000005</ele>
        <time>2025-05-18T07:18:58Z</time>
      </trkpt>
      <trkpt lat="43.776326039806008" lon="6.33375302888453">
        <ele>972.02999999999997</ele>
        <time>2025-05-18T07:19:02Z</time>
      </trkpt>
      <trkpt lat="43.776451013982296" lon="6.333896024152637">
        <ele>971.54999999999995</ele>
        <time>2025-05-18T07:19:03Z</time>
      </trkpt>
      <trkpt lat="43.77656701952219" lon="6.334062991663814">
        <ele>971.54999999999995</ele>
        <time>2025-05-18T07:19:04Z</time>
      </trkpt>
      <trkpt lat="43.776666009798646" lon="6.334260972216725">
        <ele>971.54999999999995</ele>
        <time>2025-05-18T07:19:05Z</time>
      </trkpt>
      <trkpt lat="43.776770029217005" lon="6.334469011053443">
        <ele>971.54999999999995</ele>
        <time>2025-05-18T07:19:06Z</time>
      </trkpt>
      <trkpt lat="43.777482993900776" lon="6.335756974294782">
        <ele>967.70000000000005</ele>
        <time>2025-05-18T07:19:13Z</time>
      </trkpt>
      <trkpt lat="43.777562035247684" lon="6.335952021181583">
        <ele>966.25999999999999</ele>
        <time>2025-05-18T07:19:14Z</time>
      </trkpt>
      <trkpt lat="43.777629006654024" lon="6.336150001734495">
        <ele>965.29999999999995</ele>
        <time>2025-05-18T07:19:15Z</time>
      </trkpt>
      <trkpt lat="43.777694972231984" lon="6.336347982287407">
        <ele>964.34000000000003</ele>
        <time>2025-05-18T07:19:16Z</time>
      </trkpt>
      <trkpt lat="43.777780970558524" lon="6.336532970890403">
        <ele>962.89999999999998</ele>
        <time>2025-05-18T07:19:17Z</time>
      </trkpt>
      <trkpt lat="43.777875015512109" lon="6.336721982806921">
        <ele>961.46000000000004</ele>
        <time>2025-05-18T07:19:18Z</time>
      </trkpt>
      <trkpt lat="43.778319004923105" lon="6.337590012699366">
        <ele>953.27999999999997</ele>
        <time>2025-05-18T07:19:24Z</time>
      </trkpt>
      <trkpt lat="43.778365021571517" lon="6.337677016854286">
        <ele>952.32000000000005</ele>
        <time>2025-05-18T07:19:25Z</time>
      </trkpt>
      <trkpt lat="43.778750002384186" lon="6.338398028165102">
        <ele>947.51999999999998</ele>
        <time>2025-05-18T07:19:34Z</time>
      </trkpt>
      <trkpt lat="43.779236990958452" lon="6.339295981451869">
        <ele>943.66999999999996</ele>
        <time>2025-05-18T07:19:45Z</time>
      </trkpt>
      <trkpt lat="43.779271021485329" lon="6.339351972565055">
        <ele>943.19000000000005</ele>
        <time>2025-05-18T07:19:46Z</time>
      </trkpt>
      <trkpt lat="43.7794020306319" lon="6.339519023895264">
        <ele>942.23000000000002</ele>
        <time>2025-05-18T07:19:49Z</time>
      </trkpt>
      <trkpt lat="43.779443018138409" lon="6.339560011401773">
        <ele>941.75</ele>
        <time>2025-05-18T07:19:50Z</time>
      </trkpt>
      <trkpt lat="43.779486017301679" lon="6.339603010565043">
        <ele>941.75</ele>
        <time>2025-05-18T07:19:51Z</time>
      </trkpt>
      <trkpt lat="43.779614008963108" lon="6.339731002226472">
        <ele>940.30999999999995</ele>
        <time>2025-05-18T07:19:54Z</time>
      </trkpt>
      <trkpt lat="43.779644016176462" lon="6.339761009439826">
        <ele>939.83000000000004</ele>
        <time>2025-05-18T07:19:55Z</time>
      </trkpt>
      <trkpt lat="43.779668994247913" lon="6.339805014431477">
        <ele>939.83000000000004</ele>
        <time>2025-05-18T07:19:56Z</time>
      </trkpt>
      <trkpt lat="43.779681986197829" lon="6.339843990281224">
        <ele>939.83000000000004</ele>
        <time>2025-05-18T07:19:57Z</time>
      </trkpt>
      <trkpt lat="43.779694978147745" lon="6.339881038293243">
        <ele>939.35000000000002</ele>
        <time>2025-05-18T07:19:58Z</time>
      </trkpt>
      <trkpt lat="43.7797059584409" lon="6.339914985001087">
        <ele>939.35000000000002</ele>
        <time>2025-05-18T07:19:59Z</time>
      </trkpt>
      <trkpt lat="43.77972699701786" lon="6.339977011084557">
        <ele>938.86000000000001</ele>
        <time>2025-05-18T07:20:01Z</time>
      </trkpt>
      <trkpt lat="43.779736971482635" lon="6.340008024126291">
        <ele>938.38</ele>
        <time>2025-05-18T07:20:02Z</time>
      </trkpt>
      <trkpt lat="43.77974996343255" lon="6.340045994147658">
        <ele>937.89999999999998</ele>
        <time>2025-05-18T07:20:03Z</time>
      </trkpt>
      <trkpt lat="43.779762033373117" lon="6.340082958340645">
        <ele>937.41999999999996</ele>
        <time>2025-05-18T07:20:04Z</time>
      </trkpt>
      <trkpt lat="43.779774019494653" lon="6.340117994695902">
        <ele>936.46000000000004</ele>
        <time>2025-05-18T07:20:05Z</time>
      </trkpt>
      <trkpt lat="43.779787011444569" lon="6.34015697054565">
        <ele>935.98000000000002</ele>
        <time>2025-05-18T07:20:06Z</time>
      </trkpt>
      <trkpt lat="43.77978902310133" lon="6.340163005515933">
        <ele>935.98000000000002</ele>
        <time>2025-05-18T07:20:07Z</time>
      </trkpt>
      <trkpt lat="43.779795980080962" lon="6.34024296887219">
        <ele>935.98000000000002</ele>
        <time>2025-05-18T07:20:08Z</time>
      </trkpt>
      <trkpt lat="43.779803020879626" lon="6.340302983298898">
        <ele>935.5</ele>
        <time>2025-05-18T07:20:09Z</time>
      </trkpt>
      <trkpt lat="43.779808972030878" lon="6.34036903269589">
        <ele>935.5</ele>
        <time>2025-05-18T07:20:10Z</time>
      </trkpt>
      <trkpt lat="43.779816012829542" lon="6.340438015758991">
        <ele>935.01999999999998</ele>
        <time>2025-05-18T07:20:11Z</time>
      </trkpt>
      <trkpt lat="43.779851971194148" lon="6.340715037658811">
        <ele>935.01999999999998</ele>
        <time>2025-05-18T07:20:15Z</time>
      </trkpt>
      <trkpt lat="43.779874015599489" lon="6.340848980471492">
        <ele>935.01999999999998</ele>
        <time>2025-05-18T07:20:17Z</time>
      </trkpt>
      <trkpt lat="43.779896982014179" lon="6.340904971584678">
        <ele>935.01999999999998</ele>
        <time>2025-05-18T07:20:18Z</time>
      </trkpt>
      <trkpt lat="43.779921038076282" lon="6.340962974354625">
        <ele>935.01999999999998</ele>
        <time>2025-05-18T07:20:19Z</time>
      </trkpt>
      <trkpt lat="43.779970994219184" lon="6.341083003208041">
        <ele>935.5</ele>
        <time>2025-05-18T07:20:21Z</time>
      </trkpt>
      <trkpt lat="43.780018016695976" lon="6.341195991262794">
        <ele>935.98000000000002</ele>
        <time>2025-05-18T07:20:23Z</time>
      </trkpt>
      <trkpt lat="43.780057998374104" lon="6.341293975710869">
        <ele>935.98000000000002</ele>
        <time>2025-05-18T07:20:25Z</time>
      </trkpt>
      <trkpt lat="43.780079036951065" lon="6.341344015672803">
        <ele>936.46000000000004</ele>
        <time>2025-05-18T07:20:26Z</time>
      </trkpt>
      <trkpt lat="43.780123963952065" lon="6.341453986242414">
        <ele>935.5</ele>
        <time>2025-05-18T07:20:28Z</time>
      </trkpt>
      <trkpt lat="43.780141985043883" lon="6.341517018154264">
        <ele>935.01999999999998</ele>
        <time>2025-05-18T07:20:29Z</time>
      </trkpt>
      <trkpt lat="43.780153971165419" lon="6.341568985953927">
        <ele>935.01999999999998</ele>
        <time>2025-05-18T07:20:30Z</time>
      </trkpt>
      <trkpt lat="43.780165035277605" lon="6.341616008430719">
        <ele>934.53999999999996</ele>
        <time>2025-05-18T07:20:31Z</time>
      </trkpt>
      <trkpt lat="43.78017601557076" lon="6.341664036735892">
        <ele>934.53999999999996</ele>
        <time>2025-05-18T07:20:32Z</time>
      </trkpt>
      <trkpt lat="43.780190013349056" lon="6.341722961515188">
        <ele>934.53999999999996</ele>
        <time>2025-05-18T07:20:33Z</time>
      </trkpt>
      <trkpt lat="43.780238041654229" lon="6.341973999515176">
        <ele>933.58000000000004</ele>
        <time>2025-05-18T07:20:36Z</time>
      </trkpt>
      <trkpt lat="43.780333008617163" lon="6.342492001131177">
        <ele>931.64999999999998</ele>
        <time>2025-05-18T07:20:42Z</time>
      </trkpt>
      <trkpt lat="43.780352035537362" lon="6.342572970315814">
        <ele>931.64999999999998</ele>
        <time>2025-05-18T07:20:43Z</time>
      </trkpt>
      <trkpt lat="43.780372990295291" lon="6.342663997784257">
        <ele>931.16999999999996</ele>
        <time>2025-05-18T07:20:44Z</time>
      </trkpt>
      <trkpt lat="43.780396040529013" lon="6.342759970575571">
        <ele>931.16999999999996</ele>
        <time>2025-05-18T07:20:45Z</time>
      </trkpt>
      <trkpt lat="43.780410960316658" lon="6.342824008315802">
        <ele>930.69000000000005</ele>
        <time>2025-05-18T07:20:46Z</time>
      </trkpt>
      <trkpt lat="43.780495030805469" lon="6.342944959178567">
        <ele>930.69000000000005</ele>
        <time>2025-05-18T07:20:47Z</time>
      </trkpt>
      <trkpt lat="43.780565019696951" lon="6.343045961111784">
        <ele>929.73000000000002</ele>
        <time>2025-05-18T07:20:48Z</time>
      </trkpt>
      <trkpt lat="43.780641965568066" lon="6.343158027157188">
        <ele>929.25</ele>
        <time>2025-05-18T07:20:49Z</time>
      </trkpt>
      <trkpt lat="43.781647039577365" lon="6.344585968181491">
        <ele>918.20000000000005</ele>
        <time>2025-05-18T07:21:00Z</time>
      </trkpt>
      <trkpt lat="43.781925989314914" lon="6.345024006441236">
        <ele>916.26999999999998</ele>
        <time>2025-05-18T07:21:03Z</time>
      </trkpt>
      <trkpt lat="43.781963959336281" lon="6.345188962295651">
        <ele>916.26999999999998</ele>
        <time>2025-05-18T07:21:04Z</time>
      </trkpt>
      <trkpt lat="43.781978040933609" lon="6.345357019454241">
        <ele>915.78999999999996</ele>
        <time>2025-05-18T07:21:05Z</time>
      </trkpt>
      <trkpt lat="43.781992960721254" lon="6.345529016107321">
        <ele>915.30999999999995</ele>
        <time>2025-05-18T07:21:06Z</time>
      </trkpt>
      <trkpt lat="43.781978040933609" lon="6.345715010538697">
        <ele>915.30999999999995</ele>
        <time>2025-05-18T07:21:07Z</time>
      </trkpt>
      <trkpt lat="43.781941998749971" lon="6.345895975828171">
        <ele>915.30999999999995</ele>
        <time>2025-05-18T07:21:08Z</time>
      </trkpt>
      <trkpt lat="43.781890030950308" lon="6.346071995794773">
        <ele>914.83000000000004</ele>
        <time>2025-05-18T07:21:09Z</time>
      </trkpt>
      <trkpt lat="43.781834039837122" lon="6.346241980791092">
        <ele>914.83000000000004</ele>
        <time>2025-05-18T07:21:10Z</time>
      </trkpt>
      <trkpt lat="43.781762961298227" lon="6.346381958574057">
        <ele>914.83000000000004</ele>
        <time>2025-05-18T07:21:11Z</time>
      </trkpt>
      <trkpt lat="43.781544025987387" lon="6.346810022369027">
        <ele>914.83000000000004</ele>
        <time>2025-05-18T07:21:14Z</time>
      </trkpt>
      <trkpt lat="43.781071035191417" lon="6.347734965384007">
        <ele>911.95000000000005</ele>
        <time>2025-05-18T07:21:21Z</time>
      </trkpt>
      <trkpt lat="43.780597960576415" lon="6.348811034113169">
        <ele>905.70000000000005</ele>
        <time>2025-05-18T07:21:29Z</time>
      </trkpt>
      <trkpt lat="43.7804139778018" lon="6.34941603988409">
        <ele>903.29999999999995</ele>
        <time>2025-05-18T07:21:33Z</time>
      </trkpt>
      <trkpt lat="43.780383970588446" lon="6.349569009616971">
        <ele>902.82000000000005</ele>
        <time>2025-05-18T07:21:34Z</time>
      </trkpt>
      <trkpt lat="43.780292021110654" lon="6.350961998105049">
        <ele>900.88999999999999</ele>
        <time>2025-05-18T07:21:41Z</time>
      </trkpt>
      <trkpt lat="43.780214991420507" lon="6.353100975975394">
        <ele>896.09000000000003</ele>
        <time>2025-05-18T07:21:52Z</time>
      </trkpt>
      <trkpt lat="43.780163023620844" lon="6.35446697473526">
        <ele>892.72000000000003</ele>
        <time>2025-05-18T07:22:00Z</time>
      </trkpt>
      <trkpt lat="43.780166963115335" lon="6.355071980506182">
        <ele>890.79999999999995</ele>
        <time>2025-05-18T07:22:03Z</time>
      </trkpt>
      <trkpt lat="43.780174003913999" lon="6.355275996029377">
        <ele>890.32000000000005</ele>
        <time>2025-05-18T07:22:04Z</time>
      </trkpt>
      <trkpt lat="43.780212979763746" lon="6.355464002117515">
        <ele>889.84000000000003</ele>
        <time>2025-05-18T07:22:05Z</time>
      </trkpt>
      <trkpt lat="43.780724024400115" lon="6.357638016343117">
        <ele>882.14999999999998</ele>
        <time>2025-05-18T07:22:15Z</time>
      </trkpt>
      <trkpt lat="43.781576966866851" lon="6.360703026875854">
        <ele>872.04999999999995</ele>
        <time>2025-05-18T07:22:28Z</time>
      </trkpt>
      <trkpt lat="43.782033026218414" lon="6.362239010632038">
        <ele>865.32000000000005</ele>
        <time>2025-05-18T07:22:35Z</time>
      </trkpt>
      <trkpt lat="43.782056998461485" lon="6.362445037811995">
        <ele>864.36000000000001</ele>
        <time>2025-05-18T07:22:36Z</time>
      </trkpt>
      <trkpt lat="43.782279035076499" lon="6.364289978519082">
        <ele>857.14999999999998</ele>
        <time>2025-05-18T07:22:45Z</time>
      </trkpt>
      <trkpt lat="43.782324967905879" lon="6.364530958235264">
        <ele>855.71000000000004</ele>
        <time>2025-05-18T07:22:46Z</time>
      </trkpt>
      <trkpt lat="43.783145975321531" lon="6.366933966055512">
        <ele>846.10000000000002</ele>
        <time>2025-05-18T07:22:56Z</time>
      </trkpt>
      <trkpt lat="43.783611003309488" lon="6.368127968162298">
        <ele>839.85000000000002</ele>
        <time>2025-05-18T07:23:01Z</time>
      </trkpt>
      <trkpt lat="43.783703958615661" lon="6.368368025869131">
        <ele>838.40999999999997</ele>
        <time>2025-05-18T07:23:02Z</time>
      </trkpt>
      <trkpt lat="43.784609958529472" lon="6.370527958497405">
        <ele>827.35000000000002</ele>
        <time>2025-05-18T07:23:11Z</time>
      </trkpt>
      <trkpt lat="43.784845992922783" lon="6.37090103700757">
        <ele>825.42999999999995</ele>
        <time>2025-05-18T07:23:13Z</time>
      </trkpt>
      <trkpt lat="43.784972978755832" lon="6.37107496149838">
        <ele>824.47000000000003</ele>
        <time>2025-05-18T07:23:14Z</time>
      </trkpt>
      <trkpt lat="43.785095019266009" lon="6.371240001171827">
        <ele>823.50999999999999</ele>
        <time>2025-05-18T07:23:15Z</time>
      </trkpt>
      <trkpt lat="43.785445969551802" lon="6.371591035276651">
        <ele>820.62</ele>
        <time>2025-05-18T07:23:18Z</time>
      </trkpt>
      <trkpt lat="43.785546971485019" lon="6.371626993641257">
        <ele>819.65999999999997</ele>
        <time>2025-05-18T07:23:19Z</time>
      </trkpt>
      <trkpt lat="43.785646967589855" lon="6.371596986427903">
        <ele>819.17999999999995</ele>
        <time>2025-05-18T07:23:20Z</time>
      </trkpt>
      <trkpt lat="43.785746041685343" lon="6.37156798504293">
        <ele>818.22000000000003</ele>
        <time>2025-05-18T07:23:21Z</time>
      </trkpt>
      <trkpt lat="43.785841008648276" lon="6.371539989486337">
        <ele>817.25999999999999</ele>
        <time>2025-05-18T07:23:22Z</time>
      </trkpt>
      <trkpt lat="43.785931030288339" lon="6.37156899087131">
        <ele>816.29999999999995</ele>
        <time>2025-05-18T07:23:23Z</time>
      </trkpt>
      <trkpt lat="43.786009987816215" lon="6.371607966721058">
        <ele>815.34000000000003</ele>
        <time>2025-05-18T07:23:24Z</time>
      </trkpt>
      <trkpt lat="43.786054998636246" lon="6.371721038594842">
        <ele>813.88999999999999</ele>
        <time>2025-05-18T07:23:25Z</time>
      </trkpt>
      <trkpt lat="43.7860850058496" lon="6.371856993064284">
        <ele>812.92999999999995</ele>
        <time>2025-05-18T07:23:26Z</time>
      </trkpt>
      <trkpt lat="43.786119958385825" lon="6.372012980282307">
        <ele>811.97000000000003</ele>
        <time>2025-05-18T07:23:27Z</time>
      </trkpt>
      <trkpt lat="43.786190031096339" lon="6.372327972203493">
        <ele>809.57000000000005</ele>
        <time>2025-05-18T07:23:29Z</time>
      </trkpt>
      <trkpt lat="43.786248033866286" lon="6.372459987178445">
        <ele>809.09000000000003</ele>
        <time>2025-05-18T07:23:30Z</time>
      </trkpt>
      <trkpt lat="43.786326991394162" lon="6.372583033517003">
        <ele>808.13</ele>
        <time>2025-05-18T07:23:31Z</time>
      </trkpt>
      <trkpt lat="43.786404021084309" lon="6.372701972723007">
        <ele>807.63999999999999</ele>
        <time>2025-05-18T07:23:32Z</time>
      </trkpt>
      <trkpt lat="43.786479039117694" lon="6.372818984091282">
        <ele>807.15999999999997</ele>
        <time>2025-05-18T07:23:33Z</time>
      </trkpt>
      <trkpt lat="43.786604013293982" lon="6.373059041798115">
        <ele>805.72000000000003</ele>
        <time>2025-05-18T07:23:35Z</time>
      </trkpt>
      <trkpt lat="43.786669978871942" lon="6.373378979042172">
        <ele>804.27999999999997</ele>
        <time>2025-05-18T07:23:37Z</time>
      </trkpt>
      <trkpt lat="43.78670702688396" lon="6.373562961816788">
        <ele>804.27999999999997</ele>
        <time>2025-05-18T07:23:38Z</time>
      </trkpt>
      <trkpt lat="43.786747008562088" lon="6.373755997046828">
        <ele>803.79999999999995</ele>
        <time>2025-05-18T07:23:39Z</time>
      </trkpt>
      <trkpt lat="43.787022018805146" lon="6.374455969780684">
        <ele>800.44000000000005</ele>
        <time>2025-05-18T07:23:43Z</time>
      </trkpt>
      <trkpt lat="43.787112962454557" lon="6.374588990584016">
        <ele>799.47000000000003</ele>
        <time>2025-05-18T07:23:44Z</time>
      </trkpt>
      <trkpt lat="43.787233997136354" lon="6.374730980023742">
        <ele>798.99000000000001</ele>
        <time>2025-05-18T07:23:45Z</time>
      </trkpt>
      <trkpt lat="43.787336004897952" lon="6.374788982793689">
        <ele>798.02999999999997</ele>
        <time>2025-05-18T07:23:46Z</time>
      </trkpt>
      <trkpt lat="43.78746198490262" lon="6.374860983341932">
        <ele>797.07000000000005</ele>
        <time>2025-05-18T07:23:47Z</time>
      </trkpt>
      <trkpt lat="43.787587964907289" lon="6.374932983890176">
        <ele>796.11000000000001</ele>
        <time>2025-05-18T07:23:48Z</time>
      </trkpt>
      <trkpt lat="43.787708999589086" lon="6.375017976388335">
        <ele>794.66999999999996</ele>
        <time>2025-05-18T07:23:49Z</time>
      </trkpt>
      <trkpt lat="43.787820981815457" lon="6.375153008848429">
        <ele>793.71000000000004</ele>
        <time>2025-05-18T07:23:50Z</time>
      </trkpt>
      <trkpt lat="43.787936987355351" lon="6.375293992459774">
        <ele>792.25999999999999</ele>
        <time>2025-05-18T07:23:51Z</time>
      </trkpt>
      <trkpt lat="43.788052992895246" lon="6.375433970242739">
        <ele>791.29999999999995</ele>
        <time>2025-05-18T07:23:52Z</time>
      </trkpt>
      <trkpt lat="43.788187019526958" lon="6.375552993267775">
        <ele>790.34000000000003</ele>
        <time>2025-05-18T07:23:53Z</time>
      </trkpt>
      <trkpt lat="43.788329008966684" lon="6.375659024342895">
        <ele>789.38</ele>
        <time>2025-05-18T07:23:54Z</time>
      </trkpt>
      <trkpt lat="43.788472004234791" lon="6.375766983255744">
        <ele>788.41999999999996</ele>
        <time>2025-05-18T07:23:55Z</time>
      </trkpt>
      <trkpt lat="43.788612987846136" lon="6.375872008502483">
        <ele>786.98000000000002</ele>
        <time>2025-05-18T07:23:56Z</time>
      </trkpt>
      <trkpt lat="43.788750031962991" lon="6.375975022092462">
        <ele>786.01999999999998</ele>
        <time>2025-05-18T07:23:57Z</time>
      </trkpt>
      <trkpt lat="43.789466014131904" lon="6.376512972638011">
        <ele>781.69000000000005</ele>
        <time>2025-05-18T07:24:03Z</time>
      </trkpt>
      <trkpt lat="43.789678998291492" lon="6.37678999453783">
        <ele>780.73000000000002</ele>
        <time>2025-05-18T07:24:05Z</time>
      </trkpt>
      <trkpt lat="43.789766002446413" lon="6.376929972320795">
        <ele>779.76999999999998</ele>
        <time>2025-05-18T07:24:06Z</time>
      </trkpt>
      <trkpt lat="43.789831968024373" lon="6.377094006165862">
        <ele>778.80999999999995</ele>
        <time>2025-05-18T07:24:07Z</time>
      </trkpt>
      <trkpt lat="43.789873961359262" lon="6.377249993383884">
        <ele>778.32000000000005</ele>
        <time>2025-05-18T07:24:08Z</time>
      </trkpt>
      <trkpt lat="43.789861975237727" lon="6.377400029450655">
        <ele>777.36000000000001</ele>
        <time>2025-05-18T07:24:09Z</time>
      </trkpt>
      <trkpt lat="43.789788968861103" lon="6.377516034990549">
        <ele>776.88</ele>
        <time>2025-05-18T07:24:10Z</time>
      </trkpt>
      <trkpt lat="43.789705988019705" lon="6.377592980861664">
        <ele>775.91999999999996</ele>
        <time>2025-05-18T07:24:11Z</time>
      </trkpt>
      <trkpt lat="43.789604986086488" lon="6.377685014158487">
        <ele>774.96000000000004</ele>
        <time>2025-05-18T07:24:12Z</time>
      </trkpt>
      <trkpt lat="43.789258981123567" lon="6.378026995807886">
        <ele>772.55999999999995</ele>
        <time>2025-05-18T07:24:15Z</time>
      </trkpt>
      <trkpt lat="43.789159990847111" lon="6.378180971369147">
        <ele>771.60000000000002</ele>
        <time>2025-05-18T07:24:16Z</time>
      </trkpt>
      <trkpt lat="43.788885986432433" lon="6.37870199047029">
        <ele>769.66999999999996</ele>
        <time>2025-05-18T07:24:19Z</time>
      </trkpt>
      <trkpt lat="43.788819015026093" lon="6.378903994336724">
        <ele>768.71000000000004</ele>
        <time>2025-05-18T07:24:20Z</time>
      </trkpt>
      <trkpt lat="43.788786996155977" lon="6.37910800985992">
        <ele>767.75</ele>
        <time>2025-05-18T07:24:21Z</time>
      </trkpt>
      <trkpt lat="43.788767969235778" lon="6.379321999847889">
        <ele>766.78999999999996</ele>
        <time>2025-05-18T07:24:22Z</time>
      </trkpt>
      <trkpt lat="43.78874902613461" lon="6.379522997885943">
        <ele>765.83000000000004</ele>
        <time>2025-05-18T07:24:23Z</time>
      </trkpt>
      <trkpt lat="43.788736034184694" lon="6.379665993154049">
        <ele>765.35000000000002</ele>
        <time>2025-05-18T07:24:24Z</time>
      </trkpt>
      <trkpt lat="43.788645006716251" lon="6.379826003685594">
        <ele>764.87</ele>
        <time>2025-05-18T07:24:25Z</time>
      </trkpt>
      <trkpt lat="43.788564037531614" lon="6.37996799312532">
        <ele>763.89999999999998</ele>
        <time>2025-05-18T07:24:26Z</time>
      </trkpt>
      <trkpt lat="43.788480972871184" lon="6.380113000050187">
        <ele>763.41999999999996</ele>
        <time>2025-05-18T07:24:27Z</time>
      </trkpt>
      <trkpt lat="43.788420036435127" lon="6.380282985046506">
        <ele>762.46000000000004</ele>
        <time>2025-05-18T07:24:28Z</time>
      </trkpt>
      <trkpt lat="43.788367984816432" lon="6.380431009456515">
        <ele>761.98000000000002</ele>
        <time>2025-05-18T07:24:29Z</time>
      </trkpt>
      <trkpt lat="43.788303025066853" lon="6.380488006398082">
        <ele>761.01999999999998</ele>
        <time>2025-05-18T07:24:30Z</time>
      </trkpt>
      <trkpt lat="43.788228007033467" lon="6.380498986691237">
        <ele>760.05999999999995</ele>
        <time>2025-05-18T07:24:31Z</time>
      </trkpt>
      <trkpt lat="43.788153994828463" lon="6.380482977256179">
        <ele>759.58000000000004</ele>
        <time>2025-05-18T07:24:32Z</time>
      </trkpt>
      <trkpt lat="43.78806003369391" lon="6.38044198974967">
        <ele>758.62</ele>
        <time>2025-05-18T07:24:33Z</time>
      </trkpt>
      <trkpt lat="43.787947967648506" lon="6.380393039435148">
        <ele>758.13999999999999</ele>
        <time>2025-05-18T07:24:34Z</time>
      </trkpt>
      <trkpt lat="43.787830034270883" lon="6.380350040271878">
        <ele>757.65999999999997</ele>
        <time>2025-05-18T07:24:35Z</time>
      </trkpt>
      <trkpt lat="43.787702964618802" lon="6.380334030836821">
        <ele>757.17999999999995</ele>
        <time>2025-05-18T07:24:36Z</time>
      </trkpt>
      <trkpt lat="43.78746198490262" lon="6.380391027778387">
        <ele>755.73000000000002</ele>
        <time>2025-05-18T07:24:38Z</time>
      </trkpt>
      <trkpt lat="43.787346985191107" lon="6.380422040820122">
        <ele>754.76999999999998</ele>
        <time>2025-05-18T07:24:39Z</time>
      </trkpt>
      <trkpt lat="43.78705102019012" lon="6.380538968369365">
        <ele>753.33000000000004</ele>
        <time>2025-05-18T07:24:42Z</time>
      </trkpt>
      <trkpt lat="43.786974996328354" lon="6.380595965310931">
        <ele>752.37</ele>
        <time>2025-05-18T07:24:43Z</time>
      </trkpt>
      <trkpt lat="43.786920011043549" lon="6.380698978900909">
        <ele>751.88999999999999</ele>
        <time>2025-05-18T07:24:44Z</time>
      </trkpt>
      <trkpt lat="43.78692302852869" lon="6.380801992490888">
        <ele>750.92999999999995</ele>
        <time>2025-05-18T07:24:45Z</time>
      </trkpt>
      <trkpt lat="43.786934008821845" lon="6.380888996645808">
        <ele>749.97000000000003</ele>
        <time>2025-05-18T07:24:46Z</time>
      </trkpt>
      <trkpt lat="43.786982037127018" lon="6.380953034386039">
        <ele>749</ele>
        <time>2025-05-18T07:24:47Z</time>
      </trkpt>
      <trkpt lat="43.786997962743044" lon="6.380974994972348">
        <ele>748.03999999999996</ele>
        <time>2025-05-18T07:24:48Z</time>
      </trkpt>
      <trkpt lat="43.787083961069584" lon="6.380966026335955">
        <ele>747.55999999999995</ele>
        <time>2025-05-18T07:24:49Z</time>
      </trkpt>
      <trkpt lat="43.787152022123337" lon="6.38095797970891">
        <ele>747.08000000000004</ele>
        <time>2025-05-18T07:24:50Z</time>
      </trkpt>
      <trkpt lat="43.787198960781097" lon="6.380945993587375">
        <ele>746.12</ele>
        <time>2025-05-18T07:24:51Z</time>
      </trkpt>
      <trkpt lat="43.787265010178089" lon="6.380881033837795">
        <ele>745.15999999999997</ele>
        <time>2025-05-18T07:24:52Z</time>
      </trkpt>
      <trkpt lat="43.787342039868236" lon="6.380804004147649">
        <ele>744.20000000000005</ele>
        <time>2025-05-18T07:24:53Z</time>
      </trkpt>
      <trkpt lat="43.787428960204124" lon="6.380715994164348">
        <ele>743.72000000000003</ele>
        <time>2025-05-18T07:24:54Z</time>
      </trkpt>
      <trkpt lat="43.787532979622483" lon="6.380633013322949">
        <ele>742.75999999999999</ele>
        <time>2025-05-18T07:24:55Z</time>
      </trkpt>
      <trkpt lat="43.7876530084759" lon="6.380572998896241">
        <ele>741.78999999999996</ele>
        <time>2025-05-18T07:24:56Z</time>
      </trkpt>
      <trkpt lat="43.787778988480568" lon="6.380609041079879">
        <ele>740.83000000000004</ele>
        <time>2025-05-18T07:24:57Z</time>
      </trkpt>
      <trkpt lat="43.787900023162365" lon="6.380652962252498">
        <ele>739.87</ele>
        <time>2025-05-18T07:24:58Z</time>
      </trkpt>
      <trkpt lat="43.788018962368369" lon="6.380738038569689">
        <ele>738.90999999999997</ele>
        <time>2025-05-18T07:24:59Z</time>
      </trkpt>
      <trkpt lat="43.788388017565012" lon="6.380997039377689">
        <ele>735.07000000000005</ele>
        <time>2025-05-18T07:25:02Z</time>
      </trkpt>
      <trkpt lat="43.788511985912919" lon="6.381060993298888">
        <ele>734.58000000000004</ele>
        <time>2025-05-18T07:25:03Z</time>
      </trkpt>
      <trkpt lat="43.78864299505949" lon="6.381060993298888">
        <ele>734.10000000000002</ele>
        <time>2025-05-18T07:25:04Z</time>
      </trkpt>
      <trkpt lat="43.788772998377681" lon="6.381055964156985">
        <ele>733.13999999999999</ele>
        <time>2025-05-18T07:25:05Z</time>
      </trkpt>
      <trkpt lat="43.788885986432433" lon="6.381017994135618">
        <ele>732.65999999999997</ele>
        <time>2025-05-18T07:25:06Z</time>
      </trkpt>
      <trkpt lat="43.788968967273831" lon="6.380878016352654">
        <ele>732.17999999999995</ele>
        <time>2025-05-18T07:25:07Z</time>
      </trkpt>
      <trkpt lat="43.789053037762642" lon="6.380737032741308">
        <ele>731.70000000000005</ele>
        <time>2025-05-18T07:25:08Z</time>
      </trkpt>
      <trkpt lat="43.789146998897195" lon="6.380578028038144">
        <ele>731.22000000000003</ele>
        <time>2025-05-18T07:25:09Z</time>
      </trkpt>
      <trkpt lat="43.789356965571642" lon="6.380220958963037">
        <ele>729.77999999999997</ele>
        <time>2025-05-18T07:25:11Z</time>
      </trkpt>
      <trkpt lat="43.789470037445426" lon="6.380043011158705">
        <ele>728.82000000000005</ele>
        <time>2025-05-18T07:25:12Z</time>
      </trkpt>
      <trkpt lat="43.78958897665143" lon="6.379899010062218">
        <ele>728.34000000000003</ele>
        <time>2025-05-18T07:25:13Z</time>
      </trkpt>
      <trkpt lat="43.789756027981639" lon="6.379674961790443">
        <ele>726.40999999999997</ele>
        <time>2025-05-18T07:25:15Z</time>
      </trkpt>
      <trkpt lat="43.78980397246778" lon="6.379530960693955">
        <ele>725.92999999999995</ele>
        <time>2025-05-18T07:25:16Z</time>
      </trkpt>
      <trkpt lat="43.789858035743237" lon="6.379369022324681">
        <ele>724.97000000000003</ele>
        <time>2025-05-18T07:25:17Z</time>
      </trkpt>
      <trkpt lat="43.789912015199661" lon="6.379207000136375">
        <ele>724.00999999999999</ele>
        <time>2025-05-18T07:25:18Z</time>
      </trkpt>
      <trkpt lat="43.790013017132878" lon="6.379100969061256">
        <ele>723.52999999999997</ele>
        <time>2025-05-18T07:25:19Z</time>
      </trkpt>
      <trkpt lat="43.790123993530869" lon="6.378993010148406">
        <ele>723.04999999999995</ele>
        <time>2025-05-18T07:25:20Z</time>
      </trkpt>
      <trkpt lat="43.790250979363918" lon="6.378869963809848">
        <ele>722.09000000000003</ele>
        <time>2025-05-18T07:25:21Z</time>
      </trkpt>
      <trkpt lat="43.790389029309154" lon="6.378737026825547">
        <ele>721.61000000000001</ele>
        <time>2025-05-18T07:25:22Z</time>
      </trkpt>
      <trkpt lat="43.790669990703464" lon="6.378480037674308">
        <ele>719.67999999999995</ele>
        <time>2025-05-18T07:25:24Z</time>
      </trkpt>
      <trkpt lat="43.790819020941854" lon="6.378389010205865">
        <ele>718.72000000000003</ele>
        <time>2025-05-18T07:25:25Z</time>
      </trkpt>
      <trkpt lat="43.790957992896438" lon="6.378304017707706">
        <ele>717.27999999999997</ele>
        <time>2025-05-18T07:25:26Z</time>
      </trkpt>
      <trkpt lat="43.791063018143177" lon="6.378188012167811">
        <ele>716.32000000000005</ele>
        <time>2025-05-18T07:25:27Z</time>
      </trkpt>
      <trkpt lat="43.791144993156195" lon="6.378058008849621">
        <ele>715.36000000000001</ele>
        <time>2025-05-18T07:25:28Z</time>
      </trkpt>
      <trkpt lat="43.791227973997593" lon="6.377924988046289">
        <ele>714.39999999999998</ele>
        <time>2025-05-18T07:25:29Z</time>
      </trkpt>
      <trkpt lat="43.791315983980894" lon="6.377784004434943">
        <ele>713.44000000000005</ele>
        <time>2025-05-18T07:25:30Z</time>
      </trkpt>
      <trkpt lat="43.791430983692408" lon="6.377695994451642">
        <ele>711.99000000000001</ele>
        <time>2025-05-18T07:25:31Z</time>
      </trkpt>
      <trkpt lat="43.791549000889063" lon="6.377623993903399">
        <ele>710.54999999999995</ele>
        <time>2025-05-18T07:25:32Z</time>
      </trkpt>
      <trkpt lat="43.791675986722112" lon="6.377585018053651">
        <ele>708.63</ele>
        <time>2025-05-18T07:25:33Z</time>
      </trkpt>
      <trkpt lat="43.79180003888905" lon="6.377603961154819">
        <ele>707.19000000000005</ele>
        <time>2025-05-18T07:25:34Z</time>
      </trkpt>
      <trkpt lat="43.791912021115422" lon="6.377660036087036">
        <ele>705.75</ele>
        <time>2025-05-18T07:25:35Z</time>
      </trkpt>
      <trkpt lat="43.791985027492046" lon="6.377757014706731">
        <ele>704.29999999999995</ele>
        <time>2025-05-18T07:25:36Z</time>
      </trkpt>
      <trkpt lat="43.792061973363161" lon="6.37788500636816">
        <ele>703.34000000000003</ele>
        <time>2025-05-18T07:25:37Z</time>
      </trkpt>
      <trkpt lat="43.792110001668334" lon="6.378017021343112">
        <ele>702.38</ele>
        <time>2025-05-18T07:25:38Z</time>
      </trkpt>
      <trkpt lat="43.79216599278152" lon="6.378174014389515">
        <ele>701.89999999999998</ele>
        <time>2025-05-18T07:25:39Z</time>
      </trkpt>
      <trkpt lat="43.792657004669309" lon="6.379720978438854">
        <ele>699.98000000000002</ele>
        <time>2025-05-18T07:25:48Z</time>
      </trkpt>
      <trkpt lat="43.792675025761127" lon="6.379867997020483">
        <ele>699.98000000000002</ele>
        <time>2025-05-18T07:25:49Z</time>
      </trkpt>
      <trkpt lat="43.792647030204535" lon="6.380025995895267">
        <ele>699.98000000000002</ele>
        <time>2025-05-18T07:25:50Z</time>
      </trkpt>
      <trkpt lat="43.792591961100698" lon="6.380391027778387">
        <ele>700.94000000000005</ele>
        <time>2025-05-18T07:25:52Z</time>
      </trkpt>
      <trkpt lat="43.792579974979162" lon="6.380594037473202">
        <ele>701.41999999999996</ele>
        <time>2025-05-18T07:25:53Z</time>
      </trkpt>
      <trkpt lat="43.792548039928079" lon="6.381012964993715">
        <ele>703.34000000000003</ele>
        <time>2025-05-18T07:25:55Z</time>
      </trkpt>
      <trkpt lat="43.792504034936428" lon="6.381213963031769">
        <ele>704.29999999999995</ele>
        <time>2025-05-18T07:25:56Z</time>
      </trkpt>
      <trkpt lat="43.792460029944777" lon="6.381417978554964">
        <ele>705.25999999999999</ele>
        <time>2025-05-18T07:25:57Z</time>
      </trkpt>
      <trkpt lat="43.792371014133096" lon="6.381601961329579">
        <ele>706.23000000000002</ele>
        <time>2025-05-18T07:25:58Z</time>
      </trkpt>
      <trkpt lat="43.79227202385664" lon="6.38177203014493">
        <ele>707.19000000000005</ele>
        <time>2025-05-18T07:25:59Z</time>
      </trkpt>
      <trkpt lat="43.792174961417913" lon="6.381936985999346">
        <ele>708.14999999999998</ele>
        <time>2025-05-18T07:26:00Z</time>
      </trkpt>
      <trkpt lat="43.791915038600564" lon="6.382383992895484">
        <ele>711.50999999999999</ele>
        <time>2025-05-18T07:26:03Z</time>
      </trkpt>
      <trkpt lat="43.791834991425276" lon="6.382536962628365">
        <ele>712.47000000000003</ele>
        <time>2025-05-18T07:26:04Z</time>
      </trkpt>
      <trkpt lat="43.791782017797232" lon="6.382729997858405">
        <ele>713.44000000000005</ele>
        <time>2025-05-18T07:26:05Z</time>
      </trkpt>
      <trkpt lat="43.791774976998568" lon="6.382941976189613">
        <ele>714.88</ele>
        <time>2025-05-18T07:26:06Z</time>
      </trkpt>
      <trkpt lat="43.791768020018935" lon="6.383157977834344">
        <ele>715.84000000000003</ele>
        <time>2025-05-18T07:26:07Z</time>
      </trkpt>
      <trkpt lat="43.791767014190555" lon="6.383355958387256">
        <ele>716.32000000000005</ele>
        <time>2025-05-18T07:26:08Z</time>
      </trkpt>
      <trkpt lat="43.791808001697063" lon="6.383529966697097">
        <ele>717.27999999999997</ele>
        <time>2025-05-18T07:26:09Z</time>
      </trkpt>
      <trkpt lat="43.791855024173856" lon="6.383709004148841">
        <ele>718.72000000000003</ele>
        <time>2025-05-18T07:26:10Z</time>
      </trkpt>
      <trkpt lat="43.791953008621931" lon="6.38383699581027">
        <ele>719.67999999999995</ele>
        <time>2025-05-18T07:26:11Z</time>
      </trkpt>
      <trkpt lat="43.792045963928103" lon="6.383958030492067">
        <ele>721.13</ele>
        <time>2025-05-18T07:26:12Z</time>
      </trkpt>
      <trkpt lat="43.79214596003294" lon="6.384016033262014">
        <ele>722.57000000000005</ele>
        <time>2025-05-18T07:26:13Z</time>
      </trkpt>
      <trkpt lat="43.792248973622918" lon="6.384061966091394">
        <ele>723.52999999999997</ele>
        <time>2025-05-18T07:26:14Z</time>
      </trkpt>
      <trkpt lat="43.792363973334432" lon="6.384032964706421">
        <ele>724.97000000000003</ele>
        <time>2025-05-18T07:26:15Z</time>
      </trkpt>
      <trkpt lat="43.792493976652622" lon="6.383993988856673">
        <ele>725.92999999999995</ele>
        <time>2025-05-18T07:26:16Z</time>
      </trkpt>
      <trkpt lat="43.792637977749109" lon="6.383951995521784">
        <ele>726.88999999999999</ele>
        <time>2025-05-18T07:26:17Z</time>
      </trkpt>
      <trkpt lat="43.793710023164749" lon="6.383853005245328">
        <ele>736.99000000000001</ele>
        <time>2025-05-18T07:26:24Z</time>
      </trkpt>
      <trkpt lat="43.794408990070224" lon="6.38383598998189">
        <ele>743.72000000000003</ele>
        <time>2025-05-18T07:26:29Z</time>
      </trkpt>
      <trkpt lat="43.794532036408782" lon="6.383812017738819">
        <ele>744.67999999999995</ele>
        <time>2025-05-18T07:26:30Z</time>
      </trkpt>
      <trkpt lat="43.794639995321631" lon="6.383710009977222">
        <ele>745.15999999999997</ele>
        <time>2025-05-18T07:26:31Z</time>
      </trkpt>
      <trkpt lat="43.794748960062861" lon="6.383587969467044">
        <ele>746.12</ele>
        <time>2025-05-18T07:26:32Z</time>
      </trkpt>
      <trkpt lat="43.794863959774375" lon="6.383460983633995">
        <ele>746.60000000000002</ele>
        <time>2025-05-18T07:26:33Z</time>
      </trkpt>
      <trkpt lat="43.795681027695537" lon="6.382635030895472">
        <ele>748.51999999999998</ele>
        <time>2025-05-18T07:26:40Z</time>
      </trkpt>
      <trkpt lat="43.795777000486851" lon="6.382560012862086">
        <ele>749</ele>
        <time>2025-05-18T07:26:41Z</time>
      </trkpt>
      <trkpt lat="43.795864004641771" lon="6.382492035627365">
        <ele>749</ele>
        <time>2025-05-18T07:26:42Z</time>
      </trkpt>
      <trkpt lat="43.795951008796692" lon="6.382528999820352">
        <ele>749</ele>
        <time>2025-05-18T07:26:43Z</time>
      </trkpt>
      <trkpt lat="43.796034995466471" lon="6.382592031732202">
        <ele>749</ele>
        <time>2025-05-18T07:26:44Z</time>
      </trkpt>
      <trkpt lat="43.796124011278152" lon="6.382659003138542">
        <ele>748.51999999999998</ele>
        <time>2025-05-18T07:26:45Z</time>
      </trkpt>
      <trkpt lat="43.796176984906197" lon="6.382754975929856">
        <ele>749</ele>
        <time>2025-05-18T07:26:46Z</time>
      </trkpt>
      <trkpt lat="43.79622501321137" lon="6.382864024490118">
        <ele>749</ele>
        <time>2025-05-18T07:26:47Z</time>
      </trkpt>
      <trkpt lat="43.79622501321137" lon="6.3829530403018">
        <ele>749</ele>
        <time>2025-05-18T07:26:48Z</time>
      </trkpt>
      <trkpt lat="43.796194000169635" lon="6.383056975901127">
        <ele>749</ele>
        <time>2025-05-18T07:26:49Z</time>
      </trkpt>
      <trkpt lat="43.796134991571307" lon="6.383181028068066">
        <ele>749</ele>
        <time>2025-05-18T07:26:50Z</time>
      </trkpt>
      <trkpt lat="43.796070031821728" lon="6.383315976709127">
        <ele>748.51999999999998</ele>
        <time>2025-05-18T07:26:51Z</time>
      </trkpt>
      <trkpt lat="43.795988978818059" lon="6.383485961705446">
        <ele>749</ele>
        <time>2025-05-18T07:26:52Z</time>
      </trkpt>
      <trkpt lat="43.79596802406013" lon="6.383588975295425">
        <ele>749.49000000000001</ele>
        <time>2025-05-18T07:26:53Z</time>
      </trkpt>
      <trkpt lat="43.796002976596355" lon="6.383723001927137">
        <ele>749.97000000000003</ele>
        <time>2025-05-18T07:26:54Z</time>
      </trkpt>
      <trkpt lat="43.79605402238667" lon="6.383844958618283">
        <ele>750.45000000000005</ele>
        <time>2025-05-18T07:26:55Z</time>
      </trkpt>
      <trkpt lat="43.796145971864462" lon="6.383911008015275">
        <ele>750.92999999999995</ele>
        <time>2025-05-18T07:26:56Z</time>
      </trkpt>
      <trkpt lat="43.79624797962606" lon="6.38398502022028">
        <ele>751.40999999999997</ele>
        <time>2025-05-18T07:26:57Z</time>
      </trkpt>
      <trkpt lat="43.796356022357941" lon="6.384061966091394">
        <ele>751.88999999999999</ele>
        <time>2025-05-18T07:26:58Z</time>
      </trkpt>
      <trkpt lat="43.796568000689149" lon="6.384215019643307">
        <ele>752.85000000000002</ele>
        <time>2025-05-18T07:27:00Z</time>
      </trkpt>
      <trkpt lat="43.796637989580631" lon="6.384331025183201">
        <ele>752.85000000000002</ele>
        <time>2025-05-18T07:27:01Z</time>
      </trkpt>
      <trkpt lat="43.796696998178959" lon="6.384430015459657">
        <ele>753.33000000000004</ele>
        <time>2025-05-18T07:27:02Z</time>
      </trkpt>
      <trkpt lat="43.796690963208675" lon="6.384526994079351">
        <ele>753.33000000000004</ele>
        <time>2025-05-18T07:27:03Z</time>
      </trkpt>
      <trkpt lat="43.796680988743901" lon="6.384672001004219">
        <ele>753.80999999999995</ele>
        <time>2025-05-18T07:27:04Z</time>
      </trkpt>
      <trkpt lat="43.796597002074122" lon="6.384986992925406">
        <ele>754.76999999999998</ele>
        <time>2025-05-18T07:27:06Z</time>
      </trkpt>
      <trkpt lat="43.796546962112188" lon="6.385138034820557">
        <ele>755.73000000000002</ele>
        <time>2025-05-18T07:27:07Z</time>
      </trkpt>
      <trkpt lat="43.796422993764281" lon="6.385280024260283">
        <ele>757.17999999999995</ele>
        <time>2025-05-18T07:27:08Z</time>
      </trkpt>
      <trkpt lat="43.796231970191002" lon="6.385517986491323">
        <ele>758.62</ele>
        <time>2025-05-18T07:27:10Z</time>
      </trkpt>
      <trkpt lat="43.796176984906197" lon="6.385655030608177">
        <ele>759.10000000000002</ele>
        <time>2025-05-18T07:27:11Z</time>
      </trkpt>
      <trkpt lat="43.796160975471139" lon="6.385819986462593">
        <ele>759.58000000000004</ele>
        <time>2025-05-18T07:27:12Z</time>
      </trkpt>
      <trkpt lat="43.796160975471139" lon="6.386001035571098">
        <ele>760.05999999999995</ele>
        <time>2025-05-18T07:27:13Z</time>
      </trkpt>
      <trkpt lat="43.796160975471139" lon="6.386192981153727">
        <ele>760.53999999999996</ele>
        <time>2025-05-18T07:27:14Z</time>
      </trkpt>
      <trkpt lat="43.796160975471139" lon="6.386374030262232">
        <ele>761.01999999999998</ele>
        <time>2025-05-18T07:27:15Z</time>
      </trkpt>
      <trkpt lat="43.796089980751276" lon="6.386508978903294">
        <ele>761.5</ele>
        <time>2025-05-18T07:27:16Z</time>
      </trkpt>
      <trkpt lat="43.796003982424736" lon="6.386602018028498">
        <ele>761.98000000000002</ele>
        <time>2025-05-18T07:27:17Z</time>
      </trkpt>
      <trkpt lat="43.7958849593997" lon="6.386663960292935">
        <ele>762.94000000000005</ele>
        <time>2025-05-18T07:27:18Z</time>
      </trkpt>
      <trkpt lat="43.795631993561983" lon="6.386795975267887">
        <ele>763.89999999999998</ele>
        <time>2025-05-18T07:27:20Z</time>
      </trkpt>
      <trkpt lat="43.795525040477514" lon="6.386811984702945">
        <ele>764.38999999999999</ele>
        <time>2025-05-18T07:27:21Z</time>
      </trkpt>
      <trkpt lat="43.795437030494213" lon="6.386752976104617">
        <ele>764.87</ele>
        <time>2025-05-18T07:27:22Z</time>
      </trkpt>
      <trkpt lat="43.795351032167673" lon="6.386666977778077">
        <ele>764.87</ele>
        <time>2025-05-18T07:27:23Z</time>
      </trkpt>
      <trkpt lat="43.795261010527611" lon="6.386577961966395">
        <ele>765.35000000000002</ele>
        <time>2025-05-18T07:27:24Z</time>
      </trkpt>
      <trkpt lat="43.795176018029451" lon="6.386492969468236">
        <ele>765.83000000000004</ele>
        <time>2025-05-18T07:27:25Z</time>
      </trkpt>
      <trkpt lat="43.795081973075867" lon="6.386447036638856">
        <ele>765.83000000000004</ele>
        <time>2025-05-18T07:27:26Z</time>
      </trkpt>
      <trkpt lat="43.794989017769694" lon="6.386491041630507">
        <ele>766.30999999999995</ele>
        <time>2025-05-18T07:27:27Z</time>
      </trkpt>
      <trkpt lat="43.794913999736309" lon="6.386583996936679">
        <ele>766.30999999999995</ele>
        <time>2025-05-18T07:27:28Z</time>
      </trkpt>
      <trkpt lat="43.794843005016446" lon="6.386690028011799">
        <ele>766.78999999999996</ele>
        <time>2025-05-18T07:27:29Z</time>
      </trkpt>
      <trkpt lat="43.794799000024796" lon="6.386841991916299">
        <ele>766.78999999999996</ele>
        <time>2025-05-18T07:27:30Z</time>
      </trkpt>
      <trkpt lat="43.794751977548003" lon="6.387000996619463">
        <ele>766.78999999999996</ele>
        <time>2025-05-18T07:27:31Z</time>
      </trkpt>
      <trkpt lat="43.794745020568371" lon="6.387166958302259">
        <ele>767.26999999999998</ele>
        <time>2025-05-18T07:27:32Z</time>
      </trkpt>
      <trkpt lat="43.794745020568371" lon="6.387326968833804">
        <ele>767.26999999999998</ele>
        <time>2025-05-18T07:27:33Z</time>
      </trkpt>
      <trkpt lat="43.794781984761357" lon="6.387480022385716">
        <ele>766.78999999999996</ele>
        <time>2025-05-18T07:27:34Z</time>
      </trkpt>
      <trkpt lat="43.794837975874543" lon="6.387641038745642">
        <ele>767.26999999999998</ele>
        <time>2025-05-18T07:27:35Z</time>
      </trkpt>
      <trkpt lat="43.794896984472871" lon="6.387813035398722">
        <ele>767.26999999999998</ele>
        <time>2025-05-18T07:27:36Z</time>
      </trkpt>
      <trkpt lat="43.794987006112933" lon="6.388203967362642">
        <ele>767.75</ele>
        <time>2025-05-18T07:27:38Z</time>
      </trkpt>
      <trkpt lat="43.794995974749327" lon="6.388403037562966">
        <ele>768.23000000000002</ele>
        <time>2025-05-18T07:27:39Z</time>
      </trkpt>
      <trkpt lat="43.79500200971961" lon="6.388528011739254">
        <ele>768.23000000000002</ele>
        <time>2025-05-18T07:27:40Z</time>
      </trkpt>
      <trkpt lat="43.794934032484889" lon="6.388697996735573">
        <ele>768.23000000000002</ele>
        <time>2025-05-18T07:27:41Z</time>
      </trkpt>
      <trkpt lat="43.7948730122298" lon="6.388849960640073">
        <ele>768.71000000000004</ele>
        <time>2025-05-18T07:27:42Z</time>
      </trkpt>
      <trkpt lat="43.794805034995079" lon="6.388896983116865">
        <ele>768.71000000000004</ele>
        <time>2025-05-18T07:27:43Z</time>
      </trkpt>
      <trkpt lat="43.794699003919959" lon="6.388969989493489">
        <ele>769.19000000000005</ele>
        <time>2025-05-18T07:27:44Z</time>
      </trkpt>
      <trkpt lat="43.794580986723304" lon="6.389050958678126">
        <ele>769.66999999999996</ele>
        <time>2025-05-18T07:27:45Z</time>
      </trkpt>
      <trkpt lat="43.794467998668551" lon="6.389170987531543">
        <ele>770.14999999999998</ele>
        <time>2025-05-18T07:27:46Z</time>
      </trkpt>
      <trkpt lat="43.794361967593431" lon="6.38931599445641">
        <ele>770.63</ele>
        <time>2025-05-18T07:27:47Z</time>
      </trkpt>
      <trkpt lat="43.794259959831834" lon="6.389477010816336">
        <ele>770.63</ele>
        <time>2025-05-18T07:27:48Z</time>
      </trkpt>
      <trkpt lat="43.794170022010803" lon="6.389656970277429">
        <ele>771.11000000000001</ele>
        <time>2025-05-18T07:27:49Z</time>
      </trkpt>
      <trkpt lat="43.794076982885599" lon="6.389841958880425">
        <ele>771.11000000000001</ele>
        <time>2025-05-18T07:27:50Z</time>
      </trkpt>
      <trkpt lat="43.793985033407807" lon="6.390026025474072">
        <ele>772.08000000000004</ele>
        <time>2025-05-18T07:27:51Z</time>
      </trkpt>
      <trkpt lat="43.79362897016108" lon="6.391146015375853">
        <ele>773.51999999999998</ele>
        <time>2025-05-18T07:27:58Z</time>
      </trkpt>
      <trkpt lat="43.793612960726023" lon="6.391285993158817">
        <ele>774</ele>
        <time>2025-05-18T07:27:59Z</time>
      </trkpt>
      <trkpt lat="43.793521011248231" lon="6.392353009432554">
        <ele>775.91999999999996</ele>
        <time>2025-05-18T07:28:08Z</time>
      </trkpt>
      <trkpt lat="43.793521011248231" lon="6.392467003315687">
        <ele>775.91999999999996</ele>
        <time>2025-05-18T07:28:09Z</time>
      </trkpt>
      <trkpt lat="43.793526962399483" lon="6.392585020512343">
        <ele>775.91999999999996</ele>
        <time>2025-05-18T07:28:10Z</time>
      </trkpt>
      <trkpt lat="43.793558981269598" lon="6.392703959718347">
        <ele>776.39999999999998</ele>
        <time>2025-05-18T07:28:11Z</time>
      </trkpt>
      <trkpt lat="43.793593011796474" lon="6.392828011885285">
        <ele>776.88</ele>
        <time>2025-05-18T07:28:12Z</time>
      </trkpt>
      <trkpt lat="43.79362603649497" lon="6.392951980233192">
        <ele>777.36000000000001</ele>
        <time>2025-05-18T07:28:13Z</time>
      </trkpt>
      <trkpt lat="43.793659983202815" lon="6.393076032400131">
        <ele>777.84000000000003</ele>
        <time>2025-05-18T07:28:14Z</time>
      </trkpt>
      <trkpt lat="43.79367196932435" lon="6.393216010183096">
        <ele>777.84000000000003</ele>
        <time>2025-05-18T07:28:15Z</time>
      </trkpt>
      <trkpt lat="43.79367196932435" lon="6.393488002941012">
        <ele>778.80999999999995</ele>
        <time>2025-05-18T07:28:17Z</time>
      </trkpt>
      <trkpt lat="43.793698037043214" lon="6.393625969067216">
        <ele>779.28999999999996</ele>
        <time>2025-05-18T07:28:18Z</time>
      </trkpt>
      <trkpt lat="43.793746987357736" lon="6.393765024840832">
        <ele>779.76999999999998</ele>
        <time>2025-05-18T07:28:19Z</time>
      </trkpt>
      <trkpt lat="43.793834997341037" lon="6.394074987620115">
        <ele>780.25</ele>
        <time>2025-05-18T07:28:21Z</time>
      </trkpt>
      <trkpt lat="43.793858969584107" lon="6.394250001758337">
        <ele>780.73000000000002</ele>
        <time>2025-05-18T07:28:22Z</time>
      </trkpt>
      <trkpt lat="43.794015040621161" lon="6.395162036642432">
        <ele>782.16999999999996</ele>
        <time>2025-05-18T07:28:28Z</time>
      </trkpt>
      <trkpt lat="43.794087041169405" lon="6.395427994430065">
        <ele>783.13</ele>
        <time>2025-05-18T07:28:30Z</time>
      </trkpt>
      <trkpt lat="43.794101038947701" lon="6.395748015493155">
        <ele>784.09000000000003</ele>
        <time>2025-05-18T07:28:32Z</time>
      </trkpt>
      <trkpt lat="43.794101038947701" lon="6.395923029631376">
        <ele>785.04999999999995</ele>
        <time>2025-05-18T07:28:33Z</time>
      </trkpt>
      <trkpt lat="43.794109001755714" lon="6.396284038200975">
        <ele>786.01999999999998</ele>
        <time>2025-05-18T07:28:35Z</time>
      </trkpt>
      <trkpt lat="43.794115036725998" lon="6.396454023197293">
        <ele>786.5</ele>
        <time>2025-05-18T07:28:36Z</time>
      </trkpt>
      <trkpt lat="43.79412098787725" lon="6.3965970184654">
        <ele>786.98000000000002</ele>
        <time>2025-05-18T07:28:37Z</time>
      </trkpt>
      <trkpt lat="43.794168010354042" lon="6.396695002913475">
        <ele>787.46000000000004</ele>
        <time>2025-05-18T07:28:38Z</time>
      </trkpt>
      <trkpt lat="43.794235987588763" lon="6.396776977926493">
        <ele>787.94000000000005</ele>
        <time>2025-05-18T07:28:39Z</time>
      </trkpt>
      <trkpt lat="43.794311005622149" lon="6.396868005394936">
        <ele>788.89999999999998</ele>
        <time>2025-05-18T07:28:40Z</time>
      </trkpt>
      <trkpt lat="43.794389963150024" lon="6.396962972357869">
        <ele>789.86000000000001</ele>
        <time>2025-05-18T07:28:41Z</time>
      </trkpt>
      <trkpt lat="43.794463975355029" lon="6.397052993997932">
        <ele>790.34000000000003</ele>
        <time>2025-05-18T07:28:42Z</time>
      </trkpt>
      <trkpt lat="43.79452801309526" lon="6.397147038951516">
        <ele>790.82000000000005</ele>
        <time>2025-05-18T07:28:43Z</time>
      </trkpt>
      <trkpt lat="43.794512003660202" lon="6.397259021177888">
        <ele>791.29999999999995</ele>
        <time>2025-05-18T07:28:44Z</time>
      </trkpt>
      <trkpt lat="43.794494988396764" lon="6.397376032546163">
        <ele>791.29999999999995</ele>
        <time>2025-05-18T07:28:45Z</time>
      </trkpt>
      <trkpt lat="43.794480990618467" lon="6.39747804030776">
        <ele>791.29999999999995</ele>
        <time>2025-05-18T07:28:46Z</time>
      </trkpt>
      <trkpt lat="43.794467998668551" lon="6.39756697230041">
        <ele>791.29999999999995</ele>
        <time>2025-05-18T07:28:47Z</time>
      </trkpt>
      <trkpt lat="43.794430028647184" lon="6.397833013907075">
        <ele>791.77999999999997</ele>
        <time>2025-05-18T07:28:51Z</time>
      </trkpt>
      <trkpt lat="43.794420976191759" lon="6.397897973656654">
        <ele>791.77999999999997</ele>
        <time>2025-05-18T07:28:52Z</time>
      </trkpt>
      <trkpt lat="43.794412007555366" lon="6.397961005568504">
        <ele>791.77999999999997</ele>
        <time>2025-05-18T07:28:53Z</time>
      </trkpt>
      <trkpt lat="43.794401027262211" lon="6.398034011945128">
        <ele>791.77999999999997</ele>
        <time>2025-05-18T07:28:54Z</time>
      </trkpt>
      <trkpt lat="43.79437898285687" lon="6.398065024986863">
        <ele>791.29999999999995</ele>
        <time>2025-05-18T07:28:55Z</time>
      </trkpt>
      <trkpt lat="43.794348975643516" lon="6.398106012493372">
        <ele>791.29999999999995</ele>
        <time>2025-05-18T07:28:56Z</time>
      </trkpt>
      <trkpt lat="43.794320980086923" lon="6.39814498834312">
        <ele>791.29999999999995</ele>
        <time>2025-05-18T07:28:57Z</time>
      </trkpt>
      <trkpt lat="43.794149989262223" lon="6.398285971954465">
        <ele>790.34000000000003</ele>
        <time>2025-05-18T07:29:05Z</time>
      </trkpt>
      <trkpt lat="43.794129034504294" lon="6.398330982774496">
        <ele>790.34000000000003</ele>
        <time>2025-05-18T07:29:06Z</time>
      </trkpt>
      <trkpt lat="43.794144038110971" lon="6.398419998586178">
        <ele>790.34000000000003</ele>
        <time>2025-05-18T07:29:07Z</time>
      </trkpt>
      <trkpt lat="43.794135991483927" lon="6.398371970281005">
        <ele>790.34000000000003</ele>
        <time>2025-05-18T07:29:08Z</time>
      </trkpt>
      <trkpt lat="43.794139008969069" lon="6.398390997201204">
        <ele>790.34000000000003</ele>
        <time>2025-05-18T07:29:09Z</time>
      </trkpt>
      <trkpt lat="43.794118976220489" lon="6.398504991084337">
        <ele>789.86000000000001</ele>
        <time>2025-05-18T07:29:18Z</time>
      </trkpt>
      <trkpt lat="43.794100033119321" lon="6.398573974147439">
        <ele>789.38</ele>
        <time>2025-05-18T07:29:19Z</time>
      </trkpt>
      <trkpt lat="43.794016968458891" lon="6.398855019360781">
        <ele>788.89999999999998</ele>
        <time>2025-05-18T07:29:22Z</time>
      </trkpt>
      <trkpt lat="43.794000037014484" lon="6.398991979658604">
        <ele>788.89999999999998</ele>
        <time>2025-05-18T07:29:23Z</time>
      </trkpt>
      <trkpt lat="43.7940130289644" lon="6.399114020168781">
        <ele>788.41999999999996</ele>
        <time>2025-05-18T07:29:24Z</time>
      </trkpt>
      <trkpt lat="43.794100033119321" lon="6.399203035980463">
        <ele>787.94000000000005</ele>
        <time>2025-05-18T07:29:25Z</time>
      </trkpt>
      <trkpt lat="43.794179996475577" lon="6.399273024871945">
        <ele>787.46000000000004</ele>
        <time>2025-05-18T07:29:26Z</time>
      </trkpt>
      <trkpt lat="43.794263983145356" lon="6.39934603124857">
        <ele>786.98000000000002</ele>
        <time>2025-05-18T07:29:27Z</time>
      </trkpt>
      <trkpt lat="43.794361967593431" lon="6.39943496324122">
        <ele>786.5</ele>
        <time>2025-05-18T07:29:28Z</time>
      </trkpt>
      <trkpt lat="43.79444201476872" lon="6.399576030671597">
        <ele>786.5</ele>
        <time>2025-05-18T07:29:29Z</time>
      </trkpt>
      <trkpt lat="43.794534970074892" lon="6.399742998182774">
        <ele>786.01999999999998</ele>
        <time>2025-05-18T07:29:30Z</time>
      </trkpt>
      <trkpt lat="43.794662961736321" lon="6.400083974003792">
        <ele>784.57000000000005</ele>
        <time>2025-05-18T07:29:32Z</time>
      </trkpt>
      <trkpt lat="43.794753989204764" lon="6.400198973715305">
        <ele>784.57000000000005</ele>
        <time>2025-05-18T07:29:33Z</time>
      </trkpt>
      <trkpt lat="43.794900001958013" lon="6.400431990623474">
        <ele>783.61000000000001</ele>
        <time>2025-05-18T07:29:35Z</time>
      </trkpt>
      <trkpt lat="43.794944006949663" lon="6.400564005598426">
        <ele>783.61000000000001</ele>
        <time>2025-05-18T07:29:36Z</time>
      </trkpt>
      <trkpt lat="43.794967979192734" lon="6.400728961452842">
        <ele>783.13</ele>
        <time>2025-05-18T07:29:37Z</time>
      </trkpt>
      <trkpt lat="43.794934032484889" lon="6.400876985862851">
        <ele>782.64999999999998</ele>
        <time>2025-05-18T07:29:38Z</time>
      </trkpt>
      <trkpt lat="43.7948730122298" lon="6.401021992787719">
        <ele>782.16999999999996</ele>
        <time>2025-05-18T07:29:39Z</time>
      </trkpt>
      <trkpt lat="43.794788019731641" lon="6.401160964742303">
        <ele>781.21000000000004</ele>
        <time>2025-05-18T07:29:40Z</time>
      </trkpt>
      <trkpt lat="43.794688023626804" lon="6.401284011080861">
        <ele>780.73000000000002</ele>
        <time>2025-05-18T07:29:41Z</time>
      </trkpt>
      <trkpt lat="43.794573023915291" lon="6.401389958336949">
        <ele>780.25</ele>
        <time>2025-05-18T07:29:42Z</time>
      </trkpt>
      <trkpt lat="43.794444026425481" lon="6.401509987190366">
        <ele>779.28999999999996</ele>
        <time>2025-05-18T07:29:43Z</time>
      </trkpt>
      <trkpt lat="43.794376971200109" lon="6.401604032143951">
        <ele>778.32000000000005</ele>
        <time>2025-05-18T07:29:44Z</time>
      </trkpt>
      <trkpt lat="43.794208997860551" lon="6.401858003810048">
        <ele>775.44000000000005</ele>
        <time>2025-05-18T07:29:47Z</time>
      </trkpt>
      <trkpt lat="43.7941649928689" lon="6.401961017400026">
        <ele>774.96000000000004</ele>
        <time>2025-05-18T07:29:48Z</time>
      </trkpt>
      <trkpt lat="43.794162981212139" lon="6.401995969936252">
        <ele>774.48000000000002</ele>
        <time>2025-05-18T07:29:49Z</time>
      </trkpt>
      <trkpt lat="43.794159963726997" lon="6.402065958827734">
        <ele>774</ele>
        <time>2025-05-18T07:29:50Z</time>
      </trkpt>
      <trkpt lat="43.794155018404126" lon="6.402147011831403">
        <ele>773.03999999999996</ele>
        <time>2025-05-18T07:29:51Z</time>
      </trkpt>
      <trkpt lat="43.79414496012032" lon="6.402332000434399">
        <ele>771.60000000000002</ele>
        <time>2025-05-18T07:29:53Z</time>
      </trkpt>
      <trkpt lat="43.794139008969069" lon="6.402449011802673">
        <ele>771.11000000000001</ele>
        <time>2025-05-18T07:29:54Z</time>
      </trkpt>
      <trkpt lat="43.794085029512644" lon="6.402848996222019">
        <ele>769.66999999999996</ele>
        <time>2025-05-18T07:29:57Z</time>
      </trkpt>
      <trkpt lat="43.794032977893949" lon="6.402974976226687">
        <ele>769.19000000000005</ele>
        <time>2025-05-18T07:29:58Z</time>
      </trkpt>
      <trkpt lat="43.793963994830847" lon="6.403089975938201">
        <ele>768.71000000000004</ele>
        <time>2025-05-18T07:29:59Z</time>
      </trkpt>
      <trkpt lat="43.793728966265917" lon="6.403475040569902">
        <ele>765.83000000000004</ele>
        <time>2025-05-18T07:30:04Z</time>
      </trkpt>
      <trkpt lat="43.79367196932435" lon="6.403570007532835">
        <ele>762.46000000000004</ele>
        <time>2025-05-18T07:30:13Z</time>
      </trkpt>
      <trkpt lat="43.79367196932435" lon="6.403570007532835">
        <ele>762.46000000000004</ele>
        <time>2025-05-18T07:30:43Z</time>
      </trkpt>
      <trkpt lat="43.79367196932435" lon="6.403570007532835">
        <ele>761.5</ele>
        <time>2025-05-18T07:31:33Z</time>
      </trkpt>
      <trkpt lat="43.79367196932435" lon="6.403570007532835">
        <ele>761.01999999999998</ele>
        <time>2025-05-18T07:32:27Z</time>
      </trkpt>
      <trkpt lat="43.793637016788125" lon="6.403650976717472">
        <ele>761.01999999999998</ele>
        <time>2025-05-18T07:32:31Z</time>
      </trkpt>
      <trkpt lat="43.793607009574771" lon="6.403719959780574">
        <ele>761.01999999999998</ele>
        <time>2025-05-18T07:32:32Z</time>
      </trkpt>
      <trkpt lat="43.79362897016108" lon="6.404021037742496">
        <ele>761.01999999999998</ele>
        <time>2025-05-18T07:32:33Z</time>
      </trkpt>
      <trkpt lat="43.79367196932435" lon="6.403570007532835">
        <ele>761.01999999999998</ele>
        <time>2025-05-18T07:32:34Z</time>
      </trkpt>
      <trkpt lat="43.79367196932435" lon="6.403570007532835">
        <ele>761.01999999999998</ele>
        <time>2025-05-18T07:32:35Z</time>
      </trkpt>
      <trkpt lat="43.79380096681416" lon="6.403357023373246">
        <ele>761.01999999999998</ele>
        <time>2025-05-18T07:32:54Z</time>
      </trkpt>
      <trkpt lat="43.79380096681416" lon="6.403357023373246">
        <ele>761.5</ele>
        <time>2025-05-18T07:33:37Z</time>
      </trkpt>
      <trkpt lat="43.79380096681416" lon="6.403357023373246">
        <ele>761.5</ele>
        <time>2025-05-18T07:34:29Z</time>
      </trkpt>
      <trkpt lat="43.79380096681416" lon="6.403357023373246">
        <ele>761.5</ele>
        <time>2025-05-18T07:34:46Z</time>
      </trkpt>
      <trkpt lat="43.793612038716674" lon="6.403782991692424">
        <ele>761.5</ele>
        <time>2025-05-18T07:34:50Z</time>
      </trkpt>
      <trkpt lat="43.793617989867926" lon="6.403876030817628">
        <ele>761.5</ele>
        <time>2025-05-18T07:34:51Z</time>
      </trkpt>
      <trkpt lat="43.79362603649497" lon="6.403982983902097">
        <ele>761.01999999999998</ele>
        <time>2025-05-18T07:34:52Z</time>
      </trkpt>
      <trkpt lat="43.793665012344718" lon="6.40409798361361">
        <ele>761.01999999999998</ele>
        <time>2025-05-18T07:34:53Z</time>
      </trkpt>
      <trkpt lat="43.793724020943046" lon="6.404221029952169">
        <ele>760.53999999999996</ele>
        <time>2025-05-18T07:34:54Z</time>
      </trkpt>
      <trkpt lat="43.793784035369754" lon="6.404346004128456">
        <ele>760.53999999999996</ele>
        <time>2025-05-18T07:34:55Z</time>
      </trkpt>
      <trkpt lat="43.793902974575758" lon="6.404731990769506">
        <ele>759.58000000000004</ele>
        <time>2025-05-18T07:34:58Z</time>
      </trkpt>
      <trkpt lat="43.793894005939364" lon="6.404878003522754">
        <ele>759.10000000000002</ele>
        <time>2025-05-18T07:34:59Z</time>
      </trkpt>
      <trkpt lat="43.793852012604475" lon="6.405250998213887">
        <ele>758.13999999999999</ele>
        <time>2025-05-18T07:35:01Z</time>
      </trkpt>
      <trkpt lat="43.793772971257567" lon="6.405811998993158">
        <ele>756.21000000000004</ele>
        <time>2025-05-18T07:35:04Z</time>
      </trkpt>
      <trkpt lat="43.793727960437536" lon="6.405968992039561">
        <ele>755.73000000000002</ele>
        <time>2025-05-18T07:35:05Z</time>
      </trkpt>
      <trkpt lat="43.79366802982986" lon="6.40609203837812">
        <ele>755.25</ele>
        <time>2025-05-18T07:35:06Z</time>
      </trkpt>
      <trkpt lat="43.79349997267127" lon="6.406363025307655">
        <ele>754.28999999999996</ele>
        <time>2025-05-18T07:35:09Z</time>
      </trkpt>
      <trkpt lat="43.793454961851239" lon="6.406436031684279">
        <ele>753.80999999999995</ele>
        <time>2025-05-18T07:35:10Z</time>
      </trkpt>
      <trkpt lat="43.793411962687969" lon="6.406515995040536">
        <ele>753.33000000000004</ele>
        <time>2025-05-18T07:35:11Z</time>
      </trkpt>
      <trkpt lat="43.793322024866939" lon="6.406706012785435">
        <ele>753.33000000000004</ele>
        <time>2025-05-18T07:35:13Z</time>
      </trkpt>
      <trkpt lat="43.793199984356761" lon="6.407068027183414">
        <ele>753.33000000000004</ele>
        <time>2025-05-18T07:35:14Z</time>
      </trkpt>
      <trkpt lat="43.793199984356761" lon="6.407068027183414">
        <ele>752.85000000000002</ele>
        <time>2025-05-18T07:35:15Z</time>
      </trkpt>
      <trkpt lat="43.793230997398496" lon="6.406926959753037">
        <ele>752.85000000000002</ele>
        <time>2025-05-18T07:35:16Z</time>
      </trkpt>
      <trkpt lat="43.793210964649916" lon="6.407017987221479">
        <ele>752.85000000000002</ele>
        <time>2025-05-18T07:35:17Z</time>
      </trkpt>
      <trkpt lat="43.793236026540399" lon="6.407202975824475">
        <ele>752.85000000000002</ele>
        <time>2025-05-18T07:35:18Z</time>
      </trkpt>
      <trkpt lat="43.793252035975456" lon="6.407257961109281">
        <ele>752.85000000000002</ele>
        <time>2025-05-18T07:35:19Z</time>
      </trkpt>
      <trkpt lat="43.793291011825204" lon="6.407325016334653">
        <ele>752.85000000000002</ele>
        <time>2025-05-18T07:35:20Z</time>
      </trkpt>
      <trkpt lat="43.79332797601819" lon="6.407354017719626">
        <ele>752.37</ele>
        <time>2025-05-18T07:35:21Z</time>
      </trkpt>
      <trkpt lat="43.793378015980124" lon="6.407392993569374">
        <ele>752.37</ele>
        <time>2025-05-18T07:35:22Z</time>
      </trkpt>
      <trkpt lat="43.793894005939364" lon="6.407765988260508">
        <ele>749</ele>
        <time>2025-05-18T07:35:29Z</time>
      </trkpt>
      <trkpt lat="43.793956032022834" lon="6.407797001302242">
        <ele>748.51999999999998</ele>
        <time>2025-05-18T07:35:30Z</time>
      </trkpt>
      <trkpt lat="43.794040018692613" lon="6.407797001302242">
        <ele>748.03999999999996</ele>
        <time>2025-05-18T07:35:31Z</time>
      </trkpt>
      <trkpt lat="43.794103972613811" lon="6.407746039330959">
        <ele>747.08000000000004</ele>
        <time>2025-05-18T07:35:32Z</time>
      </trkpt>
      <trkpt lat="43.794181002303958" lon="6.407659035176039">
        <ele>746.60000000000002</ele>
        <time>2025-05-18T07:35:33Z</time>
      </trkpt>
      <trkpt lat="43.794261971488595" lon="6.407567001879215">
        <ele>745.63999999999999</ele>
        <time>2025-05-18T07:35:34Z</time>
      </trkpt>
      <trkpt lat="43.794345036149025" lon="6.407473962754011">
        <ele>745.15999999999997</ele>
        <time>2025-05-18T07:35:35Z</time>
      </trkpt>
      <trkpt lat="43.794449977576733" lon="6.407400034368038">
        <ele>745.15999999999997</ele>
        <time>2025-05-18T07:35:36Z</time>
      </trkpt>
      <trkpt lat="43.794570006430149" lon="6.407372038811445">
        <ele>744.67999999999995</ele>
        <time>2025-05-18T07:35:37Z</time>
      </trkpt>
      <trkpt lat="43.79467997699976" lon="6.407346976920962">
        <ele>743.72000000000003</ele>
        <time>2025-05-18T07:35:38Z</time>
      </trkpt>
      <trkpt lat="43.794812997803092" lon="6.407390981912613">
        <ele>743.24000000000001</ele>
        <time>2025-05-18T07:35:39Z</time>
      </trkpt>
      <trkpt lat="43.795612966641784" lon="6.407669009640813">
        <ele>737.47000000000003</ele>
        <time>2025-05-18T07:35:45Z</time>
      </trkpt>
      <trkpt lat="43.796113030984998" lon="6.408008979633451">
        <ele>734.10000000000002</ele>
        <time>2025-05-18T07:35:50Z</time>
      </trkpt>
      <trkpt lat="43.796144966036081" lon="6.408110987395048">
        <ele>733.13999999999999</ele>
        <time>2025-05-18T07:35:51Z</time>
      </trkpt>
      <trkpt lat="43.7961820140481" lon="6.408248031511903">
        <ele>732.17999999999995</ele>
        <time>2025-05-18T07:35:52Z</time>
      </trkpt>
      <trkpt lat="43.796149995177984" lon="6.408345010131598">
        <ele>731.22000000000003</ele>
        <time>2025-05-18T07:35:53Z</time>
      </trkpt>
      <trkpt lat="43.796109007671475" lon="6.408466966822743">
        <ele>729.77999999999997</ele>
        <time>2025-05-18T07:35:54Z</time>
      </trkpt>
      <trkpt lat="43.796065002679825" lon="6.408598981797695">
        <ele>728.34000000000003</ele>
        <time>2025-05-18T07:35:55Z</time>
      </trkpt>
      <trkpt lat="43.796018986031413" lon="6.40873703174293">
        <ele>726.88999999999999</ele>
        <time>2025-05-18T07:35:56Z</time>
      </trkpt>
      <trkpt lat="43.795985039323568" lon="6.408873992040753">
        <ele>725.92999999999995</ele>
        <time>2025-05-18T07:35:57Z</time>
      </trkpt>
      <trkpt lat="43.795950002968311" lon="6.409020004794002">
        <ele>724.49000000000001</ele>
        <time>2025-05-18T07:35:58Z</time>
      </trkpt>
      <trkpt lat="43.79592502489686" lon="6.409291997551918">
        <ele>722.09000000000003</ele>
        <time>2025-05-18T07:36:00Z</time>
      </trkpt>
      <trkpt lat="43.79592502489686" lon="6.409406997263432">
        <ele>720.64999999999998</ele>
        <time>2025-05-18T07:36:01Z</time>
      </trkpt>
      <trkpt lat="43.795971041545272" lon="6.409487966448069">
        <ele>719.20000000000005</ele>
        <time>2025-05-18T07:36:02Z</time>
      </trkpt>
      <trkpt lat="43.796022003516555" lon="6.409569019451737">
        <ele>718.24000000000001</ele>
        <time>2025-05-18T07:36:03Z</time>
      </trkpt>
      <trkpt lat="43.796082017943263" lon="6.409634985029697">
        <ele>716.79999999999995</ele>
        <time>2025-05-18T07:36:04Z</time>
      </trkpt>
      <trkpt lat="43.796131974086165" lon="6.409689970314503">
        <ele>714.88</ele>
        <time>2025-05-18T07:36:05Z</time>
      </trkpt>
      <trkpt lat="43.796175979077816" lon="6.409737998619676">
        <ele>712.95000000000005</ele>
        <time>2025-05-18T07:36:06Z</time>
      </trkpt>
      <trkpt lat="43.796214032918215" lon="6.409778986126185">
        <ele>710.54999999999995</ele>
        <time>2025-05-18T07:36:07Z</time>
      </trkpt>
      <trkpt lat="43.796244040131569" lon="6.409837994724512">
        <ele>708.63</ele>
        <time>2025-05-18T07:36:08Z</time>
      </trkpt>
      <trkpt lat="43.796231970191002" lon="6.40996397472918">
        <ele>705.75</ele>
        <time>2025-05-18T07:36:09Z</time>
      </trkpt>
      <trkpt lat="43.796218978241086" lon="6.410088026896119">
        <ele>703.34000000000003</ele>
        <time>2025-05-18T07:36:10Z</time>
      </trkpt>
      <trkpt lat="43.796203974634409" lon="6.410244014114142">
        <ele>700.94000000000005</ele>
        <time>2025-05-18T07:36:11Z</time>
      </trkpt>
      <trkpt lat="43.796217972412705" lon="6.410340992733836">
        <ele>699.01999999999998</ele>
        <time>2025-05-18T07:36:12Z</time>
      </trkpt>
      <trkpt lat="43.796234987676144" lon="6.410450041294098">
        <ele>697.57000000000005</ele>
        <time>2025-05-18T07:36:13Z</time>
      </trkpt>
      <trkpt lat="43.796250997111201" lon="6.41056202352047">
        <ele>696.13</ele>
        <time>2025-05-18T07:36:14Z</time>
      </trkpt>
      <trkpt lat="43.79626801237464" lon="6.410676017403603">
        <ele>694.69000000000005</ele>
        <time>2025-05-18T07:36:15Z</time>
      </trkpt>
      <trkpt lat="43.796284021809697" lon="6.410779030993581">
        <ele>693.25</ele>
        <time>2025-05-18T07:36:16Z</time>
      </trkpt>
      <trkpt lat="43.796328026801348" lon="6.411073990166187">
        <ele>686.03999999999996</ele>
        <time>2025-05-18T07:36:22Z</time>
      </trkpt>
      <trkpt lat="43.796328026801348" lon="6.411073990166187">
        <ele>684.60000000000002</ele>
        <time>2025-05-18T07:36:36Z</time>
      </trkpt>
      <trkpt lat="43.79633498378098" lon="6.411105003207922">
        <ele>684.60000000000002</ele>
        <time>2025-05-18T07:37:09Z</time>
      </trkpt>
      <trkpt lat="43.796358034014702" lon="6.411138027906418">
        <ele>686.03999999999996</ele>
        <time>2025-05-18T07:37:10Z</time>
      </trkpt>
      <trkpt lat="43.796391980722547" lon="6.411184966564179">
        <ele>687</ele>
        <time>2025-05-18T07:37:11Z</time>
      </trkpt>
      <trkpt lat="43.796435985714197" lon="6.411246992647648">
        <ele>687.96000000000004</ele>
        <time>2025-05-18T07:37:12Z</time>
      </trkpt>
      <trkpt lat="43.796488037332892" lon="6.411318993195891">
        <ele>687.96000000000004</ele>
        <time>2025-05-18T07:37:13Z</time>
      </trkpt>
      <trkpt lat="43.796546962112188" lon="6.41140197403729">
        <ele>687.96000000000004</ele>
        <time>2025-05-18T07:37:14Z</time>
      </trkpt>
      <trkpt lat="43.796586021780968" lon="6.411523008719087">
        <ele>687.96000000000004</ele>
        <time>2025-05-18T07:37:15Z</time>
      </trkpt>
      <trkpt lat="43.796630026772618" lon="6.411662986502051">
        <ele>687.96000000000004</ele>
        <time>2025-05-18T07:37:16Z</time>
      </trkpt>
      <trkpt lat="43.796677971258759" lon="6.411813022568822">
        <ele>687.96000000000004</ele>
        <time>2025-05-18T07:37:17Z</time>
      </trkpt>
      <trkpt lat="43.796733962371945" lon="6.4119609631598">
        <ele>687.96000000000004</ele>
        <time>2025-05-18T07:37:18Z</time>
      </trkpt>
      <trkpt lat="43.796813003718853" lon="6.412079986184835">
        <ele>687.96000000000004</ele>
        <time>2025-05-18T07:37:19Z</time>
      </trkpt>
      <trkpt lat="43.79689103923738" lon="6.41219699755311">
        <ele>687.48000000000002</ele>
        <time>2025-05-18T07:37:20Z</time>
      </trkpt>
      <trkpt lat="43.796973014250398" lon="6.412292970344424">
        <ele>687.48000000000002</ele>
        <time>2025-05-18T07:37:21Z</time>
      </trkpt>
      <trkpt lat="43.797048032283783" lon="6.412382991984487">
        <ele>687.48000000000002</ele>
        <time>2025-05-18T07:37:22Z</time>
      </trkpt>
      <trkpt lat="43.797119027003646" lon="6.412465972825885">
        <ele>687</ele>
        <time>2025-05-18T07:37:23Z</time>
      </trkpt>
      <trkpt lat="43.797149034217" lon="6.412578960880637">
        <ele>686.51999999999998</ele>
        <time>2025-05-18T07:37:24Z</time>
      </trkpt>
      <trkpt lat="43.797162026166916" lon="6.412680968642235">
        <ele>686.03999999999996</ele>
        <time>2025-05-18T07:37:25Z</time>
      </trkpt>
      <trkpt lat="43.797117015346885" lon="6.412767972797155">
        <ele>685.55999999999995</ele>
        <time>2025-05-18T07:37:26Z</time>
      </trkpt>
      <trkpt lat="43.797060018405318" lon="6.412875009700656">
        <ele>684.60000000000002</ele>
        <time>2025-05-18T07:37:27Z</time>
      </trkpt>
      <trkpt lat="43.796997992321849" lon="6.41299101524055">
        <ele>684.12</ele>
        <time>2025-05-18T07:37:28Z</time>
      </trkpt>
      <trkpt lat="43.79693697206676" lon="6.413106014952064">
        <ele>683.63</ele>
        <time>2025-05-18T07:37:29Z</time>
      </trkpt>
      <trkpt lat="43.796877041459084" lon="6.413217997178435">
        <ele>682.66999999999996</ele>
        <time>2025-05-18T07:37:30Z</time>
      </trkpt>
      <trkpt lat="43.796804035082459" lon="6.41335504129529">
        <ele>682.19000000000005</ele>
        <time>2025-05-18T07:37:31Z</time>
      </trkpt>
      <trkpt lat="43.796799005940557" lon="6.413497030735016">
        <ele>682.66999999999996</ele>
        <time>2025-05-18T07:37:32Z</time>
      </trkpt>
      <trkpt lat="43.796787019819021" lon="6.413794001564384">
        <ele>683.14999999999998</ele>
        <time>2025-05-18T07:37:34Z</time>
      </trkpt>
      <trkpt lat="43.796771010383964" lon="6.413922999054194">
        <ele>683.63</ele>
        <time>2025-05-18T07:37:35Z</time>
      </trkpt>
      <trkpt lat="43.796716025099158" lon="6.414071023464203">
        <ele>683.63</ele>
        <time>2025-05-18T07:37:36Z</time>
      </trkpt>
      <trkpt lat="43.796518966555595" lon="6.414490034803748">
        <ele>683.14999999999998</ele>
        <time>2025-05-18T07:37:39Z</time>
      </trkpt>
      <trkpt lat="43.796433974057436" lon="6.414589025080204">
        <ele>682.66999999999996</ele>
        <time>2025-05-18T07:37:40Z</time>
      </trkpt>
      <trkpt lat="43.796346969902515" lon="6.414692960679531">
        <ele>682.19000000000005</ele>
        <time>2025-05-18T07:37:41Z</time>
      </trkpt>
      <trkpt lat="43.796264994889498" lon="6.414789017289877">
        <ele>681.71000000000004</ele>
        <time>2025-05-18T07:37:42Z</time>
      </trkpt>
      <trkpt lat="43.796217972412705" lon="6.414910973981023">
        <ele>681.23000000000002</ele>
        <time>2025-05-18T07:37:43Z</time>
      </trkpt>
      <trkpt lat="43.79620598629117" lon="6.415036031976342">
        <ele>680.75</ele>
        <time>2025-05-18T07:37:44Z</time>
      </trkpt>
      <trkpt lat="43.796192994341254" lon="6.415171986445785">
        <ele>680.26999999999998</ele>
        <time>2025-05-18T07:37:45Z</time>
      </trkpt>
      <trkpt lat="43.796163992956281" lon="6.415314981713891">
        <ele>679.30999999999995</ele>
        <time>2025-05-18T07:37:46Z</time>
      </trkpt>
      <trkpt lat="43.796100039035082" lon="6.41541900113225">
        <ele>678.83000000000004</ele>
        <time>2025-05-18T07:37:47Z</time>
      </trkpt>
      <trkpt lat="43.796029966324568" lon="6.415534000843763">
        <ele>678.35000000000002</ele>
        <time>2025-05-18T07:37:48Z</time>
      </trkpt>
      <trkpt lat="43.795976992696524" lon="6.415693005546928">
        <ele>677.38999999999999</ele>
        <time>2025-05-18T07:37:49Z</time>
      </trkpt>
      <trkpt lat="43.795931981876493" lon="6.415861984714866">
        <ele>676.90999999999997</ele>
        <time>2025-05-18T07:37:50Z</time>
      </trkpt>
      <trkpt lat="43.795872973278165" lon="6.416023001074791">
        <ele>675.94000000000005</ele>
        <time>2025-05-18T07:37:51Z</time>
      </trkpt>
      <trkpt lat="43.795786974951625" lon="6.416162978857756">
        <ele>674.98000000000002</ele>
        <time>2025-05-18T07:37:52Z</time>
      </trkpt>
      <trkpt lat="43.795695025473833" lon="6.416313014924526">
        <ele>674.01999999999998</ele>
        <time>2025-05-18T07:37:53Z</time>
      </trkpt>
      <trkpt lat="43.795597963035107" lon="6.41647101379931">
        <ele>673.05999999999995</ele>
        <time>2025-05-18T07:37:54Z</time>
      </trkpt>
      <trkpt lat="43.795496039092541" lon="6.416636975482106">
        <ele>672.10000000000002</ele>
        <time>2025-05-18T07:37:55Z</time>
      </trkpt>
      <trkpt lat="43.79452901892364" lon="6.418081009760499">
        <ele>662.97000000000003</ele>
        <time>2025-05-18T07:38:04Z</time>
      </trkpt>
      <trkpt lat="43.794423993676901" lon="6.418205983936787">
        <ele>662.49000000000001</ele>
        <time>2025-05-18T07:38:05Z</time>
      </trkpt>
      <trkpt lat="43.794317962601781" lon="6.418331963941455">
        <ele>661.51999999999998</ele>
        <time>2025-05-18T07:38:06Z</time>
      </trkpt>
      <trkpt lat="43.794213021174073" lon="6.418456016108394">
        <ele>660.55999999999995</ele>
        <time>2025-05-18T07:38:07Z</time>
      </trkpt>
      <trkpt lat="43.794155018404126" lon="6.41862097196281">
        <ele>660.08000000000004</ele>
        <time>2025-05-18T07:38:08Z</time>
      </trkpt>
      <trkpt lat="43.794100033119321" lon="6.418788023293018">
        <ele>659.60000000000002</ele>
        <time>2025-05-18T07:38:09Z</time>
      </trkpt>
      <trkpt lat="43.794043036177754" lon="6.418957002460957">
        <ele>659.12</ele>
        <time>2025-05-18T07:38:10Z</time>
      </trkpt>
      <trkpt lat="43.793923007324338" lon="6.419294960796833">
        <ele>657.67999999999995</ele>
        <time>2025-05-18T07:38:12Z</time>
      </trkpt>
      <trkpt lat="43.793793004006147" lon="6.419644989073277">
        <ele>656.24000000000001</ele>
        <time>2025-05-18T07:38:14Z</time>
      </trkpt>
      <trkpt lat="43.793663000687957" lon="6.419993005692959">
        <ele>654.79999999999995</ele>
        <time>2025-05-18T07:38:16Z</time>
      </trkpt>
      <trkpt lat="43.79358597099781" lon="6.420101970434189">
        <ele>654.30999999999995</ele>
        <time>2025-05-18T07:38:17Z</time>
      </trkpt>
      <trkpt lat="43.793509025126696" lon="6.420190986245871">
        <ele>653.83000000000004</ele>
        <time>2025-05-18T07:38:18Z</time>
      </trkpt>
      <trkpt lat="43.793427972123027" lon="6.420285031199455">
        <ele>652.87</ele>
        <time>2025-05-18T07:38:19Z</time>
      </trkpt>
      <trkpt lat="43.793341973796487" lon="6.420400030910969">
        <ele>652.38999999999999</ele>
        <time>2025-05-18T07:38:20Z</time>
      </trkpt>
      <trkpt lat="43.793265027925372" lon="6.420531962066889">
        <ele>651.90999999999997</ele>
        <time>2025-05-18T07:38:21Z</time>
      </trkpt>
      <trkpt lat="43.793185986578465" lon="6.420666994526982">
        <ele>651.42999999999995</ele>
        <time>2025-05-18T07:38:22Z</time>
      </trkpt>
      <trkpt lat="43.793105017393827" lon="6.420806972309947">
        <ele>650.47000000000003</ele>
        <time>2025-05-18T07:38:23Z</time>
      </trkpt>
      <trkpt lat="43.793041985481977" lon="6.420979974791408">
        <ele>649.99000000000001</ele>
        <time>2025-05-18T07:38:24Z</time>
      </trkpt>
      <trkpt lat="43.79300401546061" lon="6.42113302834332">
        <ele>649.02999999999997</ele>
        <time>2025-05-18T07:38:25Z</time>
      </trkpt>
      <trkpt lat="43.792968979105353" lon="6.421273006126285">
        <ele>648.54999999999995</ele>
        <time>2025-05-18T07:38:26Z</time>
      </trkpt>
      <trkpt lat="43.792907958850265" lon="6.421357998624444">
        <ele>647.59000000000003</ele>
        <time>2025-05-18T07:38:27Z</time>
      </trkpt>
      <trkpt lat="43.792825983837247" lon="6.421451959758997">
        <ele>646.62</ele>
        <time>2025-05-18T07:38:28Z</time>
      </trkpt>
      <trkpt lat="43.792734034359455" lon="6.421557990834117">
        <ele>646.13999999999999</ele>
        <time>2025-05-18T07:38:29Z</time>
      </trkpt>
      <trkpt lat="43.792634960263968" lon="6.421670978888869">
        <ele>645.17999999999995</ele>
        <time>2025-05-18T07:38:30Z</time>
      </trkpt>
      <trkpt lat="43.79253395833075" lon="6.421787990257144">
        <ele>644.22000000000003</ele>
        <time>2025-05-18T07:38:31Z</time>
      </trkpt>
      <trkpt lat="43.792441003024578" lon="6.421854961663485">
        <ele>643.25999999999999</ele>
        <time>2025-05-18T07:38:32Z</time>
      </trkpt>
      <trkpt lat="43.792341006919742" lon="6.421926040202379">
        <ele>642.29999999999995</ele>
        <time>2025-05-18T07:38:33Z</time>
      </trkpt>
      <trkpt lat="43.792241010814905" lon="6.421997034922242">
        <ele>641.34000000000003</ele>
        <time>2025-05-18T07:38:34Z</time>
      </trkpt>
      <trkpt lat="43.792150989174843" lon="6.422061994671822">
        <ele>639.88999999999999</ele>
        <time>2025-05-18T07:38:35Z</time>
      </trkpt>
      <trkpt lat="43.792072031646967" lon="6.422138018533588">
        <ele>638.92999999999995</ele>
        <time>2025-05-18T07:38:36Z</time>
      </trkpt>
      <trkpt lat="43.792027020826936" lon="6.422247989103198">
        <ele>637.97000000000003</ele>
        <time>2025-05-18T07:38:37Z</time>
      </trkpt>
      <trkpt lat="43.791977986693382" lon="6.422368017956615">
        <ele>637.00999999999999</ele>
        <time>2025-05-18T07:38:38Z</time>
      </trkpt>
      <trkpt lat="43.791890982538462" lon="6.422582007944584">
        <ele>635.57000000000005</ele>
        <time>2025-05-18T07:38:40Z</time>
      </trkpt>
      <trkpt lat="43.79179903306067" lon="6.422699019312859">
        <ele>635.09000000000003</ele>
        <time>2025-05-18T07:38:41Z</time>
      </trkpt>
      <trkpt lat="43.791700964793563" lon="6.422824999317527">
        <ele>634.61000000000001</ele>
        <time>2025-05-18T07:38:42Z</time>
      </trkpt>
      <trkpt lat="43.790978025645018" lon="6.424053031951189">
        <ele>632.20000000000005</ele>
        <time>2025-05-18T07:38:50Z</time>
      </trkpt>
      <trkpt lat="43.790933014824986" lon="6.424187980592251">
        <ele>631.72000000000003</ele>
        <time>2025-05-18T07:38:51Z</time>
      </trkpt>
      <trkpt lat="43.790904013440013" lon="6.424354026094079">
        <ele>631.24000000000001</ele>
        <time>2025-05-18T07:38:52Z</time>
      </trkpt>
      <trkpt lat="43.790904013440013" lon="6.424503978341818">
        <ele>631.24000000000001</ele>
        <time>2025-05-18T07:38:53Z</time>
      </trkpt>
      <trkpt lat="43.790945000946522" lon="6.424654014408588">
        <ele>630.75999999999999</ele>
        <time>2025-05-18T07:38:54Z</time>
      </trkpt>
      <trkpt lat="43.790986994281411" lon="6.424794998019934">
        <ele>630.27999999999997</ele>
        <time>2025-05-18T07:38:55Z</time>
      </trkpt>
      <trkpt lat="43.791230991482735" lon="6.425771992653608">
        <ele>627.39999999999998</ele>
        <time>2025-05-18T07:39:00Z</time>
      </trkpt>
      <trkpt lat="43.791303997859359" lon="6.426143981516361">
        <ele>626.91999999999996</ele>
        <time>2025-05-18T07:39:02Z</time>
      </trkpt>
      <trkpt lat="43.791424026712775" lon="6.426962977275252">
        <ele>624.99000000000001</ele>
        <time>2025-05-18T07:39:06Z</time>
      </trkpt>
      <trkpt lat="43.791461996734142" lon="6.427260031923652">
        <ele>624.02999999999997</ele>
        <time>2025-05-18T07:39:07Z</time>
      </trkpt>
      <trkpt lat="43.791496027261019" lon="6.427406966686249">
        <ele>623.07000000000005</ele>
        <time>2025-05-18T07:39:08Z</time>
      </trkpt>
      <trkpt lat="43.791655031964183" lon="6.428095959126949">
        <ele>619.23000000000002</ele>
        <time>2025-05-18T07:39:12Z</time>
      </trkpt>
      <trkpt lat="43.791655031964183" lon="6.428095959126949">
        <ele>618.25999999999999</ele>
        <time>2025-05-18T07:39:13Z</time>
      </trkpt>
      <trkpt lat="43.791604992002249" lon="6.428284971043468">
        <ele>617.29999999999995</ele>
        <time>2025-05-18T07:39:14Z</time>
      </trkpt>
      <trkpt lat="43.791574984788895" lon="6.428399970754981">
        <ele>615.86000000000001</ele>
        <time>2025-05-18T07:39:15Z</time>
      </trkpt>
      <trkpt lat="43.791546989232302" lon="6.42856802791357">
        <ele>614.89999999999998</ele>
        <time>2025-05-18T07:39:16Z</time>
      </trkpt>
      <trkpt lat="43.791546989232302" lon="6.428704988211393">
        <ele>613.46000000000004</ele>
        <time>2025-05-18T07:39:17Z</time>
      </trkpt>
      <trkpt lat="43.791604992002249" lon="6.428876984864473">
        <ele>612.98000000000002</ele>
        <time>2025-05-18T07:39:18Z</time>
      </trkpt>
      <trkpt lat="43.791656037792563" lon="6.42899801954627">
        <ele>612.01999999999998</ele>
        <time>2025-05-18T07:39:19Z</time>
      </trkpt>
      <trkpt lat="43.791711023077369" lon="6.429129028692842">
        <ele>611.05999999999995</ele>
        <time>2025-05-18T07:39:20Z</time>
      </trkpt>
      <trkpt lat="43.791777994483709" lon="6.42921200953424">
        <ele>612.5</ele>
        <time>2025-05-18T07:39:21Z</time>
      </trkpt>
      <trkpt lat="43.791848989203572" lon="6.429288033396006">
        <ele>613.46000000000004</ele>
        <time>2025-05-18T07:39:22Z</time>
      </trkpt>
      <trkpt lat="43.791991984471679" lon="6.429455000907183">
        <ele>614.89999999999998</ele>
        <time>2025-05-18T07:39:24Z</time>
      </trkpt>
      <trkpt lat="43.792250985279679" lon="6.429984988644719">
        <ele>617.77999999999997</ele>
        <time>2025-05-18T07:39:28Z</time>
      </trkpt>
      <trkpt lat="43.792304964736104" lon="6.4301379583776">
        <ele>618.25999999999999</ele>
        <time>2025-05-18T07:39:29Z</time>
      </trkpt>
      <trkpt lat="43.79249095916748" lon="6.430670963600278">
        <ele>618.25999999999999</ele>
        <time>2025-05-18T07:39:32Z</time>
      </trkpt>
      <trkpt lat="43.792599001899362" lon="6.431035995483398">
        <ele>617.77999999999997</ele>
        <time>2025-05-18T07:39:35Z</time>
      </trkpt>
      <trkpt lat="43.792599001899362" lon="6.431164992973208">
        <ele>617.29999999999995</ele>
        <time>2025-05-18T07:39:36Z</time>
      </trkpt>
      <trkpt lat="43.792599001899362" lon="6.431293990463018">
        <ele>616.82000000000005</ele>
        <time>2025-05-18T07:39:37Z</time>
      </trkpt>
      <trkpt lat="43.792551979422569" lon="6.431400021538138">
        <ele>616.34000000000003</ele>
        <time>2025-05-18T07:39:38Z</time>
      </trkpt>
      <trkpt lat="43.79248802550137" lon="6.431519966572523">
        <ele>616.34000000000003</ele>
        <time>2025-05-18T07:39:39Z</time>
      </trkpt>
      <trkpt lat="43.792405966669321" lon="6.431629015132785">
        <ele>616.34000000000003</ele>
        <time>2025-05-18T07:39:40Z</time>
      </trkpt>
      <trkpt lat="43.792319968342781" lon="6.431743009015918">
        <ele>615.86000000000001</ele>
        <time>2025-05-18T07:39:41Z</time>
      </trkpt>
      <trkpt lat="43.792245034128428" lon="6.431864965707064">
        <ele>616.34000000000003</ele>
        <time>2025-05-18T07:39:42Z</time>
      </trkpt>
      <trkpt lat="43.792203040793538" lon="6.432007038965821">
        <ele>616.34000000000003</ele>
        <time>2025-05-18T07:39:43Z</time>
      </trkpt>
      <trkpt lat="43.792161969467998" lon="6.432149028405547">
        <ele>616.34000000000003</ele>
        <time>2025-05-18T07:39:44Z</time>
      </trkpt>
      <trkpt lat="43.792164986953139" lon="6.432308033108711">
        <ele>616.82000000000005</ele>
        <time>2025-05-18T07:39:45Z</time>
      </trkpt>
      <trkpt lat="43.7921860255301" lon="6.432438036426902">
        <ele>616.82000000000005</ele>
        <time>2025-05-18T07:39:46Z</time>
      </trkpt>
      <trkpt lat="43.792247967794538" lon="6.432536020874977">
        <ele>617.77999999999997</ele>
        <time>2025-05-18T07:39:47Z</time>
      </trkpt>
      <trkpt lat="43.792326003313065" lon="6.432620007544756">
        <ele>618.25999999999999</ele>
        <time>2025-05-18T07:39:48Z</time>
      </trkpt>
      <trkpt lat="43.792403033003211" lon="6.432703994214535">
        <ele>618.25999999999999</ele>
        <time>2025-05-18T07:39:49Z</time>
      </trkpt>
      <trkpt lat="43.792463969439268" lon="6.432793010026217">
        <ele>618.75</ele>
        <time>2025-05-18T07:39:50Z</time>
      </trkpt>
      <trkpt lat="43.792505040764809" lon="6.432900968939066">
        <ele>619.23000000000002</ele>
        <time>2025-05-18T07:39:51Z</time>
      </trkpt>
      <trkpt lat="43.792548039928079" lon="6.433013034984469">
        <ele>619.23000000000002</ele>
        <time>2025-05-18T07:39:52Z</time>
      </trkpt>
      <trkpt lat="43.792591961100698" lon="6.433128034695983">
        <ele>619.71000000000004</ele>
        <time>2025-05-18T07:39:53Z</time>
      </trkpt>
      <trkpt lat="43.792650969699025" lon="6.433229958638549">
        <ele>620.19000000000005</ele>
        <time>2025-05-18T07:39:54Z</time>
      </trkpt>
      <trkpt lat="43.792739985510707" lon="6.433306988328695">
        <ele>621.14999999999998</ele>
        <time>2025-05-18T07:39:55Z</time>
      </trkpt>
      <trkpt lat="43.792838975787163" lon="6.433391980826855">
        <ele>622.11000000000001</ele>
        <time>2025-05-18T07:39:56Z</time>
      </trkpt>
      <trkpt lat="43.793037040159106" lon="6.433562971651554">
        <ele>623.54999999999995</ele>
        <time>2025-05-18T07:39:58Z</time>
      </trkpt>
      <trkpt lat="43.793123960494995" lon="6.43361602909863">
        <ele>624.02999999999997</ele>
        <time>2025-05-18T07:39:59Z</time>
      </trkpt>
      <trkpt lat="43.793221022933722" lon="6.433632038533688">
        <ele>624.50999999999999</ele>
        <time>2025-05-18T07:40:00Z</time>
      </trkpt>
      <trkpt lat="43.793296040967107" lon="6.433621980249882">
        <ele>625.47000000000003</ele>
        <time>2025-05-18T07:40:01Z</time>
      </trkpt>
      <trkpt lat="43.793408023193479" lon="6.433605970814824">
        <ele>625.96000000000004</ele>
        <time>2025-05-18T07:40:02Z</time>
      </trkpt>
      <trkpt lat="43.793529979884624" lon="6.433588033542037">
        <ele>626.44000000000005</ele>
        <time>2025-05-18T07:40:03Z</time>
      </trkpt>
      <trkpt lat="43.793652020394802" lon="6.433571018278599">
        <ele>626.91999999999996</ele>
        <time>2025-05-18T07:40:04Z</time>
      </trkpt>
      <trkpt lat="43.793750004842877" lon="6.433613011613488">
        <ele>627.39999999999998</ele>
        <time>2025-05-18T07:40:05Z</time>
      </trkpt>
      <trkpt lat="43.793834997341037" lon="6.433692974969745">
        <ele>627.88</ele>
        <time>2025-05-18T07:40:06Z</time>
      </trkpt>
      <trkpt lat="43.793877996504307" lon="6.433830019086599">
        <ele>628.36000000000001</ele>
        <time>2025-05-18T07:40:07Z</time>
      </trkpt>
      <trkpt lat="43.793920995667577" lon="6.433988017961383">
        <ele>628.84000000000003</ele>
        <time>2025-05-18T07:40:08Z</time>
      </trkpt>
      <trkpt lat="43.793971035629511" lon="6.434168983250856">
        <ele>629.32000000000005</ele>
        <time>2025-05-18T07:40:09Z</time>
      </trkpt>
      <trkpt lat="43.794023003429174" lon="6.434355983510613">
        <ele>629.79999999999995</ele>
        <time>2025-05-18T07:40:10Z</time>
      </trkpt>
      <trkpt lat="43.794105984270573" lon="6.434530997648835">
        <ele>630.75999999999999</ele>
        <time>2025-05-18T07:40:11Z</time>
      </trkpt>
      <trkpt lat="43.79450898617506" lon="6.435177996754646">
        <ele>633.16999999999996</ele>
        <time>2025-05-18T07:40:15Z</time>
      </trkpt>
      <trkpt lat="43.794634966179729" lon="6.435303976759315">
        <ele>633.64999999999998</ele>
        <time>2025-05-18T07:40:16Z</time>
      </trkpt>
      <trkpt lat="43.795642973855138" lon="6.436380967497826">
        <ele>640.86000000000001</ele>
        <time>2025-05-18T07:40:24Z</time>
      </trkpt>
      <trkpt lat="43.795756967738271" lon="6.436519017443061">
        <ele>642.29999999999995</ele>
        <time>2025-05-18T07:40:25Z</time>
      </trkpt>
      <trkpt lat="43.795815976336598" lon="6.436701994389296">
        <ele>643.25999999999999</ele>
        <time>2025-05-18T07:40:26Z</time>
      </trkpt>
      <trkpt lat="43.796131974086165" lon="6.43769902177155">
        <ele>646.62</ele>
        <time>2025-05-18T07:40:31Z</time>
      </trkpt>
      <trkpt lat="43.796200035139918" lon="6.437848974019289">
        <ele>647.10000000000002</ele>
        <time>2025-05-18T07:40:32Z</time>
      </trkpt>
      <trkpt lat="43.796295002102852" lon="6.43797998316586">
        <ele>647.59000000000003</ele>
        <time>2025-05-18T07:40:33Z</time>
      </trkpt>
      <trkpt lat="43.796406984329224" lon="6.438094982877374">
        <ele>648.07000000000005</ele>
        <time>2025-05-18T07:40:34Z</time>
      </trkpt>
      <trkpt lat="43.796533970162272" lon="6.438204031437635">
        <ele>648.54999999999995</ele>
        <time>2025-05-18T07:40:35Z</time>
      </trkpt>
      <trkpt lat="43.796652993187308" lon="6.438306039199233">
        <ele>649.50999999999999</ele>
        <time>2025-05-18T07:40:36Z</time>
      </trkpt>
      <trkpt lat="43.796761035919189" lon="6.438398994505405">
        <ele>649.99000000000001</ele>
        <time>2025-05-18T07:40:37Z</time>
      </trkpt>
      <trkpt lat="43.796880980953574" lon="6.438425984233618">
        <ele>650.47000000000003</ele>
        <time>2025-05-18T07:40:38Z</time>
      </trkpt>
      <trkpt lat="43.796995980665088" lon="6.438435036689043">
        <ele>650.95000000000005</ele>
        <time>2025-05-18T07:40:39Z</time>
      </trkpt>
      <trkpt lat="43.797132018953562" lon="6.438419027253985">
        <ele>651.42999999999995</ele>
        <time>2025-05-18T07:40:40Z</time>
      </trkpt>
      <trkpt lat="43.798518972471356" lon="6.438121972605586">
        <ele>652.38999999999999</ele>
        <time>2025-05-18T07:40:48Z</time>
      </trkpt>
      <trkpt lat="43.799179969355464" lon="6.437904965132475">
        <ele>651.90999999999997</ele>
        <time>2025-05-18T07:40:52Z</time>
      </trkpt>
      <trkpt lat="43.799315001815557" lon="6.437860038131475">
        <ele>651.42999999999995</ele>
        <time>2025-05-18T07:40:53Z</time>
      </trkpt>
      <trkpt lat="43.79947199486196" lon="6.437912005931139">
        <ele>650.95000000000005</ele>
        <time>2025-05-18T07:40:54Z</time>
      </trkpt>
      <trkpt lat="43.799598980695009" lon="6.437953999266028">
        <ele>649.99000000000001</ele>
        <time>2025-05-18T07:40:55Z</time>
      </trkpt>
      <trkpt lat="43.799715992063284" lon="6.438050977885723">
        <ele>649.02999999999997</ele>
        <time>2025-05-18T07:40:56Z</time>
      </trkpt>
      <trkpt lat="43.799825962632895" lon="6.438165977597237">
        <ele>648.54999999999995</ele>
        <time>2025-05-18T07:40:57Z</time>
      </trkpt>
      <trkpt lat="43.799936017021537" lon="6.43828097730875">
        <ele>648.54999999999995</ele>
        <time>2025-05-18T07:40:58Z</time>
      </trkpt>
      <trkpt lat="43.800049005076289" lon="6.438395977020264">
        <ele>647.59000000000003</ele>
        <time>2025-05-18T07:40:59Z</time>
      </trkpt>
      <trkpt lat="43.800160987302661" lon="6.438395977020264">
        <ele>647.59000000000003</ele>
        <time>2025-05-18T07:41:00Z</time>
      </trkpt>
      <trkpt lat="43.800301970914006" lon="6.438395977020264">
        <ele>647.10000000000002</ele>
        <time>2025-05-18T07:41:01Z</time>
      </trkpt>
      <trkpt lat="43.800398027524352" lon="6.438352977856994">
        <ele>646.62</ele>
        <time>2025-05-18T07:41:02Z</time>
      </trkpt>
      <trkpt lat="43.800538005307317" lon="6.438289023935795">
        <ele>645.65999999999997</ele>
        <time>2025-05-18T07:41:03Z</time>
      </trkpt>
      <trkpt lat="43.80153302103281" lon="6.437889961525798">
        <ele>642.77999999999997</ele>
        <time>2025-05-18T07:41:09Z</time>
      </trkpt>
      <trkpt lat="43.802581010386348" lon="6.43774101510644">
        <ele>640.86000000000001</ele>
        <time>2025-05-18T07:41:15Z</time>
      </trkpt>
      <trkpt lat="43.802727023139596" lon="6.437757024541497">
        <ele>640.86000000000001</ele>
        <time>2025-05-18T07:41:16Z</time>
      </trkpt>
      <trkpt lat="43.803114015609026" lon="6.437816033139825">
        <ele>640.38</ele>
        <time>2025-05-18T07:41:19Z</time>
      </trkpt>
      <trkpt lat="43.803340997546911" lon="6.437923992052674">
        <ele>639.40999999999997</ele>
        <time>2025-05-18T07:41:21Z</time>
      </trkpt>
      <trkpt lat="43.803451973944902" lon="6.437976965680718">
        <ele>639.40999999999997</ele>
        <time>2025-05-18T07:41:22Z</time>
      </trkpt>
      <trkpt lat="43.804150018841028" lon="6.438480969518423">
        <ele>638.45000000000005</ele>
        <time>2025-05-18T07:41:29Z</time>
      </trkpt>
      <trkpt lat="43.804211039096117" lon="6.438577026128769">
        <ele>638.45000000000005</ele>
        <time>2025-05-18T07:41:30Z</time>
      </trkpt>
      <trkpt lat="43.804257977753878" lon="6.438702000305057">
        <ele>638.45000000000005</ele>
        <time>2025-05-18T07:41:31Z</time>
      </trkpt>
      <trkpt lat="43.804283961653709" lon="6.438854970037937">
        <ele>638.45000000000005</ele>
        <time>2025-05-18T07:41:32Z</time>
      </trkpt>
      <trkpt lat="43.804302988573909" lon="6.439033001661301">
        <ele>638.45000000000005</ele>
        <time>2025-05-18T07:41:33Z</time>
      </trkpt>
      <trkpt lat="43.804324027150869" lon="6.43922402523458">
        <ele>638.92999999999995</ele>
        <time>2025-05-18T07:41:34Z</time>
      </trkpt>
      <trkpt lat="43.804331989958882" lon="6.439420999959111">
        <ele>638.92999999999995</ele>
        <time>2025-05-18T07:41:35Z</time>
      </trkpt>
      <trkpt lat="43.804321009665728" lon="6.439628032967448">
        <ele>638.92999999999995</ele>
        <time>2025-05-18T07:41:36Z</time>
      </trkpt>
      <trkpt lat="43.804271975532174" lon="6.440541995689273">
        <ele>640.38</ele>
        <time>2025-05-18T07:41:41Z</time>
      </trkpt>
      <trkpt lat="43.804314974695444" lon="6.440742993727326">
        <ele>640.38</ele>
        <time>2025-05-18T07:41:42Z</time>
      </trkpt>
      <trkpt lat="43.804353028535843" lon="6.440863022580743">
        <ele>640.38</ele>
        <time>2025-05-18T07:41:43Z</time>
      </trkpt>
      <trkpt lat="43.804422011598945" lon="6.440950026735663">
        <ele>640.86000000000001</ele>
        <time>2025-05-18T07:41:44Z</time>
      </trkpt>
      <trkpt lat="43.804509015753865" lon="6.440978022292256">
        <ele>641.34000000000003</ele>
        <time>2025-05-18T07:41:45Z</time>
      </trkpt>
      <trkpt lat="43.804614963009953" lon="6.441013980656862">
        <ele>641.34000000000003</ele>
        <time>2025-05-18T07:41:46Z</time>
      </trkpt>
      <trkpt lat="43.804679000750184" lon="6.440981961786747">
        <ele>641.82000000000005</ele>
        <time>2025-05-18T07:41:47Z</time>
      </trkpt>
      <trkpt lat="43.804786959663033" lon="6.440927982330322">
        <ele>641.82000000000005</ele>
        <time>2025-05-18T07:41:48Z</time>
      </trkpt>
      <trkpt lat="43.804850997403264" lon="6.440863022580743">
        <ele>641.82000000000005</ele>
        <time>2025-05-18T07:41:49Z</time>
      </trkpt>
      <trkpt lat="43.804926015436649" lon="6.440789010375738">
        <ele>641.82000000000005</ele>
        <time>2025-05-18T07:41:50Z</time>
      </trkpt>
      <trkpt lat="43.804998015984893" lon="6.440717009827495">
        <ele>641.82000000000005</ele>
        <time>2025-05-18T07:41:51Z</time>
      </trkpt>
      <trkpt lat="43.805050989612937" lon="6.440641991794109">
        <ele>641.82000000000005</ele>
        <time>2025-05-18T07:41:52Z</time>
      </trkpt>
      <trkpt lat="43.805103963240981" lon="6.440549958497286">
        <ele>641.82000000000005</ele>
        <time>2025-05-18T07:41:53Z</time>
      </trkpt>
      <trkpt lat="43.805154003202915" lon="6.440462032333016">
        <ele>641.82000000000005</ele>
        <time>2025-05-18T07:41:54Z</time>
      </trkpt>
      <trkpt lat="43.805203037336469" lon="6.440377039834857">
        <ele>641.34000000000003</ele>
        <time>2025-05-18T07:41:55Z</time>
      </trkpt>
      <trkpt lat="43.805246958509088" lon="6.440300010144711">
        <ele>641.34000000000003</ele>
        <time>2025-05-18T07:41:56Z</time>
      </trkpt>
      <trkpt lat="43.805360030382872" lon="6.440177969634533">
        <ele>641.34000000000003</ele>
        <time>2025-05-18T07:41:58Z</time>
      </trkpt>
      <trkpt lat="43.805418033152819" lon="6.440131030976772">
        <ele>641.34000000000003</ele>
        <time>2025-05-18T07:41:59Z</time>
      </trkpt>
      <trkpt lat="43.805494979023933" lon="6.440070010721684">
        <ele>641.34000000000003</ele>
        <time>2025-05-18T07:42:00Z</time>
      </trkpt>
      <trkpt lat="43.805519035086036" lon="6.4400639757514">
        <ele>641.34000000000003</ele>
        <time>2025-05-18T07:42:01Z</time>
      </trkpt>
      <trkpt lat="43.805560022592545" lon="6.440054001286626">
        <ele>641.34000000000003</ele>
        <time>2025-05-18T07:42:02Z</time>
      </trkpt>
      <trkpt lat="43.805592963472009" lon="6.440045032650232">
        <ele>641.34000000000003</ele>
        <time>2025-05-18T07:42:03Z</time>
      </trkpt>
      <trkpt lat="43.805719027295709" lon="6.440187022089958">
        <ele>641.82000000000005</ele>
        <time>2025-05-18T07:42:04Z</time>
      </trkpt>
      <trkpt lat="43.805710980668664" lon="6.44023303873837">
        <ele>641.82000000000005</ele>
        <time>2025-05-18T07:42:05Z</time>
      </trkpt>
      <trkpt lat="43.805697988718748" lon="6.440303027629852">
        <ele>641.82000000000005</ele>
        <time>2025-05-18T07:42:06Z</time>
      </trkpt>
      <trkpt lat="43.80568197928369" lon="6.440391959622502">
        <ele>641.82000000000005</ele>
        <time>2025-05-18T07:42:07Z</time>
      </trkpt>
      <trkpt lat="43.805663958191872" lon="6.440494973212481">
        <ele>642.29999999999995</ele>
        <time>2025-05-18T07:42:08Z</time>
      </trkpt>
      <trkpt lat="43.80563797429204" lon="6.44070602953434">
        <ele>642.29999999999995</ele>
        <time>2025-05-18T07:42:10Z</time>
      </trkpt>
      <trkpt lat="43.805624982342124" lon="6.440808959305286">
        <ele>641.82000000000005</ele>
        <time>2025-05-18T07:42:11Z</time>
      </trkpt>
      <trkpt lat="43.805562034249306" lon="6.441490994766355">
        <ele>641.82000000000005</ele>
        <time>2025-05-18T07:42:18Z</time>
      </trkpt>
      <trkpt lat="43.805473018437624" lon="6.441587973386049">
        <ele>641.82000000000005</ele>
        <time>2025-05-18T07:42:19Z</time>
      </trkpt>
      <trkpt lat="43.805378973484039" lon="6.44167497754097">
        <ele>641.82000000000005</ele>
        <time>2025-05-18T07:42:20Z</time>
      </trkpt>
      <trkpt lat="43.805150985717773" lon="6.441872958093882">
        <ele>641.34000000000003</ele>
        <time>2025-05-18T07:42:22Z</time>
      </trkpt>
      <trkpt lat="43.804720994085073" lon="6.442122990265489">
        <ele>638.92999999999995</ele>
        <time>2025-05-18T07:42:25Z</time>
      </trkpt>
      <trkpt lat="43.804556960240006" lon="6.442176969721913">
        <ele>638.45000000000005</ele>
        <time>2025-05-18T07:42:26Z</time>
      </trkpt>
      <trkpt lat="43.804387981072068" lon="6.44223396666348">
        <ele>637.49000000000001</ele>
        <time>2025-05-18T07:42:27Z</time>
      </trkpt>
      <trkpt lat="43.804223025217652" lon="6.442243019118905">
        <ele>636.52999999999997</ele>
        <time>2025-05-18T07:42:28Z</time>
      </trkpt>
      <trkpt lat="43.804084975272417" lon="6.442219968885183">
        <ele>635.57000000000005</ele>
        <time>2025-05-18T07:42:29Z</time>
      </trkpt>
      <trkpt lat="43.804021021351218" lon="6.442178981378675">
        <ele>634.13</ele>
        <time>2025-05-18T07:42:30Z</time>
      </trkpt>
      <trkpt lat="43.803966036066413" lon="6.442118966951966">
        <ele>633.64999999999998</ele>
        <time>2025-05-18T07:42:31Z</time>
      </trkpt>
      <trkpt lat="43.803907027468085" lon="6.442001033574343">
        <ele>632.67999999999995</ele>
        <time>2025-05-18T07:42:32Z</time>
      </trkpt>
      <trkpt lat="43.803881965577602" lon="6.441869018599391">
        <ele>631.72000000000003</ele>
        <time>2025-05-18T07:42:33Z</time>
      </trkpt>
      <trkpt lat="43.803850030526519" lon="6.44169601611793">
        <ele>631.24000000000001</ele>
        <time>2025-05-18T07:42:34Z</time>
      </trkpt>
      <trkpt lat="43.803810970857739" lon="6.441490994766355">
        <ele>630.27999999999997</ele>
        <time>2025-05-18T07:42:35Z</time>
      </trkpt>
      <trkpt lat="43.803771995007992" lon="6.441279016435146">
        <ele>629.79999999999995</ele>
        <time>2025-05-18T07:42:36Z</time>
      </trkpt>
      <trkpt lat="43.803707035258412" lon="6.440855981782079">
        <ele>629.32000000000005</ele>
        <time>2025-05-18T07:42:38Z</time>
      </trkpt>
      <trkpt lat="43.803693959489465" lon="6.440636962652206">
        <ele>629.32000000000005</ele>
        <time>2025-05-18T07:42:39Z</time>
      </trkpt>
      <trkpt lat="43.803669987246394" lon="6.440232032909989">
        <ele>628.84000000000003</ele>
        <time>2025-05-18T07:42:41Z</time>
      </trkpt>
      <trkpt lat="43.80366001278162" lon="6.440049977973104">
        <ele>628.84000000000003</ele>
        <time>2025-05-18T07:42:42Z</time>
      </trkpt>
      <trkpt lat="43.803626988083124" lon="6.439845962449908">
        <ele>628.36000000000001</ele>
        <time>2025-05-18T07:42:43Z</time>
      </trkpt>
      <trkpt lat="43.803534032776952" lon="6.439717970788479">
        <ele>628.36000000000001</ele>
        <time>2025-05-18T07:42:44Z</time>
      </trkpt>
      <trkpt lat="43.803436970338225" lon="6.439584027975798">
        <ele>628.84000000000003</ele>
        <time>2025-05-18T07:42:45Z</time>
      </trkpt>
      <trkpt lat="43.803239995613694" lon="6.439311029389501">
        <ele>629.79999999999995</ele>
        <time>2025-05-18T07:42:47Z</time>
      </trkpt>
      <trkpt lat="43.803107980638742" lon="6.439212961122394">
        <ele>630.27999999999997</ele>
        <time>2025-05-18T07:42:48Z</time>
      </trkpt>
      <trkpt lat="43.802978983148932" lon="6.439153030514717">
        <ele>630.75999999999999</ele>
        <time>2025-05-18T07:42:49Z</time>
      </trkpt>
      <trkpt lat="43.80284302867949" lon="6.439126040786505">
        <ele>630.75999999999999</ele>
        <time>2025-05-18T07:42:50Z</time>
      </trkpt>
      <trkpt lat="43.802709002047777" lon="6.439156970009208">
        <ele>631.24000000000001</ele>
        <time>2025-05-18T07:42:51Z</time>
      </trkpt>
      <trkpt lat="43.802580004557967" lon="6.439207009971142">
        <ele>631.24000000000001</ele>
        <time>2025-05-18T07:42:52Z</time>
      </trkpt>
      <trkpt lat="43.802445977926254" lon="6.439292002469301">
        <ele>631.24000000000001</ele>
        <time>2025-05-18T07:42:53Z</time>
      </trkpt>
      <trkpt lat="43.802323015406728" lon="6.439402978867292">
        <ele>631.24000000000001</ele>
        <time>2025-05-18T07:42:54Z</time>
      </trkpt>
      <trkpt lat="43.802196029573679" lon="6.439517978578806">
        <ele>631.24000000000001</ele>
        <time>2025-05-18T07:42:55Z</time>
      </trkpt>
      <trkpt lat="43.802066026255488" lon="6.439635995775461">
        <ele>631.24000000000001</ele>
        <time>2025-05-18T07:42:56Z</time>
      </trkpt>
      <trkpt lat="43.801924958825111" lon="6.439703973010182">
        <ele>631.24000000000001</ele>
        <time>2025-05-18T07:42:57Z</time>
      </trkpt>
      <trkpt lat="43.801779029890895" lon="6.439772034063935">
        <ele>631.24000000000001</ele>
        <time>2025-05-18T07:42:58Z</time>
      </trkpt>
      <trkpt lat="43.801632011309266" lon="6.439787959679961">
        <ele>631.24000000000001</ele>
        <time>2025-05-18T07:42:59Z</time>
      </trkpt>
      <trkpt lat="43.80146998912096" lon="6.43978301435709">
        <ele>631.24000000000001</ele>
        <time>2025-05-18T07:43:00Z</time>
      </trkpt>
      <trkpt lat="43.801298998296261" lon="6.439777985215187">
        <ele>631.24000000000001</ele>
        <time>2025-05-18T07:43:01Z</time>
      </trkpt>
      <trkpt lat="43.80095299333334" lon="6.439775973558426">
        <ele>631.24000000000001</ele>
        <time>2025-05-18T07:43:03Z</time>
      </trkpt>
      <trkpt lat="43.800798011943698" lon="6.439804974943399">
        <ele>631.72000000000003</ele>
        <time>2025-05-18T07:43:04Z</time>
      </trkpt>
      <trkpt lat="43.800640013068914" lon="6.439837999641895">
        <ele>631.72000000000003</ele>
        <time>2025-05-18T07:43:05Z</time>
      </trkpt>
      <trkpt lat="43.800514033064246" lon="6.439950987696648">
        <ele>631.72000000000003</ele>
        <time>2025-05-18T07:43:06Z</time>
      </trkpt>
      <trkpt lat="43.800415964797139" lon="6.440077973529697">
        <ele>632.20000000000005</ele>
        <time>2025-05-18T07:43:07Z</time>
      </trkpt>
      <trkpt lat="43.800319992005825" lon="6.440214011818171">
        <ele>632.20000000000005</ele>
        <time>2025-05-18T07:43:08Z</time>
      </trkpt>
      <trkpt lat="43.800282021984458" lon="6.440374022349715">
        <ele>632.67999999999995</ele>
        <time>2025-05-18T07:43:09Z</time>
      </trkpt>
      <trkpt lat="43.80024204030633" lon="6.440545013174415">
        <ele>633.16999999999996</ele>
        <time>2025-05-18T07:43:10Z</time>
      </trkpt>
      <trkpt lat="43.800200968980789" lon="6.440719021484256">
        <ele>633.64999999999998</ele>
        <time>2025-05-18T07:43:11Z</time>
      </trkpt>
      <trkpt lat="43.800160987302661" lon="6.440888000652194">
        <ele>634.13</ele>
        <time>2025-05-18T07:43:12Z</time>
      </trkpt>
      <trkpt lat="43.800083035603166" lon="6.441005012020469">
        <ele>634.13</ele>
        <time>2025-05-18T07:43:13Z</time>
      </trkpt>
      <trkpt lat="43.79998697899282" lon="6.441110959276557">
        <ele>633.64999999999998</ele>
        <time>2025-05-18T07:43:14Z</time>
      </trkpt>
      <trkpt lat="43.799873990938067" lon="6.441145995631814">
        <ele>633.64999999999998</ele>
        <time>2025-05-18T07:43:15Z</time>
      </trkpt>
      <trkpt lat="43.799736024811864" lon="6.441152030602098">
        <ele>633.16999999999996</ele>
        <time>2025-05-18T07:43:16Z</time>
      </trkpt>
      <trkpt lat="43.799607027322054" lon="6.441157981753349">
        <ele>632.67999999999995</ele>
        <time>2025-05-18T07:43:17Z</time>
      </trkpt>
      <trkpt lat="43.799462020397186" lon="6.441167034208775">
        <ele>632.67999999999995</ele>
        <time>2025-05-18T07:43:18Z</time>
      </trkpt>
      <trkpt lat="43.799350960180163" lon="6.441250015050173">
        <ele>632.20000000000005</ele>
        <time>2025-05-18T07:43:19Z</time>
      </trkpt>
      <trkpt lat="43.79923596046865" lon="6.441336013376713">
        <ele>631.72000000000003</ele>
        <time>2025-05-18T07:43:20Z</time>
      </trkpt>
      <trkpt lat="43.799102017655969" lon="6.441374989226461">
        <ele>631.24000000000001</ele>
        <time>2025-05-18T07:43:21Z</time>
      </trkpt>
      <trkpt lat="43.798950975760818" lon="6.441401978954673">
        <ele>631.24000000000001</ele>
        <time>2025-05-18T07:43:22Z</time>
      </trkpt>
      <trkpt lat="43.79880596883595" lon="6.441427040845156">
        <ele>631.24000000000001</ele>
        <time>2025-05-18T07:43:23Z</time>
      </trkpt>
      <trkpt lat="43.798649981617928" lon="6.441462999209762">
        <ele>630.75999999999999</ele>
        <time>2025-05-18T07:43:24Z</time>
      </trkpt>
      <trkpt lat="43.798202974721789" lon="6.441607000306249">
        <ele>630.27999999999997</ele>
        <time>2025-05-18T07:43:27Z</time>
      </trkpt>
      <trkpt lat="43.798075988888741" lon="6.441673971712589">
        <ele>629.79999999999995</ele>
        <time>2025-05-18T07:43:28Z</time>
      </trkpt>
      <trkpt lat="43.797992002218962" lon="6.44180104136467">
        <ele>629.32000000000005</ele>
        <time>2025-05-18T07:43:29Z</time>
      </trkpt>
      <trkpt lat="43.797954032197595" lon="6.44195300526917">
        <ele>629.32000000000005</ele>
        <time>2025-05-18T07:43:30Z</time>
      </trkpt>
      <trkpt lat="43.797920001670718" lon="6.442087031900883">
        <ele>629.79999999999995</ele>
        <time>2025-05-18T07:43:31Z</time>
      </trkpt>
      <trkpt lat="43.797952020540833" lon="6.44223497249186">
        <ele>630.27999999999997</ele>
        <time>2025-05-18T07:43:32Z</time>
      </trkpt>
      <trkpt lat="43.797985967248678" lon="6.442388026043773">
        <ele>630.27999999999997</ele>
        <time>2025-05-18T07:43:33Z</time>
      </trkpt>
      <trkpt lat="43.798023015260696" lon="6.442560022696853">
        <ele>630.75999999999999</ele>
        <time>2025-05-18T07:43:34Z</time>
      </trkpt>
      <trkpt lat="43.798015974462032" lon="6.442752974107862">
        <ele>631.72000000000003</ele>
        <time>2025-05-18T07:43:35Z</time>
      </trkpt>
      <trkpt lat="43.798005999997258" lon="6.442902004346252">
        <ele>632.67999999999995</ele>
        <time>2025-05-18T07:43:36Z</time>
      </trkpt>
      <trkpt lat="43.797914972528815" lon="6.443060003221035">
        <ele>634.13</ele>
        <time>2025-05-18T07:43:37Z</time>
      </trkpt>
      <trkpt lat="43.797826040536165" lon="6.443212972953916">
        <ele>634.61000000000001</ele>
        <time>2025-05-18T07:43:38Z</time>
      </trkpt>
      <trkpt lat="43.797713974490762" lon="6.443360997363925">
        <ele>635.57000000000005</ele>
        <time>2025-05-18T07:43:39Z</time>
      </trkpt>
      <trkpt lat="43.797577014192939" lon="6.443486977368593">
        <ele>636.04999999999995</ele>
        <time>2025-05-18T07:43:40Z</time>
      </trkpt>
      <trkpt lat="43.797425972297788" lon="6.443609017878771">
        <ele>637.00999999999999</ele>
        <time>2025-05-18T07:43:41Z</time>
      </trkpt>
      <trkpt lat="43.797271996736526" lon="6.443722005933523">
        <ele>637.49000000000001</ele>
        <time>2025-05-18T07:43:42Z</time>
      </trkpt>
      <trkpt lat="43.79712900146842" lon="6.443856032565236">
        <ele>637.97000000000003</ele>
        <time>2025-05-18T07:43:43Z</time>
      </trkpt>
      <trkpt lat="43.796861032024026" lon="6.444180998951197">
        <ele>638.92999999999995</ele>
        <time>2025-05-18T07:43:45Z</time>
      </trkpt>
      <trkpt lat="43.79648401401937" lon="6.44459598697722">
        <ele>640.38</ele>
        <time>2025-05-18T07:43:48Z</time>
      </trkpt>
      <trkpt lat="43.796357028186321" lon="6.444672010838985">
        <ele>640.86000000000001</ele>
        <time>2025-05-18T07:43:49Z</time>
      </trkpt>
      <trkpt lat="43.79624898545444" lon="6.444712998345494">
        <ele>641.34000000000003</ele>
        <time>2025-05-18T07:43:50Z</time>
      </trkpt>
      <trkpt lat="43.796138009056449" lon="6.444732025265694">
        <ele>641.34000000000003</ele>
        <time>2025-05-18T07:43:51Z</time>
      </trkpt>
      <trkpt lat="43.796068020164967" lon="6.444680979475379">
        <ele>641.82000000000005</ele>
        <time>2025-05-18T07:43:52Z</time>
      </trkpt>
      <trkpt lat="43.795980010181665" lon="6.444572014734149">
        <ele>641.82000000000005</ele>
        <time>2025-05-18T07:43:53Z</time>
      </trkpt>
      <trkpt lat="43.795916978269815" lon="6.444409992545843">
        <ele>641.34000000000003</ele>
        <time>2025-05-18T07:43:54Z</time>
      </trkpt>
      <trkpt lat="43.795880014076829" lon="6.444234978407621">
        <ele>640.86000000000001</ele>
        <time>2025-05-18T07:43:55Z</time>
      </trkpt>
      <trkpt lat="43.795840032398701" lon="6.44401696510613">
        <ele>640.38</ele>
        <time>2025-05-18T07:43:56Z</time>
      </trkpt>
      <trkpt lat="43.795846989378333" lon="6.44382200203836">
        <ele>640.38</ele>
        <time>2025-05-18T07:43:57Z</time>
      </trkpt>
      <trkpt lat="43.795854030176997" lon="6.443636007606983">
        <ele>639.88999999999999</ele>
        <time>2025-05-18T07:43:58Z</time>
      </trkpt>
      <trkpt lat="43.795855036005378" lon="6.443472979590297">
        <ele>639.88999999999999</ele>
        <time>2025-05-18T07:43:59Z</time>
      </trkpt>
      <trkpt lat="43.79579502157867" lon="6.443377006798983">
        <ele>640.38</ele>
        <time>2025-05-18T07:44:00Z</time>
      </trkpt>
      <trkpt lat="43.795726038515568" lon="6.443293020129204">
        <ele>640.38</ele>
        <time>2025-05-18T07:44:01Z</time>
      </trkpt>
      <trkpt lat="43.795640962198377" lon="6.443239962682128">
        <ele>640.86000000000001</ele>
        <time>2025-05-18T07:44:02Z</time>
      </trkpt>
      <trkpt lat="43.795542977750301" lon="6.443193024024367">
        <ele>642.29999999999995</ele>
        <time>2025-05-18T07:44:03Z</time>
      </trkpt>
      <trkpt lat="43.794562965631485" lon="6.442884989082813">
        <ele>656.24000000000001</ele>
        <time>2025-05-18T07:44:11Z</time>
      </trkpt>
      <trkpt lat="43.794000037014484" lon="6.442553987726569">
        <ele>661.51999999999998</ele>
        <time>2025-05-18T07:44:15Z</time>
      </trkpt>
      <trkpt lat="43.793857041746378" lon="6.442502019926906">
        <ele>662.49000000000001</ele>
        <time>2025-05-18T07:44:16Z</time>
      </trkpt>
      <trkpt lat="43.793713040649891" lon="6.442456003278494">
        <ele>662.97000000000003</ele>
        <time>2025-05-18T07:44:17Z</time>
      </trkpt>
      <trkpt lat="43.793559987097979" lon="6.442442005500197">
        <ele>663.45000000000005</ele>
        <time>2025-05-18T07:44:18Z</time>
      </trkpt>
      <trkpt lat="43.79341296851635" lon="6.442467989400029">
        <ele>663.45000000000005</ele>
        <time>2025-05-18T07:44:19Z</time>
      </trkpt>
      <trkpt lat="43.793264022096992" lon="6.442493973299861">
        <ele>662.97000000000003</ele>
        <time>2025-05-18T07:44:20Z</time>
      </trkpt>
      <trkpt lat="43.793136030435562" lon="6.442581983283162">
        <ele>662.49000000000001</ele>
        <time>2025-05-18T07:44:21Z</time>
      </trkpt>
      <trkpt lat="43.793005021288991" lon="6.442672004923224">
        <ele>662.00999999999999</ele>
        <time>2025-05-18T07:44:22Z</time>
      </trkpt>
      <trkpt lat="43.792865965515375" lon="6.442766971886158">
        <ele>661.03999999999996</ele>
        <time>2025-05-18T07:44:23Z</time>
      </trkpt>
      <trkpt lat="43.792720036581159" lon="6.442819023504853">
        <ele>660.55999999999995</ele>
        <time>2025-05-18T07:44:24Z</time>
      </trkpt>
      <trkpt lat="43.792568994686007" lon="6.442831009626389">
        <ele>660.55999999999995</ele>
        <time>2025-05-18T07:44:25Z</time>
      </trkpt>
      <trkpt lat="43.792396998032928" lon="6.442818017676473">
        <ele>661.03999999999996</ele>
        <time>2025-05-18T07:44:26Z</time>
      </trkpt>
      <trkpt lat="43.792220978066325" lon="6.442804019898176">
        <ele>661.51999999999998</ele>
        <time>2025-05-18T07:44:27Z</time>
      </trkpt>
      <trkpt lat="43.791354959830642" lon="6.442738976329565">
        <ele>665.85000000000002</ele>
        <time>2025-05-18T07:44:32Z</time>
      </trkpt>
      <trkpt lat="43.791208025068045" lon="6.44274802878499">
        <ele>666.33000000000004</ele>
        <time>2025-05-18T07:44:33Z</time>
      </trkpt>
      <trkpt lat="43.791077015921474" lon="6.442806031554937">
        <ele>667.28999999999996</ele>
        <time>2025-05-18T07:44:34Z</time>
      </trkpt>
      <trkpt lat="43.790924968197942" lon="6.442945003509522">
        <ele>668.25</ele>
        <time>2025-05-18T07:44:35Z</time>
      </trkpt>
      <trkpt lat="43.790838969871402" lon="6.443061009049416">
        <ele>669.22000000000003</ele>
        <time>2025-05-18T07:44:36Z</time>
      </trkpt>
      <trkpt lat="43.790722964331508" lon="6.443218002095819">
        <ele>669.70000000000005</ele>
        <time>2025-05-18T07:44:37Z</time>
      </trkpt>
      <trkpt lat="43.790243016555905" lon="6.443868018686771">
        <ele>672.58000000000004</ele>
        <time>2025-05-18T07:44:41Z</time>
      </trkpt>
      <trkpt lat="43.790107984095812" lon="6.443972960114479">
        <ele>673.05999999999995</ele>
        <time>2025-05-18T07:44:42Z</time>
      </trkpt>
      <trkpt lat="43.789969012141228" lon="6.44403800368309">
        <ele>673.53999999999996</ele>
        <time>2025-05-18T07:44:43Z</time>
      </trkpt>
      <trkpt lat="43.789815036579967" lon="6.444075973704457">
        <ele>674.5</ele>
        <time>2025-05-18T07:44:44Z</time>
      </trkpt>
      <trkpt lat="43.789647985249758" lon="6.444058958441019">
        <ele>675.46000000000004</ele>
        <time>2025-05-18T07:44:45Z</time>
      </trkpt>
      <trkpt lat="43.789057983085513" lon="6.443997016176581">
        <ele>678.35000000000002</ele>
        <time>2025-05-18T07:44:49Z</time>
      </trkpt>
      <trkpt lat="43.78892102278769" lon="6.443840023130179">
        <ele>678.83000000000004</ele>
        <time>2025-05-18T07:44:50Z</time>
      </trkpt>
      <trkpt lat="43.788804011419415" lon="6.443707002326846">
        <ele>679.78999999999996</ele>
        <time>2025-05-18T07:44:51Z</time>
      </trkpt>
      <trkpt lat="43.788585998117924" lon="6.443459987640381">
        <ele>681.23000000000002</ele>
        <time>2025-05-18T07:44:53Z</time>
      </trkpt>
      <trkpt lat="43.788435962051153" lon="6.443378012627363">
        <ele>682.19000000000005</ele>
        <time>2025-05-18T07:44:54Z</time>
      </trkpt>
      <trkpt lat="43.788295984268188" lon="6.443335013464093">
        <ele>683.14999999999998</ele>
        <time>2025-05-18T07:44:55Z</time>
      </trkpt>
      <trkpt lat="43.788150977343321" lon="6.443345993757248">
        <ele>683.63</ele>
        <time>2025-05-18T07:44:56Z</time>
      </trkpt>
      <trkpt lat="43.787991972640157" lon="6.443357979878783">
        <ele>684.60000000000002</ele>
        <time>2025-05-18T07:44:57Z</time>
      </trkpt>
      <trkpt lat="43.786548022180796" lon="6.443472979590297">
        <ele>690.36000000000001</ele>
        <time>2025-05-18T07:45:05Z</time>
      </trkpt>
      <trkpt lat="43.786002025008202" lon="6.443566018715501">
        <ele>691.80999999999995</ele>
        <time>2025-05-18T07:45:09Z</time>
      </trkpt>
      <trkpt lat="43.785887025296688" lon="6.443601977080107">
        <ele>691.80999999999995</ele>
        <time>2025-05-18T07:45:10Z</time>
      </trkpt>
      <trkpt lat="43.785797003656626" lon="6.443674983456731">
        <ele>691.80999999999995</ele>
        <time>2025-05-18T07:45:11Z</time>
      </trkpt>
      <trkpt lat="43.785733971744776" lon="6.44380004145205">
        <ele>691.80999999999995</ele>
        <time>2025-05-18T07:45:12Z</time>
      </trkpt>
      <trkpt lat="43.785686027258635" lon="6.44393096677959">
        <ele>691.80999999999995</ele>
        <time>2025-05-18T07:45:13Z</time>
      </trkpt>
      <trkpt lat="43.785672029480338" lon="6.444087037816644">
        <ele>692.28999999999996</ele>
        <time>2025-05-18T07:45:14Z</time>
      </trkpt>
      <trkpt lat="43.785657025873661" lon="6.444258028641343">
        <ele>692.28999999999996</ele>
        <time>2025-05-18T07:45:15Z</time>
      </trkpt>
      <trkpt lat="43.785547977313399" lon="6.445213984698057">
        <ele>695.16999999999996</ele>
        <time>2025-05-18T07:45:20Z</time>
      </trkpt>
      <trkpt lat="43.785497015342116" lon="6.445367960259318">
        <ele>695.64999999999998</ele>
        <time>2025-05-18T07:45:21Z</time>
      </trkpt>
      <trkpt lat="43.785431971773505" lon="6.445535011589527">
        <ele>696.61000000000001</ele>
        <time>2025-05-18T07:45:22Z</time>
      </trkpt>
      <trkpt lat="43.785315966233611" lon="6.445685969665647">
        <ele>696.61000000000001</ele>
        <time>2025-05-18T07:45:23Z</time>
      </trkpt>
      <trkpt lat="43.785195015370846" lon="6.445773979648948">
        <ele>697.09000000000003</ele>
        <time>2025-05-18T07:45:24Z</time>
      </trkpt>
      <trkpt lat="43.785042967647314" lon="6.445839023217559">
        <ele>697.09000000000003</ele>
        <time>2025-05-18T07:45:25Z</time>
      </trkpt>
      <trkpt lat="43.784894021227956" lon="6.445870958268642">
        <ele>697.09000000000003</ele>
        <time>2025-05-18T07:45:26Z</time>
      </trkpt>
      <trkpt lat="43.784721018746495" lon="6.445870958268642">
        <ele>697.09000000000003</ele>
        <time>2025-05-18T07:45:27Z</time>
      </trkpt>
      <trkpt lat="43.784057004377246" lon="6.445804992690682">
        <ele>698.04999999999995</ele>
        <time>2025-05-18T07:45:31Z</time>
      </trkpt>
      <trkpt lat="43.783699013292789" lon="6.445710025727749">
        <ele>699.01999999999998</ele>
        <time>2025-05-18T07:45:33Z</time>
      </trkpt>
      <trkpt lat="43.782967021688819" lon="6.44556200131774">
        <ele>700.94000000000005</ele>
        <time>2025-05-18T07:45:37Z</time>
      </trkpt>
      <trkpt lat="43.782424964010715" lon="6.44543400965631">
        <ele>702.86000000000001</ele>
        <time>2025-05-18T07:45:40Z</time>
      </trkpt>
      <trkpt lat="43.782063033431768" lon="6.445299983024597">
        <ele>703.34000000000003</ele>
        <time>2025-05-18T07:45:42Z</time>
      </trkpt>
      <trkpt lat="43.78125099465251" lon="6.444838978350163">
        <ele>706.23000000000002</ele>
        <time>2025-05-18T07:45:47Z</time>
      </trkpt>
      <trkpt lat="43.78110196441412" lon="6.444723978638649">
        <ele>706.23000000000002</ele>
        <time>2025-05-18T07:45:48Z</time>
      </trkpt>
      <trkpt lat="43.780828965827823" lon="6.444516023620963">
        <ele>707.19000000000005</ele>
        <time>2025-05-18T07:45:50Z</time>
      </trkpt>
      <trkpt lat="43.780711032450199" lon="6.444426001980901">
        <ele>707.19000000000005</ele>
        <time>2025-05-18T07:45:51Z</time>
      </trkpt>
      <trkpt lat="43.780572982504964" lon="6.444457015022636">
        <ele>707.19000000000005</ele>
        <time>2025-05-18T07:45:52Z</time>
      </trkpt>
      <trkpt lat="43.780447002500296" lon="6.444486016407609">
        <ele>706.71000000000004</ele>
        <time>2025-05-18T07:45:53Z</time>
      </trkpt>
      <trkpt lat="43.780346000567079" lon="6.4445969928056">
        <ele>706.23000000000002</ele>
        <time>2025-05-18T07:45:54Z</time>
      </trkpt>
      <trkpt lat="43.780240975320339" lon="6.444728001952171">
        <ele>705.75</ele>
        <time>2025-05-18T07:45:55Z</time>
      </trkpt>
      <trkpt lat="43.780127987265587" lon="6.444868985563517">
        <ele>705.25999999999999</ele>
        <time>2025-05-18T07:45:56Z</time>
      </trkpt>
      <trkpt lat="43.779773013666272" lon="6.445211973041296">
        <ele>703.82000000000005</ele>
        <time>2025-05-18T07:45:59Z</time>
      </trkpt>
      <trkpt lat="43.779634041711688" lon="6.445277016609907">
        <ele>702.86000000000001</ele>
        <time>2025-05-18T07:46:00Z</time>
      </trkpt>
      <trkpt lat="43.77957402728498" lon="6.4453050121665">
        <ele>702.38</ele>
        <time>2025-05-18T07:46:01Z</time>
      </trkpt>
      <trkpt lat="43.779436983168125" lon="6.445266036316752">
        <ele>701.41999999999996</ele>
        <time>2025-05-18T07:46:02Z</time>
      </trkpt>
      <trkpt lat="43.77940303646028" lon="6.445237034931779">
        <ele>700.46000000000004</ele>
        <time>2025-05-18T07:46:03Z</time>
      </trkpt>
      <trkpt lat="43.77931603230536" lon="6.445134021341801">
        <ele>699.01999999999998</ele>
        <time>2025-05-18T07:46:04Z</time>
      </trkpt>
      <trkpt lat="43.779311003163457" lon="6.445067971944809">
        <ele>698.52999999999997</ele>
        <time>2025-05-18T07:46:05Z</time>
      </trkpt>
      <trkpt lat="43.779298011213541" lon="6.444923970848322">
        <ele>698.04999999999995</ele>
        <time>2025-05-18T07:46:06Z</time>
      </trkpt>
      <trkpt lat="43.779285019263625" lon="6.444765971973538">
        <ele>697.57000000000005</ele>
        <time>2025-05-18T07:46:07Z</time>
      </trkpt>
      <trkpt lat="43.779251994565129" lon="6.444609984755516">
        <ele>697.09000000000003</ele>
        <time>2025-05-18T07:46:08Z</time>
      </trkpt>
      <trkpt lat="43.779151998460293" lon="6.44448802806437">
        <ele>696.61000000000001</ele>
        <time>2025-05-18T07:46:09Z</time>
      </trkpt>
      <trkpt lat="43.779036998748779" lon="6.444469001144171">
        <ele>696.61000000000001</ele>
        <time>2025-05-18T07:46:10Z</time>
      </trkpt>
      <trkpt lat="43.778929961845279" lon="6.444501020014286">
        <ele>695.64999999999998</ele>
        <time>2025-05-18T07:46:11Z</time>
      </trkpt>
      <trkpt lat="43.778811022639275" lon="6.444537984207273">
        <ele>695.16999999999996</ele>
        <time>2025-05-18T07:46:12Z</time>
      </trkpt>
      <trkpt lat="43.77867397852242" lon="6.444579977542162">
        <ele>694.21000000000004</ele>
        <time>2025-05-18T07:46:13Z</time>
      </trkpt>
      <trkpt lat="43.778195036575198" lon="6.444738982245326">
        <ele>692.28999999999996</ele>
        <time>2025-05-18T07:46:16Z</time>
      </trkpt>
      <trkpt lat="43.777864035218954" lon="6.444905027747154">
        <ele>690.84000000000003</ele>
        <time>2025-05-18T07:46:18Z</time>
      </trkpt>
      <trkpt lat="43.777689021080732" lon="6.444999994710088">
        <ele>689.88</ele>
        <time>2025-05-18T07:46:19Z</time>
      </trkpt>
      <trkpt lat="43.776522008702159" lon="6.446103975176811">
        <ele>684.60000000000002</ele>
        <time>2025-05-18T07:46:27Z</time>
      </trkpt>
      <trkpt lat="43.776423018425703" lon="6.446240013465285">
        <ele>684.60000000000002</ele>
        <time>2025-05-18T07:46:28Z</time>
      </trkpt>
      <trkpt lat="43.77631195820868" lon="6.44640002399683">
        <ele>684.60000000000002</ele>
        <time>2025-05-18T07:46:29Z</time>
      </trkpt>
      <trkpt lat="43.77626895904541" lon="6.446549976244569">
        <ele>684.60000000000002</ele>
        <time>2025-05-18T07:46:30Z</time>
      </trkpt>
      <trkpt lat="43.776254961267114" lon="6.446693977341056">
        <ele>684.12</ele>
        <time>2025-05-18T07:46:31Z</time>
      </trkpt>
      <trkpt lat="43.776259990409017" lon="6.446881983429194">
        <ele>683.63</ele>
        <time>2025-05-18T07:46:32Z</time>
      </trkpt>
      <trkpt lat="43.776279017329216" lon="6.447078958153725">
        <ele>683.14999999999998</ele>
        <time>2025-05-18T07:46:33Z</time>
      </trkpt>
      <trkpt lat="43.776387982070446" lon="6.447860989719629">
        <ele>682.19000000000005</ele>
        <time>2025-05-18T07:46:37Z</time>
      </trkpt>
      <trkpt lat="43.776429975405335" lon="6.448014965280891">
        <ele>682.19000000000005</ele>
        <time>2025-05-18T07:46:38Z</time>
      </trkpt>
      <trkpt lat="43.776467023417354" lon="6.448152009397745">
        <ele>682.66999999999996</ele>
        <time>2025-05-18T07:46:39Z</time>
      </trkpt>
      <trkpt lat="43.776499964296818" lon="6.448274971917272">
        <ele>682.66999999999996</ele>
        <time>2025-05-18T07:46:40Z</time>
      </trkpt>
      <trkpt lat="43.776527037844062" lon="6.448373962193728">
        <ele>682.19000000000005</ele>
        <time>2025-05-18T07:46:41Z</time>
      </trkpt>
      <trkpt lat="43.776505999267101" lon="6.448502959683538">
        <ele>681.71000000000004</ele>
        <time>2025-05-18T07:46:42Z</time>
      </trkpt>
      <trkpt lat="43.776440033689141" lon="6.448568003252149">
        <ele>680.75</ele>
        <time>2025-05-18T07:46:43Z</time>
      </trkpt>
      <trkpt lat="43.776298966258764" lon="6.448612008243799">
        <ele>680.26999999999998</ele>
        <time>2025-05-18T07:46:44Z</time>
      </trkpt>
      <trkpt lat="43.776200981810689" lon="6.448587030172348">
        <ele>679.78999999999996</ele>
        <time>2025-05-18T07:46:45Z</time>
      </trkpt>
      <trkpt lat="43.776081958785653" lon="6.448558028787375">
        <ele>678.83000000000004</ele>
        <time>2025-05-18T07:46:46Z</time>
      </trkpt>
      <trkpt lat="43.775827987119555" lon="6.448432970792055">
        <ele>677.87</ele>
        <time>2025-05-18T07:46:48Z</time>
      </trkpt>
      <trkpt lat="43.775703012943268" lon="6.448336998000741">
        <ele>677.38999999999999</ele>
        <time>2025-05-18T07:46:49Z</time>
      </trkpt>
      <trkpt lat="43.775574015453458" lon="6.448238007724285">
        <ele>676.41999999999996</ele>
        <time>2025-05-18T07:46:50Z</time>
      </trkpt>
      <trkpt lat="43.775446023792028" lon="6.448143040761352">
        <ele>676.41999999999996</ele>
        <time>2025-05-18T07:46:51Z</time>
      </trkpt>
      <trkpt lat="43.775314008817077" lon="6.448042960837483">
        <ele>675.94000000000005</ele>
        <time>2025-05-18T07:46:52Z</time>
      </trkpt>
      <trkpt lat="43.774217991158366" lon="6.447515990585089">
        <ele>673.05999999999995</ele>
        <time>2025-05-18T07:46:59Z</time>
      </trkpt>
      <trkpt lat="43.77379504032433" lon="6.447369977831841">
        <ele>671.62</ele>
        <time>2025-05-18T07:47:02Z</time>
      </trkpt>
      <trkpt lat="43.773686997592449" lon="6.447430998086929">
        <ele>670.65999999999997</ele>
        <time>2025-05-18T07:47:03Z</time>
      </trkpt>
      <trkpt lat="43.773593036457896" lon="6.447496041655541">
        <ele>670.17999999999995</ele>
        <time>2025-05-18T07:47:04Z</time>
      </trkpt>
      <trkpt lat="43.773530004546046" lon="6.447596037760377">
        <ele>670.17999999999995</ele>
        <time>2025-05-18T07:47:05Z</time>
      </trkpt>
      <trkpt lat="43.773475019261241" lon="6.447721011936665">
        <ele>670.17999999999995</ele>
        <time>2025-05-18T07:47:06Z</time>
      </trkpt>
      <trkpt lat="43.773417016491294" lon="6.447850009426475">
        <ele>670.65999999999997</ele>
        <time>2025-05-18T07:47:07Z</time>
      </trkpt>
      <trkpt lat="43.773354990407825" lon="6.447989987209439">
        <ele>670.17999999999995</ele>
        <time>2025-05-18T07:47:08Z</time>
      </trkpt>
      <trkpt lat="43.773264968767762" lon="6.448127031326294">
        <ele>669.70000000000005</ele>
        <time>2025-05-18T07:47:09Z</time>
      </trkpt>
      <trkpt lat="43.773146029561758" lon="6.448215963318944">
        <ele>669.22000000000003</ele>
        <time>2025-05-18T07:47:10Z</time>
      </trkpt>
      <trkpt lat="43.7730229832232" lon="6.44831201992929">
        <ele>669.22000000000003</ele>
        <time>2025-05-18T07:47:11Z</time>
      </trkpt>
      <trkpt lat="43.772749984636903" lon="6.448545958846808">
        <ele>668.73000000000002</ele>
        <time>2025-05-18T07:47:13Z</time>
      </trkpt>
      <trkpt lat="43.772689970210195" lon="6.448666993528605">
        <ele>668.73000000000002</ele>
        <time>2025-05-18T07:47:14Z</time>
      </trkpt>
      <trkpt lat="43.772616041824222" lon="6.448824992403388">
        <ele>669.22000000000003</ele>
        <time>2025-05-18T07:47:15Z</time>
      </trkpt>
      <trkpt lat="43.77257295884192" lon="6.448990032076836">
        <ele>669.70000000000005</ele>
        <time>2025-05-18T07:47:16Z</time>
      </trkpt>
      <trkpt lat="43.77253096550703" lon="6.449153982102871">
        <ele>669.70000000000005</ele>
        <time>2025-05-18T07:47:17Z</time>
      </trkpt>
      <trkpt lat="43.772489978000522" lon="6.449310975149274">
        <ele>669.70000000000005</ele>
        <time>2025-05-18T07:47:18Z</time>
      </trkpt>
      <trkpt lat="43.772425018250942" lon="6.449428992345929">
        <ele>670.17999999999995</ele>
        <time>2025-05-18T07:47:19Z</time>
      </trkpt>
      <trkpt lat="43.772348994389176" lon="6.449504010379314">
        <ele>670.17999999999995</ele>
        <time>2025-05-18T07:47:20Z</time>
      </trkpt>
      <trkpt lat="43.77229199744761" lon="6.449549021199346">
        <ele>669.70000000000005</ele>
        <time>2025-05-18T07:47:21Z</time>
      </trkpt>
      <trkpt lat="43.772229971364141" lon="6.449507027864456">
        <ele>669.70000000000005</ele>
        <time>2025-05-18T07:47:22Z</time>
      </trkpt>
      <trkpt lat="43.772160988301039" lon="6.449417006224394">
        <ele>669.22000000000003</ele>
        <time>2025-05-18T07:47:23Z</time>
      </trkpt>
      <trkpt lat="43.77214003354311" lon="6.4493010006845">
        <ele>669.22000000000003</ele>
        <time>2025-05-18T07:47:24Z</time>
      </trkpt>
      <trkpt lat="43.772107008844614" lon="6.449124980717897">
        <ele>668.73000000000002</ele>
        <time>2025-05-18T07:47:25Z</time>
      </trkpt>
      <trkpt lat="43.772039031609893" lon="6.449048034846783">
        <ele>668.25</ele>
        <time>2025-05-18T07:47:26Z</time>
      </trkpt>
      <trkpt lat="43.771955966949463" lon="6.448952984064817">
        <ele>668.73000000000002</ele>
        <time>2025-05-18T07:47:27Z</time>
      </trkpt>
      <trkpt lat="43.771827975288033" lon="6.448931023478508">
        <ele>668.73000000000002</ele>
        <time>2025-05-18T07:47:28Z</time>
      </trkpt>
      <trkpt lat="43.771700989454985" lon="6.448907973244786">
        <ele>669.22000000000003</ele>
        <time>2025-05-18T07:47:29Z</time>
      </trkpt>
      <trkpt lat="43.771557994186878" lon="6.448889030143619">
        <ele>670.17999999999995</ele>
        <time>2025-05-18T07:47:30Z</time>
      </trkpt>
      <trkpt lat="43.771409969776869" lon="6.448889030143619">
        <ele>670.65999999999997</ele>
        <time>2025-05-18T07:47:31Z</time>
      </trkpt>
      <trkpt lat="43.770927004516125" lon="6.448889030143619">
        <ele>673.53999999999996</ele>
        <time>2025-05-18T07:47:34Z</time>
      </trkpt>
      <trkpt lat="43.770755007863045" lon="6.448889030143619">
        <ele>674.01999999999998</ele>
        <time>2025-05-18T07:47:35Z</time>
      </trkpt>
      <trkpt lat="43.770426018163562" lon="6.448781993240118">
        <ele>675.46000000000004</ele>
        <time>2025-05-18T07:47:37Z</time>
      </trkpt>
      <trkpt lat="43.770277993753552" lon="6.448691971600056">
        <ele>676.41999999999996</ele>
        <time>2025-05-18T07:47:38Z</time>
      </trkpt>
      <trkpt lat="43.770125024020672" lon="6.448577977716923">
        <ele>676.90999999999997</ele>
        <time>2025-05-18T07:47:39Z</time>
      </trkpt>
      <trkpt lat="43.768838988617063" lon="6.447881022468209">
        <ele>684.60000000000002</ele>
        <time>2025-05-18T07:47:47Z</time>
      </trkpt>
      <trkpt lat="43.768673026934266" lon="6.447815978899598">
        <ele>685.55999999999995</ele>
        <time>2025-05-18T07:47:48Z</time>
      </trkpt>
      <trkpt lat="43.768508993089199" lon="6.447822013869882">
        <ele>686.03999999999996</ele>
        <time>2025-05-18T07:47:49Z</time>
      </trkpt>
      <trkpt lat="43.767689997330308" lon="6.447855038568378">
        <ele>690.36000000000001</ele>
        <time>2025-05-18T07:47:54Z</time>
      </trkpt>
      <trkpt lat="43.767533004283905" lon="6.447901977226138">
        <ele>690.84000000000003</ele>
        <time>2025-05-18T07:47:55Z</time>
      </trkpt>
      <trkpt lat="43.767381040379405" lon="6.447998033836484">
        <ele>691.33000000000004</ele>
        <time>2025-05-18T07:47:56Z</time>
      </trkpt>
      <trkpt lat="43.766001965850592" lon="6.44891501404345">
        <ele>699.5</ele>
        <time>2025-05-18T07:48:04Z</time>
      </trkpt>
      <trkpt lat="43.764436980709434" lon="6.449941964820027">
        <ele>706.23000000000002</ele>
        <time>2025-05-18T07:48:13Z</time>
      </trkpt>
      <trkpt lat="43.763686968013644" lon="6.450361981987953">
        <ele>708.63</ele>
        <time>2025-05-18T07:48:18Z</time>
      </trkpt>
      <trkpt lat="43.763559982180595" lon="6.450501959770918">
        <ele>709.59000000000003</ele>
        <time>2025-05-18T07:48:19Z</time>
      </trkpt>
      <trkpt lat="43.763426961377263" lon="6.450657024979591">
        <ele>710.54999999999995</ele>
        <time>2025-05-18T07:48:20Z</time>
      </trkpt>
      <trkpt lat="43.762595979496837" lon="6.451668972149491">
        <ele>713.44000000000005</ele>
        <time>2025-05-18T07:48:26Z</time>
      </trkpt>
      <trkpt lat="43.762467987835407" lon="6.451837029308081">
        <ele>713.91999999999996</ele>
        <time>2025-05-18T07:48:27Z</time>
      </trkpt>
      <trkpt lat="43.76174395903945" lon="6.452829027548432">
        <ele>714.39999999999998</ele>
        <time>2025-05-18T07:48:33Z</time>
      </trkpt>
      <trkpt lat="43.761647986248136" lon="6.453002030029893">
        <ele>714.39999999999998</ele>
        <time>2025-05-18T07:48:34Z</time>
      </trkpt>
      <trkpt lat="43.760980032384396" lon="6.45486700348556">
        <ele>717.75999999999999</ele>
        <time>2025-05-18T07:48:42Z</time>
      </trkpt>
      <trkpt lat="43.760280981659889" lon="6.456745974719524">
        <ele>720.64999999999998</ele>
        <time>2025-05-18T07:48:50Z</time>
      </trkpt>
      <trkpt lat="43.760081995278597" lon="6.457114024087787">
        <ele>721.61000000000001</ele>
        <time>2025-05-18T07:48:52Z</time>
      </trkpt>
      <trkpt lat="43.759971018880606" lon="6.457290966063738">
        <ele>722.09000000000003</ele>
        <time>2025-05-18T07:48:53Z</time>
      </trkpt>
      <trkpt lat="43.759831041097641" lon="6.457431027665734">
        <ele>722.57000000000005</ele>
        <time>2025-05-18T07:48:54Z</time>
      </trkpt>
      <trkpt lat="43.758480967953801" lon="6.458523022010922">
        <ele>724.49000000000001</ele>
        <time>2025-05-18T07:49:03Z</time>
      </trkpt>
      <trkpt lat="43.758352976292372" lon="6.458709016442299">
        <ele>724.49000000000001</ele>
        <time>2025-05-18T07:49:04Z</time>
      </trkpt>
      <trkpt lat="43.758249040693045" lon="6.458860980346799">
        <ele>724.97000000000003</ele>
        <time>2025-05-18T07:49:05Z</time>
      </trkpt>
      <trkpt lat="43.758162958547473" lon="6.459031971171498">
        <ele>724.97000000000003</ele>
        <time>2025-05-18T07:49:06Z</time>
      </trkpt>
      <trkpt lat="43.758076038211584" lon="6.459231041371822">
        <ele>725.45000000000005</ele>
        <time>2025-05-18T07:49:07Z</time>
      </trkpt>
      <trkpt lat="43.757986016571522" lon="6.459449976682663">
        <ele>725.45000000000005</ele>
        <time>2025-05-18T07:49:08Z</time>
      </trkpt>
      <trkpt lat="43.757793987169862" lon="6.459919027984142">
        <ele>725.92999999999995</ele>
        <time>2025-05-18T07:49:10Z</time>
      </trkpt>
      <trkpt lat="43.757518976926804" lon="6.46032496355474">
        <ele>726.40999999999997</ele>
        <time>2025-05-18T07:49:12Z</time>
      </trkpt>
      <trkpt lat="43.757386961951852" lon="6.460519004613161">
        <ele>726.88999999999999</ele>
        <time>2025-05-18T07:49:13Z</time>
      </trkpt>
      <trkpt lat="43.757208008319139" lon="6.460673986002803">
        <ele>726.88999999999999</ele>
        <time>2025-05-18T07:49:14Z</time>
      </trkpt>
      <trkpt lat="43.757032994180918" lon="6.460827039554715">
        <ele>726.40999999999997</ele>
        <time>2025-05-18T07:49:15Z</time>
      </trkpt>
      <trkpt lat="43.756853034719825" lon="6.460984032601118">
        <ele>726.40999999999997</ele>
        <time>2025-05-18T07:49:16Z</time>
      </trkpt>
      <trkpt lat="43.75667198561132" lon="6.461141025647521">
        <ele>726.40999999999997</ele>
        <time>2025-05-18T07:49:17Z</time>
      </trkpt>
      <trkpt lat="43.756495965644717" lon="6.461293995380402">
        <ele>726.40999999999997</ele>
        <time>2025-05-18T07:49:18Z</time>
      </trkpt>
      <trkpt lat="43.75602699816227" lon="6.461710995063186">
        <ele>726.88999999999999</ele>
        <time>2025-05-18T07:49:21Z</time>
      </trkpt>
      <trkpt lat="43.75589900650084" lon="6.461860025301576">
        <ele>726.88999999999999</ele>
        <time>2025-05-18T07:49:22Z</time>
      </trkpt>
      <trkpt lat="43.755784006789327" lon="6.462032021954656">
        <ele>726.88999999999999</ele>
        <time>2025-05-18T07:49:23Z</time>
      </trkpt>
      <trkpt lat="43.755678981542587" lon="6.462212987244129">
        <ele>726.40999999999997</ele>
        <time>2025-05-18T07:49:24Z</time>
      </trkpt>
      <trkpt lat="43.755608992651105" lon="6.462441980838776">
        <ele>726.40999999999997</ele>
        <time>2025-05-18T07:49:25Z</time>
      </trkpt>
      <trkpt lat="43.7555349804461" lon="6.462682960554957">
        <ele>725.92999999999995</ele>
        <time>2025-05-18T07:49:26Z</time>
      </trkpt>
      <trkpt lat="43.754879012703896" lon="6.464097993448377">
        <ele>723.52999999999997</ele>
        <time>2025-05-18T07:49:32Z</time>
      </trkpt>
      <trkpt lat="43.753820965066552" lon="6.465615034103394">
        <ele>724.00999999999999</ele>
        <time>2025-05-18T07:49:39Z</time>
      </trkpt>
      <trkpt lat="43.752141986042261" lon="6.467939000576735">
        <ele>728.34000000000003</ele>
        <time>2025-05-18T07:49:50Z</time>
      </trkpt>
      <trkpt lat="43.750828960910439" lon="6.469751000404358">
        <ele>729.77999999999997</ele>
        <time>2025-05-18T07:49:59Z</time>
      </trkpt>
      <trkpt lat="43.749549966305494" lon="6.471530981361866">
        <ele>730.25999999999999</ele>
        <time>2025-05-18T07:50:08Z</time>
      </trkpt>
      <trkpt lat="43.748018005862832" lon="6.473680017516017">
        <ele>734.10000000000002</ele>
        <time>2025-05-18T07:50:19Z</time>
      </trkpt>
      <trkpt lat="43.747849026694894" lon="6.474040020257235">
        <ele>735.07000000000005</ele>
        <time>2025-05-18T07:50:21Z</time>
      </trkpt>
      <trkpt lat="43.747687004506588" lon="6.474370015785098">
        <ele>735.54999999999995</ele>
        <time>2025-05-18T07:50:23Z</time>
      </trkpt>
      <trkpt lat="43.747591031715274" lon="6.474515022709966">
        <ele>736.02999999999997</ele>
        <time>2025-05-18T07:50:24Z</time>
      </trkpt>
      <trkpt lat="43.747492041438818" lon="6.474663969129324">
        <ele>735.54999999999995</ele>
        <time>2025-05-18T07:50:25Z</time>
      </trkpt>
      <trkpt lat="43.746493002399802" lon="6.475765015929937">
        <ele>737.47000000000003</ele>
        <time>2025-05-18T07:50:33Z</time>
      </trkpt>
      <trkpt lat="43.745173020288348" lon="6.477156998589635">
        <ele>740.35000000000002</ele>
        <time>2025-05-18T07:50:42Z</time>
      </trkpt>
      <trkpt lat="43.743560006842017" lon="6.478870008140802">
        <ele>742.75999999999999</ele>
        <time>2025-05-18T07:50:53Z</time>
      </trkpt>
      <trkpt lat="43.743013003841043" lon="6.479498986154795">
        <ele>744.20000000000005</ele>
        <time>2025-05-18T07:50:57Z</time>
      </trkpt>
      <trkpt lat="43.742161989212036" lon="6.480808993801475">
        <ele>746.60000000000002</ele>
        <time>2025-05-18T07:51:04Z</time>
      </trkpt>
      <trkpt lat="43.742079008370638" lon="6.481002029031515">
        <ele>747.08000000000004</ele>
        <time>2025-05-18T07:51:05Z</time>
      </trkpt>
      <trkpt lat="43.742000972852111" lon="6.481191962957382">
        <ele>747.08000000000004</ele>
        <time>2025-05-18T07:51:06Z</time>
      </trkpt>
      <trkpt lat="43.74197599478066" lon="6.481417017057538">
        <ele>747.55999999999995</ele>
        <time>2025-05-18T07:51:07Z</time>
      </trkpt>
      <trkpt lat="43.741949005052447" lon="6.481653973460197">
        <ele>748.03999999999996</ele>
        <time>2025-05-18T07:51:08Z</time>
      </trkpt>
      <trkpt lat="43.741802992299199" lon="6.48266701027751">
        <ele>749.49000000000001</ele>
        <time>2025-05-18T07:51:12Z</time>
      </trkpt>
      <trkpt lat="43.74173803254962" lon="6.482908995822072">
        <ele>749.97000000000003</ele>
        <time>2025-05-18T07:51:13Z</time>
      </trkpt>
      <trkpt lat="43.741059014573693" lon="6.48470800369978">
        <ele>753.80999999999995</ele>
        <time>2025-05-18T07:51:21Z</time>
      </trkpt>
      <trkpt lat="43.740776041522622" lon="6.486110966652632">
        <ele>756.21000000000004</ele>
        <time>2025-05-18T07:51:27Z</time>
      </trkpt>
      <trkpt lat="43.740769000723958" lon="6.486334009096026">
        <ele>757.17999999999995</ele>
        <time>2025-05-18T07:51:28Z</time>
      </trkpt>
      <trkpt lat="43.740735976025462" lon="6.487317960709333">
        <ele>759.58000000000004</ele>
        <time>2025-05-18T07:51:32Z</time>
      </trkpt>
      <trkpt lat="43.740672022104263" lon="6.488038972020149">
        <ele>761.01999999999998</ele>
        <time>2025-05-18T07:51:35Z</time>
      </trkpt>
      <trkpt lat="43.740698006004095" lon="6.48825597949326">
        <ele>761.01999999999998</ele>
        <time>2025-05-18T07:51:36Z</time>
      </trkpt>
      <trkpt lat="43.74072901904583" lon="6.488494025543332">
        <ele>761.01999999999998</ele>
        <time>2025-05-18T07:51:37Z</time>
      </trkpt>
      <trkpt lat="43.740972010418773" lon="6.490362016484141">
        <ele>766.30999999999995</ele>
        <time>2025-05-18T07:51:44Z</time>
      </trkpt>
      <trkpt lat="43.741092961281538" lon="6.491526011377573">
        <ele>767.75</ele>
        <time>2025-05-18T07:51:49Z</time>
      </trkpt>
      <trkpt lat="43.741087010130286" lon="6.491957008838654">
        <ele>766.30999999999995</ele>
        <time>2025-05-18T07:51:51Z</time>
      </trkpt>
      <trkpt lat="43.741106959059834" lon="6.492181979119778">
        <ele>765.83000000000004</ele>
        <time>2025-05-18T07:51:52Z</time>
      </trkpt>
      <trkpt lat="43.74113998375833" lon="6.492420025169849">
        <ele>764.87</ele>
        <time>2025-05-18T07:51:53Z</time>
      </trkpt>
      <trkpt lat="43.741560000926256" lon="6.494251973927021">
        <ele>757.65999999999997</ele>
        <time>2025-05-18T07:52:00Z</time>
      </trkpt>
      <trkpt lat="43.74201999977231" lon="6.496194982901216">
        <ele>753.80999999999995</ele>
        <time>2025-05-18T07:52:08Z</time>
      </trkpt>
      <trkpt lat="43.742281012237072" lon="6.49729703553021">
        <ele>750.92999999999995</ele>
        <time>2025-05-18T07:52:15Z</time>
      </trkpt>
      <trkpt lat="43.74244898557663" lon="6.497991979122162">
        <ele>749.97000000000003</ele>
        <time>2025-05-18T07:52:21Z</time>
      </trkpt>
      <trkpt lat="43.742488967254758" lon="6.498189037665725">
        <ele>749.97000000000003</ele>
        <time>2025-05-18T07:52:23Z</time>
      </trkpt>
      <trkpt lat="43.742505982518196" lon="6.498410990461707">
        <ele>750.45000000000005</ele>
        <time>2025-05-18T07:52:25Z</time>
      </trkpt>
      <trkpt lat="43.742478992789984" lon="6.498520961031318">
        <ele>750.45000000000005</ele>
        <time>2025-05-18T07:52:26Z</time>
      </trkpt>
      <trkpt lat="43.74230096116662" lon="6.499179024249315">
        <ele>750.45000000000005</ele>
        <time>2025-05-18T07:52:32Z</time>
      </trkpt>
      <trkpt lat="43.742268020287156" lon="6.499284971505404">
        <ele>750.45000000000005</ele>
        <time>2025-05-18T07:52:33Z</time>
      </trkpt>
      <trkpt lat="43.742217980325222" lon="6.499371975660324">
        <ele>750.45000000000005</ele>
        <time>2025-05-18T07:52:34Z</time>
      </trkpt>
      <trkpt lat="43.742161989212036" lon="6.499450011178851">
        <ele>750.92999999999995</ele>
        <time>2025-05-18T07:52:35Z</time>
      </trkpt>
      <trkpt lat="43.742095017805696" lon="6.499501978978515">
        <ele>751.40999999999997</ele>
        <time>2025-05-18T07:52:36Z</time>
      </trkpt>
      <trkpt lat="43.742027040570974" lon="6.499547995626926">
        <ele>751.40999999999997</ele>
        <time>2025-05-18T07:52:37Z</time>
      </trkpt>
      <trkpt lat="43.74195403419435" lon="6.499545983970165">
        <ele>751.88999999999999</ele>
        <time>2025-05-18T07:52:38Z</time>
      </trkpt>
      <trkpt lat="43.741877004504204" lon="6.499541038647294">
        <ele>752.37</ele>
        <time>2025-05-18T07:52:39Z</time>
      </trkpt>
      <trkpt lat="43.741795029491186" lon="6.499535003677011">
        <ele>752.85000000000002</ele>
        <time>2025-05-18T07:52:40Z</time>
      </trkpt>
      <trkpt lat="43.741700984537601" lon="6.499528968706727">
        <ele>752.85000000000002</ele>
        <time>2025-05-18T07:52:41Z</time>
      </trkpt>
      <trkpt lat="43.741614986211061" lon="6.499497033655644">
        <ele>752.85000000000002</ele>
        <time>2025-05-18T07:52:42Z</time>
      </trkpt>
      <trkpt lat="43.741522030904889" lon="6.499460991472006">
        <ele>752.85000000000002</ele>
        <time>2025-05-18T07:52:43Z</time>
      </trkpt>
      <trkpt lat="43.741429997608066" lon="6.499426038935781">
        <ele>752.85000000000002</ele>
        <time>2025-05-18T07:52:44Z</time>
      </trkpt>
      <trkpt lat="43.741335030645132" lon="6.499389996752143">
        <ele>752.85000000000002</ele>
        <time>2025-05-18T07:52:45Z</time>
      </trkpt>
      <trkpt lat="43.741232017055154" lon="6.499351020902395">
        <ele>753.80999999999995</ele>
        <time>2025-05-18T07:52:46Z</time>
      </trkpt>
      <trkpt lat="43.741135038435459" lon="6.499313972890377">
        <ele>754.76999999999998</ele>
        <time>2025-05-18T07:52:47Z</time>
      </trkpt>
      <trkpt lat="43.741032024845481" lon="6.499273991212249">
        <ele>756.69000000000005</ele>
        <time>2025-05-18T07:52:48Z</time>
      </trkpt>
      <trkpt lat="43.740906966850162" lon="6.499224035069346">
        <ele>758.13999999999999</ele>
        <time>2025-05-18T07:52:49Z</time>
      </trkpt>
      <trkpt lat="43.740781992673874" lon="6.499163014814258">
        <ele>759.58000000000004</ele>
        <time>2025-05-18T07:52:50Z</time>
      </trkpt>
      <trkpt lat="43.740641009062529" lon="6.499087996780872">
        <ele>761.5</ele>
        <time>2025-05-18T07:52:51Z</time>
      </trkpt>
      <trkpt lat="43.740486027672887" lon="6.499006021767855">
        <ele>763.41999999999996</ele>
        <time>2025-05-18T07:52:52Z</time>
      </trkpt>
      <trkpt lat="43.740034997463226" lon="6.498751966282725">
        <ele>767.75</ele>
        <time>2025-05-18T07:52:55Z</time>
      </trkpt>
      <trkpt lat="43.739897031337023" lon="6.498706033453345">
        <ele>769.19000000000005</ele>
        <time>2025-05-18T07:52:56Z</time>
      </trkpt>
      <trkpt lat="43.739741966128349" lon="6.498679965734482">
        <ele>770.14999999999998</ele>
        <time>2025-05-18T07:52:57Z</time>
      </trkpt>
      <trkpt lat="43.739598970860243" lon="6.498708967119455">
        <ele>770.63</ele>
        <time>2025-05-18T07:52:58Z</time>
      </trkpt>
      <trkpt lat="43.739439966157079" lon="6.498755989596248">
        <ele>771.11000000000001</ele>
        <time>2025-05-18T07:52:59Z</time>
      </trkpt>
      <trkpt lat="43.739300994202495" lon="6.498855985701084">
        <ele>772.08000000000004</ele>
        <time>2025-05-18T07:53:00Z</time>
      </trkpt>
      <trkpt lat="43.739150036126375" lon="6.498963022604585">
        <ele>772.55999999999995</ele>
        <time>2025-05-18T07:53:01Z</time>
      </trkpt>
      <trkpt lat="43.738081008195877" lon="6.499925013631582">
        <ele>778.32000000000005</ele>
        <time>2025-05-18T07:53:08Z</time>
      </trkpt>
      <trkpt lat="43.737298976629972" lon="6.500707967206836">
        <ele>785.04999999999995</ele>
        <time>2025-05-18T07:53:14Z</time>
      </trkpt>
      <trkpt lat="43.737152041867375" lon="6.500774016603828">
        <ele>786.5</ele>
        <time>2025-05-18T07:53:15Z</time>
      </trkpt>
      <trkpt lat="43.737010974436998" lon="6.500762030482292">
        <ele>787.46000000000004</ele>
        <time>2025-05-18T07:53:16Z</time>
      </trkpt>
      <trkpt lat="43.736894968897104" lon="6.500751972198486">
        <ele>789.38</ele>
        <time>2025-05-18T07:53:17Z</time>
      </trkpt>
      <trkpt lat="43.736768988892436" lon="6.500796983018518">
        <ele>790.82000000000005</ele>
        <time>2025-05-18T07:53:18Z</time>
      </trkpt>
      <trkpt lat="43.736659018322825" lon="6.500837970525026">
        <ele>792.74000000000001</ele>
        <time>2025-05-18T07:53:19Z</time>
      </trkpt>
      <trkpt lat="43.73662699945271" lon="6.500922041013837">
        <ele>794.19000000000005</ele>
        <time>2025-05-18T07:53:20Z</time>
      </trkpt>
      <trkpt lat="43.736596992239356" lon="6.501026982441545">
        <ele>796.11000000000001</ele>
        <time>2025-05-18T07:53:21Z</time>
      </trkpt>
      <trkpt lat="43.736619036644697" lon="6.501161009073257">
        <ele>797.07000000000005</ele>
        <time>2025-05-18T07:53:22Z</time>
      </trkpt>
      <trkpt lat="43.73664703220129" lon="6.501328982412815">
        <ele>798.50999999999999</ele>
        <time>2025-05-18T07:53:23Z</time>
      </trkpt>
      <trkpt lat="43.736679973080754" lon="6.501525035127997">
        <ele>799.47000000000003</ele>
        <time>2025-05-18T07:53:24Z</time>
      </trkpt>
      <trkpt lat="43.736835038289428" lon="6.502708978950977">
        <ele>805.24000000000001</ele>
        <time>2025-05-18T07:53:29Z</time>
      </trkpt>
      <trkpt lat="43.736866973340511" lon="6.50295197032392">
        <ele>806.20000000000005</ele>
        <time>2025-05-18T07:53:30Z</time>
      </trkpt>
      <trkpt lat="43.737112982198596" lon="6.503823017701507">
        <ele>811.00999999999999</ele>
        <time>2025-05-18T07:53:35Z</time>
      </trkpt>
      <trkpt lat="43.73712002299726" lon="6.503915973007679">
        <ele>811.49000000000001</ele>
        <time>2025-05-18T07:53:36Z</time>
      </trkpt>
      <trkpt lat="43.737078029662371" lon="6.504018986597657">
        <ele>812.45000000000005</ele>
        <time>2025-05-18T07:53:37Z</time>
      </trkpt>
      <trkpt lat="43.73701399192214" lon="6.504049999639392">
        <ele>812.45000000000005</ele>
        <time>2025-05-18T07:53:38Z</time>
      </trkpt>
      <trkpt lat="43.736879965290427" lon="6.504015969112515">
        <ele>812.92999999999995</ele>
        <time>2025-05-18T07:53:39Z</time>
      </trkpt>
      <trkpt lat="43.736765971407294" lon="6.503927959129214">
        <ele>813.40999999999997</ele>
        <time>2025-05-18T07:53:40Z</time>
      </trkpt>
      <trkpt lat="43.736677039414644" lon="6.503813965246081">
        <ele>813.88999999999999</ele>
        <time>2025-05-18T07:53:41Z</time>
      </trkpt>
      <trkpt lat="43.735846979543567" lon="6.502746026962996">
        <ele>821.58000000000004</ele>
        <time>2025-05-18T07:53:48Z</time>
      </trkpt>
      <trkpt lat="43.735728962346911" lon="6.502593979239464">
        <ele>822.54999999999995</ele>
        <time>2025-05-18T07:53:49Z</time>
      </trkpt>
      <trkpt lat="43.735584039241076" lon="6.502513010054827">
        <ele>823.50999999999999</ele>
        <time>2025-05-18T07:53:50Z</time>
      </trkpt>
      <trkpt lat="43.735416987910867" lon="6.502432962879539">
        <ele>824.47000000000003</ele>
        <time>2025-05-18T07:53:51Z</time>
      </trkpt>
      <trkpt lat="43.735071988776326" lon="6.502243028953672">
        <ele>826.38999999999999</ele>
        <time>2025-05-18T07:53:53Z</time>
      </trkpt>
      <trkpt lat="43.734015030786395" lon="6.501430990174413">
        <ele>834.08000000000004</ele>
        <time>2025-05-18T07:53:59Z</time>
      </trkpt>
      <trkpt lat="43.733821995556355" lon="6.501330994069576">
        <ele>835.03999999999996</ele>
        <time>2025-05-18T07:54:00Z</time>
      </trkpt>
      <trkpt lat="43.733139960095286" lon="6.500966968014836">
        <ele>840.33000000000004</ele>
        <time>2025-05-18T07:54:04Z</time>
      </trkpt>
      <trkpt lat="43.733038958162069" lon="6.500827996060252">
        <ele>841.76999999999998</ele>
        <time>2025-05-18T07:54:05Z</time>
      </trkpt>
      <trkpt lat="43.732834020629525" lon="6.500547034665942">
        <ele>844.17999999999995</ele>
        <time>2025-05-18T07:54:07Z</time>
      </trkpt>
      <trkpt lat="43.732720026746392" lon="6.500455001369119">
        <ele>845.62</ele>
        <time>2025-05-18T07:54:08Z</time>
      </trkpt>
      <trkpt lat="43.732584994286299" lon="6.500383000820875">
        <ele>847.05999999999995</ele>
        <time>2025-05-18T07:54:09Z</time>
      </trkpt>
      <trkpt lat="43.73243797570467" lon="6.500305971130729">
        <ele>848.01999999999998</ele>
        <time>2025-05-18T07:54:10Z</time>
      </trkpt>
      <trkpt lat="43.732288023456931" lon="6.500227013602853">
        <ele>848.98000000000002</ele>
        <time>2025-05-18T07:54:11Z</time>
      </trkpt>
      <trkpt lat="43.731861971318722" lon="6.500074965879321">
        <ele>851.38</ele>
        <time>2025-05-18T07:54:14Z</time>
      </trkpt>
      <trkpt lat="43.731704978272319" lon="6.500088041648269">
        <ele>852.35000000000002</ele>
        <time>2025-05-18T07:54:15Z</time>
      </trkpt>
      <trkpt lat="43.731534993276" lon="6.500102039426565">
        <ele>853.78999999999996</ele>
        <time>2025-05-18T07:54:16Z</time>
      </trkpt>
      <trkpt lat="43.730238983407617" lon="6.500157024711371">
        <ele>860.51999999999998</ele>
        <time>2025-05-18T07:54:23Z</time>
      </trkpt>
      <trkpt lat="43.730058018118143" lon="6.500157024711371">
        <ele>861.48000000000002</ele>
        <time>2025-05-18T07:54:24Z</time>
      </trkpt>
      <trkpt lat="43.72988099232316" lon="6.500188959762454">
        <ele>862.44000000000005</ele>
        <time>2025-05-18T07:54:25Z</time>
      </trkpt>
      <trkpt lat="43.729710001498461" lon="6.500219972804189">
        <ele>863.39999999999998</ele>
        <time>2025-05-18T07:54:26Z</time>
      </trkpt>
      <trkpt lat="43.729549990966916" lon="6.500248974189162">
        <ele>864.84000000000003</ele>
        <time>2025-05-18T07:54:27Z</time>
      </trkpt>
      <trkpt lat="43.729398027062416" lon="6.500275963917375">
        <ele>865.79999999999995</ele>
        <time>2025-05-18T07:54:28Z</time>
      </trkpt>
      <trkpt lat="43.72925603762269" lon="6.500301025807858">
        <ele>866.76999999999998</ele>
        <time>2025-05-18T07:54:29Z</time>
      </trkpt>
      <trkpt lat="43.729117987677455" lon="6.500392975285649">
        <ele>867.73000000000002</ele>
        <time>2025-05-18T07:54:30Z</time>
      </trkpt>
      <trkpt lat="43.728991001844406" lon="6.500507974997163">
        <ele>868.69000000000005</ele>
        <time>2025-05-18T07:54:31Z</time>
      </trkpt>
      <trkpt lat="43.728867033496499" lon="6.500645019114018">
        <ele>869.64999999999998</ele>
        <time>2025-05-18T07:54:32Z</time>
      </trkpt>
      <trkpt lat="43.728769971057773" lon="6.500821961089969">
        <ele>870.61000000000001</ele>
        <time>2025-05-18T07:54:33Z</time>
      </trkpt>
      <trkpt lat="43.728671986609697" lon="6.501019019633532">
        <ele>871.57000000000005</ele>
        <time>2025-05-18T07:54:34Z</time>
      </trkpt>
      <trkpt lat="43.728572996333241" lon="6.501215994358063">
        <ele>872.04999999999995</ele>
        <time>2025-05-18T07:54:35Z</time>
      </trkpt>
      <trkpt lat="43.72837602160871" lon="6.501610027626157">
        <ele>873.98000000000002</ele>
        <time>2025-05-18T07:54:37Z</time>
      </trkpt>
      <trkpt lat="43.728277031332254" lon="6.501808008179069">
        <ele>874.46000000000004</ele>
        <time>2025-05-18T07:54:38Z</time>
      </trkpt>
      <trkpt lat="43.728168988600373" lon="6.501989979296923">
        <ele>875.41999999999996</ele>
        <time>2025-05-18T07:54:39Z</time>
      </trkpt>
      <trkpt lat="43.728050971403718" lon="6.50215501897037">
        <ele>876.38</ele>
        <time>2025-05-18T07:54:40Z</time>
      </trkpt>
      <trkpt lat="43.727921973913908" lon="6.502288961783052">
        <ele>877.34000000000003</ele>
        <time>2025-05-18T07:54:41Z</time>
      </trkpt>
      <trkpt lat="43.727786019444466" lon="6.502407984808087">
        <ele>877.82000000000005</ele>
        <time>2025-05-18T07:54:42Z</time>
      </trkpt>
      <trkpt lat="43.727649981155992" lon="6.502543017268181">
        <ele>878.29999999999995</ele>
        <time>2025-05-18T07:54:43Z</time>
      </trkpt>
      <trkpt lat="43.7275580316782" lon="6.502699004486203">
        <ele>878.29999999999995</ele>
        <time>2025-05-18T07:54:44Z</time>
      </trkpt>
      <trkpt lat="43.727468010038137" lon="6.502850968390703">
        <ele>878.29999999999995</ele>
        <time>2025-05-18T07:54:45Z</time>
      </trkpt>
      <trkpt lat="43.727298025041819" lon="6.50318699888885">
        <ele>879.25999999999999</ele>
        <time>2025-05-18T07:54:47Z</time>
      </trkpt>
      <trkpt lat="43.727183025330305" lon="6.503334017470479">
        <ele>879.74000000000001</ele>
        <time>2025-05-18T07:54:48Z</time>
      </trkpt>
      <trkpt lat="43.727041035890579" lon="6.50346402078867">
        <ele>880.22000000000003</ele>
        <time>2025-05-18T07:54:49Z</time>
      </trkpt>
      <trkpt lat="43.725891960784793" lon="6.504607982933521">
        <ele>887.42999999999995</ele>
        <time>2025-05-18T07:54:56Z</time>
      </trkpt>
      <trkpt lat="43.725038012489676" lon="6.505359001457691">
        <ele>892.72000000000003</ele>
        <time>2025-05-18T07:55:01Z</time>
      </trkpt>
      <trkpt lat="43.724849000573158" lon="6.505410969257355">
        <ele>893.67999999999995</ele>
        <time>2025-05-18T07:55:02Z</time>
      </trkpt>
      <trkpt lat="43.723347969353199" lon="6.505777006968856">
        <ele>902.33000000000004</ele>
        <time>2025-05-18T07:55:10Z</time>
      </trkpt>
      <trkpt lat="43.723212014883757" lon="6.505755968391895">
        <ele>902.82000000000005</ele>
        <time>2025-05-18T07:55:11Z</time>
      </trkpt>
      <trkpt lat="43.723110007122159" lon="6.505659995600581">
        <ele>903.29999999999995</ele>
        <time>2025-05-18T07:55:12Z</time>
      </trkpt>
      <trkpt lat="43.723012022674084" lon="6.505537033081055">
        <ele>903.29999999999995</ele>
        <time>2025-05-18T07:55:13Z</time>
      </trkpt>
      <trkpt lat="43.722972040995955" lon="6.505371993407607">
        <ele>902.82000000000005</ele>
        <time>2025-05-18T07:55:14Z</time>
      </trkpt>
      <trkpt lat="43.722926024347544" lon="6.505180969834328">
        <ele>902.33000000000004</ele>
        <time>2025-05-18T07:55:15Z</time>
      </trkpt>
      <trkpt lat="43.72281001880765" lon="6.50482096709311">
        <ele>901.37</ele>
        <time>2025-05-18T07:55:17Z</time>
      </trkpt>
      <trkpt lat="43.7227279599756" lon="6.504674032330513">
        <ele>900.88999999999999</ele>
        <time>2025-05-18T07:55:18Z</time>
      </trkpt>
      <trkpt lat="43.722611032426357" lon="6.504547968506813">
        <ele>900.40999999999997</ele>
        <time>2025-05-18T07:55:19Z</time>
      </trkpt>
      <trkpt lat="43.722485974431038" lon="6.504413019865751">
        <ele>899.92999999999995</ele>
        <time>2025-05-18T07:55:20Z</time>
      </trkpt>
      <trkpt lat="43.72234096750617" lon="6.504316963255405">
        <ele>899.45000000000005</ele>
        <time>2025-05-18T07:55:21Z</time>
      </trkpt>
      <trkpt lat="43.722175005823374" lon="6.504226019605994">
        <ele>899.45000000000005</ele>
        <time>2025-05-18T07:55:22Z</time>
      </trkpt>
      <trkpt lat="43.722004014998674" lon="6.50413298048079">
        <ele>899.45000000000005</ele>
        <time>2025-05-18T07:55:23Z</time>
      </trkpt>
      <trkpt lat="43.721688017249107" lon="6.503926031291485">
        <ele>899.92999999999995</ele>
        <time>2025-05-18T07:55:25Z</time>
      </trkpt>
      <trkpt lat="43.721573017537594" lon="6.503790998831391">
        <ele>899.92999999999995</ele>
        <time>2025-05-18T07:55:26Z</time>
      </trkpt>
      <trkpt lat="43.721488025039434" lon="6.503692008554936">
        <ele>899.92999999999995</ele>
        <time>2025-05-18T07:55:27Z</time>
      </trkpt>
      <trkpt lat="43.721444020047784" lon="6.503514982759953">
        <ele>900.40999999999997</ele>
        <time>2025-05-18T07:55:28Z</time>
      </trkpt>
      <trkpt lat="43.721404038369656" lon="6.503355978056788">
        <ele>900.40999999999997</ele>
        <time>2025-05-18T07:55:29Z</time>
      </trkpt>
      <trkpt lat="43.721376964822412" lon="6.503176018595696">
        <ele>900.40999999999997</ele>
        <time>2025-05-18T07:55:30Z</time>
      </trkpt>
      <trkpt lat="43.721367996186018" lon="6.502961022779346">
        <ele>900.40999999999997</ele>
        <time>2025-05-18T07:55:31Z</time>
      </trkpt>
      <trkpt lat="43.721360033378005" lon="6.502742003649473">
        <ele>899.92999999999995</ele>
        <time>2025-05-18T07:55:32Z</time>
      </trkpt>
      <trkpt lat="43.721389034762979" lon="6.502537988126278">
        <ele>900.40999999999997</ele>
        <time>2025-05-18T07:55:33Z</time>
      </trkpt>
      <trkpt lat="43.721423987299204" lon="6.502297008410096">
        <ele>900.40999999999997</ele>
        <time>2025-05-18T07:55:34Z</time>
      </trkpt>
      <trkpt lat="43.721474027261138" lon="6.50213498622179">
        <ele>900.40999999999997</ele>
        <time>2025-05-18T07:55:35Z</time>
      </trkpt>
      <trkpt lat="43.721532030031085" lon="6.501951003447175">
        <ele>900.40999999999997</ele>
        <time>2025-05-18T07:55:36Z</time>
      </trkpt>
      <trkpt lat="43.721585003659129" lon="6.501775989308953">
        <ele>900.40999999999997</ele>
        <time>2025-05-18T07:55:37Z</time>
      </trkpt>
      <trkpt lat="43.7216089759022" lon="6.501584965735674">
        <ele>900.40999999999997</ele>
        <time>2025-05-18T07:55:38Z</time>
      </trkpt>
      <trkpt lat="43.721576035022736" lon="6.5014040004462">
        <ele>900.88999999999999</ele>
        <time>2025-05-18T07:55:39Z</time>
      </trkpt>
      <trkpt lat="43.721506968140602" lon="6.501280032098293">
        <ele>901.37</ele>
        <time>2025-05-18T07:55:40Z</time>
      </trkpt>
      <trkpt lat="43.721409989520907" lon="6.501198979094625">
        <ele>901.85000000000002</ele>
        <time>2025-05-18T07:55:41Z</time>
      </trkpt>
      <trkpt lat="43.721303958445787" lon="6.501181041821837">
        <ele>902.33000000000004</ele>
        <time>2025-05-18T07:55:42Z</time>
      </trkpt>
      <trkpt lat="43.72119901701808" lon="6.50120903737843">
        <ele>902.82000000000005</ele>
        <time>2025-05-18T07:55:43Z</time>
      </trkpt>
      <trkpt lat="43.721079993993044" lon="6.501270979642868">
        <ele>903.29999999999995</ele>
        <time>2025-05-18T07:55:44Z</time>
      </trkpt>
      <trkpt lat="43.720952002331614" lon="6.50133803486824">
        <ele>904.25999999999999</ele>
        <time>2025-05-18T07:55:45Z</time>
      </trkpt>
      <trkpt lat="43.72081495821476" lon="6.501410035416484">
        <ele>904.74000000000001</ele>
        <time>2025-05-18T07:55:46Z</time>
      </trkpt>
      <trkpt lat="43.720657965168357" lon="6.501452028751373">
        <ele>905.22000000000003</ele>
        <time>2025-05-18T07:55:47Z</time>
      </trkpt>
      <trkpt lat="43.720176005735993" lon="6.501604998484254">
        <ele>906.17999999999995</ele>
        <time>2025-05-18T07:55:50Z</time>
      </trkpt>
      <trkpt lat="43.720050025731325" lon="6.501707006245852">
        <ele>906.17999999999995</ele>
        <time>2025-05-18T07:55:51Z</time>
      </trkpt>
      <trkpt lat="43.719974001869559" lon="6.501848995685577">
        <ele>906.65999999999997</ele>
        <time>2025-05-18T07:55:52Z</time>
      </trkpt>
      <trkpt lat="43.719925973564386" lon="6.502028033137322">
        <ele>906.65999999999997</ele>
        <time>2025-05-18T07:55:53Z</time>
      </trkpt>
      <trkpt lat="43.719871994107962" lon="6.502228025346994">
        <ele>906.65999999999997</ele>
        <time>2025-05-18T07:55:54Z</time>
      </trkpt>
      <trkpt lat="43.719789013266563" lon="6.502438997849822">
        <ele>906.65999999999997</ele>
        <time>2025-05-18T07:55:55Z</time>
      </trkpt>
      <trkpt lat="43.719682982191443" lon="6.502617029473186">
        <ele>907.13999999999999</ele>
        <time>2025-05-18T07:55:56Z</time>
      </trkpt>
      <trkpt lat="43.719563959166408" lon="6.502762036398053">
        <ele>907.13999999999999</ele>
        <time>2025-05-18T07:55:57Z</time>
      </trkpt>
      <trkpt lat="43.719435967504978" lon="6.502890028059483">
        <ele>907.62</ele>
        <time>2025-05-18T07:55:58Z</time>
      </trkpt>
      <trkpt lat="43.719277968630195" lon="6.502966973930597">
        <ele>907.62</ele>
        <time>2025-05-18T07:55:59Z</time>
      </trkpt>
      <trkpt lat="43.719104966148734" lon="6.50303503498435">
        <ele>908.10000000000002</ele>
        <time>2025-05-18T07:56:00Z</time>
      </trkpt>
      <trkpt lat="43.718924000859261" lon="6.503068981692195">
        <ele>908.10000000000002</ele>
        <time>2025-05-18T07:56:01Z</time>
      </trkpt>
      <trkpt lat="43.718744041398168" lon="6.50308096781373">
        <ele>908.58000000000004</ele>
        <time>2025-05-18T07:56:02Z</time>
      </trkpt>
      <trkpt lat="43.718557963147759" lon="6.503052972257137">
        <ele>909.05999999999995</ele>
        <time>2025-05-18T07:56:03Z</time>
      </trkpt>
      <trkpt lat="43.718360988423228" lon="6.503022965043783">
        <ele>910.02999999999997</ele>
        <time>2025-05-18T07:56:04Z</time>
      </trkpt>
      <trkpt lat="43.717983970418572" lon="6.502917017787695">
        <ele>910.99000000000001</ele>
        <time>2025-05-18T07:56:06Z</time>
      </trkpt>
      <trkpt lat="43.717791019007564" lon="6.502839988097549">
        <ele>911.47000000000003</ele>
        <time>2025-05-18T07:56:07Z</time>
      </trkpt>
      <trkpt lat="43.717219959944487" lon="6.502591967582703">
        <ele>911.95000000000005</ele>
        <time>2025-05-18T07:56:10Z</time>
      </trkpt>
      <trkpt lat="43.717026002705097" lon="6.502557015046477">
        <ele>911.47000000000003</ele>
        <time>2025-05-18T07:56:11Z</time>
      </trkpt>
      <trkpt lat="43.71664303354919" lon="6.502532958984375">
        <ele>911.47000000000003</ele>
        <time>2025-05-18T07:56:13Z</time>
      </trkpt>
      <trkpt lat="43.716456033289433" lon="6.502543017268181">
        <ele>911.47000000000003</ele>
        <time>2025-05-18T07:56:14Z</time>
      </trkpt>
      <trkpt lat="43.715143008157611" lon="6.502960016950965">
        <ele>909.53999999999996</ele>
        <time>2025-05-18T07:56:21Z</time>
      </trkpt>
      <trkpt lat="43.714612014591694" lon="6.503193033859134">
        <ele>908.10000000000002</ele>
        <time>2025-05-18T07:56:24Z</time>
      </trkpt>
      <trkpt lat="43.713399991393089" lon="6.504076989367604">
        <ele>903.77999999999997</ele>
        <time>2025-05-18T07:56:32Z</time>
      </trkpt>
      <trkpt lat="43.71333796530962" lon="6.504199029877782">
        <ele>902.82000000000005</ele>
        <time>2025-05-18T07:56:33Z</time>
      </trkpt>
      <trkpt lat="43.713280968368053" lon="6.504314029589295">
        <ele>902.33000000000004</ele>
        <time>2025-05-18T07:56:34Z</time>
      </trkpt>
      <trkpt lat="43.713225983083248" lon="6.504421988502145">
        <ele>901.85000000000002</ele>
        <time>2025-05-18T07:56:35Z</time>
      </trkpt>
      <trkpt lat="43.713170997798443" lon="6.504535982385278">
        <ele>901.37</ele>
        <time>2025-05-18T07:56:36Z</time>
      </trkpt>
      <trkpt lat="43.713119029998779" lon="6.504656011238694">
        <ele>901.37</ele>
        <time>2025-05-18T07:56:37Z</time>
      </trkpt>
      <trkpt lat="43.713007969781756" lon="6.504911994561553">
        <ele>899.92999999999995</ele>
        <time>2025-05-18T07:56:39Z</time>
      </trkpt>
      <trkpt lat="43.712934963405132" lon="6.505023976787925">
        <ele>899.45000000000005</ele>
        <time>2025-05-18T07:56:40Z</time>
      </trkpt>
      <trkpt lat="43.712841002270579" lon="6.505086002871394">
        <ele>898.97000000000003</ele>
        <time>2025-05-18T07:56:41Z</time>
      </trkpt>
      <trkpt lat="43.712749974802136" lon="6.505148028954864">
        <ele>898.97000000000003</ele>
        <time>2025-05-18T07:56:42Z</time>
      </trkpt>
      <trkpt lat="43.712665988132358" lon="6.50520795956254">
        <ele>898.97000000000003</ele>
        <time>2025-05-18T07:56:43Z</time>
      </trkpt>
      <trkpt lat="43.712626006454229" lon="6.505236960947514">
        <ele>898.49000000000001</ele>
        <time>2025-05-18T07:56:44Z</time>
      </trkpt>
      <trkpt lat="43.712565992027521" lon="6.505371993407607">
        <ele>898.00999999999999</ele>
        <time>2025-05-18T07:56:45Z</time>
      </trkpt>
      <trkpt lat="43.712540008127689" lon="6.505429996177554">
        <ele>898.00999999999999</ele>
        <time>2025-05-18T07:56:46Z</time>
      </trkpt>
      <trkpt lat="43.712540008127689" lon="6.505429996177554">
        <ele>897.52999999999997</ele>
        <time>2025-05-18T07:56:47Z</time>
      </trkpt>
      <trkpt lat="43.712398018687963" lon="6.505589000880718">
        <ele>897.04999999999995</ele>
        <time>2025-05-18T07:56:48Z</time>
      </trkpt>
      <trkpt lat="43.712344039231539" lon="6.50559201836586">
        <ele>896.57000000000005</ele>
        <time>2025-05-18T07:56:49Z</time>
      </trkpt>
      <trkpt lat="43.712272960692644" lon="6.505596963688731">
        <ele>896.57000000000005</ele>
        <time>2025-05-18T07:56:50Z</time>
      </trkpt>
      <trkpt lat="43.712190985679626" lon="6.505611967295408">
        <ele>896.09000000000003</ele>
        <time>2025-05-18T07:56:51Z</time>
      </trkpt>
      <trkpt lat="43.712099036201835" lon="6.505645997822285">
        <ele>895.61000000000001</ele>
        <time>2025-05-18T07:56:52Z</time>
      </trkpt>
      <trkpt lat="43.71200499124825" lon="6.505691008642316">
        <ele>895.61000000000001</ele>
        <time>2025-05-18T07:56:53Z</time>
      </trkpt>
      <trkpt lat="43.711911030113697" lon="6.505744988098741">
        <ele>895.12</ele>
        <time>2025-05-18T07:56:54Z</time>
      </trkpt>
      <trkpt lat="43.711813967674971" lon="6.505795028060675">
        <ele>895.12</ele>
        <time>2025-05-18T07:56:55Z</time>
      </trkpt>
      <trkpt lat="43.711715983226895" lon="6.505845990031958">
        <ele>895.61000000000001</ele>
        <time>2025-05-18T07:56:56Z</time>
      </trkpt>
      <trkpt lat="43.711375007405877" lon="6.506023015826941">
        <ele>897.04999999999995</ele>
        <time>2025-05-18T07:57:00Z</time>
      </trkpt>
      <trkpt lat="43.711322033777833" lon="6.506074983626604">
        <ele>897.52999999999997</ele>
        <time>2025-05-18T07:57:01Z</time>
      </trkpt>
      <trkpt lat="43.711270987987518" lon="6.506134998053312">
        <ele>897.04999999999995</ele>
        <time>2025-05-18T07:57:02Z</time>
      </trkpt>
      <trkpt lat="43.711222037672997" lon="6.506193000823259">
        <ele>897.04999999999995</ele>
        <time>2025-05-18T07:57:03Z</time>
      </trkpt>
      <trkpt lat="43.711175015196204" lon="6.506256032735109">
        <ele>897.04999999999995</ele>
        <time>2025-05-18T07:57:04Z</time>
      </trkpt>
      <trkpt lat="43.710778970271349" lon="6.506761964410543">
        <ele>898.97000000000003</ele>
        <time>2025-05-18T07:57:12Z</time>
      </trkpt>
      <trkpt lat="43.710747035220265" lon="6.506803035736084">
        <ele>898.97000000000003</ele>
        <time>2025-05-18T07:57:13Z</time>
      </trkpt>
      <trkpt lat="43.710668999701738" lon="6.506834970787168">
        <ele>899.45000000000005</ele>
        <time>2025-05-18T07:57:14Z</time>
      </trkpt>
      <trkpt lat="43.710624994710088" lon="6.506780991330743">
        <ele>899.92999999999995</ele>
        <time>2025-05-18T07:57:15Z</time>
      </trkpt>
      <trkpt lat="43.710577972233295" lon="6.506720976904035">
        <ele>899.92999999999995</ele>
        <time>2025-05-18T07:57:16Z</time>
      </trkpt>
      <trkpt lat="43.710528016090393" lon="6.506659034639597">
        <ele>900.40999999999997</ele>
        <time>2025-05-18T07:57:17Z</time>
      </trkpt>
      <trkpt lat="43.710437994450331" lon="6.506544034928083">
        <ele>900.40999999999997</ele>
        <time>2025-05-18T07:57:18Z</time>
      </trkpt>
      <trkpt lat="43.710462972521782" lon="6.506446972489357">
        <ele>900.88999999999999</ele>
        <time>2025-05-18T07:57:19Z</time>
      </trkpt>
      <trkpt lat="43.710494991391897" lon="6.506327027454972">
        <ele>901.37</ele>
        <time>2025-05-18T07:57:20Z</time>
      </trkpt>
      <trkpt lat="43.710530027747154" lon="6.506193000823259">
        <ele>901.37</ele>
        <time>2025-05-18T07:57:21Z</time>
      </trkpt>
      <trkpt lat="43.710569003596902" lon="6.506041958928108">
        <ele>901.37</ele>
        <time>2025-05-18T07:57:22Z</time>
      </trkpt>
      <trkpt lat="43.710879972204566" lon="6.504676965996623">
        <ele>903.77999999999997</ele>
        <time>2025-05-18T07:57:30Z</time>
      </trkpt>
      <trkpt lat="43.711127992719412" lon="6.503490004688501">
        <ele>905.70000000000005</ele>
        <time>2025-05-18T07:57:36Z</time>
      </trkpt>
      <trkpt lat="43.711590003222227" lon="6.501468038186431">
        <ele>907.62</ele>
        <time>2025-05-18T07:57:44Z</time>
      </trkpt>
      <trkpt lat="43.712036004289985" lon="6.499464008957148">
        <ele>908.58000000000004</ele>
        <time>2025-05-18T07:57:51Z</time>
      </trkpt>
      <trkpt lat="43.712488040328026" lon="6.497523011639714">
        <ele>911.47000000000003</ele>
        <time>2025-05-18T07:57:58Z</time>
      </trkpt>
      <trkpt lat="43.712669005617499" lon="6.495850989595056">
        <ele>910.99000000000001</ele>
        <time>2025-05-18T07:58:04Z</time>
      </trkpt>
      <trkpt lat="43.712929012253881" lon="6.493565998971462">
        <ele>908.10000000000002</ele>
        <time>2025-05-18T07:58:12Z</time>
      </trkpt>
      <trkpt lat="43.71303403750062" lon="6.492072008550167">
        <ele>907.13999999999999</ele>
        <time>2025-05-18T07:58:17Z</time>
      </trkpt>
      <trkpt lat="43.71303403750062" lon="6.491544032469392">
        <ele>907.62</ele>
        <time>2025-05-18T07:58:19Z</time>
      </trkpt>
      <trkpt lat="43.71307997033" lon="6.491309003904462">
        <ele>907.62</ele>
        <time>2025-05-18T07:58:20Z</time>
      </trkpt>
      <trkpt lat="43.71314400807023" lon="6.491108005866408">
        <ele>907.62</ele>
        <time>2025-05-18T07:58:21Z</time>
      </trkpt>
      <trkpt lat="43.713279962539673" lon="6.490760995075107">
        <ele>909.53999999999996</ele>
        <time>2025-05-18T07:58:23Z</time>
      </trkpt>
      <trkpt lat="43.713333019986749" lon="6.490625962615013">
        <ele>910.50999999999999</ele>
        <time>2025-05-18T07:58:24Z</time>
      </trkpt>
      <trkpt lat="43.713304018601775" lon="6.490478022024036">
        <ele>911.47000000000003</ele>
        <time>2025-05-18T07:58:25Z</time>
      </trkpt>
      <trkpt lat="43.713268982246518" lon="6.490310970693827">
        <ele>911.95000000000005</ele>
        <time>2025-05-18T07:58:26Z</time>
      </trkpt>
      <trkpt lat="43.71322900056839" lon="6.490120030939579">
        <ele>911.95000000000005</ele>
        <time>2025-05-18T07:58:27Z</time>
      </trkpt>
      <trkpt lat="43.713140990585089" lon="6.489701019600034">
        <ele>912.42999999999995</ele>
        <time>2025-05-18T07:58:29Z</time>
      </trkpt>
      <trkpt lat="43.713140990585089" lon="6.489474959671497">
        <ele>912.42999999999995</ele>
        <time>2025-05-18T07:58:30Z</time>
      </trkpt>
      <trkpt lat="43.713140990585089" lon="6.489247977733612">
        <ele>912.90999999999997</ele>
        <time>2025-05-18T07:58:31Z</time>
      </trkpt>
      <trkpt lat="43.713207961991429" lon="6.489041028544307">
        <ele>913.38999999999999</ele>
        <time>2025-05-18T07:58:32Z</time>
      </trkpt>
      <trkpt lat="43.713293960317969" lon="6.488829972222447">
        <ele>913.87</ele>
        <time>2025-05-18T07:58:33Z</time>
      </trkpt>
      <trkpt lat="43.71338197030127" lon="6.488611036911607">
        <ele>914.35000000000002</ele>
        <time>2025-05-18T07:58:34Z</time>
      </trkpt>
      <trkpt lat="43.713474003598094" lon="6.48838397115469">
        <ele>915.30999999999995</ele>
        <time>2025-05-18T07:58:35Z</time>
      </trkpt>
      <trkpt lat="43.713683970272541" lon="6.487958002835512">
        <ele>916.26999999999998</ele>
        <time>2025-05-18T07:58:37Z</time>
      </trkpt>
      <trkpt lat="43.713817996904254" lon="6.487763961777091">
        <ele>916.75</ele>
        <time>2025-05-18T07:58:38Z</time>
      </trkpt>
      <trkpt lat="43.714683009311557" lon="6.486416989937425">
        <ele>922.51999999999998</ele>
        <time>2025-05-18T07:58:45Z</time>
      </trkpt>
      <trkpt lat="43.714761966839433" lon="6.486233007162809">
        <ele>923.48000000000002</ele>
        <time>2025-05-18T07:58:46Z</time>
      </trkpt>
      <trkpt lat="43.71482097543776" lon="6.486038966104388">
        <ele>923.96000000000004</ele>
        <time>2025-05-18T07:58:47Z</time>
      </trkpt>
      <trkpt lat="43.714856011793017" lon="6.485856994986534">
        <ele>924.45000000000005</ele>
        <time>2025-05-18T07:58:48Z</time>
      </trkpt>
      <trkpt lat="43.714865986257792" lon="6.485673012211919">
        <ele>925.40999999999997</ele>
        <time>2025-05-18T07:58:49Z</time>
      </trkpt>
      <trkpt lat="43.714826004579663" lon="6.485489029437304">
        <ele>925.88999999999999</ele>
        <time>2025-05-18T07:58:50Z</time>
      </trkpt>
      <trkpt lat="43.714780993759632" lon="6.485286019742489">
        <ele>926.85000000000002</ele>
        <time>2025-05-18T07:58:51Z</time>
      </trkpt>
      <trkpt lat="43.714732965454459" lon="6.485065994784236">
        <ele>927.80999999999995</ele>
        <time>2025-05-18T07:58:52Z</time>
      </trkpt>
      <trkpt lat="43.714570021256804" lon="6.48419301956892">
        <ele>930.21000000000004</ele>
        <time>2025-05-18T07:58:56Z</time>
      </trkpt>
      <trkpt lat="43.714587036520243" lon="6.483989004045725">
        <ele>931.16999999999996</ele>
        <time>2025-05-18T07:58:57Z</time>
      </trkpt>
      <trkpt lat="43.714619977399707" lon="6.483790017664433">
        <ele>932.13999999999999</ele>
        <time>2025-05-18T07:58:58Z</time>
      </trkpt>
      <trkpt lat="43.714720979332924" lon="6.483629001304507">
        <ele>933.10000000000002</ele>
        <time>2025-05-18T07:58:59Z</time>
      </trkpt>
      <trkpt lat="43.714827010408044" lon="6.483460022136569">
        <ele>934.05999999999995</ele>
        <time>2025-05-18T07:59:00Z</time>
      </trkpt>
      <trkpt lat="43.714935975149274" lon="6.483285007998347">
        <ele>935.01999999999998</ele>
        <time>2025-05-18T07:59:01Z</time>
      </trkpt>
      <trkpt lat="43.715416006743908" lon="6.482567014172673">
        <ele>939.83000000000004</ele>
        <time>2025-05-18T07:59:05Z</time>
      </trkpt>
      <trkpt lat="43.715568976476789" lon="6.482438016682863">
        <ele>940.78999999999996</ele>
        <time>2025-05-18T07:59:06Z</time>
      </trkpt>
      <trkpt lat="43.715737033635378" lon="6.482298038899899">
        <ele>941.26999999999998</ele>
        <time>2025-05-18T07:59:07Z</time>
      </trkpt>
      <trkpt lat="43.715924033895135" lon="6.482246993109584">
        <ele>942.23000000000002</ele>
        <time>2025-05-18T07:59:08Z</time>
      </trkpt>
      <trkpt lat="43.716117991134524" lon="6.482192007824779">
        <ele>943.66999999999996</ele>
        <time>2025-05-18T07:59:09Z</time>
      </trkpt>
      <trkpt lat="43.716712016612291" lon="6.482014982029796">
        <ele>947.51999999999998</ele>
        <time>2025-05-18T07:59:12Z</time>
      </trkpt>
      <trkpt lat="43.716897005215287" lon="6.481922026723623">
        <ele>948.48000000000002</ele>
        <time>2025-05-18T07:59:13Z</time>
      </trkpt>
      <trkpt lat="43.717075958848" lon="6.481823036447167">
        <ele>949.91999999999996</ele>
        <time>2025-05-18T07:59:14Z</time>
      </trkpt>
      <trkpt lat="43.718261998146772" lon="6.480857022106648">
        <ele>958.57000000000005</ele>
        <time>2025-05-18T07:59:21Z</time>
      </trkpt>
      <trkpt lat="43.718523010611534" lon="6.480609001591802">
        <ele>961.46000000000004</ele>
        <time>2025-05-18T07:59:23Z</time>
      </trkpt>
      <trkpt lat="43.718647984787822" lon="6.48045402020216">
        <ele>962.41999999999996</ele>
        <time>2025-05-18T07:59:24Z</time>
      </trkpt>
      <trkpt lat="43.718930035829544" lon="6.480117989704013">
        <ele>964.34000000000003</ele>
        <time>2025-05-18T07:59:26Z</time>
      </trkpt>
      <trkpt lat="43.719090968370438" lon="6.479970971122384">
        <ele>964.82000000000005</ele>
        <time>2025-05-18T07:59:27Z</time>
      </trkpt>
      <trkpt lat="43.719276040792465" lon="6.47985203191638">
        <ele>965.29999999999995</ele>
        <time>2025-05-18T07:59:28Z</time>
      </trkpt>
      <trkpt lat="43.719466980546713" lon="6.479741977527738">
        <ele>965.77999999999997</ele>
        <time>2025-05-18T07:59:29Z</time>
      </trkpt>
      <trkpt lat="43.719650041311979" lon="6.479636030271649">
        <ele>966.25999999999999</ele>
        <time>2025-05-18T07:59:30Z</time>
      </trkpt>
      <trkpt lat="43.719966039061546" lon="6.479435032233596">
        <ele>967.22000000000003</ele>
        <time>2025-05-18T07:59:32Z</time>
      </trkpt>
      <trkpt lat="43.720086989924312" lon="6.479269992560148">
        <ele>967.70000000000005</ele>
        <time>2025-05-18T07:59:33Z</time>
      </trkpt>
      <trkpt lat="43.721016962081194" lon="6.477734008803964">
        <ele>970.59000000000003</ele>
        <time>2025-05-18T07:59:40Z</time>
      </trkpt>
      <trkpt lat="43.721121987327933" lon="6.477461010217667">
        <ele>971.07000000000005</ele>
        <time>2025-05-18T07:59:41Z</time>
      </trkpt>
      <trkpt lat="43.722013989463449" lon="6.474820962175727">
        <ele>977.32000000000005</ele>
        <time>2025-05-18T07:59:50Z</time>
      </trkpt>
      <trkpt lat="43.722396036610007" lon="6.472937967628241">
        <ele>977.79999999999995</ele>
        <time>2025-05-18T07:59:56Z</time>
      </trkpt>
      <trkpt lat="43.722774982452393" lon="6.470453990623355">
        <ele>978.75999999999999</ele>
        <time>2025-05-18T08:00:04Z</time>
      </trkpt>
      <trkpt lat="43.723143031820655" lon="6.468840977177024">
        <ele>979.72000000000003</ele>
        <time>2025-05-18T08:00:10Z</time>
      </trkpt>
      <trkpt lat="43.72349800541997" lon="6.467581009492278">
        <ele>981.15999999999997</ele>
        <time>2025-05-18T08:00:15Z</time>
      </trkpt>
      <trkpt lat="43.723569000139832" lon="6.467396020889282">
        <ele>981.15999999999997</ele>
        <time>2025-05-18T08:00:16Z</time>
      </trkpt>
      <trkpt lat="43.723667990416288" lon="6.467223018407822">
        <ele>980.67999999999995</ele>
        <time>2025-05-18T08:00:17Z</time>
      </trkpt>
      <trkpt lat="43.723790030926466" lon="6.467087985947728">
        <ele>980.67999999999995</ele>
        <time>2025-05-18T08:00:18Z</time>
      </trkpt>
      <trkpt lat="43.723913999274373" lon="6.466977009549737">
        <ele>980.20000000000005</ele>
        <time>2025-05-18T08:00:19Z</time>
      </trkpt>
      <trkpt lat="43.724055988714099" lon="6.466929987072945">
        <ele>979.72000000000003</ele>
        <time>2025-05-18T08:00:20Z</time>
      </trkpt>
      <trkpt lat="43.72420895844698" lon="6.466901991516352">
        <ele>979.72000000000003</ele>
        <time>2025-05-18T08:00:21Z</time>
      </trkpt>
      <trkpt lat="43.724368968978524" lon="6.466947002336383">
        <ele>979.72000000000003</ele>
        <time>2025-05-18T08:00:22Z</time>
      </trkpt>
      <trkpt lat="43.724537026137114" lon="6.466993018984795">
        <ele>979.72000000000003</ele>
        <time>2025-05-18T08:00:23Z</time>
      </trkpt>
      <trkpt lat="43.724716985598207" lon="6.467042975127697">
        <ele>979.24000000000001</ele>
        <time>2025-05-18T08:00:24Z</time>
      </trkpt>
      <trkpt lat="43.724890993908048" lon="6.46709100343287">
        <ele>979.24000000000001</ele>
        <time>2025-05-18T08:00:25Z</time>
      </trkpt>
      <trkpt lat="43.725191988050938" lon="6.467166021466255">
        <ele>979.24000000000001</ele>
        <time>2025-05-18T08:00:27Z</time>
      </trkpt>
      <trkpt lat="43.725314028561115" lon="6.467120004817843">
        <ele>979.72000000000003</ele>
        <time>2025-05-18T08:00:28Z</time>
      </trkpt>
      <trkpt lat="43.725423999130726" lon="6.467011040076613">
        <ele>979.72000000000003</ele>
        <time>2025-05-18T08:00:29Z</time>
      </trkpt>
      <trkpt lat="43.725534975528717" lon="6.466868966817856">
        <ele>979.72000000000003</ele>
        <time>2025-05-18T08:00:30Z</time>
      </trkpt>
      <trkpt lat="43.725650981068611" lon="6.466720020398498">
        <ele>980.20000000000005</ele>
        <time>2025-05-18T08:00:31Z</time>
      </trkpt>
      <trkpt lat="43.726497972384095" lon="6.465283026918769">
        <ele>981.15999999999997</ele>
        <time>2025-05-18T08:00:38Z</time>
      </trkpt>
      <trkpt lat="43.726647002622485" lon="6.465173978358507">
        <ele>981.15999999999997</ele>
        <time>2025-05-18T08:00:39Z</time>
      </trkpt>
      <trkpt lat="43.726799972355366" lon="6.465087980031967">
        <ele>980.67999999999995</ele>
        <time>2025-05-18T08:00:40Z</time>
      </trkpt>
      <trkpt lat="43.726952020078897" lon="6.465045986697078">
        <ele>980.67999999999995</ele>
        <time>2025-05-18T08:00:41Z</time>
      </trkpt>
      <trkpt lat="43.727100966498256" lon="6.465045986697078">
        <ele>980.67999999999995</ele>
        <time>2025-05-18T08:00:42Z</time>
      </trkpt>
      <trkpt lat="43.727229963988066" lon="6.465045986697078">
        <ele>981.15999999999997</ele>
        <time>2025-05-18T08:00:43Z</time>
      </trkpt>
      <trkpt lat="43.727355021983385" lon="6.465015979483724">
        <ele>981.15999999999997</ele>
        <time>2025-05-18T08:00:44Z</time>
      </trkpt>
      <trkpt lat="43.727454012259841" lon="6.464916989207268">
        <ele>981.15999999999997</ele>
        <time>2025-05-18T08:00:45Z</time>
      </trkpt>
      <trkpt lat="43.7275580316782" lon="6.4647910092026">
        <ele>981.15999999999997</ele>
        <time>2025-05-18T08:00:46Z</time>
      </trkpt>
      <trkpt lat="43.727635983377695" lon="6.464624041691423">
        <ele>980.67999999999995</ele>
        <time>2025-05-18T08:00:47Z</time>
      </trkpt>
      <trkpt lat="43.72771100141108" lon="6.464438969269395">
        <ele>980.67999999999995</ele>
        <time>2025-05-18T08:00:48Z</time>
      </trkpt>
      <trkpt lat="43.727772021666169" lon="6.46423302590847">
        <ele>980.67999999999995</ele>
        <time>2025-05-18T08:00:49Z</time>
      </trkpt>
      <trkpt lat="43.727835975587368" lon="6.46401803009212">
        <ele>981.15999999999997</ele>
        <time>2025-05-18T08:00:50Z</time>
      </trkpt>
      <trkpt lat="43.728396976366639" lon="6.461775032803416">
        <ele>982.60000000000002</ele>
        <time>2025-05-18T08:00:59Z</time>
      </trkpt>
      <trkpt lat="43.728581964969635" lon="6.460979003459215">
        <ele>982.60000000000002</ele>
        <time>2025-05-18T08:01:02Z</time>
      </trkpt>
      <trkpt lat="43.72867600992322" lon="6.460742969065905">
        <ele>982.12</ele>
        <time>2025-05-18T08:01:03Z</time>
      </trkpt>
      <trkpt lat="43.729488970711827" lon="6.458531990647316">
        <ele>983.09000000000003</ele>
        <time>2025-05-18T08:01:12Z</time>
      </trkpt>
      <trkpt lat="43.730419026687741" lon="6.456358982250094">
        <ele>982.60000000000002</ele>
        <time>2025-05-18T08:01:21Z</time>
      </trkpt>
      <trkpt lat="43.73050301335752" lon="6.456164019182324">
        <ele>982.60000000000002</ele>
        <time>2025-05-18T08:01:22Z</time>
      </trkpt>
      <trkpt lat="43.730540983378887" lon="6.455942988395691">
        <ele>982.12</ele>
        <time>2025-05-18T08:01:23Z</time>
      </trkpt>
      <trkpt lat="43.730565961450338" lon="6.455708965659142">
        <ele>982.12</ele>
        <time>2025-05-18T08:01:24Z</time>
      </trkpt>
      <trkpt lat="43.730577025562525" lon="6.455463040620089">
        <ele>982.12</ele>
        <time>2025-05-18T08:01:25Z</time>
      </trkpt>
      <trkpt lat="43.73058901168406" lon="6.455205967649818">
        <ele>981.63999999999999</ele>
        <time>2025-05-18T08:01:26Z</time>
      </trkpt>
      <trkpt lat="43.730602003633976" lon="6.454933974891901">
        <ele>981.15999999999997</ele>
        <time>2025-05-18T08:01:27Z</time>
      </trkpt>
      <trkpt lat="43.73063201084733" lon="6.454661982133985">
        <ele>981.15999999999997</ele>
        <time>2025-05-18T08:01:28Z</time>
      </trkpt>
      <trkpt lat="43.730714991688728" lon="6.454166024923325">
        <ele>980.67999999999995</ele>
        <time>2025-05-18T08:01:30Z</time>
      </trkpt>
      <trkpt lat="43.730757990851998" lon="6.453910041600466">
        <ele>980.20000000000005</ele>
        <time>2025-05-18T08:01:31Z</time>
      </trkpt>
      <trkpt lat="43.730751033872366" lon="6.453713988885284">
        <ele>980.20000000000005</ele>
        <time>2025-05-18T08:01:32Z</time>
      </trkpt>
      <trkpt lat="43.730738963931799" lon="6.453289026394486">
        <ele>979.72000000000003</ele>
        <time>2025-05-18T08:01:34Z</time>
      </trkpt>
      <trkpt lat="43.731094021350145" lon="6.451825965195894">
        <ele>980.20000000000005</ele>
        <time>2025-05-18T08:01:42Z</time>
      </trkpt>
      <trkpt lat="43.731765998527408" lon="6.450329963117838">
        <ele>979.72000000000003</ele>
        <time>2025-05-18T08:01:48Z</time>
      </trkpt>
      <trkpt lat="43.732284000143409" lon="6.449525970965624">
        <ele>979.24000000000001</ele>
        <time>2025-05-18T08:01:52Z</time>
      </trkpt>
      <trkpt lat="43.732389025390148" lon="6.449334025382996">
        <ele>979.24000000000001</ele>
        <time>2025-05-18T08:01:53Z</time>
      </trkpt>
      <trkpt lat="43.733225958421826" lon="6.447191024199128">
        <ele>979.24000000000001</ele>
        <time>2025-05-18T08:02:02Z</time>
      </trkpt>
      <trkpt lat="43.733845967799425" lon="6.445762999355793">
        <ele>978.75999999999999</ele>
        <time>2025-05-18T08:02:08Z</time>
      </trkpt>
      <trkpt lat="43.73387698084116" lon="6.44554004073143">
        <ele>978.75999999999999</ele>
        <time>2025-05-18T08:02:09Z</time>
      </trkpt>
      <trkpt lat="43.733907993882895" lon="6.445315992459655">
        <ele>978.75999999999999</ele>
        <time>2025-05-18T08:02:10Z</time>
      </trkpt>
      <trkpt lat="43.734150985255837" lon="6.44395099952817">
        <ele>978.27999999999997</ele>
        <time>2025-05-18T08:02:16Z</time>
      </trkpt>
      <trkpt lat="43.734224997460842" lon="6.443738015368581">
        <ele>978.27999999999997</ele>
        <time>2025-05-18T08:02:17Z</time>
      </trkpt>
      <trkpt lat="43.734812987968326" lon="6.442365981638432">
        <ele>977.32000000000005</ele>
        <time>2025-05-18T08:02:23Z</time>
      </trkpt>
      <trkpt lat="43.735406007617712" lon="6.440673004835844">
        <ele>978.27999999999997</ele>
        <time>2025-05-18T08:02:30Z</time>
      </trkpt>
      <trkpt lat="43.735457975417376" lon="6.440438982099295">
        <ele>978.27999999999997</ele>
        <time>2025-05-18T08:02:31Z</time>
      </trkpt>
      <trkpt lat="43.735483959317207" lon="6.440191967412829">
        <ele>978.27999999999997</ele>
        <time>2025-05-18T08:02:32Z</time>
      </trkpt>
      <trkpt lat="43.735512960702181" lon="6.439727023243904">
        <ele>977.79999999999995</ele>
        <time>2025-05-18T08:02:34Z</time>
      </trkpt>
      <trkpt lat="43.735579010099173" lon="6.439505992457271">
        <ele>977.79999999999995</ele>
        <time>2025-05-18T08:02:35Z</time>
      </trkpt>
      <trkpt lat="43.735830970108509" lon="6.43881700001657">
        <ele>977.79999999999995</ele>
        <time>2025-05-18T08:02:38Z</time>
      </trkpt>
      <trkpt lat="43.735940018668771" lon="6.438591023907065">
        <ele>977.79999999999995</ele>
        <time>2025-05-18T08:02:39Z</time>
      </trkpt>
      <trkpt lat="43.736853981390595" lon="6.437017992138863">
        <ele>977.32000000000005</ele>
        <time>2025-05-18T08:02:47Z</time>
      </trkpt>
      <trkpt lat="43.736944003030658" lon="6.43668900243938">
        <ele>977.32000000000005</ele>
        <time>2025-05-18T08:02:49Z</time>
      </trkpt>
      <trkpt lat="43.736949032172561" lon="6.436528991907835">
        <ele>977.32000000000005</ele>
        <time>2025-05-18T08:02:50Z</time>
      </trkpt>
      <trkpt lat="43.736915001645684" lon="6.436358001083136">
        <ele>977.32000000000005</ele>
        <time>2025-05-18T08:02:51Z</time>
      </trkpt>
      <trkpt lat="43.736852975562215" lon="6.436178963631392">
        <ele>977.32000000000005</ele>
        <time>2025-05-18T08:02:52Z</time>
      </trkpt>
      <trkpt lat="43.736786004155874" lon="6.435989029705524">
        <ele>977.32000000000005</ele>
        <time>2025-05-18T08:02:53Z</time>
      </trkpt>
      <trkpt lat="43.736379984766245" lon="6.435006000101566">
        <ele>976.36000000000001</ele>
        <time>2025-05-18T08:02:58Z</time>
      </trkpt>
      <trkpt lat="43.736315025016665" lon="6.434780023992062">
        <ele>975.88</ele>
        <time>2025-05-18T08:02:59Z</time>
      </trkpt>
      <trkpt lat="43.736256016418338" lon="6.434570979326963">
        <ele>975.38999999999999</ele>
        <time>2025-05-18T08:03:00Z</time>
      </trkpt>
      <trkpt lat="43.736250987276435" lon="6.434359000995755">
        <ele>975.38999999999999</ele>
        <time>2025-05-18T08:03:01Z</time>
      </trkpt>
      <trkpt lat="43.736254004761577" lon="6.434155991300941">
        <ele>975.38999999999999</ele>
        <time>2025-05-18T08:03:02Z</time>
      </trkpt>
      <trkpt lat="43.736294992268085" lon="6.433952981606126">
        <ele>974.90999999999997</ele>
        <time>2025-05-18T08:03:03Z</time>
      </trkpt>
      <trkpt lat="43.736337991431355" lon="6.43374502658844">
        <ele>974.90999999999997</ele>
        <time>2025-05-18T08:03:04Z</time>
      </trkpt>
      <trkpt lat="43.736610990017653" lon="6.432645991444588">
        <ele>974.90999999999997</ele>
        <time>2025-05-18T08:03:09Z</time>
      </trkpt>
      <trkpt lat="43.736707968637347" lon="6.43243501894176">
        <ele>974.90999999999997</ele>
        <time>2025-05-18T08:03:10Z</time>
      </trkpt>
      <trkpt lat="43.736808970570564" lon="6.432215999811888">
        <ele>974.90999999999997</ele>
        <time>2025-05-18T08:03:11Z</time>
      </trkpt>
      <trkpt lat="43.736956994980574" lon="6.432056995108724">
        <ele>974.90999999999997</ele>
        <time>2025-05-18T08:03:12Z</time>
      </trkpt>
      <trkpt lat="43.737111976370215" lon="6.431891033425927">
        <ele>974.90999999999997</ele>
        <time>2025-05-18T08:03:13Z</time>
      </trkpt>
      <trkpt lat="43.737269975244999" lon="6.431720964610577">
        <ele>974.90999999999997</ele>
        <time>2025-05-18T08:03:14Z</time>
      </trkpt>
      <trkpt lat="43.737434009090066" lon="6.431561037898064">
        <ele>974.90999999999997</ele>
        <time>2025-05-18T08:03:15Z</time>
      </trkpt>
      <trkpt lat="43.738441010937095" lon="6.43076098524034">
        <ele>974.90999999999997</ele>
        <time>2025-05-18T08:03:21Z</time>
      </trkpt>
      <trkpt lat="43.738580988720059" lon="6.430582031607628">
        <ele>975.38999999999999</ele>
        <time>2025-05-18T08:03:22Z</time>
      </trkpt>
      <trkpt lat="43.738719038665295" lon="6.430405005812645">
        <ele>975.38999999999999</ele>
        <time>2025-05-18T08:03:23Z</time>
      </trkpt>
      <trkpt lat="43.738820040598512" lon="6.430209958925843">
        <ele>975.88</ele>
        <time>2025-05-18T08:03:24Z</time>
      </trkpt>
      <trkpt lat="43.738905033096671" lon="6.43000896088779">
        <ele>975.88</ele>
        <time>2025-05-18T08:03:25Z</time>
      </trkpt>
      <trkpt lat="43.738958006724715" lon="6.429790025576949">
        <ele>975.88</ele>
        <time>2025-05-18T08:03:26Z</time>
      </trkpt>
      <trkpt lat="43.738996982574463" lon="6.429549967870116">
        <ele>976.36000000000001</ele>
        <time>2025-05-18T08:03:27Z</time>
      </trkpt>
      <trkpt lat="43.739036964252591" lon="6.429303037002683">
        <ele>976.84000000000003</ele>
        <time>2025-05-18T08:03:28Z</time>
      </trkpt>
      <trkpt lat="43.739239973947406" lon="6.428574984893203">
        <ele>976.84000000000003</ele>
        <time>2025-05-18T08:03:31Z</time>
      </trkpt>
      <trkpt lat="43.739352039992809" lon="6.428371975198388">
        <ele>976.84000000000003</ele>
        <time>2025-05-18T08:03:32Z</time>
      </trkpt>
      <trkpt lat="43.739480031654239" lon="6.428168965503573">
        <ele>976.84000000000003</ele>
        <time>2025-05-18T08:03:33Z</time>
      </trkpt>
      <trkpt lat="43.739967020228505" lon="6.427357010543346">
        <ele>978.75999999999999</ele>
        <time>2025-05-18T08:03:37Z</time>
      </trkpt>
      <trkpt lat="43.740059975534678" lon="6.427129022777081">
        <ele>979.24000000000001</ele>
        <time>2025-05-18T08:03:38Z</time>
      </trkpt>
      <trkpt lat="43.740362981334329" lon="6.426455033943057">
        <ele>980.20000000000005</ele>
        <time>2025-05-18T08:03:41Z</time>
      </trkpt>
      <trkpt lat="43.740499019622803" lon="6.426287982612848">
        <ele>980.20000000000005</ele>
        <time>2025-05-18T08:03:42Z</time>
      </trkpt>
      <trkpt lat="43.74064402654767" lon="6.426131995394826">
        <ele>980.67999999999995</ele>
        <time>2025-05-18T08:03:43Z</time>
      </trkpt>
      <trkpt lat="43.740791967138648" lon="6.425971984863281">
        <ele>981.15999999999997</ele>
        <time>2025-05-18T08:03:44Z</time>
      </trkpt>
      <trkpt lat="43.740940997377038" lon="6.425811974331737">
        <ele>981.63999999999999</ele>
        <time>2025-05-18T08:03:45Z</time>
      </trkpt>
      <trkpt lat="43.742122007533908" lon="6.423998968675733">
        <ele>984.52999999999997</ele>
        <time>2025-05-18T08:03:54Z</time>
      </trkpt>
      <trkpt lat="43.742729024961591" lon="6.423017028719187">
        <ele>985.97000000000003</ele>
        <time>2025-05-18T08:03:59Z</time>
      </trkpt>
      <trkpt lat="43.742867996916175" lon="6.422871015965939">
        <ele>985.97000000000003</ele>
        <time>2025-05-18T08:04:00Z</time>
      </trkpt>
      <trkpt lat="43.743037981912494" lon="6.422806978225708">
        <ele>986.45000000000005</ele>
        <time>2025-05-18T08:04:01Z</time>
      </trkpt>
      <trkpt lat="43.743216013535857" lon="6.42274796962738">
        <ele>986.45000000000005</ele>
        <time>2025-05-18T08:04:02Z</time>
      </trkpt>
      <trkpt lat="43.743399996310472" lon="6.422720979899168">
        <ele>986.92999999999995</ele>
        <time>2025-05-18T08:04:03Z</time>
      </trkpt>
      <trkpt lat="43.74358699657023" lon="6.422692984342575">
        <ele>987.88999999999999</ele>
        <time>2025-05-18T08:04:04Z</time>
      </trkpt>
      <trkpt lat="43.743773996829987" lon="6.422664988785982">
        <ele>988.37</ele>
        <time>2025-05-18T08:04:05Z</time>
      </trkpt>
      <trkpt lat="43.743957979604602" lon="6.422636993229389">
        <ele>989.33000000000004</ele>
        <time>2025-05-18T08:04:06Z</time>
      </trkpt>
      <trkpt lat="43.744133999571204" lon="6.422564992681146">
        <ele>989.80999999999995</ele>
        <time>2025-05-18T08:04:07Z</time>
      </trkpt>
      <trkpt lat="43.744300967082381" lon="6.422458961606026">
        <ele>990.29999999999995</ele>
        <time>2025-05-18T08:04:08Z</time>
      </trkpt>
      <trkpt lat="43.744466006755829" lon="6.422354020178318">
        <ele>991.25999999999999</ele>
        <time>2025-05-18T08:04:09Z</time>
      </trkpt>
      <trkpt lat="43.744604978710413" lon="6.422194009646773">
        <ele>991.74000000000001</ele>
        <time>2025-05-18T08:04:10Z</time>
      </trkpt>
      <trkpt lat="43.744727019220591" lon="6.422024024650455">
        <ele>991.74000000000001</ele>
        <time>2025-05-18T08:04:11Z</time>
      </trkpt>
      <trkpt lat="43.744842018932104" lon="6.421799976378679">
        <ele>992.22000000000003</ele>
        <time>2025-05-18T08:04:12Z</time>
      </trkpt>
      <trkpt lat="43.744954001158476" lon="6.421581963077188">
        <ele>992.22000000000003</ele>
        <time>2025-05-18T08:04:13Z</time>
      </trkpt>
      <trkpt lat="43.745064977556467" lon="6.421365961432457">
        <ele>992.22000000000003</ele>
        <time>2025-05-18T08:04:14Z</time>
      </trkpt>
      <trkpt lat="43.745192969217896" lon="6.421174015849829">
        <ele>992.22000000000003</ele>
        <time>2025-05-18T08:04:15Z</time>
      </trkpt>
      <trkpt lat="43.74535096809268" lon="6.421025991439819">
        <ele>992.70000000000005</ele>
        <time>2025-05-18T08:04:16Z</time>
      </trkpt>
      <trkpt lat="43.747080992907286" lon="6.419442985206842">
        <ele>997.01999999999998</ele>
        <time>2025-05-18T08:04:26Z</time>
      </trkpt>
      <trkpt lat="43.747408976778388" lon="6.419142996892333">
        <ele>997.50999999999999</ele>
        <time>2025-05-18T08:04:28Z</time>
      </trkpt>
      <trkpt lat="43.747576028108597" lon="6.419053981080651">
        <ele>997.50999999999999</ele>
        <time>2025-05-18T08:04:29Z</time>
      </trkpt>
      <trkpt lat="43.747745007276535" lon="6.41900503076613">
        <ele>997.50999999999999</ele>
        <time>2025-05-18T08:04:30Z</time>
      </trkpt>
      <trkpt lat="43.748364010825753" lon="6.418830016627908">
        <ele>998.47000000000003</ele>
        <time>2025-05-18T08:04:34Z</time>
      </trkpt>
      <trkpt lat="43.748522009700537" lon="6.418873015791178">
        <ele>998.47000000000003</ele>
        <time>2025-05-18T08:04:35Z</time>
      </trkpt>
      <trkpt lat="43.748681014403701" lon="6.418935963883996">
        <ele>998.47000000000003</ele>
        <time>2025-05-18T08:04:36Z</time>
      </trkpt>
      <trkpt lat="43.74882803298533" lon="6.419006958603859">
        <ele>998.95000000000005</ele>
        <time>2025-05-18T08:04:37Z</time>
      </trkpt>
      <trkpt lat="43.748968010768294" lon="6.419076025485992">
        <ele>999.42999999999995</ele>
        <time>2025-05-18T08:04:38Z</time>
      </trkpt>
      <trkpt lat="43.749389033764601" lon="6.419280963018537">
        <ele>1000.39</ele>
        <time>2025-05-18T08:04:41Z</time>
      </trkpt>
      <trkpt lat="43.749544015154243" lon="6.419320022687316">
        <ele>1000.39</ele>
        <time>2025-05-18T08:04:42Z</time>
      </trkpt>
      <trkpt lat="43.749706037342548" lon="6.419320022687316">
        <ele>1000.39</ele>
        <time>2025-05-18T08:04:43Z</time>
      </trkpt>
      <trkpt lat="43.750509023666382" lon="6.419254979118705">
        <ele>1000.87</ele>
        <time>2025-05-18T08:04:48Z</time>
      </trkpt>
      <trkpt lat="43.750660987570882" lon="6.419228995218873">
        <ele>1001.35</ele>
        <time>2025-05-18T08:04:49Z</time>
      </trkpt>
      <trkpt lat="43.750803982838988" lon="6.419161017984152">
        <ele>1001.35</ele>
        <time>2025-05-18T08:04:50Z</time>
      </trkpt>
      <trkpt lat="43.750945972278714" lon="6.41909496858716">
        <ele>1001.83</ele>
        <time>2025-05-18T08:04:51Z</time>
      </trkpt>
      <trkpt lat="43.751087039709091" lon="6.418995978310704">
        <ele>1001.83</ele>
        <time>2025-05-18T08:04:52Z</time>
      </trkpt>
      <trkpt lat="43.751219976693392" lon="6.418873015791178">
        <ele>1002.3099999999999</ele>
        <time>2025-05-18T08:04:53Z</time>
      </trkpt>
      <trkpt lat="43.751347968354821" lon="6.418722979724407">
        <ele>1002.3099999999999</ele>
        <time>2025-05-18T08:04:54Z</time>
      </trkpt>
      <trkpt lat="43.751463973894715" lon="6.418564980849624">
        <ele>1002.79</ele>
        <time>2025-05-18T08:04:55Z</time>
      </trkpt>
      <trkpt lat="43.751577967777848" lon="6.41840597614646">
        <ele>1003.27</ele>
        <time>2025-05-18T08:04:56Z</time>
      </trkpt>
      <trkpt lat="43.751660026609898" lon="6.418220987543464">
        <ele>1003.27</ele>
        <time>2025-05-18T08:04:57Z</time>
      </trkpt>
      <trkpt lat="43.751739989966154" lon="6.41803901642561">
        <ele>1003.75</ele>
        <time>2025-05-18T08:04:58Z</time>
      </trkpt>
      <trkpt lat="43.751837974414229" lon="6.417673984542489">
        <ele>1003.75</ele>
        <time>2025-05-18T08:05:00Z</time>
      </trkpt>
      <trkpt lat="43.751861024647951" lon="6.417496036738157">
        <ele>1003.75</ele>
        <time>2025-05-18T08:05:01Z</time>
      </trkpt>
      <trkpt lat="43.751870999112725" lon="6.41731096431613">
        <ele>1004.23</ele>
        <time>2025-05-18T08:05:02Z</time>
      </trkpt>
      <trkpt lat="43.751738984137774" lon="6.416347967460752">
        <ele>1004.23</ele>
        <time>2025-05-18T08:05:06Z</time>
      </trkpt>
      <trkpt lat="43.751637982204556" lon="6.41613095998764">
        <ele>1004.23</ele>
        <time>2025-05-18T08:05:07Z</time>
      </trkpt>
      <trkpt lat="43.751263981685042" lon="6.415282962843776">
        <ele>1004.72</ele>
        <time>2025-05-18T08:05:11Z</time>
      </trkpt>
      <trkpt lat="43.751241015270352" lon="6.415079031139612">
        <ele>1004.72</ele>
        <time>2025-05-18T08:05:12Z</time>
      </trkpt>
      <trkpt lat="43.751228023320436" lon="6.414964031428099">
        <ele>1004.72</ele>
        <time>2025-05-18T08:05:13Z</time>
      </trkpt>
      <trkpt lat="43.751268004998565" lon="6.414706958457828">
        <ele>1004.72</ele>
        <time>2025-05-18T08:05:14Z</time>
      </trkpt>
      <trkpt lat="43.75132299028337" lon="6.414562035351992">
        <ele>1004.72</ele>
        <time>2025-05-18T08:05:15Z</time>
      </trkpt>
      <trkpt lat="43.751399014145136" lon="6.414380986243486">
        <ele>1004.23</ele>
        <time>2025-05-18T08:05:16Z</time>
      </trkpt>
      <trkpt lat="43.751475038006902" lon="6.414232961833477">
        <ele>1003.27</ele>
        <time>2025-05-18T08:05:17Z</time>
      </trkpt>
      <trkpt lat="43.751549972221255" lon="6.414127014577389">
        <ele>1002.79</ele>
        <time>2025-05-18T08:05:18Z</time>
      </trkpt>
      <trkpt lat="43.751699002459645" lon="6.41400002874434">
        <ele>1002.3099999999999</ele>
        <time>2025-05-18T08:05:19Z</time>
      </trkpt>
      <trkpt lat="43.751832023262978" lon="6.413886034861207">
        <ele>1001.35</ele>
        <time>2025-05-18T08:05:20Z</time>
      </trkpt>
      <trkpt lat="43.751965966075659" lon="6.413771035149694">
        <ele>1000.87</ele>
        <time>2025-05-18T08:05:21Z</time>
      </trkpt>
      <trkpt lat="43.752073002979159" lon="6.413587974384427">
        <ele>999.90999999999997</ele>
        <time>2025-05-18T08:05:22Z</time>
      </trkpt>
      <trkpt lat="43.752145003527403" lon="6.413435004651547">
        <ele>998.95000000000005</ele>
        <time>2025-05-18T08:05:23Z</time>
      </trkpt>
      <trkpt lat="43.752170987427235" lon="6.413268959149718">
        <ele>998.47000000000003</ele>
        <time>2025-05-18T08:05:24Z</time>
      </trkpt>
      <trkpt lat="43.752167969942093" lon="6.413087993860245">
        <ele>997.99000000000001</ele>
        <time>2025-05-18T08:05:25Z</time>
      </trkpt>
      <trkpt lat="43.752165036275983" lon="6.412889007478952">
        <ele>997.50999999999999</ele>
        <time>2025-05-18T08:05:26Z</time>
      </trkpt>
      <trkpt lat="43.752151038497686" lon="6.411011964082718">
        <ele>992.70000000000005</ele>
        <time>2025-05-18T08:05:35Z</time>
      </trkpt>
      <trkpt lat="43.752167969942093" lon="6.410511983558536">
        <ele>990.29999999999995</ele>
        <time>2025-05-18T08:05:37Z</time>
      </trkpt>
      <trkpt lat="43.752209963276982" lon="6.410257006064057">
        <ele>988.85000000000002</ele>
        <time>2025-05-18T08:05:38Z</time>
      </trkpt>
      <trkpt lat="43.752264026552439" lon="6.410001022741199">
        <ele>987.88999999999999</ele>
        <time>2025-05-18T08:05:39Z</time>
      </trkpt>
      <trkpt lat="43.752607014030218" lon="6.408365964889526">
        <ele>979.24000000000001</ele>
        <time>2025-05-18T08:05:45Z</time>
      </trkpt>
      <trkpt lat="43.752620005980134" lon="6.408092966303229">
        <ele>978.27999999999997</ele>
        <time>2025-05-18T08:05:46Z</time>
      </trkpt>
      <trkpt lat="43.752614976838231" lon="6.407807981595397">
        <ele>976.84000000000003</ele>
        <time>2025-05-18T08:05:47Z</time>
      </trkpt>
      <trkpt lat="43.752564014866948" lon="6.405881987884641">
        <ele>972.50999999999999</ele>
        <time>2025-05-18T08:05:54Z</time>
      </trkpt>
      <trkpt lat="43.7525699660182" lon="6.405648970976472">
        <ele>972.50999999999999</ele>
        <time>2025-05-18T08:05:55Z</time>
      </trkpt>
      <trkpt lat="43.752601984888315" lon="6.405393993481994">
        <ele>972.02999999999997</ele>
        <time>2025-05-18T08:05:56Z</time>
      </trkpt>
      <trkpt lat="43.752666022628546" lon="6.405207999050617">
        <ele>971.54999999999995</ele>
        <time>2025-05-18T08:05:57Z</time>
      </trkpt>
      <trkpt lat="43.752743974328041" lon="6.404981017112732">
        <ele>971.07000000000005</ele>
        <time>2025-05-18T08:05:58Z</time>
      </trkpt>
      <trkpt lat="43.753001969307661" lon="6.404233016073704">
        <ele>969.63</ele>
        <time>2025-05-18T08:06:01Z</time>
      </trkpt>
      <trkpt lat="43.753047985956073" lon="6.403957000002265">
        <ele>969.14999999999998</ele>
        <time>2025-05-18T08:06:02Z</time>
      </trkpt>
      <trkpt lat="43.753073969855905" lon="6.403674026951194">
        <ele>968.66999999999996</ele>
        <time>2025-05-18T08:06:03Z</time>
      </trkpt>
      <trkpt lat="43.753121998161077" lon="6.40291403979063">
        <ele>967.70000000000005</ele>
        <time>2025-05-18T08:06:06Z</time>
      </trkpt>
      <trkpt lat="43.753065001219511" lon="6.40272100456059">
        <ele>967.22000000000003</ele>
        <time>2025-05-18T08:06:07Z</time>
      </trkpt>
      <trkpt lat="43.752991994842887" lon="6.402536015957594">
        <ele>966.74000000000001</ele>
        <time>2025-05-18T08:06:08Z</time>
      </trkpt>
      <trkpt lat="43.752886969596148" lon="6.402351027354598">
        <ele>966.25999999999999</ele>
        <time>2025-05-18T08:06:09Z</time>
      </trkpt>
      <trkpt lat="43.752774987369776" lon="6.402152962982655">
        <ele>965.77999999999997</ele>
        <time>2025-05-18T08:06:10Z</time>
      </trkpt>
      <trkpt lat="43.752209963276982" lon="6.401091981679201">
        <ele>960.49000000000001</ele>
        <time>2025-05-18T08:06:15Z</time>
      </trkpt>
      <trkpt lat="43.752109967172146" lon="6.400955021381378">
        <ele>959.52999999999997</ele>
        <time>2025-05-18T08:06:16Z</time>
      </trkpt>
      <trkpt lat="43.751987004652619" lon="6.400896012783051">
        <ele>958.57000000000005</ele>
        <time>2025-05-18T08:06:17Z</time>
      </trkpt>
      <trkpt lat="43.751716017723083" lon="6.400757040828466">
        <ele>956.16999999999996</ele>
        <time>2025-05-18T08:06:19Z</time>
      </trkpt>
      <trkpt lat="43.751577967777848" lon="6.400635000318289">
        <ele>954.73000000000002</ele>
        <time>2025-05-18T08:06:20Z</time>
      </trkpt>
      <trkpt lat="43.751202961429954" lon="6.400248007848859">
        <ele>950.39999999999998</ele>
        <time>2025-05-18T08:06:23Z</time>
      </trkpt>
      <trkpt lat="43.751127021387219" lon="6.400095038115978">
        <ele>949.44000000000005</ele>
        <time>2025-05-18T08:06:24Z</time>
      </trkpt>
      <trkpt lat="43.750969022512436" lon="6.399732017889619">
        <ele>946.55999999999995</ele>
        <time>2025-05-18T08:06:26Z</time>
      </trkpt>
      <trkpt lat="43.750848993659019" lon="6.399559015408158">
        <ele>945.11000000000001</ele>
        <time>2025-05-18T08:06:27Z</time>
      </trkpt>
      <trkpt lat="43.749821959063411" lon="6.39827499166131">
        <ele>935.5</ele>
        <time>2025-05-18T08:06:34Z</time>
      </trkpt>
      <trkpt lat="43.749703019857407" lon="6.398084973916411">
        <ele>934.53999999999996</ele>
        <time>2025-05-18T08:06:35Z</time>
      </trkpt>
      <trkpt lat="43.749576034024358" lon="6.397883975878358">
        <ele>933.58000000000004</ele>
        <time>2025-05-18T08:06:36Z</time>
      </trkpt>
      <trkpt lat="43.749436978250742" lon="6.397765036672354">
        <ele>932.62</ele>
        <time>2025-05-18T08:06:37Z</time>
      </trkpt>
      <trkpt lat="43.749287026003003" lon="6.397636039182544">
        <ele>931.64999999999998</ele>
        <time>2025-05-18T08:06:38Z</time>
      </trkpt>
      <trkpt lat="43.749147970229387" lon="6.397517016157508">
        <ele>930.21000000000004</ele>
        <time>2025-05-18T08:06:39Z</time>
      </trkpt>
      <trkpt lat="43.749050991609693" lon="6.397362034767866">
        <ele>928.76999999999998</ele>
        <time>2025-05-18T08:06:40Z</time>
      </trkpt>
      <trkpt lat="43.748976979404688" lon="6.397188026458025">
        <ele>927.80999999999995</ele>
        <time>2025-05-18T08:06:41Z</time>
      </trkpt>
      <trkpt lat="43.748919982463121" lon="6.396979987621307">
        <ele>926.37</ele>
        <time>2025-05-18T08:06:42Z</time>
      </trkpt>
      <trkpt lat="43.748858040198684" lon="6.396751999855042">
        <ele>925.40999999999997</ele>
        <time>2025-05-18T08:06:43Z</time>
      </trkpt>
      <trkpt lat="43.74878603965044" lon="6.39651102013886">
        <ele>923.96000000000004</ele>
        <time>2025-05-18T08:06:44Z</time>
      </trkpt>
      <trkpt lat="43.748686965554953" lon="6.396272974088788">
        <ele>923</ele>
        <time>2025-05-18T08:06:45Z</time>
      </trkpt>
      <trkpt lat="43.748586969450116" lon="6.396035011857748">
        <ele>921.55999999999995</ele>
        <time>2025-05-18T08:06:46Z</time>
      </trkpt>
      <trkpt lat="43.748459983617067" lon="6.395815992727876">
        <ele>919.63999999999999</ele>
        <time>2025-05-18T08:06:47Z</time>
      </trkpt>
      <trkpt lat="43.747668983414769" lon="6.394433984532952">
        <ele>910.50999999999999</ele>
        <time>2025-05-18T08:06:53Z</time>
      </trkpt>
      <trkpt lat="43.74670498073101" lon="6.392685016617179">
        <ele>897.04999999999995</ele>
        <time>2025-05-18T08:07:01Z</time>
      </trkpt>
      <trkpt lat="43.746584029868245" lon="6.392568005248904">
        <ele>895.61000000000001</ele>
        <time>2025-05-18T08:07:02Z</time>
      </trkpt>
      <trkpt lat="43.74644698575139" lon="6.392527017742395">
        <ele>894.15999999999997</ele>
        <time>2025-05-18T08:07:03Z</time>
      </trkpt>
      <trkpt lat="43.746299967169762" lon="6.392483012750745">
        <ele>892.72000000000003</ele>
        <time>2025-05-18T08:07:04Z</time>
      </trkpt>
      <trkpt lat="43.746207011863589" lon="6.392455017194152">
        <ele>891.27999999999997</ele>
        <time>2025-05-18T08:07:05Z</time>
      </trkpt>
      <trkpt lat="43.746051024645567" lon="6.392313027754426">
        <ele>889.84000000000003</ele>
        <time>2025-05-18T08:07:06Z</time>
      </trkpt>
      <trkpt lat="43.745962008833885" lon="6.39221697114408">
        <ele>888.39999999999998</ele>
        <time>2025-05-18T08:07:07Z</time>
      </trkpt>
      <trkpt lat="43.745899982750416" lon="6.392056038603187">
        <ele>887.42999999999995</ele>
        <time>2025-05-18T08:07:08Z</time>
      </trkpt>
      <trkpt lat="43.745829993858933" lon="6.391874989494681">
        <ele>885.99000000000001</ele>
        <time>2025-05-18T08:07:09Z</time>
      </trkpt>
      <trkpt lat="43.745751958340406" lon="6.391674997285008">
        <ele>884.54999999999995</ele>
        <time>2025-05-18T08:07:10Z</time>
      </trkpt>
      <trkpt lat="43.745515001937747" lon="6.391067979857326">
        <ele>881.19000000000005</ele>
        <time>2025-05-18T08:07:13Z</time>
      </trkpt>
      <trkpt lat="43.745412994176149" lon="6.390916015952826">
        <ele>879.74000000000001</ele>
        <time>2025-05-18T08:07:14Z</time>
      </trkpt>
      <trkpt lat="43.745296988636255" lon="6.390809984877706">
        <ele>878.77999999999997</ele>
        <time>2025-05-18T08:07:15Z</time>
      </trkpt>
      <trkpt lat="43.745162039995193" lon="6.390748964622617">
        <ele>877.82000000000005</ele>
        <time>2025-05-18T08:07:16Z</time>
      </trkpt>
      <trkpt lat="43.745037987828255" lon="6.390772014856339">
        <ele>876.86000000000001</ele>
        <time>2025-05-18T08:07:17Z</time>
      </trkpt>
      <trkpt lat="43.744932962581515" lon="6.390838986262679">
        <ele>876.38</ele>
        <time>2025-05-18T08:07:18Z</time>
      </trkpt>
      <trkpt lat="43.744810000061989" lon="6.390917021781206">
        <ele>875.41999999999996</ele>
        <time>2025-05-18T08:07:19Z</time>
      </trkpt>
      <trkpt lat="43.744532978162169" lon="6.391092035919428">
        <ele>873.5</ele>
        <time>2025-05-18T08:07:21Z</time>
      </trkpt>
      <trkpt lat="43.744385959580541" lon="6.391218015924096">
        <ele>872.52999999999997</ele>
        <time>2025-05-18T08:07:22Z</time>
      </trkpt>
      <trkpt lat="43.743872987106442" lon="6.391777005046606">
        <ele>868.69000000000005</ele>
        <time>2025-05-18T08:07:26Z</time>
      </trkpt>
      <trkpt lat="43.743775002658367" lon="6.39180701225996">
        <ele>867.73000000000002</ele>
        <time>2025-05-18T08:07:27Z</time>
      </trkpt>
      <trkpt lat="43.743662014603615" lon="6.391789996996522">
        <ele>867.25</ele>
        <time>2025-05-18T08:07:28Z</time>
      </trkpt>
      <trkpt lat="43.74352497048676" lon="6.391768958419561">
        <ele>865.79999999999995</ele>
        <time>2025-05-18T08:07:29Z</time>
      </trkpt>
      <trkpt lat="43.743422962725163" lon="6.391680026426911">
        <ele>864.84000000000003</ele>
        <time>2025-05-18T08:07:30Z</time>
      </trkpt>
      <trkpt lat="43.743290025740862" lon="6.391565026715398">
        <ele>863.88</ele>
        <time>2025-05-18T08:07:31Z</time>
      </trkpt>
      <trkpt lat="43.742873026058078" lon="6.39120502397418">
        <ele>860.51999999999998</ele>
        <time>2025-05-18T08:07:34Z</time>
      </trkpt>
      <trkpt lat="43.742731036618352" lon="6.391081977635622">
        <ele>859.08000000000004</ele>
        <time>2025-05-18T08:07:35Z</time>
      </trkpt>
      <trkpt lat="43.742653001099825" lon="6.39090402983129">
        <ele>857.63</ele>
        <time>2025-05-18T08:07:36Z</time>
      </trkpt>
      <trkpt lat="43.742560967803001" lon="6.390696996822953">
        <ele>856.66999999999996</ele>
        <time>2025-05-18T08:07:37Z</time>
      </trkpt>
      <trkpt lat="43.742464995011687" lon="6.390477977693081">
        <ele>855.23000000000002</ele>
        <time>2025-05-18T08:07:38Z</time>
      </trkpt>
      <trkpt lat="43.742025028914213" lon="6.389028998091817">
        <ele>847.05999999999995</ele>
        <time>2025-05-18T08:07:44Z</time>
      </trkpt>
      <trkpt lat="43.742023017257452" lon="6.388785000890493">
        <ele>845.62</ele>
        <time>2025-05-18T08:07:45Z</time>
      </trkpt>
      <trkpt lat="43.742023017257452" lon="6.388078993186355">
        <ele>840.80999999999995</ele>
        <time>2025-05-18T08:07:48Z</time>
      </trkpt>
      <trkpt lat="43.742046989500523" lon="6.387831978499889">
        <ele>839.37</ele>
        <time>2025-05-18T08:07:49Z</time>
      </trkpt>
      <trkpt lat="43.74219199642539" lon="6.386875016614795">
        <ele>833.60000000000002</ele>
        <time>2025-05-18T08:07:53Z</time>
      </trkpt>
      <trkpt lat="43.742170035839081" lon="6.38669203966856">
        <ele>832.15999999999997</ele>
        <time>2025-05-18T08:07:54Z</time>
      </trkpt>
      <trkpt lat="43.742141034454107" lon="6.3865000102669">
        <ele>831.20000000000005</ele>
        <time>2025-05-18T08:07:55Z</time>
      </trkpt>
      <trkpt lat="43.741883961483836" lon="6.38570599257946">
        <ele>827.35000000000002</ele>
        <time>2025-05-18T08:07:59Z</time>
      </trkpt>
      <trkpt lat="43.741854960098863" lon="6.38549099676311">
        <ele>826.87</ele>
        <time>2025-05-18T08:08:00Z</time>
      </trkpt>
      <trkpt lat="43.741860995069146" lon="6.385268038138747">
        <ele>825.90999999999997</ele>
        <time>2025-05-18T08:08:01Z</time>
      </trkpt>
      <trkpt lat="43.742065010592341" lon="6.383754014968872">
        <ele>820.13999999999999</ele>
        <time>2025-05-18T08:08:07Z</time>
      </trkpt>
      <trkpt lat="43.74214899726212" lon="6.3835159689188">
        <ele>819.17999999999995</ele>
        <time>2025-05-18T08:08:08Z</time>
      </trkpt>
      <trkpt lat="43.74230096116662" lon="6.383080026134849">
        <ele>816.77999999999997</ele>
        <time>2025-05-18T08:08:10Z</time>
      </trkpt>
      <trkpt lat="43.74236399307847" lon="6.382901994511485">
        <ele>815.82000000000005</ele>
        <time>2025-05-18T08:08:11Z</time>
      </trkpt>
      <trkpt lat="43.742419984191656" lon="6.38274198397994">
        <ele>814.37</ele>
        <time>2025-05-18T08:08:12Z</time>
      </trkpt>
      <trkpt lat="43.742456026375294" lon="6.382614998146892">
        <ele>812.92999999999995</ele>
        <time>2025-05-18T08:08:13Z</time>
      </trkpt>
      <trkpt lat="43.742473963648081" lon="6.382477032020688">
        <ele>811.49000000000001</ele>
        <time>2025-05-18T08:08:14Z</time>
      </trkpt>
      <trkpt lat="43.742428030818701" lon="6.382350968196988">
        <ele>810.04999999999995</ele>
        <time>2025-05-18T08:08:15Z</time>
      </trkpt>
      <trkpt lat="43.742371033877134" lon="6.382216019555926">
        <ele>808.61000000000001</ele>
        <time>2025-05-18T08:08:16Z</time>
      </trkpt>
      <trkpt lat="43.742280006408691" lon="6.382104959338903">
        <ele>807.15999999999997</ele>
        <time>2025-05-18T08:08:17Z</time>
      </trkpt>
      <trkpt lat="43.742156960070133" lon="6.382061038166285">
        <ele>806.20000000000005</ele>
        <time>2025-05-18T08:08:18Z</time>
      </trkpt>
      <trkpt lat="43.742022011429071" lon="6.382012004032731">
        <ele>805.24000000000001</ele>
        <time>2025-05-18T08:08:19Z</time>
      </trkpt>
      <trkpt lat="43.741744989529252" lon="6.381914019584656">
        <ele>802.84000000000003</ele>
        <time>2025-05-18T08:08:21Z</time>
      </trkpt>
      <trkpt lat="43.741624038666487" lon="6.381913013756275">
        <ele>801.39999999999998</ele>
        <time>2025-05-18T08:08:22Z</time>
      </trkpt>
      <trkpt lat="43.74152303673327" lon="6.381963975727558">
        <ele>800.44000000000005</ele>
        <time>2025-05-18T08:08:23Z</time>
      </trkpt>
      <trkpt lat="43.741422034800053" lon="6.382028013467789">
        <ele>799.47000000000003</ele>
        <time>2025-05-18T08:08:24Z</time>
      </trkpt>
      <trkpt lat="43.741314997896552" lon="6.382094984874129">
        <ele>798.50999999999999</ele>
        <time>2025-05-18T08:08:25Z</time>
      </trkpt>
      <trkpt lat="43.741205027326941" lon="6.382164973765612">
        <ele>797.07000000000005</ele>
        <time>2025-05-18T08:08:26Z</time>
      </trkpt>
      <trkpt lat="43.741092039272189" lon="6.382158016785979">
        <ele>796.11000000000001</ele>
        <time>2025-05-18T08:08:27Z</time>
      </trkpt>
      <trkpt lat="43.740972010418773" lon="6.382133960723877">
        <ele>795.14999999999998</ele>
        <time>2025-05-18T08:08:28Z</time>
      </trkpt>
      <trkpt lat="43.740904033184052" lon="6.382107976824045">
        <ele>794.19000000000005</ele>
        <time>2025-05-18T08:08:29Z</time>
      </trkpt>
      <trkpt lat="43.740820968523622" lon="6.382075035944581">
        <ele>793.22000000000003</ele>
        <time>2025-05-18T08:08:30Z</time>
      </trkpt>
      <trkpt lat="43.740671016275883" lon="6.382017033174634">
        <ele>792.25999999999999</ele>
        <time>2025-05-18T08:08:32Z</time>
      </trkpt>
      <trkpt lat="43.740166006609797" lon="6.381903039291501">
        <ele>788.89999999999998</ele>
        <time>2025-05-18T08:08:40Z</time>
      </trkpt>
      <trkpt lat="43.740120995789766" lon="6.381872026249766">
        <ele>788.41999999999996</ele>
        <time>2025-05-18T08:08:41Z</time>
      </trkpt>
      <trkpt lat="43.740083025768399" lon="6.381845958530903">
        <ele>787.94000000000005</ele>
        <time>2025-05-18T08:08:42Z</time>
      </trkpt>
      <trkpt lat="43.740054024383426" lon="6.381825003772974">
        <ele>787.46000000000004</ele>
        <time>2025-05-18T08:08:43Z</time>
      </trkpt>
      <trkpt lat="43.740037009119987" lon="6.381813017651439">
        <ele>786.98000000000002</ele>
        <time>2025-05-18T08:08:44Z</time>
      </trkpt>
      <trkpt lat="43.740057041868567" lon="6.381827015429735">
        <ele>785.04999999999995</ele>
        <time>2025-05-18T08:08:48Z</time>
      </trkpt>
      <trkpt lat="43.740088976919651" lon="6.381849981844425">
        <ele>784.57000000000005</ele>
        <time>2025-05-18T08:08:49Z</time>
      </trkpt>
      <trkpt lat="43.740125019103289" lon="6.381874037906528">
        <ele>785.04999999999995</ele>
        <time>2025-05-18T08:08:50Z</time>
      </trkpt>
      <trkpt lat="43.740163994953036" lon="6.38190102763474">
        <ele>784.57000000000005</ele>
        <time>2025-05-18T08:08:51Z</time>
      </trkpt>
      <trkpt lat="43.740220991894603" lon="6.381941009312868">
        <ele>784.09000000000003</ele>
        <time>2025-05-18T08:08:52Z</time>
      </trkpt>
      <trkpt lat="43.740220991894603" lon="6.381941009312868">
        <ele>783.61000000000001</ele>
        <time>2025-05-18T08:08:53Z</time>
      </trkpt>
      <trkpt lat="43.740229038521647" lon="6.381942015141249">
        <ele>783.61000000000001</ele>
        <time>2025-05-18T08:08:54Z</time>
      </trkpt>
      <trkpt lat="43.740252004936337" lon="6.38194402679801">
        <ele>783.13</ele>
        <time>2025-05-18T08:08:55Z</time>
      </trkpt>
      <trkpt lat="43.740266002714634" lon="6.381946038454771">
        <ele>783.13</ele>
        <time>2025-05-18T08:08:56Z</time>
      </trkpt>
      <trkpt lat="43.740244964137673" lon="6.382016027346253">
        <ele>781.69000000000005</ele>
        <time>2025-05-18T08:09:05Z</time>
      </trkpt>
      <trkpt lat="43.740244964137673" lon="6.382016027346253">
        <ele>781.69000000000005</ele>
        <time>2025-05-18T08:09:36Z</time>
      </trkpt>
      <trkpt lat="43.740248987451196" lon="6.382032036781311">
        <ele>782.64999999999998</ele>
        <time>2025-05-18T08:10:28Z</time>
      </trkpt>
      <trkpt lat="43.740195007994771" lon="6.381831038743258">
        <ele>822.05999999999995</ele>
        <time>2025-05-18T08:13:23Z</time>
      </trkpt>
      <trkpt lat="43.740283017978072" lon="6.38203295879066">
        <ele>795.63</ele>
        <time>2025-05-18T08:13:45Z</time>
      </trkpt>
      <trkpt lat="43.740284023806453" lon="6.382026001811028">
        <ele>795.63</ele>
        <time>2025-05-18T08:13:46Z</time>
      </trkpt>
      <trkpt lat="43.740220991894603" lon="6.381941009312868">
        <ele>795.63</ele>
        <time>2025-05-18T08:13:48Z</time>
      </trkpt>
      <trkpt lat="43.740206994116306" lon="6.381931034848094">
        <ele>794.19000000000005</ele>
        <time>2025-05-18T08:13:49Z</time>
      </trkpt>
      <trkpt lat="43.740089982748032" lon="6.381849981844425">
        <ele>792.74000000000001</ele>
        <time>2025-05-18T08:13:51Z</time>
      </trkpt>
      <trkpt lat="43.740019993856549" lon="6.381802037358284">
        <ele>792.25999999999999</ele>
        <time>2025-05-18T08:13:52Z</time>
      </trkpt>
      <trkpt lat="43.739249026402831" lon="6.381357964128256">
        <ele>786.5</ele>
        <time>2025-05-18T08:14:01Z</time>
      </trkpt>
      <trkpt lat="43.739130003377795" lon="6.381329968571663">
        <ele>786.01999999999998</ele>
        <time>2025-05-18T08:14:02Z</time>
      </trkpt>
      <trkpt lat="43.739022966474295" lon="6.381359975785017">
        <ele>785.04999999999995</ele>
        <time>2025-05-18T08:14:03Z</time>
      </trkpt>
      <trkpt lat="43.738911990076303" lon="6.381435999646783">
        <ele>784.09000000000003</ele>
        <time>2025-05-18T08:14:04Z</time>
      </trkpt>
      <trkpt lat="43.738794978708029" lon="6.381515963003039">
        <ele>783.13</ele>
        <time>2025-05-18T08:14:05Z</time>
      </trkpt>
      <trkpt lat="43.738676039502025" lon="6.381598021835089">
        <ele>782.16999999999996</ele>
        <time>2025-05-18T08:14:06Z</time>
      </trkpt>
      <trkpt lat="43.738569002598524" lon="6.381726013496518">
        <ele>781.21000000000004</ele>
        <time>2025-05-18T08:14:07Z</time>
      </trkpt>
      <trkpt lat="43.737764004617929" lon="6.382713988423348">
        <ele>781.69000000000005</ele>
        <time>2025-05-18T08:14:14Z</time>
      </trkpt>
      <trkpt lat="43.737656967714429" lon="6.382883973419666">
        <ele>782.16999999999996</ele>
        <time>2025-05-18T08:14:15Z</time>
      </trkpt>
      <trkpt lat="43.737564012408257" lon="6.383058987557888">
        <ele>782.64999999999998</ele>
        <time>2025-05-18T08:14:16Z</time>
      </trkpt>
      <trkpt lat="43.737491006031632" lon="6.383226960897446">
        <ele>783.13</ele>
        <time>2025-05-18T08:14:17Z</time>
      </trkpt>
      <trkpt lat="43.73744398355484" lon="6.383401975035667">
        <ele>783.61000000000001</ele>
        <time>2025-05-18T08:14:18Z</time>
      </trkpt>
      <trkpt lat="43.737445995211601" lon="6.383589981123805">
        <ele>784.09000000000003</ele>
        <time>2025-05-18T08:14:19Z</time>
      </trkpt>
      <trkpt lat="43.737488994374871" lon="6.38377103023231">
        <ele>784.57000000000005</ele>
        <time>2025-05-18T08:14:20Z</time>
      </trkpt>
      <trkpt lat="43.737538028508425" lon="6.383978985249996">
        <ele>785.04999999999995</ele>
        <time>2025-05-18T08:14:21Z</time>
      </trkpt>
      <trkpt lat="43.737620003521442" lon="6.384124998003244">
        <ele>785.52999999999997</ele>
        <time>2025-05-18T08:14:22Z</time>
      </trkpt>
      <trkpt lat="43.737717987969518" lon="6.384296994656324">
        <ele>785.52999999999997</ele>
        <time>2025-05-18T08:14:23Z</time>
      </trkpt>
      <trkpt lat="43.738735970109701" lon="6.386304963380098">
        <ele>795.63</ele>
        <time>2025-05-18T08:14:33Z</time>
      </trkpt>
      <trkpt lat="43.738808976486325" lon="6.386523982509971">
        <ele>796.59000000000003</ele>
        <time>2025-05-18T08:14:34Z</time>
      </trkpt>
      <trkpt lat="43.738847030326724" lon="6.386770997196436">
        <ele>797.54999999999995</ele>
        <time>2025-05-18T08:14:35Z</time>
      </trkpt>
      <trkpt lat="43.738847030326724" lon="6.387011976912618">
        <ele>798.50999999999999</ele>
        <time>2025-05-18T08:14:36Z</time>
      </trkpt>
      <trkpt lat="43.738830015063286" lon="6.387243987992406">
        <ele>799.47000000000003</ele>
        <time>2025-05-18T08:14:37Z</time>
      </trkpt>
      <trkpt lat="43.738805959001184" lon="6.387451021000743">
        <ele>799.95000000000005</ele>
        <time>2025-05-18T08:14:38Z</time>
      </trkpt>
      <trkpt lat="43.738779975101352" lon="6.387655036523938">
        <ele>799.95000000000005</ele>
        <time>2025-05-18T08:14:39Z</time>
      </trkpt>
      <trkpt lat="43.738695988431573" lon="6.387811023741961">
        <ele>799.95000000000005</ele>
        <time>2025-05-18T08:14:40Z</time>
      </trkpt>
      <trkpt lat="43.738633040338755" lon="6.387928035110235">
        <ele>799.95000000000005</ele>
        <time>2025-05-18T08:14:41Z</time>
      </trkpt>
      <trkpt lat="43.738483004271984" lon="6.388006992638111">
        <ele>799.47000000000003</ele>
        <time>2025-05-18T08:14:42Z</time>
      </trkpt>
      <trkpt lat="43.738355012610555" lon="6.388075975701213">
        <ele>799.47000000000003</ele>
        <time>2025-05-18T08:14:43Z</time>
      </trkpt>
      <trkpt lat="43.738216962665319" lon="6.388140013441443">
        <ele>798.99000000000001</ele>
        <time>2025-05-18T08:14:44Z</time>
      </trkpt>
      <trkpt lat="43.737922003492713" lon="6.388286026194692">
        <ele>799.47000000000003</ele>
        <time>2025-05-18T08:14:46Z</time>
      </trkpt>
      <trkpt lat="43.737790994346142" lon="6.388390967622399">
        <ele>799.47000000000003</ele>
        <time>2025-05-18T08:14:47Z</time>
      </trkpt>
      <trkpt lat="43.737687980756164" lon="6.388537986204028">
        <ele>799.95000000000005</ele>
        <time>2025-05-18T08:14:48Z</time>
      </trkpt>
      <trkpt lat="43.737587984651327" lon="6.388715011999011">
        <ele>800.44000000000005</ele>
        <time>2025-05-18T08:14:49Z</time>
      </trkpt>
      <trkpt lat="43.737480025738478" lon="6.38890796341002">
        <ele>800.44000000000005</ele>
        <time>2025-05-18T08:14:50Z</time>
      </trkpt>
      <trkpt lat="43.736436981707811" lon="6.390771009027958">
        <ele>804.27999999999997</ele>
        <time>2025-05-18T08:14:58Z</time>
      </trkpt>
      <trkpt lat="43.735397038981318" lon="6.392626008018851">
        <ele>803.32000000000005</ele>
        <time>2025-05-18T08:15:06Z</time>
      </trkpt>
      <trkpt lat="43.734919019043446" lon="6.393480040132999">
        <ele>798.02999999999997</ele>
        <time>2025-05-18T08:15:12Z</time>
      </trkpt>
      <trkpt lat="43.734798990190029" lon="6.393640972673893">
        <ele>795.63</ele>
        <time>2025-05-18T08:15:15Z</time>
      </trkpt>
      <trkpt lat="43.734759008511901" lon="6.393675003200769">
        <ele>795.14999999999998</ele>
        <time>2025-05-18T08:15:16Z</time>
      </trkpt>
      <trkpt lat="43.734706034883857" lon="6.393721019849181">
        <ele>794.66999999999996</ele>
        <time>2025-05-18T08:15:17Z</time>
      </trkpt>
      <trkpt lat="43.734664041548967" lon="6.393721019849181">
        <ele>793.71000000000004</ele>
        <time>2025-05-18T08:15:18Z</time>
      </trkpt>
      <trkpt lat="43.734620036557317" lon="6.393721019849181">
        <ele>793.22000000000003</ele>
        <time>2025-05-18T08:15:19Z</time>
      </trkpt>
      <trkpt lat="43.73456303961575" lon="6.39365597628057">
        <ele>792.25999999999999</ele>
        <time>2025-05-18T08:15:20Z</time>
      </trkpt>
      <trkpt lat="43.734515011310577" lon="6.393600990995765">
        <ele>791.29999999999995</ele>
        <time>2025-05-18T08:15:21Z</time>
      </trkpt>
      <trkpt lat="43.734470000490546" lon="6.393550029024482">
        <ele>790.82000000000005</ele>
        <time>2025-05-18T08:15:22Z</time>
      </trkpt>
      <trkpt lat="43.734452985227108" lon="6.393484985455871">
        <ele>789.86000000000001</ele>
        <time>2025-05-18T08:15:23Z</time>
      </trkpt>
      <trkpt lat="43.734428007155657" lon="6.393393035978079">
        <ele>788.89999999999998</ele>
        <time>2025-05-18T08:15:24Z</time>
      </trkpt>
      <trkpt lat="43.734404034912586" lon="6.393302008509636">
        <ele>787.46000000000004</ele>
        <time>2025-05-18T08:15:25Z</time>
      </trkpt>
      <trkpt lat="43.734379978850484" lon="6.393213998526335">
        <ele>786.01999999999998</ele>
        <time>2025-05-18T08:15:26Z</time>
      </trkpt>
      <trkpt lat="43.734308984130621" lon="6.39294502325356">
        <ele>783.13</ele>
        <time>2025-05-18T08:15:29Z</time>
      </trkpt>
      <trkpt lat="43.734275959432125" lon="6.392871011048555">
        <ele>782.16999999999996</ele>
        <time>2025-05-18T08:15:30Z</time>
      </trkpt>
      <trkpt lat="43.734224997460842" lon="6.392792975530028">
        <ele>781.21000000000004</ele>
        <time>2025-05-18T08:15:31Z</time>
      </trkpt>
      <trkpt lat="43.734168000519276" lon="6.392703959718347">
        <ele>780.73000000000002</ele>
        <time>2025-05-18T08:15:32Z</time>
      </trkpt>
      <trkpt lat="43.734107986092567" lon="6.392612010240555">
        <ele>779.76999999999998</ele>
        <time>2025-05-18T08:15:33Z</time>
      </trkpt>
      <trkpt lat="43.733985023573041" lon="6.392456023022533">
        <ele>778.32000000000005</ele>
        <time>2025-05-18T08:15:35Z</time>
      </trkpt>
      <trkpt lat="43.733913023024797" lon="6.392375975847244">
        <ele>777.36000000000001</ele>
        <time>2025-05-18T08:15:36Z</time>
      </trkpt>
      <trkpt lat="43.733302988111973" lon="6.391810029745102">
        <ele>772.55999999999995</ele>
        <time>2025-05-18T08:15:41Z</time>
      </trkpt>
      <trkpt lat="43.732376033440232" lon="6.390939988195896">
        <ele>765.83000000000004</ele>
        <time>2025-05-18T08:15:47Z</time>
      </trkpt>
      <trkpt lat="43.732280982658267" lon="6.390780983492732">
        <ele>765.35000000000002</ele>
        <time>2025-05-18T08:15:48Z</time>
      </trkpt>
      <trkpt lat="43.732228009030223" lon="6.39058199711144">
        <ele>764.38999999999999</ele>
        <time>2025-05-18T08:15:49Z</time>
      </trkpt>
      <trkpt lat="43.732060035690665" lon="6.390082016587257">
        <ele>761.5</ele>
        <time>2025-05-18T08:15:52Z</time>
      </trkpt>
      <trkpt lat="43.731997003778815" lon="6.389997024089098">
        <ele>760.53999999999996</ele>
        <time>2025-05-18T08:15:53Z</time>
      </trkpt>
      <trkpt lat="43.731891978532076" lon="6.389947989955545">
        <ele>759.58000000000004</ele>
        <time>2025-05-18T08:15:54Z</time>
      </trkpt>
      <trkpt lat="43.731773039326072" lon="6.389891998842359">
        <ele>758.62</ele>
        <time>2025-05-18T08:15:55Z</time>
      </trkpt>
      <trkpt lat="43.731645969673991" lon="6.389847993850708">
        <ele>757.65999999999997</ele>
        <time>2025-05-18T08:15:56Z</time>
      </trkpt>
      <trkpt lat="43.731518983840942" lon="6.389822009950876">
        <ele>756.69000000000005</ele>
        <time>2025-05-18T08:15:57Z</time>
      </trkpt>
      <trkpt lat="43.731068959459662" lon="6.389731988310814">
        <ele>752.37</ele>
        <time>2025-05-18T08:16:02Z</time>
      </trkpt>
      <trkpt lat="43.731010034680367" lon="6.389695024117827">
        <ele>751.40999999999997</ele>
        <time>2025-05-18T08:16:03Z</time>
      </trkpt>
      <trkpt lat="43.730957983061671" lon="6.389657976105809">
        <ele>750.92999999999995</ele>
        <time>2025-05-18T08:16:04Z</time>
      </trkpt>
      <trkpt lat="43.730497984215617" lon="6.389324963092804">
        <ele>744.20000000000005</ele>
        <time>2025-05-18T08:16:16Z</time>
      </trkpt>
      <trkpt lat="43.730392958968878" lon="6.38924902305007">
        <ele>742.27999999999997</ele>
        <time>2025-05-18T08:16:26Z</time>
      </trkpt>
      <trkpt lat="43.730392958968878" lon="6.38924902305007">
        <ele>741.78999999999996</ele>
        <time>2025-05-18T08:17:08Z</time>
      </trkpt>
      <trkpt lat="43.730174023658037" lon="6.389091024175286">
        <ele>742.27999999999997</ele>
        <time>2025-05-18T08:17:25Z</time>
      </trkpt>
      <trkpt lat="43.730107974261045" lon="6.389042995870113">
        <ele>741.78999999999996</ele>
        <time>2025-05-18T08:17:26Z</time>
      </trkpt>
      <trkpt lat="43.730043014511466" lon="6.388990022242069">
        <ele>741.30999999999995</ele>
        <time>2025-05-18T08:17:27Z</time>
      </trkpt>
      <trkpt lat="43.729990962892771" lon="6.388910980895162">
        <ele>740.83000000000004</ele>
        <time>2025-05-18T08:17:28Z</time>
      </trkpt>
      <trkpt lat="43.729936983436346" lon="6.388828000053763">
        <ele>740.35000000000002</ele>
        <time>2025-05-18T08:17:29Z</time>
      </trkpt>
      <trkpt lat="43.729884009808302" lon="6.388746025040746">
        <ele>740.35000000000002</ele>
        <time>2025-05-18T08:17:30Z</time>
      </trkpt>
      <trkpt lat="43.729714024811983" lon="6.388400020077825">
        <ele>737.95000000000005</ele>
        <time>2025-05-18T08:17:34Z</time>
      </trkpt>
      <trkpt lat="43.72968502342701" lon="6.388290971517563">
        <ele>737.47000000000003</ele>
        <time>2025-05-18T08:17:35Z</time>
      </trkpt>
      <trkpt lat="43.72968502342701" lon="6.38819701038301">
        <ele>736.99000000000001</ele>
        <time>2025-05-18T08:17:36Z</time>
      </trkpt>
      <trkpt lat="43.72968502342701" lon="6.388105982914567">
        <ele>736.50999999999999</ele>
        <time>2025-05-18T08:17:37Z</time>
      </trkpt>
      <trkpt lat="43.729706984013319" lon="6.387987965717912">
        <ele>736.50999999999999</ele>
        <time>2025-05-18T08:17:38Z</time>
      </trkpt>
      <trkpt lat="43.729742020368576" lon="6.387914037331939">
        <ele>736.02999999999997</ele>
        <time>2025-05-18T08:17:39Z</time>
      </trkpt>
      <trkpt lat="43.72977202758193" lon="6.387849999591708">
        <ele>736.02999999999997</ele>
        <time>2025-05-18T08:17:40Z</time>
      </trkpt>
      <trkpt lat="43.72979499399662" lon="6.387801971286535">
        <ele>736.02999999999997</ele>
        <time>2025-05-18T08:17:41Z</time>
      </trkpt>
      <trkpt lat="43.730048965662718" lon="6.387382037937641">
        <ele>733.62</ele>
        <time>2025-05-18T08:17:54Z</time>
      </trkpt>
      <trkpt lat="43.730274019762874" lon="6.387031003832817">
        <ele>734.10000000000002</ele>
        <time>2025-05-18T08:18:07Z</time>
      </trkpt>
      <trkpt lat="43.730585994198918" lon="6.386576034128666">
        <ele>734.10000000000002</ele>
        <time>2025-05-18T08:18:14Z</time>
      </trkpt>
      <trkpt lat="43.730650031939149" lon="6.386544015258551">
        <ele>734.10000000000002</ele>
        <time>2025-05-18T08:18:15Z</time>
      </trkpt>
      <trkpt lat="43.730705017223954" lon="6.386516019701958">
        <ele>734.10000000000002</ele>
        <time>2025-05-18T08:18:16Z</time>
      </trkpt>
      <trkpt lat="43.730766959488392" lon="6.386529011651874">
        <ele>734.10000000000002</ele>
        <time>2025-05-18T08:18:17Z</time>
      </trkpt>
      <trkpt lat="43.730821022763848" lon="6.386547032743692">
        <ele>734.10000000000002</ele>
        <time>2025-05-18T08:18:18Z</time>
      </trkpt>
      <trkpt lat="43.730876008048654" lon="6.38658600859344">
        <ele>734.10000000000002</ele>
        <time>2025-05-18T08:18:19Z</time>
      </trkpt>
      <trkpt lat="43.730925964191556" lon="6.386636970564723">
        <ele>734.10000000000002</ele>
        <time>2025-05-18T08:18:20Z</time>
      </trkpt>
      <trkpt lat="43.730977009981871" lon="6.386688016355038">
        <ele>734.10000000000002</ele>
        <time>2025-05-18T08:18:21Z</time>
      </trkpt>
      <trkpt lat="43.731442037969828" lon="6.387256979942322">
        <ele>734.10000000000002</ele>
        <time>2025-05-18T08:18:30Z</time>
      </trkpt>
      <trkpt lat="43.731495011597872" lon="6.387322023510933">
        <ele>734.58000000000004</ele>
        <time>2025-05-18T08:18:31Z</time>
      </trkpt>
      <trkpt lat="43.731542034074664" lon="6.387379020452499">
        <ele>734.58000000000004</ele>
        <time>2025-05-18T08:18:32Z</time>
      </trkpt>
      <trkpt lat="43.731613028794527" lon="6.387377008795738">
        <ele>735.07000000000005</ele>
        <time>2025-05-18T08:18:33Z</time>
      </trkpt>
      <trkpt lat="43.73168402351439" lon="6.387358987703919">
        <ele>735.54999999999995</ele>
        <time>2025-05-18T08:18:34Z</time>
      </trkpt>
      <trkpt lat="43.731757029891014" lon="6.387341972440481">
        <ele>735.54999999999995</ele>
        <time>2025-05-18T08:18:35Z</time>
      </trkpt>
      <trkpt lat="43.731826012954116" lon="6.387325040996075">
        <ele>736.02999999999997</ele>
        <time>2025-05-18T08:18:36Z</time>
      </trkpt>
      <trkpt lat="43.731894996017218" lon="6.387309031561017">
        <ele>736.02999999999997</ele>
        <time>2025-05-18T08:18:37Z</time>
      </trkpt>
      <trkpt lat="43.732035979628563" lon="6.387275001034141">
        <ele>736.99000000000001</ele>
        <time>2025-05-18T08:18:39Z</time>
      </trkpt>
      <trkpt lat="43.732110997661948" lon="6.387267038226128">
        <ele>736.99000000000001</ele>
        <time>2025-05-18T08:18:40Z</time>
      </trkpt>
      <trkpt lat="43.732756990939379" lon="6.387362005189061">
        <ele>743.72000000000003</ele>
        <time>2025-05-18T08:18:48Z</time>
      </trkpt>
      <trkpt lat="43.732833014801145" lon="6.387314982712269">
        <ele>744.67999999999995</ele>
        <time>2025-05-18T08:18:49Z</time>
      </trkpt>
      <trkpt lat="43.732896968722343" lon="6.387254968285561">
        <ele>745.63999999999999</ele>
        <time>2025-05-18T08:18:50Z</time>
      </trkpt>
      <trkpt lat="43.732942985370755" lon="6.387162012979388">
        <ele>746.60000000000002</ele>
        <time>2025-05-18T08:18:51Z</time>
      </trkpt>
      <trkpt lat="43.732968969270587" lon="6.387046007439494">
        <ele>747.08000000000004</ele>
        <time>2025-05-18T08:18:52Z</time>
      </trkpt>
      <trkpt lat="43.732971986755729" lon="6.386920027434826">
        <ele>748.51999999999998</ele>
        <time>2025-05-18T08:18:53Z</time>
      </trkpt>
      <trkpt lat="43.73297500424087" lon="6.386777032166719">
        <ele>749.49000000000001</ele>
        <time>2025-05-18T08:18:54Z</time>
      </trkpt>
      <trkpt lat="43.732979027554393" lon="6.386622972786427">
        <ele>750.92999999999995</ele>
        <time>2025-05-18T08:18:55Z</time>
      </trkpt>
      <trkpt lat="43.732982967048883" lon="6.386459022760391">
        <ele>751.88999999999999</ele>
        <time>2025-05-18T08:18:56Z</time>
      </trkpt>
      <trkpt lat="43.732986990362406" lon="6.386283002793789">
        <ele>752.85000000000002</ele>
        <time>2025-05-18T08:18:57Z</time>
      </trkpt>
      <trkpt lat="43.732982967048883" lon="6.386096002534032">
        <ele>753.80999999999995</ele>
        <time>2025-05-18T08:18:58Z</time>
      </trkpt>
      <trkpt lat="43.732967041432858" lon="6.385900033637881">
        <ele>754.76999999999998</ele>
        <time>2025-05-18T08:18:59Z</time>
      </trkpt>
      <trkpt lat="43.732950026169419" lon="6.385700963437557">
        <ele>755.25</ele>
        <time>2025-05-18T08:19:00Z</time>
      </trkpt>
      <trkpt lat="43.732965029776096" lon="6.385501977056265">
        <ele>756.21000000000004</ele>
        <time>2025-05-18T08:19:01Z</time>
      </trkpt>
      <trkpt lat="43.733013980090618" lon="6.385093024000526">
        <ele>758.13999999999999</ele>
        <time>2025-05-18T08:19:03Z</time>
      </trkpt>
      <trkpt lat="43.733027977868915" lon="6.384877022355795">
        <ele>758.62</ele>
        <time>2025-05-18T08:19:04Z</time>
      </trkpt>
      <trkpt lat="43.732934016734362" lon="6.383476993069053">
        <ele>764.87</ele>
        <time>2025-05-18T08:19:10Z</time>
      </trkpt>
      <trkpt lat="43.732936028391123" lon="6.383237019181252">
        <ele>765.83000000000004</ele>
        <time>2025-05-18T08:19:11Z</time>
      </trkpt>
      <trkpt lat="43.732964023947716" lon="6.382995033636689">
        <ele>766.78999999999996</ele>
        <time>2025-05-18T08:19:12Z</time>
      </trkpt>
      <trkpt lat="43.732993025332689" lon="6.38274097815156">
        <ele>767.75</ele>
        <time>2025-05-18T08:19:13Z</time>
      </trkpt>
      <trkpt lat="43.733022026717663" lon="6.382481977343559">
        <ele>768.71000000000004</ele>
        <time>2025-05-18T08:19:14Z</time>
      </trkpt>
      <trkpt lat="43.733203997835517" lon="6.380888996645808">
        <ele>776.88</ele>
        <time>2025-05-18T08:19:20Z</time>
      </trkpt>
      <trkpt lat="43.73312696814537" lon="6.37913097627461">
        <ele>784.57000000000005</ele>
        <time>2025-05-18T08:19:27Z</time>
      </trkpt>
      <trkpt lat="43.733075000345707" lon="6.378909023478627">
        <ele>785.52999999999997</ele>
        <time>2025-05-18T08:19:28Z</time>
      </trkpt>
      <trkpt lat="43.732691025361419" lon="6.377320988103747">
        <ele>793.22000000000003</ele>
        <time>2025-05-18T08:19:35Z</time>
      </trkpt>
      <trkpt lat="43.732668980956078" lon="6.377165000885725">
        <ele>794.19000000000005</ele>
        <time>2025-05-18T08:19:36Z</time>
      </trkpt>
      <trkpt lat="43.732711980119348" lon="6.377045977860689">
        <ele>795.14999999999998</ele>
        <time>2025-05-18T08:19:37Z</time>
      </trkpt>
      <trkpt lat="43.732765037566423" lon="6.376914968714118">
        <ele>795.63</ele>
        <time>2025-05-18T08:19:38Z</time>
      </trkpt>
      <trkpt lat="43.732825974002481" lon="6.376764010637999">
        <ele>796.11000000000001</ele>
        <time>2025-05-18T08:19:39Z</time>
      </trkpt>
      <trkpt lat="43.732892023399472" lon="6.376601988449693">
        <ele>797.07000000000005</ele>
        <time>2025-05-18T08:19:40Z</time>
      </trkpt>
      <trkpt lat="43.732957988977432" lon="6.376439966261387">
        <ele>797.54999999999995</ele>
        <time>2025-05-18T08:19:41Z</time>
      </trkpt>
      <trkpt lat="43.733029989525676" lon="6.376308035105467">
        <ele>798.50999999999999</ele>
        <time>2025-05-18T08:19:42Z</time>
      </trkpt>
      <trkpt lat="43.733117999508977" lon="6.376190017908812">
        <ele>798.99000000000001</ele>
        <time>2025-05-18T08:19:43Z</time>
      </trkpt>
      <trkpt lat="43.733219001442194" lon="6.376162022352219">
        <ele>799.47000000000003</ele>
        <time>2025-05-18T08:19:44Z</time>
      </trkpt>
      <trkpt lat="43.733309023082256" lon="6.376152969896793">
        <ele>799.95000000000005</ele>
        <time>2025-05-18T08:19:45Z</time>
      </trkpt>
      <trkpt lat="43.73342502862215" lon="6.376177025958896">
        <ele>800.91999999999996</ele>
        <time>2025-05-18T08:19:46Z</time>
      </trkpt>
      <trkpt lat="43.733508009463549" lon="6.376285990700126">
        <ele>801.39999999999998</ele>
        <time>2025-05-18T08:19:47Z</time>
      </trkpt>
      <trkpt lat="43.73359601944685" lon="6.376400990411639">
        <ele>802.36000000000001</ele>
        <time>2025-05-18T08:19:48Z</time>
      </trkpt>
      <trkpt lat="43.733691992238164" lon="6.376526970416307">
        <ele>803.32000000000005</ele>
        <time>2025-05-18T08:19:49Z</time>
      </trkpt>
      <trkpt lat="43.733807997778058" lon="6.376619003713131">
        <ele>804.27999999999997</ele>
        <time>2025-05-18T08:19:50Z</time>
      </trkpt>
      <trkpt lat="43.733930038288236" lon="6.376697039231658">
        <ele>805.24000000000001</ele>
        <time>2025-05-18T08:19:51Z</time>
      </trkpt>
      <trkpt lat="43.734071021899581" lon="6.376744983717799">
        <ele>806.20000000000005</ele>
        <time>2025-05-18T08:19:52Z</time>
      </trkpt>
      <trkpt lat="43.734218962490559" lon="6.376796029508114">
        <ele>806.67999999999995</ele>
        <time>2025-05-18T08:19:53Z</time>
      </trkpt>
      <trkpt lat="43.734375033527613" lon="6.376850008964539">
        <ele>807.63999999999999</ele>
        <time>2025-05-18T08:19:54Z</time>
      </trkpt>
      <trkpt lat="43.734689019620419" lon="6.376943970099092">
        <ele>810.04999999999995</ele>
        <time>2025-05-18T08:19:56Z</time>
      </trkpt>
      <trkpt lat="43.734847018495202" lon="6.376955034211278">
        <ele>811.49000000000001</ele>
        <time>2025-05-18T08:19:57Z</time>
      </trkpt>
      <trkpt lat="43.735009962692857" lon="6.376956040039659">
        <ele>812.92999999999995</ele>
        <time>2025-05-18T08:19:58Z</time>
      </trkpt>
      <trkpt lat="43.736077984794974" lon="6.376876998692751">
        <ele>820.62</ele>
        <time>2025-05-18T08:20:04Z</time>
      </trkpt>
      <trkpt lat="43.736654995009303" lon="6.376931983977556">
        <ele>826.87</ele>
        <time>2025-05-18T08:20:08Z</time>
      </trkpt>
      <trkpt lat="43.736778041347861" lon="6.376922009512782">
        <ele>828.30999999999995</ele>
        <time>2025-05-18T08:20:09Z</time>
      </trkpt>
      <trkpt lat="43.736907038837671" lon="6.376882027834654">
        <ele>829.26999999999998</ele>
        <time>2025-05-18T08:20:10Z</time>
      </trkpt>
      <trkpt lat="43.737293025478721" lon="6.376688992604613">
        <ele>833.12</ele>
        <time>2025-05-18T08:20:13Z</time>
      </trkpt>
      <trkpt lat="43.737402996048331" lon="6.37659402564168">
        <ele>834.08000000000004</ele>
        <time>2025-05-18T08:20:14Z</time>
      </trkpt>
      <trkpt lat="43.73750701546669" lon="6.376494029536843">
        <ele>835.03999999999996</ele>
        <time>2025-05-18T08:20:15Z</time>
      </trkpt>
      <trkpt lat="43.737592007964849" lon="6.37636000290513">
        <ele>836</ele>
        <time>2025-05-18T08:20:16Z</time>
      </trkpt>
      <trkpt lat="43.737670965492725" lon="6.376205021515489">
        <ele>836.96000000000004</ele>
        <time>2025-05-18T08:20:17Z</time>
      </trkpt>
      <trkpt lat="43.737727962434292" lon="6.376040987670422">
        <ele>837.45000000000005</ele>
        <time>2025-05-18T08:20:18Z</time>
      </trkpt>
      <trkpt lat="43.737782025709748" lon="6.375888017937541">
        <ele>838.40999999999997</ele>
        <time>2025-05-18T08:20:19Z</time>
      </trkpt>
      <trkpt lat="43.737855032086372" lon="6.375763965770602">
        <ele>838.88999999999999</ele>
        <time>2025-05-18T08:20:20Z</time>
      </trkpt>
      <trkpt lat="43.737942958250642" lon="6.375666987150908">
        <ele>839.85000000000002</ele>
        <time>2025-05-18T08:20:21Z</time>
      </trkpt>
      <trkpt lat="43.738061981275678" lon="6.375577971339226">
        <ele>840.80999999999995</ele>
        <time>2025-05-18T08:20:22Z</time>
      </trkpt>
      <trkpt lat="43.738189972937107" lon="6.375480992719531">
        <ele>841.28999999999996</ele>
        <time>2025-05-18T08:20:23Z</time>
      </trkpt>
      <trkpt lat="43.739299988374114" lon="6.374425040557981">
        <ele>849.46000000000004</ele>
        <time>2025-05-18T08:20:31Z</time>
      </trkpt>
      <trkpt lat="43.740097023546696" lon="6.373595986515284">
        <ele>859.08000000000004</ele>
        <time>2025-05-18T08:20:38Z</time>
      </trkpt>
      <trkpt lat="43.740177992731333" lon="6.373530020937324">
        <ele>866.28999999999996</ele>
        <time>2025-05-18T08:20:44Z</time>
      </trkpt>
      <trkpt lat="43.740177992731333" lon="6.373530020937324">
        <ele>866.28999999999996</ele>
        <time>2025-05-18T08:21:23Z</time>
      </trkpt>
      <trkpt lat="43.740242030471563" lon="6.373421978205442">
        <ele>870.61000000000001</ele>
        <time>2025-05-18T08:21:29Z</time>
      </trkpt>
      <trkpt lat="43.740242030471563" lon="6.373421978205442">
        <ele>871.09000000000003</ele>
        <time>2025-05-18T08:21:30Z</time>
      </trkpt>
      <trkpt lat="43.740242030471563" lon="6.373421978205442">
        <ele>871.57000000000005</ele>
        <time>2025-05-18T08:21:31Z</time>
      </trkpt>
      <trkpt lat="43.74023700132966" lon="6.373403035104275">
        <ele>872.52999999999997</ele>
        <time>2025-05-18T08:21:32Z</time>
      </trkpt>
      <trkpt lat="43.740217974409461" lon="6.373338997364044">
        <ele>873.00999999999999</ele>
        <time>2025-05-18T08:21:33Z</time>
      </trkpt>
      <trkpt lat="43.740181010216475" lon="6.373269008472562">
        <ele>873.5</ele>
        <time>2025-05-18T08:21:34Z</time>
      </trkpt>
      <trkpt lat="43.740104986354709" lon="6.373258028179407">
        <ele>873.98000000000002</ele>
        <time>2025-05-18T08:21:35Z</time>
      </trkpt>
      <trkpt lat="43.740011025220156" lon="6.37324302457273">
        <ele>873.98000000000002</ele>
        <time>2025-05-18T08:21:36Z</time>
      </trkpt>
      <trkpt lat="43.739900970831513" lon="6.373217040672898">
        <ele>874.46000000000004</ele>
        <time>2025-05-18T08:21:37Z</time>
      </trkpt>
      <trkpt lat="43.739793011918664" lon="6.373147973790765">
        <ele>875.41999999999996</ele>
        <time>2025-05-18T08:21:38Z</time>
      </trkpt>
      <trkpt lat="43.739669965580106" lon="6.373074967414141">
        <ele>875.89999999999998</ele>
        <time>2025-05-18T08:21:39Z</time>
      </trkpt>
      <trkpt lat="43.739281967282295" lon="6.372959967702627">
        <ele>876.86000000000001</ele>
        <time>2025-05-18T08:21:42Z</time>
      </trkpt>
      <trkpt lat="43.739090021699667" lon="6.372886961326003">
        <ele>877.34000000000003</ele>
        <time>2025-05-18T08:21:44Z</time>
      </trkpt>
      <trkpt lat="43.739039981737733" lon="6.372820995748043">
        <ele>877.34000000000003</ele>
        <time>2025-05-18T08:21:45Z</time>
      </trkpt>
      <trkpt lat="43.739027995616198" lon="6.372718987986445">
        <ele>877.34000000000003</ele>
        <time>2025-05-18T08:21:46Z</time>
      </trkpt>
      <trkpt lat="43.739035958424211" lon="6.37262100353837">
        <ele>877.34000000000003</ele>
        <time>2025-05-18T08:21:47Z</time>
      </trkpt>
      <trkpt lat="43.739088010042906" lon="6.372537016868591">
        <ele>877.34000000000003</ele>
        <time>2025-05-18T08:21:48Z</time>
      </trkpt>
      <trkpt lat="43.739148024469614" lon="6.372440038248897">
        <ele>877.34000000000003</ele>
        <time>2025-05-18T08:21:49Z</time>
      </trkpt>
      <trkpt lat="43.739197980612516" lon="6.372329983860254">
        <ele>877.34000000000003</ele>
        <time>2025-05-18T08:21:50Z</time>
      </trkpt>
      <trkpt lat="43.739228993654251" lon="6.37217097915709">
        <ele>876.86000000000001</ele>
        <time>2025-05-18T08:21:51Z</time>
      </trkpt>
      <trkpt lat="43.739260006695986" lon="6.372005017474294">
        <ele>876.86000000000001</ele>
        <time>2025-05-18T08:21:52Z</time>
      </trkpt>
      <trkpt lat="43.739266963675618" lon="6.371848024427891">
        <ele>876.38</ele>
        <time>2025-05-18T08:21:53Z</time>
      </trkpt>
      <trkpt lat="43.739245003089309" lon="6.371681978926063">
        <ele>876.38</ele>
        <time>2025-05-18T08:21:54Z</time>
      </trkpt>
      <trkpt lat="43.739225976169109" lon="6.371534038335085">
        <ele>876.38</ele>
        <time>2025-05-18T08:21:55Z</time>
      </trkpt>
      <trkpt lat="43.739203009754419" lon="6.371408980339766">
        <ele>876.38</ele>
        <time>2025-05-18T08:21:56Z</time>
      </trkpt>
      <trkpt lat="43.739148024469614" lon="6.371298003941774">
        <ele>875.89999999999998</ele>
        <time>2025-05-18T08:21:57Z</time>
      </trkpt>
      <trkpt lat="43.739065965637565" lon="6.37124503031373">
        <ele>874.94000000000005</ele>
        <time>2025-05-18T08:21:58Z</time>
      </trkpt>
      <trkpt lat="43.738965969532728" lon="6.371178980916739">
        <ele>874.46000000000004</ele>
        <time>2025-05-18T08:21:59Z</time>
      </trkpt>
      <trkpt lat="43.738853987306356" lon="6.371105974540114">
        <ele>873.5</ele>
        <time>2025-05-18T08:22:00Z</time>
      </trkpt>
      <trkpt lat="43.738031974062324" lon="6.370568023994565">
        <ele>871.09000000000003</ele>
        <time>2025-05-18T08:22:07Z</time>
      </trkpt>
      <trkpt lat="43.737914962694049" lon="6.370553020387888">
        <ele>870.61000000000001</ele>
        <time>2025-05-18T08:22:08Z</time>
      </trkpt>
      <trkpt lat="43.737799962982535" lon="6.370538016781211">
        <ele>869.64999999999998</ele>
        <time>2025-05-18T08:22:09Z</time>
      </trkpt>
      <trkpt lat="43.73675499111414" lon="6.370587972924113">
        <ele>866.76999999999998</ele>
        <time>2025-05-18T08:22:16Z</time>
      </trkpt>
      <trkpt lat="43.735641036182642" lon="6.371084013953805">
        <ele>863.39999999999998</ele>
        <time>2025-05-18T08:22:22Z</time>
      </trkpt>
      <trkpt lat="43.735431991517544" lon="6.371130030602217">
        <ele>862.44000000000005</ele>
        <time>2025-05-18T08:22:23Z</time>
      </trkpt>
      <trkpt lat="43.734002038836479" lon="6.371680973097682">
        <ele>865.32000000000005</ele>
        <time>2025-05-18T08:22:30Z</time>
      </trkpt>
      <trkpt lat="43.733240040019155" lon="6.372167961671948">
        <ele>870.13</ele>
        <time>2025-05-18T08:22:34Z</time>
      </trkpt>
      <trkpt lat="43.733072988688946" lon="6.372337024658918">
        <ele>871.57000000000005</ele>
        <time>2025-05-18T08:22:35Z</time>
      </trkpt>
      <trkpt lat="43.732769982889295" lon="6.372654028236866">
        <ele>873.98000000000002</ele>
        <time>2025-05-18T08:22:37Z</time>
      </trkpt>
      <trkpt lat="43.732671998441219" lon="6.372828036546707">
        <ele>875.41999999999996</ele>
        <time>2025-05-18T08:22:38Z</time>
      </trkpt>
      <trkpt lat="43.732584994286299" lon="6.372993998229504">
        <ele>876.38</ele>
        <time>2025-05-18T08:22:39Z</time>
      </trkpt>
      <trkpt lat="43.732434036210179" lon="6.373228020966053">
        <ele>878.29999999999995</ele>
        <time>2025-05-18T08:22:41Z</time>
      </trkpt>
      <trkpt lat="43.732389025390148" lon="6.373250987380743">
        <ele>878.77999999999997</ele>
        <time>2025-05-18T08:22:42Z</time>
      </trkpt>
      <trkpt lat="43.732309984043241" lon="6.373234977945685">
        <ele>879.25999999999999</ele>
        <time>2025-05-18T08:22:43Z</time>
      </trkpt>
      <trkpt lat="43.732276037335396" lon="6.373183010146022">
        <ele>879.74000000000001</ele>
        <time>2025-05-18T08:22:44Z</time>
      </trkpt>
      <trkpt lat="43.732264973223209" lon="6.373083014041185">
        <ele>879.74000000000001</ele>
        <time>2025-05-18T08:22:45Z</time>
      </trkpt>
      <trkpt lat="43.732279976829886" lon="6.373015958815813">
        <ele>880.22000000000003</ele>
        <time>2025-05-18T08:22:46Z</time>
      </trkpt>
      <trkpt lat="43.73235197737813" lon="6.372943036258221">
        <ele>880.22000000000003</ele>
        <time>2025-05-18T08:22:47Z</time>
      </trkpt>
      <trkpt lat="43.732433030381799" lon="6.372862989082933">
        <ele>880.22000000000003</ele>
        <time>2025-05-18T08:22:48Z</time>
      </trkpt>
      <trkpt lat="43.732522968202829" lon="6.372742038220167">
        <ele>880.71000000000004</ele>
        <time>2025-05-18T08:22:49Z</time>
      </trkpt>
      <trkpt lat="43.732593040913343" lon="6.372590996325016">
        <ele>880.71000000000004</ele>
        <time>2025-05-18T08:22:50Z</time>
      </trkpt>
      <trkpt lat="43.732841983437538" lon="6.372052039951086">
        <ele>882.14999999999998</ele>
        <time>2025-05-18T08:22:53Z</time>
      </trkpt>
      <trkpt lat="43.733760975301266" lon="6.370749995112419">
        <ele>887.42999999999995</ele>
        <time>2025-05-18T08:23:00Z</time>
      </trkpt>
      <trkpt lat="43.734266990795732" lon="6.369888000190258">
        <ele>891.75999999999999</ele>
        <time>2025-05-18T08:23:04Z</time>
      </trkpt>
      <trkpt lat="43.735168967396021" lon="6.367906015366316">
        <ele>899.92999999999995</ele>
        <time>2025-05-18T08:23:13Z</time>
      </trkpt>
      <trkpt lat="43.735258989036083" lon="6.367752961814404">
        <ele>901.37</ele>
        <time>2025-05-18T08:23:14Z</time>
      </trkpt>
      <trkpt lat="43.735416987910867" lon="6.367490021511912">
        <ele>903.77999999999997</ele>
        <time>2025-05-18T08:23:16Z</time>
      </trkpt>
      <trkpt lat="43.735499968752265" lon="6.367349959909916">
        <ele>904.25999999999999</ele>
        <time>2025-05-18T08:23:17Z</time>
      </trkpt>
      <trkpt lat="43.735510027036071" lon="6.367219034582377">
        <ele>904.74000000000001</ele>
        <time>2025-05-18T08:23:18Z</time>
      </trkpt>
      <trkpt lat="43.735521007329226" lon="6.367071010172367">
        <ele>905.22000000000003</ele>
        <time>2025-05-18T08:23:19Z</time>
      </trkpt>
      <trkpt lat="43.735512038692832" lon="6.366956010460854">
        <ele>905.22000000000003</ele>
        <time>2025-05-18T08:23:20Z</time>
      </trkpt>
      <trkpt lat="43.735502986237407" lon="6.366837993264198">
        <ele>905.70000000000005</ele>
        <time>2025-05-18T08:23:21Z</time>
      </trkpt>
      <trkpt lat="43.735494017601013" lon="6.366728022694588">
        <ele>906.17999999999995</ele>
        <time>2025-05-18T08:23:22Z</time>
      </trkpt>
      <trkpt lat="43.735486976802349" lon="6.366644036024809">
        <ele>906.65999999999997</ele>
        <time>2025-05-18T08:23:23Z</time>
      </trkpt>
      <trkpt lat="43.735481025651097" lon="6.366567006334662">
        <ele>907.13999999999999</ele>
        <time>2025-05-18T08:23:24Z</time>
      </trkpt>
      <trkpt lat="43.735389998182654" lon="6.365696964785457">
        <ele>907.62</ele>
        <time>2025-05-18T08:23:34Z</time>
      </trkpt>
      <trkpt lat="43.735350016504526" lon="6.365504013374448">
        <ele>905.70000000000005</ele>
        <time>2025-05-18T08:23:36Z</time>
      </trkpt>
      <trkpt lat="43.735350016504526" lon="6.365504013374448">
        <ele>903.29999999999995</ele>
        <time>2025-05-18T08:23:42Z</time>
      </trkpt>
      <trkpt lat="43.735350016504526" lon="6.365504013374448">
        <ele>903.29999999999995</ele>
        <time>2025-05-18T08:24:10Z</time>
      </trkpt>
      <trkpt lat="43.735350016504526" lon="6.365504013374448">
        <ele>901.37</ele>
        <time>2025-05-18T08:25:06Z</time>
      </trkpt>
      <trkpt lat="43.735366025939584" lon="6.365154990926385">
        <ele>916.75</ele>
        <time>2025-05-18T08:26:24Z</time>
      </trkpt>
      <trkpt lat="43.73533601872623" lon="6.365181980654597">
        <ele>926.85000000000002</ele>
        <time>2025-05-18T08:26:36Z</time>
      </trkpt>
      <trkpt lat="43.735223030671477" lon="6.364545039832592">
        <ele>915.78999999999996</ele>
        <time>2025-05-18T08:26:49Z</time>
      </trkpt>
      <trkpt lat="43.735139966011047" lon="6.364267012104392">
        <ele>907.62</ele>
        <time>2025-05-18T08:26:50Z</time>
      </trkpt>
      <trkpt lat="43.735074000433087" lon="6.364094009622932">
        <ele>908.10000000000002</ele>
        <time>2025-05-18T08:26:51Z</time>
      </trkpt>
      <trkpt lat="43.734941985458136" lon="6.363744987174869">
        <ele>910.99000000000001</ele>
        <time>2025-05-18T08:26:52Z</time>
      </trkpt>
      <trkpt lat="43.734792033210397" lon="6.363572990521789">
        <ele>910.99000000000001</ele>
        <time>2025-05-18T08:26:53Z</time>
      </trkpt>
      <trkpt lat="43.734664963558316" lon="6.36355203576386">
        <ele>914.35000000000002</ele>
        <time>2025-05-18T08:26:54Z</time>
      </trkpt>
      <trkpt lat="43.734539989382029" lon="6.36355203576386">
        <ele>914.83000000000004</ele>
        <time>2025-05-18T08:26:55Z</time>
      </trkpt>
      <trkpt lat="43.734403029084206" lon="6.36355203576386">
        <ele>916.75</ele>
        <time>2025-05-18T08:26:56Z</time>
      </trkpt>
      <trkpt lat="43.733154963701963" lon="6.36364096775651">
        <ele>920.60000000000002</ele>
        <time>2025-05-18T08:27:03Z</time>
      </trkpt>
      <trkpt lat="43.731497023254633" lon="6.364052016288042">
        <ele>915.30999999999995</ele>
        <time>2025-05-18T08:27:12Z</time>
      </trkpt>
      <trkpt lat="43.72964202426374" lon="6.364489970728755">
        <ele>905.70000000000005</ele>
        <time>2025-05-18T08:27:23Z</time>
      </trkpt>
      <trkpt lat="43.728562016040087" lon="6.364553002640605">
        <ele>899.45000000000005</ele>
        <time>2025-05-18T08:27:29Z</time>
      </trkpt>
      <trkpt lat="43.728393036872149" lon="6.364561971276999">
        <ele>898.49000000000001</ele>
        <time>2025-05-18T08:27:30Z</time>
      </trkpt>
      <trkpt lat="43.728250963613391" lon="6.364645035937429">
        <ele>897.52999999999997</ele>
        <time>2025-05-18T08:27:31Z</time>
      </trkpt>
      <trkpt lat="43.728130012750626" lon="6.364720975980163">
        <ele>896.09000000000003</ele>
        <time>2025-05-18T08:27:32Z</time>
      </trkpt>
      <trkpt lat="43.728022975847125" lon="6.364836981520057">
        <ele>895.61000000000001</ele>
        <time>2025-05-18T08:27:33Z</time>
      </trkpt>
      <trkpt lat="43.727810997515917" lon="6.365006966516376">
        <ele>893.20000000000005</ele>
        <time>2025-05-18T08:27:35Z</time>
      </trkpt>
      <trkpt lat="43.72771100141108" lon="6.365032028406858">
        <ele>892.24000000000001</ele>
        <time>2025-05-18T08:27:36Z</time>
      </trkpt>
      <trkpt lat="43.727637995034456" lon="6.36499104090035">
        <ele>891.27999999999997</ele>
        <time>2025-05-18T08:27:37Z</time>
      </trkpt>
      <trkpt lat="43.727545039728284" lon="6.364919962361455">
        <ele>890.32000000000005</ele>
        <time>2025-05-18T08:27:38Z</time>
      </trkpt>
      <trkpt lat="43.727487958967686" lon="6.364770010113716">
        <ele>889.36000000000001</ele>
        <time>2025-05-18T08:27:39Z</time>
      </trkpt>
      <trkpt lat="43.727502962574363" lon="6.36458401568234">
        <ele>888.39999999999998</ele>
        <time>2025-05-18T08:27:40Z</time>
      </trkpt>
      <trkpt lat="43.727546967566013" lon="6.364450994879007">
        <ele>887.90999999999997</ele>
        <time>2025-05-18T08:27:41Z</time>
      </trkpt>
      <trkpt lat="43.727630032226443" lon="6.364311017096043">
        <ele>887.42999999999995</ele>
        <time>2025-05-18T08:27:42Z</time>
      </trkpt>
      <trkpt lat="43.727716030552983" lon="6.364189982414246">
        <ele>886.95000000000005</ele>
        <time>2025-05-18T08:27:43Z</time>
      </trkpt>
      <trkpt lat="43.727807980030775" lon="6.364058973267674">
        <ele>886.47000000000003</ele>
        <time>2025-05-18T08:27:44Z</time>
      </trkpt>
      <trkpt lat="43.728740969672799" lon="6.362744020298123">
        <ele>882.14999999999998</ele>
        <time>2025-05-18T08:27:52Z</time>
      </trkpt>
      <trkpt lat="43.729807985946536" lon="6.361229997128248">
        <ele>875.41999999999996</ele>
        <time>2025-05-18T08:28:00Z</time>
      </trkpt>
      <trkpt lat="43.729909993708134" lon="6.361010977998376">
        <ele>874.46000000000004</ele>
        <time>2025-05-18T08:28:01Z</time>
      </trkpt>
      <trkpt lat="43.730103028938174" lon="6.360320979729295">
        <ele>872.04999999999995</ele>
        <time>2025-05-18T08:28:04Z</time>
      </trkpt>
      <trkpt lat="43.730139993131161" lon="6.360089974477887">
        <ele>871.09000000000003</ele>
        <time>2025-05-18T08:28:05Z</time>
      </trkpt>
      <trkpt lat="43.730286005884409" lon="6.357737006619573">
        <ele>861.48000000000002</ele>
        <time>2025-05-18T08:28:14Z</time>
      </trkpt>
      <trkpt lat="43.730286005884409" lon="6.357543971389532">
        <ele>860.51999999999998</ele>
        <time>2025-05-18T08:28:15Z</time>
      </trkpt>
      <trkpt lat="43.730254992842674" lon="6.35734498500824">
        <ele>859.08000000000004</ele>
        <time>2025-05-18T08:28:16Z</time>
      </trkpt>
      <trkpt lat="43.730226997286081" lon="6.357159996405244">
        <ele>858.11000000000001</ele>
        <time>2025-05-18T08:28:17Z</time>
      </trkpt>
      <trkpt lat="43.730200007557869" lon="6.356985988095403">
        <ele>857.14999999999998</ele>
        <time>2025-05-18T08:28:18Z</time>
      </trkpt>
      <trkpt lat="43.730231020599604" lon="6.35680602863431">
        <ele>856.19000000000005</ele>
        <time>2025-05-18T08:28:19Z</time>
      </trkpt>
      <trkpt lat="43.730262033641338" lon="6.356626991182566">
        <ele>854.75</ele>
        <time>2025-05-18T08:28:20Z</time>
      </trkpt>
      <trkpt lat="43.730303021147847" lon="6.356435967609286">
        <ele>853.78999999999996</ele>
        <time>2025-05-18T08:28:21Z</time>
      </trkpt>
      <trkpt lat="43.730511981993914" lon="6.355779999867082">
        <ele>851.38</ele>
        <time>2025-05-18T08:28:24Z</time>
      </trkpt>
      <trkpt lat="43.731224024668336" lon="6.354266982525587">
        <ele>844.17999999999995</ele>
        <time>2025-05-18T08:28:31Z</time>
      </trkpt>
      <trkpt lat="43.732112003490329" lon="6.353044984862208">
        <ele>836.96000000000004</ele>
        <time>2025-05-18T08:28:38Z</time>
      </trkpt>
      <trkpt lat="43.732248963788152" lon="6.352900983765721">
        <ele>836.48000000000002</ele>
        <time>2025-05-18T08:28:39Z</time>
      </trkpt>
      <trkpt lat="43.732387013733387" lon="6.35279000736773">
        <ele>835.51999999999998</ele>
        <time>2025-05-18T08:28:40Z</time>
      </trkpt>
      <trkpt lat="43.732546018436551" lon="6.352708032354713">
        <ele>834.55999999999995</ele>
        <time>2025-05-18T08:28:41Z</time>
      </trkpt>
      <trkpt lat="43.732712985947728" lon="6.352621028199792">
        <ele>834.08000000000004</ele>
        <time>2025-05-18T08:28:42Z</time>
      </trkpt>
      <trkpt lat="43.732880959287286" lon="6.352534024044871">
        <ele>833.12</ele>
        <time>2025-05-18T08:28:43Z</time>
      </trkpt>
      <trkpt lat="43.733043987303972" lon="6.352417012676597">
        <ele>832.15999999999997</ele>
        <time>2025-05-18T08:28:44Z</time>
      </trkpt>
      <trkpt lat="43.73469497077167" lon="6.351183028891683">
        <ele>824.95000000000005</ele>
        <time>2025-05-18T08:28:54Z</time>
      </trkpt>
      <trkpt lat="43.734966963529587" lon="6.350980019196868">
        <ele>823.99000000000001</ele>
        <time>2025-05-18T08:28:56Z</time>
      </trkpt>
      <trkpt lat="43.735087998211384" lon="6.350874993950129">
        <ele>823.02999999999997</ele>
        <time>2025-05-18T08:28:57Z</time>
      </trkpt>
      <trkpt lat="43.735241973772645" lon="6.350720012560487">
        <ele>822.54999999999995</ele>
        <time>2025-05-18T08:28:58Z</time>
      </trkpt>
      <trkpt lat="43.735978994518518" lon="6.349359964951873">
        <ele>817.74000000000001</ele>
        <time>2025-05-18T08:29:05Z</time>
      </trkpt>
      <trkpt lat="43.736169012263417" lon="6.349009014666081">
        <ele>816.29999999999995</ele>
        <time>2025-05-18T08:29:07Z</time>
      </trkpt>
      <trkpt lat="43.736245036125183" lon="6.348832994699478">
        <ele>815.82000000000005</ele>
        <time>2025-05-18T08:29:08Z</time>
      </trkpt>
      <trkpt lat="43.736289963126183" lon="6.348640965297818">
        <ele>815.34000000000003</ele>
        <time>2025-05-18T08:29:09Z</time>
      </trkpt>
      <trkpt lat="43.736337991431355" lon="6.348440973088145">
        <ele>814.85000000000002</ele>
        <time>2025-05-18T08:29:10Z</time>
      </trkpt>
      <trkpt lat="43.736385013908148" lon="6.348245004191995">
        <ele>813.88999999999999</ele>
        <time>2025-05-18T08:29:11Z</time>
      </trkpt>
      <trkpt lat="43.736484004184604" lon="6.347874021157622">
        <ele>811.97000000000003</ele>
        <time>2025-05-18T08:29:13Z</time>
      </trkpt>
      <trkpt lat="43.736562039703131" lon="6.347724990919232">
        <ele>811.00999999999999</ele>
        <time>2025-05-18T08:29:14Z</time>
      </trkpt>
      <trkpt lat="43.736691037192941" lon="6.347454003989697">
        <ele>809.09000000000003</ele>
        <time>2025-05-18T08:29:16Z</time>
      </trkpt>
      <trkpt lat="43.736723978072405" lon="6.347302962094545">
        <ele>808.61000000000001</ele>
        <time>2025-05-18T08:29:17Z</time>
      </trkpt>
      <trkpt lat="43.736877031624317" lon="6.346670966595411">
        <ele>804.75999999999999</ele>
        <time>2025-05-18T08:29:21Z</time>
      </trkpt>
      <trkpt lat="43.736924976110458" lon="6.34655999019742">
        <ele>803.79999999999995</ele>
        <time>2025-05-18T08:29:22Z</time>
      </trkpt>
      <trkpt lat="43.737097978591919" lon="6.346161011606455">
        <ele>800.44000000000005</ele>
        <time>2025-05-18T08:29:29Z</time>
      </trkpt>
      <trkpt lat="43.737125974148512" lon="6.346026984974742">
        <ele>798.02999999999997</ele>
        <time>2025-05-18T08:29:34Z</time>
      </trkpt>
      <trkpt lat="43.737124968320131" lon="6.346005024388433">
        <ele>797.54999999999995</ele>
        <time>2025-05-18T08:29:35Z</time>
      </trkpt>
      <trkpt lat="43.737122034654021" lon="6.34597803466022">
        <ele>797.54999999999995</ele>
        <time>2025-05-18T08:29:36Z</time>
      </trkpt>
      <trkpt lat="43.73711901716888" lon="6.345927994698286">
        <ele>797.07000000000005</ele>
        <time>2025-05-18T08:29:37Z</time>
      </trkpt>
      <trkpt lat="43.737112982198596" lon="6.345859011635184">
        <ele>796.59000000000003</ele>
        <time>2025-05-18T08:29:38Z</time>
      </trkpt>
      <trkpt lat="43.737107031047344" lon="6.345772007480264">
        <ele>796.11000000000001</ele>
        <time>2025-05-18T08:29:39Z</time>
      </trkpt>
      <trkpt lat="43.7370989844203" lon="6.345671005547047">
        <ele>795.14999999999998</ele>
        <time>2025-05-18T08:29:40Z</time>
      </trkpt>
      <trkpt lat="43.737090015783906" lon="6.345557011663914">
        <ele>794.66999999999996</ele>
        <time>2025-05-18T08:29:41Z</time>
      </trkpt>
      <trkpt lat="43.737108036875725" lon="6.345427008345723">
        <ele>794.19000000000005</ele>
        <time>2025-05-18T08:29:42Z</time>
      </trkpt>
      <trkpt lat="43.737148018553853" lon="6.345294993370771">
        <ele>793.71000000000004</ele>
        <time>2025-05-18T08:29:43Z</time>
      </trkpt>
      <trkpt lat="43.73722898773849" lon="6.34520698338747">
        <ele>793.22000000000003</ele>
        <time>2025-05-18T08:29:44Z</time>
      </trkpt>
      <trkpt lat="43.737322026863694" lon="6.345105981454253">
        <ele>792.25999999999999</ele>
        <time>2025-05-18T08:29:45Z</time>
      </trkpt>
      <trkpt lat="43.737422022968531" lon="6.344998022541404">
        <ele>791.77999999999997</ele>
        <time>2025-05-18T08:29:46Z</time>
      </trkpt>
      <trkpt lat="43.737715976312757" lon="6.344643970951438">
        <ele>789.86000000000001</ele>
        <time>2025-05-18T08:29:49Z</time>
      </trkpt>
      <trkpt lat="43.737796023488045" lon="6.344497036188841">
        <ele>789.38</ele>
        <time>2025-05-18T08:29:50Z</time>
      </trkpt>
      <trkpt lat="43.737838016822934" lon="6.344354040920734">
        <ele>788.41999999999996</ele>
        <time>2025-05-18T08:29:51Z</time>
      </trkpt>
      <trkpt lat="43.737887972965837" lon="6.344180032610893">
        <ele>787.94000000000005</ele>
        <time>2025-05-18T08:29:52Z</time>
      </trkpt>
      <trkpt lat="43.737945975735784" lon="6.34398196823895">
        <ele>787.46000000000004</ele>
        <time>2025-05-18T08:29:53Z</time>
      </trkpt>
      <trkpt lat="43.738027028739452" lon="6.34383000433445">
        <ele>787.46000000000004</ele>
        <time>2025-05-18T08:29:54Z</time>
      </trkpt>
      <trkpt lat="43.738116966560483" lon="6.343663958832622">
        <ele>787.46000000000004</ele>
        <time>2025-05-18T08:29:55Z</time>
      </trkpt>
      <trkpt lat="43.738575037568808" lon="6.342807998880744">
        <ele>790.34000000000003</ele>
        <time>2025-05-18T08:30:00Z</time>
      </trkpt>
      <trkpt lat="43.738632034510374" lon="6.342593003064394">
        <ele>790.82000000000005</ele>
        <time>2025-05-18T08:30:01Z</time>
      </trkpt>
      <trkpt lat="43.738803025335073" lon="6.341958995908499">
        <ele>793.71000000000004</ele>
        <time>2025-05-18T08:30:04Z</time>
      </trkpt>
      <trkpt lat="43.738878965377808" lon="6.341753974556923">
        <ele>794.19000000000005</ele>
        <time>2025-05-18T08:30:05Z</time>
      </trkpt>
      <trkpt lat="43.739154981449246" lon="6.341242007911205">
        <ele>796.59000000000003</ele>
        <time>2025-05-18T08:30:08Z</time>
      </trkpt>
      <trkpt lat="43.739234022796154" lon="6.341097000986338">
        <ele>797.54999999999995</ele>
        <time>2025-05-18T08:30:09Z</time>
      </trkpt>
      <trkpt lat="43.739297976717353" lon="6.340977977961302">
        <ele>798.02999999999997</ele>
        <time>2025-05-18T08:30:10Z</time>
      </trkpt>
      <trkpt lat="43.739424962550402" lon="6.340927015990019">
        <ele>798.50999999999999</ele>
        <time>2025-05-18T08:30:11Z</time>
      </trkpt>
      <trkpt lat="43.739547003060579" lon="6.340878987684846">
        <ele>798.50999999999999</ele>
        <time>2025-05-18T08:30:12Z</time>
      </trkpt>
      <trkpt lat="43.739673988893628" lon="6.340851997956634">
        <ele>798.99000000000001</ele>
        <time>2025-05-18T08:30:13Z</time>
      </trkpt>
      <trkpt lat="43.739811033010483" lon="6.340859038755298">
        <ele>799.47000000000003</ele>
        <time>2025-05-18T08:30:14Z</time>
      </trkpt>
      <trkpt lat="43.739954028278589" lon="6.340867001563311">
        <ele>799.47000000000003</ele>
        <time>2025-05-18T08:30:15Z</time>
      </trkpt>
      <trkpt lat="43.741250960156322" lon="6.340934978798032">
        <ele>801.39999999999998</ele>
        <time>2025-05-18T08:30:24Z</time>
      </trkpt>
      <trkpt lat="43.741363026201725" lon="6.340891979634762">
        <ele>801.39999999999998</ele>
        <time>2025-05-18T08:30:25Z</time>
      </trkpt>
      <trkpt lat="43.74148397706449" lon="6.340845040977001">
        <ele>800.91999999999996</ele>
        <time>2025-05-18T08:30:26Z</time>
      </trkpt>
      <trkpt lat="43.74159000813961" lon="6.340756025165319">
        <ele>800.91999999999996</ele>
        <time>2025-05-18T08:30:27Z</time>
      </trkpt>
      <trkpt lat="43.74167600646615" lon="6.340652005746961">
        <ele>800.44000000000005</ele>
        <time>2025-05-18T08:30:28Z</time>
      </trkpt>
      <trkpt lat="43.741748007014394" lon="6.340555027127266">
        <ele>799.95000000000005</ele>
        <time>2025-05-18T08:30:29Z</time>
      </trkpt>
      <trkpt lat="43.741779020056129" lon="6.340431980788708">
        <ele>799.47000000000003</ele>
        <time>2025-05-18T08:30:30Z</time>
      </trkpt>
      <trkpt lat="43.741773990914226" lon="6.340302983298898">
        <ele>798.50999999999999</ele>
        <time>2025-05-18T08:30:31Z</time>
      </trkpt>
      <trkpt lat="43.741753958165646" lon="6.340153031051159">
        <ele>798.02999999999997</ele>
        <time>2025-05-18T08:30:32Z</time>
      </trkpt>
      <trkpt lat="43.741709031164646" lon="6.339995032176375">
        <ele>798.02999999999997</ele>
        <time>2025-05-18T08:30:33Z</time>
      </trkpt>
      <trkpt lat="43.741641975939274" lon="6.339841978624463">
        <ele>798.02999999999997</ele>
        <time>2025-05-18T08:30:34Z</time>
      </trkpt>
      <trkpt lat="43.741571987047791" lon="6.339680040255189">
        <ele>798.50999999999999</ele>
        <time>2025-05-18T08:30:35Z</time>
      </trkpt>
      <trkpt lat="43.741499986499548" lon="6.339516006410122">
        <ele>798.99000000000001</ele>
        <time>2025-05-18T08:30:36Z</time>
      </trkpt>
      <trkpt lat="43.741427985951304" lon="6.339349960908294">
        <ele>798.99000000000001</ele>
        <time>2025-05-18T08:30:37Z</time>
      </trkpt>
      <trkpt lat="43.741356991231441" lon="6.339186010882258">
        <ele>799.95000000000005</ele>
        <time>2025-05-18T08:30:38Z</time>
      </trkpt>
      <trkpt lat="43.74131198041141" lon="6.339006973430514">
        <ele>800.44000000000005</ele>
        <time>2025-05-18T08:30:39Z</time>
      </trkpt>
      <trkpt lat="43.741305023431778" lon="6.338832965120673">
        <ele>800.91999999999996</ele>
        <time>2025-05-18T08:30:40Z</time>
      </trkpt>
      <trkpt lat="43.741297982633114" lon="6.338664991781116">
        <ele>801.39999999999998</ele>
        <time>2025-05-18T08:30:41Z</time>
      </trkpt>
      <trkpt lat="43.741325978189707" lon="6.338472040370107">
        <ele>801.88</ele>
        <time>2025-05-18T08:30:42Z</time>
      </trkpt>
      <trkpt lat="43.74139797873795" lon="6.338307000696659">
        <ele>802.84000000000003</ele>
        <time>2025-05-18T08:30:43Z</time>
      </trkpt>
      <trkpt lat="43.741488000378013" lon="6.338149001821876">
        <ele>803.32000000000005</ele>
        <time>2025-05-18T08:30:44Z</time>
      </trkpt>
      <trkpt lat="43.741585984826088" lon="6.337977005168796">
        <ele>804.27999999999997</ele>
        <time>2025-05-18T08:30:45Z</time>
      </trkpt>
      <trkpt lat="43.741798968985677" lon="6.337604010477662">
        <ele>806.67999999999995</ele>
        <time>2025-05-18T08:30:47Z</time>
      </trkpt>
      <trkpt lat="43.741881027817726" lon="6.33738499134779">
        <ele>807.63999999999999</ele>
        <time>2025-05-18T08:30:48Z</time>
      </trkpt>
      <trkpt lat="43.74208596535027" lon="6.336704967543483">
        <ele>811.49000000000001</ele>
        <time>2025-05-18T08:30:51Z</time>
      </trkpt>
      <trkpt lat="43.742129970341921" lon="6.336470022797585">
        <ele>812.45000000000005</ele>
        <time>2025-05-18T08:30:52Z</time>
      </trkpt>
      <trkpt lat="43.74217196367681" lon="6.336244968697429">
        <ele>813.88999999999999</ele>
        <time>2025-05-18T08:30:53Z</time>
      </trkpt>
      <trkpt lat="43.742703041061759" lon="6.334479991346598">
        <ele>823.50999999999999</ele>
        <time>2025-05-18T08:31:01Z</time>
      </trkpt>
      <trkpt lat="43.742980984970927" lon="6.333599975332618">
        <ele>828.78999999999996</ele>
        <time>2025-05-18T08:31:05Z</time>
      </trkpt>
      <trkpt lat="43.7430290132761" lon="6.333369975909591">
        <ele>829.75999999999999</ele>
        <time>2025-05-18T08:31:06Z</time>
      </trkpt>
      <trkpt lat="43.743130015209317" lon="6.332886004820466">
        <ele>832.15999999999997</ele>
        <time>2025-05-18T08:31:08Z</time>
      </trkpt>
      <trkpt lat="43.743192041292787" lon="6.332647036761046">
        <ele>833.12</ele>
        <time>2025-05-18T08:31:09Z</time>
      </trkpt>
      <trkpt lat="43.743493035435677" lon="6.331721004098654">
        <ele>836.96000000000004</ele>
        <time>2025-05-18T08:31:13Z</time>
      </trkpt>
      <trkpt lat="43.74354399740696" lon="6.331512965261936">
        <ele>837.45000000000005</ele>
        <time>2025-05-18T08:31:14Z</time>
      </trkpt>
      <trkpt lat="43.743592025712132" lon="6.331315990537405">
        <ele>838.40999999999997</ele>
        <time>2025-05-18T08:31:15Z</time>
      </trkpt>
      <trkpt lat="43.743655979633331" lon="6.331146005541086">
        <ele>838.88999999999999</ele>
        <time>2025-05-18T08:31:16Z</time>
      </trkpt>
      <trkpt lat="43.743733009323478" lon="6.330993035808206">
        <ele>839.37</ele>
        <time>2025-05-18T08:31:17Z</time>
      </trkpt>
      <trkpt lat="43.743806015700102" lon="6.330847023054957">
        <ele>839.85000000000002</ele>
        <time>2025-05-18T08:31:18Z</time>
      </trkpt>
      <trkpt lat="43.743847003206611" lon="6.330710984766483">
        <ele>840.33000000000004</ele>
        <time>2025-05-18T08:31:19Z</time>
      </trkpt>
      <trkpt lat="43.743847003206611" lon="6.33057695813477">
        <ele>840.33000000000004</ele>
        <time>2025-05-18T08:31:20Z</time>
      </trkpt>
      <trkpt lat="43.743847003206611" lon="6.33044502697885">
        <ele>840.80999999999995</ele>
        <time>2025-05-18T08:31:21Z</time>
      </trkpt>
      <trkpt lat="43.743877010419965" lon="6.330327009782195">
        <ele>840.80999999999995</ele>
        <time>2025-05-18T08:31:22Z</time>
      </trkpt>
      <trkpt lat="43.743939958512783" lon="6.330219972878695">
        <ele>840.80999999999995</ele>
        <time>2025-05-18T08:31:23Z</time>
      </trkpt>
      <trkpt lat="43.744010031223297" lon="6.33010103367269">
        <ele>840.80999999999995</ele>
        <time>2025-05-18T08:31:24Z</time>
      </trkpt>
      <trkpt lat="43.744072979316115" lon="6.329958038404584">
        <ele>840.80999999999995</ele>
        <time>2025-05-18T08:31:25Z</time>
      </trkpt>
      <trkpt lat="43.744112960994244" lon="6.329776989296079">
        <ele>840.80999999999995</ele>
        <time>2025-05-18T08:31:26Z</time>
      </trkpt>
      <trkpt lat="43.744154032319784" lon="6.329588983207941">
        <ele>840.33000000000004</ele>
        <time>2025-05-18T08:31:27Z</time>
      </trkpt>
      <trkpt lat="43.744169035926461" lon="6.329412963241339">
        <ele>840.33000000000004</ele>
        <time>2025-05-18T08:31:28Z</time>
      </trkpt>
      <trkpt lat="43.744155960157514" lon="6.329267034307122">
        <ele>840.33000000000004</ele>
        <time>2025-05-18T08:31:29Z</time>
      </trkpt>
      <trkpt lat="43.744110027328134" lon="6.329129990190268">
        <ele>839.85000000000002</ele>
        <time>2025-05-18T08:31:30Z</time>
      </trkpt>
      <trkpt lat="43.744059987366199" lon="6.328979032114148">
        <ele>839.85000000000002</ele>
        <time>2025-05-18T08:31:31Z</time>
      </trkpt>
      <trkpt lat="43.744008019566536" lon="6.328821033239365">
        <ele>839.37</ele>
        <time>2025-05-18T08:31:32Z</time>
      </trkpt>
      <trkpt lat="43.744007013738155" lon="6.32870402187109">
        <ele>839.37</ele>
        <time>2025-05-18T08:31:33Z</time>
      </trkpt>
      <trkpt lat="43.744018999859691" lon="6.328596984967589">
        <ele>838.88999999999999</ele>
        <time>2025-05-18T08:31:34Z</time>
      </trkpt>
      <trkpt lat="43.74408102594316" lon="6.32851199246943">
        <ele>838.40999999999997</ele>
        <time>2025-05-18T08:31:35Z</time>
      </trkpt>
      <trkpt lat="43.744152020663023" lon="6.328413002192974">
        <ele>838.40999999999997</ele>
        <time>2025-05-18T08:31:36Z</time>
      </trkpt>
      <trkpt lat="43.744213040918112" lon="6.328248968347907">
        <ele>838.40999999999997</ele>
        <time>2025-05-18T08:31:37Z</time>
      </trkpt>
      <trkpt lat="43.744215974584222" lon="6.328069008886814">
        <ele>838.40999999999997</ele>
        <time>2025-05-18T08:31:38Z</time>
      </trkpt>
      <trkpt lat="43.744184039533138" lon="6.327926013618708">
        <ele>838.40999999999997</ele>
        <time>2025-05-18T08:31:39Z</time>
      </trkpt>
      <trkpt lat="43.744150009006262" lon="6.327772960066795">
        <ele>838.40999999999997</ele>
        <time>2025-05-18T08:31:40Z</time>
      </trkpt>
      <trkpt lat="43.744116984307766" lon="6.327624013647437">
        <ele>838.88999999999999</ele>
        <time>2025-05-18T08:31:41Z</time>
      </trkpt>
      <trkpt lat="43.744100974872708" lon="6.327503984794021">
        <ele>838.88999999999999</ele>
        <time>2025-05-18T08:31:42Z</time>
      </trkpt>
      <trkpt lat="43.744095023721457" lon="6.327379010617733">
        <ele>839.37</ele>
        <time>2025-05-18T08:31:43Z</time>
      </trkpt>
      <trkpt lat="43.744087982922792" lon="6.327249007299542">
        <ele>839.85000000000002</ele>
        <time>2025-05-18T08:31:44Z</time>
      </trkpt>
      <trkpt lat="43.74408102594316" lon="6.327110035344958">
        <ele>839.85000000000002</ele>
        <time>2025-05-18T08:31:45Z</time>
      </trkpt>
      <trkpt lat="43.744072979316115" lon="6.326958993449807">
        <ele>839.85000000000002</ele>
        <time>2025-05-18T08:31:46Z</time>
      </trkpt>
      <trkpt lat="43.744065016508102" lon="6.326806023716927">
        <ele>839.85000000000002</ele>
        <time>2025-05-18T08:31:47Z</time>
      </trkpt>
      <trkpt lat="43.744070967659354" lon="6.326682977378368">
        <ele>839.85000000000002</ele>
        <time>2025-05-18T08:31:48Z</time>
      </trkpt>
      <trkpt lat="43.744111033156514" lon="6.326591027900577">
        <ele>839.37</ele>
        <time>2025-05-18T08:31:49Z</time>
      </trkpt>
      <trkpt lat="43.744186973199248" lon="6.326505029574037">
        <ele>839.37</ele>
        <time>2025-05-18T08:31:50Z</time>
      </trkpt>
      <trkpt lat="43.744271965697408" lon="6.326408972963691">
        <ele>839.37</ele>
        <time>2025-05-18T08:31:51Z</time>
      </trkpt>
      <trkpt lat="43.744362993165851" lon="6.326305037364364">
        <ele>838.88999999999999</ele>
        <time>2025-05-18T08:31:52Z</time>
      </trkpt>
      <trkpt lat="43.744440022855997" lon="6.326145026832819">
        <ele>838.88999999999999</ele>
        <time>2025-05-18T08:31:53Z</time>
      </trkpt>
      <trkpt lat="43.744495008140802" lon="6.325970012694597">
        <ele>838.40999999999997</ele>
        <time>2025-05-18T08:31:54Z</time>
      </trkpt>
      <trkpt lat="43.744550999253988" lon="6.325787035748363">
        <ele>838.40999999999997</ele>
        <time>2025-05-18T08:31:55Z</time>
      </trkpt>
      <trkpt lat="43.744658036157489" lon="6.325444970279932">
        <ele>837.45000000000005</ele>
        <time>2025-05-18T08:31:57Z</time>
      </trkpt>
      <trkpt lat="43.744702041149139" lon="6.325301975011826">
        <ele>836.96000000000004</ele>
        <time>2025-05-18T08:31:58Z</time>
      </trkpt>
      <trkpt lat="43.744704974815249" lon="6.325142970308662">
        <ele>836.96000000000004</ele>
        <time>2025-05-18T08:31:59Z</time>
      </trkpt>
      <trkpt lat="43.744671028107405" lon="6.325010033324361">
        <ele>836.96000000000004</ele>
        <time>2025-05-18T08:32:00Z</time>
      </trkpt>
      <trkpt lat="43.744627023115754" lon="6.324896039441228">
        <ele>836.96000000000004</ele>
        <time>2025-05-18T08:32:01Z</time>
      </trkpt>
      <trkpt lat="43.744577988982201" lon="6.324769975617528">
        <ele>836.96000000000004</ele>
        <time>2025-05-18T08:32:02Z</time>
      </trkpt>
      <trkpt lat="43.74449098482728" lon="6.324541987851262">
        <ele>836.96000000000004</ele>
        <time>2025-05-18T08:32:04Z</time>
      </trkpt>
      <trkpt lat="43.744474975392222" lon="6.324401004239917">
        <ele>836.48000000000002</ele>
        <time>2025-05-18T08:32:05Z</time>
      </trkpt>
      <trkpt lat="43.744484027847648" lon="6.324305031448603">
        <ele>836.48000000000002</ele>
        <time>2025-05-18T08:32:06Z</time>
      </trkpt>
      <trkpt lat="43.744530966505408" lon="6.324167987331748">
        <ele>836.48000000000002</ele>
        <time>2025-05-18T08:32:07Z</time>
      </trkpt>
      <trkpt lat="43.744581006467342" lon="6.3240219745785">
        <ele>836</ele>
        <time>2025-05-18T08:32:08Z</time>
      </trkpt>
      <trkpt lat="43.744630962610245" lon="6.323875961825252">
        <ele>836</ele>
        <time>2025-05-18T08:32:09Z</time>
      </trkpt>
      <trkpt lat="43.744716038927436" lon="6.323628025129437">
        <ele>835.51999999999998</ele>
        <time>2025-05-18T08:32:11Z</time>
      </trkpt>
      <trkpt lat="43.744780998677015" lon="6.323552001267672">
        <ele>835.51999999999998</ele>
        <time>2025-05-18T08:32:12Z</time>
      </trkpt>
      <trkpt lat="43.744878983125091" lon="6.323486035689712">
        <ele>835.03999999999996</ele>
        <time>2025-05-18T08:32:13Z</time>
      </trkpt>
      <trkpt lat="43.744998006150126" lon="6.323461979627609">
        <ele>835.03999999999996</ele>
        <time>2025-05-18T08:32:14Z</time>
      </trkpt>
      <trkpt lat="43.745128009468317" lon="6.323457034304738">
        <ele>835.03999999999996</ele>
        <time>2025-05-18T08:32:15Z</time>
      </trkpt>
      <trkpt lat="43.745271004736423" lon="6.323482012376189">
        <ele>835.03999999999996</ele>
        <time>2025-05-18T08:32:16Z</time>
      </trkpt>
      <trkpt lat="43.745425986126065" lon="6.323507996276021">
        <ele>835.51999999999998</ele>
        <time>2025-05-18T08:32:17Z</time>
      </trkpt>
      <trkpt lat="43.745869975537062" lon="6.323564993217588">
        <ele>836</ele>
        <time>2025-05-18T08:32:20Z</time>
      </trkpt>
      <trkpt lat="43.746012970805168" lon="6.323531968519092">
        <ele>836</ele>
        <time>2025-05-18T08:32:21Z</time>
      </trkpt>
      <trkpt lat="43.746537007391453" lon="6.323413029313088">
        <ele>837.45000000000005</ele>
        <time>2025-05-18T08:32:25Z</time>
      </trkpt>
      <trkpt lat="43.746610013768077" lon="6.32335402071476">
        <ele>837.92999999999995</ele>
        <time>2025-05-18T08:32:26Z</time>
      </trkpt>
      <trkpt lat="43.746668016538024" lon="6.323276991024613">
        <ele>838.40999999999997</ele>
        <time>2025-05-18T08:32:27Z</time>
      </trkpt>
      <trkpt lat="43.746702969074249" lon="6.323193004354835">
        <ele>838.40999999999997</ele>
        <time>2025-05-18T08:32:28Z</time>
      </trkpt>
      <trkpt lat="43.746710009872913" lon="6.323067024350166">
        <ele>838.88999999999999</ele>
        <time>2025-05-18T08:32:29Z</time>
      </trkpt>
      <trkpt lat="43.746716966852546" lon="6.322942972183228">
        <ele>839.37</ele>
        <time>2025-05-18T08:32:30Z</time>
      </trkpt>
      <trkpt lat="43.746721995994449" lon="6.322845993563533">
        <ele>839.37</ele>
        <time>2025-05-18T08:32:31Z</time>
      </trkpt>
      <trkpt lat="43.746778992936015" lon="6.322767036035657">
        <ele>839.85000000000002</ele>
        <time>2025-05-18T08:32:32Z</time>
      </trkpt>
      <trkpt lat="43.746820986270905" lon="6.322708027437329">
        <ele>839.85000000000002</ele>
        <time>2025-05-18T08:32:33Z</time>
      </trkpt>
      <trkpt lat="43.74687697738409" lon="6.322693023830652">
        <ele>839.85000000000002</ele>
        <time>2025-05-18T08:32:34Z</time>
      </trkpt>
      <trkpt lat="43.746970016509295" lon="6.322686988860369">
        <ele>839.85000000000002</ele>
        <time>2025-05-18T08:32:35Z</time>
      </trkpt>
      <trkpt lat="43.747081998735666" lon="6.322680031880736">
        <ele>839.85000000000002</ele>
        <time>2025-05-18T08:32:36Z</time>
      </trkpt>
      <trkpt lat="43.747204039245844" lon="6.322696963325143">
        <ele>839.85000000000002</ele>
        <time>2025-05-18T08:32:37Z</time>
      </trkpt>
      <trkpt lat="43.747322978451848" lon="6.322747003287077">
        <ele>839.85000000000002</ele>
        <time>2025-05-18T08:32:38Z</time>
      </trkpt>
      <trkpt lat="43.747510984539986" lon="6.322825960814953">
        <ele>839.37</ele>
        <time>2025-05-18T08:32:40Z</time>
      </trkpt>
      <trkpt lat="43.747576028108597" lon="6.322825960814953">
        <ele>839.37</ele>
        <time>2025-05-18T08:32:41Z</time>
      </trkpt>
      <trkpt lat="43.747635036706924" lon="6.322753960266709">
        <ele>838.88999999999999</ele>
        <time>2025-05-18T08:32:42Z</time>
      </trkpt>
      <trkpt lat="43.747699996456504" lon="6.322673996910453">
        <ele>838.40999999999997</ele>
        <time>2025-05-18T08:32:43Z</time>
      </trkpt>
      <trkpt lat="43.747781971469522" lon="6.322593027725816">
        <ele>838.40999999999997</ele>
        <time>2025-05-18T08:32:44Z</time>
      </trkpt>
      <trkpt lat="43.747868975624442" lon="6.322541981935501">
        <ele>837.92999999999995</ele>
        <time>2025-05-18T08:32:45Z</time>
      </trkpt>
      <trkpt lat="43.747955979779363" lon="6.322492025792599">
        <ele>837.45000000000005</ele>
        <time>2025-05-18T08:32:46Z</time>
      </trkpt>
      <trkpt lat="43.748036026954651" lon="6.322432011365891">
        <ele>836.96000000000004</ele>
        <time>2025-05-18T08:32:47Z</time>
      </trkpt>
      <trkpt lat="43.748115990310907" lon="6.32234500721097">
        <ele>836.48000000000002</ele>
        <time>2025-05-18T08:32:48Z</time>
      </trkpt>
      <trkpt lat="43.748204000294209" lon="6.322250040248036">
        <ele>836</ele>
        <time>2025-05-18T08:32:49Z</time>
      </trkpt>
      <trkpt lat="43.748306008055806" lon="6.322155995294452">
        <ele>835.51999999999998</ele>
        <time>2025-05-18T08:32:50Z</time>
      </trkpt>
      <trkpt lat="43.748424025252461" lon="6.322078965604305">
        <ele>835.03999999999996</ele>
        <time>2025-05-18T08:32:51Z</time>
      </trkpt>
      <trkpt lat="43.748545981943607" lon="6.321999002248049">
        <ele>834.55999999999995</ele>
        <time>2025-05-18T08:32:52Z</time>
      </trkpt>
      <trkpt lat="43.748888969421387" lon="6.321774031966925">
        <ele>832.15999999999997</ele>
        <time>2025-05-18T08:32:55Z</time>
      </trkpt>
      <trkpt lat="43.7490229960531" lon="6.321756010875106">
        <ele>831.67999999999995</ele>
        <time>2025-05-18T08:32:56Z</time>
      </trkpt>
      <trkpt lat="43.749122992157936" lon="6.32174301892519">
        <ele>830.72000000000003</ele>
        <time>2025-05-18T08:32:57Z</time>
      </trkpt>
      <trkpt lat="43.749217037111521" lon="6.321729021146894">
        <ele>829.75999999999999</ele>
        <time>2025-05-18T08:32:58Z</time>
      </trkpt>
      <trkpt lat="43.749312004074454" lon="6.321692978963256">
        <ele>829.26999999999998</ele>
        <time>2025-05-18T08:32:59Z</time>
      </trkpt>
      <trkpt lat="43.749404959380627" lon="6.321658026427031">
        <ele>828.78999999999996</ele>
        <time>2025-05-18T08:33:00Z</time>
      </trkpt>
      <trkpt lat="43.749553989619017" lon="6.321602035313845">
        <ele>827.83000000000004</ele>
        <time>2025-05-18T08:33:02Z</time>
      </trkpt>
      <trkpt lat="43.749579973518848" lon="6.321532968431711">
        <ele>827.83000000000004</ele>
        <time>2025-05-18T08:33:03Z</time>
      </trkpt>
      <trkpt lat="43.749619033187628" lon="6.321430038660765">
        <ele>827.35000000000002</ele>
        <time>2025-05-18T08:33:04Z</time>
      </trkpt>
      <trkpt lat="43.749619033187628" lon="6.321383016183972">
        <ele>827.35000000000002</ele>
        <time>2025-05-18T08:33:05Z</time>
      </trkpt>
      <trkpt lat="43.749619033187628" lon="6.321278996765614">
        <ele>826.87</ele>
        <time>2025-05-18T08:33:06Z</time>
      </trkpt>
      <trkpt lat="43.749619033187628" lon="6.321171037852764">
        <ele>826.38999999999999</ele>
        <time>2025-05-18T08:33:07Z</time>
      </trkpt>
      <trkpt lat="43.749619033187628" lon="6.321129966527224">
        <ele>825.90999999999997</ele>
        <time>2025-05-18T08:33:08Z</time>
      </trkpt>
      <trkpt lat="43.749678041785955" lon="6.321051008999348">
        <ele>825.42999999999995</ele>
        <time>2025-05-18T08:33:09Z</time>
      </trkpt>
      <trkpt lat="43.749709976837039" lon="6.321009015664458">
        <ele>824.95000000000005</ele>
        <time>2025-05-18T08:33:10Z</time>
      </trkpt>
      <trkpt lat="43.749740989878774" lon="6.320967022329569">
        <ele>824.47000000000003</ele>
        <time>2025-05-18T08:33:11Z</time>
      </trkpt>
      <trkpt lat="43.749761022627354" lon="6.320960987359285">
        <ele>823.99000000000001</ele>
        <time>2025-05-18T08:33:12Z</time>
      </trkpt>
      <trkpt lat="43.74981801956892" lon="6.320973979309201">
        <ele>823.99000000000001</ele>
        <time>2025-05-18T08:33:13Z</time>
      </trkpt>
      <trkpt lat="43.749950034543872" lon="6.321003986522555">
        <ele>823.50999999999999</ele>
        <time>2025-05-18T08:33:15Z</time>
      </trkpt>
      <trkpt lat="43.750363010913134" lon="6.321199033409357">
        <ele>822.54999999999995</ele>
        <time>2025-05-18T08:33:22Z</time>
      </trkpt>
      <trkpt lat="43.750554034486413" lon="6.321377987042069">
        <ele>822.05999999999995</ele>
        <time>2025-05-18T08:33:30Z</time>
      </trkpt>
      <trkpt lat="43.750588987022638" lon="6.321398019790649">
        <ele>822.54999999999995</ele>
        <time>2025-05-18T08:33:36Z</time>
      </trkpt>
      <trkpt lat="43.750772969797254" lon="6.321436995640397">
        <ele>823.50999999999999</ele>
        <time>2025-05-18T08:33:40Z</time>
      </trkpt>
      <trkpt lat="43.750836001709104" lon="6.321420986205339">
        <ele>823.99000000000001</ele>
        <time>2025-05-18T08:33:41Z</time>
      </trkpt>
      <trkpt lat="43.750908002257347" lon="6.321402965113521">
        <ele>823.99000000000001</ele>
        <time>2025-05-18T08:33:42Z</time>
      </trkpt>
      <trkpt lat="43.750982014462352" lon="6.321370024234057">
        <ele>824.47000000000003</ele>
        <time>2025-05-18T08:33:43Z</time>
      </trkpt>
      <trkpt lat="43.751038005575538" lon="6.321282014250755">
        <ele>824.95000000000005</ele>
        <time>2025-05-18T08:33:44Z</time>
      </trkpt>
      <trkpt lat="43.751098020002246" lon="6.321187969297171">
        <ele>825.42999999999995</ele>
        <time>2025-05-18T08:33:45Z</time>
      </trkpt>
      <trkpt lat="43.751127021387219" lon="6.321085039526224">
        <ele>825.42999999999995</ele>
        <time>2025-05-18T08:33:46Z</time>
      </trkpt>
      <trkpt lat="43.751141019165516" lon="6.320944977924228">
        <ele>824.95000000000005</ele>
        <time>2025-05-18T08:33:47Z</time>
      </trkpt>
      <trkpt lat="43.751155016943812" lon="6.32079603150487">
        <ele>824.95000000000005</ele>
        <time>2025-05-18T08:33:48Z</time>
      </trkpt>
      <trkpt lat="43.751314021646976" lon="6.319113029167056">
        <ele>825.42999999999995</ele>
        <time>2025-05-18T08:33:57Z</time>
      </trkpt>
      <trkpt lat="43.751303041353822" lon="6.318925023078919">
        <ele>825.90999999999997</ele>
        <time>2025-05-18T08:33:58Z</time>
      </trkpt>
      <trkpt lat="43.751246966421604" lon="6.31710397079587">
        <ele>832.15999999999997</ele>
        <time>2025-05-18T08:34:06Z</time>
      </trkpt>
      <trkpt lat="43.751269010826945" lon="6.316500976681709">
        <ele>835.51999999999998</ele>
        <time>2025-05-18T08:34:09Z</time>
      </trkpt>
      <trkpt lat="43.751304969191551" lon="6.316351024433971">
        <ele>836.48000000000002</ele>
        <time>2025-05-18T08:34:10Z</time>
      </trkpt>
      <trkpt lat="43.75136598944664" lon="6.316213980317116">
        <ele>837.45000000000005</ele>
        <time>2025-05-18T08:34:11Z</time>
      </trkpt>
      <trkpt lat="43.751610992476344" lon="6.315846014767885">
        <ele>839.85000000000002</ele>
        <time>2025-05-18T08:34:14Z</time>
      </trkpt>
      <trkpt lat="43.751802016049623" lon="6.315532028675079">
        <ele>841.76999999999998</ele>
        <time>2025-05-18T08:34:16Z</time>
      </trkpt>
      <trkpt lat="43.75196797773242" lon="6.315158028155565">
        <ele>843.69000000000005</ele>
        <time>2025-05-18T08:34:18Z</time>
      </trkpt>
      <trkpt lat="43.752537025138736" lon="6.314108027145267">
        <ele>851.87</ele>
        <time>2025-05-18T08:34:24Z</time>
      </trkpt>
      <trkpt lat="43.752613971009851" lon="6.313883978873491">
        <ele>859.08000000000004</ele>
        <time>2025-05-18T08:34:29Z</time>
      </trkpt>
      <trkpt lat="43.752613971009851" lon="6.313883978873491">
        <ele>859.08000000000004</ele>
        <time>2025-05-18T08:34:57Z</time>
      </trkpt>
      <trkpt lat="43.752613971009851" lon="6.313883978873491">
        <ele>860.51999999999998</ele>
        <time>2025-05-18T08:35:46Z</time>
      </trkpt>
      <trkpt lat="43.752614976838231" lon="6.313866963610053">
        <ele>862.44000000000005</ele>
        <time>2025-05-18T08:35:54Z</time>
      </trkpt>
      <trkpt lat="43.752623023465276" lon="6.313791023567319">
        <ele>866.28999999999996</ele>
        <time>2025-05-18T08:35:55Z</time>
      </trkpt>
      <trkpt lat="43.75243904069066" lon="6.313461028039455">
        <ele>870.61000000000001</ele>
        <time>2025-05-18T08:36:00Z</time>
      </trkpt>
      <trkpt lat="43.752413978800178" lon="6.313346028327942">
        <ele>871.57000000000005</ele>
        <time>2025-05-18T08:36:01Z</time>
      </trkpt>
      <trkpt lat="43.752424037083983" lon="6.313248965889216">
        <ele>872.04999999999995</ele>
        <time>2025-05-18T08:36:02Z</time>
      </trkpt>
      <trkpt lat="43.752511041238904" lon="6.31314997561276">
        <ele>872.52999999999997</ele>
        <time>2025-05-18T08:36:03Z</time>
      </trkpt>
      <trkpt lat="43.752607014030218" lon="6.313102031126618">
        <ele>873.00999999999999</ele>
        <time>2025-05-18T08:36:04Z</time>
      </trkpt>
      <trkpt lat="43.75272000208497" lon="6.313046040013433">
        <ele>873.5</ele>
        <time>2025-05-18T08:36:05Z</time>
      </trkpt>
      <trkpt lat="43.753325007855892" lon="6.312787961214781">
        <ele>879.25999999999999</ele>
        <time>2025-05-18T08:36:10Z</time>
      </trkpt>
      <trkpt lat="43.753426009789109" lon="6.312753008678556">
        <ele>880.22000000000003</ele>
        <time>2025-05-18T08:36:11Z</time>
      </trkpt>
      <trkpt lat="43.753523994237185" lon="6.312717972323299">
        <ele>881.19000000000005</ele>
        <time>2025-05-18T08:36:12Z</time>
      </trkpt>
      <trkpt lat="43.753617033362389" lon="6.312637003138661">
        <ele>881.66999999999996</ele>
        <time>2025-05-18T08:36:13Z</time>
      </trkpt>
      <trkpt lat="43.753706971183419" lon="6.312538012862206">
        <ele>881.66999999999996</ele>
        <time>2025-05-18T08:36:14Z</time>
      </trkpt>
      <trkpt lat="43.753763968124986" lon="6.312378002330661">
        <ele>882.14999999999998</ele>
        <time>2025-05-18T08:36:15Z</time>
      </trkpt>
      <trkpt lat="43.753819037228823" lon="6.312200976535678">
        <ele>883.11000000000001</ele>
        <time>2025-05-18T08:36:16Z</time>
      </trkpt>
      <trkpt lat="43.753864970058203" lon="6.312006013467908">
        <ele>883.59000000000003</ele>
        <time>2025-05-18T08:36:17Z</time>
      </trkpt>
      <trkpt lat="43.753963960334659" lon="6.311588007956743">
        <ele>886.47000000000003</ele>
        <time>2025-05-18T08:36:19Z</time>
      </trkpt>
      <trkpt lat="43.754000002518296" lon="6.311375023797154">
        <ele>887.90999999999997</ele>
        <time>2025-05-18T08:36:20Z</time>
      </trkpt>
      <trkpt lat="43.754012994468212" lon="6.311142006888986">
        <ele>888.88</ele>
        <time>2025-05-18T08:36:21Z</time>
      </trkpt>
      <trkpt lat="43.753949040547013" lon="6.309633012861013">
        <ele>896.57000000000005</ele>
        <time>2025-05-18T08:36:27Z</time>
      </trkpt>
      <trkpt lat="43.753892965614796" lon="6.309397984296084">
        <ele>898.00999999999999</ele>
        <time>2025-05-18T08:36:28Z</time>
      </trkpt>
      <trkpt lat="43.75379397533834" lon="6.308991964906454">
        <ele>900.88999999999999</ele>
        <time>2025-05-18T08:36:30Z</time>
      </trkpt>
      <trkpt lat="43.753781989216805" lon="6.308795996010304">
        <ele>902.33000000000004</ele>
        <time>2025-05-18T08:36:31Z</time>
      </trkpt>
      <trkpt lat="43.753797998651862" lon="6.308600027114153">
        <ele>903.77999999999997</ele>
        <time>2025-05-18T08:36:32Z</time>
      </trkpt>
      <trkpt lat="43.753862036392093" lon="6.308429958298802">
        <ele>905.22000000000003</ele>
        <time>2025-05-18T08:36:33Z</time>
      </trkpt>
      <trkpt lat="43.753932025283575" lon="6.308246981352568">
        <ele>906.65999999999997</ele>
        <time>2025-05-18T08:36:34Z</time>
      </trkpt>
      <trkpt lat="43.754077032208443" lon="6.307867029681802">
        <ele>909.53999999999996</ele>
        <time>2025-05-18T08:36:36Z</time>
      </trkpt>
      <trkpt lat="43.754130005836487" lon="6.307672988623381">
        <ele>910.50999999999999</ele>
        <time>2025-05-18T08:36:37Z</time>
      </trkpt>
      <trkpt lat="43.754247017204762" lon="6.305925026535988">
        <ele>918.20000000000005</ele>
        <time>2025-05-18T08:36:44Z</time>
      </trkpt>
      <trkpt lat="43.754294039681554" lon="6.305702989920974">
        <ele>919.15999999999997</ele>
        <time>2025-05-18T08:36:45Z</time>
      </trkpt>
      <trkpt lat="43.754357993602753" lon="6.305496040731669">
        <ele>920.12</ele>
        <time>2025-05-18T08:36:46Z</time>
      </trkpt>
      <trkpt lat="43.754441980272532" lon="6.305290013551712">
        <ele>921.55999999999995</ele>
        <time>2025-05-18T08:36:47Z</time>
      </trkpt>
      <trkpt lat="43.754528984427452" lon="6.305079041048884">
        <ele>922.51999999999998</ele>
        <time>2025-05-18T08:36:48Z</time>
      </trkpt>
      <trkpt lat="43.754613976925611" lon="6.304872008040547">
        <ele>923.96000000000004</ele>
        <time>2025-05-18T08:36:49Z</time>
      </trkpt>
      <trkpt lat="43.754679020494223" lon="6.304651983082295">
        <ele>925.40999999999997</ele>
        <time>2025-05-18T08:36:50Z</time>
      </trkpt>
      <trkpt lat="43.75471799634397" lon="6.304414020851255">
        <ele>926.85000000000002</ele>
        <time>2025-05-18T08:36:51Z</time>
      </trkpt>
      <trkpt lat="43.754755966365337" lon="6.304175974801183">
        <ele>927.80999999999995</ele>
        <time>2025-05-18T08:36:52Z</time>
      </trkpt>
      <trkpt lat="43.754794020205736" lon="6.303941030055285">
        <ele>928.76999999999998</ele>
        <time>2025-05-18T08:36:53Z</time>
      </trkpt>
      <trkpt lat="43.754884963855147" lon="6.303540039807558">
        <ele>931.16999999999996</ele>
        <time>2025-05-18T08:36:55Z</time>
      </trkpt>
      <trkpt lat="43.754940032958984" lon="6.303378017619252">
        <ele>932.62</ele>
        <time>2025-05-18T08:36:56Z</time>
      </trkpt>
      <trkpt lat="43.755033994093537" lon="6.303252037614584">
        <ele>934.05999999999995</ele>
        <time>2025-05-18T08:36:57Z</time>
      </trkpt>
      <trkpt lat="43.755454011261463" lon="6.302692964673042">
        <ele>939.35000000000002</ele>
        <time>2025-05-18T08:37:01Z</time>
      </trkpt>
      <trkpt lat="43.75553397461772" lon="6.302519040182233">
        <ele>940.30999999999995</ele>
        <time>2025-05-18T08:37:02Z</time>
      </trkpt>
      <trkpt lat="43.755594994872808" lon="6.302320975810289">
        <ele>941.75</ele>
        <time>2025-05-18T08:37:03Z</time>
      </trkpt>
      <trkpt lat="43.755861958488822" lon="6.301587978377938">
        <ele>946.07000000000005</ele>
        <time>2025-05-18T08:37:07Z</time>
      </trkpt>
      <trkpt lat="43.755932031199336" lon="6.301469039171934">
        <ele>946.55999999999995</ele>
        <time>2025-05-18T08:37:08Z</time>
      </trkpt>
      <trkpt lat="43.755989028140903" lon="6.301371976733208">
        <ele>947.03999999999996</ele>
        <time>2025-05-18T08:37:09Z</time>
      </trkpt>
      <trkpt lat="43.756017023697495" lon="6.301278015598655">
        <ele>947.03999999999996</ele>
        <time>2025-05-18T08:37:10Z</time>
      </trkpt>
      <trkpt lat="43.756033033132553" lon="6.30120400339365">
        <ele>947.51999999999998</ele>
        <time>2025-05-18T08:37:11Z</time>
      </trkpt>
      <trkpt lat="43.756022974848747" lon="6.301130997017026">
        <ele>947.51999999999998</ele>
        <time>2025-05-18T08:37:12Z</time>
      </trkpt>
      <trkpt lat="43.756000008434057" lon="6.301056984812021">
        <ele>948</ele>
        <time>2025-05-18T08:37:13Z</time>
      </trkpt>
      <trkpt lat="43.755948040634394" lon="6.301020020619035">
        <ele>948.48000000000002</ele>
        <time>2025-05-18T08:37:14Z</time>
      </trkpt>
      <trkpt lat="43.755888026207685" lon="6.300978027284145">
        <ele>948.48000000000002</ele>
        <time>2025-05-18T08:37:15Z</time>
      </trkpt>
      <trkpt lat="43.755816025659442" lon="6.300996970385313">
        <ele>948.96000000000004</ele>
        <time>2025-05-18T08:37:16Z</time>
      </trkpt>
      <trkpt lat="43.755756011232734" lon="6.301044998690486">
        <ele>949.44000000000005</ele>
        <time>2025-05-18T08:37:17Z</time>
      </trkpt>
      <trkpt lat="43.75572600401938" lon="6.301165027543902">
        <ele>949.91999999999996</ele>
        <time>2025-05-18T08:37:18Z</time>
      </trkpt>
      <trkpt lat="43.755692979320884" lon="6.301298970356584">
        <ele>950.39999999999998</ele>
        <time>2025-05-18T08:37:19Z</time>
      </trkpt>
      <trkpt lat="43.755656015127897" lon="6.301446994766593">
        <ele>950.88</ele>
        <time>2025-05-18T08:37:20Z</time>
      </trkpt>
      <trkpt lat="43.75557797960937" lon="6.301584960892797">
        <ele>950.88</ele>
        <time>2025-05-18T08:37:21Z</time>
      </trkpt>
      <trkpt lat="43.755492987111211" lon="6.30171999335289">
        <ele>951.36000000000001</ele>
        <time>2025-05-18T08:37:22Z</time>
      </trkpt>
      <trkpt lat="43.755403971299529" lon="6.301859971135855">
        <ele>951.84000000000003</ele>
        <time>2025-05-18T08:37:23Z</time>
      </trkpt>
      <trkpt lat="43.755298024043441" lon="6.301976982504129">
        <ele>952.32000000000005</ele>
        <time>2025-05-18T08:37:24Z</time>
      </trkpt>
      <trkpt lat="43.75516802072525" lon="6.302056023851037">
        <ele>953.27999999999997</ele>
        <time>2025-05-18T08:37:25Z</time>
      </trkpt>
      <trkpt lat="43.755027037113905" lon="6.302141016349196">
        <ele>953.76999999999998</ele>
        <time>2025-05-18T08:37:26Z</time>
      </trkpt>
      <trkpt lat="43.754882030189037" lon="6.302229026332498">
        <ele>954.25</ele>
        <time>2025-05-18T08:37:27Z</time>
      </trkpt>
      <trkpt lat="43.754409039393067" lon="6.302563967183232">
        <ele>956.16999999999996</ele>
        <time>2025-05-18T08:37:31Z</time>
      </trkpt>
      <trkpt lat="43.754328992217779" lon="6.302683996036649">
        <ele>956.16999999999996</ele>
        <time>2025-05-18T08:37:32Z</time>
      </trkpt>
      <trkpt lat="43.754252968356013" lon="6.302813999354839">
        <ele>956.64999999999998</ele>
        <time>2025-05-18T08:37:33Z</time>
      </trkpt>
      <trkpt lat="43.75409496948123" lon="6.303010974079371">
        <ele>957.61000000000001</ele>
        <time>2025-05-18T08:37:35Z</time>
      </trkpt>
      <trkpt lat="43.754018023610115" lon="6.30303000099957">
        <ele>958.09000000000003</ele>
        <time>2025-05-18T08:37:36Z</time>
      </trkpt>
      <trkpt lat="43.75396303832531" lon="6.303031006827951">
        <ele>958.57000000000005</ele>
        <time>2025-05-18T08:37:37Z</time>
      </trkpt>
      <trkpt lat="43.753906963393092" lon="6.3029870018363">
        <ele>959.04999999999995</ele>
        <time>2025-05-18T08:37:38Z</time>
      </trkpt>
      <trkpt lat="43.753877962008119" lon="6.302893962711096">
        <ele>959.52999999999997</ele>
        <time>2025-05-18T08:37:39Z</time>
      </trkpt>
      <trkpt lat="43.753895983099937" lon="6.302787009626627">
        <ele>960.00999999999999</ele>
        <time>2025-05-18T08:37:40Z</time>
      </trkpt>
      <trkpt lat="43.753925990313292" lon="6.302678966894746">
        <ele>960.49000000000001</ele>
        <time>2025-05-18T08:37:41Z</time>
      </trkpt>
      <trkpt lat="43.75400603748858" lon="6.302575031295419">
        <ele>960.49000000000001</ele>
        <time>2025-05-18T08:37:42Z</time>
      </trkpt>
      <trkpt lat="43.754096981137991" lon="6.302460031583905">
        <ele>960.98000000000002</ele>
        <time>2025-05-18T08:37:43Z</time>
      </trkpt>
      <trkpt lat="43.754196977242827" lon="6.302332039922476">
        <ele>960.98000000000002</ele>
        <time>2025-05-18T08:37:44Z</time>
      </trkpt>
      <trkpt lat="43.754302002489567" lon="6.302196001634002">
        <ele>961.46000000000004</ele>
        <time>2025-05-18T08:37:45Z</time>
      </trkpt>
      <trkpt lat="43.754597967490554" lon="6.301670959219337">
        <ele>963.86000000000001</ele>
        <time>2025-05-18T08:37:48Z</time>
      </trkpt>
      <trkpt lat="43.754684971645474" lon="6.301475996151567">
        <ele>965.29999999999995</ele>
        <time>2025-05-18T08:37:49Z</time>
      </trkpt>
      <trkpt lat="43.754769964143634" lon="6.301284972578287">
        <ele>966.25999999999999</ele>
        <time>2025-05-18T08:37:50Z</time>
      </trkpt>
      <trkpt lat="43.754852022975683" lon="6.301100989803672">
        <ele>967.22000000000003</ele>
        <time>2025-05-18T08:37:51Z</time>
      </trkpt>
      <trkpt lat="43.754945984110236" lon="6.300953971222043">
        <ele>968.66999999999996</ele>
        <time>2025-05-18T08:37:52Z</time>
      </trkpt>
      <trkpt lat="43.755056960508227" lon="6.300808964297175">
        <ele>970.11000000000001</ele>
        <time>2025-05-18T08:37:53Z</time>
      </trkpt>
      <trkpt lat="43.755170032382011" lon="6.300661023706198">
        <ele>971.54999999999995</ele>
        <time>2025-05-18T08:37:54Z</time>
      </trkpt>
      <trkpt lat="43.75594200566411" lon="6.299240961670876">
        <ele>983.09000000000003</ele>
        <time>2025-05-18T08:38:02Z</time>
      </trkpt>
      <trkpt lat="43.756062034517527" lon="6.298832008615136">
        <ele>985.97000000000003</ele>
        <time>2025-05-18T08:38:04Z</time>
      </trkpt>
      <trkpt lat="43.756077960133553" lon="6.298628998920322">
        <ele>987.40999999999997</ele>
        <time>2025-05-18T08:38:05Z</time>
      </trkpt>
      <trkpt lat="43.756077960133553" lon="6.298419032245874">
        <ele>988.85000000000002</ele>
        <time>2025-05-18T08:38:06Z</time>
      </trkpt>
      <trkpt lat="43.756077960133553" lon="6.29821602255106">
        <ele>989.80999999999995</ele>
        <time>2025-05-18T08:38:07Z</time>
      </trkpt>
      <trkpt lat="43.756038984283805" lon="6.298043020069599">
        <ele>991.25999999999999</ele>
        <time>2025-05-18T08:38:08Z</time>
      </trkpt>
      <trkpt lat="43.755986010655761" lon="6.297882003709674">
        <ele>992.22000000000003</ele>
        <time>2025-05-18T08:38:09Z</time>
      </trkpt>
      <trkpt lat="43.755901018157601" lon="6.297720987349749">
        <ele>993.65999999999997</ele>
        <time>2025-05-18T08:38:10Z</time>
      </trkpt>
      <trkpt lat="43.755818037316203" lon="6.297562988474965">
        <ele>994.62</ele>
        <time>2025-05-18T08:38:11Z</time>
      </trkpt>
      <trkpt lat="43.755737990140915" lon="6.297264005988836">
        <ele>997.01999999999998</ele>
        <time>2025-05-18T08:38:13Z</time>
      </trkpt>
      <trkpt lat="43.755763974040747" lon="6.297159986570478">
        <ele>997.01999999999998</ele>
        <time>2025-05-18T08:38:14Z</time>
      </trkpt>
      <trkpt lat="43.755818959325552" lon="6.297069964930415">
        <ele>997.50999999999999</ele>
        <time>2025-05-18T08:38:15Z</time>
      </trkpt>
      <trkpt lat="43.755902023985982" lon="6.29697198048234">
        <ele>997.50999999999999</ele>
        <time>2025-05-18T08:38:16Z</time>
      </trkpt>
      <trkpt lat="43.756001014262438" lon="6.296854969114065">
        <ele>997.99000000000001</ele>
        <time>2025-05-18T08:38:17Z</time>
      </trkpt>
      <trkpt lat="43.756109979003668" lon="6.296727983281016">
        <ele>998.47000000000003</ele>
        <time>2025-05-18T08:38:18Z</time>
      </trkpt>
      <trkpt lat="43.756863009184599" lon="6.295406995341182">
        <ele>1004.72</ele>
        <time>2025-05-18T08:38:25Z</time>
      </trkpt>
      <trkpt lat="43.756957976147532" lon="6.29525201395154">
        <ele>1005.6799999999999</ele>
        <time>2025-05-18T08:38:26Z</time>
      </trkpt>
      <trkpt lat="43.757060989737511" lon="6.295149000361562">
        <ele>1006.64</ele>
        <time>2025-05-18T08:38:27Z</time>
      </trkpt>
      <trkpt lat="43.757172971963882" lon="6.29505998454988">
        <ele>1007.6</ele>
        <time>2025-05-18T08:38:28Z</time>
      </trkpt>
      <trkpt lat="43.75729501247406" lon="6.295065013691783">
        <ele>1008.5599999999999</ele>
        <time>2025-05-18T08:38:29Z</time>
      </trkpt>
      <trkpt lat="43.757417974993587" lon="6.295070964843035">
        <ele>1009.52</ele>
        <time>2025-05-18T08:38:30Z</time>
      </trkpt>
      <trkpt lat="43.757542027160525" lon="6.295075993984938">
        <ele>1010.48</ele>
        <time>2025-05-18T08:38:31Z</time>
      </trkpt>
      <trkpt lat="43.757658032700419" lon="6.295054033398628">
        <ele>1011.4400000000001</ele>
        <time>2025-05-18T08:38:32Z</time>
      </trkpt>
      <trkpt lat="43.757782001048326" lon="6.294960994273424">
        <ele>1012.41</ele>
        <time>2025-05-18T08:38:33Z</time>
      </trkpt>
      <trkpt lat="43.758442997932434" lon="6.294302009046078">
        <ele>1018.17</ele>
        <time>2025-05-18T08:38:38Z</time>
      </trkpt>
      <trkpt lat="43.758573001250625" lon="6.294144010171294">
        <ele>1019.62</ele>
        <time>2025-05-18T08:38:39Z</time>
      </trkpt>
      <trkpt lat="43.758824039250612" lon="6.293623996898532">
        <ele>1022.5</ele>
        <time>2025-05-18T08:38:42Z</time>
      </trkpt>
      <trkpt lat="43.758869972079992" lon="6.293456023558974">
        <ele>1023.9400000000001</ele>
        <time>2025-05-18T08:38:43Z</time>
      </trkpt>
      <trkpt lat="43.758898973464966" lon="6.293313028290868">
        <ele>1024.9000000000001</ele>
        <time>2025-05-18T08:38:44Z</time>
      </trkpt>
      <trkpt lat="43.758881958201528" lon="6.293144971132278">
        <ele>1025.8599999999999</ele>
        <time>2025-05-18T08:38:45Z</time>
      </trkpt>
      <trkpt lat="43.758845999836922" lon="6.29299895837903">
        <ele>1027.3099999999999</ele>
        <time>2025-05-18T08:38:46Z</time>
      </trkpt>
      <trkpt lat="43.758779028430581" lon="6.29291296005249">
        <ele>1028.75</ele>
        <time>2025-05-18T08:38:47Z</time>
      </trkpt>
      <trkpt lat="43.758695963770151" lon="6.292806006968021">
        <ele>1030.6700000000001</ele>
        <time>2025-05-18T08:38:48Z</time>
      </trkpt>
      <trkpt lat="43.758606025949121" lon="6.292731994763017">
        <ele>1032.1099999999999</ele>
        <time>2025-05-18T08:38:49Z</time>
      </trkpt>
      <trkpt lat="43.758286004886031" lon="6.292466958984733">
        <ele>1036.4400000000001</ele>
        <time>2025-05-18T08:38:52Z</time>
      </trkpt>
      <trkpt lat="43.758177040144801" lon="6.292377021163702">
        <ele>1037.8800000000001</ele>
        <time>2025-05-18T08:38:53Z</time>
      </trkpt>
      <trkpt lat="43.758070003241301" lon="6.292283982038498">
        <ele>1038.8399999999999</ele>
        <time>2025-05-18T08:38:54Z</time>
      </trkpt>
      <trkpt lat="43.758000014349818" lon="6.292132018133998">
        <ele>1040.28</ele>
        <time>2025-05-18T08:38:55Z</time>
      </trkpt>
      <trkpt lat="43.757929019629955" lon="6.291978964582086">
        <ele>1041.25</ele>
        <time>2025-05-18T08:38:56Z</time>
      </trkpt>
      <trkpt lat="43.757863976061344" lon="6.29183697514236">
        <ele>1042.6900000000001</ele>
        <time>2025-05-18T08:38:57Z</time>
      </trkpt>
      <trkpt lat="43.757804967463017" lon="6.291689034551382">
        <ele>1043.6500000000001</ele>
        <time>2025-05-18T08:38:58Z</time>
      </trkpt>
      <trkpt lat="43.757780995219946" lon="6.291545033454895">
        <ele>1044.6099999999999</ele>
        <time>2025-05-18T08:38:59Z</time>
      </trkpt>
      <trkpt lat="43.757820976898074" lon="6.291465992107987">
        <ele>1045.5699999999999</ele>
        <time>2025-05-18T08:39:00Z</time>
      </trkpt>
      <trkpt lat="43.757887026295066" lon="6.291383011266589">
        <ele>1046.05</ele>
        <time>2025-05-18T08:39:01Z</time>
      </trkpt>
      <trkpt lat="43.758074026554823" lon="6.291196011006832">
        <ele>1047.01</ele>
        <time>2025-05-18T08:39:03Z</time>
      </trkpt>
      <trkpt lat="43.758183997124434" lon="6.291086040437222">
        <ele>1047.49</ele>
        <time>2025-05-18T08:39:04Z</time>
      </trkpt>
      <trkpt lat="43.758845999836922" lon="6.290123965591192">
        <ele>1051.8199999999999</ele>
        <time>2025-05-18T08:39:10Z</time>
      </trkpt>
      <trkpt lat="43.758895033970475" lon="6.289987005293369">
        <ele>1051.8199999999999</ele>
        <time>2025-05-18T08:39:11Z</time>
      </trkpt>
      <trkpt lat="43.758925041183829" lon="6.289811991155148">
        <ele>1052.3</ele>
        <time>2025-05-18T08:39:12Z</time>
      </trkpt>
      <trkpt lat="43.758910037577152" lon="6.289628008380532">
        <ele>1052.78</ele>
        <time>2025-05-18T08:39:13Z</time>
      </trkpt>
      <trkpt lat="43.758895033970475" lon="6.289446037262678">
        <ele>1053.26</ele>
        <time>2025-05-18T08:39:14Z</time>
      </trkpt>
      <trkpt lat="43.758896961808205" lon="6.289277980104089">
        <ele>1053.74</ele>
        <time>2025-05-18T08:39:15Z</time>
      </trkpt>
      <trkpt lat="43.758931998163462" lon="6.289111012592912">
        <ele>1054.22</ele>
        <time>2025-05-18T08:39:16Z</time>
      </trkpt>
      <trkpt lat="43.759022019803524" lon="6.289000958204269">
        <ele>1055.1800000000001</ele>
        <time>2025-05-18T08:39:17Z</time>
      </trkpt>
      <trkpt lat="43.759124027565122" lon="6.288877995684743">
        <ele>1055.6700000000001</ele>
        <time>2025-05-18T08:39:18Z</time>
      </trkpt>
      <trkpt lat="43.759231986477971" lon="6.288746986538172">
        <ele>1056.1500000000001</ele>
        <time>2025-05-18T08:39:19Z</time>
      </trkpt>
      <trkpt lat="43.759332988411188" lon="6.288609020411968">
        <ele>1056.6300000000001</ele>
        <time>2025-05-18T08:39:20Z</time>
      </trkpt>
      <trkpt lat="43.759399959817529" lon="6.288462001830339">
        <ele>1057.1099999999999</ele>
        <time>2025-05-18T08:39:21Z</time>
      </trkpt>
      <trkpt lat="43.759430972859263" lon="6.288315989077091">
        <ele>1057.5899999999999</ele>
        <time>2025-05-18T08:39:22Z</time>
      </trkpt>
      <trkpt lat="43.759440025314689" lon="6.288166036829352">
        <ele>1058.0699999999999</ele>
        <time>2025-05-18T08:39:23Z</time>
      </trkpt>
      <trkpt lat="43.759426027536392" lon="6.28798901103437">
        <ele>1058.55</ele>
        <time>2025-05-18T08:39:24Z</time>
      </trkpt>
      <trkpt lat="43.759372970089316" lon="6.287804022431374">
        <ele>1059.51</ele>
        <time>2025-05-18T08:39:25Z</time>
      </trkpt>
      <trkpt lat="43.759213965386152" lon="6.287240004166961">
        <ele>1061.4300000000001</ele>
        <time>2025-05-18T08:39:28Z</time>
      </trkpt>
      <trkpt lat="43.759222012013197" lon="6.287100026383996">
        <ele>1062.3900000000001</ele>
        <time>2025-05-18T08:39:29Z</time>
      </trkpt>
      <trkpt lat="43.759231986477971" lon="6.286990977823734">
        <ele>1062.8699999999999</ele>
        <time>2025-05-18T08:39:30Z</time>
      </trkpt>
      <trkpt lat="43.759314967319369" lon="6.286913026124239">
        <ele>1063.3599999999999</ele>
        <time>2025-05-18T08:39:31Z</time>
      </trkpt>
      <trkpt lat="43.759414041414857" lon="6.286817975342274">
        <ele>1063.8399999999999</ele>
        <time>2025-05-18T08:39:32Z</time>
      </trkpt>
      <trkpt lat="43.759641023352742" lon="6.286596022546291">
        <ele>1065.28</ele>
        <time>2025-05-18T08:39:34Z</time>
      </trkpt>
      <trkpt lat="43.759756023064256" lon="6.286442968994379">
        <ele>1066.24</ele>
        <time>2025-05-18T08:39:35Z</time>
      </trkpt>
      <trkpt lat="43.759877979755402" lon="6.286278013139963">
        <ele>1066.72</ele>
        <time>2025-05-18T08:39:36Z</time>
      </trkpt>
      <trkpt lat="43.759974036365747" lon="6.286097969859839">
        <ele>1067.6800000000001</ele>
        <time>2025-05-18T08:39:37Z</time>
      </trkpt>
      <trkpt lat="43.760061040520668" lon="6.285918010398746">
        <ele>1068.6400000000001</ele>
        <time>2025-05-18T08:39:38Z</time>
      </trkpt>
      <trkpt lat="43.76011099666357" lon="6.285750959068537">
        <ele>1069.5999999999999</ele>
        <time>2025-05-18T08:39:39Z</time>
      </trkpt>
      <trkpt lat="43.760156007483602" lon="6.285603018477559">
        <ele>1070.5699999999999</ele>
        <time>2025-05-18T08:39:40Z</time>
      </trkpt>
      <trkpt lat="43.760198000818491" lon="6.285466980189085">
        <ele>1071.53</ele>
        <time>2025-05-18T08:39:41Z</time>
      </trkpt>
      <trkpt lat="43.760294979438186" lon="6.285402020439506">
        <ele>1072.01</ele>
        <time>2025-05-18T08:39:42Z</time>
      </trkpt>
      <trkpt lat="43.760407967492938" lon="6.28532700240612">
        <ele>1072.97</ele>
        <time>2025-05-18T08:39:43Z</time>
      </trkpt>
      <trkpt lat="43.760534031316638" lon="6.285243015736342">
        <ele>1073.9300000000001</ele>
        <time>2025-05-18T08:39:44Z</time>
      </trkpt>
      <trkpt lat="43.760665040463209" lon="6.28515500575304">
        <ele>1074.4100000000001</ele>
        <time>2025-05-18T08:39:45Z</time>
      </trkpt>
      <trkpt lat="43.760800994932652" lon="6.285064984112978">
        <ele>1074.8900000000001</ele>
        <time>2025-05-18T08:39:46Z</time>
      </trkpt>
      <trkpt lat="43.76092404127121" lon="6.284926012158394">
        <ele>1075.8499999999999</ele>
        <time>2025-05-18T08:39:47Z</time>
      </trkpt>
      <trkpt lat="43.761025965213776" lon="6.284787962213159">
        <ele>1076.3299999999999</ele>
        <time>2025-05-18T08:39:48Z</time>
      </trkpt>
      <trkpt lat="43.76111900433898" lon="6.28466097638011">
        <ele>1077.29</ele>
        <time>2025-05-18T08:39:49Z</time>
      </trkpt>
      <trkpt lat="43.761178012937307" lon="6.284520998597145">
        <ele>1078.26</ele>
        <time>2025-05-18T08:39:50Z</time>
      </trkpt>
      <trkpt lat="43.76122796908021" lon="6.284370962530375">
        <ele>1079.22</ele>
        <time>2025-05-18T08:39:51Z</time>
      </trkpt>
      <trkpt lat="43.761215982958674" lon="6.284216986969113">
        <ele>1079.7</ele>
        <time>2025-05-18T08:39:52Z</time>
      </trkpt>
      <trkpt lat="43.761203996837139" lon="6.284044990316033">
        <ele>1080.6600000000001</ele>
        <time>2025-05-18T08:39:53Z</time>
      </trkpt>
      <trkpt lat="43.761166026815772" lon="6.283529000356793">
        <ele>1082.5799999999999</ele>
        <time>2025-05-18T08:39:56Z</time>
      </trkpt>
      <trkpt lat="43.761183964088559" lon="6.283408971503377">
        <ele>1083.0599999999999</ele>
        <time>2025-05-18T08:39:57Z</time>
      </trkpt>
      <trkpt lat="43.761213971301913" lon="6.283290032297373">
        <ele>1083.54</ele>
        <time>2025-05-18T08:39:58Z</time>
      </trkpt>
      <trkpt lat="43.76127096824348" lon="6.283222977072001">
        <ele>1083.54</ele>
        <time>2025-05-18T08:39:59Z</time>
      </trkpt>
      <trkpt lat="43.761366019025445" lon="6.283196993172169">
        <ele>1084.02</ele>
        <time>2025-05-18T08:40:00Z</time>
      </trkpt>
      <trkpt lat="43.761470038443804" lon="6.283166985958815">
        <ele>1084.5</ele>
        <time>2025-05-18T08:40:01Z</time>
      </trkpt>
      <trkpt lat="43.761585960164666" lon="6.283134967088699">
        <ele>1084.99</ele>
        <time>2025-05-18T08:40:02Z</time>
      </trkpt>
      <trkpt lat="43.761712023988366" lon="6.283099008724093">
        <ele>1085.47</ele>
        <time>2025-05-18T08:40:03Z</time>
      </trkpt>
      <trkpt lat="43.761841021478176" lon="6.283062966540456">
        <ele>1086.4300000000001</ele>
        <time>2025-05-18T08:40:04Z</time>
      </trkpt>
      <trkpt lat="43.761955015361309" lon="6.282997000962496">
        <ele>1087.8699999999999</ele>
        <time>2025-05-18T08:40:05Z</time>
      </trkpt>
      <trkpt lat="43.762060962617397" lon="6.282876972109079">
        <ele>1089.3099999999999</ele>
        <time>2025-05-18T08:40:06Z</time>
      </trkpt>
      <trkpt lat="43.762174034491181" lon="6.282749986276031">
        <ele>1090.27</ele>
        <time>2025-05-18T08:40:07Z</time>
      </trkpt>
      <trkpt lat="43.762291967868805" lon="6.282624006271362">
        <ele>1091.71</ele>
        <time>2025-05-18T08:40:08Z</time>
      </trkpt>
      <trkpt lat="43.762419037520885" lon="6.282503977417946">
        <ele>1092.6800000000001</ele>
        <time>2025-05-18T08:40:09Z</time>
      </trkpt>
      <trkpt lat="43.76300903968513" lon="6.281834011897445">
        <ele>1099.4000000000001</ele>
        <time>2025-05-18T08:40:14Z</time>
      </trkpt>
      <trkpt lat="43.763115992769599" lon="6.281797969713807">
        <ele>1100.8499999999999</ele>
        <time>2025-05-18T08:40:15Z</time>
      </trkpt>
      <trkpt lat="43.763238033279777" lon="6.281797969713807">
        <ele>1102.29</ele>
        <time>2025-05-18T08:40:16Z</time>
      </trkpt>
      <trkpt lat="43.763365019112825" lon="6.281797969713807">
        <ele>1103.73</ele>
        <time>2025-05-18T08:40:17Z</time>
      </trkpt>
      <trkpt lat="43.763497034087777" lon="6.281740972772241">
        <ele>1105.1700000000001</ele>
        <time>2025-05-18T08:40:18Z</time>
      </trkpt>
      <trkpt lat="43.763617984950542" lon="6.281652040779591">
        <ele>1107.0999999999999</ele>
        <time>2025-05-18T08:40:19Z</time>
      </trkpt>
      <trkpt lat="43.763722004368901" lon="6.2815220374614">
        <ele>1108.54</ele>
        <time>2025-05-18T08:40:20Z</time>
      </trkpt>
      <trkpt lat="43.763829963281751" lon="6.281384993344545">
        <ele>1109.98</ele>
        <time>2025-05-18T08:40:21Z</time>
      </trkpt>
      <trkpt lat="43.763943035155535" lon="6.2812440097332">
        <ele>1111.9000000000001</ele>
        <time>2025-05-18T08:40:22Z</time>
      </trkpt>
      <trkpt lat="43.764988007023931" lon="6.279638959094882">
        <ele>1128.24</ele>
        <time>2025-05-18T08:40:31Z</time>
      </trkpt>
      <trkpt lat="43.765433002263308" lon="6.278664981946349">
        <ele>1139.3</ele>
        <time>2025-05-18T08:40:37Z</time>
      </trkpt>
      <trkpt lat="43.765452029183507" lon="6.278486028313637">
        <ele>1141.22</ele>
        <time>2025-05-18T08:40:38Z</time>
      </trkpt>
      <trkpt lat="43.765471978113055" lon="6.278295004740357">
        <ele>1142.6600000000001</ele>
        <time>2025-05-18T08:40:39Z</time>
      </trkpt>
      <trkpt lat="43.765489999204874" lon="6.278113033622503">
        <ele>1143.6300000000001</ele>
        <time>2025-05-18T08:40:40Z</time>
      </trkpt>
      <trkpt lat="43.765529980883002" lon="6.277946988120675">
        <ele>1145.0699999999999</ele>
        <time>2025-05-18T08:40:41Z</time>
      </trkpt>
      <trkpt lat="43.765635006129742" lon="6.2778490036726">
        <ele>1146.03</ele>
        <time>2025-05-18T08:40:42Z</time>
      </trkpt>
      <trkpt lat="43.765735002234578" lon="6.277781026437879">
        <ele>1147.47</ele>
        <time>2025-05-18T08:40:43Z</time>
      </trkpt>
      <trkpt lat="43.76584698446095" lon="6.277703996747732">
        <ele>1148.4300000000001</ele>
        <time>2025-05-18T08:40:44Z</time>
      </trkpt>
      <trkpt lat="43.765968019142747" lon="6.277621015906334">
        <ele>1149.8699999999999</ele>
        <time>2025-05-18T08:40:45Z</time>
      </trkpt>
      <trkpt lat="43.766096010804176" lon="6.277532000094652">
        <ele>1151.3199999999999</ele>
        <time>2025-05-18T08:40:46Z</time>
      </trkpt>
      <trkpt lat="43.766227019950747" lon="6.27744197845459">
        <ele>1152.28</ele>
        <time>2025-05-18T08:40:47Z</time>
      </trkpt>
      <trkpt lat="43.766563972458243" lon="6.27703201957047">
        <ele>1156.1199999999999</ele>
        <time>2025-05-18T08:40:50Z</time>
      </trkpt>
      <trkpt lat="43.766666986048222" lon="6.276906039565802">
        <ele>1157.0799999999999</ele>
        <time>2025-05-18T08:40:51Z</time>
      </trkpt>
      <trkpt lat="43.76674996688962" lon="6.276772012934089">
        <ele>1158.53</ele>
        <time>2025-05-18T08:40:52Z</time>
      </trkpt>
      <trkpt lat="43.766817022114992" lon="6.276618037372828">
        <ele>1159.97</ele>
        <time>2025-05-18T08:40:53Z</time>
      </trkpt>
      <trkpt lat="43.766869995743036" lon="6.276454003527761">
        <ele>1161.4100000000001</ele>
        <time>2025-05-18T08:40:54Z</time>
      </trkpt>
      <trkpt lat="43.767061019316316" lon="6.275655962526798">
        <ele>1168.1400000000001</ele>
        <time>2025-05-18T08:40:59Z</time>
      </trkpt>
      <trkpt lat="43.767110975459218" lon="6.275510033592582">
        <ele>1169.5799999999999</ele>
        <time>2025-05-18T08:41:00Z</time>
      </trkpt>
      <trkpt lat="43.76717995852232" lon="6.275390004739165">
        <ele>1170.54</ele>
        <time>2025-05-18T08:41:01Z</time>
      </trkpt>
      <trkpt lat="43.767621014267206" lon="6.274548964574933">
        <ele>1178.71</ele>
        <time>2025-05-18T08:41:10Z</time>
      </trkpt>
      <trkpt lat="43.767613973468542" lon="6.274482998996973">
        <ele>1180.6400000000001</ele>
        <time>2025-05-18T08:41:13Z</time>
      </trkpt>
      <trkpt lat="43.767609028145671" lon="6.274439999833703">
        <ele>1180.6400000000001</ele>
        <time>2025-05-18T08:41:14Z</time>
      </trkpt>
      <trkpt lat="43.767603999003768" lon="6.274401023983955">
        <ele>1181.1199999999999</ele>
        <time>2025-05-18T08:41:15Z</time>
      </trkpt>
      <trkpt lat="43.767600981518626" lon="6.274374034255743">
        <ele>1181.5999999999999</ele>
        <time>2025-05-18T08:41:16Z</time>
      </trkpt>
      <trkpt lat="43.767600981518626" lon="6.274374034255743">
        <ele>1182.0799999999999</ele>
        <time>2025-05-18T08:41:29Z</time>
      </trkpt>
      <trkpt lat="43.767600981518626" lon="6.274374034255743">
        <ele>1181.5999999999999</ele>
        <time>2025-05-18T08:42:18Z</time>
      </trkpt>
      <trkpt lat="43.767600981518626" lon="6.274374034255743">
        <ele>1181.5999999999999</ele>
        <time>2025-05-18T08:43:03Z</time>
      </trkpt>
      <trkpt lat="43.767514983192086" lon="6.27430496737361">
        <ele>1181.5999999999999</ele>
        <time>2025-05-18T08:43:29Z</time>
      </trkpt>
      <trkpt lat="43.767443988472223" lon="6.274289963766933">
        <ele>1182.0799999999999</ele>
        <time>2025-05-18T08:43:30Z</time>
      </trkpt>
      <trkpt lat="43.767364025115967" lon="6.274273032322526">
        <ele>1182.0799999999999</ele>
        <time>2025-05-18T08:43:31Z</time>
      </trkpt>
      <trkpt lat="43.76653203740716" lon="6.274100029841065">
        <ele>1184.96</ele>
        <time>2025-05-18T08:43:38Z</time>
      </trkpt>
      <trkpt lat="43.766259038820863" lon="6.27396097406745">
        <ele>1186.4000000000001</ele>
        <time>2025-05-18T08:43:40Z</time>
      </trkpt>
      <trkpt lat="43.766132974997163" lon="6.273857960477471">
        <ele>1186.8800000000001</ele>
        <time>2025-05-18T08:43:41Z</time>
      </trkpt>
      <trkpt lat="43.766002971678972" lon="6.273739021271467">
        <ele>1187.8499999999999</ele>
        <time>2025-05-18T08:43:42Z</time>
      </trkpt>
      <trkpt lat="43.765896018594503" lon="6.273593008518219">
        <ele>1188.3299999999999</ele>
        <time>2025-05-18T08:43:43Z</time>
      </trkpt>
      <trkpt lat="43.765787975862622" lon="6.273424029350281">
        <ele>1189.29</ele>
        <time>2025-05-18T08:43:44Z</time>
      </trkpt>
      <trkpt lat="43.765678005293012" lon="6.273252032697201">
        <ele>1190.25</ele>
        <time>2025-05-18T08:43:45Z</time>
      </trkpt>
      <trkpt lat="43.765589995309711" lon="6.273068971931934">
        <ele>1190.73</ele>
        <time>2025-05-18T08:43:46Z</time>
      </trkpt>
      <trkpt lat="43.765513971447945" lon="6.272857999429107">
        <ele>1191.6900000000001</ele>
        <time>2025-05-18T08:43:47Z</time>
      </trkpt>
      <trkpt lat="43.765439037233591" lon="6.272646021097899">
        <ele>1192.6500000000001</ele>
        <time>2025-05-18T08:43:48Z</time>
      </trkpt>
      <trkpt lat="43.765383968129754" lon="6.272429013624787">
        <ele>1194.0899999999999</ele>
        <time>2025-05-18T08:43:49Z</time>
      </trkpt>
      <trkpt lat="43.765340968966484" lon="6.272201025858522">
        <ele>1195.54</ele>
        <time>2025-05-18T08:43:50Z</time>
      </trkpt>
      <trkpt lat="43.765305010601878" lon="6.272013019770384">
        <ele>1196.98</ele>
        <time>2025-05-18T08:43:51Z</time>
      </trkpt>
      <trkpt lat="43.765311967581511" lon="6.271821996197105">
        <ele>1197.9400000000001</ele>
        <time>2025-05-18T08:43:52Z</time>
      </trkpt>
      <trkpt lat="43.765318002551794" lon="6.271657962352037">
        <ele>1198.9000000000001</ele>
        <time>2025-05-18T08:43:53Z</time>
      </trkpt>
      <trkpt lat="43.765323031693697" lon="6.271508010104299">
        <ele>1199.8599999999999</ele>
        <time>2025-05-18T08:43:54Z</time>
      </trkpt>
      <trkpt lat="43.765320014208555" lon="6.271379012614489">
        <ele>1200.3399999999999</ele>
        <time>2025-05-18T08:43:55Z</time>
      </trkpt>
      <trkpt lat="43.765306016430259" lon="6.271254038438201">
        <ele>1200.3399999999999</ele>
        <time>2025-05-18T08:43:56Z</time>
      </trkpt>
      <trkpt lat="43.765253964811563" lon="6.271199975162745">
        <ele>1200.3399999999999</ele>
        <time>2025-05-18T08:43:57Z</time>
      </trkpt>
      <trkpt lat="43.765165032818913" lon="6.271127974614501">
        <ele>1200.3399999999999</ele>
        <time>2025-05-18T08:43:58Z</time>
      </trkpt>
      <trkpt lat="43.765060007572174" lon="6.271042982116342">
        <ele>1200.3399999999999</ele>
        <time>2025-05-18T08:43:59Z</time>
      </trkpt>
      <trkpt lat="43.764667985960841" lon="6.270791022107005">
        <ele>1198.4200000000001</ele>
        <time>2025-05-18T08:44:02Z</time>
      </trkpt>
      <trkpt lat="43.764532031491399" lon="6.270727990195155">
        <ele>1197.46</ele>
        <time>2025-05-18T08:44:03Z</time>
      </trkpt>
      <trkpt lat="43.764404039829969" lon="6.270669987425208">
        <ele>1196.98</ele>
        <time>2025-05-18T08:44:04Z</time>
      </trkpt>
      <trkpt lat="43.764288034290075" lon="6.270581977441907">
        <ele>1196.02</ele>
        <time>2025-05-18T08:44:05Z</time>
      </trkpt>
      <trkpt lat="43.764201030135155" lon="6.270484998822212">
        <ele>1195.0599999999999</ele>
        <time>2025-05-18T08:44:06Z</time>
      </trkpt>
      <trkpt lat="43.764143027365208" lon="6.270318031311035">
        <ele>1194.5799999999999</ele>
        <time>2025-05-18T08:44:07Z</time>
      </trkpt>
      <trkpt lat="43.764110002666712" lon="6.270137988030911">
        <ele>1193.6099999999999</ele>
        <time>2025-05-18T08:44:08Z</time>
      </trkpt>
      <trkpt lat="43.764074966311455" lon="6.269955011084676">
        <ele>1192.6500000000001</ele>
        <time>2025-05-18T08:44:09Z</time>
      </trkpt>
      <trkpt lat="43.76404101960361" lon="6.269773961976171">
        <ele>1191.6900000000001</ele>
        <time>2025-05-18T08:44:10Z</time>
      </trkpt>
      <trkpt lat="43.764068009331822" lon="6.269601965323091">
        <ele>1190.73</ele>
        <time>2025-05-18T08:44:11Z</time>
      </trkpt>
      <trkpt lat="43.764101034030318" lon="6.26942896284163">
        <ele>1189.77</ele>
        <time>2025-05-18T08:44:12Z</time>
      </trkpt>
      <trkpt lat="43.764129029586911" lon="6.269274987280369">
        <ele>1188.8099999999999</ele>
        <time>2025-05-18T08:44:13Z</time>
      </trkpt>
      <trkpt lat="43.764154007658362" lon="6.269144983962178">
        <ele>1187.3699999999999</ele>
        <time>2025-05-18T08:44:14Z</time>
      </trkpt>
      <trkpt lat="43.764159958809614" lon="6.269058985635638">
        <ele>1185.4400000000001</ele>
        <time>2025-05-18T08:44:15Z</time>
      </trkpt>
      <trkpt lat="43.764117965474725" lon="6.26897600479424">
        <ele>1183.52</ele>
        <time>2025-05-18T08:44:16Z</time>
      </trkpt>
      <trkpt lat="43.764058034867048" lon="6.268898975104094">
        <ele>1182.0799999999999</ele>
        <time>2025-05-18T08:44:17Z</time>
      </trkpt>
      <trkpt lat="43.763978993520141" lon="6.268821023404598">
        <ele>1180.6400000000001</ele>
        <time>2025-05-18T08:44:18Z</time>
      </trkpt>
      <trkpt lat="43.763899030163884" lon="6.26874097622931">
        <ele>1179.1900000000001</ele>
        <time>2025-05-18T08:44:19Z</time>
      </trkpt>
      <trkpt lat="43.763825017958879" lon="6.268666964024305">
        <ele>1177.75</ele>
        <time>2025-05-18T08:44:20Z</time>
      </trkpt>
      <trkpt lat="43.763808002695441" lon="6.268555987626314">
        <ele>1176.3099999999999</ele>
        <time>2025-05-18T08:44:21Z</time>
      </trkpt>
      <trkpt lat="43.763815965503454" lon="6.268479041755199">
        <ele>1174.3900000000001</ele>
        <time>2025-05-18T08:44:22Z</time>
      </trkpt>
      <trkpt lat="43.763852007687092" lon="6.268383990973234">
        <ele>1172.95</ele>
        <time>2025-05-18T08:44:23Z</time>
      </trkpt>
      <trkpt lat="43.763899030163884" lon="6.268307967111468">
        <ele>1171.02</ele>
        <time>2025-05-18T08:44:24Z</time>
      </trkpt>
      <trkpt lat="43.763974970206618" lon="6.268221968784928">
        <ele>1169.5799999999999</ele>
        <time>2025-05-18T08:44:25Z</time>
      </trkpt>
      <trkpt lat="43.7640639860183" lon="6.268078973516822">
        <ele>1167.6600000000001</ele>
        <time>2025-05-18T08:44:26Z</time>
      </trkpt>
      <trkpt lat="43.764117965474725" lon="6.26792399212718">
        <ele>1165.74</ele>
        <time>2025-05-18T08:44:27Z</time>
      </trkpt>
      <trkpt lat="43.764166999608278" lon="6.267786026000977">
        <ele>1163.8099999999999</ele>
        <time>2025-05-18T08:44:28Z</time>
      </trkpt>
      <trkpt lat="43.764262972399592" lon="6.267689969390631">
        <ele>1162.3699999999999</ele>
        <time>2025-05-18T08:44:29Z</time>
      </trkpt>
      <trkpt lat="43.764359029009938" lon="6.267593996599317">
        <ele>1160.45</ele>
        <time>2025-05-18T08:44:30Z</time>
      </trkpt>
      <trkpt lat="43.764448966830969" lon="6.267504980787635">
        <ele>1158.53</ele>
        <time>2025-05-18T08:44:31Z</time>
      </trkpt>
      <trkpt lat="43.764533959329128" lon="6.267356034368277">
        <ele>1156.5999999999999</ele>
        <time>2025-05-18T08:44:32Z</time>
      </trkpt>
      <trkpt lat="43.764570001512766" lon="6.267225025221705">
        <ele>1155.1600000000001</ele>
        <time>2025-05-18T08:44:33Z</time>
      </trkpt>
      <trkpt lat="43.764599002897739" lon="6.267066020518541">
        <ele>1153.24</ele>
        <time>2025-05-18T08:44:34Z</time>
      </trkpt>
      <trkpt lat="43.764628004282713" lon="6.266898969188333">
        <ele>1151.8</ele>
        <time>2025-05-18T08:44:35Z</time>
      </trkpt>
      <trkpt lat="43.764740992337465" lon="6.266387002542615">
        <ele>1146.51</ele>
        <time>2025-05-18T08:44:38Z</time>
      </trkpt>
      <trkpt lat="43.764824979007244" lon="6.266229003667831">
        <ele>1145.0699999999999</ele>
        <time>2025-05-18T08:44:39Z</time>
      </trkpt>
      <trkpt lat="43.765183975920081" lon="6.265555014833808">
        <ele>1138.3399999999999</ele>
        <time>2025-05-18T08:44:43Z</time>
      </trkpt>
      <trkpt lat="43.765299981459975" lon="6.26543004065752">
        <ele>1136.4200000000001</ele>
        <time>2025-05-18T08:44:44Z</time>
      </trkpt>
      <trkpt lat="43.765439037233591" lon="6.265326021239162">
        <ele>1134.97</ele>
        <time>2025-05-18T08:44:45Z</time>
      </trkpt>
      <trkpt lat="43.765583960339427" lon="6.265218984335661">
        <ele>1133.53</ele>
        <time>2025-05-18T08:44:46Z</time>
      </trkpt>
      <trkpt lat="43.765727039426565" lon="6.265113037079573">
        <ele>1132.0899999999999</ele>
        <time>2025-05-18T08:44:47Z</time>
      </trkpt>
      <trkpt lat="43.765884032472968" lon="6.264997031539679">
        <ele>1130.6500000000001</ele>
        <time>2025-05-18T08:44:48Z</time>
      </trkpt>
      <trkpt lat="43.766031973063946" lon="6.264954032376409">
        <ele>1129.21</ele>
        <time>2025-05-18T08:44:49Z</time>
      </trkpt>
      <trkpt lat="43.766189971938729" lon="6.264908015727997">
        <ele>1127.76</ele>
        <time>2025-05-18T08:44:50Z</time>
      </trkpt>
      <trkpt lat="43.766548968851566" lon="6.264802990481257">
        <ele>1123.4400000000001</ele>
        <time>2025-05-18T08:44:53Z</time>
      </trkpt>
      <trkpt lat="43.766637984663248" lon="6.264684973284602">
        <ele>1122</ele>
        <time>2025-05-18T08:44:54Z</time>
      </trkpt>
      <trkpt lat="43.767042998224497" lon="6.264145011082292">
        <ele>1118.6300000000001</ele>
        <time>2025-05-18T08:44:59Z</time>
      </trkpt>
      <trkpt lat="43.767084991559386" lon="6.2640340346843">
        <ele>1118.6300000000001</ele>
        <time>2025-05-18T08:45:00Z</time>
      </trkpt>
      <trkpt lat="43.767099995166063" lon="6.263913000002503">
        <ele>1118.1500000000001</ele>
        <time>2025-05-18T08:45:01Z</time>
      </trkpt>
      <trkpt lat="43.767074011266232" lon="6.263801017776132">
        <ele>1117.6700000000001</ele>
        <time>2025-05-18T08:45:02Z</time>
      </trkpt>
      <trkpt lat="43.767044004052877" lon="6.263667996972799">
        <ele>1117.6700000000001</ele>
        <time>2025-05-18T08:45:03Z</time>
      </trkpt>
      <trkpt lat="43.767010979354382" lon="6.263522990047932">
        <ele>1117.1900000000001</ele>
        <time>2025-05-18T08:45:04Z</time>
      </trkpt>
      <trkpt lat="43.766999999061227" lon="6.263372031971812">
        <ele>1116.71</ele>
        <time>2025-05-18T08:45:05Z</time>
      </trkpt>
      <trkpt lat="43.767020031809807" lon="6.263214033097029">
        <ele>1116.71</ele>
        <time>2025-05-18T08:45:06Z</time>
      </trkpt>
      <trkpt lat="43.767079962417483" lon="6.263080006465316">
        <ele>1116.23</ele>
        <time>2025-05-18T08:45:07Z</time>
      </trkpt>
      <trkpt lat="43.767140982672572" lon="6.262944974005222">
        <ele>1115.27</ele>
        <time>2025-05-18T08:45:08Z</time>
      </trkpt>
      <trkpt lat="43.767193034291267" lon="6.262828968465328">
        <ele>1114.79</ele>
        <time>2025-05-18T08:45:09Z</time>
      </trkpt>
      <trkpt lat="43.767218012362719" lon="6.262687984853983">
        <ele>1113.8199999999999</ele>
        <time>2025-05-18T08:45:10Z</time>
      </trkpt>
      <trkpt lat="43.767247013747692" lon="6.262520011514425">
        <ele>1112.8599999999999</ele>
        <time>2025-05-18T08:45:11Z</time>
      </trkpt>
      <trkpt lat="43.767280960455537" lon="6.262328987941146">
        <ele>1111.9000000000001</ele>
        <time>2025-05-18T08:45:12Z</time>
      </trkpt>
      <trkpt lat="43.767315996810794" lon="6.262132013216615">
        <ele>1110.46</ele>
        <time>2025-05-18T08:45:13Z</time>
      </trkpt>
      <trkpt lat="43.767404006794095" lon="6.261952975764871">
        <ele>1109.5</ele>
        <time>2025-05-18T08:45:14Z</time>
      </trkpt>
      <trkpt lat="43.767492016777396" lon="6.261796988546848">
        <ele>1108.0599999999999</ele>
        <time>2025-05-18T08:45:15Z</time>
      </trkpt>
      <trkpt lat="43.767625959590077" lon="6.261697998270392">
        <ele>1106.6099999999999</ele>
        <time>2025-05-18T08:45:16Z</time>
      </trkpt>
      <trkpt lat="43.767765015363693" lon="6.261625997722149">
        <ele>1106.1300000000001</ele>
        <time>2025-05-18T08:45:17Z</time>
      </trkpt>
      <trkpt lat="43.767910022288561" lon="6.261549973860383">
        <ele>1105.1700000000001</ele>
        <time>2025-05-18T08:45:18Z</time>
      </trkpt>
      <trkpt lat="43.768065003678203" lon="6.261488031595945">
        <ele>1104.21</ele>
        <time>2025-05-18T08:45:19Z</time>
      </trkpt>
      <trkpt lat="43.76822903752327" lon="6.261458024382591">
        <ele>1103.73</ele>
        <time>2025-05-18T08:45:20Z</time>
      </trkpt>
      <trkpt lat="43.768386030569673" lon="6.261428017169237">
        <ele>1103.25</ele>
        <time>2025-05-18T08:45:21Z</time>
      </trkpt>
      <trkpt lat="43.76853397116065" lon="6.261400021612644">
        <ele>1102.29</ele>
        <time>2025-05-18T08:45:22Z</time>
      </trkpt>
      <trkpt lat="43.768680989742279" lon="6.261373031884432">
        <ele>1101.3299999999999</ele>
        <time>2025-05-18T08:45:23Z</time>
      </trkpt>
      <trkpt lat="43.768816022202373" lon="6.261293990537524">
        <ele>1100.3699999999999</ele>
        <time>2025-05-18T08:45:24Z</time>
      </trkpt>
      <trkpt lat="43.768957005813718" lon="6.261204974725843">
        <ele>1099.4000000000001</ele>
        <time>2025-05-18T08:45:25Z</time>
      </trkpt>
      <trkpt lat="43.769095977768302" lon="6.261116964742541">
        <ele>1098.4400000000001</ele>
        <time>2025-05-18T08:45:26Z</time>
      </trkpt>
      <trkpt lat="43.769242996349931" lon="6.261072959750891">
        <ele>1097.48</ele>
        <time>2025-05-18T08:45:27Z</time>
      </trkpt>
      <trkpt lat="43.769374005496502" lon="6.261034989729524">
        <ele>1097</ele>
        <time>2025-05-18T08:45:28Z</time>
      </trkpt>
      <trkpt lat="43.769480036571622" lon="6.260967012494803">
        <ele>1096.04</ele>
        <time>2025-05-18T08:45:29Z</time>
      </trkpt>
      <trkpt lat="43.769693020731211" lon="6.260801972821355">
        <ele>1094.5999999999999</ele>
        <time>2025-05-18T08:45:31Z</time>
      </trkpt>
      <trkpt lat="43.76982101239264" lon="6.260733995586634">
        <ele>1093.6400000000001</ele>
        <time>2025-05-18T08:45:32Z</time>
      </trkpt>
      <trkpt lat="43.769937017932534" lon="6.260762996971607">
        <ele>1092.6800000000001</ele>
        <time>2025-05-18T08:45:33Z</time>
      </trkpt>
      <trkpt lat="43.770061992108822" lon="6.260795015841723">
        <ele>1091.71</ele>
        <time>2025-05-18T08:45:34Z</time>
      </trkpt>
      <trkpt lat="43.770179003477097" lon="6.260824017226696">
        <ele>1091.23</ele>
        <time>2025-05-18T08:45:35Z</time>
      </trkpt>
      <trkpt lat="43.770280005410314" lon="6.260848995298147">
        <ele>1090.27</ele>
        <time>2025-05-18T08:45:36Z</time>
      </trkpt>
      <trkpt lat="43.770340019837022" lon="6.26081395894289">
        <ele>1089.3099999999999</ele>
        <time>2025-05-18T08:45:37Z</time>
      </trkpt>
      <trkpt lat="43.77040296792984" lon="6.260740030556917">
        <ele>1087.3900000000001</ele>
        <time>2025-05-18T08:45:38Z</time>
      </trkpt>
      <trkpt lat="43.770588040351868" lon="6.260541966184974">
        <ele>1084.99</ele>
        <time>2025-05-18T08:45:40Z</time>
      </trkpt>
      <trkpt lat="43.770711002871394" lon="6.260480023920536">
        <ele>1083.54</ele>
        <time>2025-05-18T08:45:41Z</time>
      </trkpt>
      <trkpt lat="43.770927004516125" lon="6.260371981188655">
        <ele>1081.1400000000001</ele>
        <time>2025-05-18T08:45:43Z</time>
      </trkpt>
      <trkpt lat="43.770990958437324" lon="6.260266033932567">
        <ele>1080.1800000000001</ele>
        <time>2025-05-18T08:45:44Z</time>
      </trkpt>
      <trkpt lat="43.771046027541161" lon="6.260140975937247">
        <ele>1079.22</ele>
        <time>2025-05-18T08:45:45Z</time>
      </trkpt>
      <trkpt lat="43.771120039746165" lon="6.259976020082831">
        <ele>1078.26</ele>
        <time>2025-05-18T08:45:46Z</time>
      </trkpt>
      <trkpt lat="43.771193968132138" lon="6.25986697152257">
        <ele>1077.29</ele>
        <time>2025-05-18T08:45:47Z</time>
      </trkpt>
      <trkpt lat="43.77128298394382" lon="6.259736968204379">
        <ele>1075.8499999999999</ele>
        <time>2025-05-18T08:45:48Z</time>
      </trkpt>
      <trkpt lat="43.77136898227036" lon="6.25960998237133">
        <ele>1074.4100000000001</ele>
        <time>2025-05-18T08:45:49Z</time>
      </trkpt>
      <trkpt lat="43.771470990031958" lon="6.25950001180172">
        <ele>1073.45</ele>
        <time>2025-05-18T08:45:50Z</time>
      </trkpt>
      <trkpt lat="43.771668970584869" lon="6.259315023198724">
        <ele>1071.53</ele>
        <time>2025-05-18T08:45:52Z</time>
      </trkpt>
      <trkpt lat="43.771724039688706" lon="6.259205974638462">
        <ele>1070.5699999999999</ele>
        <time>2025-05-18T08:45:53Z</time>
      </trkpt>
      <trkpt lat="43.7717330083251" lon="6.259084017947316">
        <ele>1069.1199999999999</ele>
        <time>2025-05-18T08:45:54Z</time>
      </trkpt>
      <trkpt lat="43.771740971133113" lon="6.258940016850829">
        <ele>1068.1600000000001</ele>
        <time>2025-05-18T08:45:55Z</time>
      </trkpt>
      <trkpt lat="43.771718004718423" lon="6.258780006319284">
        <ele>1066.24</ele>
        <time>2025-05-18T08:45:56Z</time>
      </trkpt>
      <trkpt lat="43.771682968363166" lon="6.258613960817456">
        <ele>1064.3199999999999</ele>
        <time>2025-05-18T08:45:57Z</time>
      </trkpt>
      <trkpt lat="43.771609039977193" lon="6.25847197137773">
        <ele>1062.3900000000001</ele>
        <time>2025-05-18T08:45:58Z</time>
      </trkpt>
      <trkpt lat="43.771529998630285" lon="6.25831900164485">
        <ele>1060.47</ele>
        <time>2025-05-18T08:45:59Z</time>
      </trkpt>
      <trkpt lat="43.771447017788887" lon="6.258158991113305">
        <ele>1058.55</ele>
        <time>2025-05-18T08:46:00Z</time>
      </trkpt>
      <trkpt lat="43.771347021684051" lon="6.258006021380425">
        <ele>1057.1099999999999</ele>
        <time>2025-05-18T08:46:01Z</time>
      </trkpt>
      <trkpt lat="43.771232021972537" lon="6.257875012233853">
        <ele>1055.1800000000001</ele>
        <time>2025-05-18T08:46:02Z</time>
      </trkpt>
      <trkpt lat="43.771120961755514" lon="6.257748026400805">
        <ele>1053.74</ele>
        <time>2025-05-18T08:46:03Z</time>
      </trkpt>
      <trkpt lat="43.771015014499426" lon="6.257626991719008">
        <ele>1051.8199999999999</ele>
        <time>2025-05-18T08:46:04Z</time>
      </trkpt>
      <trkpt lat="43.770937984809279" lon="6.257518026977778">
        <ele>1050.3800000000001</ele>
        <time>2025-05-18T08:46:05Z</time>
      </trkpt>
      <trkpt lat="43.770887022837996" lon="6.25735298730433">
        <ele>1048.45</ele>
        <time>2025-05-18T08:46:06Z</time>
      </trkpt>
      <trkpt lat="43.770832037553191" lon="6.257177973166108">
        <ele>1046.53</ele>
        <time>2025-05-18T08:46:07Z</time>
      </trkpt>
      <trkpt lat="43.770778980106115" lon="6.257004970684648">
        <ele>1045.0899999999999</ele>
        <time>2025-05-18T08:46:08Z</time>
      </trkpt>
      <trkpt lat="43.770762970671058" lon="6.256827022880316">
        <ele>1043.1700000000001</ele>
        <time>2025-05-18T08:46:09Z</time>
      </trkpt>
      <trkpt lat="43.770778980106115" lon="6.256649997085333">
        <ele>1041.73</ele>
        <time>2025-05-18T08:46:10Z</time>
      </trkpt>
      <trkpt lat="43.770792977884412" lon="6.256482023745775">
        <ele>1039.8</ele>
        <time>2025-05-18T08:46:11Z</time>
      </trkpt>
      <trkpt lat="43.770806975662708" lon="6.256317989900708">
        <ele>1038.3599999999999</ele>
        <time>2025-05-18T08:46:12Z</time>
      </trkpt>
      <trkpt lat="43.770818961784244" lon="6.256178012117744">
        <ele>1036.9200000000001</ele>
        <time>2025-05-18T08:46:13Z</time>
      </trkpt>
      <trkpt lat="43.770855003967881" lon="6.256082039326429">
        <ele>1035</ele>
        <time>2025-05-18T08:46:14Z</time>
      </trkpt>
      <trkpt lat="43.770918035879731" lon="6.255996040999889">
        <ele>1033.55</ele>
        <time>2025-05-18T08:46:15Z</time>
      </trkpt>
      <trkpt lat="43.771042004227638" lon="6.255975002422929">
        <ele>1031.6300000000001</ele>
        <time>2025-05-18T08:46:16Z</time>
      </trkpt>
      <trkpt lat="43.771077962592244" lon="6.256028981879354">
        <ele>1030.6700000000001</ele>
        <time>2025-05-18T08:46:17Z</time>
      </trkpt>
      <trkpt lat="43.771120039746165" lon="6.256092013791204">
        <ele>1028.75</ele>
        <time>2025-05-18T08:46:18Z</time>
      </trkpt>
      <trkpt lat="43.771122973412275" lon="6.256223022937775">
        <ele>1027.3099999999999</ele>
        <time>2025-05-18T08:46:19Z</time>
      </trkpt>
      <trkpt lat="43.771126996725798" lon="6.256354032084346">
        <ele>1025.3800000000001</ele>
        <time>2025-05-18T08:46:20Z</time>
      </trkpt>
      <trkpt lat="43.77113102003932" lon="6.25651597045362">
        <ele>1023.9400000000001</ele>
        <time>2025-05-18T08:46:21Z</time>
      </trkpt>
      <trkpt lat="43.771134959533811" lon="6.256681010127068">
        <ele>1022.02</ele>
        <time>2025-05-18T08:46:22Z</time>
      </trkpt>
      <trkpt lat="43.771138982847333" lon="6.256825011223555">
        <ele>1021.0599999999999</ele>
        <time>2025-05-18T08:46:23Z</time>
      </trkpt>
      <trkpt lat="43.771177958697081" lon="6.256973035633564">
        <ele>1019.62</ele>
        <time>2025-05-18T08:46:24Z</time>
      </trkpt>
      <trkpt lat="43.771268986165524" lon="6.257107984274626">
        <ele>1018.17</ele>
        <time>2025-05-18T08:46:25Z</time>
      </trkpt>
      <trkpt lat="43.771369988098741" lon="6.257148971781135">
        <ele>1016.25</ele>
        <time>2025-05-18T08:46:26Z</time>
      </trkpt>
      <trkpt lat="43.771495968103409" lon="6.257199011743069">
        <ele>1014.8099999999999</ele>
        <time>2025-05-18T08:46:27Z</time>
      </trkpt>
      <trkpt lat="43.771640975028276" lon="6.257257014513016">
        <ele>1012.41</ele>
        <time>2025-05-18T08:46:28Z</time>
      </trkpt>
      <trkpt lat="43.771787993609905" lon="6.257316023111343">
        <ele>1010.48</ele>
        <time>2025-05-18T08:46:29Z</time>
      </trkpt>
      <trkpt lat="43.772259978577495" lon="6.257496988400817">
        <ele>1003.75</ele>
        <time>2025-05-18T08:46:32Z</time>
      </trkpt>
      <trkpt lat="43.772744033485651" lon="6.257596984505653">
        <ele>997.01999999999998</ele>
        <time>2025-05-18T08:46:35Z</time>
      </trkpt>
      <trkpt lat="43.772897003218532" lon="6.257607964798808">
        <ele>994.62</ele>
        <time>2025-05-18T08:46:36Z</time>
      </trkpt>
      <trkpt lat="43.773076040670276" lon="6.257584998384118">
        <ele>992.22000000000003</ele>
        <time>2025-05-18T08:46:37Z</time>
      </trkpt>
      <trkpt lat="43.773220041766763" lon="6.257521966472268">
        <ele>989.80999999999995</ele>
        <time>2025-05-18T08:46:38Z</time>
      </trkpt>
      <trkpt lat="43.773358007892966" lon="6.257461030036211">
        <ele>987.88999999999999</ele>
        <time>2025-05-18T08:46:39Z</time>
      </trkpt>
      <trkpt lat="43.773544002324343" lon="6.257378971204162">
        <ele>985.49000000000001</ele>
        <time>2025-05-18T08:46:40Z</time>
      </trkpt>
      <trkpt lat="43.773623965680599" lon="6.257386012002826">
        <ele>982.60000000000002</ele>
        <time>2025-05-18T08:46:42Z</time>
      </trkpt>
      <trkpt lat="43.773801997303963" lon="6.257401015609503">
        <ele>981.63999999999999</ele>
        <time>2025-05-18T08:46:43Z</time>
      </trkpt>
      <trkpt lat="43.77381700091064" lon="6.257362039759755">
        <ele>980.67999999999995</ele>
        <time>2025-05-18T08:46:44Z</time>
      </trkpt>
      <trkpt lat="43.773758998140693" lon="6.257186019793153">
        <ele>979.72000000000003</ele>
        <time>2025-05-18T08:46:45Z</time>
      </trkpt>
      <trkpt lat="43.773758998140693" lon="6.257186019793153">
        <ele>979.72000000000003</ele>
        <time>2025-05-18T08:46:46Z</time>
      </trkpt>
      <trkpt lat="43.773680040612817" lon="6.257171016186476">
        <ele>979.72000000000003</ele>
        <time>2025-05-18T08:46:47Z</time>
      </trkpt>
      <trkpt lat="43.773655984550714" lon="6.257165987044573">
        <ele>980.67999999999995</ele>
        <time>2025-05-18T08:46:48Z</time>
      </trkpt>
      <trkpt lat="43.773578032851219" lon="6.257150983437896">
        <ele>980.20000000000005</ele>
        <time>2025-05-18T08:46:49Z</time>
      </trkpt>
      <trkpt lat="43.773365970700979" lon="6.257109995931387">
        <ele>978.75999999999999</ele>
        <time>2025-05-18T08:46:51Z</time>
      </trkpt>
      <trkpt lat="43.773246025666595" lon="6.257087029516697">
        <ele>978.27999999999997</ele>
        <time>2025-05-18T08:46:52Z</time>
      </trkpt>
      <trkpt lat="43.77310998737812" lon="6.257060961797833">
        <ele>977.32000000000005</ele>
        <time>2025-05-18T08:46:53Z</time>
      </trkpt>
      <trkpt lat="43.772715032100677" lon="6.256985021755099">
        <ele>974.42999999999995</ele>
        <time>2025-05-18T08:46:56Z</time>
      </trkpt>
      <trkpt lat="43.772643031552434" lon="6.256971023976803">
        <ele>973.95000000000005</ele>
        <time>2025-05-18T08:46:57Z</time>
      </trkpt>
      <trkpt lat="43.772620987147093" lon="6.256949985399842">
        <ele>972.99000000000001</ele>
        <time>2025-05-18T08:46:58Z</time>
      </trkpt>
      <trkpt lat="43.772557033225894" lon="6.256886031478643">
        <ele>972.02999999999997</ele>
        <time>2025-05-18T08:46:59Z</time>
      </trkpt>
      <trkpt lat="43.772561978548765" lon="6.256848983466625">
        <ele>970.59000000000003</ele>
        <time>2025-05-18T08:47:00Z</time>
      </trkpt>
      <trkpt lat="43.772681001573801" lon="6.256734989583492">
        <ele>969.14999999999998</ele>
        <time>2025-05-18T08:47:01Z</time>
      </trkpt>
      <trkpt lat="43.772774040699005" lon="6.256734989583492">
        <ele>967.70000000000005</ele>
        <time>2025-05-18T08:47:02Z</time>
      </trkpt>
      <trkpt lat="43.772877976298332" lon="6.256734989583492">
        <ele>966.25999999999999</ele>
        <time>2025-05-18T08:47:03Z</time>
      </trkpt>
      <trkpt lat="43.772995993494987" lon="6.256734989583492">
        <ele>965.29999999999995</ele>
        <time>2025-05-18T08:47:04Z</time>
      </trkpt>
      <trkpt lat="43.773104958236217" lon="6.256689978763461">
        <ele>963.86000000000001</ele>
        <time>2025-05-18T08:47:05Z</time>
      </trkpt>
      <trkpt lat="43.773232027888298" lon="6.256613032892346">
        <ele>962.89999999999998</ele>
        <time>2025-05-18T08:47:06Z</time>
      </trkpt>
      <trkpt lat="43.773361025378108" lon="6.256533991545439">
        <ele>961.46000000000004</ele>
        <time>2025-05-18T08:47:07Z</time>
      </trkpt>
      <trkpt lat="43.773724967613816" lon="6.256313966587186">
        <ele>958.09000000000003</ele>
        <time>2025-05-18T08:47:10Z</time>
      </trkpt>
      <trkpt lat="43.773835022002459" lon="6.256248001009226">
        <ele>957.13</ele>
        <time>2025-05-18T08:47:11Z</time>
      </trkpt>
      <trkpt lat="43.773938035592437" lon="6.256241966038942">
        <ele>956.16999999999996</ele>
        <time>2025-05-18T08:47:12Z</time>
      </trkpt>
      <trkpt lat="43.774058986455202" lon="6.256241966038942">
        <ele>956.16999999999996</ele>
        <time>2025-05-18T08:47:13Z</time>
      </trkpt>
      <trkpt lat="43.774086982011795" lon="6.256279014050961">
        <ele>955.21000000000004</ele>
        <time>2025-05-18T08:47:14Z</time>
      </trkpt>
      <trkpt lat="43.774187983945012" lon="6.256417986005545">
        <ele>953.76999999999998</ele>
        <time>2025-05-18T08:47:15Z</time>
      </trkpt>
      <trkpt lat="43.774196030572057" lon="6.256571961566806">
        <ele>952.32000000000005</ele>
        <time>2025-05-18T08:47:16Z</time>
      </trkpt>
      <trkpt lat="43.77420399338007" lon="6.256745969876647">
        <ele>951.36000000000001</ele>
        <time>2025-05-18T08:47:17Z</time>
      </trkpt>
      <trkpt lat="43.774213967844844" lon="6.256945040076971">
        <ele>950.39999999999998</ele>
        <time>2025-05-18T08:47:18Z</time>
      </trkpt>
      <trkpt lat="43.774293009191751" lon="6.257531018927693">
        <ele>946.07000000000005</ele>
        <time>2025-05-18T08:47:21Z</time>
      </trkpt>
      <trkpt lat="43.774340031668544" lon="6.257710978388786">
        <ele>945.11000000000001</ele>
        <time>2025-05-18T08:47:22Z</time>
      </trkpt>
      <trkpt lat="43.774402979761362" lon="6.257867971435189">
        <ele>943.66999999999996</ele>
        <time>2025-05-18T08:47:23Z</time>
      </trkpt>
      <trkpt lat="43.774488978087902" lon="6.258029993623495">
        <ele>942.71000000000004</ele>
        <time>2025-05-18T08:47:24Z</time>
      </trkpt>
      <trkpt lat="43.774583023041487" lon="6.258206013590097">
        <ele>941.75</ele>
        <time>2025-05-18T08:47:25Z</time>
      </trkpt>
      <trkpt lat="43.77506498247385" lon="6.259108996018767">
        <ele>936.94000000000005</ele>
        <time>2025-05-18T08:47:30Z</time>
      </trkpt>
      <trkpt lat="43.775142012163997" lon="6.259252997115254">
        <ele>935.98000000000002</ele>
        <time>2025-05-18T08:47:31Z</time>
      </trkpt>
      <trkpt lat="43.775218036025763" lon="6.259395992383361">
        <ele>935.01999999999998</ele>
        <time>2025-05-18T08:47:32Z</time>
      </trkpt>
      <trkpt lat="43.775261035189033" lon="6.259610988199711">
        <ele>933.58000000000004</ele>
        <time>2025-05-18T08:47:33Z</time>
      </trkpt>
      <trkpt lat="43.775261035189033" lon="6.259717019274831">
        <ele>932.13999999999999</ele>
        <time>2025-05-18T08:47:34Z</time>
      </trkpt>
      <trkpt lat="43.775261035189033" lon="6.259854985401034">
        <ele>930.69000000000005</ele>
        <time>2025-05-18T08:47:35Z</time>
      </trkpt>
      <trkpt lat="43.775261035189033" lon="6.259967973455787">
        <ele>929.73000000000002</ele>
        <time>2025-05-18T08:47:36Z</time>
      </trkpt>
      <trkpt lat="43.775261035189033" lon="6.260057995095849">
        <ele>928.76999999999998</ele>
        <time>2025-05-18T08:47:37Z</time>
      </trkpt>
      <trkpt lat="43.775261035189033" lon="6.260190010070801">
        <ele>927.33000000000004</ele>
        <time>2025-05-18T08:47:38Z</time>
      </trkpt>
      <trkpt lat="43.775267992168665" lon="6.260205013677478">
        <ele>926.85000000000002</ele>
        <time>2025-05-18T08:47:39Z</time>
      </trkpt>
      <trkpt lat="43.775347033515573" lon="6.260362006723881">
        <ele>925.88999999999999</ele>
        <time>2025-05-18T08:47:40Z</time>
      </trkpt>
      <trkpt lat="43.775477036833763" lon="6.260272990912199">
        <ele>925.40999999999997</ele>
        <time>2025-05-18T08:47:41Z</time>
      </trkpt>
      <trkpt lat="43.775468990206718" lon="6.260093031451106">
        <ele>924.92999999999995</ele>
        <time>2025-05-18T08:47:42Z</time>
      </trkpt>
      <trkpt lat="43.775452980771661" lon="6.260014995932579">
        <ele>924.45000000000005</ele>
        <time>2025-05-18T08:47:43Z</time>
      </trkpt>
      <trkpt lat="43.775432026013732" lon="6.25990997068584">
        <ele>924.45000000000005</ele>
        <time>2025-05-18T08:47:44Z</time>
      </trkpt>
      <trkpt lat="43.775410987436771" lon="6.259804023429751">
        <ele>923.96000000000004</ele>
        <time>2025-05-18T08:47:45Z</time>
      </trkpt>
      <trkpt lat="43.775421967729926" lon="6.259665973484516">
        <ele>923.96000000000004</ele>
        <time>2025-05-18T08:47:46Z</time>
      </trkpt>
      <trkpt lat="43.775431020185351" lon="6.259538987651467">
        <ele>923.96000000000004</ele>
        <time>2025-05-18T08:47:47Z</time>
      </trkpt>
      <trkpt lat="43.775477036833763" lon="6.259443014860153">
        <ele>923.96000000000004</ele>
        <time>2025-05-18T08:47:48Z</time>
      </trkpt>
      <trkpt lat="43.775539984926581" lon="6.25932801514864">
        <ele>923.48000000000002</ele>
        <time>2025-05-18T08:47:49Z</time>
      </trkpt>
      <trkpt lat="43.775611985474825" lon="6.259236987680197">
        <ele>923</ele>
        <time>2025-05-18T08:47:50Z</time>
      </trkpt>
      <trkpt lat="43.775693960487843" lon="6.259149983525276">
        <ele>922.51999999999998</ele>
        <time>2025-05-18T08:47:51Z</time>
      </trkpt>
      <trkpt lat="43.776047006249428" lon="6.258784029632807">
        <ele>922.51999999999998</ele>
        <time>2025-05-18T08:47:55Z</time>
      </trkpt>
      <trkpt lat="43.776138033717871" lon="6.25866299495101">
        <ele>922.51999999999998</ele>
        <time>2025-05-18T08:47:56Z</time>
      </trkpt>
      <trkpt lat="43.776219002902508" lon="6.258528968319297">
        <ele>922.51999999999998</ele>
        <time>2025-05-18T08:47:57Z</time>
      </trkpt>
      <trkpt lat="43.776303995400667" lon="6.258386978879571">
        <ele>922.51999999999998</ele>
        <time>2025-05-18T08:47:58Z</time>
      </trkpt>
      <trkpt lat="43.776387982070446" lon="6.258247001096606">
        <ele>922.51999999999998</ele>
        <time>2025-05-18T08:47:59Z</time>
      </trkpt>
      <trkpt lat="43.776469035074115" lon="6.258111968636513">
        <ele>922.03999999999996</ele>
        <time>2025-05-18T08:48:00Z</time>
      </trkpt>
      <trkpt lat="43.776556961238384" lon="6.257972996681929">
        <ele>921.55999999999995</ele>
        <time>2025-05-18T08:48:01Z</time>
      </trkpt>
      <trkpt lat="43.776668021455407" lon="6.257875012233853">
        <ele>920.60000000000002</ele>
        <time>2025-05-18T08:48:02Z</time>
      </trkpt>
      <trkpt lat="43.777550971135497" lon="6.257104966789484">
        <ele>918.67999999999995</ele>
        <time>2025-05-18T08:48:09Z</time>
      </trkpt>
      <trkpt lat="43.777633029967546" lon="6.257033972069621">
        <ele>918.67999999999995</ele>
        <time>2025-05-18T08:48:10Z</time>
      </trkpt>
      <trkpt lat="43.777690026909113" lon="6.256984015926719">
        <ele>919.15999999999997</ele>
        <time>2025-05-18T08:48:11Z</time>
      </trkpt>
      <trkpt lat="43.777729002758861" lon="6.256949985399842">
        <ele>919.63999999999999</ele>
        <time>2025-05-18T08:48:12Z</time>
      </trkpt>
      <trkpt lat="43.777721961960196" lon="6.25692299567163">
        <ele>921.08000000000004</ele>
        <time>2025-05-18T08:48:13Z</time>
      </trkpt>
      <trkpt lat="43.77770503051579" lon="6.256863987073302">
        <ele>923.48000000000002</ele>
        <time>2025-05-18T08:48:14Z</time>
      </trkpt>
      <trkpt lat="43.777638981118798" lon="6.256868010386825">
        <ele>925.88999999999999</ele>
        <time>2025-05-18T08:48:15Z</time>
      </trkpt>
      <trkpt lat="43.777588019147515" lon="6.256918972358108">
        <ele>926.85000000000002</ele>
        <time>2025-05-18T08:48:16Z</time>
      </trkpt>
      <trkpt lat="43.777523981407285" lon="6.256982004269958">
        <ele>927.33000000000004</ele>
        <time>2025-05-18T08:48:17Z</time>
      </trkpt>
      <trkpt lat="43.777448041364551" lon="6.257059033960104">
        <ele>927.33000000000004</ele>
        <time>2025-05-18T08:48:18Z</time>
      </trkpt>
      <trkpt lat="43.77736397087574" lon="6.257143020629883">
        <ele>927.80999999999995</ele>
        <time>2025-05-18T08:48:19Z</time>
      </trkpt>
      <trkpt lat="43.777261041104794" lon="6.257190965116024">
        <ele>927.80999999999995</ele>
        <time>2025-05-18T08:48:20Z</time>
      </trkpt>
      <trkpt lat="43.776441039517522" lon="6.257572006434202">
        <ele>924.45000000000005</ele>
        <time>2025-05-18T08:48:26Z</time>
      </trkpt>
      <trkpt lat="43.776311036199331" lon="6.257655993103981">
        <ele>923.48000000000002</ele>
        <time>2025-05-18T08:48:27Z</time>
      </trkpt>
      <trkpt lat="43.776046000421047" lon="6.2578259781003">
        <ele>922.03999999999996</ele>
        <time>2025-05-18T08:48:29Z</time>
      </trkpt>
      <trkpt lat="43.775936029851437" lon="6.257896972820163">
        <ele>921.08000000000004</ele>
        <time>2025-05-18T08:48:30Z</time>
      </trkpt>
      <trkpt lat="43.775851959362626" lon="6.257951036095619">
        <ele>920.12</ele>
        <time>2025-05-18T08:48:31Z</time>
      </trkpt>
      <trkpt lat="43.775774007663131" lon="6.257920023053885">
        <ele>918.67999999999995</ele>
        <time>2025-05-18T08:48:32Z</time>
      </trkpt>
      <trkpt lat="43.775681974366307" lon="6.257851039990783">
        <ele>917.72000000000003</ele>
        <time>2025-05-18T08:48:33Z</time>
      </trkpt>
      <trkpt lat="43.775636963546276" lon="6.257731011137366">
        <ele>916.26999999999998</ele>
        <time>2025-05-18T08:48:34Z</time>
      </trkpt>
      <trkpt lat="43.775582984089851" lon="6.25758801586926">
        <ele>915.30999999999995</ele>
        <time>2025-05-18T08:48:35Z</time>
      </trkpt>
      <trkpt lat="43.775518024340272" lon="6.25745901837945">
        <ele>913.87</ele>
        <time>2025-05-18T08:48:36Z</time>
      </trkpt>
      <trkpt lat="43.775431020185351" lon="6.257316023111343">
        <ele>912.42999999999995</ele>
        <time>2025-05-18T08:48:37Z</time>
      </trkpt>
      <trkpt lat="43.775324989110231" lon="6.257143020629883">
        <ele>910.99000000000001</ele>
        <time>2025-05-18T08:48:38Z</time>
      </trkpt>
      <trkpt lat="43.775281989946961" lon="6.256947973743081">
        <ele>909.53999999999996</ele>
        <time>2025-05-18T08:48:39Z</time>
      </trkpt>
      <trkpt lat="43.77527603879571" lon="6.256772037595511">
        <ele>908.10000000000002</ele>
        <time>2025-05-18T08:48:40Z</time>
      </trkpt>
      <trkpt lat="43.775270003825426" lon="6.256582019850612">
        <ele>906.65999999999997</ele>
        <time>2025-05-18T08:48:41Z</time>
      </trkpt>
      <trkpt lat="43.775262963026762" lon="6.256374986842275">
        <ele>905.22000000000003</ele>
        <time>2025-05-18T08:48:42Z</time>
      </trkpt>
      <trkpt lat="43.77523697912693" lon="6.256172982975841">
        <ele>903.77999999999997</ele>
        <time>2025-05-18T08:48:43Z</time>
      </trkpt>
      <trkpt lat="43.775201020762324" lon="6.255948012694717">
        <ele>902.33000000000004</ele>
        <time>2025-05-18T08:48:44Z</time>
      </trkpt>
      <trkpt lat="43.775137988850474" lon="6.255550039932132">
        <ele>898.97000000000003</ele>
        <time>2025-05-18T08:48:46Z</time>
      </trkpt>
      <trkpt lat="43.775153998285532" lon="6.255362033843994">
        <ele>897.52999999999997</ele>
        <time>2025-05-18T08:48:47Z</time>
      </trkpt>
      <trkpt lat="43.775212001055479" lon="6.255214009433985">
        <ele>896.09000000000003</ele>
        <time>2025-05-18T08:48:48Z</time>
      </trkpt>
      <trkpt lat="43.775268997997046" lon="6.255069002509117">
        <ele>895.61000000000001</ele>
        <time>2025-05-18T08:48:49Z</time>
      </trkpt>
      <trkpt lat="43.775334041565657" lon="6.25490396283567">
        <ele>894.63999999999999</ele>
        <time>2025-05-18T08:48:50Z</time>
      </trkpt>
      <trkpt lat="43.775395983830094" lon="6.254725009202957">
        <ele>893.20000000000005</ele>
        <time>2025-05-18T08:48:51Z</time>
      </trkpt>
      <trkpt lat="43.775435965508223" lon="6.25451403670013">
        <ele>891.27999999999997</ele>
        <time>2025-05-18T08:48:52Z</time>
      </trkpt>
      <trkpt lat="43.775475025177002" lon="6.254304992035031">
        <ele>889.84000000000003</ele>
        <time>2025-05-18T08:48:53Z</time>
      </trkpt>
      <trkpt lat="43.775518024340272" lon="6.254074992612004">
        <ele>888.88</ele>
        <time>2025-05-18T08:48:54Z</time>
      </trkpt>
      <trkpt lat="43.775607962161303" lon="6.253884974867106">
        <ele>888.39999999999998</ele>
        <time>2025-05-18T08:48:55Z</time>
      </trkpt>
      <trkpt lat="43.776110038161278" lon="6.252770014107227">
        <ele>882.63</ele>
        <time>2025-05-18T08:49:00Z</time>
      </trkpt>
      <trkpt lat="43.776199975982308" lon="6.252535991370678">
        <ele>881.66999999999996</ele>
        <time>2025-05-18T08:49:01Z</time>
      </trkpt>
      <trkpt lat="43.776277005672455" lon="6.252310015261173">
        <ele>880.22000000000003</ele>
        <time>2025-05-18T08:49:02Z</time>
      </trkpt>
      <trkpt lat="43.776314975693822" lon="6.252064006403089">
        <ele>878.77999999999997</ele>
        <time>2025-05-18T08:49:03Z</time>
      </trkpt>
      <trkpt lat="43.776354035362601" lon="6.251815985888243">
        <ele>877.82000000000005</ele>
        <time>2025-05-18T08:49:04Z</time>
      </trkpt>
      <trkpt lat="43.776383958756924" lon="6.251558996737003">
        <ele>876.38</ele>
        <time>2025-05-18T08:49:05Z</time>
      </trkpt>
      <trkpt lat="43.77650298178196" lon="6.250340016558766">
        <ele>869.16999999999996</ele>
        <time>2025-05-18T08:49:10Z</time>
      </trkpt>
      <trkpt lat="43.776582023128867" lon="6.250151004642248">
        <ele>868.21000000000004</ele>
        <time>2025-05-18T08:49:11Z</time>
      </trkpt>
      <trkpt lat="43.777092983946204" lon="6.248971000313759">
        <ele>859.55999999999995</ele>
        <time>2025-05-18T08:49:17Z</time>
      </trkpt>
      <trkpt lat="43.777139000594616" lon="6.248777965083718">
        <ele>858.11000000000001</ele>
        <time>2025-05-18T08:49:18Z</time>
      </trkpt>
      <trkpt lat="43.777161967009306" lon="6.248572021722794">
        <ele>856.19000000000005</ele>
        <time>2025-05-18T08:49:19Z</time>
      </trkpt>
      <trkpt lat="43.777140006422997" lon="6.248380998149514">
        <ele>854.75</ele>
        <time>2025-05-18T08:49:20Z</time>
      </trkpt>
      <trkpt lat="43.777099018916488" lon="6.248211013153195">
        <ele>852.83000000000004</ele>
        <time>2025-05-18T08:49:21Z</time>
      </trkpt>
      <trkpt lat="43.777031963691115" lon="6.24804899096489">
        <ele>851.87</ele>
        <time>2025-05-18T08:49:22Z</time>
      </trkpt>
      <trkpt lat="43.776964992284775" lon="6.24790096655488">
        <ele>850.89999999999998</ele>
        <time>2025-05-18T08:49:23Z</time>
      </trkpt>
      <trkpt lat="43.776863990351558" lon="6.24777096323669">
        <ele>849.46000000000004</ele>
        <time>2025-05-18T08:49:24Z</time>
      </trkpt>
      <trkpt lat="43.776753013953567" lon="6.247627967968583">
        <ele>848.01999999999998</ele>
        <time>2025-05-18T08:49:25Z</time>
      </trkpt>
      <trkpt lat="43.776633990928531" lon="6.247474998235703">
        <ele>846.58000000000004</ele>
        <time>2025-05-18T08:49:26Z</time>
      </trkpt>
      <trkpt lat="43.776513040065765" lon="6.247320016846061">
        <ele>845.13999999999999</ele>
        <time>2025-05-18T08:49:27Z</time>
      </trkpt>
      <trkpt lat="43.775933012366295" lon="6.246534967795014">
        <ele>839.37</ele>
        <time>2025-05-18T08:49:32Z</time>
      </trkpt>
      <trkpt lat="43.77588196657598" lon="6.24637302942574">
        <ele>837.92999999999995</ele>
        <time>2025-05-18T08:49:33Z</time>
      </trkpt>
      <trkpt lat="43.77587903290987" lon="6.246217964217067">
        <ele>836.96000000000004</ele>
        <time>2025-05-18T08:49:34Z</time>
      </trkpt>
      <trkpt lat="43.775877021253109" lon="6.246073041111231">
        <ele>836.48000000000002</ele>
        <time>2025-05-18T08:49:35Z</time>
      </trkpt>
      <trkpt lat="43.775874003767967" lon="6.245933985337615">
        <ele>836</ele>
        <time>2025-05-18T08:49:36Z</time>
      </trkpt>
      <trkpt lat="43.775871992111206" lon="6.245787972584367">
        <ele>836</ele>
        <time>2025-05-18T08:49:37Z</time>
      </trkpt>
      <trkpt lat="43.77590099349618" lon="6.245009964331985">
        <ele>834.08000000000004</ele>
        <time>2025-05-18T08:49:42Z</time>
      </trkpt>
      <trkpt lat="43.775927983224392" lon="6.244859006255865">
        <ele>833.60000000000002</ele>
        <time>2025-05-18T08:49:43Z</time>
      </trkpt>
      <trkpt lat="43.775985985994339" lon="6.244607968255878">
        <ele>831.67999999999995</ele>
        <time>2025-05-18T08:49:45Z</time>
      </trkpt>
      <trkpt lat="43.775972994044423" lon="6.244519036263228">
        <ele>830.72000000000003</ele>
        <time>2025-05-18T08:49:46Z</time>
      </trkpt>
      <trkpt lat="43.775923037901521" lon="6.244470002129674">
        <ele>829.75999999999999</ele>
        <time>2025-05-18T08:49:47Z</time>
      </trkpt>
      <trkpt lat="43.775851037353277" lon="6.2444410007447">
        <ele>828.78999999999996</ele>
        <time>2025-05-18T08:49:48Z</time>
      </trkpt>
      <trkpt lat="43.775760009884834" lon="6.244443012401462">
        <ele>827.83000000000004</ele>
        <time>2025-05-18T08:49:49Z</time>
      </trkpt>
      <trkpt lat="43.774860966950655" lon="6.244415016844869">
        <ele>821.10000000000002</ele>
        <time>2025-05-18T08:49:56Z</time>
      </trkpt>
      <trkpt lat="43.774723000824451" lon="6.244376040995121">
        <ele>820.62</ele>
        <time>2025-05-18T08:49:57Z</time>
      </trkpt>
      <trkpt lat="43.774584028869867" lon="6.244335975497961">
        <ele>819.65999999999997</ele>
        <time>2025-05-18T08:49:58Z</time>
      </trkpt>
      <trkpt lat="43.77444296143949" lon="6.244294987991452">
        <ele>818.70000000000005</ele>
        <time>2025-05-18T08:49:59Z</time>
      </trkpt>
      <trkpt lat="43.774020010605454" lon="6.244174037128687">
        <ele>815.82000000000005</ele>
        <time>2025-05-18T08:50:02Z</time>
      </trkpt>
      <trkpt lat="43.773226998746395" lon="6.243843035772443">
        <ele>808.61000000000001</ele>
        <time>2025-05-18T08:50:08Z</time>
      </trkpt>
      <trkpt lat="43.773113004863262" lon="6.243848986923695">
        <ele>807.63999999999999</ele>
        <time>2025-05-18T08:50:09Z</time>
      </trkpt>
      <trkpt lat="43.772901026532054" lon="6.24386097304523">
        <ele>805.24000000000001</ele>
        <time>2025-05-18T08:50:11Z</time>
      </trkpt>
      <trkpt lat="43.772788038477302" lon="6.243789978325367">
        <ele>803.79999999999995</ele>
        <time>2025-05-18T08:50:12Z</time>
      </trkpt>
      <trkpt lat="43.772684019058943" lon="6.243726024404168">
        <ele>803.32000000000005</ele>
        <time>2025-05-18T08:50:13Z</time>
      </trkpt>
      <trkpt lat="43.772583017125726" lon="6.243661986663938">
        <ele>802.36000000000001</ele>
        <time>2025-05-18T08:50:14Z</time>
      </trkpt>
      <trkpt lat="43.772486038506031" lon="6.243657963350415">
        <ele>801.39999999999998</ele>
        <time>2025-05-18T08:50:15Z</time>
      </trkpt>
      <trkpt lat="43.772402973845601" lon="6.243671961128712">
        <ele>799.95000000000005</ele>
        <time>2025-05-18T08:50:16Z</time>
      </trkpt>
      <trkpt lat="43.772331979125738" lon="6.243684031069279">
        <ele>798.99000000000001</ele>
        <time>2025-05-18T08:50:17Z</time>
      </trkpt>
      <trkpt lat="43.77227196469903" lon="6.243694005534053">
        <ele>798.50999999999999</ele>
        <time>2025-05-18T08:50:18Z</time>
      </trkpt>
      <trkpt lat="43.771982034668326" lon="6.243639020249248">
        <ele>792.74000000000001</ele>
        <time>2025-05-18T08:50:26Z</time>
      </trkpt>
      <trkpt lat="43.771982034668326" lon="6.243639020249248">
        <ele>791.77999999999997</ele>
        <time>2025-05-18T08:50:35Z</time>
      </trkpt>
      <trkpt lat="43.771982034668326" lon="6.243639020249248">
        <ele>791.29999999999995</ele>
        <time>2025-05-18T08:51:19Z</time>
      </trkpt>
      <trkpt lat="43.771982034668326" lon="6.243639020249248">
        <ele>789.86000000000001</ele>
        <time>2025-05-18T08:51:38Z</time>
      </trkpt>
      <trkpt lat="43.771953033283353" lon="6.243634996935725">
        <ele>789.86000000000001</ele>
        <time>2025-05-18T08:51:53Z</time>
      </trkpt>
      <trkpt lat="43.771952027454972" lon="6.243634996935725">
        <ele>789.86000000000001</ele>
        <time>2025-05-18T08:51:54Z</time>
      </trkpt>
      <trkpt lat="43.772041965276003" lon="6.243637008592486">
        <ele>789.86000000000001</ele>
        <time>2025-05-18T08:51:55Z</time>
      </trkpt>
      <trkpt lat="43.772041965276003" lon="6.24355997890234">
        <ele>789.86000000000001</ele>
        <time>2025-05-18T08:52:09Z</time>
      </trkpt>
      <trkpt lat="43.772041965276003" lon="6.24355997890234">
        <ele>789.86000000000001</ele>
        <time>2025-05-18T08:52:10Z</time>
      </trkpt>
      <trkpt lat="43.772075995802879" lon="6.243511028587818">
        <ele>789.86000000000001</ele>
        <time>2025-05-18T08:52:11Z</time>
      </trkpt>
      <trkpt lat="43.772620987147093" lon="6.243094028905034">
        <ele>787.46000000000004</ele>
        <time>2025-05-18T08:52:17Z</time>
      </trkpt>
      <trkpt lat="43.772731041535735" lon="6.243055975064635">
        <ele>786.01999999999998</ele>
        <time>2025-05-18T08:52:18Z</time>
      </trkpt>
      <trkpt lat="43.773274021223187" lon="6.242917003110051">
        <ele>782.64999999999998</ele>
        <time>2025-05-18T08:52:23Z</time>
      </trkpt>
      <trkpt lat="43.773369994014502" lon="6.242917003110051">
        <ele>782.16999999999996</ele>
        <time>2025-05-18T08:52:24Z</time>
      </trkpt>
      <trkpt lat="43.774001989513636" lon="6.243027979508042">
        <ele>778.80999999999995</ele>
        <time>2025-05-18T08:52:31Z</time>
      </trkpt>
      <trkpt lat="43.774355035275221" lon="6.243095034733415">
        <ele>777.84000000000003</ele>
        <time>2025-05-18T08:52:35Z</time>
      </trkpt>
      <trkpt lat="43.774425024166703" lon="6.243106015026569">
        <ele>777.36000000000001</ele>
        <time>2025-05-18T08:52:36Z</time>
      </trkpt>
      <trkpt lat="43.774499036371708" lon="6.243115989491344">
        <ele>776.88</ele>
        <time>2025-05-18T08:52:37Z</time>
      </trkpt>
      <trkpt lat="43.774975966662169" lon="6.243198970332742">
        <ele>775.91999999999996</ele>
        <time>2025-05-18T08:52:44Z</time>
      </trkpt>
      <trkpt lat="43.775032041594386" lon="6.243213973939419">
        <ele>775.91999999999996</ele>
        <time>2025-05-18T08:52:45Z</time>
      </trkpt>
      <trkpt lat="43.775196997448802" lon="6.243259990587831">
        <ele>775.91999999999996</ele>
        <time>2025-05-18T08:52:48Z</time>
      </trkpt>
      <trkpt lat="43.77523597329855" lon="6.243254039436579">
        <ele>775.91999999999996</ele>
        <time>2025-05-18T08:52:49Z</time>
      </trkpt>
      <trkpt lat="43.775284001603723" lon="6.243248004466295">
        <ele>776.39999999999998</ele>
        <time>2025-05-18T08:52:50Z</time>
      </trkpt>
      <trkpt lat="43.775395983830094" lon="6.243230989202857">
        <ele>776.39999999999998</ele>
        <time>2025-05-18T08:52:52Z</time>
      </trkpt>
      <trkpt lat="43.775506038218737" lon="6.243243981152773">
        <ele>776.88</ele>
        <time>2025-05-18T08:52:57Z</time>
      </trkpt>
      <trkpt lat="43.775560017675161" lon="6.243196036666632">
        <ele>776.39999999999998</ele>
        <time>2025-05-18T08:52:58Z</time>
      </trkpt>
      <trkpt lat="43.775560017675161" lon="6.243196036666632">
        <ele>776.88</ele>
        <time>2025-05-18T08:53:11Z</time>
      </trkpt>
      <trkpt lat="43.775564962998033" lon="6.243195030838251">
        <ele>776.88</ele>
        <time>2025-05-18T08:53:22Z</time>
      </trkpt>
      <trkpt lat="43.775547025725245" lon="6.243199976161122">
        <ele>779.28999999999996</ele>
        <time>2025-05-18T08:53:23Z</time>
      </trkpt>
      <trkpt lat="43.775497991591692" lon="6.243221014738083">
        <ele>780.73000000000002</ele>
        <time>2025-05-18T08:53:24Z</time>
      </trkpt>
      <trkpt lat="43.775288024917245" lon="6.243246998637915">
        <ele>784.09000000000003</ele>
        <time>2025-05-18T08:53:28Z</time>
      </trkpt>
      <trkpt lat="43.775055008009076" lon="6.243221014738083">
        <ele>785.52999999999997</ele>
        <time>2025-05-18T08:53:35Z</time>
      </trkpt>
      <trkpt lat="43.775030029937625" lon="6.243213973939419">
        <ele>785.52999999999997</ele>
        <time>2025-05-18T08:53:36Z</time>
      </trkpt>
      <trkpt lat="43.774949982762337" lon="6.243191007524729">
        <ele>785.04999999999995</ele>
        <time>2025-05-18T08:53:45Z</time>
      </trkpt>
      <trkpt lat="43.774918969720602" lon="6.243182960897684">
        <ele>785.04999999999995</ele>
        <time>2025-05-18T08:53:49Z</time>
      </trkpt>
      <trkpt lat="43.774727024137974" lon="6.243142979219556">
        <ele>784.09000000000003</ele>
        <time>2025-05-18T08:53:59Z</time>
      </trkpt>
      <trkpt lat="43.774709003046155" lon="6.243140967562795">
        <ele>784.57000000000005</ele>
        <time>2025-05-18T08:54:00Z</time>
      </trkpt>
      <trkpt lat="43.774686036631465" lon="6.243138033896685">
        <ele>784.57000000000005</ele>
        <time>2025-05-18T08:54:01Z</time>
      </trkpt>
      <trkpt lat="43.774667009711266" lon="6.243136022239924">
        <ele>784.57000000000005</ele>
        <time>2025-05-18T08:54:02Z</time>
      </trkpt>
      <trkpt lat="43.774648988619447" lon="6.243134010583162">
        <ele>785.04999999999995</ele>
        <time>2025-05-18T08:54:03Z</time>
      </trkpt>
      <trkpt lat="43.774648988619447" lon="6.243134010583162">
        <ele>785.04999999999995</ele>
        <time>2025-05-18T08:54:17Z</time>
      </trkpt>
      <trkpt lat="43.774560978636146" lon="6.243144990876317">
        <ele>789.86000000000001</ele>
        <time>2025-05-18T09:44:54Z</time>
      </trkpt>
      <trkpt lat="43.77461101859808" lon="6.243088999763131">
        <ele>771.60000000000002</ele>
        <time>2025-05-18T09:45:37Z</time>
      </trkpt>
      <trkpt lat="43.774585034698248" lon="6.243139039725065">
        <ele>788.41999999999996</ele>
        <time>2025-05-18T09:46:26Z</time>
      </trkpt>
      <trkpt lat="43.774584028869867" lon="6.243136022239924">
        <ele>792.25999999999999</ele>
        <time>2025-05-18T09:47:28Z</time>
      </trkpt>
      <trkpt lat="43.774584028869867" lon="6.24312998726964">
        <ele>792.25999999999999</ele>
        <time>2025-05-18T09:47:58Z</time>
      </trkpt>
      <trkpt lat="43.774546980857849" lon="6.243122024461627">
        <ele>792.74000000000001</ele>
        <time>2025-05-18T09:48:01Z</time>
      </trkpt>
      <trkpt lat="43.774512028321624" lon="6.243118001148105">
        <ele>792.74000000000001</ele>
        <time>2025-05-18T09:48:02Z</time>
      </trkpt>
      <trkpt lat="43.77446198835969" lon="6.243111966177821">
        <ele>792.74000000000001</ele>
        <time>2025-05-18T09:48:03Z</time>
      </trkpt>
      <trkpt lat="43.774401973932981" lon="6.243102997541428">
        <ele>792.25999999999999</ele>
        <time>2025-05-18T09:48:04Z</time>
      </trkpt>
      <trkpt lat="43.774149008095264" lon="6.243058992549777">
        <ele>791.29999999999995</ele>
        <time>2025-05-18T09:48:08Z</time>
      </trkpt>
      <trkpt lat="43.774087987840176" lon="6.243046000599861">
        <ele>791.29999999999995</ele>
        <time>2025-05-18T09:48:09Z</time>
      </trkpt>
      <trkpt lat="43.773950021713972" lon="6.243016999214888">
        <ele>790.34000000000003</ele>
        <time>2025-05-18T09:48:11Z</time>
      </trkpt>
      <trkpt lat="43.773743994534016" lon="6.242970982566476">
        <ele>789.38</ele>
        <time>2025-05-18T09:48:14Z</time>
      </trkpt>
      <trkpt lat="43.773677023127675" lon="6.242952961474657">
        <ele>788.89999999999998</ele>
        <time>2025-05-18T09:48:15Z</time>
      </trkpt>
      <trkpt lat="43.77338700927794" lon="6.242917003110051">
        <ele>788.89999999999998</ele>
        <time>2025-05-18T09:48:19Z</time>
      </trkpt>
      <trkpt lat="43.77315198071301" lon="6.242929995059967">
        <ele>787.46000000000004</ele>
        <time>2025-05-18T09:48:22Z</time>
      </trkpt>
      <trkpt lat="43.772598020732403" lon="6.243101991713047">
        <ele>782.16999999999996</ele>
        <time>2025-05-18T09:48:30Z</time>
      </trkpt>
      <trkpt lat="43.772548986598849" lon="6.243119006976485">
        <ele>781.69000000000005</ele>
        <time>2025-05-18T09:48:31Z</time>
      </trkpt>
      <trkpt lat="43.772503975778818" lon="6.243139039725065">
        <ele>781.21000000000004</ele>
        <time>2025-05-18T09:48:32Z</time>
      </trkpt>
      <trkpt lat="43.772461982443929" lon="6.243171980604529">
        <ele>781.21000000000004</ele>
        <time>2025-05-18T09:48:33Z</time>
      </trkpt>
      <trkpt lat="43.77218596637249" lon="6.243386976420879">
        <ele>781.69000000000005</ele>
        <time>2025-05-18T09:48:39Z</time>
      </trkpt>
      <trkpt lat="43.772041965276003" lon="6.243573976680636">
        <ele>782.16999999999996</ele>
        <time>2025-05-18T09:48:45Z</time>
      </trkpt>
      <trkpt lat="43.772041965276003" lon="6.24360297806561">
        <ele>782.16999999999996</ele>
        <time>2025-05-18T09:48:46Z</time>
      </trkpt>
      <trkpt lat="43.772041965276003" lon="6.24364597722888">
        <ele>781.69000000000005</ele>
        <time>2025-05-18T09:48:47Z</time>
      </trkpt>
      <trkpt lat="43.772041965276003" lon="6.24364597722888">
        <ele>781.69000000000005</ele>
        <time>2025-05-18T09:48:48Z</time>
      </trkpt>
      <trkpt lat="43.772041965276003" lon="6.24364597722888">
        <ele>782.16999999999996</ele>
        <time>2025-05-18T09:48:49Z</time>
      </trkpt>
      <trkpt lat="43.772042971104383" lon="6.243558973073959">
        <ele>782.16999999999996</ele>
        <time>2025-05-18T09:48:50Z</time>
      </trkpt>
      <trkpt lat="43.772082030773163" lon="6.243500970304012">
        <ele>781.69000000000005</ele>
        <time>2025-05-18T09:48:51Z</time>
      </trkpt>
      <trkpt lat="43.772126035764813" lon="6.243433998897672">
        <ele>781.69000000000005</ele>
        <time>2025-05-18T09:48:52Z</time>
      </trkpt>
      <trkpt lat="43.772188983857632" lon="6.243383958935738">
        <ele>781.21000000000004</ele>
        <time>2025-05-18T09:48:53Z</time>
      </trkpt>
      <trkpt lat="43.772258972749114" lon="6.243329979479313">
        <ele>780.73000000000002</ele>
        <time>2025-05-18T09:48:54Z</time>
      </trkpt>
      <trkpt lat="43.77233600243926" lon="6.243269965052605">
        <ele>780.73000000000002</ele>
        <time>2025-05-18T09:48:55Z</time>
      </trkpt>
      <trkpt lat="43.772694999352098" lon="6.243068967014551">
        <ele>777.84000000000003</ele>
        <time>2025-05-18T09:48:59Z</time>
      </trkpt>
      <trkpt lat="43.77278602682054" lon="6.243037031963468">
        <ele>776.39999999999998</ele>
        <time>2025-05-18T09:49:00Z</time>
      </trkpt>
      <trkpt lat="43.773320959880948" lon="6.242917003110051">
        <ele>768.71000000000004</ele>
        <time>2025-05-18T09:49:06Z</time>
      </trkpt>
      <trkpt lat="43.773407964035869" lon="6.242917003110051">
        <ele>767.75</ele>
        <time>2025-05-18T09:49:07Z</time>
      </trkpt>
      <trkpt lat="43.773592030629516" lon="6.242929995059967">
        <ele>764.87</ele>
        <time>2025-05-18T09:49:09Z</time>
      </trkpt>
      <trkpt lat="43.773681968450546" lon="6.242953967303038">
        <ele>763.41999999999996</ele>
        <time>2025-05-18T09:49:10Z</time>
      </trkpt>
      <trkpt lat="43.773765033110976" lon="6.242977017536759">
        <ele>761.5</ele>
        <time>2025-05-18T09:49:11Z</time>
      </trkpt>
      <trkpt lat="43.774150013923645" lon="6.243058992549777">
        <ele>752.37</ele>
        <time>2025-05-18T09:49:17Z</time>
      </trkpt>
      <trkpt lat="43.774256967008114" lon="6.243078019469976">
        <ele>748.03999999999996</ele>
        <time>2025-05-18T09:49:20Z</time>
      </trkpt>
      <trkpt lat="43.774302983656526" lon="6.243085982277989">
        <ele>746.60000000000002</ele>
        <time>2025-05-18T09:49:21Z</time>
      </trkpt>
      <trkpt lat="43.774464000016451" lon="6.243111966177821">
        <ele>742.27999999999997</ele>
        <time>2025-05-18T09:49:24Z</time>
      </trkpt>
      <trkpt lat="43.77452602609992" lon="6.243119006976485">
        <ele>740.83000000000004</ele>
        <time>2025-05-18T09:49:25Z</time>
      </trkpt>
      <trkpt lat="43.774648988619447" lon="6.243133004754782">
        <ele>738.90999999999997</ele>
        <time>2025-05-18T09:49:27Z</time>
      </trkpt>
      <trkpt lat="43.774707997217774" lon="6.243140967562795">
        <ele>737.95000000000005</ele>
        <time>2025-05-18T09:49:28Z</time>
      </trkpt>
      <trkpt lat="43.774761976674199" lon="6.243147002533078">
        <ele>736.50999999999999</ele>
        <time>2025-05-18T09:49:29Z</time>
      </trkpt>
      <trkpt lat="43.775033969432116" lon="6.243214979767799">
        <ele>732.17999999999995</ele>
        <time>2025-05-18T09:49:34Z</time>
      </trkpt>
      <trkpt lat="43.775102030485868" lon="6.243234006687999">
        <ele>731.22000000000003</ele>
        <time>2025-05-18T09:49:35Z</time>
      </trkpt>
      <trkpt lat="43.775196997448802" lon="6.243259990587831">
        <ele>729.77999999999997</ele>
        <time>2025-05-18T09:49:36Z</time>
      </trkpt>
      <trkpt lat="43.775265980511904" lon="6.243250016123056">
        <ele>728.82000000000005</ele>
        <time>2025-05-18T09:49:37Z</time>
      </trkpt>
      <trkpt lat="43.77534200437367" lon="6.243239035829902">
        <ele>728.34000000000003</ele>
        <time>2025-05-18T09:49:38Z</time>
      </trkpt>
      <trkpt lat="43.775673005729914" lon="6.243157982826233">
        <ele>724.49000000000001</ele>
        <time>2025-05-18T09:49:43Z</time>
      </trkpt>
      <trkpt lat="43.776052035391331" lon="6.242996966466308">
        <ele>719.20000000000005</ele>
        <time>2025-05-18T09:49:49Z</time>
      </trkpt>
      <trkpt lat="43.776106014847755" lon="6.242968970909715">
        <ele>718.24000000000001</ele>
        <time>2025-05-18T09:49:50Z</time>
      </trkpt>
      <trkpt lat="43.7762660253793" lon="6.242885990068317">
        <ele>716.32000000000005</ele>
        <time>2025-05-18T09:49:53Z</time>
      </trkpt>
      <trkpt lat="43.776316987350583" lon="6.242861011996865">
        <ele>715.84000000000003</ele>
        <time>2025-05-18T09:49:54Z</time>
      </trkpt>
      <trkpt lat="43.776402985677123" lon="6.242764033377171">
        <ele>715.36000000000001</ele>
        <time>2025-05-18T09:49:55Z</time>
      </trkpt>
      <trkpt lat="43.776421006768942" lon="6.24272002838552">
        <ele>718.24000000000001</ele>
        <time>2025-05-18T09:49:56Z</time>
      </trkpt>
      <trkpt lat="43.776424024254084" lon="6.242582984268665">
        <ele>717.75999999999999</ele>
        <time>2025-05-18T09:49:57Z</time>
      </trkpt>
      <trkpt lat="43.776412038132548" lon="6.242525987327099">
        <ele>719.20000000000005</ele>
        <time>2025-05-18T09:49:58Z</time>
      </trkpt>
      <trkpt lat="43.776377001777291" lon="6.242452980950475">
        <ele>720.64999999999998</ele>
        <time>2025-05-18T09:49:59Z</time>
      </trkpt>
      <trkpt lat="43.776340037584305" lon="6.242431020364165">
        <ele>721.61000000000001</ele>
        <time>2025-05-18T09:50:00Z</time>
      </trkpt>
      <trkpt lat="43.776299972087145" lon="6.242406964302063">
        <ele>722.09000000000003</ele>
        <time>2025-05-18T09:50:01Z</time>
      </trkpt>
      <trkpt lat="43.776240963488817" lon="6.242428002879024">
        <ele>722.57000000000005</ele>
        <time>2025-05-18T09:50:02Z</time>
      </trkpt>
      <trkpt lat="43.776186984032393" lon="6.242455998435617">
        <ele>723.52999999999997</ele>
        <time>2025-05-18T09:50:03Z</time>
      </trkpt>
      <trkpt lat="43.776134010404348" lon="6.242483993992209">
        <ele>724.97000000000003</ele>
        <time>2025-05-18T09:50:04Z</time>
      </trkpt>
      <trkpt lat="43.775839973241091" lon="6.242637969553471">
        <ele>730.25999999999999</ele>
        <time>2025-05-18T09:50:09Z</time>
      </trkpt>
      <trkpt lat="43.775789011269808" lon="6.242652973160148">
        <ele>731.70000000000005</ele>
        <time>2025-05-18T09:50:10Z</time>
      </trkpt>
      <trkpt lat="43.77573000267148" lon="6.242670994251967">
        <ele>732.17999999999995</ele>
        <time>2025-05-18T09:50:11Z</time>
      </trkpt>
      <trkpt lat="43.775668982416391" lon="6.242689015343785">
        <ele>732.65999999999997</ele>
        <time>2025-05-18T09:50:12Z</time>
      </trkpt>
      <trkpt lat="43.775605028495193" lon="6.242702007293701">
        <ele>732.65999999999997</ele>
        <time>2025-05-18T09:50:13Z</time>
      </trkpt>
      <trkpt lat="43.775203032419086" lon="6.242693038657308">
        <ele>733.13999999999999</ele>
        <time>2025-05-18T09:50:19Z</time>
      </trkpt>
      <trkpt lat="43.775138994678855" lon="6.242687003687024">
        <ele>733.62</ele>
        <time>2025-05-18T09:50:20Z</time>
      </trkpt>
      <trkpt lat="43.775056013837457" lon="6.242663031443954">
        <ele>733.62</ele>
        <time>2025-05-18T09:50:21Z</time>
      </trkpt>
      <trkpt lat="43.775005973875523" lon="6.242592958733439">
        <ele>733.62</ele>
        <time>2025-05-18T09:50:22Z</time>
      </trkpt>
      <trkpt lat="43.774953000247478" lon="6.242491034790874">
        <ele>733.13999999999999</ele>
        <time>2025-05-18T09:50:23Z</time>
      </trkpt>
      <trkpt lat="43.774931039661169" lon="6.242381986230612">
        <ele>733.13999999999999</ele>
        <time>2025-05-18T09:50:24Z</time>
      </trkpt>
      <trkpt lat="43.774914024397731" lon="6.242290958762169">
        <ele>736.02999999999997</ele>
        <time>2025-05-18T09:50:25Z</time>
      </trkpt>
      <trkpt lat="43.774899020791054" lon="6.242188028991222">
        <ele>737.95000000000005</ele>
        <time>2025-05-18T09:50:26Z</time>
      </trkpt>
      <trkpt lat="43.774906983599067" lon="6.242070011794567">
        <ele>739.38999999999999</ele>
        <time>2025-05-18T09:50:27Z</time>
      </trkpt>
      <trkpt lat="43.774937996640801" lon="6.241787038743496">
        <ele>742.75999999999999</ele>
        <time>2025-05-18T09:50:30Z</time>
      </trkpt>
      <trkpt lat="43.774972027167678" lon="6.241698022931814">
        <ele>744.67999999999995</ele>
        <time>2025-05-18T09:50:31Z</time>
      </trkpt>
      <trkpt lat="43.775005973875523" lon="6.241613030433655">
        <ele>745.63999999999999</ele>
        <time>2025-05-18T09:50:32Z</time>
      </trkpt>
      <trkpt lat="43.775099013000727" lon="6.241310024634004">
        <ele>746.60000000000002</ele>
        <time>2025-05-18T09:50:35Z</time>
      </trkpt>
      <trkpt lat="43.775121979415417" lon="6.241206005215645">
        <ele>748.51999999999998</ele>
        <time>2025-05-18T09:50:36Z</time>
      </trkpt>
      <trkpt lat="43.775114016607404" lon="6.241084970533848">
        <ele>750.45000000000005</ele>
        <time>2025-05-18T09:50:37Z</time>
      </trkpt>
      <trkpt lat="43.775083003565669" lon="6.24095899052918">
        <ele>750.45000000000005</ele>
        <time>2025-05-18T09:50:38Z</time>
      </trkpt>
      <trkpt lat="43.775049978867173" lon="6.240828987210989">
        <ele>750.92999999999995</ele>
        <time>2025-05-18T09:50:39Z</time>
      </trkpt>
      <trkpt lat="43.775016032159328" lon="6.240691021084786">
        <ele>750.92999999999995</ele>
        <time>2025-05-18T09:50:40Z</time>
      </trkpt>
      <trkpt lat="43.774982001632452" lon="6.240555988624692">
        <ele>750.92999999999995</ele>
        <time>2025-05-18T09:50:41Z</time>
      </trkpt>
      <trkpt lat="43.774990970268846" lon="6.240450963377953">
        <ele>750.45000000000005</ele>
        <time>2025-05-18T09:50:42Z</time>
      </trkpt>
      <trkpt lat="43.775002034381032" lon="6.240309979766607">
        <ele>750.45000000000005</ele>
        <time>2025-05-18T09:50:43Z</time>
      </trkpt>
      <trkpt lat="43.775014020502567" lon="6.240167990326881">
        <ele>750.45000000000005</ele>
        <time>2025-05-18T09:50:44Z</time>
      </trkpt>
      <trkpt lat="43.775017959997058" lon="6.240010997280479">
        <ele>750.45000000000005</ele>
        <time>2025-05-18T09:50:45Z</time>
      </trkpt>
      <trkpt lat="43.774982001632452" lon="6.239847969263792">
        <ele>750.45000000000005</ele>
        <time>2025-05-18T09:50:46Z</time>
      </trkpt>
      <trkpt lat="43.774920981377363" lon="6.239787032827735">
        <ele>749.97000000000003</ele>
        <time>2025-05-18T09:50:47Z</time>
      </trkpt>
      <trkpt lat="43.774850992485881" lon="6.239717965945602">
        <ele>749.49000000000001</ele>
        <time>2025-05-18T09:50:48Z</time>
      </trkpt>
      <trkpt lat="43.774770023301244" lon="6.239635990932584">
        <ele>749</ele>
        <time>2025-05-18T09:50:49Z</time>
      </trkpt>
      <trkpt lat="43.774582017213106" lon="6.239447984844446">
        <ele>747.08000000000004</ele>
        <time>2025-05-18T09:50:51Z</time>
      </trkpt>
      <trkpt lat="43.77450498752296" lon="6.239332985132933">
        <ele>746.12</ele>
        <time>2025-05-18T09:50:52Z</time>
      </trkpt>
      <trkpt lat="43.774428963661194" lon="6.239187978208065">
        <ele>745.15999999999997</ele>
        <time>2025-05-18T09:50:53Z</time>
      </trkpt>
      <trkpt lat="43.774082958698273" lon="6.238304022699595">
        <ele>742.27999999999997</ele>
        <time>2025-05-18T09:50:58Z</time>
      </trkpt>
      <trkpt lat="43.774040965363383" lon="6.238132026046515">
        <ele>741.78999999999996</ele>
        <time>2025-05-18T09:50:59Z</time>
      </trkpt>
      <trkpt lat="43.773972988128662" lon="6.237852992489934">
        <ele>740.83000000000004</ele>
        <time>2025-05-18T09:51:01Z</time>
      </trkpt>
      <trkpt lat="43.773915991187096" lon="6.237760037183762">
        <ele>740.83000000000004</ele>
        <time>2025-05-18T09:51:02Z</time>
      </trkpt>
      <trkpt lat="43.773858994245529" lon="6.237679990008473">
        <ele>740.35000000000002</ele>
        <time>2025-05-18T09:51:03Z</time>
      </trkpt>
      <trkpt lat="43.773755980655551" lon="6.237663980573416">
        <ele>740.35000000000002</ele>
        <time>2025-05-18T09:51:04Z</time>
      </trkpt>
      <trkpt lat="43.773703007027507" lon="6.23773799277842">
        <ele>739.87</ele>
        <time>2025-05-18T09:51:05Z</time>
      </trkpt>
      <trkpt lat="43.773654978722334" lon="6.237853998318315">
        <ele>739.87</ele>
        <time>2025-05-18T09:51:06Z</time>
      </trkpt>
      <trkpt lat="43.773663025349379" lon="6.237967992201448">
        <ele>739.38999999999999</ele>
        <time>2025-05-18T09:51:07Z</time>
      </trkpt>
      <trkpt lat="43.773671993985772" lon="6.238095983862877">
        <ele>739.38999999999999</ele>
        <time>2025-05-18T09:51:08Z</time>
      </trkpt>
      <trkpt lat="43.773681968450546" lon="6.238234033808112">
        <ele>738.90999999999997</ele>
        <time>2025-05-18T09:51:09Z</time>
      </trkpt>
      <trkpt lat="43.773693032562733" lon="6.238383986055851">
        <ele>738.42999999999995</ele>
        <time>2025-05-18T09:51:10Z</time>
      </trkpt>
      <trkpt lat="43.773669982329011" lon="6.238509966060519">
        <ele>737.95000000000005</ele>
        <time>2025-05-18T09:51:11Z</time>
      </trkpt>
      <trkpt lat="43.773627988994122" lon="6.238610967993736">
        <ele>737.47000000000003</ele>
        <time>2025-05-18T09:51:12Z</time>
      </trkpt>
      <trkpt lat="43.773549031466246" lon="6.238709958270192">
        <ele>736.99000000000001</ele>
        <time>2025-05-18T09:51:13Z</time>
      </trkpt>
      <trkpt lat="43.773479964584112" lon="6.238796962425113">
        <ele>736.50999999999999</ele>
        <time>2025-05-18T09:51:14Z</time>
      </trkpt>
      <trkpt lat="43.773357002064586" lon="6.238857982680202">
        <ele>736.02999999999997</ele>
        <time>2025-05-18T09:51:15Z</time>
      </trkpt>
      <trkpt lat="43.773264968767762" lon="6.238880027085543">
        <ele>736.02999999999997</ele>
        <time>2025-05-18T09:51:16Z</time>
      </trkpt>
      <trkpt lat="43.773138988763094" lon="6.238872986286879">
        <ele>735.54999999999995</ele>
        <time>2025-05-18T09:51:17Z</time>
      </trkpt>
      <trkpt lat="43.772597014904022" lon="6.238841973245144">
        <ele>732.17999999999995</ele>
        <time>2025-05-18T09:51:21Z</time>
      </trkpt>
      <trkpt lat="43.772186972200871" lon="6.238641981035471">
        <ele>730.25999999999999</ele>
        <time>2025-05-18T09:51:24Z</time>
      </trkpt>
      <trkpt lat="43.771704006940126" lon="6.23833604156971">
        <ele>726.88999999999999</ele>
        <time>2025-05-18T09:51:28Z</time>
      </trkpt>
      <trkpt lat="43.771609961986542" lon="6.238264963030815">
        <ele>726.40999999999997</ele>
        <time>2025-05-18T09:51:29Z</time>
      </trkpt>
      <trkpt lat="43.771533016115427" lon="6.238174019381404">
        <ele>725.92999999999995</ele>
        <time>2025-05-18T09:51:30Z</time>
      </trkpt>
      <trkpt lat="43.771481970325112" lon="6.238024989143014">
        <ele>725.45000000000005</ele>
        <time>2025-05-18T09:51:31Z</time>
      </trkpt>
      <trkpt lat="43.771464033052325" lon="6.237860033288598">
        <ele>724.49000000000001</ele>
        <time>2025-05-18T09:51:32Z</time>
      </trkpt>
      <trkpt lat="43.771425979211926" lon="6.237150002270937">
        <ele>723.04999999999995</ele>
        <time>2025-05-18T09:51:36Z</time>
      </trkpt>
      <trkpt lat="43.771436959505081" lon="6.236992003396154">
        <ele>722.57000000000005</ele>
        <time>2025-05-18T09:51:37Z</time>
      </trkpt>
      <trkpt lat="43.771502003073692" lon="6.23685403726995">
        <ele>722.09000000000003</ele>
        <time>2025-05-18T09:51:38Z</time>
      </trkpt>
      <trkpt lat="43.771592024713755" lon="6.236741971224546">
        <ele>721.61000000000001</ele>
        <time>2025-05-18T09:51:39Z</time>
      </trkpt>
      <trkpt lat="43.771691014990211" lon="6.236618002876639">
        <ele>721.13</ele>
        <time>2025-05-18T09:51:40Z</time>
      </trkpt>
      <trkpt lat="43.772160988301039" lon="6.236131014302373">
        <ele>719.20000000000005</ele>
        <time>2025-05-18T09:51:44Z</time>
      </trkpt>
      <trkpt lat="43.772308006882668" lon="6.236073011532426">
        <ele>718.24000000000001</ele>
        <time>2025-05-18T09:51:45Z</time>
      </trkpt>
      <trkpt lat="43.772611012682319" lon="6.235950971022248">
        <ele>716.79999999999995</ele>
        <time>2025-05-18T09:51:47Z</time>
      </trkpt>
      <trkpt lat="43.772755013778806" lon="6.235893974080682">
        <ele>716.32000000000005</ele>
        <time>2025-05-18T09:51:48Z</time>
      </trkpt>
      <trkpt lat="43.772885017096996" lon="6.235775034874678">
        <ele>715.36000000000001</ele>
        <time>2025-05-18T09:51:49Z</time>
      </trkpt>
      <trkpt lat="43.773002028465271" lon="6.235642014071345">
        <ele>714.88</ele>
        <time>2025-05-18T09:51:50Z</time>
      </trkpt>
      <trkpt lat="43.773116022348404" lon="6.235514022409916">
        <ele>713.91999999999996</ele>
        <time>2025-05-18T09:51:51Z</time>
      </trkpt>
      <trkpt lat="43.77321601845324" lon="6.235401034355164">
        <ele>713.44000000000005</ele>
        <time>2025-05-18T09:51:52Z</time>
      </trkpt>
      <trkpt lat="43.773287013173103" lon="6.235320987179875">
        <ele>712.47000000000003</ele>
        <time>2025-05-18T09:51:53Z</time>
      </trkpt>
      <trkpt lat="43.773378040641546" lon="6.235339008271694">
        <ele>711.99000000000001</ele>
        <time>2025-05-18T09:51:54Z</time>
      </trkpt>
      <trkpt lat="43.773435959592462" lon="6.235391981899738">
        <ele>711.02999999999997</ele>
        <time>2025-05-18T09:51:55Z</time>
      </trkpt>
      <trkpt lat="43.773502008989453" lon="6.235474040731788">
        <ele>710.54999999999995</ele>
        <time>2025-05-18T09:51:56Z</time>
      </trkpt>
      <trkpt lat="43.773544002324343" lon="6.235603038221598">
        <ele>709.59000000000003</ele>
        <time>2025-05-18T09:51:57Z</time>
      </trkpt>
      <trkpt lat="43.773636035621166" lon="6.235887017101049">
        <ele>708.63</ele>
        <time>2025-05-18T09:51:59Z</time>
      </trkpt>
      <trkpt lat="43.773739971220493" lon="6.236176025122404">
        <ele>707.66999999999996</ele>
        <time>2025-05-18T09:52:01Z</time>
      </trkpt>
      <trkpt lat="43.773810965940356" lon="6.236293958500028">
        <ele>707.19000000000005</ele>
        <time>2025-05-18T09:52:02Z</time>
      </trkpt>
      <trkpt lat="43.773910040035844" lon="6.236408036202192">
        <ele>706.23000000000002</ele>
        <time>2025-05-18T09:52:03Z</time>
      </trkpt>
      <trkpt lat="43.774364003911614" lon="6.236809026449919">
        <ele>701.89999999999998</ele>
        <time>2025-05-18T09:52:07Z</time>
      </trkpt>
      <trkpt lat="43.7745719589293" lon="6.236992003396154">
        <ele>699.98000000000002</ele>
        <time>2025-05-18T09:52:09Z</time>
      </trkpt>
      <trkpt lat="43.774671033024788" lon="6.236994015052915">
        <ele>699.01999999999998</ele>
        <time>2025-05-18T09:52:10Z</time>
      </trkpt>
      <trkpt lat="43.774767005816102" lon="6.236959984526038">
        <ele>698.52999999999997</ele>
        <time>2025-05-18T09:52:11Z</time>
      </trkpt>
      <trkpt lat="43.774969009682536" lon="6.236852025613189">
        <ele>696.61000000000001</ele>
        <time>2025-05-18T09:52:13Z</time>
      </trkpt>
      <trkpt lat="43.775286013260484" lon="6.23668204061687">
        <ele>694.21000000000004</ele>
        <time>2025-05-18T09:52:16Z</time>
      </trkpt>
      <trkpt lat="43.77534200437367" lon="6.236595958471298">
        <ele>693.73000000000002</ele>
        <time>2025-05-18T09:52:17Z</time>
      </trkpt>
      <trkpt lat="43.775390032678843" lon="6.236500991508365">
        <ele>694.21000000000004</ele>
        <time>2025-05-18T09:52:18Z</time>
      </trkpt>
      <trkpt lat="43.775390032678843" lon="6.236406024545431">
        <ele>694.69000000000005</ele>
        <time>2025-05-18T09:52:19Z</time>
      </trkpt>
      <trkpt lat="43.775315014645457" lon="6.236304016783834">
        <ele>693.73000000000002</ele>
        <time>2025-05-18T09:52:20Z</time>
      </trkpt>
      <trkpt lat="43.775281989946961" lon="6.236265040934086">
        <ele>692.28999999999996</ele>
        <time>2025-05-18T09:52:21Z</time>
      </trkpt>
      <trkpt lat="43.775185011327267" lon="6.236265040934086">
        <ele>691.33000000000004</ele>
        <time>2025-05-18T09:52:22Z</time>
      </trkpt>
      <trkpt lat="43.775115022435784" lon="6.236284989863634">
        <ele>689.88</ele>
        <time>2025-05-18T09:52:23Z</time>
      </trkpt>
      <trkpt lat="43.775034975260496" lon="6.236382974311709">
        <ele>687.96000000000004</ele>
        <time>2025-05-18T09:52:24Z</time>
      </trkpt>
      <trkpt lat="43.774948976933956" lon="6.236487999558449">
        <ele>686.51999999999998</ele>
        <time>2025-05-18T09:52:25Z</time>
      </trkpt>
      <trkpt lat="43.774846969172359" lon="6.236539967358112">
        <ele>684.60000000000002</ele>
        <time>2025-05-18T09:52:26Z</time>
      </trkpt>
      <trkpt lat="43.774756025522947" lon="6.236547008156776">
        <ele>682.66999999999996</ele>
        <time>2025-05-18T09:52:27Z</time>
      </trkpt>
      <trkpt lat="43.774672038853168" lon="6.236499985679984">
        <ele>680.75</ele>
        <time>2025-05-18T09:52:28Z</time>
      </trkpt>
      <trkpt lat="43.774596014991403" lon="6.236457992345095">
        <ele>679.30999999999995</ele>
        <time>2025-05-18T09:52:29Z</time>
      </trkpt>
      <trkpt lat="43.774527031928301" lon="6.236342992633581">
        <ele>677.38999999999999</ele>
        <time>2025-05-18T09:52:30Z</time>
      </trkpt>
      <trkpt lat="43.774451008066535" lon="6.236213995143771">
        <ele>675.94000000000005</ele>
        <time>2025-05-18T09:52:31Z</time>
      </trkpt>
      <trkpt lat="43.774020010605454" lon="6.235420983284712">
        <ele>669.70000000000005</ele>
        <time>2025-05-18T09:52:36Z</time>
      </trkpt>
      <trkpt lat="43.773930994793773" lon="6.235256027430296">
        <ele>668.73000000000002</ele>
        <time>2025-05-18T09:52:37Z</time>
      </trkpt>
      <trkpt lat="43.773871986195445" lon="6.235080007463694">
        <ele>667.76999999999998</ele>
        <time>2025-05-18T09:52:38Z</time>
      </trkpt>
      <trkpt lat="43.773805014789104" lon="6.234881021082401">
        <ele>666.80999999999995</ele>
        <time>2025-05-18T09:52:39Z</time>
      </trkpt>
      <trkpt lat="43.773737959563732" lon="6.234677005559206">
        <ele>665.85000000000002</ele>
        <time>2025-05-18T09:52:40Z</time>
      </trkpt>
      <trkpt lat="43.773640980944037" lon="6.234467960894108">
        <ele>664.88999999999999</ele>
        <time>2025-05-18T09:52:41Z</time>
      </trkpt>
      <trkpt lat="43.773153992369771" lon="6.233527008444071">
        <ele>659.60000000000002</ele>
        <time>2025-05-18T09:52:46Z</time>
      </trkpt>
      <trkpt lat="43.773085009306669" lon="6.233363980427384">
        <ele>658.63999999999999</ele>
        <time>2025-05-18T09:52:47Z</time>
      </trkpt>
      <trkpt lat="43.77300102263689" lon="6.232938012108207">
        <ele>656.24000000000001</ele>
        <time>2025-05-18T09:52:49Z</time>
      </trkpt>
      <trkpt lat="43.772901026532054" lon="6.232424033805728">
        <ele>652.38999999999999</ele>
        <time>2025-05-18T09:52:52Z</time>
      </trkpt>
      <trkpt lat="43.772911000996828" lon="6.232318002730608">
        <ele>651.42999999999995</ele>
        <time>2025-05-18T09:52:53Z</time>
      </trkpt>
      <trkpt lat="43.772943019866943" lon="6.232187999412417">
        <ele>650.47000000000003</ele>
        <time>2025-05-18T09:52:54Z</time>
      </trkpt>
      <trkpt lat="43.773002028465271" lon="6.23212999664247">
        <ele>649.50999999999999</ele>
        <time>2025-05-18T09:52:55Z</time>
      </trkpt>
      <trkpt lat="43.77312901429832" lon="6.232097977772355">
        <ele>648.54999999999995</ele>
        <time>2025-05-18T09:52:56Z</time>
      </trkpt>
      <trkpt lat="43.773271003738046" lon="6.23217299580574">
        <ele>647.59000000000003</ele>
        <time>2025-05-18T09:52:57Z</time>
      </trkpt>
      <trkpt lat="43.773329006507993" lon="6.23227902688086">
        <ele>646.13999999999999</ele>
        <time>2025-05-18T09:52:58Z</time>
      </trkpt>
      <trkpt lat="43.773395977914333" lon="6.23243099078536">
        <ele>644.22000000000003</ele>
        <time>2025-05-18T09:52:59Z</time>
      </trkpt>
      <trkpt lat="43.773447023704648" lon="6.232583038508892">
        <ele>642.77999999999997</ele>
        <time>2025-05-18T09:53:00Z</time>
      </trkpt>
      <trkpt lat="43.773570992052555" lon="6.232870034873486">
        <ele>640.38</ele>
        <time>2025-05-18T09:53:02Z</time>
      </trkpt>
      <trkpt lat="43.77366503700614" lon="6.232987968251109">
        <ele>639.40999999999997</ele>
        <time>2025-05-18T09:53:03Z</time>
      </trkpt>
      <trkpt lat="43.773777019232512" lon="6.233071032911539">
        <ele>638.92999999999995</ele>
        <time>2025-05-18T09:53:04Z</time>
      </trkpt>
      <trkpt lat="43.774470034986734" lon="6.233464982360601">
        <ele>635.09000000000003</ele>
        <time>2025-05-18T09:53:09Z</time>
      </trkpt>
      <trkpt lat="43.774615963920951" lon="6.233475040644407">
        <ele>634.61000000000001</ele>
        <time>2025-05-18T09:53:10Z</time>
      </trkpt>
      <trkpt lat="43.774756025522947" lon="6.233475040644407">
        <ele>633.64999999999998</ele>
        <time>2025-05-18T09:53:11Z</time>
      </trkpt>
      <trkpt lat="43.77489298582077" lon="6.233432041481137">
        <ele>633.16999999999996</ele>
        <time>2025-05-18T09:53:12Z</time>
      </trkpt>
      <trkpt lat="43.775006979703903" lon="6.233350988477469">
        <ele>632.20000000000005</ele>
        <time>2025-05-18T09:53:13Z</time>
      </trkpt>
      <trkpt lat="43.775126002728939" lon="6.233265995979309">
        <ele>631.72000000000003</ele>
        <time>2025-05-18T09:53:14Z</time>
      </trkpt>
      <trkpt lat="43.775521963834763" lon="6.232994003221393">
        <ele>629.79999999999995</ele>
        <time>2025-05-18T09:53:17Z</time>
      </trkpt>
      <trkpt lat="43.775669988244772" lon="6.232939017936587">
        <ele>629.32000000000005</ele>
        <time>2025-05-18T09:53:18Z</time>
      </trkpt>
      <trkpt lat="43.776421006768942" lon="6.232661996036768">
        <ele>625.96000000000004</ele>
        <time>2025-05-18T09:53:24Z</time>
      </trkpt>
      <trkpt lat="43.776527959853411" lon="6.232655961066485">
        <ele>624.99000000000001</ele>
        <time>2025-05-18T09:53:25Z</time>
      </trkpt>
      <trkpt lat="43.776634996756911" lon="6.232698960229754">
        <ele>624.50999999999999</ele>
        <time>2025-05-18T09:53:26Z</time>
      </trkpt>
      <trkpt lat="43.776735998690128" lon="6.232778001576662">
        <ele>623.54999999999995</ele>
        <time>2025-05-18T09:53:27Z</time>
      </trkpt>
      <trkpt lat="43.776823002845049" lon="6.232900964096189">
        <ele>623.07000000000005</ele>
        <time>2025-05-18T09:53:28Z</time>
      </trkpt>
      <trkpt lat="43.776915036141872" lon="6.233030967414379">
        <ele>622.11000000000001</ele>
        <time>2025-05-18T09:53:29Z</time>
      </trkpt>
      <trkpt lat="43.777004973962903" lon="6.233158959075809">
        <ele>621.14999999999998</ele>
        <time>2025-05-18T09:53:30Z</time>
      </trkpt>
      <trkpt lat="43.777088960632682" lon="6.233278987929225">
        <ele>620.19000000000005</ele>
        <time>2025-05-18T09:53:31Z</time>
      </trkpt>
      <trkpt lat="43.777193985879421" lon="6.233346965163946">
        <ele>619.23000000000002</ele>
        <time>2025-05-18T09:53:32Z</time>
      </trkpt>
      <trkpt lat="43.777278978377581" lon="6.233389964327216">
        <ele>618.75</ele>
        <time>2025-05-18T09:53:33Z</time>
      </trkpt>
      <trkpt lat="43.777376040816307" lon="6.233344031497836">
        <ele>617.77999999999997</ele>
        <time>2025-05-18T09:53:34Z</time>
      </trkpt>
      <trkpt lat="43.777428008615971" lon="6.233282005414367">
        <ele>617.77999999999997</ele>
        <time>2025-05-18T09:53:35Z</time>
      </trkpt>
      <trkpt lat="43.777459021657705" lon="6.233114032074809">
        <ele>618.75</ele>
        <time>2025-05-18T09:53:36Z</time>
      </trkpt>
      <trkpt lat="43.777486011385918" lon="6.232968019321561">
        <ele>619.71000000000004</ele>
        <time>2025-05-18T09:53:37Z</time>
      </trkpt>
      <trkpt lat="43.777514006942511" lon="6.23281697742641">
        <ele>619.71000000000004</ele>
        <time>2025-05-18T09:53:38Z</time>
      </trkpt>
      <trkpt lat="43.777557006105781" lon="6.232672976329923">
        <ele>620.19000000000005</ele>
        <time>2025-05-18T09:53:39Z</time>
      </trkpt>
      <trkpt lat="43.777614003047347" lon="6.232593012973666">
        <ele>620.19000000000005</ele>
        <time>2025-05-18T09:53:40Z</time>
      </trkpt>
      <trkpt lat="43.777696983888745" lon="6.232545990496874">
        <ele>619.71000000000004</ele>
        <time>2025-05-18T09:53:41Z</time>
      </trkpt>
      <trkpt lat="43.777798991650343" lon="6.232532998546958">
        <ele>620.19000000000005</ele>
        <time>2025-05-18T09:53:42Z</time>
      </trkpt>
      <trkpt lat="43.777921032160521" lon="6.2325360160321">
        <ele>620.19000000000005</ele>
        <time>2025-05-18T09:53:43Z</time>
      </trkpt>
      <trkpt lat="43.77865101210773" lon="6.232573986053467">
        <ele>621.14999999999998</ele>
        <time>2025-05-18T09:53:48Z</time>
      </trkpt>
      <trkpt lat="43.778725024312735" lon="6.232657972723246">
        <ele>621.14999999999998</ele>
        <time>2025-05-18T09:53:49Z</time>
      </trkpt>
      <trkpt lat="43.778796019032598" lon="6.232739025726914">
        <ele>620.66999999999996</ele>
        <time>2025-05-18T09:53:50Z</time>
      </trkpt>
      <trkpt lat="43.778818985447288" lon="6.232825024053454">
        <ele>620.66999999999996</ele>
        <time>2025-05-18T09:53:51Z</time>
      </trkpt>
      <trkpt lat="43.778851004317403" lon="6.232962990179658">
        <ele>619.71000000000004</ele>
        <time>2025-05-18T09:53:52Z</time>
      </trkpt>
      <trkpt lat="43.778883023187518" lon="6.233103973791003">
        <ele>618.75</ele>
        <time>2025-05-18T09:53:53Z</time>
      </trkpt>
      <trkpt lat="43.77897597849369" lon="6.233243029564619">
        <ele>618.25999999999999</ele>
        <time>2025-05-18T09:53:54Z</time>
      </trkpt>
      <trkpt lat="43.779071029275656" lon="6.233278987929225">
        <ele>617.77999999999997</ele>
        <time>2025-05-18T09:53:55Z</time>
      </trkpt>
      <trkpt lat="43.779159961268306" lon="6.233211010694504">
        <ele>616.82000000000005</ele>
        <time>2025-05-18T09:53:56Z</time>
      </trkpt>
      <trkpt lat="43.779240008443594" lon="6.233140015974641">
        <ele>616.34000000000003</ele>
        <time>2025-05-18T09:53:57Z</time>
      </trkpt>
      <trkpt lat="43.779307985678315" lon="6.233056029304862">
        <ele>615.86000000000001</ele>
        <time>2025-05-18T09:53:58Z</time>
      </trkpt>
      <trkpt lat="43.779387027025223" lon="6.232931977137923">
        <ele>614.89999999999998</ele>
        <time>2025-05-18T09:53:59Z</time>
      </trkpt>
      <trkpt lat="43.779470007866621" lon="6.232799962162972">
        <ele>614.41999999999996</ele>
        <time>2025-05-18T09:54:00Z</time>
      </trkpt>
      <trkpt lat="43.779734959825873" lon="6.232447000220418">
        <ele>613.46000000000004</ele>
        <time>2025-05-18T09:54:03Z</time>
      </trkpt>
      <trkpt lat="43.77983596175909" lon="6.232409030199051">
        <ele>612.98000000000002</ele>
        <time>2025-05-18T09:54:04Z</time>
      </trkpt>
      <trkpt lat="43.779956996440887" lon="6.232420010492206">
        <ele>612.5</ele>
        <time>2025-05-18T09:54:05Z</time>
      </trkpt>
      <trkpt lat="43.780089011415839" lon="6.232441971078515">
        <ele>612.5</ele>
        <time>2025-05-18T09:54:06Z</time>
      </trkpt>
      <trkpt lat="43.780204011127353" lon="6.232460997998714">
        <ele>612.01999999999998</ele>
        <time>2025-05-18T09:54:07Z</time>
      </trkpt>
      <trkpt lat="43.780308030545712" lon="6.232411041855812">
        <ele>612.01999999999998</ele>
        <time>2025-05-18T09:54:08Z</time>
      </trkpt>
      <trkpt lat="43.780377013608813" lon="6.232324037700892">
        <ele>612.5</ele>
        <time>2025-05-18T09:54:09Z</time>
      </trkpt>
      <trkpt lat="43.78043401055038" lon="6.23221599496901">
        <ele>612.5</ele>
        <time>2025-05-18T09:54:10Z</time>
      </trkpt>
      <trkpt lat="43.780494024977088" lon="6.232102001085877">
        <ele>612.98000000000002</ele>
        <time>2025-05-18T09:54:11Z</time>
      </trkpt>
      <trkpt lat="43.780565019696951" lon="6.23200099915266">
        <ele>612.5</ele>
        <time>2025-05-18T09:54:12Z</time>
      </trkpt>
      <trkpt lat="43.780646994709969" lon="6.231951965019107">
        <ele>612.5</ele>
        <time>2025-05-18T09:54:13Z</time>
      </trkpt>
      <trkpt lat="43.780741961672902" lon="6.232010973617435">
        <ele>612.5</ele>
        <time>2025-05-18T09:54:14Z</time>
      </trkpt>
      <trkpt lat="43.780817985534668" lon="6.232059001922607">
        <ele>612.01999999999998</ele>
        <time>2025-05-18T09:54:15Z</time>
      </trkpt>
      <trkpt lat="43.780852016061544" lon="6.232161009684205">
        <ele>612.01999999999998</ele>
        <time>2025-05-18T09:54:16Z</time>
      </trkpt>
      <trkpt lat="43.780903983861208" lon="6.232316996902227">
        <ele>612.01999999999998</ele>
        <time>2025-05-18T09:54:17Z</time>
      </trkpt>
      <trkpt lat="43.780928961932659" lon="6.232449011877179">
        <ele>611.53999999999996</ele>
        <time>2025-05-18T09:54:18Z</time>
      </trkpt>
      <trkpt lat="43.780957041308284" lon="6.232597036287189">
        <ele>611.53999999999996</ele>
        <time>2025-05-18T09:54:19Z</time>
      </trkpt>
      <trkpt lat="43.781020995229483" lon="6.23275201767683">
        <ele>611.53999999999996</ele>
        <time>2025-05-18T09:54:20Z</time>
      </trkpt>
      <trkpt lat="43.7811219971627" lon="6.232834998518229">
        <ele>611.53999999999996</ele>
        <time>2025-05-18T09:54:21Z</time>
      </trkpt>
      <trkpt lat="43.781198021024466" lon="6.232863999903202">
        <ele>611.53999999999996</ele>
        <time>2025-05-18T09:54:22Z</time>
      </trkpt>
      <trkpt lat="43.781273039057851" lon="6.232858970761299">
        <ele>611.53999999999996</ele>
        <time>2025-05-18T09:54:23Z</time>
      </trkpt>
      <trkpt lat="43.781330035999417" lon="6.232840027660132">
        <ele>611.05999999999995</ele>
        <time>2025-05-18T09:54:24Z</time>
      </trkpt>
      <trkpt lat="43.781376974657178" lon="6.232824018225074">
        <ele>611.05999999999995</ele>
        <time>2025-05-18T09:54:25Z</time>
      </trkpt>
      <trkpt lat="43.781408993527293" lon="6.232813037931919">
        <ele>611.05999999999995</ele>
        <time>2025-05-18T09:54:32Z</time>
      </trkpt>
      <trkpt lat="43.781428020447493" lon="6.232804991304874">
        <ele>611.05999999999995</ele>
        <time>2025-05-18T09:54:47Z</time>
      </trkpt>
      <trkpt lat="43.781418967992067" lon="6.232807002961636">
        <ele>613.46000000000004</ele>
        <time>2025-05-18T09:54:48Z</time>
      </trkpt>
      <trkpt lat="43.781409999355674" lon="6.232758974656463">
        <ele>614.41999999999996</ele>
        <time>2025-05-18T09:54:49Z</time>
      </trkpt>
      <trkpt lat="43.781398013234138" lon="6.232689991593361">
        <ele>614.89999999999998</ele>
        <time>2025-05-18T09:54:50Z</time>
      </trkpt>
      <trkpt lat="43.781382003799081" lon="6.232603993266821">
        <ele>614.89999999999998</ele>
        <time>2025-05-18T09:54:51Z</time>
      </trkpt>
      <trkpt lat="43.781365994364023" lon="6.232510032132268">
        <ele>614.89999999999998</ele>
        <time>2025-05-18T09:54:52Z</time>
      </trkpt>
      <trkpt lat="43.781312014907598" lon="6.232209037989378">
        <ele>614.41999999999996</ele>
        <time>2025-05-18T09:54:55Z</time>
      </trkpt>
      <trkpt lat="43.781247977167368" lon="6.232091020792723">
        <ele>614.89999999999998</ele>
        <time>2025-05-18T09:54:56Z</time>
      </trkpt>
      <trkpt lat="43.781057959422469" lon="6.231739986687899">
        <ele>614.41999999999996</ele>
        <time>2025-05-18T09:54:59Z</time>
      </trkpt>
      <trkpt lat="43.780982019379735" lon="6.231634961441159">
        <ele>613.94000000000005</ele>
        <time>2025-05-18T09:55:00Z</time>
      </trkpt>
      <trkpt lat="43.780903983861208" lon="6.231544017791748">
        <ele>613.46000000000004</ele>
        <time>2025-05-18T09:55:01Z</time>
      </trkpt>
      <trkpt lat="43.780781021341681" lon="6.231518033891916">
        <ele>613.46000000000004</ele>
        <time>2025-05-18T09:55:02Z</time>
      </trkpt>
      <trkpt lat="43.7806729786098" lon="6.231494983658195">
        <ele>612.98000000000002</ele>
        <time>2025-05-18T09:55:03Z</time>
      </trkpt>
      <trkpt lat="43.780574994161725" lon="6.231450978666544">
        <ele>612.01999999999998</ele>
        <time>2025-05-18T09:55:04Z</time>
      </trkpt>
      <trkpt lat="43.780507016927004" lon="6.231381995603442">
        <ele>611.53999999999996</ele>
        <time>2025-05-18T09:55:05Z</time>
      </trkpt>
      <trkpt lat="43.780487990006804" lon="6.231281999498606">
        <ele>611.05999999999995</ele>
        <time>2025-05-18T09:55:06Z</time>
      </trkpt>
      <trkpt lat="43.780480027198792" lon="6.231187032535672">
        <ele>610.57000000000005</ele>
        <time>2025-05-18T09:55:07Z</time>
      </trkpt>
      <trkpt lat="43.780516991391778" lon="6.231088964268565">
        <ele>610.09000000000003</ele>
        <time>2025-05-18T09:55:08Z</time>
      </trkpt>
      <trkpt lat="43.78058597445488" lon="6.231010006740689">
        <ele>609.61000000000001</ele>
        <time>2025-05-18T09:55:09Z</time>
      </trkpt>
      <trkpt lat="43.780670966953039" lon="6.230930965393782">
        <ele>609.61000000000001</ele>
        <time>2025-05-18T09:55:10Z</time>
      </trkpt>
      <trkpt lat="43.780771968886256" lon="6.230857037007809">
        <ele>609.13</ele>
        <time>2025-05-18T09:55:11Z</time>
      </trkpt>
      <trkpt lat="43.780871964991093" lon="6.230784030631185">
        <ele>608.64999999999998</ele>
        <time>2025-05-18T09:55:12Z</time>
      </trkpt>
      <trkpt lat="43.78097397275269" lon="6.230688979849219">
        <ele>608.16999999999996</ele>
        <time>2025-05-18T09:55:13Z</time>
      </trkpt>
      <trkpt lat="43.781060976907611" lon="6.230557970702648">
        <ele>607.21000000000004</ele>
        <time>2025-05-18T09:55:14Z</time>
      </trkpt>
      <trkpt lat="43.781153010204434" lon="6.230420004576445">
        <ele>606.25</ele>
        <time>2025-05-18T09:55:15Z</time>
      </trkpt>
      <trkpt lat="43.78125200048089" lon="6.230271980166435">
        <ele>605.76999999999998</ele>
        <time>2025-05-18T09:55:16Z</time>
      </trkpt>
      <trkpt lat="43.78135803155601" lon="6.230124039575458">
        <ele>604.80999999999995</ele>
        <time>2025-05-18T09:55:17Z</time>
      </trkpt>
      <trkpt lat="43.781673023477197" lon="6.229704022407532">
        <ele>602.88</ele>
        <time>2025-05-18T09:55:20Z</time>
      </trkpt>
      <trkpt lat="43.781725997105241" lon="6.229550968855619">
        <ele>601.91999999999996</ele>
        <time>2025-05-18T09:55:21Z</time>
      </trkpt>
      <trkpt lat="43.781762961298227" lon="6.229440998286009">
        <ele>601.44000000000005</ele>
        <time>2025-05-18T09:55:22Z</time>
      </trkpt>
      <trkpt lat="43.781733037903905" lon="6.229335973039269">
        <ele>600.48000000000002</ele>
        <time>2025-05-18T09:55:23Z</time>
      </trkpt>
      <trkpt lat="43.781696995720267" lon="6.229291968047619">
        <ele>600</ele>
        <time>2025-05-18T09:55:24Z</time>
      </trkpt>
      <trkpt lat="43.781626001000404" lon="6.22929397970438">
        <ele>599.03999999999996</ele>
        <time>2025-05-18T09:55:25Z</time>
      </trkpt>
      <trkpt lat="43.781544025987387" lon="6.229296997189522">
        <ele>598.55999999999995</ele>
        <time>2025-05-18T09:55:26Z</time>
      </trkpt>
      <trkpt lat="43.781457021832466" lon="6.229299008846283">
        <ele>598.08000000000004</ele>
        <time>2025-05-18T09:55:27Z</time>
      </trkpt>
      <trkpt lat="43.781234985217452" lon="6.229305965825915">
        <ele>597.60000000000002</ele>
        <time>2025-05-18T09:55:29Z</time>
      </trkpt>
      <trkpt lat="43.781109005212784" lon="6.229309989139438">
        <ele>597.12</ele>
        <time>2025-05-18T09:55:30Z</time>
      </trkpt>
      <trkpt lat="43.780987970530987" lon="6.229280987754464">
        <ele>596.14999999999998</ele>
        <time>2025-05-18T09:55:31Z</time>
      </trkpt>
      <trkpt lat="43.780854027718306" lon="6.229218039661646">
        <ele>595.66999999999996</ele>
        <time>2025-05-18T09:55:32Z</time>
      </trkpt>
      <trkpt lat="43.780727041885257" lon="6.229158025234938">
        <ele>595.66999999999996</ele>
        <time>2025-05-18T09:55:33Z</time>
      </trkpt>
      <trkpt lat="43.780592009425163" lon="6.229132041335106">
        <ele>595.19000000000005</ele>
        <time>2025-05-18T09:55:34Z</time>
      </trkpt>
      <trkpt lat="43.780454965308309" lon="6.229119971394539">
        <ele>595.19000000000005</ele>
        <time>2025-05-18T09:55:35Z</time>
      </trkpt>
      <trkpt lat="43.78000502474606" lon="6.22907898388803">
        <ele>594.23000000000002</ele>
        <time>2025-05-18T09:55:38Z</time>
      </trkpt>
      <trkpt lat="43.779858006164432" lon="6.229020981118083">
        <ele>593.75</ele>
        <time>2025-05-18T09:55:39Z</time>
      </trkpt>
      <trkpt lat="43.779707970097661" lon="6.228954009711742">
        <ele>593.26999999999998</ele>
        <time>2025-05-18T09:55:40Z</time>
      </trkpt>
      <trkpt lat="43.77957402728498" lon="6.228892989456654">
        <ele>592.30999999999995</ele>
        <time>2025-05-18T09:55:41Z</time>
      </trkpt>
      <trkpt lat="43.779480988159776" lon="6.228812020272017">
        <ele>591.83000000000004</ele>
        <time>2025-05-18T09:55:42Z</time>
      </trkpt>
      <trkpt lat="43.7794020306319" lon="6.228732978925109">
        <ele>591.35000000000002</ele>
        <time>2025-05-18T09:55:43Z</time>
      </trkpt>
      <trkpt lat="43.779378980398178" lon="6.228622002527118">
        <ele>591.35000000000002</ele>
        <time>2025-05-18T09:55:44Z</time>
      </trkpt>
      <trkpt lat="43.779352996498346" lon="6.228491999208927">
        <ele>590.87</ele>
        <time>2025-05-18T09:55:45Z</time>
      </trkpt>
      <trkpt lat="43.779326006770134" lon="6.228365013375878">
        <ele>590.38999999999999</ele>
        <time>2025-05-18T09:55:46Z</time>
      </trkpt>
      <trkpt lat="43.779300022870302" lon="6.22823903337121">
        <ele>589.90999999999997</ele>
        <time>2025-05-18T09:55:47Z</time>
      </trkpt>
      <trkpt lat="43.779259035363793" lon="6.228085979819298">
        <ele>588.95000000000005</ele>
        <time>2025-05-18T09:55:48Z</time>
      </trkpt>
      <trkpt lat="43.779183011502028" lon="6.227958993986249">
        <ele>587.98000000000002</ele>
        <time>2025-05-18T09:55:49Z</time>
      </trkpt>
      <trkpt lat="43.779100030660629" lon="6.227822033688426">
        <ele>587.01999999999998</ele>
        <time>2025-05-18T09:55:50Z</time>
      </trkpt>
      <trkpt lat="43.779001040384173" lon="6.227690018713474">
        <ele>586.05999999999995</ele>
        <time>2025-05-18T09:55:51Z</time>
      </trkpt>
      <trkpt lat="43.778905989602208" lon="6.227570995688438">
        <ele>585.10000000000002</ele>
        <time>2025-05-18T09:55:52Z</time>
      </trkpt>
      <trkpt lat="43.77882300876081" lon="6.22746697627008">
        <ele>584.62</ele>
        <time>2025-05-18T09:55:53Z</time>
      </trkpt>
      <trkpt lat="43.77878000959754" lon="6.227317024022341">
        <ele>583.65999999999997</ele>
        <time>2025-05-18T09:55:54Z</time>
      </trkpt>
      <trkpt lat="43.778786966577172" lon="6.227147961035371">
        <ele>583.17999999999995</ele>
        <time>2025-05-18T09:55:55Z</time>
      </trkpt>
      <trkpt lat="43.778794007375836" lon="6.226960960775614">
        <ele>582.22000000000003</ele>
        <time>2025-05-18T09:55:56Z</time>
      </trkpt>
      <trkpt lat="43.778800964355469" lon="6.226789969950914">
        <ele>581.73000000000002</ele>
        <time>2025-05-18T09:55:57Z</time>
      </trkpt>
      <trkpt lat="43.778765005990863" lon="6.226637000218034">
        <ele>581.25</ele>
        <time>2025-05-18T09:55:58Z</time>
      </trkpt>
      <trkpt lat="43.778629973530769" lon="6.22611497528851">
        <ele>579.80999999999995</ele>
        <time>2025-05-18T09:56:01Z</time>
      </trkpt>
      <trkpt lat="43.778616981580853" lon="6.225944990292192">
        <ele>579.33000000000004</ele>
        <time>2025-05-18T09:56:02Z</time>
      </trkpt>
      <trkpt lat="43.778574988245964" lon="6.225206041708589">
        <ele>576.92999999999995</ele>
        <time>2025-05-18T09:56:06Z</time>
      </trkpt>
      <trkpt lat="43.778526959940791" lon="6.225086012855172">
        <ele>576.45000000000005</ele>
        <time>2025-05-18T09:56:07Z</time>
      </trkpt>
      <trkpt lat="43.778456971049309" lon="6.22497696429491">
        <ele>575.49000000000001</ele>
        <time>2025-05-18T09:56:08Z</time>
      </trkpt>
      <trkpt lat="43.778357980772853" lon="6.224877974018455">
        <ele>575.00999999999999</ele>
        <time>2025-05-18T09:56:09Z</time>
      </trkpt>
      <trkpt lat="43.778251027688384" lon="6.224771020933986">
        <ele>574.52999999999997</ele>
        <time>2025-05-18T09:56:10Z</time>
      </trkpt>
      <trkpt lat="43.777824975550175" lon="6.224298030138016">
        <ele>572.12</ele>
        <time>2025-05-18T09:56:14Z</time>
      </trkpt>
      <trkpt lat="43.777741994708776" lon="6.224181018769741">
        <ele>571.15999999999997</ele>
        <time>2025-05-18T09:56:15Z</time>
      </trkpt>
      <trkpt lat="43.777693966403604" lon="6.224040035158396">
        <ele>570.67999999999995</ele>
        <time>2025-05-18T09:56:16Z</time>
      </trkpt>
      <trkpt lat="43.777647027745843" lon="6.223874995484948">
        <ele>570.20000000000005</ele>
        <time>2025-05-18T09:56:17Z</time>
      </trkpt>
      <trkpt lat="43.777596987783909" lon="6.223696963861585">
        <ele>569.24000000000001</ele>
        <time>2025-05-18T09:56:18Z</time>
      </trkpt>
      <trkpt lat="43.777436977252364" lon="6.223133029416204">
        <ele>567.79999999999995</ele>
        <time>2025-05-18T09:56:21Z</time>
      </trkpt>
      <trkpt lat="43.777319965884089" lon="6.222786018624902">
        <ele>566.83000000000004</ele>
        <time>2025-05-18T09:56:23Z</time>
      </trkpt>
      <trkpt lat="43.777256011962891" lon="6.222612010315061">
        <ele>566.35000000000002</ele>
        <time>2025-05-18T09:56:24Z</time>
      </trkpt>
      <trkpt lat="43.777165990322828" lon="6.222455017268658">
        <ele>565.87</ele>
        <time>2025-05-18T09:56:25Z</time>
      </trkpt>
      <trkpt lat="43.776843035593629" lon="6.222045980393887">
        <ele>563.95000000000005</ele>
        <time>2025-05-18T09:56:28Z</time>
      </trkpt>
      <trkpt lat="43.776643965393305" lon="6.22183601371944">
        <ele>562.02999999999997</ele>
        <time>2025-05-18T09:56:30Z</time>
      </trkpt>
      <trkpt lat="43.776576993986964" lon="6.221702992916107">
        <ele>561.07000000000005</ele>
        <time>2025-05-18T09:56:31Z</time>
      </trkpt>
      <trkpt lat="43.776527037844062" lon="6.221566032618284">
        <ele>560.59000000000003</ele>
        <time>2025-05-18T09:56:32Z</time>
      </trkpt>
      <trkpt lat="43.776527037844062" lon="6.22138598933816">
        <ele>559.62</ele>
        <time>2025-05-18T09:56:33Z</time>
      </trkpt>
      <trkpt lat="43.776542041450739" lon="6.221245005726814">
        <ele>558.65999999999997</ele>
        <time>2025-05-18T09:56:34Z</time>
      </trkpt>
      <trkpt lat="43.776587974280119" lon="6.221121037378907">
        <ele>557.70000000000005</ele>
        <time>2025-05-18T09:56:35Z</time>
      </trkpt>
      <trkpt lat="43.776665003970265" lon="6.220982987433672">
        <ele>557.22000000000003</ele>
        <time>2025-05-18T09:56:36Z</time>
      </trkpt>
      <trkpt lat="43.77676198258996" lon="6.220856001600623">
        <ele>556.25999999999999</ele>
        <time>2025-05-18T09:56:37Z</time>
      </trkpt>
      <trkpt lat="43.777085021138191" lon="6.220433972775936">
        <ele>553.86000000000001</ele>
        <time>2025-05-18T09:56:40Z</time>
      </trkpt>
      <trkpt lat="43.777189962565899" lon="6.220277985557914">
        <ele>552.89999999999998</ele>
        <time>2025-05-18T09:56:41Z</time>
      </trkpt>
      <trkpt lat="43.777267998084426" lon="6.220094002783299">
        <ele>551.92999999999995</ele>
        <time>2025-05-18T09:56:42Z</time>
      </trkpt>
      <trkpt lat="43.777580978348851" lon="6.219364022836089">
        <ele>548.09000000000003</ele>
        <time>2025-05-18T09:56:46Z</time>
      </trkpt>
      <trkpt lat="43.777663959190249" lon="6.219209041446447">
        <ele>547.13</ele>
        <time>2025-05-18T09:56:47Z</time>
      </trkpt>
      <trkpt lat="43.778257984668016" lon="6.218355009332299">
        <ele>540.88</ele>
        <time>2025-05-18T09:56:53Z</time>
      </trkpt>
      <trkpt lat="43.778308024629951" lon="6.218283008784056">
        <ele>539.44000000000005</ele>
        <time>2025-05-18T09:56:54Z</time>
      </trkpt>
      <trkpt lat="43.778395028784871" lon="6.21827001683414">
        <ele>538.48000000000002</ele>
        <time>2025-05-18T09:56:55Z</time>
      </trkpt>
      <trkpt lat="43.778492007404566" lon="6.218256019055843">
        <ele>537.50999999999999</ele>
        <time>2025-05-18T09:56:56Z</time>
      </trkpt>
      <trkpt lat="43.778601977974176" lon="6.218239003792405">
        <ele>536.07000000000005</ele>
        <time>2025-05-18T09:56:57Z</time>
      </trkpt>
      <trkpt lat="43.778700968250632" lon="6.218224000185728">
        <ele>535.11000000000001</ele>
        <time>2025-05-18T09:56:58Z</time>
      </trkpt>
      <trkpt lat="43.778783027082682" lon="6.218173038214445">
        <ele>534.14999999999998</ele>
        <time>2025-05-18T09:56:59Z</time>
      </trkpt>
      <trkpt lat="43.77886701375246" lon="6.218076981604099">
        <ele>533.66999999999996</ele>
        <time>2025-05-18T09:57:00Z</time>
      </trkpt>
      <trkpt lat="43.778876988217235" lon="6.217966005206108">
        <ele>533.19000000000005</ele>
        <time>2025-05-18T09:57:01Z</time>
      </trkpt>
      <trkpt lat="43.778886962682009" lon="6.217861985787749">
        <ele>532.71000000000004</ele>
        <time>2025-05-18T09:57:02Z</time>
      </trkpt>
      <trkpt lat="43.778825020417571" lon="6.217775987461209">
        <ele>532.23000000000002</ele>
        <time>2025-05-18T09:57:03Z</time>
      </trkpt>
      <trkpt lat="43.778756959363818" lon="6.217746986076236">
        <ele>531.75</ele>
        <time>2025-05-18T09:57:04Z</time>
      </trkpt>
      <trkpt lat="43.778682025149465" lon="6.217768024653196">
        <ele>531.26999999999998</ele>
        <time>2025-05-18T09:57:05Z</time>
      </trkpt>
      <trkpt lat="43.778594015166163" lon="6.217823009938002">
        <ele>530.78999999999996</ele>
        <time>2025-05-18T09:57:06Z</time>
      </trkpt>
      <trkpt lat="43.778497036546469" lon="6.217879001051188">
        <ele>530.29999999999995</ele>
        <time>2025-05-18T09:57:07Z</time>
      </trkpt>
      <trkpt lat="43.778386982157826" lon="6.217937003821135">
        <ele>528.86000000000001</ele>
        <time>2025-05-18T09:57:08Z</time>
      </trkpt>
      <trkpt lat="43.778266031295061" lon="6.218001041561365">
        <ele>527.89999999999998</ele>
        <time>2025-05-18T09:57:09Z</time>
      </trkpt>
      <trkpt lat="43.778138039633632" lon="6.218044040724635">
        <ele>526.94000000000005</ele>
        <time>2025-05-18T09:57:10Z</time>
      </trkpt>
      <trkpt lat="43.777991021052003" lon="6.218030964955688">
        <ele>525.5</ele>
        <time>2025-05-18T09:57:11Z</time>
      </trkpt>
      <trkpt lat="43.777840984985232" lon="6.218017973005772">
        <ele>524.05999999999995</ele>
        <time>2025-05-18T09:57:12Z</time>
      </trkpt>
      <trkpt lat="43.777697989717126" lon="6.218004981055856">
        <ele>522.13</ele>
        <time>2025-05-18T09:57:13Z</time>
      </trkpt>
      <trkpt lat="43.777334969490767" lon="6.218020990490913">
        <ele>518.76999999999998</ele>
        <time>2025-05-18T09:57:16Z</time>
      </trkpt>
      <trkpt lat="43.777261041104794" lon="6.218086034059525">
        <ele>517.33000000000004</ele>
        <time>2025-05-18T09:57:17Z</time>
      </trkpt>
      <trkpt lat="43.777189962565899" lon="6.218160968273878">
        <ele>515.88</ele>
        <time>2025-05-18T09:57:18Z</time>
      </trkpt>
      <trkpt lat="43.777156015858054" lon="6.218276973813772">
        <ele>514.91999999999996</ele>
        <time>2025-05-18T09:57:19Z</time>
      </trkpt>
      <trkpt lat="43.777118967846036" lon="6.218397002667189">
        <ele>513.96000000000004</ele>
        <time>2025-05-18T09:57:20Z</time>
      </trkpt>
      <trkpt lat="43.777077980339527" lon="6.218533040955663">
        <ele>512.51999999999998</ele>
        <time>2025-05-18T09:57:21Z</time>
      </trkpt>
      <trkpt lat="43.777035987004638" lon="6.218675030395389">
        <ele>511.56</ele>
        <time>2025-05-18T09:57:22Z</time>
      </trkpt>
      <trkpt lat="43.776974966749549" lon="6.218826994299889">
        <ele>510.12</ele>
        <time>2025-05-18T09:57:23Z</time>
      </trkpt>
      <trkpt lat="43.776885028928518" lon="6.218931013718247">
        <ele>509.16000000000003</ele>
        <time>2025-05-18T09:57:24Z</time>
      </trkpt>
      <trkpt lat="43.77676198258996" lon="6.219007959589362">
        <ele>508.19</ele>
        <time>2025-05-18T09:57:25Z</time>
      </trkpt>
      <trkpt lat="43.776637008413672" lon="6.21906696818769">
        <ele>507.23000000000002</ele>
        <time>2025-05-18T09:57:26Z</time>
      </trkpt>
      <trkpt lat="43.776504993438721" lon="6.219103010371327">
        <ele>506.75</ele>
        <time>2025-05-18T09:57:27Z</time>
      </trkpt>
      <trkpt lat="43.776356969028711" lon="6.219092030078173">
        <ele>505.79000000000002</ele>
        <time>2025-05-18T09:57:28Z</time>
      </trkpt>
      <trkpt lat="43.776214979588985" lon="6.21904500760138">
        <ele>504.82999999999998</ele>
        <time>2025-05-18T09:57:29Z</time>
      </trkpt>
      <trkpt lat="43.776075001806021" lon="6.218997985124588">
        <ele>503.87</ele>
        <time>2025-05-18T09:57:30Z</time>
      </trkpt>
      <trkpt lat="43.775950027629733" lon="6.218955991789699">
        <ele>502.91000000000003</ele>
        <time>2025-05-18T09:57:31Z</time>
      </trkpt>
      <trkpt lat="43.775846008211374" lon="6.218930007889867">
        <ele>502.43000000000001</ele>
        <time>2025-05-18T09:57:32Z</time>
      </trkpt>
      <trkpt lat="43.775755986571312" lon="6.218948028981686">
        <ele>501.45999999999998</ele>
        <time>2025-05-18T09:57:33Z</time>
      </trkpt>
      <trkpt lat="43.775702007114887" lon="6.219048025086522">
        <ele>500.98000000000002</ele>
        <time>2025-05-18T09:57:34Z</time>
      </trkpt>
      <trkpt lat="43.775649033486843" lon="6.219148021191359">
        <ele>500.5</ele>
        <time>2025-05-18T09:57:35Z</time>
      </trkpt>
      <trkpt lat="43.775590024888515" lon="6.21925899758935">
        <ele>499.54000000000002</ele>
        <time>2025-05-18T09:57:36Z</time>
      </trkpt>
      <trkpt lat="43.775461027398705" lon="6.219504000619054">
        <ele>498.10000000000002</ele>
        <time>2025-05-18T09:57:38Z</time>
      </trkpt>
      <trkpt lat="43.775388021022081" lon="6.219640038907528">
        <ele>497.62</ele>
        <time>2025-05-18T09:57:39Z</time>
      </trkpt>
      <trkpt lat="43.775290036574006" lon="6.219735005870462">
        <ele>496.66000000000003</ele>
        <time>2025-05-18T09:57:40Z</time>
      </trkpt>
      <trkpt lat="43.775184005498886" lon="6.219812035560608">
        <ele>496.18000000000001</ele>
        <time>2025-05-18T09:57:41Z</time>
      </trkpt>
      <trkpt lat="43.775060037150979" lon="6.219850005581975">
        <ele>496.18000000000001</ele>
        <time>2025-05-18T09:57:42Z</time>
      </trkpt>
      <trkpt lat="43.774932967498899" lon="6.219850005581975">
        <ele>495.69999999999999</ele>
        <time>2025-05-18T09:57:43Z</time>
      </trkpt>
      <trkpt lat="43.774801036342978" lon="6.21981798671186">
        <ele>494.74000000000001</ele>
        <time>2025-05-18T09:57:44Z</time>
      </trkpt>
      <trkpt lat="43.774667009711266" lon="6.21977498754859">
        <ele>494.25999999999999</ele>
        <time>2025-05-18T09:57:45Z</time>
      </trkpt>
      <trkpt lat="43.774543041363358" lon="6.219687983393669">
        <ele>493.76999999999998</ele>
        <time>2025-05-18T09:57:46Z</time>
      </trkpt>
      <trkpt lat="43.774421000853181" lon="6.219601985067129">
        <ele>493.29000000000002</ele>
        <time>2025-05-18T09:57:47Z</time>
      </trkpt>
      <trkpt lat="43.774198964238167" lon="6.219445997849107">
        <ele>492.81</ele>
        <time>2025-05-18T09:57:49Z</time>
      </trkpt>
      <trkpt lat="43.774101985618472" lon="6.219378020614386">
        <ele>492.81</ele>
        <time>2025-05-18T09:57:50Z</time>
      </trkpt>
      <trkpt lat="43.774069966748357" lon="6.219312977045775">
        <ele>492.32999999999998</ele>
        <time>2025-05-18T09:57:51Z</time>
      </trkpt>
      <trkpt lat="43.774029985070229" lon="6.219210969284177">
        <ele>492.32999999999998</ele>
        <time>2025-05-18T09:57:52Z</time>
      </trkpt>
      <trkpt lat="43.774004001170397" lon="6.219079960137606">
        <ele>491.85000000000002</ele>
        <time>2025-05-18T09:57:53Z</time>
      </trkpt>
      <trkpt lat="43.773894030600786" lon="6.218566987663508">
        <ele>489.93000000000001</ele>
        <time>2025-05-18T09:57:59Z</time>
      </trkpt>
      <trkpt lat="43.773869974538684" lon="6.218471014872193">
        <ele>489.93000000000001</ele>
        <time>2025-05-18T09:58:01Z</time>
      </trkpt>
      <trkpt lat="43.773866035044193" lon="6.218455005437136">
        <ele>489.93000000000001</ele>
        <time>2025-05-18T09:58:02Z</time>
      </trkpt>
      <trkpt lat="43.773747012019157" lon="6.218481995165348">
        <ele>489.93000000000001</ele>
        <time>2025-05-18T09:58:03Z</time>
      </trkpt>
      <trkpt lat="43.773664031177759" lon="6.218501022085547">
        <ele>490.41000000000003</ele>
        <time>2025-05-18T09:58:04Z</time>
      </trkpt>
      <trkpt lat="43.773566968739033" lon="6.218522982671857">
        <ele>490.41000000000003</ele>
        <time>2025-05-18T09:58:05Z</time>
      </trkpt>
      <trkpt lat="43.772516967728734" lon="6.218720963224769">
        <ele>491.85000000000002</ele>
        <time>2025-05-18T09:58:13Z</time>
      </trkpt>
      <trkpt lat="43.771028006449342" lon="6.218875022605062">
        <ele>491.37</ele>
        <time>2025-05-18T09:58:21Z</time>
      </trkpt>
      <trkpt lat="43.7694760132581" lon="6.218711994588375">
        <ele>491.85000000000002</ele>
        <time>2025-05-18T09:58:29Z</time>
      </trkpt>
      <trkpt lat="43.769015008583665" lon="6.218582997098565">
        <ele>492.32999999999998</ele>
        <time>2025-05-18T09:58:33Z</time>
      </trkpt>
      <trkpt lat="43.768962034955621" lon="6.218565981835127">
        <ele>492.32999999999998</ele>
        <time>2025-05-18T09:58:34Z</time>
      </trkpt>
      <trkpt lat="43.768781991675496" lon="6.218505967408419">
        <ele>494.25999999999999</ele>
        <time>2025-05-18T09:58:43Z</time>
      </trkpt>
      <trkpt lat="43.768781991675496" lon="6.218505967408419">
        <ele>494.25999999999999</ele>
        <time>2025-05-18T09:59:19Z</time>
      </trkpt>
      <trkpt lat="43.768781991675496" lon="6.218505967408419">
        <ele>495.69999999999999</ele>
        <time>2025-05-18T10:00:28Z</time>
      </trkpt>
      <trkpt lat="43.768781991675496" lon="6.218505967408419">
        <ele>496.66000000000003</ele>
        <time>2025-05-18T10:01:29Z</time>
      </trkpt>
      <trkpt lat="43.768781991675496" lon="6.218505967408419">
        <ele>497.62</ele>
        <time>2025-05-18T10:02:32Z</time>
      </trkpt>
      <trkpt lat="43.768688030540943" lon="6.218475038185716">
        <ele>500.5</ele>
        <time>2025-05-18T10:03:26Z</time>
      </trkpt>
      <trkpt lat="43.76842500641942" lon="6.218388034030795">
        <ele>501.45999999999998</ele>
        <time>2025-05-18T10:03:29Z</time>
      </trkpt>
      <trkpt lat="43.767453962936997" lon="6.218067007139325">
        <ele>502.91000000000003</ele>
        <time>2025-05-18T10:03:35Z</time>
      </trkpt>
      <trkpt lat="43.765401989221573" lon="6.217465018853545">
        <ele>507.70999999999998</ele>
        <time>2025-05-18T10:03:45Z</time>
      </trkpt>
      <trkpt lat="43.763911016285419" lon="6.217656964436173">
        <ele>510.60000000000002</ele>
        <time>2025-05-18T10:03:52Z</time>
      </trkpt>
      <trkpt lat="43.762023998424411" lon="6.218001963570714">
        <ele>512.51999999999998</ele>
        <time>2025-05-18T10:04:01Z</time>
      </trkpt>
      <trkpt lat="43.759797010570765" lon="6.217960976064205">
        <ele>512.03999999999996</ele>
        <time>2025-05-18T10:04:11Z</time>
      </trkpt>
      <trkpt lat="43.759596012532711" lon="6.21799198910594">
        <ele>512.03999999999996</ele>
        <time>2025-05-18T10:04:12Z</time>
      </trkpt>
      <trkpt lat="43.759403983131051" lon="6.218083016574383">
        <ele>511.56</ele>
        <time>2025-05-18T10:04:13Z</time>
      </trkpt>
      <trkpt lat="43.759217988699675" lon="6.218193992972374">
        <ele>511.07999999999998</ele>
        <time>2025-05-18T10:04:14Z</time>
      </trkpt>
      <trkpt lat="43.759054038673639" lon="6.21837998740375">
        <ele>510.12</ele>
        <time>2025-05-18T10:04:15Z</time>
      </trkpt>
      <trkpt lat="43.758888999000192" lon="6.218576040118933">
        <ele>509.16000000000003</ele>
        <time>2025-05-18T10:04:16Z</time>
      </trkpt>
      <trkpt lat="43.758722031489015" lon="6.218793969601393">
        <ele>508.67000000000002</ele>
        <time>2025-05-18T10:04:17Z</time>
      </trkpt>
      <trkpt lat="43.758007977157831" lon="6.219648001715541">
        <ele>507.70999999999998</ele>
        <time>2025-05-18T10:04:21Z</time>
      </trkpt>
      <trkpt lat="43.757791975513101" lon="6.219768030568957">
        <ele>507.70999999999998</ele>
        <time>2025-05-18T10:04:22Z</time>
      </trkpt>
      <trkpt lat="43.757579997181892" lon="6.219886969774962">
        <ele>508.19</ele>
        <time>2025-05-18T10:04:23Z</time>
      </trkpt>
      <trkpt lat="43.757371036335826" lon="6.219956958666444">
        <ele>509.16000000000003</ele>
        <time>2025-05-18T10:04:24Z</time>
      </trkpt>
      <trkpt lat="43.757156040519476" lon="6.219995012506843">
        <ele>510.12</ele>
        <time>2025-05-18T10:04:25Z</time>
      </trkpt>
      <trkpt lat="43.756941966712475" lon="6.219961987808347">
        <ele>511.56</ele>
        <time>2025-05-18T10:04:26Z</time>
      </trkpt>
      <trkpt lat="43.756722025573254" lon="6.219918988645077">
        <ele>512.51999999999998</ele>
        <time>2025-05-18T10:04:27Z</time>
      </trkpt>
      <trkpt lat="43.756514992564917" lon="6.219845982268453">
        <ele>513.96000000000004</ele>
        <time>2025-05-18T10:04:28Z</time>
      </trkpt>
      <trkpt lat="43.756318017840385" lon="6.219700975343585">
        <ele>515.39999999999998</ele>
        <time>2025-05-18T10:04:29Z</time>
      </trkpt>
      <trkpt lat="43.756120037287474" lon="6.219555968418717">
        <ele>516.85000000000002</ele>
        <time>2025-05-18T10:04:30Z</time>
      </trkpt>
      <trkpt lat="43.754906002432108" lon="6.218656003475189">
        <ele>526.94000000000005</ele>
        <time>2025-05-18T10:04:37Z</time>
      </trkpt>
      <trkpt lat="43.754783039912581" lon="6.218627002090216">
        <ele>527.41999999999996</ele>
        <time>2025-05-18T10:04:38Z</time>
      </trkpt>
      <trkpt lat="43.754666028544307" lon="6.218646029010415">
        <ele>528.38</ele>
        <time>2025-05-18T10:04:39Z</time>
      </trkpt>
      <trkpt lat="43.754580030217767" lon="6.218745019286871">
        <ele>529.34000000000003</ele>
        <time>2025-05-18T10:04:40Z</time>
      </trkpt>
      <trkpt lat="43.754526972770691" lon="6.21885297819972">
        <ele>529.82000000000005</ele>
        <time>2025-05-18T10:04:41Z</time>
      </trkpt>
      <trkpt lat="43.754513980820775" lon="6.218990022316575">
        <ele>530.78999999999996</ele>
        <time>2025-05-18T10:04:42Z</time>
      </trkpt>
      <trkpt lat="43.754547005519271" lon="6.219111979007721">
        <ele>531.75</ele>
        <time>2025-05-18T10:04:43Z</time>
      </trkpt>
      <trkpt lat="43.754596961662173" lon="6.219249023124576">
        <ele>532.71000000000004</ele>
        <time>2025-05-18T10:04:44Z</time>
      </trkpt>
      <trkpt lat="43.754700981080532" lon="6.219352958723903">
        <ele>533.19000000000005</ele>
        <time>2025-05-18T10:04:45Z</time>
      </trkpt>
      <trkpt lat="43.754814974963665" lon="6.219467036426067">
        <ele>533.66999999999996</ele>
        <time>2025-05-18T10:04:46Z</time>
      </trkpt>
      <trkpt lat="43.754927963018417" lon="6.219600979238749">
        <ele>534.14999999999998</ele>
        <time>2025-05-18T10:04:47Z</time>
      </trkpt>
      <trkpt lat="43.755036005750299" lon="6.219739029183984">
        <ele>535.11000000000001</ele>
        <time>2025-05-18T10:04:48Z</time>
      </trkpt>
      <trkpt lat="43.755141030997038" lon="6.219873977825046">
        <ele>535.59000000000003</ele>
        <time>2025-05-18T10:04:49Z</time>
      </trkpt>
      <trkpt lat="43.755174977704883" lon="6.220059972256422">
        <ele>536.54999999999995</ele>
        <time>2025-05-18T10:04:50Z</time>
      </trkpt>
      <trkpt lat="43.755198027938604" lon="6.220257030799985">
        <ele>537.50999999999999</ele>
        <time>2025-05-18T10:04:51Z</time>
      </trkpt>
      <trkpt lat="43.755165003240108" lon="6.220428021624684">
        <ele>537.99000000000001</ele>
        <time>2025-05-18T10:04:52Z</time>
      </trkpt>
      <trkpt lat="43.755126027390361" lon="6.220633964985609">
        <ele>538.96000000000004</ele>
        <time>2025-05-18T10:04:53Z</time>
      </trkpt>
      <trkpt lat="43.754792008548975" lon="6.222369018942118">
        <ele>545.69000000000005</ele>
        <time>2025-05-18T10:05:00Z</time>
      </trkpt>
      <trkpt lat="43.754552034661174" lon="6.223388006910682">
        <ele>550.49000000000001</ele>
        <time>2025-05-18T10:05:04Z</time>
      </trkpt>
      <trkpt lat="43.754464024677873" lon="6.223629992455244">
        <ele>551.92999999999995</ele>
        <time>2025-05-18T10:05:05Z</time>
      </trkpt>
      <trkpt lat="43.754339972510934" lon="6.223844988271594">
        <ele>552.89999999999998</ele>
        <time>2025-05-18T10:05:06Z</time>
      </trkpt>
      <trkpt lat="43.75420100055635" lon="6.224064007401466">
        <ele>554.34000000000003</ele>
        <time>2025-05-18T10:05:07Z</time>
      </trkpt>
      <trkpt lat="43.75403000973165" lon="6.224226029589772">
        <ele>555.77999999999997</ele>
        <time>2025-05-18T10:05:08Z</time>
      </trkpt>
      <trkpt lat="43.753852983936667" lon="6.224395008757711">
        <ele>556.74000000000001</ele>
        <time>2025-05-18T10:05:09Z</time>
      </trkpt>
      <trkpt lat="43.753670006990433" lon="6.224570022895932">
        <ele>558.17999999999995</ele>
        <time>2025-05-18T10:05:10Z</time>
      </trkpt>
      <trkpt lat="43.752145003527403" lon="6.225794032216072">
        <ele>565.38999999999999</ele>
        <time>2025-05-18T10:05:18Z</time>
      </trkpt>
      <trkpt lat="43.751979041844606" lon="6.225900985300541">
        <ele>565.87</ele>
        <time>2025-05-18T10:05:19Z</time>
      </trkpt>
      <trkpt lat="43.751852978020906" lon="6.226089997217059">
        <ele>566.83000000000004</ele>
        <time>2025-05-18T10:05:20Z</time>
      </trkpt>
      <trkpt lat="43.75175298191607" lon="6.226303987205029">
        <ele>567.79999999999995</ele>
        <time>2025-05-18T10:05:21Z</time>
      </trkpt>
      <trkpt lat="43.751673018559813" lon="6.226518983021379">
        <ele>569.24000000000001</ele>
        <time>2025-05-18T10:05:22Z</time>
      </trkpt>
      <trkpt lat="43.751581991091371" lon="6.226705983281136">
        <ele>570.20000000000005</ele>
        <time>2025-05-18T10:05:23Z</time>
      </trkpt>
      <trkpt lat="43.751479983329773" lon="6.226807991042733">
        <ele>571.63999999999999</ele>
        <time>2025-05-18T10:05:24Z</time>
      </trkpt>
      <trkpt lat="43.751370012760162" lon="6.226837998256087">
        <ele>572.60000000000002</ele>
        <time>2025-05-18T10:05:25Z</time>
      </trkpt>
      <trkpt lat="43.751276973634958" lon="6.226787036284804">
        <ele>573.55999999999995</ele>
        <time>2025-05-18T10:05:26Z</time>
      </trkpt>
      <trkpt lat="43.751164991408587" lon="6.226703971624374">
        <ele>575.00999999999999</ele>
        <time>2025-05-18T10:05:27Z</time>
      </trkpt>
      <trkpt lat="43.751077987253666" lon="6.226559970527887">
        <ele>575.97000000000003</ele>
        <time>2025-05-18T10:05:28Z</time>
      </trkpt>
      <trkpt lat="43.750981008633971" lon="6.226398032158613">
        <ele>576.92999999999995</ele>
        <time>2025-05-18T10:05:29Z</time>
      </trkpt>
      <trkpt lat="43.750025974586606" lon="6.22482399456203">
        <ele>589.42999999999995</ele>
        <time>2025-05-18T10:05:37Z</time>
      </trkpt>
      <trkpt lat="43.749506967142224" lon="6.223975997418165">
        <ele>595.66999999999996</ele>
        <time>2025-05-18T10:05:41Z</time>
      </trkpt>
      <trkpt lat="43.749342011287808" lon="6.223810035735369">
        <ele>597.12</ele>
        <time>2025-05-18T10:05:42Z</time>
      </trkpt>
      <trkpt lat="43.747833017259836" lon="6.222467003390193">
        <ele>606.73000000000002</ele>
        <time>2025-05-18T10:05:51Z</time>
      </trkpt>
      <trkpt lat="43.747687004506588" lon="6.222358960658312">
        <ele>607.69000000000005</ele>
        <time>2025-05-18T10:05:52Z</time>
      </trkpt>
      <trkpt lat="43.747531017288566" lon="6.222276985645294">
        <ele>608.64999999999998</ele>
        <time>2025-05-18T10:05:53Z</time>
      </trkpt>
      <trkpt lat="43.747362960129976" lon="6.222232980653644">
        <ele>609.61000000000001</ele>
        <time>2025-05-18T10:05:54Z</time>
      </trkpt>
      <trkpt lat="43.747187023982406" lon="6.222188975661993">
        <ele>610.09000000000003</ele>
        <time>2025-05-18T10:05:55Z</time>
      </trkpt>
      <trkpt lat="43.747011004015803" lon="6.222206996753812">
        <ele>611.05999999999995</ele>
        <time>2025-05-18T10:05:56Z</time>
      </trkpt>
      <trkpt lat="43.746836995705962" lon="6.22226600535214">
        <ele>611.53999999999996</ele>
        <time>2025-05-18T10:05:57Z</time>
      </trkpt>
      <trkpt lat="43.746670028194785" lon="6.222330965101719">
        <ele>612.5</ele>
        <time>2025-05-18T10:05:58Z</time>
      </trkpt>
      <trkpt lat="43.746485961601138" lon="6.222402965649962">
        <ele>612.98000000000002</ele>
        <time>2025-05-18T10:05:59Z</time>
      </trkpt>
      <trkpt lat="43.746344977989793" lon="6.222491981461644">
        <ele>613.46000000000004</ele>
        <time>2025-05-18T10:06:00Z</time>
      </trkpt>
      <trkpt lat="43.744755014777184" lon="6.223423965275288">
        <ele>616.34000000000003</ele>
        <time>2025-05-18T10:06:09Z</time>
      </trkpt>
      <trkpt lat="43.744578994810581" lon="6.223463024944067">
        <ele>616.82000000000005</ele>
        <time>2025-05-18T10:06:10Z</time>
      </trkpt>
      <trkpt lat="43.74440498650074" lon="6.223466964438558">
        <ele>616.82000000000005</ele>
        <time>2025-05-18T10:06:11Z</time>
      </trkpt>
      <trkpt lat="43.744239024817944" lon="6.223400998860598">
        <ele>617.29999999999995</ele>
        <time>2025-05-18T10:06:12Z</time>
      </trkpt>
      <trkpt lat="43.744079014286399" lon="6.223324974998832">
        <ele>617.29999999999995</ele>
        <time>2025-05-18T10:06:13Z</time>
      </trkpt>
      <trkpt lat="43.743927972391248" lon="6.223192038014531">
        <ele>617.77999999999997</ele>
        <time>2025-05-18T10:06:14Z</time>
      </trkpt>
      <trkpt lat="43.743769973516464" lon="6.223051976412535">
        <ele>618.25999999999999</ele>
        <time>2025-05-18T10:06:15Z</time>
      </trkpt>
      <trkpt lat="43.742455020546913" lon="6.221925029531121">
        <ele>624.50999999999999</ele>
        <time>2025-05-18T10:06:23Z</time>
      </trkpt>
      <trkpt lat="43.742286041378975" lon="6.221869038417935">
        <ele>625.47000000000003</ele>
        <time>2025-05-18T10:06:24Z</time>
      </trkpt>
      <trkpt lat="43.742115972563624" lon="6.221844982355833">
        <ele>626.44000000000005</ele>
        <time>2025-05-18T10:06:25Z</time>
      </trkpt>
      <trkpt lat="43.741940036416054" lon="6.221874989569187">
        <ele>627.39999999999998</ele>
        <time>2025-05-18T10:06:26Z</time>
      </trkpt>
      <trkpt lat="43.741764016449451" lon="6.221937015652657">
        <ele>627.88</ele>
        <time>2025-05-18T10:06:27Z</time>
      </trkpt>
      <trkpt lat="43.741581961512566" lon="6.222001975402236">
        <ele>628.36000000000001</ele>
        <time>2025-05-18T10:06:28Z</time>
      </trkpt>
      <trkpt lat="43.741205027326941" lon="6.222112029790878">
        <ele>629.32000000000005</ele>
        <time>2025-05-18T10:06:30Z</time>
      </trkpt>
      <trkpt lat="43.741021966561675" lon="6.222141031175852">
        <ele>629.32000000000005</ele>
        <time>2025-05-18T10:06:31Z</time>
      </trkpt>
      <trkpt lat="43.74085902236402" lon="6.222086967900395">
        <ele>629.79999999999995</ele>
        <time>2025-05-18T10:06:32Z</time>
      </trkpt>
      <trkpt lat="43.740702029317617" lon="6.221993006765842">
        <ele>630.27999999999997</ele>
        <time>2025-05-18T10:06:33Z</time>
      </trkpt>
      <trkpt lat="43.74055702239275" lon="6.221866020932794">
        <ele>630.27999999999997</ele>
        <time>2025-05-18T10:06:34Z</time>
      </trkpt>
      <trkpt lat="43.740411009639502" lon="6.221744986250997">
        <ele>630.75999999999999</ele>
        <time>2025-05-18T10:06:35Z</time>
      </trkpt>
      <trkpt lat="43.74025703407824" lon="6.221653036773205">
        <ele>631.24000000000001</ele>
        <time>2025-05-18T10:06:36Z</time>
      </trkpt>
      <trkpt lat="43.74008503742516" lon="6.221630992367864">
        <ele>631.24000000000001</ele>
        <time>2025-05-18T10:06:37Z</time>
      </trkpt>
      <trkpt lat="43.739909017458558" lon="6.221630992367864">
        <ele>631.24000000000001</ele>
        <time>2025-05-18T10:06:38Z</time>
      </trkpt>
      <trkpt lat="43.739706007763743" lon="6.221630992367864">
        <ele>631.24000000000001</ele>
        <time>2025-05-18T10:06:39Z</time>
      </trkpt>
      <trkpt lat="43.73825803399086" lon="6.222048997879028">
        <ele>634.13</ele>
        <time>2025-05-18T10:06:46Z</time>
      </trkpt>
      <trkpt lat="43.737211972475052" lon="6.222526011988521">
        <ele>636.52999999999997</ele>
        <time>2025-05-18T10:06:51Z</time>
      </trkpt>
      <trkpt lat="43.737014997750521" lon="6.222553001716733">
        <ele>637.00999999999999</ele>
        <time>2025-05-18T10:06:52Z</time>
      </trkpt>
      <trkpt lat="43.736823974177241" lon="6.222553001716733">
        <ele>637.49000000000001</ele>
        <time>2025-05-18T10:06:53Z</time>
      </trkpt>
      <trkpt lat="43.73664703220129" lon="6.222515031695366">
        <ele>637.97000000000003</ele>
        <time>2025-05-18T10:06:54Z</time>
      </trkpt>
      <trkpt lat="43.736486015841365" lon="6.222449988126755">
        <ele>638.45000000000005</ele>
        <time>2025-05-18T10:06:55Z</time>
      </trkpt>
      <trkpt lat="43.736333968117833" lon="6.222354015335441">
        <ele>638.92999999999995</ele>
        <time>2025-05-18T10:06:56Z</time>
      </trkpt>
      <trkpt lat="43.736178986728191" lon="6.222229963168502">
        <ele>639.40999999999997</ele>
        <time>2025-05-18T10:06:57Z</time>
      </trkpt>
      <trkpt lat="43.736018976196647" lon="6.222081016749144">
        <ele>639.88999999999999</ele>
        <time>2025-05-18T10:06:58Z</time>
      </trkpt>
      <trkpt lat="43.734649959951639" lon="6.220632959157229">
        <ele>644.70000000000005</ele>
        <time>2025-05-18T10:07:06Z</time>
      </trkpt>
      <trkpt lat="43.733922997489572" lon="6.220027031376958">
        <ele>648.54999999999995</ele>
        <time>2025-05-18T10:07:11Z</time>
      </trkpt>
      <trkpt lat="43.733775978907943" lon="6.219993000850081">
        <ele>648.54999999999995</ele>
        <time>2025-05-18T10:07:12Z</time>
      </trkpt>
      <trkpt lat="43.732409980148077" lon="6.219868026673794">
        <ele>649.02999999999997</ele>
        <time>2025-05-18T10:07:19Z</time>
      </trkpt>
      <trkpt lat="43.731805980205536" lon="6.219828967005014">
        <ele>649.99000000000001</ele>
        <time>2025-05-18T10:07:22Z</time>
      </trkpt>
      <trkpt lat="43.731628032401204" lon="6.21988202445209">
        <ele>649.99000000000001</ele>
        <time>2025-05-18T10:07:23Z</time>
      </trkpt>
      <trkpt lat="43.731458969414234" lon="6.219985038042069">
        <ele>649.99000000000001</ele>
        <time>2025-05-18T10:07:24Z</time>
      </trkpt>
      <trkpt lat="43.731110030785203" lon="6.220202967524529">
        <ele>650.47000000000003</ele>
        <time>2025-05-18T10:07:26Z</time>
      </trkpt>
      <trkpt lat="43.730928981676698" lon="6.220278991386294">
        <ele>650.47000000000003</ele>
        <time>2025-05-18T10:07:27Z</time>
      </trkpt>
      <trkpt lat="43.730734018608928" lon="6.220284020528197">
        <ele>650.47000000000003</ele>
        <time>2025-05-18T10:07:28Z</time>
      </trkpt>
      <trkpt lat="43.728689001873136" lon="6.220343029126525">
        <ele>653.83000000000004</ele>
        <time>2025-05-18T10:07:39Z</time>
      </trkpt>
      <trkpt lat="43.728520022705197" lon="6.220431961119175">
        <ele>654.30999999999995</ele>
        <time>2025-05-18T10:07:40Z</time>
      </trkpt>
      <trkpt lat="43.728344002738595" lon="6.220531035214663">
        <ele>654.30999999999995</ele>
        <time>2025-05-18T10:07:41Z</time>
      </trkpt>
      <trkpt lat="43.726300997659564" lon="6.221676003187895">
        <ele>659.12</ele>
        <time>2025-05-18T10:07:51Z</time>
      </trkpt>
      <trkpt lat="43.724271990358829" lon="6.222793981432915">
        <ele>667.76999999999998</ele>
        <time>2025-05-18T10:08:01Z</time>
      </trkpt>
      <trkpt lat="43.722152039408684" lon="6.223805006593466">
        <ele>679.30999999999995</ele>
        <time>2025-05-18T10:08:12Z</time>
      </trkpt>
      <trkpt lat="43.721960010007024" lon="6.223811963573098">
        <ele>679.78999999999996</ele>
        <time>2025-05-18T10:08:13Z</time>
      </trkpt>
      <trkpt lat="43.720652014017105" lon="6.223493032157421">
        <ele>682.19000000000005</ele>
        <time>2025-05-18T10:08:20Z</time>
      </trkpt>
      <trkpt lat="43.718202989548445" lon="6.222543027251959">
        <ele>676.90999999999997</ele>
        <time>2025-05-18T10:08:32Z</time>
      </trkpt>
      <trkpt lat="43.716486040502787" lon="6.221585981547833">
        <ele>674.98000000000002</ele>
        <time>2025-05-18T10:08:41Z</time>
      </trkpt>
      <trkpt lat="43.71520796790719" lon="6.220701020210981">
        <ele>676.41999999999996</ele>
        <time>2025-05-18T10:08:48Z</time>
      </trkpt>
      <trkpt lat="43.713180972263217" lon="6.219685971736908">
        <ele>672.58000000000004</ele>
        <time>2025-05-18T10:08:58Z</time>
      </trkpt>
      <trkpt lat="43.711708020418882" lon="6.219415990635753">
        <ele>669.22000000000003</ele>
        <time>2025-05-18T10:09:05Z</time>
      </trkpt>
      <trkpt lat="43.711514985188842" lon="6.219471981748939">
        <ele>668.73000000000002</ele>
        <time>2025-05-18T10:09:06Z</time>
      </trkpt>
      <trkpt lat="43.710448974743485" lon="6.219721008092165">
        <ele>666.80999999999995</ele>
        <time>2025-05-18T10:09:11Z</time>
      </trkpt>
      <trkpt lat="43.710230039432645" lon="6.219721008092165">
        <ele>666.33000000000004</ele>
        <time>2025-05-18T10:09:12Z</time>
      </trkpt>
      <trkpt lat="43.710016971454024" lon="6.219708016142249">
        <ele>665.85000000000002</ele>
        <time>2025-05-18T10:09:13Z</time>
      </trkpt>
      <trkpt lat="43.7098110280931" lon="6.219628974795342">
        <ele>665.85000000000002</ele>
        <time>2025-05-18T10:09:14Z</time>
      </trkpt>
      <trkpt lat="43.70959896594286" lon="6.219546999782324">
        <ele>665.85000000000002</ele>
        <time>2025-05-18T10:09:15Z</time>
      </trkpt>
      <trkpt lat="43.707285979762673" lon="6.218539997935295">
        <ele>663.92999999999995</ele>
        <time>2025-05-18T10:09:26Z</time>
      </trkpt>
      <trkpt lat="43.706033974885941" lon="6.218212014064193">
        <ele>663.45000000000005</ele>
        <time>2025-05-18T10:09:32Z</time>
      </trkpt>
      <trkpt lat="43.703208016231656" lon="6.217989977449179">
        <ele>663.92999999999995</ele>
        <time>2025-05-18T10:09:45Z</time>
      </trkpt>
      <trkpt lat="43.700762009248137" lon="6.217944966629148">
        <ele>662.00999999999999</ele>
        <time>2025-05-18T10:09:56Z</time>
      </trkpt>
      <trkpt lat="43.698110980913043" lon="6.217672973871231">
        <ele>667.76999999999998</ele>
        <time>2025-05-18T10:10:08Z</time>
      </trkpt>
      <trkpt lat="43.696335023269057" lon="6.21807798743248">
        <ele>668.73000000000002</ele>
        <time>2025-05-18T10:10:16Z</time>
      </trkpt>
      <trkpt lat="43.694189004600048" lon="6.218729009851813">
        <ele>669.70000000000005</ele>
        <time>2025-05-18T10:10:26Z</time>
      </trkpt>
      <trkpt lat="43.693597996607423" lon="6.21897803619504">
        <ele>670.65999999999997</ele>
        <time>2025-05-18T10:10:29Z</time>
      </trkpt>
      <trkpt lat="43.692052038386464" lon="6.220030970871449">
        <ele>672.10000000000002</ele>
        <time>2025-05-18T10:10:37Z</time>
      </trkpt>
      <trkpt lat="43.69000299833715" lon="6.22140702791512">
        <ele>676.41999999999996</ele>
        <time>2025-05-18T10:10:47Z</time>
      </trkpt>
      <trkpt lat="43.688163002952933" lon="6.222406988963485">
        <ele>677.38999999999999</ele>
        <time>2025-05-18T10:10:56Z</time>
      </trkpt>
      <trkpt lat="43.686212031170726" lon="6.223433017730713">
        <ele>680.26999999999998</ele>
        <time>2025-05-18T10:11:06Z</time>
      </trkpt>
      <trkpt lat="43.685816992074251" lon="6.223537959158421">
        <ele>680.75</ele>
        <time>2025-05-18T10:11:08Z</time>
      </trkpt>
      <trkpt lat="43.685614988207817" lon="6.223523961380124">
        <ele>681.23000000000002</ele>
        <time>2025-05-18T10:11:09Z</time>
      </trkpt>
      <trkpt lat="43.685408961027861" lon="6.223509041592479">
        <ele>681.71000000000004</ele>
        <time>2025-05-18T10:11:10Z</time>
      </trkpt>
      <trkpt lat="43.682819036766887" lon="6.223290022462606">
        <ele>687.96000000000004</ele>
        <time>2025-05-18T10:11:22Z</time>
      </trkpt>
      <trkpt lat="43.680523987859488" lon="6.223079971969128">
        <ele>695.16999999999996</ele>
        <time>2025-05-18T10:11:33Z</time>
      </trkpt>
      <trkpt lat="43.679064027965069" lon="6.222946029156447">
        <ele>701.41999999999996</ele>
        <time>2025-05-18T10:11:42Z</time>
      </trkpt>
      <trkpt lat="43.678185017779469" lon="6.222956003621221">
        <ele>705.75</ele>
        <time>2025-05-18T10:11:49Z</time>
      </trkpt>
      <trkpt lat="43.678060965612531" lon="6.223038984462619">
        <ele>706.71000000000004</ele>
        <time>2025-05-18T10:11:50Z</time>
      </trkpt>
      <trkpt lat="43.67793096229434" lon="6.223135963082314">
        <ele>707.19000000000005</ele>
        <time>2025-05-18T10:11:51Z</time>
      </trkpt>
      <trkpt lat="43.677806993946433" lon="6.22323595918715">
        <ele>707.66999999999996</ele>
        <time>2025-05-18T10:11:52Z</time>
      </trkpt>
      <trkpt lat="43.677694005891681" lon="6.223375014960766">
        <ele>707.66999999999996</ele>
        <time>2025-05-18T10:11:53Z</time>
      </trkpt>
      <trkpt lat="43.676993027329445" lon="6.224188981577754">
        <ele>708.63</ele>
        <time>2025-05-18T10:11:59Z</time>
      </trkpt>
      <trkpt lat="43.676885990425944" lon="6.224255030974746">
        <ele>708.63</ele>
        <time>2025-05-18T10:12:00Z</time>
      </trkpt>
      <trkpt lat="43.676792029291391" lon="6.224313033744693">
        <ele>709.59000000000003</ele>
        <time>2025-05-18T10:12:02Z</time>
      </trkpt>
      <trkpt lat="43.676778031513095" lon="6.224421998485923">
        <ele>710.07000000000005</ele>
        <time>2025-05-18T10:12:03Z</time>
      </trkpt>
      <trkpt lat="43.676766967400908" lon="6.224507996812463">
        <ele>710.07000000000005</ele>
        <time>2025-05-18T10:12:04Z</time>
      </trkpt>
      <trkpt lat="43.676753975450993" lon="6.224615033715963">
        <ele>710.07000000000005</ele>
        <time>2025-05-18T10:12:05Z</time>
      </trkpt>
      <trkpt lat="43.676696978509426" lon="6.224745959043503">
        <ele>710.07000000000005</ele>
        <time>2025-05-18T10:12:06Z</time>
      </trkpt>
      <trkpt lat="43.676632018759847" lon="6.224857019260526">
        <ele>710.54999999999995</ele>
        <time>2025-05-18T10:12:07Z</time>
      </trkpt>
      <trkpt lat="43.676560018211603" lon="6.224981993436813">
        <ele>710.54999999999995</ele>
        <time>2025-05-18T10:12:08Z</time>
      </trkpt>
      <trkpt lat="43.675799025222659" lon="6.226082034409046">
        <ele>711.99000000000001</ele>
        <time>2025-05-18T10:12:15Z</time>
      </trkpt>
      <trkpt lat="43.674645004794002" lon="6.227730000391603">
        <ele>714.39999999999998</ele>
        <time>2025-05-18T10:12:23Z</time>
      </trkpt>
      <trkpt lat="43.673086976632476" lon="6.229953970760107">
        <ele>719.20000000000005</ele>
        <time>2025-05-18T10:12:33Z</time>
      </trkpt>
      <trkpt lat="43.671469017863274" lon="6.232265029102564">
        <ele>724.97000000000003</ele>
        <time>2025-05-18T10:12:43Z</time>
      </trkpt>
      <trkpt lat="43.669863967224956" lon="6.234555970877409">
        <ele>730.25999999999999</ele>
        <time>2025-05-18T10:12:53Z</time>
      </trkpt>
      <trkpt lat="43.668912034481764" lon="6.235897997394204">
        <ele>731.22000000000003</ele>
        <time>2025-05-18T10:12:59Z</time>
      </trkpt>
      <trkpt lat="43.668499980121851" lon="6.236446006223559">
        <ele>733.13999999999999</ele>
        <time>2025-05-18T10:13:02Z</time>
      </trkpt>
      <trkpt lat="43.668348016217351" lon="6.236597970128059">
        <ele>733.62</ele>
        <time>2025-05-18T10:13:03Z</time>
      </trkpt>
      <trkpt lat="43.668191023170948" lon="6.236722022294998">
        <ele>734.58000000000004</ele>
        <time>2025-05-18T10:13:04Z</time>
      </trkpt>
      <trkpt lat="43.668018020689487" lon="6.236811960116029">
        <ele>735.07000000000005</ele>
        <time>2025-05-18T10:13:05Z</time>
      </trkpt>
      <trkpt lat="43.66783102042973" lon="6.236860994249582">
        <ele>735.54999999999995</ele>
        <time>2025-05-18T10:13:06Z</time>
      </trkpt>
      <trkpt lat="43.667645025998354" lon="6.236910028383136">
        <ele>736.02999999999997</ele>
        <time>2025-05-18T10:13:07Z</time>
      </trkpt>
      <trkpt lat="43.66746699437499" lon="6.236956967040896">
        <ele>736.50999999999999</ele>
        <time>2025-05-18T10:13:08Z</time>
      </trkpt>
      <trkpt lat="43.667297009378672" lon="6.237000972032547">
        <ele>737.47000000000003</ele>
        <time>2025-05-18T10:13:09Z</time>
      </trkpt>
      <trkpt lat="43.667149990797043" lon="6.237098034471273">
        <ele>737.95000000000005</ele>
        <time>2025-05-18T10:13:10Z</time>
      </trkpt>
      <trkpt lat="43.667017975822091" lon="6.237214040011168">
        <ele>737.95000000000005</ele>
        <time>2025-05-18T10:13:11Z</time>
      </trkpt>
      <trkpt lat="43.666897024959326" lon="6.237319987267256">
        <ele>737.95000000000005</ele>
        <time>2025-05-18T10:13:12Z</time>
      </trkpt>
      <trkpt lat="43.666785964742303" lon="6.237417971715331">
        <ele>738.42999999999995</ele>
        <time>2025-05-18T10:13:13Z</time>
      </trkpt>
      <trkpt lat="43.666707007214427" lon="6.237487960606813">
        <ele>738.90999999999997</ele>
        <time>2025-05-18T10:13:14Z</time>
      </trkpt>
      <trkpt lat="43.666631989181042" lon="6.237515034154058">
        <ele>739.38999999999999</ele>
        <time>2025-05-18T10:13:15Z</time>
      </trkpt>
      <trkpt lat="43.666592007502913" lon="6.237529031932354">
        <ele>739.87</ele>
        <time>2025-05-18T10:13:16Z</time>
      </trkpt>
      <trkpt lat="43.666465021669865" lon="6.237606983631849">
        <ele>740.35000000000002</ele>
        <time>2025-05-18T10:13:19Z</time>
      </trkpt>
      <trkpt lat="43.666453035548329" lon="6.237683007493615">
        <ele>739.87</ele>
        <time>2025-05-18T10:13:20Z</time>
      </trkpt>
      <trkpt lat="43.666436020284891" lon="6.237793983891606">
        <ele>739.38999999999999</ele>
        <time>2025-05-18T10:13:21Z</time>
      </trkpt>
      <trkpt lat="43.666364019736648" lon="6.238246019929647">
        <ele>739.87</ele>
        <time>2025-05-18T10:13:24Z</time>
      </trkpt>
      <trkpt lat="43.666339041665196" lon="6.238612979650497">
        <ele>741.78999999999996</ele>
        <time>2025-05-18T10:13:26Z</time>
      </trkpt>
      <trkpt lat="43.666336024180055" lon="6.238810960203409">
        <ele>742.75999999999999</ele>
        <time>2025-05-18T10:13:27Z</time>
      </trkpt>
      <trkpt lat="43.666332000866532" lon="6.23902796767652">
        <ele>743.72000000000003</ele>
        <time>2025-05-18T10:13:28Z</time>
      </trkpt>
      <trkpt lat="43.666295036673546" lon="6.239911001175642">
        <ele>746.12</ele>
        <time>2025-05-18T10:13:32Z</time>
      </trkpt>
      <trkpt lat="43.666220018640161" lon="6.240103030577302">
        <ele>746.60000000000002</ele>
        <time>2025-05-18T10:13:33Z</time>
      </trkpt>
      <trkpt lat="43.665691958740354" lon="6.241778992116451">
        <ele>750.45000000000005</ele>
        <time>2025-05-18T10:13:40Z</time>
      </trkpt>
      <trkpt lat="43.66520999930799" lon="6.243564002215862">
        <ele>757.65999999999997</ele>
        <time>2025-05-18T10:13:47Z</time>
      </trkpt>
      <trkpt lat="43.665107991546392" lon="6.243751002475619">
        <ele>758.62</ele>
        <time>2025-05-18T10:13:48Z</time>
      </trkpt>
      <trkpt lat="43.665014030411839" lon="6.243915036320686">
        <ele>760.05999999999995</ele>
        <time>2025-05-18T10:13:49Z</time>
      </trkpt>
      <trkpt lat="43.664923002943397" lon="6.24407404102385">
        <ele>761.01999999999998</ele>
        <time>2025-05-18T10:13:50Z</time>
      </trkpt>
      <trkpt lat="43.664854019880295" lon="6.244257017970085">
        <ele>761.5</ele>
        <time>2025-05-18T10:13:51Z</time>
      </trkpt>
      <trkpt lat="43.664832981303334" lon="6.244475031271577">
        <ele>762.46000000000004</ele>
        <time>2025-05-18T10:13:52Z</time>
      </trkpt>
      <trkpt lat="43.664810014888644" lon="6.244704024866223">
        <ele>762.94000000000005</ele>
        <time>2025-05-18T10:13:53Z</time>
      </trkpt>
      <trkpt lat="43.664787970483303" lon="6.244936035946012">
        <ele>763.89999999999998</ele>
        <time>2025-05-18T10:13:54Z</time>
      </trkpt>
      <trkpt lat="43.664744971320033" lon="6.245162012055516">
        <ele>764.38999999999999</ele>
        <time>2025-05-18T10:13:55Z</time>
      </trkpt>
      <trkpt lat="43.66467397660017" lon="6.245373990386725">
        <ele>765.35000000000002</ele>
        <time>2025-05-18T10:13:56Z</time>
      </trkpt>
      <trkpt lat="43.66458697244525" lon="6.245561996474862">
        <ele>766.30999999999995</ele>
        <time>2025-05-18T10:13:57Z</time>
      </trkpt>
      <trkpt lat="43.6644980404526" lon="6.245752014219761">
        <ele>766.78999999999996</ele>
        <time>2025-05-18T10:13:58Z</time>
      </trkpt>
      <trkpt lat="43.664407012984157" lon="6.245946977287531">
        <ele>767.26999999999998</ele>
        <time>2025-05-18T10:13:59Z</time>
      </trkpt>
      <trkpt lat="43.664315985515714" lon="6.246142024174333">
        <ele>767.75</ele>
        <time>2025-05-18T10:14:00Z</time>
      </trkpt>
      <trkpt lat="43.664218001067638" lon="6.246327012777329">
        <ele>768.71000000000004</ele>
        <time>2025-05-18T10:14:01Z</time>
      </trkpt>
      <trkpt lat="43.664083974435925" lon="6.246453998610377">
        <ele>769.19000000000005</ele>
        <time>2025-05-18T10:14:02Z</time>
      </trkpt>
      <trkpt lat="43.663948019966483" lon="6.246582996100187">
        <ele>769.19000000000005</ele>
        <time>2025-05-18T10:14:03Z</time>
      </trkpt>
      <trkpt lat="43.663807958364487" lon="6.246718028560281">
        <ele>769.66999999999996</ele>
        <time>2025-05-18T10:14:04Z</time>
      </trkpt>
      <trkpt lat="43.663703016936779" lon="6.246902011334896">
        <ele>770.63</ele>
        <time>2025-05-18T10:14:05Z</time>
      </trkpt>
      <trkpt lat="43.66359799169004" lon="6.247088005766273">
        <ele>770.63</ele>
        <time>2025-05-18T10:14:06Z</time>
      </trkpt>
      <trkpt lat="43.663279982283711" lon="6.247646994888783">
        <ele>772.08000000000004</ele>
        <time>2025-05-18T10:14:09Z</time>
      </trkpt>
      <trkpt lat="43.663203958421946" lon="6.247868025675416">
        <ele>772.08000000000004</ele>
        <time>2025-05-18T10:14:10Z</time>
      </trkpt>
      <trkpt lat="43.663128018379211" lon="6.248096013441682">
        <ele>773.03999999999996</ele>
        <time>2025-05-18T10:14:11Z</time>
      </trkpt>
      <trkpt lat="43.663053000345826" lon="6.248320983722806">
        <ele>773.03999999999996</ele>
        <time>2025-05-18T10:14:12Z</time>
      </trkpt>
      <trkpt lat="43.662978988140821" lon="6.24854201450944">
        <ele>773.51999999999998</ele>
        <time>2025-05-18T10:14:13Z</time>
      </trkpt>
      <trkpt lat="43.662862982600927" lon="6.248713005334139">
        <ele>774</ele>
        <time>2025-05-18T10:14:14Z</time>
      </trkpt>
      <trkpt lat="43.662743959575891" lon="6.248878967016935">
        <ele>774</ele>
        <time>2025-05-18T10:14:15Z</time>
      </trkpt>
      <trkpt lat="43.662629965692759" lon="6.249035960063338">
        <ele>774.48000000000002</ele>
        <time>2025-05-18T10:14:16Z</time>
      </trkpt>
      <trkpt lat="43.662533992901444" lon="6.249219020828605">
        <ele>774.48000000000002</ele>
        <time>2025-05-18T10:14:17Z</time>
      </trkpt>
      <trkpt lat="43.662453023716807" lon="6.249415995553136">
        <ele>774.48000000000002</ele>
        <time>2025-05-18T10:14:18Z</time>
      </trkpt>
      <trkpt lat="43.662396026775241" lon="6.249631997197866">
        <ele>774.48000000000002</ele>
        <time>2025-05-18T10:14:19Z</time>
      </trkpt>
      <trkpt lat="43.662339029833674" lon="6.249852022156119">
        <ele>774.48000000000002</ele>
        <time>2025-05-18T10:14:20Z</time>
      </trkpt>
      <trkpt lat="43.662065025418997" lon="6.250973017886281">
        <ele>776.39999999999998</ele>
        <time>2025-05-18T10:14:25Z</time>
      </trkpt>
      <trkpt lat="43.66200702264905" lon="6.251221038401127">
        <ele>777.36000000000001</ele>
        <time>2025-05-18T10:14:26Z</time>
      </trkpt>
      <trkpt lat="43.662020014598966" lon="6.251427987590432">
        <ele>777.84000000000003</ele>
        <time>2025-05-18T10:14:27Z</time>
      </trkpt>
      <trkpt lat="43.662033006548882" lon="6.251652035862207">
        <ele>778.32000000000005</ele>
        <time>2025-05-18T10:14:28Z</time>
      </trkpt>
      <trkpt lat="43.662044992670417" lon="6.251856973394752">
        <ele>778.80999999999995</ele>
        <time>2025-05-18T10:14:29Z</time>
      </trkpt>
      <trkpt lat="43.662023032084107" lon="6.252069035544992">
        <ele>779.28999999999996</ele>
        <time>2025-05-18T10:14:30Z</time>
      </trkpt>
      <trkpt lat="43.661978021264076" lon="6.252259975299239">
        <ele>779.76999999999998</ele>
        <time>2025-05-18T10:14:31Z</time>
      </trkpt>
      <trkpt lat="43.661934016272426" lon="6.252447981387377">
        <ele>780.73000000000002</ele>
        <time>2025-05-18T10:14:32Z</time>
      </trkpt>
      <trkpt lat="43.661899985745549" lon="6.252630958333612">
        <ele>781.21000000000004</ele>
        <time>2025-05-18T10:14:33Z</time>
      </trkpt>
      <trkpt lat="43.661896968260407" lon="6.252821981906891">
        <ele>782.16999999999996</ele>
        <time>2025-05-18T10:14:34Z</time>
      </trkpt>
      <trkpt lat="43.661894034594297" lon="6.253021974116564">
        <ele>783.13</ele>
        <time>2025-05-18T10:14:35Z</time>
      </trkpt>
      <trkpt lat="43.66188196465373" lon="6.253910036757588">
        <ele>786.5</ele>
        <time>2025-05-18T10:14:39Z</time>
      </trkpt>
      <trkpt lat="43.66187802515924" lon="6.254161996766925">
        <ele>786.98000000000002</ele>
        <time>2025-05-18T10:14:40Z</time>
      </trkpt>
      <trkpt lat="43.661813987419009" lon="6.254386967048049">
        <ele>787.46000000000004</ele>
        <time>2025-05-18T10:14:41Z</time>
      </trkpt>
      <trkpt lat="43.661747016012669" lon="6.254620989784598">
        <ele>787.94000000000005</ele>
        <time>2025-05-18T10:14:42Z</time>
      </trkpt>
      <trkpt lat="43.661679960787296" lon="6.254857024177909">
        <ele>788.89999999999998</ele>
        <time>2025-05-18T10:14:43Z</time>
      </trkpt>
      <trkpt lat="43.661619024351239" lon="6.255083000287414">
        <ele>789.38</ele>
        <time>2025-05-18T10:14:44Z</time>
      </trkpt>
      <trkpt lat="43.661596979945898" lon="6.255321968346834">
        <ele>789.86000000000001</ele>
        <time>2025-05-18T10:14:45Z</time>
      </trkpt>
      <trkpt lat="43.661576025187969" lon="6.255553979426622">
        <ele>790.82000000000005</ele>
        <time>2025-05-18T10:14:46Z</time>
      </trkpt>
      <trkpt lat="43.66155699826777" lon="6.255768975242972">
        <ele>791.29999999999995</ele>
        <time>2025-05-18T10:14:47Z</time>
      </trkpt>
      <trkpt lat="43.661475023254752" lon="6.255955975502729">
        <ele>791.77999999999997</ele>
        <time>2025-05-18T10:14:48Z</time>
      </trkpt>
      <trkpt lat="43.661390030756593" lon="6.256152028217912">
        <ele>791.77999999999997</ele>
        <time>2025-05-18T10:14:49Z</time>
      </trkpt>
      <trkpt lat="43.661301014944911" lon="6.256355959922075">
        <ele>792.25999999999999</ele>
        <time>2025-05-18T10:14:50Z</time>
      </trkpt>
      <trkpt lat="43.661208981648088" lon="6.256567016243935">
        <ele>792.74000000000001</ele>
        <time>2025-05-18T10:14:51Z</time>
      </trkpt>
      <trkpt lat="43.661138992756605" lon="6.256807995960116">
        <ele>792.74000000000001</ele>
        <time>2025-05-18T10:14:52Z</time>
      </trkpt>
      <trkpt lat="43.661073027178645" lon="6.257056016474962">
        <ele>793.71000000000004</ele>
        <time>2025-05-18T10:14:53Z</time>
      </trkpt>
      <trkpt lat="43.660761974751949" lon="6.258224034681916">
        <ele>797.54999999999995</ele>
        <time>2025-05-18T10:14:58Z</time>
      </trkpt>
      <trkpt lat="43.660672958940268" lon="6.258422015234828">
        <ele>798.50999999999999</ele>
        <time>2025-05-18T10:14:59Z</time>
      </trkpt>
      <trkpt lat="43.66056902334094" lon="6.258605998009443">
        <ele>799.47000000000003</ele>
        <time>2025-05-18T10:15:00Z</time>
      </trkpt>
      <trkpt lat="43.660466009750962" lon="6.258786963298917">
        <ele>800.44000000000005</ele>
        <time>2025-05-18T10:15:01Z</time>
      </trkpt>
      <trkpt lat="43.660362996160984" lon="6.258969018235803">
        <ele>800.91999999999996</ele>
        <time>2025-05-18T10:15:02Z</time>
      </trkpt>
      <trkpt lat="43.660269035026431" lon="6.259175967425108">
        <ele>801.88</ele>
        <time>2025-05-18T10:15:03Z</time>
      </trkpt>
      <trkpt lat="43.660206003114581" lon="6.259417030960321">
        <ele>802.36000000000001</ele>
        <time>2025-05-18T10:15:04Z</time>
      </trkpt>
      <trkpt lat="43.659967035055161" lon="6.260411962866783">
        <ele>805.24000000000001</ele>
        <time>2025-05-18T10:15:08Z</time>
      </trkpt>
      <trkpt lat="43.659934010356665" lon="6.260663000866771">
        <ele>805.72000000000003</ele>
        <time>2025-05-18T10:15:09Z</time>
      </trkpt>
      <trkpt lat="43.659790009260178" lon="6.26156103797257">
        <ele>808.61000000000001</ele>
        <time>2025-05-18T10:15:13Z</time>
      </trkpt>
      <trkpt lat="43.659706022590399" lon="6.261739991605282">
        <ele>809.09000000000003</ele>
        <time>2025-05-18T10:15:14Z</time>
      </trkpt>
      <trkpt lat="43.659599991515279" lon="6.261910982429981">
        <ele>809.09000000000003</ele>
        <time>2025-05-18T10:15:15Z</time>
      </trkpt>
      <trkpt lat="43.659491026774049" lon="6.262087002396584">
        <ele>809.57000000000005</ele>
        <time>2025-05-18T10:15:16Z</time>
      </trkpt>
      <trkpt lat="43.659380972385406" lon="6.262263022363186">
        <ele>810.04999999999995</ele>
        <time>2025-05-18T10:15:17Z</time>
      </trkpt>
      <trkpt lat="43.658616039901972" lon="6.263494994491339">
        <ele>813.88999999999999</ele>
        <time>2025-05-18T10:15:25Z</time>
      </trkpt>
      <trkpt lat="43.657942973077297" lon="6.264579026028514">
        <ele>812.92999999999995</ele>
        <time>2025-05-18T10:15:34Z</time>
      </trkpt>
      <trkpt lat="43.6577960383147" lon="6.264814976602793">
        <ele>812.45000000000005</ele>
        <time>2025-05-18T10:15:36Z</time>
      </trkpt>
      <trkpt lat="43.657650025561452" lon="6.265051010996103">
        <ele>811.97000000000003</ele>
        <time>2025-05-18T10:15:38Z</time>
      </trkpt>
      <trkpt lat="43.657505018636584" lon="6.265284027904272">
        <ele>811.49000000000001</ele>
        <time>2025-05-18T10:15:40Z</time>
      </trkpt>
      <trkpt lat="43.657435029745102" lon="6.265397015959024">
        <ele>811.49000000000001</ele>
        <time>2025-05-18T10:15:41Z</time>
      </trkpt>
      <trkpt lat="43.657208969816566" lon="6.265755007043481">
        <ele>811.49000000000001</ele>
        <time>2025-05-18T10:15:44Z</time>
      </trkpt>
      <trkpt lat="43.65713101811707" lon="6.265867995098233">
        <ele>811.49000000000001</ele>
        <time>2025-05-18T10:15:45Z</time>
      </trkpt>
      <trkpt lat="43.656268017366529" lon="6.267114970833063">
        <ele>808.61000000000001</ele>
        <time>2025-05-18T10:15:54Z</time>
      </trkpt>
      <trkpt lat="43.65605897270143" lon="6.267443038523197">
        <ele>807.63999999999999</ele>
        <time>2025-05-18T10:15:56Z</time>
      </trkpt>
      <trkpt lat="43.655958976596594" lon="6.267613023519516">
        <ele>807.15999999999997</ele>
        <time>2025-05-18T10:15:57Z</time>
      </trkpt>
      <trkpt lat="43.655873984098434" lon="6.267807986587286">
        <ele>806.20000000000005</ele>
        <time>2025-05-18T10:15:58Z</time>
      </trkpt>
      <trkpt lat="43.655784968286753" lon="6.268013007938862">
        <ele>805.24000000000001</ele>
        <time>2025-05-18T10:15:59Z</time>
      </trkpt>
      <trkpt lat="43.6556910071522" lon="6.268225992098451">
        <ele>804.27999999999997</ele>
        <time>2025-05-18T10:16:00Z</time>
      </trkpt>
      <trkpt lat="43.655044008046389" lon="6.269704978913069">
        <ele>794.66999999999996</ele>
        <time>2025-05-18T10:16:07Z</time>
      </trkpt>
      <trkpt lat="43.654459035024047" lon="6.271052034571767">
        <ele>784.09000000000003</ele>
        <time>2025-05-18T10:16:14Z</time>
      </trkpt>
      <trkpt lat="43.654332971200347" lon="6.271409019827843">
        <ele>780.73000000000002</ele>
        <time>2025-05-18T10:16:16Z</time>
      </trkpt>
      <trkpt lat="43.654281003400683" lon="6.271556038409472">
        <ele>778.80999999999995</ele>
        <time>2025-05-18T10:16:17Z</time>
      </trkpt>
      <trkpt lat="43.654162986204028" lon="6.271889973431826">
        <ele>774.48000000000002</ele>
        <time>2025-05-18T10:16:20Z</time>
      </trkpt>
      <trkpt lat="43.654127027839422" lon="6.271993992850184">
        <ele>773.51999999999998</ele>
        <time>2025-05-18T10:16:21Z</time>
      </trkpt>
      <trkpt lat="43.654088973999023" lon="6.272099018096924">
        <ele>772.08000000000004</ele>
        <time>2025-05-18T10:16:22Z</time>
      </trkpt>
      <trkpt lat="43.65405997261405" lon="6.272191973403096">
        <ele>770.63</ele>
        <time>2025-05-18T10:16:23Z</time>
      </trkpt>
      <trkpt lat="43.654028959572315" lon="6.272291969507933">
        <ele>769.19000000000005</ele>
        <time>2025-05-18T10:16:24Z</time>
      </trkpt>
      <trkpt lat="43.653997024521232" lon="6.272390959784389">
        <ele>768.23000000000002</ele>
        <time>2025-05-18T10:16:25Z</time>
      </trkpt>
      <trkpt lat="43.653831984847784" lon="6.272936034947634">
        <ele>767.26999999999998</ele>
        <time>2025-05-18T10:16:31Z</time>
      </trkpt>
      <trkpt lat="43.653794014826417" lon="6.273020021617413">
        <ele>766.78999999999996</ele>
        <time>2025-05-18T10:16:32Z</time>
      </trkpt>
      <trkpt lat="43.653750009834766" lon="6.273117000237107">
        <ele>766.78999999999996</ele>
        <time>2025-05-18T10:16:33Z</time>
      </trkpt>
      <trkpt lat="43.653710028156638" lon="6.273204004392028">
        <ele>766.30999999999995</ele>
        <time>2025-05-18T10:16:34Z</time>
      </trkpt>
      <trkpt lat="43.65367298014462" lon="6.273285979405046">
        <ele>765.83000000000004</ele>
        <time>2025-05-18T10:16:35Z</time>
      </trkpt>
      <trkpt lat="43.653637021780014" lon="6.273365020751953">
        <ele>765.35000000000002</ele>
        <time>2025-05-18T10:16:36Z</time>
      </trkpt>
      <trkpt lat="43.653598967939615" lon="6.273449007421732">
        <ele>764.87</ele>
        <time>2025-05-18T10:16:37Z</time>
      </trkpt>
      <trkpt lat="43.653558986261487" lon="6.273537017405033">
        <ele>764.87</ele>
        <time>2025-05-18T10:16:38Z</time>
      </trkpt>
      <trkpt lat="43.653389001265168" lon="6.273897020146251">
        <ele>766.78999999999996</ele>
        <time>2025-05-18T10:16:42Z</time>
      </trkpt>
      <trkpt lat="43.653325969353318" lon="6.273973966017366">
        <ele>766.78999999999996</ele>
        <time>2025-05-18T10:16:43Z</time>
      </trkpt>
      <trkpt lat="43.653114996850491" lon="6.274194996803999">
        <ele>765.83000000000004</ele>
        <time>2025-05-18T10:16:46Z</time>
      </trkpt>
      <trkpt lat="43.653032016009092" lon="6.274263979867101">
        <ele>764.87</ele>
        <time>2025-05-18T10:16:47Z</time>
      </trkpt>
      <trkpt lat="43.652943000197411" lon="6.274340003728867">
        <ele>763.89999999999998</ele>
        <time>2025-05-18T10:16:48Z</time>
      </trkpt>
      <trkpt lat="43.652045968919992" lon="6.275175008922815">
        <ele>758.62</ele>
        <time>2025-05-18T10:16:55Z</time>
      </trkpt>
      <trkpt lat="43.651339039206505" lon="6.275995010510087">
        <ele>755.25</ele>
        <time>2025-05-18T10:17:00Z</time>
      </trkpt>
      <trkpt lat="43.65107199177146" lon="6.276222998276353">
        <ele>754.76999999999998</ele>
        <time>2025-05-18T10:17:02Z</time>
      </trkpt>
      <trkpt lat="43.65096302703023" lon="6.27638996578753">
        <ele>754.76999999999998</ele>
        <time>2025-05-18T10:17:03Z</time>
      </trkpt>
      <trkpt lat="43.65087702870369" lon="6.276580989360809">
        <ele>754.28999999999996</ele>
        <time>2025-05-18T10:17:04Z</time>
      </trkpt>
      <trkpt lat="43.650000030174851" lon="6.277982024475932">
        <ele>748.51999999999998</ele>
        <time>2025-05-18T10:17:11Z</time>
      </trkpt>
      <trkpt lat="43.649795008823276" lon="6.27830196171999">
        <ele>747.55999999999995</ele>
        <time>2025-05-18T10:17:13Z</time>
      </trkpt>
      <trkpt lat="43.649720996618271" lon="6.278387038037181">
        <ele>747.55999999999995</ele>
        <time>2025-05-18T10:17:14Z</time>
      </trkpt>
      <trkpt lat="43.649626029655337" lon="6.27845099195838">
        <ele>747.55999999999995</ele>
        <time>2025-05-18T10:17:15Z</time>
      </trkpt>
      <trkpt lat="43.649544976651669" lon="6.27847395837307">
        <ele>747.55999999999995</ele>
        <time>2025-05-18T10:17:16Z</time>
      </trkpt>
      <trkpt lat="43.649459984153509" lon="6.278498014435172">
        <ele>748.03999999999996</ele>
        <time>2025-05-18T10:17:17Z</time>
      </trkpt>
      <trkpt lat="43.649317994713783" lon="6.278586024418473">
        <ele>748.51999999999998</ele>
        <time>2025-05-18T10:17:18Z</time>
      </trkpt>
      <trkpt lat="43.649303996935487" lon="6.278681997209787">
        <ele>749.49000000000001</ele>
        <time>2025-05-18T10:17:19Z</time>
      </trkpt>
      <trkpt lat="43.649286981672049" lon="6.278791967779398">
        <ele>750.45000000000005</ele>
        <time>2025-05-18T10:17:20Z</time>
      </trkpt>
      <trkpt lat="43.6492670327425" lon="6.278921971097589">
        <ele>751.88999999999999</ele>
        <time>2025-05-18T10:17:21Z</time>
      </trkpt>
      <trkpt lat="43.649239959195256" lon="6.279093967750669">
        <ele>752.37</ele>
        <time>2025-05-18T10:17:22Z</time>
      </trkpt>
      <trkpt lat="43.649186985567212" lon="6.279199998825789">
        <ele>753.33000000000004</ele>
        <time>2025-05-18T10:17:23Z</time>
      </trkpt>
      <trkpt lat="43.64907500334084" lon="6.279345005750656">
        <ele>753.33000000000004</ele>
        <time>2025-05-18T10:17:24Z</time>
      </trkpt>
      <trkpt lat="43.64894500002265" lon="6.279475009068847">
        <ele>753.33000000000004</ele>
        <time>2025-05-18T10:17:25Z</time>
      </trkpt>
      <trkpt lat="43.648509979248047" lon="6.27991002984345">
        <ele>752.85000000000002</ele>
        <time>2025-05-18T10:17:28Z</time>
      </trkpt>
      <trkpt lat="43.648428004235029" lon="6.280037015676498">
        <ele>752.85000000000002</ele>
        <time>2025-05-18T10:17:29Z</time>
      </trkpt>
      <trkpt lat="43.648316022008657" lon="6.280209012329578">
        <ele>752.37</ele>
        <time>2025-05-18T10:17:30Z</time>
      </trkpt>
      <trkpt lat="43.648035982623696" lon="6.280507994815707">
        <ele>752.37</ele>
        <time>2025-05-18T10:17:32Z</time>
      </trkpt>
      <trkpt lat="43.64701297134161" lon="6.28158699721098">
        <ele>751.88999999999999</ele>
        <time>2025-05-18T10:17:39Z</time>
      </trkpt>
      <trkpt lat="43.646909035742283" lon="6.281775003299117">
        <ele>751.88999999999999</ele>
        <time>2025-05-18T10:17:40Z</time>
      </trkpt>
      <trkpt lat="43.646141001954675" lon="6.283601000905037">
        <ele>758.13999999999999</ele>
        <time>2025-05-18T10:17:48Z</time>
      </trkpt>
      <trkpt lat="43.645957019180059" lon="6.284051025286317">
        <ele>760.53999999999996</ele>
        <time>2025-05-18T10:17:50Z</time>
      </trkpt>
      <trkpt lat="43.645836990326643" lon="6.28425101749599">
        <ele>762.46000000000004</ele>
        <time>2025-05-18T10:17:51Z</time>
      </trkpt>
      <trkpt lat="43.645566003397107" lon="6.284613031893969">
        <ele>766.30999999999995</ele>
        <time>2025-05-18T10:17:53Z</time>
      </trkpt>
      <trkpt lat="43.64542200230062" lon="6.284757032990456">
        <ele>768.23000000000002</ele>
        <time>2025-05-18T10:17:54Z</time>
      </trkpt>
      <trkpt lat="43.64527003839612" lon="6.284908996894956">
        <ele>770.14999999999998</ele>
        <time>2025-05-18T10:17:55Z</time>
      </trkpt>
      <trkpt lat="43.64510097540915" lon="6.285014022141695">
        <ele>772.55999999999995</ele>
        <time>2025-05-18T10:17:56Z</time>
      </trkpt>
      <trkpt lat="43.644924033433199" lon="6.285124998539686">
        <ele>774.96000000000004</ele>
        <time>2025-05-18T10:17:57Z</time>
      </trkpt>
      <trkpt lat="43.644569981843233" lon="6.285345023497939">
        <ele>778.32000000000005</ele>
        <time>2025-05-18T10:17:59Z</time>
      </trkpt>
      <trkpt lat="43.644405025988817" lon="6.285448037087917">
        <ele>779.28999999999996</ele>
        <time>2025-05-18T10:18:00Z</time>
      </trkpt>
      <trkpt lat="43.644263036549091" lon="6.285566976293922">
        <ele>779.76999999999998</ele>
        <time>2025-05-18T10:18:01Z</time>
      </trkpt>
      <trkpt lat="43.644152982160449" lon="6.285716006532311">
        <ele>780.25</ele>
        <time>2025-05-18T10:18:02Z</time>
      </trkpt>
      <trkpt lat="43.644040999934077" lon="6.285866964608431">
        <ele>780.73000000000002</ele>
        <time>2025-05-18T10:18:03Z</time>
      </trkpt>
      <trkpt lat="43.64391703158617" lon="6.286020018160343">
        <ele>781.21000000000004</ele>
        <time>2025-05-18T10:18:04Z</time>
      </trkpt>
      <trkpt lat="43.643762972205877" lon="6.286133006215096">
        <ele>782.16999999999996</ele>
        <time>2025-05-18T10:18:05Z</time>
      </trkpt>
      <trkpt lat="43.643601033836603" lon="6.28625001758337">
        <ele>783.13</ele>
        <time>2025-05-18T10:18:06Z</time>
      </trkpt>
      <trkpt lat="43.643447980284691" lon="6.286360993981361">
        <ele>783.61000000000001</ele>
        <time>2025-05-18T10:18:07Z</time>
      </trkpt>
      <trkpt lat="43.64323197863996" lon="6.286518992856145">
        <ele>784.57000000000005</ele>
        <time>2025-05-18T10:18:09Z</time>
      </trkpt>
      <trkpt lat="43.643193002790213" lon="6.286656036973">
        <ele>785.04999999999995</ele>
        <time>2025-05-18T10:18:10Z</time>
      </trkpt>
      <trkpt lat="43.643156038597226" lon="6.28678604029119">
        <ele>785.52999999999997</ele>
        <time>2025-05-18T10:18:11Z</time>
      </trkpt>
      <trkpt lat="43.643113961443305" lon="6.286930041387677">
        <ele>786.01999999999998</ele>
        <time>2025-05-18T10:18:12Z</time>
      </trkpt>
      <trkpt lat="43.64309904165566" lon="6.287073036655784">
        <ele>786.5</ele>
        <time>2025-05-18T10:18:13Z</time>
      </trkpt>
      <trkpt lat="43.643093006685376" lon="6.287243021652103">
        <ele>786.98000000000002</ele>
        <time>2025-05-18T10:18:14Z</time>
      </trkpt>
      <trkpt lat="43.643086971715093" lon="6.28741099499166">
        <ele>787.46000000000004</ele>
        <time>2025-05-18T10:18:15Z</time>
      </trkpt>
      <trkpt lat="43.643071968108416" lon="6.287599001079798">
        <ele>787.94000000000005</ele>
        <time>2025-05-18T10:18:16Z</time>
      </trkpt>
      <trkpt lat="43.643020000308752" lon="6.287755994126201">
        <ele>788.41999999999996</ele>
        <time>2025-05-18T10:18:17Z</time>
      </trkpt>
      <trkpt lat="43.642920004203916" lon="6.287922961637378">
        <ele>788.89999999999998</ele>
        <time>2025-05-18T10:18:18Z</time>
      </trkpt>
      <trkpt lat="43.642807016149163" lon="6.288066040724516">
        <ele>789.38</ele>
        <time>2025-05-18T10:18:19Z</time>
      </trkpt>
      <trkpt lat="43.642688998952508" lon="6.288213981315494">
        <ele>789.38</ele>
        <time>2025-05-18T10:18:20Z</time>
      </trkpt>
      <trkpt lat="43.642569975927472" lon="6.288364017382264">
        <ele>788.89999999999998</ele>
        <time>2025-05-18T10:18:21Z</time>
      </trkpt>
      <trkpt lat="43.642426980659366" lon="6.288487985730171">
        <ele>788.89999999999998</ele>
        <time>2025-05-18T10:18:22Z</time>
      </trkpt>
      <trkpt lat="43.641390977427363" lon="6.289159040898085">
        <ele>784.09000000000003</ele>
        <time>2025-05-18T10:18:29Z</time>
      </trkpt>
      <trkpt lat="43.640435021370649" lon="6.290408028289676">
        <ele>778.32000000000005</ele>
        <time>2025-05-18T10:18:37Z</time>
      </trkpt>
      <trkpt lat="43.639889024198055" lon="6.291360966861248">
        <ele>775.44000000000005</ele>
        <time>2025-05-18T10:18:43Z</time>
      </trkpt>
      <trkpt lat="43.639264991506934" lon="6.292877001687884">
        <ele>771.60000000000002</ele>
        <time>2025-05-18T10:18:50Z</time>
      </trkpt>
      <trkpt lat="43.639035997912288" lon="6.293735979124904">
        <ele>769.66999999999996</ele>
        <time>2025-05-18T10:18:54Z</time>
      </trkpt>
      <trkpt lat="43.638984030112624" lon="6.293939994648099">
        <ele>769.19000000000005</ele>
        <time>2025-05-18T10:18:55Z</time>
      </trkpt>
      <trkpt lat="43.638879004865885" lon="6.295224018394947">
        <ele>767.26999999999998</ele>
        <time>2025-05-18T10:19:00Z</time>
      </trkpt>
      <trkpt lat="43.638875987380743" lon="6.2958740349859">
        <ele>765.83000000000004</ele>
        <time>2025-05-18T10:19:03Z</time>
      </trkpt>
      <trkpt lat="43.638826031237841" lon="6.295995991677046">
        <ele>765.35000000000002</ele>
        <time>2025-05-18T10:19:04Z</time>
      </trkpt>
      <trkpt lat="43.638753024861217" lon="6.296172011643648">
        <ele>765.83000000000004</ele>
        <time>2025-05-18T10:19:05Z</time>
      </trkpt>
      <trkpt lat="43.638677000999451" lon="6.296354988589883">
        <ele>766.30999999999995</ele>
        <time>2025-05-18T10:19:06Z</time>
      </trkpt>
      <trkpt lat="43.638614974915981" lon="6.29656202159822">
        <ele>766.30999999999995</ele>
        <time>2025-05-18T10:19:07Z</time>
      </trkpt>
      <trkpt lat="43.638599971309304" lon="6.296804007142782">
        <ele>766.78999999999996</ele>
        <time>2025-05-18T10:19:08Z</time>
      </trkpt>
      <trkpt lat="43.638510033488274" lon="6.298072021454573">
        <ele>766.30999999999995</ele>
        <time>2025-05-18T10:19:13Z</time>
      </trkpt>
      <trkpt lat="43.638378018513322" lon="6.298748021945357">
        <ele>766.30999999999995</ele>
        <time>2025-05-18T10:19:16Z</time>
      </trkpt>
      <trkpt lat="43.638361003249884" lon="6.298952959477902">
        <ele>766.30999999999995</ele>
        <time>2025-05-18T10:19:17Z</time>
      </trkpt>
      <trkpt lat="43.638361003249884" lon="6.299138031899929">
        <ele>766.30999999999995</ele>
        <time>2025-05-18T10:19:18Z</time>
      </trkpt>
      <trkpt lat="43.638361003249884" lon="6.299306005239487">
        <ele>766.78999999999996</ele>
        <time>2025-05-18T10:19:19Z</time>
      </trkpt>
      <trkpt lat="43.638361003249884" lon="6.299469033256173">
        <ele>767.26999999999998</ele>
        <time>2025-05-18T10:19:20Z</time>
      </trkpt>
      <trkpt lat="43.638340970501304" lon="6.299644969403744">
        <ele>767.26999999999998</ele>
        <time>2025-05-18T10:19:21Z</time>
      </trkpt>
      <trkpt lat="43.638266958296299" lon="6.299782013520598">
        <ele>767.26999999999998</ele>
        <time>2025-05-18T10:19:22Z</time>
      </trkpt>
      <trkpt lat="43.638189006596804" lon="6.299928026273847">
        <ele>767.26999999999998</ele>
        <time>2025-05-18T10:19:23Z</time>
      </trkpt>
      <trkpt lat="43.638105019927025" lon="6.300084013491869">
        <ele>766.78999999999996</ele>
        <time>2025-05-18T10:19:24Z</time>
      </trkpt>
      <trkpt lat="43.638033019378781" lon="6.300244024023414">
        <ele>766.78999999999996</ele>
        <time>2025-05-18T10:19:25Z</time>
      </trkpt>
      <trkpt lat="43.637970993295312" lon="6.300419038161635">
        <ele>766.30999999999995</ele>
        <time>2025-05-18T10:19:26Z</time>
      </trkpt>
      <trkpt lat="43.637928999960423" lon="6.300592962652445">
        <ele>765.83000000000004</ele>
        <time>2025-05-18T10:19:27Z</time>
      </trkpt>
      <trkpt lat="43.637921959161758" lon="6.300770994275808">
        <ele>765.35000000000002</ele>
        <time>2025-05-18T10:19:28Z</time>
      </trkpt>
      <trkpt lat="43.63790201023221" lon="6.301283966749907">
        <ele>764.87</ele>
        <time>2025-05-18T10:19:31Z</time>
      </trkpt>
      <trkpt lat="43.637895975261927" lon="6.301449006423354">
        <ele>765.35000000000002</ele>
        <time>2025-05-18T10:19:32Z</time>
      </trkpt>
      <trkpt lat="43.637889018282294" lon="6.301625026389957">
        <ele>764.87</ele>
        <time>2025-05-18T10:19:33Z</time>
      </trkpt>
      <trkpt lat="43.637818023562431" lon="6.301931971684098">
        <ele>764.87</ele>
        <time>2025-05-18T10:19:35Z</time>
      </trkpt>
      <trkpt lat="43.63738602027297" lon="6.303311968222261">
        <ele>763.41999999999996</ele>
        <time>2025-05-18T10:19:41Z</time>
      </trkpt>
      <trkpt lat="43.63667699508369" lon="6.305066971108317">
        <ele>758.13999999999999</ele>
        <time>2025-05-18T10:19:48Z</time>
      </trkpt>
      <trkpt lat="43.636598037555814" lon="6.305323038250208">
        <ele>757.17999999999995</ele>
        <time>2025-05-18T10:19:49Z</time>
      </trkpt>
      <trkpt lat="43.636253960430622" lon="6.306517962366343">
        <ele>754.28999999999996</ele>
        <time>2025-05-18T10:19:54Z</time>
      </trkpt>
      <trkpt lat="43.636163016781211" lon="6.306689959019423">
        <ele>754.28999999999996</ele>
        <time>2025-05-18T10:19:55Z</time>
      </trkpt>
      <trkpt lat="43.636081041768193" lon="6.306845024228096">
        <ele>753.80999999999995</ele>
        <time>2025-05-18T10:19:56Z</time>
      </trkpt>
      <trkpt lat="43.635998982936144" lon="6.307000005617738">
        <ele>752.85000000000002</ele>
        <time>2025-05-18T10:19:57Z</time>
      </trkpt>
      <trkpt lat="43.635929999873042" lon="6.30717501975596">
        <ele>752.37</ele>
        <time>2025-05-18T10:19:58Z</time>
      </trkpt>
      <trkpt lat="43.635906027629972" lon="6.307388003915548">
        <ele>751.88999999999999</ele>
        <time>2025-05-18T10:19:59Z</time>
      </trkpt>
      <trkpt lat="43.635879037901759" lon="6.307616997510195">
        <ele>750.92999999999995</ele>
        <time>2025-05-18T10:20:00Z</time>
      </trkpt>
      <trkpt lat="43.635772000998259" lon="6.308564990758896">
        <ele>747.08000000000004</ele>
        <time>2025-05-18T10:20:04Z</time>
      </trkpt>
      <trkpt lat="43.635742999613285" lon="6.308813011273742">
        <ele>746.12</ele>
        <time>2025-05-18T10:20:05Z</time>
      </trkpt>
      <trkpt lat="43.635686002671719" lon="6.308977967128158">
        <ele>745.15999999999997</ele>
        <time>2025-05-18T10:20:06Z</time>
      </trkpt>
      <trkpt lat="43.635572008788586" lon="6.309081986546516">
        <ele>744.20000000000005</ele>
        <time>2025-05-18T10:20:07Z</time>
      </trkpt>
      <trkpt lat="43.63543395884335" lon="6.309158010408282">
        <ele>745.63999999999999</ele>
        <time>2025-05-18T10:20:08Z</time>
      </trkpt>
      <trkpt lat="43.635296998545527" lon="6.309234034270048">
        <ele>745.63999999999999</ele>
        <time>2025-05-18T10:20:09Z</time>
      </trkpt>
      <trkpt lat="43.63515199162066" lon="6.309313997626305">
        <ele>745.15999999999997</ele>
        <time>2025-05-18T10:20:10Z</time>
      </trkpt>
      <trkpt lat="43.635002039372921" lon="6.309395972639322">
        <ele>744.20000000000005</ele>
        <time>2025-05-18T10:20:11Z</time>
      </trkpt>
      <trkpt lat="43.634876981377602" lon="6.309539973735809">
        <ele>743.72000000000003</ele>
        <time>2025-05-18T10:20:12Z</time>
      </trkpt>
      <trkpt lat="43.634755024686456" lon="6.309705013409257">
        <ele>742.75999999999999</ele>
        <time>2025-05-18T10:20:13Z</time>
      </trkpt>
      <trkpt lat="43.634629966691136" lon="6.309873992577195">
        <ele>742.27999999999997</ele>
        <time>2025-05-18T10:20:14Z</time>
      </trkpt>
      <trkpt lat="43.634499963372946" lon="6.310029979795218">
        <ele>741.78999999999996</ele>
        <time>2025-05-18T10:20:15Z</time>
      </trkpt>
      <trkpt lat="43.634370965883136" lon="6.310144979506731">
        <ele>741.30999999999995</ele>
        <time>2025-05-18T10:20:16Z</time>
      </trkpt>
      <trkpt lat="43.634243980050087" lon="6.310165012255311">
        <ele>740.35000000000002</ele>
        <time>2025-05-18T10:20:17Z</time>
      </trkpt>
      <trkpt lat="43.634125040844083" lon="6.310165012255311">
        <ele>740.35000000000002</ele>
        <time>2025-05-18T10:20:18Z</time>
      </trkpt>
      <trkpt lat="43.634003000333905" lon="6.310165012255311">
        <ele>739.87</ele>
        <time>2025-05-18T10:20:19Z</time>
      </trkpt>
      <trkpt lat="43.633870985358953" lon="6.310165012255311">
        <ele>739.87</ele>
        <time>2025-05-18T10:20:20Z</time>
      </trkpt>
      <trkpt lat="43.633730001747608" lon="6.310227960348129">
        <ele>740.35000000000002</ele>
        <time>2025-05-18T10:20:21Z</time>
      </trkpt>
      <trkpt lat="43.633591029793024" lon="6.31031303666532">
        <ele>739.87</ele>
        <time>2025-05-18T10:20:22Z</time>
      </trkpt>
      <trkpt lat="43.633444011211395" lon="6.310403980314732">
        <ele>739.87</ele>
        <time>2025-05-18T10:20:23Z</time>
      </trkpt>
      <trkpt lat="43.633308978751302" lon="6.310526020824909">
        <ele>739.38999999999999</ele>
        <time>2025-05-18T10:20:24Z</time>
      </trkpt>
      <trkpt lat="43.633178975433111" lon="6.310642026364803">
        <ele>738.42999999999995</ele>
        <time>2025-05-18T10:20:25Z</time>
      </trkpt>
      <trkpt lat="43.633056012913585" lon="6.310753002762795">
        <ele>737.95000000000005</ele>
        <time>2025-05-18T10:20:26Z</time>
      </trkpt>
      <trkpt lat="43.632830958813429" lon="6.310956012457609">
        <ele>737.47000000000003</ele>
        <time>2025-05-18T10:20:28Z</time>
      </trkpt>
      <trkpt lat="43.632714031264186" lon="6.311004962772131">
        <ele>736.99000000000001</ele>
        <time>2025-05-18T10:20:29Z</time>
      </trkpt>
      <trkpt lat="43.632581010460854" lon="6.311041004955769">
        <ele>736.50999999999999</ele>
        <time>2025-05-18T10:20:30Z</time>
      </trkpt>
      <trkpt lat="43.632437009364367" lon="6.311079980805516">
        <ele>735.54999999999995</ele>
        <time>2025-05-18T10:20:31Z</time>
      </trkpt>
      <trkpt lat="43.632284961640835" lon="6.311128009110689">
        <ele>735.54999999999995</ele>
        <time>2025-05-18T10:20:32Z</time>
      </trkpt>
      <trkpt lat="43.632136015221477" lon="6.311190035194159">
        <ele>735.07000000000005</ele>
        <time>2025-05-18T10:20:33Z</time>
      </trkpt>
      <trkpt lat="43.631991008296609" lon="6.311298999935389">
        <ele>734.58000000000004</ele>
        <time>2025-05-18T10:20:34Z</time>
      </trkpt>
      <trkpt lat="43.631852036342025" lon="6.311437971889973">
        <ele>734.58000000000004</ele>
        <time>2025-05-18T10:20:35Z</time>
      </trkpt>
      <trkpt lat="43.631706023588777" lon="6.311593959107995">
        <ele>734.10000000000002</ele>
        <time>2025-05-18T10:20:36Z</time>
      </trkpt>
      <trkpt lat="43.631565039977431" lon="6.311784982681274">
        <ele>733.62</ele>
        <time>2025-05-18T10:20:37Z</time>
      </trkpt>
      <trkpt lat="43.631422966718674" lon="6.311979023739696">
        <ele>732.65999999999997</ele>
        <time>2025-05-18T10:20:38Z</time>
      </trkpt>
      <trkpt lat="43.630329966545105" lon="6.313331024721265">
        <ele>725.92999999999995</ele>
        <time>2025-05-18T10:20:45Z</time>
      </trkpt>
      <trkpt lat="43.630031989887357" lon="6.313703013584018">
        <ele>724.00999999999999</ele>
        <time>2025-05-18T10:20:47Z</time>
      </trkpt>
      <trkpt lat="43.629902992397547" lon="6.313917003571987">
        <ele>723.04999999999995</ele>
        <time>2025-05-18T10:20:48Z</time>
      </trkpt>
      <trkpt lat="43.629527986049652" lon="6.314572971314192">
        <ele>720.15999999999997</ele>
        <time>2025-05-18T10:20:51Z</time>
      </trkpt>
      <trkpt lat="43.62943897023797" lon="6.314809005707502">
        <ele>719.20000000000005</ele>
        <time>2025-05-18T10:20:52Z</time>
      </trkpt>
      <trkpt lat="43.62935003824532" lon="6.315046967938542">
        <ele>718.72000000000003</ele>
        <time>2025-05-18T10:20:53Z</time>
      </trkpt>
      <trkpt lat="43.629236966371536" lon="6.315274033695459">
        <ele>717.75999999999999</ele>
        <time>2025-05-18T10:20:54Z</time>
      </trkpt>
      <trkpt lat="43.629106041043997" lon="6.315479977056384">
        <ele>717.27999999999997</ele>
        <time>2025-05-18T10:20:55Z</time>
      </trkpt>
      <trkpt lat="43.628489971160889" lon="6.316761989146471">
        <ele>711.02999999999997</ele>
        <time>2025-05-18T10:21:01Z</time>
      </trkpt>
      <trkpt lat="43.628444960340858" lon="6.316976984962821">
        <ele>710.07000000000005</ele>
        <time>2025-05-18T10:21:02Z</time>
      </trkpt>
      <trkpt lat="43.628430962562561" lon="6.317219976335764">
        <ele>709.11000000000001</ele>
        <time>2025-05-18T10:21:03Z</time>
      </trkpt>
      <trkpt lat="43.628415958955884" lon="6.317481994628906">
        <ele>707.66999999999996</ele>
        <time>2025-05-18T10:21:04Z</time>
      </trkpt>
      <trkpt lat="43.628400033339858" lon="6.317758010700345">
        <ele>706.71000000000004</ele>
        <time>2025-05-18T10:21:05Z</time>
      </trkpt>
      <trkpt lat="43.628343036398292" lon="6.318803988397121">
        <ele>702.86000000000001</ele>
        <time>2025-05-18T10:21:09Z</time>
      </trkpt>
      <trkpt lat="43.6283840239048" lon="6.319018984213471">
        <ele>702.38</ele>
        <time>2025-05-18T10:21:10Z</time>
      </trkpt>
      <trkpt lat="43.62846901640296" lon="6.319454004988074">
        <ele>700.46000000000004</ele>
        <time>2025-05-18T10:21:12Z</time>
      </trkpt>
      <trkpt lat="43.62846901640296" lon="6.319665983319283">
        <ele>699.98000000000002</ele>
        <time>2025-05-18T10:21:13Z</time>
      </trkpt>
      <trkpt lat="43.62846901640296" lon="6.319856001064181">
        <ele>699.01999999999998</ele>
        <time>2025-05-18T10:21:14Z</time>
      </trkpt>
      <trkpt lat="43.628497011959553" lon="6.320035960525274">
        <ele>699.01999999999998</ele>
        <time>2025-05-18T10:21:15Z</time>
      </trkpt>
      <trkpt lat="43.628532970324159" lon="6.320199994370341">
        <ele>698.04999999999995</ele>
        <time>2025-05-18T10:21:16Z</time>
      </trkpt>
      <trkpt lat="43.628575969487429" lon="6.320399986580014">
        <ele>697.09000000000003</ele>
        <time>2025-05-18T10:21:17Z</time>
      </trkpt>
      <trkpt lat="43.628546968102455" lon="6.320524038746953">
        <ele>696.61000000000001</ele>
        <time>2025-05-18T10:21:18Z</time>
      </trkpt>
      <trkpt lat="43.628507992252707" lon="6.32069100625813">
        <ele>695.16999999999996</ele>
        <time>2025-05-18T10:21:19Z</time>
      </trkpt>
      <trkpt lat="43.628416964784265" lon="6.320846993476152">
        <ele>694.21000000000004</ele>
        <time>2025-05-18T10:21:20Z</time>
      </trkpt>
      <trkpt lat="43.628315040841699" lon="6.320962999016047">
        <ele>693.25</ele>
        <time>2025-05-18T10:21:21Z</time>
      </trkpt>
      <trkpt lat="43.628213033080101" lon="6.32107699289918">
        <ele>692.28999999999996</ele>
        <time>2025-05-18T10:21:22Z</time>
      </trkpt>
      <trkpt lat="43.628127034753561" lon="6.321224011480808">
        <ele>691.33000000000004</ele>
        <time>2025-05-18T10:21:23Z</time>
      </trkpt>
      <trkpt lat="43.628074983134866" lon="6.321411011740565">
        <ele>689.88</ele>
        <time>2025-05-18T10:21:24Z</time>
      </trkpt>
      <trkpt lat="43.62799703143537" lon="6.321688033640385">
        <ele>688.91999999999996</ele>
        <time>2025-05-18T10:21:25Z</time>
      </trkpt>
      <trkpt lat="43.62799703143537" lon="6.32180898450315">
        <ele>688.44000000000005</ele>
        <time>2025-05-18T10:21:26Z</time>
      </trkpt>
      <trkpt lat="43.62799703143537" lon="6.322035966441035">
        <ele>687.48000000000002</ele>
        <time>2025-05-18T10:21:27Z</time>
      </trkpt>
      <trkpt lat="43.628021003678441" lon="6.322287004441023">
        <ele>687</ele>
        <time>2025-05-18T10:21:28Z</time>
      </trkpt>
      <trkpt lat="43.628072971478105" lon="6.322519015520811">
        <ele>686.03999999999996</ele>
        <time>2025-05-18T10:21:29Z</time>
      </trkpt>
      <trkpt lat="43.6281250230968" lon="6.322749014943838">
        <ele>685.08000000000004</ele>
        <time>2025-05-18T10:21:30Z</time>
      </trkpt>
      <trkpt lat="43.628175985068083" lon="6.322975996881723">
        <ele>684.60000000000002</ele>
        <time>2025-05-18T10:21:31Z</time>
      </trkpt>
      <trkpt lat="43.628185037523508" lon="6.323209013789892">
        <ele>683.63</ele>
        <time>2025-05-18T10:21:32Z</time>
      </trkpt>
      <trkpt lat="43.628114964812994" lon="6.324536958709359">
        <ele>678.35000000000002</ele>
        <time>2025-05-18T10:21:37Z</time>
      </trkpt>
      <trkpt lat="43.628054028376937" lon="6.324810041114688">
        <ele>677.87</ele>
        <time>2025-05-18T10:21:38Z</time>
      </trkpt>
      <trkpt lat="43.627993008121848" lon="6.325085973367095">
        <ele>676.90999999999997</ele>
        <time>2025-05-18T10:21:39Z</time>
      </trkpt>
      <trkpt lat="43.627894017845392" lon="6.325355032458901">
        <ele>676.41999999999996</ele>
        <time>2025-05-18T10:21:40Z</time>
      </trkpt>
      <trkpt lat="43.627787986770272" lon="6.325603974983096">
        <ele>675.46000000000004</ele>
        <time>2025-05-18T10:21:41Z</time>
      </trkpt>
      <trkpt lat="43.627682961523533" lon="6.325849983841181">
        <ele>674.98000000000002</ele>
        <time>2025-05-18T10:21:42Z</time>
      </trkpt>
      <trkpt lat="43.627478023990989" lon="6.326331021264195">
        <ele>673.53999999999996</ele>
        <time>2025-05-18T10:21:44Z</time>
      </trkpt>
      <trkpt lat="43.627187004312873" lon="6.326740980148315">
        <ele>671.13999999999999</ele>
        <time>2025-05-18T10:21:46Z</time>
      </trkpt>
      <trkpt lat="43.627023976296186" lon="6.32692102342844">
        <ele>670.65999999999997</ele>
        <time>2025-05-18T10:21:47Z</time>
      </trkpt>
      <trkpt lat="43.626287039369345" lon="6.32775804027915">
        <ele>666.80999999999995</ele>
        <time>2025-05-18T10:21:52Z</time>
      </trkpt>
      <trkpt lat="43.626190982758999" lon="6.327922996133566">
        <ele>666.33000000000004</ele>
        <time>2025-05-18T10:21:53Z</time>
      </trkpt>
      <trkpt lat="43.626146977767348" lon="6.328132962808013">
        <ele>665.37</ele>
        <time>2025-05-18T10:21:54Z</time>
      </trkpt>
      <trkpt lat="43.626114958897233" lon="6.32836002856493">
        <ele>664.88999999999999</ele>
        <time>2025-05-18T10:21:55Z</time>
      </trkpt>
      <trkpt lat="43.626082018017769" lon="6.328593967482448">
        <ele>664.88999999999999</ele>
        <time>2025-05-18T10:21:56Z</time>
      </trkpt>
      <trkpt lat="43.625680021941662" lon="6.330604031682015">
        <ele>662.00999999999999</ele>
        <time>2025-05-18T10:22:04Z</time>
      </trkpt>
      <trkpt lat="43.625409035012126" lon="6.332907965406776">
        <ele>660.55999999999995</ele>
        <time>2025-05-18T10:22:12Z</time>
      </trkpt>
      <trkpt lat="43.625270985066891" lon="6.334086041897535">
        <ele>660.55999999999995</ele>
        <time>2025-05-18T10:22:16Z</time>
      </trkpt>
      <trkpt lat="43.625264028087258" lon="6.334320986643434">
        <ele>660.55999999999995</ele>
        <time>2025-05-18T10:22:17Z</time>
      </trkpt>
      <trkpt lat="43.62531297840178" lon="6.334535982459784">
        <ele>660.08000000000004</ele>
        <time>2025-05-18T10:22:18Z</time>
      </trkpt>
      <trkpt lat="43.625367963686585" lon="6.334761958569288">
        <ele>660.08000000000004</ele>
        <time>2025-05-18T10:22:19Z</time>
      </trkpt>
      <trkpt lat="43.625450022518635" lon="6.334988018497825">
        <ele>659.60000000000002</ele>
        <time>2025-05-18T10:22:20Z</time>
      </trkpt>
      <trkpt lat="43.62608696334064" lon="6.336748972535133">
        <ele>656.72000000000003</ele>
        <time>2025-05-18T10:22:27Z</time>
      </trkpt>
      <trkpt lat="43.62625895999372" lon="6.337222969159484">
        <ele>656.24000000000001</ele>
        <time>2025-05-18T10:22:29Z</time>
      </trkpt>
      <trkpt lat="43.626295002177358" lon="6.337463026866317">
        <ele>656.72000000000003</ele>
        <time>2025-05-18T10:22:30Z</time>
      </trkpt>
      <trkpt lat="43.626365996897221" lon="6.337969964370132">
        <ele>656.72000000000003</ele>
        <time>2025-05-18T10:22:32Z</time>
      </trkpt>
      <trkpt lat="43.626365996897221" lon="6.338205998763442">
        <ele>656.24000000000001</ele>
        <time>2025-05-18T10:22:33Z</time>
      </trkpt>
      <trkpt lat="43.626336995512247" lon="6.338447984308004">
        <ele>655.75999999999999</ele>
        <time>2025-05-18T10:22:34Z</time>
      </trkpt>
      <trkpt lat="43.626216966658831" lon="6.33916798979044">
        <ele>654.79999999999995</ele>
        <time>2025-05-18T10:22:37Z</time>
      </trkpt>
      <trkpt lat="43.626145971938968" lon="6.339350966736674">
        <ele>654.79999999999995</ele>
        <time>2025-05-18T10:22:38Z</time>
      </trkpt>
      <trkpt lat="43.626047987490892" lon="6.339481975883246">
        <ele>653.83000000000004</ele>
        <time>2025-05-18T10:22:39Z</time>
      </trkpt>
      <trkpt lat="43.625549012795091" lon="6.340031996369362">
        <ele>650.95000000000005</ele>
        <time>2025-05-18T10:22:43Z</time>
      </trkpt>
      <trkpt lat="43.625049032270908" lon="6.34045603685081">
        <ele>647.59000000000003</ele>
        <time>2025-05-18T10:22:46Z</time>
      </trkpt>
      <trkpt lat="43.624149989336729" lon="6.341536967083812">
        <ele>642.77999999999997</ele>
        <time>2025-05-18T10:22:52Z</time>
      </trkpt>
      <trkpt lat="43.623616984114051" lon="6.34217600338161">
        <ele>640.86000000000001</ele>
        <time>2025-05-18T10:22:57Z</time>
      </trkpt>
      <trkpt lat="43.623527968302369" lon="6.342226965352893">
        <ele>640.38</ele>
        <time>2025-05-18T10:22:58Z</time>
      </trkpt>
      <trkpt lat="43.623440964147449" lon="6.342234006151557">
        <ele>640.38</ele>
        <time>2025-05-18T10:22:59Z</time>
      </trkpt>
      <trkpt lat="43.62335697747767" lon="6.342240963131189">
        <ele>640.38</ele>
        <time>2025-05-18T10:23:00Z</time>
      </trkpt>
      <trkpt lat="43.62327097915113" lon="6.342263007536531">
        <ele>640.86000000000001</ele>
        <time>2025-05-18T10:23:01Z</time>
      </trkpt>
      <trkpt lat="43.623203001916409" lon="6.342291003093123">
        <ele>641.34000000000003</ele>
        <time>2025-05-18T10:23:02Z</time>
      </trkpt>
      <trkpt lat="43.623128989711404" lon="6.342320004478097">
        <ele>642.29999999999995</ele>
        <time>2025-05-18T10:23:03Z</time>
      </trkpt>
      <trkpt lat="43.623054977506399" lon="6.342372978106141">
        <ele>643.25999999999999</ele>
        <time>2025-05-18T10:23:04Z</time>
      </trkpt>
      <trkpt lat="43.622982976958156" lon="6.342435004189611">
        <ele>643.25999999999999</ele>
        <time>2025-05-18T10:23:05Z</time>
      </trkpt>
      <trkpt lat="43.622906031087041" lon="6.342502981424332">
        <ele>643.74000000000001</ele>
        <time>2025-05-18T10:23:06Z</time>
      </trkpt>
      <trkpt lat="43.622821038588881" lon="6.342575987800956">
        <ele>643.74000000000001</ele>
        <time>2025-05-18T10:23:07Z</time>
      </trkpt>
      <trkpt lat="43.6227320227772" lon="6.342654023319483">
        <ele>643.74000000000001</ele>
        <time>2025-05-18T10:23:08Z</time>
      </trkpt>
      <trkpt lat="43.621512036770582" lon="6.343675022944808">
        <ele>643.25999999999999</ele>
        <time>2025-05-18T10:23:20Z</time>
      </trkpt>
      <trkpt lat="43.620423981919885" lon="6.344180032610893">
        <ele>643.25999999999999</ele>
        <time>2025-05-18T10:23:27Z</time>
      </trkpt>
      <trkpt lat="43.619969012215734" lon="6.344436015933752">
        <ele>643.25999999999999</ele>
        <time>2025-05-18T10:23:30Z</time>
      </trkpt>
      <trkpt lat="43.619873039424419" lon="6.344563001766801">
        <ele>643.25999999999999</ele>
        <time>2025-05-18T10:23:31Z</time>
      </trkpt>
      <trkpt lat="43.619818976148963" lon="6.344742961227894">
        <ele>643.25999999999999</ele>
        <time>2025-05-18T10:23:32Z</time>
      </trkpt>
      <trkpt lat="43.619758961722255" lon="6.344943037256599">
        <ele>642.77999999999997</ele>
        <time>2025-05-18T10:23:33Z</time>
      </trkpt>
      <trkpt lat="43.619696013629436" lon="6.345150992274284">
        <ele>642.29999999999995</ele>
        <time>2025-05-18T10:23:34Z</time>
      </trkpt>
      <trkpt lat="43.619544971734285" lon="6.345555000007153">
        <ele>641.82000000000005</ele>
        <time>2025-05-18T10:23:36Z</time>
      </trkpt>
      <trkpt lat="43.619445981457829" lon="6.345732025802136">
        <ele>641.34000000000003</ele>
        <time>2025-05-18T10:23:37Z</time>
      </trkpt>
      <trkpt lat="43.619313966482878" lon="6.345867980271578">
        <ele>641.34000000000003</ele>
        <time>2025-05-18T10:23:38Z</time>
      </trkpt>
      <trkpt lat="43.619173988699913" lon="6.346011981368065">
        <ele>641.34000000000003</ele>
        <time>2025-05-18T10:23:39Z</time>
      </trkpt>
      <trkpt lat="43.619031999260187" lon="6.346158999949694">
        <ele>640.86000000000001</ele>
        <time>2025-05-18T10:23:40Z</time>
      </trkpt>
      <trkpt lat="43.618095992133021" lon="6.347271027043462">
        <ele>637.00999999999999</ele>
        <time>2025-05-18T10:23:46Z</time>
      </trkpt>
      <trkpt lat="43.616071008145809" lon="6.349451998248696">
        <ele>631.72000000000003</ele>
        <time>2025-05-18T10:23:57Z</time>
      </trkpt>
      <trkpt lat="43.614421030506492" lon="6.35072898119688">
        <ele>632.67999999999995</ele>
        <time>2025-05-18T10:24:06Z</time>
      </trkpt>
      <trkpt lat="43.614346012473106" lon="6.350850015878677">
        <ele>633.16999999999996</ele>
        <time>2025-05-18T10:24:07Z</time>
      </trkpt>
      <trkpt lat="43.61428901553154" lon="6.350998040288687">
        <ele>633.64999999999998</ele>
        <time>2025-05-18T10:24:08Z</time>
      </trkpt>
      <trkpt lat="43.614223971962929" lon="6.351170036941767">
        <ele>634.61000000000001</ele>
        <time>2025-05-18T10:24:09Z</time>
      </trkpt>
      <trkpt lat="43.614146020263433" lon="6.35137296281755">
        <ele>635.57000000000005</ele>
        <time>2025-05-18T10:24:10Z</time>
      </trkpt>
      <trkpt lat="43.613975029438734" lon="6.351807983592153">
        <ele>636.04999999999995</ele>
        <time>2025-05-18T10:24:12Z</time>
      </trkpt>
      <trkpt lat="43.61385902389884" lon="6.351987021043897">
        <ele>636.52999999999997</ele>
        <time>2025-05-18T10:24:13Z</time>
      </trkpt>
      <trkpt lat="43.613746035844088" lon="6.352163041010499">
        <ele>637.00999999999999</ele>
        <time>2025-05-18T10:24:14Z</time>
      </trkpt>
      <trkpt lat="43.613628018647432" lon="6.352344006299973">
        <ele>637.49000000000001</ele>
        <time>2025-05-18T10:24:15Z</time>
      </trkpt>
      <trkpt lat="43.613504972308874" lon="6.352534024044871">
        <ele>637.49000000000001</ele>
        <time>2025-05-18T10:24:16Z</time>
      </trkpt>
      <trkpt lat="43.613147987052798" lon="6.353080021217465">
        <ele>637.97000000000003</ele>
        <time>2025-05-18T10:24:19Z</time>
      </trkpt>
      <trkpt lat="43.612987976521254" lon="6.35326199233532">
        <ele>638.45000000000005</ele>
        <time>2025-05-18T10:24:20Z</time>
      </trkpt>
      <trkpt lat="43.612458994612098" lon="6.353898011147976">
        <ele>637.97000000000003</ele>
        <time>2025-05-18T10:24:24Z</time>
      </trkpt>
      <trkpt lat="43.612387999892235" lon="6.354092974215746">
        <ele>637.97000000000003</ele>
        <time>2025-05-18T10:24:25Z</time>
      </trkpt>
      <trkpt lat="43.612318011000752" lon="6.354289026930928">
        <ele>637.97000000000003</ele>
        <time>2025-05-18T10:24:26Z</time>
      </trkpt>
      <trkpt lat="43.612061021849513" lon="6.354929991066456">
        <ele>638.45000000000005</ele>
        <time>2025-05-18T10:24:30Z</time>
      </trkpt>
      <trkpt lat="43.611998995766044" lon="6.355026969686151">
        <ele>638.92999999999995</ele>
        <time>2025-05-18T10:24:31Z</time>
      </trkpt>
      <trkpt lat="43.611920960247517" lon="6.35506896302104">
        <ele>638.92999999999995</ele>
        <time>2025-05-18T10:24:32Z</time>
      </trkpt>
      <trkpt lat="43.611837979406118" lon="6.355056976899505">
        <ele>638.92999999999995</ele>
        <time>2025-05-18T10:24:33Z</time>
      </trkpt>
      <trkpt lat="43.611756004393101" lon="6.354993022978306">
        <ele>639.40999999999997</ele>
        <time>2025-05-18T10:24:34Z</time>
      </trkpt>
      <trkpt lat="43.611672017723322" lon="6.354908030480146">
        <ele>639.88999999999999</ele>
        <time>2025-05-18T10:24:35Z</time>
      </trkpt>
      <trkpt lat="43.61158199608326" lon="6.354818008840084">
        <ele>640.38</ele>
        <time>2025-05-18T10:24:36Z</time>
      </trkpt>
      <trkpt lat="43.611479988321662" lon="6.354717006906867">
        <ele>640.86000000000001</ele>
        <time>2025-05-18T10:24:37Z</time>
      </trkpt>
      <trkpt lat="43.611373035237193" lon="6.354601001366973">
        <ele>641.82000000000005</ele>
        <time>2025-05-18T10:24:38Z</time>
      </trkpt>
      <trkpt lat="43.611114034429193" lon="6.354159023612738">
        <ele>643.25999999999999</ele>
        <time>2025-05-18T10:24:41Z</time>
      </trkpt>
      <trkpt lat="43.611083021387458" lon="6.354010999202728">
        <ele>643.74000000000001</ele>
        <time>2025-05-18T10:24:42Z</time>
      </trkpt>
      <trkpt lat="43.611016971990466" lon="6.353783011436462">
        <ele>644.70000000000005</ele>
        <time>2025-05-18T10:24:44Z</time>
      </trkpt>
      <trkpt lat="43.6109599750489" lon="6.353681003674865">
        <ele>645.17999999999995</ele>
        <time>2025-05-18T10:24:45Z</time>
      </trkpt>
      <trkpt lat="43.610876994207501" lon="6.353660970926285">
        <ele>645.65999999999997</ele>
        <time>2025-05-18T10:24:46Z</time>
      </trkpt>
      <trkpt lat="43.610767023637891" lon="6.353632975369692">
        <ele>646.62</ele>
        <time>2025-05-18T10:24:47Z</time>
      </trkpt>
      <trkpt lat="43.610641965642571" lon="6.353601962327957">
        <ele>647.10000000000002</ele>
        <time>2025-05-18T10:24:48Z</time>
      </trkpt>
      <trkpt lat="43.610243992879987" lon="6.353525016456842">
        <ele>648.07000000000005</ele>
        <time>2025-05-18T10:24:51Z</time>
      </trkpt>
      <trkpt lat="43.610122036188841" lon="6.353591987863183">
        <ele>648.54999999999995</ele>
        <time>2025-05-18T10:24:52Z</time>
      </trkpt>
      <trkpt lat="43.609988009557128" lon="6.353664994239807">
        <ele>649.50999999999999</ele>
        <time>2025-05-18T10:24:53Z</time>
      </trkpt>
      <trkpt lat="43.608948988839984" lon="6.354322973638773">
        <ele>649.50999999999999</ele>
        <time>2025-05-18T10:25:00Z</time>
      </trkpt>
      <trkpt lat="43.608815968036652" lon="6.354332026094198">
        <ele>649.50999999999999</ele>
        <time>2025-05-18T10:25:01Z</time>
      </trkpt>
      <trkpt lat="43.608686970546842" lon="6.354302018880844">
        <ele>649.50999999999999</ele>
        <time>2025-05-18T10:25:02Z</time>
      </trkpt>
      <trkpt lat="43.607468996196985" lon="6.353810001164675">
        <ele>649.99000000000001</ele>
        <time>2025-05-18T10:25:10Z</time>
      </trkpt>
      <trkpt lat="43.607187028974295" lon="6.35369198396802">
        <ele>649.99000000000001</ele>
        <time>2025-05-18T10:25:12Z</time>
      </trkpt>
      <trkpt lat="43.607044033706188" lon="6.353681003674865">
        <ele>649.99000000000001</ele>
        <time>2025-05-18T10:25:13Z</time>
      </trkpt>
      <trkpt lat="43.606899026781321" lon="6.353707993403077">
        <ele>649.50999999999999</ele>
        <time>2025-05-18T10:25:14Z</time>
      </trkpt>
      <trkpt lat="43.606747984886169" lon="6.353764990344644">
        <ele>649.02999999999997</ele>
        <time>2025-05-18T10:25:15Z</time>
      </trkpt>
      <trkpt lat="43.606594009324908" lon="6.353822993114591">
        <ele>648.54999999999995</ele>
        <time>2025-05-18T10:25:16Z</time>
      </trkpt>
      <trkpt lat="43.605637969449162" lon="6.354195987805724">
        <ele>645.17999999999995</ele>
        <time>2025-05-18T10:25:22Z</time>
      </trkpt>
      <trkpt lat="43.605527998879552" lon="6.354342000558972">
        <ele>644.70000000000005</ele>
        <time>2025-05-18T10:25:23Z</time>
      </trkpt>
      <trkpt lat="43.605447029694915" lon="6.354502011090517">
        <ele>644.22000000000003</ele>
        <time>2025-05-18T10:25:24Z</time>
      </trkpt>
      <trkpt lat="43.604747978970408" lon="6.356016034260392">
        <ele>640.86000000000001</ele>
        <time>2025-05-18T10:25:31Z</time>
      </trkpt>
      <trkpt lat="43.604249004274607" lon="6.357030998915434">
        <ele>638.45000000000005</ele>
        <time>2025-05-18T10:25:37Z</time>
      </trkpt>
      <trkpt lat="43.60416904091835" lon="6.357179023325443">
        <ele>636.52999999999997</ele>
        <time>2025-05-18T10:25:42Z</time>
      </trkpt>
      <trkpt lat="43.604156970977783" lon="6.357199978083372">
        <ele>636.04999999999995</ele>
        <time>2025-05-18T10:25:43Z</time>
      </trkpt>
      <trkpt lat="43.604175997897983" lon="6.357254963368177">
        <ele>636.04999999999995</ele>
        <time>2025-05-18T10:25:44Z</time>
      </trkpt>
      <trkpt lat="43.604208016768098" lon="6.357351019978523">
        <ele>635.57000000000005</ele>
        <time>2025-05-18T10:25:45Z</time>
      </trkpt>
      <trkpt lat="43.604242969304323" lon="6.357457973062992">
        <ele>635.09000000000003</ele>
        <time>2025-05-18T10:25:46Z</time>
      </trkpt>
      <trkpt lat="43.604242969304323" lon="6.357612032443285">
        <ele>634.61000000000001</ele>
        <time>2025-05-18T10:25:47Z</time>
      </trkpt>
      <trkpt lat="43.60421497374773" lon="6.357776988297701">
        <ele>634.13</ele>
        <time>2025-05-18T10:25:48Z</time>
      </trkpt>
      <trkpt lat="43.604162000119686" lon="6.357975974678993">
        <ele>633.64999999999998</ele>
        <time>2025-05-18T10:25:49Z</time>
      </trkpt>
      <trkpt lat="43.604103997349739" lon="6.358192982152104">
        <ele>633.64999999999998</ele>
        <time>2025-05-18T10:25:50Z</time>
      </trkpt>
      <trkpt lat="43.603495974093676" lon="6.360282003879547">
        <ele>632.67999999999995</ele>
        <time>2025-05-18T10:25:58Z</time>
      </trkpt>
      <trkpt lat="43.602969003841281" lon="6.362279998138547">
        <ele>633.16999999999996</ele>
        <time>2025-05-18T10:26:06Z</time>
      </trkpt>
      <trkpt lat="43.602979984134436" lon="6.362460963428021">
        <ele>633.64999999999998</ele>
        <time>2025-05-18T10:26:07Z</time>
      </trkpt>
      <trkpt lat="43.603019965812564" lon="6.362649975344539">
        <ele>634.13</ele>
        <time>2025-05-18T10:26:08Z</time>
      </trkpt>
      <trkpt lat="43.603211995214224" lon="6.363204019144177">
        <ele>635.09000000000003</ele>
        <time>2025-05-18T10:26:11Z</time>
      </trkpt>
      <trkpt lat="43.603213001042604" lon="6.363433012738824">
        <ele>634.61000000000001</ele>
        <time>2025-05-18T10:26:12Z</time>
      </trkpt>
      <trkpt lat="43.603163966909051" lon="6.363643985241652">
        <ele>633.64999999999998</ele>
        <time>2025-05-18T10:26:13Z</time>
      </trkpt>
      <trkpt lat="43.603104036301374" lon="6.363838026300073">
        <ele>632.67999999999995</ele>
        <time>2025-05-18T10:26:14Z</time>
      </trkpt>
      <trkpt lat="43.603041004389524" lon="6.364039024338126">
        <ele>631.72000000000003</ele>
        <time>2025-05-18T10:26:15Z</time>
      </trkpt>
      <trkpt lat="43.60299096442759" lon="6.364260977134109">
        <ele>630.75999999999999</ele>
        <time>2025-05-18T10:26:16Z</time>
      </trkpt>
      <trkpt lat="43.602981995791197" lon="6.364508997648954">
        <ele>629.79999999999995</ele>
        <time>2025-05-18T10:26:17Z</time>
      </trkpt>
      <trkpt lat="43.602994987741113" lon="6.364769004285336">
        <ele>629.32000000000005</ele>
        <time>2025-05-18T10:26:18Z</time>
      </trkpt>
      <trkpt lat="43.603018037974834" lon="6.365222968161106">
        <ele>627.88</ele>
        <time>2025-05-18T10:26:20Z</time>
      </trkpt>
      <trkpt lat="43.603055002167821" lon="6.365336962044239">
        <ele>627.39999999999998</ele>
        <time>2025-05-18T10:26:21Z</time>
      </trkpt>
      <trkpt lat="43.603107975795865" lon="6.36544399894774">
        <ele>626.91999999999996</ele>
        <time>2025-05-18T10:26:22Z</time>
      </trkpt>
      <trkpt lat="43.603179976344109" lon="6.365539971739054">
        <ele>626.91999999999996</ele>
        <time>2025-05-18T10:26:23Z</time>
      </trkpt>
      <trkpt lat="43.603275027126074" lon="6.365647008642554">
        <ele>626.91999999999996</ele>
        <time>2025-05-18T10:26:24Z</time>
      </trkpt>
      <trkpt lat="43.603379968553782" lon="6.365763014182448">
        <ele>626.44000000000005</ele>
        <time>2025-05-18T10:26:25Z</time>
      </trkpt>
      <trkpt lat="43.604309018701315" lon="6.366815026849508">
        <ele>626.44000000000005</ele>
        <time>2025-05-18T10:26:32Z</time>
      </trkpt>
      <trkpt lat="43.604438016191125" lon="6.36701200157404">
        <ele>626.91999999999996</ele>
        <time>2025-05-18T10:26:33Z</time>
      </trkpt>
      <trkpt lat="43.605546019971371" lon="6.369109991937876">
        <ele>631.72000000000003</ele>
        <time>2025-05-18T10:26:42Z</time>
      </trkpt>
      <trkpt lat="43.605966037139297" lon="6.369964024052024">
        <ele>633.64999999999998</ele>
        <time>2025-05-18T10:26:46Z</time>
      </trkpt>
      <trkpt lat="43.606028985232115" lon="6.370197040960193">
        <ele>634.13</ele>
        <time>2025-05-18T10:26:47Z</time>
      </trkpt>
      <trkpt lat="43.606093022972345" lon="6.370432991534472">
        <ele>634.61000000000001</ele>
        <time>2025-05-18T10:26:48Z</time>
      </trkpt>
      <trkpt lat="43.606156976893544" lon="6.370673971250653">
        <ele>634.61000000000001</ele>
        <time>2025-05-18T10:26:49Z</time>
      </trkpt>
      <trkpt lat="43.606221014633775" lon="6.370908999815583">
        <ele>634.13</ele>
        <time>2025-05-18T10:26:50Z</time>
      </trkpt>
      <trkpt lat="43.606431987136602" lon="6.372356973588467">
        <ele>630.75999999999999</ele>
        <time>2025-05-18T10:26:57Z</time>
      </trkpt>
      <trkpt lat="43.606410026550293" lon="6.372583033517003">
        <ele>629.79999999999995</ele>
        <time>2025-05-18T10:26:58Z</time>
      </trkpt>
      <trkpt lat="43.606379013508558" lon="6.372817978262901">
        <ele>628.84000000000003</ele>
        <time>2025-05-18T10:26:59Z</time>
      </trkpt>
      <trkpt lat="43.606313969939947" lon="6.37305099517107">
        <ele>627.39999999999998</ele>
        <time>2025-05-18T10:27:00Z</time>
      </trkpt>
      <trkpt lat="43.606228977441788" lon="6.373283006250858">
        <ele>625.96000000000004</ele>
        <time>2025-05-18T10:27:01Z</time>
      </trkpt>
      <trkpt lat="43.606106014922261" lon="6.373487021774054">
        <ele>624.99000000000001</ele>
        <time>2025-05-18T10:27:02Z</time>
      </trkpt>
      <trkpt lat="43.605981040745974" lon="6.373679973185062">
        <ele>623.54999999999995</ele>
        <time>2025-05-18T10:27:03Z</time>
      </trkpt>
      <trkpt lat="43.605821030214429" lon="6.373854987323284">
        <ele>622.11000000000001</ele>
        <time>2025-05-18T10:27:04Z</time>
      </trkpt>
      <trkpt lat="43.605658002197742" lon="6.374034024775028">
        <ele>621.14999999999998</ele>
        <time>2025-05-18T10:27:05Z</time>
      </trkpt>
      <trkpt lat="43.605493968352675" lon="6.374213984236121">
        <ele>620.19000000000005</ele>
        <time>2025-05-18T10:27:06Z</time>
      </trkpt>
      <trkpt lat="43.605041010305285" lon="6.374794011935592">
        <ele>616.82000000000005</ele>
        <time>2025-05-18T10:27:09Z</time>
      </trkpt>
      <trkpt lat="43.604917963966727" lon="6.375040020793676">
        <ele>615.86000000000001</ele>
        <time>2025-05-18T10:27:10Z</time>
      </trkpt>
      <trkpt lat="43.604805981740355" lon="6.375304972752929">
        <ele>613.94000000000005</ele>
        <time>2025-05-18T10:27:11Z</time>
      </trkpt>
      <trkpt lat="43.604705985635519" lon="6.375584006309509">
        <ele>612.01999999999998</ele>
        <time>2025-05-18T10:27:12Z</time>
      </trkpt>
      <trkpt lat="43.604615963995457" lon="6.375873014330864">
        <ele>610.57000000000005</ele>
        <time>2025-05-18T10:27:13Z</time>
      </trkpt>
      <trkpt lat="43.604261996224523" lon="6.377360969781876">
        <ele>602.39999999999998</ele>
        <time>2025-05-18T10:27:18Z</time>
      </trkpt>
      <trkpt lat="43.60423400066793" lon="6.377672022208571">
        <ele>600.48000000000002</ele>
        <time>2025-05-18T10:27:19Z</time>
      </trkpt>
      <trkpt lat="43.604224026203156" lon="6.37799103744328">
        <ele>598.55999999999995</ele>
        <time>2025-05-18T10:27:20Z</time>
      </trkpt>
      <trkpt lat="43.604158982634544" lon="6.380244009196758">
        <ele>586.53999999999996</ele>
        <time>2025-05-18T10:27:27Z</time>
      </trkpt>
      <trkpt lat="43.603984974324703" lon="6.381055964156985">
        <ele>581.25</ele>
        <time>2025-05-18T10:27:30Z</time>
      </trkpt>
      <trkpt lat="43.603885984048247" lon="6.381243970245123">
        <ele>579.80999999999995</ele>
        <time>2025-05-18T10:27:31Z</time>
      </trkpt>
      <trkpt lat="43.603779030963778" lon="6.381406998261809">
        <ele>577.88999999999999</ele>
        <time>2025-05-18T10:27:32Z</time>
      </trkpt>
      <trkpt lat="43.603678029030561" lon="6.381518980488181">
        <ele>576.92999999999995</ele>
        <time>2025-05-18T10:27:33Z</time>
      </trkpt>
      <trkpt lat="43.60361197963357" lon="6.381585029885173">
        <ele>575.49000000000001</ele>
        <time>2025-05-18T10:27:34Z</time>
      </trkpt>
      <trkpt lat="43.603300005197525" lon="6.381746968254447">
        <ele>570.67999999999995</ele>
        <time>2025-05-18T10:27:39Z</time>
      </trkpt>
      <trkpt lat="43.603251976892352" lon="6.381759038195014">
        <ele>570.20000000000005</ele>
        <time>2025-05-18T10:27:40Z</time>
      </trkpt>
      <trkpt lat="43.603220963850617" lon="6.381767001003027">
        <ele>569.72000000000003</ele>
        <time>2025-05-18T10:27:41Z</time>
      </trkpt>
      <trkpt lat="43.603207971900702" lon="6.381771024316549">
        <ele>568.75999999999999</ele>
        <time>2025-05-18T10:27:42Z</time>
      </trkpt>
      <trkpt lat="43.603218030184507" lon="6.381768006831408">
        <ele>568.27999999999997</ele>
        <time>2025-05-18T10:27:43Z</time>
      </trkpt>
      <trkpt lat="43.603234961628914" lon="6.381763983517885">
        <ele>567.79999999999995</ele>
        <time>2025-05-18T10:27:44Z</time>
      </trkpt>
      <trkpt lat="43.603251976892352" lon="6.381759960204363">
        <ele>567.32000000000005</ele>
        <time>2025-05-18T10:27:45Z</time>
      </trkpt>
      <trkpt lat="43.60328902490437" lon="6.381749985739589">
        <ele>566.35000000000002</ele>
        <time>2025-05-18T10:27:52Z</time>
      </trkpt>
      <trkpt lat="43.603325989097357" lon="6.381741017103195">
        <ele>566.35000000000002</ele>
        <time>2025-05-18T10:27:53Z</time>
      </trkpt>
      <trkpt lat="43.6033979896456" lon="6.381718972697854">
        <ele>565.87</ele>
        <time>2025-05-18T10:27:54Z</time>
      </trkpt>
      <trkpt lat="43.603466972708702" lon="6.381681002676487">
        <ele>565.38999999999999</ele>
        <time>2025-05-18T10:27:55Z</time>
      </trkpt>
      <trkpt lat="43.603535033762455" lon="6.38164303265512">
        <ele>565.87</ele>
        <time>2025-05-18T10:27:56Z</time>
      </trkpt>
      <trkpt lat="43.603613991290331" lon="6.381636997684836">
        <ele>565.87</ele>
        <time>2025-05-18T10:27:57Z</time>
      </trkpt>
      <trkpt lat="43.603683980181813" lon="6.381672034040093">
        <ele>565.87</ele>
        <time>2025-05-18T10:27:58Z</time>
      </trkpt>
      <trkpt lat="43.603765033185482" lon="6.381702041253448">
        <ele>565.87</ele>
        <time>2025-05-18T10:27:59Z</time>
      </trkpt>
      <trkpt lat="43.603837033733726" lon="6.38168603181839">
        <ele>566.35000000000002</ele>
        <time>2025-05-18T10:28:00Z</time>
      </trkpt>
      <trkpt lat="43.603907022625208" lon="6.381671028211713">
        <ele>566.35000000000002</ele>
        <time>2025-05-18T10:28:01Z</time>
      </trkpt>
      <trkpt lat="43.603973994031549" lon="6.381657030433416">
        <ele>566.35000000000002</ele>
        <time>2025-05-18T10:28:02Z</time>
      </trkpt>
      <trkpt lat="43.604039959609509" lon="6.38164303265512">
        <ele>566.35000000000002</ele>
        <time>2025-05-18T10:28:03Z</time>
      </trkpt>
      <trkpt lat="43.604091005399823" lon="6.381650995463133">
        <ele>566.35000000000002</ele>
        <time>2025-05-18T10:28:04Z</time>
      </trkpt>
      <trkpt lat="43.604141967371106" lon="6.381663987413049">
        <ele>566.35000000000002</ele>
        <time>2025-05-18T10:28:05Z</time>
      </trkpt>
      <trkpt lat="43.604182032868266" lon="6.381674967706204">
        <ele>566.35000000000002</ele>
        <time>2025-05-18T10:28:06Z</time>
      </trkpt>
      <trkpt lat="43.604216985404491" lon="6.381684020161629">
        <ele>566.35000000000002</ele>
        <time>2025-05-18T10:28:07Z</time>
      </trkpt>
      <trkpt lat="43.604249004274607" lon="6.381691982969642">
        <ele>566.35000000000002</ele>
        <time>2025-05-18T10:28:08Z</time>
      </trkpt>
      <trkpt lat="43.604279011487961" lon="6.381700029596686">
        <ele>565.87</ele>
        <time>2025-05-18T10:28:09Z</time>
      </trkpt>
      <trkpt lat="43.604309018701315" lon="6.381706986576319">
        <ele>565.87</ele>
        <time>2025-05-18T10:28:10Z</time>
      </trkpt>
      <trkpt lat="43.604338020086288" lon="6.381715033203363">
        <ele>566.35000000000002</ele>
        <time>2025-05-18T10:28:11Z</time>
      </trkpt>
      <trkpt lat="43.604356963187456" lon="6.381719978526235">
        <ele>566.35000000000002</ele>
        <time>2025-05-18T10:28:12Z</time>
      </trkpt>
      <trkpt lat="43.604356963187456" lon="6.381719978526235">
        <ele>566.35000000000002</ele>
        <time>2025-05-18T10:28:27Z</time>
      </trkpt>
      <trkpt lat="43.604356963187456" lon="6.381719978526235">
        <ele>566.35000000000002</ele>
        <time>2025-05-18T10:29:06Z</time>
      </trkpt>
      <trkpt lat="43.60446902923286" lon="6.381747974082828">
        <ele>568.27999999999997</ele>
        <time>2025-05-18T10:29:49Z</time>
      </trkpt>
      <trkpt lat="43.604844035580754" lon="6.381800025701523">
        <ele>569.24000000000001</ele>
        <time>2025-05-18T10:29:54Z</time>
      </trkpt>
      <trkpt lat="43.604928022250533" lon="6.381791979074478">
        <ele>569.72000000000003</ele>
        <time>2025-05-18T10:29:55Z</time>
      </trkpt>
      <trkpt lat="43.605189034715295" lon="6.381774041801691">
        <ele>570.67999999999995</ele>
        <time>2025-05-18T10:29:58Z</time>
      </trkpt>
      <trkpt lat="43.605271009728312" lon="6.381789967417717">
        <ele>571.63999999999999</ele>
        <time>2025-05-18T10:29:59Z</time>
      </trkpt>
      <trkpt lat="43.605380980297923" lon="6.381812011823058">
        <ele>573.08000000000004</ele>
        <time>2025-05-18T10:30:00Z</time>
      </trkpt>
      <trkpt lat="43.605570998042822" lon="6.381928017362952">
        <ele>575.97000000000003</ele>
        <time>2025-05-18T10:30:02Z</time>
      </trkpt>
      <trkpt lat="43.60567300580442" lon="6.381990965455771">
        <ele>577.40999999999997</ele>
        <time>2025-05-18T10:30:03Z</time>
      </trkpt>
      <trkpt lat="43.605909962207079" lon="6.382135972380638">
        <ele>581.25</ele>
        <time>2025-05-18T10:30:06Z</time>
      </trkpt>
      <trkpt lat="43.605973999947309" lon="6.382175032049418">
        <ele>581.73000000000002</ele>
        <time>2025-05-18T10:30:07Z</time>
      </trkpt>
      <trkpt lat="43.606026973575354" lon="6.382206967100501">
        <ele>582.70000000000005</ele>
        <time>2025-05-18T10:30:08Z</time>
      </trkpt>
      <trkpt lat="43.606066033244133" lon="6.382231023162603">
        <ele>584.13999999999999</ele>
        <time>2025-05-18T10:30:09Z</time>
      </trkpt>
      <trkpt lat="43.606087993830442" lon="6.3822450209409">
        <ele>585.10000000000002</ele>
        <time>2025-05-18T10:30:10Z</time>
      </trkpt>
      <trkpt lat="43.606111966073513" lon="6.382259018719196">
        <ele>585.58000000000004</ele>
        <time>2025-05-18T10:30:11Z</time>
      </trkpt>
      <trkpt lat="43.606139961630106" lon="6.382341999560595">
        <ele>586.53999999999996</ele>
        <time>2025-05-18T10:30:12Z</time>
      </trkpt>
      <trkpt lat="43.606133004650474" lon="6.382377035915852">
        <ele>587.01999999999998</ele>
        <time>2025-05-18T10:30:13Z</time>
      </trkpt>
      <trkpt lat="43.606123030185699" lon="6.382424980401993">
        <ele>587.98000000000002</ele>
        <time>2025-05-18T10:30:14Z</time>
      </trkpt>
      <trkpt lat="43.606053963303566" lon="6.38274097815156">
        <ele>590.87</ele>
        <time>2025-05-18T10:30:18Z</time>
      </trkpt>
      <trkpt lat="43.605993026867509" lon="6.382883973419666">
        <ele>592.30999999999995</ele>
        <time>2025-05-18T10:30:20Z</time>
      </trkpt>
      <trkpt lat="43.605766966938972" lon="6.383270965889096">
        <ele>595.19000000000005</ele>
        <time>2025-05-18T10:30:25Z</time>
      </trkpt>
      <trkpt lat="43.605751041322947" lon="6.383355958387256">
        <ele>595.66999999999996</ele>
        <time>2025-05-18T10:30:26Z</time>
      </trkpt>
      <trkpt lat="43.605731008574367" lon="6.38347003608942">
        <ele>596.14999999999998</ele>
        <time>2025-05-18T10:30:27Z</time>
      </trkpt>
      <trkpt lat="43.605680968612432" lon="6.3840720243752">
        <ele>597.60000000000002</ele>
        <time>2025-05-18T10:30:32Z</time>
      </trkpt>
      <trkpt lat="43.605658002197742" lon="6.384192975237966">
        <ele>597.60000000000002</ele>
        <time>2025-05-18T10:30:33Z</time>
      </trkpt>
      <trkpt lat="43.605612991377711" lon="6.384318033233285">
        <ele>597.12</ele>
        <time>2025-05-18T10:30:34Z</time>
      </trkpt>
      <trkpt lat="43.605491034686565" lon="6.384538980200887">
        <ele>595.19000000000005</ele>
        <time>2025-05-18T10:30:36Z</time>
      </trkpt>
      <trkpt lat="43.605465972796082" lon="6.384640987962484">
        <ele>594.71000000000004</ele>
        <time>2025-05-18T10:30:37Z</time>
      </trkpt>
      <trkpt lat="43.605465972796082" lon="6.384742995724082">
        <ele>595.19000000000005</ele>
        <time>2025-05-18T10:30:38Z</time>
      </trkpt>
      <trkpt lat="43.605490028858185" lon="6.385134011507034">
        <ele>593.75</ele>
        <time>2025-05-18T10:30:41Z</time>
      </trkpt>
      <trkpt lat="43.60552104189992" lon="6.385268960148096">
        <ele>593.75</ele>
        <time>2025-05-18T10:30:42Z</time>
      </trkpt>
      <trkpt lat="43.605569992214441" lon="6.385368034243584">
        <ele>593.26999999999998</ele>
        <time>2025-05-18T10:30:43Z</time>
      </trkpt>
      <trkpt lat="43.605617014691234" lon="6.385439028963447">
        <ele>592.30999999999995</ele>
        <time>2025-05-18T10:30:44Z</time>
      </trkpt>
      <trkpt lat="43.60567300580442" lon="6.38544799759984">
        <ele>591.35000000000002</ele>
        <time>2025-05-18T10:30:45Z</time>
      </trkpt>
      <trkpt lat="43.605745006352663" lon="6.385459983721376">
        <ele>590.87</ele>
        <time>2025-05-18T10:30:46Z</time>
      </trkpt>
      <trkpt lat="43.605836033821106" lon="6.385444980114698">
        <ele>590.38999999999999</ele>
        <time>2025-05-18T10:30:47Z</time>
      </trkpt>
      <trkpt lat="43.605946004390717" lon="6.38542695902288">
        <ele>590.38999999999999</ele>
        <time>2025-05-18T10:30:48Z</time>
      </trkpt>
      <trkpt lat="43.60604097135365" lon="6.385379014536738">
        <ele>590.38999999999999</ele>
        <time>2025-05-18T10:30:49Z</time>
      </trkpt>
      <trkpt lat="43.606137027963996" lon="6.385283041745424">
        <ele>590.38999999999999</ele>
        <time>2025-05-18T10:30:50Z</time>
      </trkpt>
      <trkpt lat="43.606236018240452" lon="6.385183967649937">
        <ele>590.38999999999999</ele>
        <time>2025-05-18T10:30:51Z</time>
      </trkpt>
      <trkpt lat="43.606353029608727" lon="6.385105010122061">
        <ele>589.90999999999997</ele>
        <time>2025-05-18T10:30:52Z</time>
      </trkpt>
      <trkpt lat="43.606473980471492" lon="6.385024040937424">
        <ele>589.42999999999995</ele>
        <time>2025-05-18T10:30:53Z</time>
      </trkpt>
      <trkpt lat="43.606604989618063" lon="6.384949022904038">
        <ele>588.95000000000005</ele>
        <time>2025-05-18T10:30:54Z</time>
      </trkpt>
      <trkpt lat="43.607602017000318" lon="6.384517019614577">
        <ele>581.25</ele>
        <time>2025-05-18T10:31:01Z</time>
      </trkpt>
      <trkpt lat="43.608005018904805" lon="6.384285008534789">
        <ele>578.85000000000002</ele>
        <time>2025-05-18T10:31:04Z</time>
      </trkpt>
      <trkpt lat="43.608267959207296" lon="6.384132960811257">
        <ele>577.40999999999997</ele>
        <time>2025-05-18T10:31:06Z</time>
      </trkpt>
      <trkpt lat="43.60840399749577" lon="6.384063977748156">
        <ele>576.45000000000005</ele>
        <time>2025-05-18T10:31:07Z</time>
      </trkpt>
      <trkpt lat="43.608554033562541" lon="6.384052997455001">
        <ele>575.49000000000001</ele>
        <time>2025-05-18T10:31:08Z</time>
      </trkpt>
      <trkpt lat="43.609403958544135" lon="6.38398895971477">
        <ele>569.72000000000003</ele>
        <time>2025-05-18T10:31:13Z</time>
      </trkpt>
      <trkpt lat="43.610007036477327" lon="6.383944032713771">
        <ele>564.90999999999997</ele>
        <time>2025-05-18T10:31:17Z</time>
      </trkpt>
      <trkpt lat="43.610128993168473" lon="6.383916037157178">
        <ele>562.99000000000001</ele>
        <time>2025-05-18T10:31:18Z</time>
      </trkpt>
      <trkpt lat="43.610233012586832" lon="6.383839007467032">
        <ele>562.02999999999997</ele>
        <time>2025-05-18T10:31:19Z</time>
      </trkpt>
      <trkpt lat="43.610339965671301" lon="6.383760971948504">
        <ele>560.59000000000003</ele>
        <time>2025-05-18T10:31:20Z</time>
      </trkpt>
      <trkpt lat="43.610456977039576" lon="6.383673967793584">
        <ele>559.13999999999999</ele>
        <time>2025-05-18T10:31:21Z</time>
      </trkpt>
      <trkpt lat="43.611058965325356" lon="6.383270965889096">
        <ele>552.40999999999997</ele>
        <time>2025-05-18T10:31:27Z</time>
      </trkpt>
      <trkpt lat="43.61111001111567" lon="6.383250011131167">
        <ele>551.45000000000005</ele>
        <time>2025-05-18T10:31:28Z</time>
      </trkpt>
      <trkpt lat="43.611193997785449" lon="6.383272977545857">
        <ele>550.49000000000001</ele>
        <time>2025-05-18T10:31:29Z</time>
      </trkpt>
      <trkpt lat="43.611276978626847" lon="6.383295021951199">
        <ele>549.04999999999995</ele>
        <time>2025-05-18T10:31:30Z</time>
      </trkpt>
      <trkpt lat="43.611345961689949" lon="6.383313965052366">
        <ele>548.09000000000003</ele>
        <time>2025-05-18T10:31:31Z</time>
      </trkpt>
      <trkpt lat="43.61143397167325" lon="6.383402980864048">
        <ele>546.64999999999998</ele>
        <time>2025-05-18T10:31:32Z</time>
      </trkpt>
      <trkpt lat="43.611512007191777" lon="6.383505994454026">
        <ele>545.20000000000005</ele>
        <time>2025-05-18T10:31:33Z</time>
      </trkpt>
      <trkpt lat="43.611571015790105" lon="6.383661981672049">
        <ele>544.24000000000001</ele>
        <time>2025-05-18T10:31:34Z</time>
      </trkpt>
      <trkpt lat="43.611635975539684" lon="6.383830038830638">
        <ele>542.79999999999995</ele>
        <time>2025-05-18T10:31:35Z</time>
      </trkpt>
      <trkpt lat="43.611702024936676" lon="6.384003963321447">
        <ele>542.32000000000005</ele>
        <time>2025-05-18T10:31:36Z</time>
      </trkpt>
      <trkpt lat="43.6117750313133" lon="6.384193981066346">
        <ele>541.84000000000003</ele>
        <time>2025-05-18T10:31:37Z</time>
      </trkpt>
      <trkpt lat="43.611799003556371" lon="6.384360026568174">
        <ele>541.36000000000001</ele>
        <time>2025-05-18T10:31:38Z</time>
      </trkpt>
      <trkpt lat="43.611856000497937" lon="6.384822959080339">
        <ele>539.91999999999996</ele>
        <time>2025-05-18T10:31:41Z</time>
      </trkpt>
      <trkpt lat="43.6118199583143" lon="6.384972995147109">
        <ele>539.91999999999996</ele>
        <time>2025-05-18T10:31:42Z</time>
      </trkpt>
      <trkpt lat="43.611768996343017" lon="6.385107021778822">
        <ele>539.44000000000005</ele>
        <time>2025-05-18T10:31:43Z</time>
      </trkpt>
      <trkpt lat="43.611705964431167" lon="6.385250017046928">
        <ele>539.44000000000005</ele>
        <time>2025-05-18T10:31:44Z</time>
      </trkpt>
      <trkpt lat="43.61162499524653" lon="6.385395023971796">
        <ele>539.91999999999996</ele>
        <time>2025-05-18T10:31:45Z</time>
      </trkpt>
      <trkpt lat="43.611104981973767" lon="6.386334970593453">
        <ele>538.48000000000002</ele>
        <time>2025-05-18T10:31:51Z</time>
      </trkpt>
      <trkpt lat="43.611053014174104" lon="6.386477965861559">
        <ele>538.48000000000002</ele>
        <time>2025-05-18T10:31:52Z</time>
      </trkpt>
      <trkpt lat="43.61102300696075" lon="6.386638982221484">
        <ele>537.99000000000001</ele>
        <time>2025-05-18T10:31:53Z</time>
      </trkpt>
      <trkpt lat="43.610912030562758" lon="6.387164024636149">
        <ele>536.54999999999995</ele>
        <time>2025-05-18T10:31:56Z</time>
      </trkpt>
      <trkpt lat="43.610844975337386" lon="6.38733996078372">
        <ele>536.07000000000005</ele>
        <time>2025-05-18T10:31:57Z</time>
      </trkpt>
      <trkpt lat="43.610757971182466" lon="6.387510029599071">
        <ele>535.59000000000003</ele>
        <time>2025-05-18T10:31:58Z</time>
      </trkpt>
      <trkpt lat="43.610423030331731" lon="6.388163985684514">
        <ele>533.19000000000005</ele>
        <time>2025-05-18T10:32:02Z</time>
      </trkpt>
      <trkpt lat="43.610402997583151" lon="6.388299018144608">
        <ele>533.19000000000005</ele>
        <time>2025-05-18T10:32:03Z</time>
      </trkpt>
      <trkpt lat="43.610406015068293" lon="6.388474032282829">
        <ele>532.71000000000004</ele>
        <time>2025-05-18T10:32:04Z</time>
      </trkpt>
      <trkpt lat="43.610409032553434" lon="6.388662960380316">
        <ele>532.23000000000002</ele>
        <time>2025-05-18T10:32:05Z</time>
      </trkpt>
      <trkpt lat="43.610412972047925" lon="6.38886496424675">
        <ele>531.75</ele>
        <time>2025-05-18T10:32:06Z</time>
      </trkpt>
      <trkpt lat="43.610448008403182" lon="6.389496037736535">
        <ele>529.34000000000003</ele>
        <time>2025-05-18T10:32:09Z</time>
      </trkpt>
      <trkpt lat="43.610484972596169" lon="6.389655964449048">
        <ele>528.38</ele>
        <time>2025-05-18T10:32:10Z</time>
      </trkpt>
      <trkpt lat="43.610540041700006" lon="6.389763001352549">
        <ele>527.89999999999998</ele>
        <time>2025-05-18T10:32:11Z</time>
      </trkpt>
      <trkpt lat="43.610596032813191" lon="6.389867020770907">
        <ele>526.94000000000005</ele>
        <time>2025-05-18T10:32:12Z</time>
      </trkpt>
      <trkpt lat="43.610640037804842" lon="6.389946984127164">
        <ele>526.46000000000004</ele>
        <time>2025-05-18T10:32:13Z</time>
      </trkpt>
      <trkpt lat="43.610707009211183" lon="6.390014039352536">
        <ele>525.98000000000002</ele>
        <time>2025-05-18T10:32:14Z</time>
      </trkpt>
      <trkpt lat="43.610770963132381" lon="6.390076987445355">
        <ele>525.98000000000002</ele>
        <time>2025-05-18T10:32:15Z</time>
      </trkpt>
      <trkpt lat="43.610833995044231" lon="6.390141025185585">
        <ele>525.98000000000002</ele>
        <time>2025-05-18T10:32:16Z</time>
      </trkpt>
      <trkpt lat="43.610896021127701" lon="6.390202967450023">
        <ele>525.98000000000002</ele>
        <time>2025-05-18T10:32:17Z</time>
      </trkpt>
      <trkpt lat="43.610965004190803" lon="6.390272034332156">
        <ele>525.98000000000002</ele>
        <time>2025-05-18T10:32:18Z</time>
      </trkpt>
      <trkpt lat="43.61104697920382" lon="6.390353003516793">
        <ele>525.98000000000002</ele>
        <time>2025-05-18T10:32:19Z</time>
      </trkpt>
      <trkpt lat="43.611147981137037" lon="6.390442019328475">
        <ele>526.46000000000004</ele>
        <time>2025-05-18T10:32:20Z</time>
      </trkpt>
      <trkpt lat="43.611265998333693" lon="6.390546038746834">
        <ele>526.94000000000005</ele>
        <time>2025-05-18T10:32:21Z</time>
      </trkpt>
      <trkpt lat="43.611526004970074" lon="6.390773020684719">
        <ele>527.41999999999996</ele>
        <time>2025-05-18T10:32:23Z</time>
      </trkpt>
      <trkpt lat="43.611666988581419" lon="6.39084099791944">
        <ele>528.38</ele>
        <time>2025-05-18T10:32:24Z</time>
      </trkpt>
      <trkpt lat="43.611821969971061" lon="6.390895983204246">
        <ele>529.34000000000003</ele>
        <time>2025-05-18T10:32:25Z</time>
      </trkpt>
      <trkpt lat="43.612638032063842" lon="6.391265960410237">
        <ele>534.14999999999998</ele>
        <time>2025-05-18T10:32:30Z</time>
      </trkpt>
      <trkpt lat="43.612768035382032" lon="6.391369979828596">
        <ele>534.63</ele>
        <time>2025-05-18T10:32:31Z</time>
      </trkpt>
      <trkpt lat="43.612890997901559" lon="6.391467964276671">
        <ele>535.11000000000001</ele>
        <time>2025-05-18T10:32:32Z</time>
      </trkpt>
      <trkpt lat="43.612933997064829" lon="6.391597967594862">
        <ele>535.59000000000003</ele>
        <time>2025-05-18T10:32:33Z</time>
      </trkpt>
      <trkpt lat="43.612962998449802" lon="6.391752026975155">
        <ele>536.54999999999995</ele>
        <time>2025-05-18T10:32:34Z</time>
      </trkpt>
      <trkpt lat="43.612975990399718" lon="6.391923017799854">
        <ele>537.50999999999999</ele>
        <time>2025-05-18T10:32:35Z</time>
      </trkpt>
      <trkpt lat="43.612938020378351" lon="6.392093002796173">
        <ele>538.48000000000002</ele>
        <time>2025-05-18T10:32:36Z</time>
      </trkpt>
      <trkpt lat="43.612847998738289" lon="6.392231974750757">
        <ele>539.44000000000005</ele>
        <time>2025-05-18T10:32:37Z</time>
      </trkpt>
      <trkpt lat="43.612738028168678" lon="6.392320990562439">
        <ele>539.91999999999996</ele>
        <time>2025-05-18T10:32:38Z</time>
      </trkpt>
      <trkpt lat="43.612602995708585" lon="6.392391985282302">
        <ele>540.88</ele>
        <time>2025-05-18T10:32:39Z</time>
      </trkpt>
      <trkpt lat="43.612451031804085" lon="6.392399026080966">
        <ele>542.32000000000005</ele>
        <time>2025-05-18T10:32:40Z</time>
      </trkpt>
      <trkpt lat="43.612289009615779" lon="6.392405983060598">
        <ele>543.27999999999997</ele>
        <time>2025-05-18T10:32:41Z</time>
      </trkpt>
      <trkpt lat="43.612131010740995" lon="6.392411012202501">
        <ele>544.72000000000003</ele>
        <time>2025-05-18T10:32:42Z</time>
      </trkpt>
      <trkpt lat="43.611984997987747" lon="6.392381004989147">
        <ele>545.69000000000005</ele>
        <time>2025-05-18T10:32:43Z</time>
      </trkpt>
      <trkpt lat="43.611848037689924" lon="6.392312021926045">
        <ele>547.13</ele>
        <time>2025-05-18T10:32:44Z</time>
      </trkpt>
      <trkpt lat="43.611709987744689" lon="6.392208002507687">
        <ele>548.57000000000005</ele>
        <time>2025-05-18T10:32:45Z</time>
      </trkpt>
      <trkpt lat="43.611575039103627" lon="6.39210700057447">
        <ele>550.00999999999999</ele>
        <time>2025-05-18T10:32:46Z</time>
      </trkpt>
      <trkpt lat="43.61145299859345" lon="6.392014967277646">
        <ele>551.45000000000005</ele>
        <time>2025-05-18T10:32:47Z</time>
      </trkpt>
      <trkpt lat="43.61132500693202" lon="6.391973979771137">
        <ele>552.40999999999997</ele>
        <time>2025-05-18T10:32:48Z</time>
      </trkpt>
      <trkpt lat="43.611216964200139" lon="6.391961993649602">
        <ele>553.38</ele>
        <time>2025-05-18T10:32:49Z</time>
      </trkpt>
      <trkpt lat="43.611094001680613" lon="6.39199904166162">
        <ele>554.34000000000003</ele>
        <time>2025-05-18T10:32:50Z</time>
      </trkpt>
      <trkpt lat="43.610979001969099" lon="6.392042962834239">
        <ele>555.29999999999995</ele>
        <time>2025-05-18T10:32:51Z</time>
      </trkpt>
      <trkpt lat="43.610870037227869" lon="6.392122004181147">
        <ele>556.25999999999999</ele>
        <time>2025-05-18T10:32:52Z</time>
      </trkpt>
      <trkpt lat="43.610738022252917" lon="6.392226023599505">
        <ele>557.22000000000003</ele>
        <time>2025-05-18T10:32:53Z</time>
      </trkpt>
      <trkpt lat="43.610597038641572" lon="6.392367007210851">
        <ele>558.17999999999995</ele>
        <time>2025-05-18T10:32:54Z</time>
      </trkpt>
      <trkpt lat="43.609765972942114" lon="6.393197989091277">
        <ele>561.54999999999995</ele>
        <time>2025-05-18T10:32:59Z</time>
      </trkpt>
      <trkpt lat="43.609665976837277" lon="6.393395969644189">
        <ele>562.50999999999999</ele>
        <time>2025-05-18T10:33:00Z</time>
      </trkpt>
      <trkpt lat="43.609586013481021" lon="6.393589004874229">
        <ele>563.47000000000003</ele>
        <time>2025-05-18T10:33:01Z</time>
      </trkpt>
      <trkpt lat="43.609515018761158" lon="6.393792014569044">
        <ele>564.42999999999995</ele>
        <time>2025-05-18T10:33:02Z</time>
      </trkpt>
      <trkpt lat="43.609479982405901" lon="6.394022013992071">
        <ele>565.38999999999999</ele>
        <time>2025-05-18T10:33:03Z</time>
      </trkpt>
      <trkpt lat="43.609445029869676" lon="6.39425796456635">
        <ele>566.35000000000002</ele>
        <time>2025-05-18T10:33:04Z</time>
      </trkpt>
      <trkpt lat="43.609408987686038" lon="6.394495004788041">
        <ele>567.79999999999995</ele>
        <time>2025-05-18T10:33:05Z</time>
      </trkpt>
      <trkpt lat="43.60939297825098" lon="6.39470798894763">
        <ele>569.24000000000001</ele>
        <time>2025-05-18T10:33:06Z</time>
      </trkpt>
      <trkpt lat="43.60939297825098" lon="6.394869005307555">
        <ele>570.20000000000005</ele>
        <time>2025-05-18T10:33:07Z</time>
      </trkpt>
      <trkpt lat="43.609458021819592" lon="6.394980987533927">
        <ele>571.15999999999997</ele>
        <time>2025-05-18T10:33:08Z</time>
      </trkpt>
      <trkpt lat="43.609543014317751" lon="6.395116019994021">
        <ele>572.12</ele>
        <time>2025-05-18T10:33:09Z</time>
      </trkpt>
      <trkpt lat="43.609622977674007" lon="6.395162036642432">
        <ele>572.60000000000002</ele>
        <time>2025-05-18T10:33:10Z</time>
      </trkpt>
      <trkpt lat="43.609747029840946" lon="6.395232025533915">
        <ele>573.08000000000004</ele>
        <time>2025-05-18T10:33:11Z</time>
      </trkpt>
      <trkpt lat="43.609995972365141" lon="6.395422965288162">
        <ele>574.03999999999996</ele>
        <time>2025-05-18T10:33:13Z</time>
      </trkpt>
      <trkpt lat="43.610070990398526" lon="6.395535031333566">
        <ele>574.03999999999996</ele>
        <time>2025-05-18T10:33:14Z</time>
      </trkpt>
      <trkpt lat="43.61012295819819" lon="6.395656988024712">
        <ele>574.03999999999996</ele>
        <time>2025-05-18T10:33:15Z</time>
      </trkpt>
      <trkpt lat="43.61012295819819" lon="6.39582403935492">
        <ele>574.52999999999997</ele>
        <time>2025-05-18T10:33:16Z</time>
      </trkpt>
      <trkpt lat="43.61012295819819" lon="6.39601799659431">
        <ele>575.00999999999999</ele>
        <time>2025-05-18T10:33:17Z</time>
      </trkpt>
      <trkpt lat="43.61012295819819" lon="6.396446982398629">
        <ele>576.45000000000005</ele>
        <time>2025-05-18T10:33:19Z</time>
      </trkpt>
      <trkpt lat="43.610126981511712" lon="6.396678993478417">
        <ele>576.92999999999995</ele>
        <time>2025-05-18T10:33:20Z</time>
      </trkpt>
      <trkpt lat="43.610182972624898" lon="6.396900024265051">
        <ele>577.40999999999997</ele>
        <time>2025-05-18T10:33:21Z</time>
      </trkpt>
      <trkpt lat="43.610238041728735" lon="6.397120971232653">
        <ele>577.88999999999999</ele>
        <time>2025-05-18T10:33:22Z</time>
      </trkpt>
      <trkpt lat="43.61029202118516" lon="6.397337978705764">
        <ele>578.85000000000002</ele>
        <time>2025-05-18T10:33:23Z</time>
      </trkpt>
      <trkpt lat="43.610339965671301" lon="6.397529002279043">
        <ele>579.33000000000004</ele>
        <time>2025-05-18T10:33:24Z</time>
      </trkpt>
      <trkpt lat="43.610373996198177" lon="6.397711979225278">
        <ele>579.33000000000004</ele>
        <time>2025-05-18T10:33:25Z</time>
      </trkpt>
      <trkpt lat="43.610325967893004" lon="6.397882970049977">
        <ele>579.80999999999995</ele>
        <time>2025-05-18T10:33:26Z</time>
      </trkpt>
      <trkpt lat="43.61027299426496" lon="6.398072987794876">
        <ele>579.80999999999995</ele>
        <time>2025-05-18T10:33:27Z</time>
      </trkpt>
      <trkpt lat="43.610223960131407" lon="6.398268034681678">
        <ele>579.80999999999995</ele>
        <time>2025-05-18T10:33:28Z</time>
      </trkpt>
      <trkpt lat="43.610192025080323" lon="6.398486969992518">
        <ele>579.80999999999995</ele>
        <time>2025-05-18T10:33:29Z</time>
      </trkpt>
      <trkpt lat="43.610160006210208" lon="6.398701965808868">
        <ele>579.80999999999995</ele>
        <time>2025-05-18T10:33:30Z</time>
      </trkpt>
      <trkpt lat="43.610131004825234" lon="6.398901036009193">
        <ele>579.80999999999995</ele>
        <time>2025-05-18T10:33:31Z</time>
      </trkpt>
      <trkpt lat="43.610047018155456" lon="6.399031961336732">
        <ele>580.28999999999996</ele>
        <time>2025-05-18T10:33:32Z</time>
      </trkpt>
      <trkpt lat="43.609941992908716" lon="6.399136986583471">
        <ele>580.76999999999998</ele>
        <time>2025-05-18T10:33:33Z</time>
      </trkpt>
      <trkpt lat="43.609820958226919" lon="6.399259027093649">
        <ele>581.25</ele>
        <time>2025-05-18T10:33:34Z</time>
      </trkpt>
      <trkpt lat="43.60900598578155" lon="6.400153962895274">
        <ele>586.53999999999996</ele>
        <time>2025-05-18T10:33:40Z</time>
      </trkpt>
      <trkpt lat="43.608913030475378" lon="6.400334006175399">
        <ele>587.01999999999998</ele>
        <time>2025-05-18T10:33:41Z</time>
      </trkpt>
      <trkpt lat="43.608754025772214" lon="6.400643968954682">
        <ele>587.5</ele>
        <time>2025-05-18T10:33:43Z</time>
      </trkpt>
      <trkpt lat="43.608673978596926" lon="6.400741031393409">
        <ele>587.5</ele>
        <time>2025-05-18T10:33:44Z</time>
      </trkpt>
      <trkpt lat="43.608576999977231" lon="6.400824012234807">
        <ele>587.5</ele>
        <time>2025-05-18T10:33:45Z</time>
      </trkpt>
      <trkpt lat="43.608471974730492" lon="6.400914033874869">
        <ele>587.98000000000002</ele>
        <time>2025-05-18T10:33:46Z</time>
      </trkpt>
      <trkpt lat="43.608385976403952" lon="6.401045965030789">
        <ele>588.46000000000004</ele>
        <time>2025-05-18T10:33:47Z</time>
      </trkpt>
      <trkpt lat="43.608308024704456" lon="6.40121896751225">
        <ele>588.46000000000004</ele>
        <time>2025-05-18T10:33:48Z</time>
      </trkpt>
      <trkpt lat="43.608224038034678" lon="6.401407979428768">
        <ele>588.95000000000005</ele>
        <time>2025-05-18T10:33:49Z</time>
      </trkpt>
      <trkpt lat="43.608142985031009" lon="6.401589028537273">
        <ele>589.42999999999995</ele>
        <time>2025-05-18T10:33:50Z</time>
      </trkpt>
      <trkpt lat="43.608072996139526" lon="6.401745015755296">
        <ele>589.42999999999995</ele>
        <time>2025-05-18T10:33:51Z</time>
      </trkpt>
      <trkpt lat="43.607954978942871" lon="6.401826990768313">
        <ele>589.90999999999997</ele>
        <time>2025-05-18T10:33:52Z</time>
      </trkpt>
      <trkpt lat="43.607842996716499" lon="6.401868984103203">
        <ele>589.90999999999997</ele>
        <time>2025-05-18T10:33:53Z</time>
      </trkpt>
      <trkpt lat="43.607722967863083" lon="6.401843000203371">
        <ele>589.90999999999997</ele>
        <time>2025-05-18T10:33:54Z</time>
      </trkpt>
      <trkpt lat="43.607591036707163" lon="6.401816010475159">
        <ele>590.38999999999999</ele>
        <time>2025-05-18T10:33:55Z</time>
      </trkpt>
      <trkpt lat="43.607333041727543" lon="6.401767982169986">
        <ele>591.35000000000002</ele>
        <time>2025-05-18T10:33:57Z</time>
      </trkpt>
      <trkpt lat="43.607188034802675" lon="6.401793966069818">
        <ele>591.83000000000004</ele>
        <time>2025-05-18T10:33:58Z</time>
      </trkpt>
      <trkpt lat="43.607055013999343" lon="6.401849035173655">
        <ele>592.30999999999995</ele>
        <time>2025-05-18T10:33:59Z</time>
      </trkpt>
      <trkpt lat="43.606934985145926" lon="6.401960011571646">
        <ele>592.78999999999996</ele>
        <time>2025-05-18T10:34:00Z</time>
      </trkpt>
      <trkpt lat="43.606817973777652" lon="6.402067970484495">
        <ele>593.26999999999998</ele>
        <time>2025-05-18T10:34:01Z</time>
      </trkpt>
      <trkpt lat="43.606741027906537" lon="6.402234015986323">
        <ele>593.75</ele>
        <time>2025-05-18T10:34:02Z</time>
      </trkpt>
      <trkpt lat="43.606665004044771" lon="6.402410035952926">
        <ele>594.71000000000004</ele>
        <time>2025-05-18T10:34:03Z</time>
      </trkpt>
      <trkpt lat="43.606628039851785" lon="6.402625031769276">
        <ele>595.66999999999996</ele>
        <time>2025-05-18T10:34:04Z</time>
      </trkpt>
      <trkpt lat="43.606588980183005" lon="6.402853019535542">
        <ele>596.14999999999998</ele>
        <time>2025-05-18T10:34:05Z</time>
      </trkpt>
      <trkpt lat="43.606219002977014" lon="6.405014041811228">
        <ele>602.88</ele>
        <time>2025-05-18T10:34:13Z</time>
      </trkpt>
      <trkpt lat="43.605689015239477" lon="6.408109981566668">
        <ele>608.16999999999996</ele>
        <time>2025-05-18T10:34:23Z</time>
      </trkpt>
      <trkpt lat="43.604955011978745" lon="6.412397995591164">
        <ele>606.73000000000002</ele>
        <time>2025-05-18T10:34:36Z</time>
      </trkpt>
      <trkpt lat="43.604289991781116" lon="6.416220981627703">
        <ele>607.21000000000004</ele>
        <time>2025-05-18T10:34:48Z</time>
      </trkpt>
      <trkpt lat="43.603696972131729" lon="6.419652029871941">
        <ele>610.09000000000003</ele>
        <time>2025-05-18T10:34:59Z</time>
      </trkpt>
      <trkpt lat="43.603551965206861" lon="6.420494997873902">
        <ele>611.05999999999995</ele>
        <time>2025-05-18T10:35:02Z</time>
      </trkpt>
      <trkpt lat="43.603222975507379" lon="6.422395007684827">
        <ele>612.98000000000002</ele>
        <time>2025-05-18T10:35:09Z</time>
      </trkpt>
      <trkpt lat="43.603149969130754" lon="6.42313102260232">
        <ele>613.46000000000004</ele>
        <time>2025-05-18T10:35:12Z</time>
      </trkpt>
      <trkpt lat="43.603156004101038" lon="6.423383988440037">
        <ele>612.98000000000002</ele>
        <time>2025-05-18T10:35:13Z</time>
      </trkpt>
      <trkpt lat="43.603187017142773" lon="6.425135973840952">
        <ele>615.38</ele>
        <time>2025-05-18T10:35:19Z</time>
      </trkpt>
      <trkpt lat="43.603174025192857" lon="6.42702198587358">
        <ele>622.59000000000003</ele>
        <time>2025-05-18T10:35:26Z</time>
      </trkpt>
      <trkpt lat="43.603205038234591" lon="6.427255002781749">
        <ele>623.54999999999995</ele>
        <time>2025-05-18T10:35:27Z</time>
      </trkpt>
      <trkpt lat="43.603413999080658" lon="6.428286982700229">
        <ele>625.47000000000003</ele>
        <time>2025-05-18T10:35:31Z</time>
      </trkpt>
      <trkpt lat="43.603429002687335" lon="6.428549000993371">
        <ele>625.47000000000003</ele>
        <time>2025-05-18T10:35:32Z</time>
      </trkpt>
      <trkpt lat="43.603443000465631" lon="6.428786041215062">
        <ele>625.47000000000003</ele>
        <time>2025-05-18T10:35:33Z</time>
      </trkpt>
      <trkpt lat="43.603475019335747" lon="6.429004976525903">
        <ele>625.47000000000003</ele>
        <time>2025-05-18T10:35:34Z</time>
      </trkpt>
      <trkpt lat="43.60352598130703" lon="6.429231958463788">
        <ele>625.47000000000003</ele>
        <time>2025-05-18T10:35:35Z</time>
      </trkpt>
      <trkpt lat="43.603672999888659" lon="6.429883986711502">
        <ele>626.44000000000005</ele>
        <time>2025-05-18T10:35:38Z</time>
      </trkpt>
      <trkpt lat="43.603672999888659" lon="6.430098982527852">
        <ele>626.91999999999996</ele>
        <time>2025-05-18T10:35:39Z</time>
      </trkpt>
      <trkpt lat="43.603648021817207" lon="6.430298974737525">
        <ele>627.39999999999998</ele>
        <time>2025-05-18T10:35:40Z</time>
      </trkpt>
      <trkpt lat="43.603608040139079" lon="6.430500978603959">
        <ele>627.88</ele>
        <time>2025-05-18T10:35:41Z</time>
      </trkpt>
      <trkpt lat="43.60356998629868" lon="6.430692002177239">
        <ele>628.36000000000001</ele>
        <time>2025-05-18T10:35:42Z</time>
      </trkpt>
      <trkpt lat="43.603534027934074" lon="6.430870033800602">
        <ele>629.32000000000005</ele>
        <time>2025-05-18T10:35:43Z</time>
      </trkpt>
      <trkpt lat="43.603502009063959" lon="6.431029038503766">
        <ele>629.79999999999995</ele>
        <time>2025-05-18T10:35:44Z</time>
      </trkpt>
      <trkpt lat="43.603470996022224" lon="6.431186031550169">
        <ele>630.27999999999997</ele>
        <time>2025-05-18T10:35:45Z</time>
      </trkpt>
      <trkpt lat="43.603507038205862" lon="6.431307988241315">
        <ele>630.27999999999997</ele>
        <time>2025-05-18T10:35:46Z</time>
      </trkpt>
      <trkpt lat="43.603558000177145" lon="6.43144603818655">
        <ele>630.75999999999999</ele>
        <time>2025-05-18T10:35:47Z</time>
      </trkpt>
      <trkpt lat="43.603623965755105" lon="6.43157796934247">
        <ele>630.27999999999997</ele>
        <time>2025-05-18T10:35:48Z</time>
      </trkpt>
      <trkpt lat="43.604280017316341" lon="6.432769037783146">
        <ele>629.32000000000005</ele>
        <time>2025-05-18T10:35:55Z</time>
      </trkpt>
      <trkpt lat="43.604371966794133" lon="6.432932987809181">
        <ele>628.84000000000003</ele>
        <time>2025-05-18T10:35:56Z</time>
      </trkpt>
      <trkpt lat="43.604438016191125" lon="6.433109007775784">
        <ele>628.36000000000001</ele>
        <time>2025-05-18T10:35:57Z</time>
      </trkpt>
      <trkpt lat="43.604479003697634" lon="6.433287961408496">
        <ele>627.88</ele>
        <time>2025-05-18T10:35:58Z</time>
      </trkpt>
      <trkpt lat="43.604479003697634" lon="6.433473033830524">
        <ele>627.39999999999998</ele>
        <time>2025-05-18T10:35:59Z</time>
      </trkpt>
      <trkpt lat="43.604479003697634" lon="6.433615023270249">
        <ele>626.44000000000005</ele>
        <time>2025-05-18T10:36:00Z</time>
      </trkpt>
      <trkpt lat="43.604415971785784" lon="6.433730022981763">
        <ele>625.96000000000004</ele>
        <time>2025-05-18T10:36:01Z</time>
      </trkpt>
      <trkpt lat="43.604332990944386" lon="6.43378802575171">
        <ele>624.99000000000001</ele>
        <time>2025-05-18T10:36:02Z</time>
      </trkpt>
      <trkpt lat="43.604232994839549" lon="6.433802023530006">
        <ele>624.02999999999997</ele>
        <time>2025-05-18T10:36:03Z</time>
      </trkpt>
      <trkpt lat="43.604124030098319" lon="6.433781990781426">
        <ele>623.07000000000005</ele>
        <time>2025-05-18T10:36:04Z</time>
      </trkpt>
      <trkpt lat="43.603994026780128" lon="6.433752989396453">
        <ele>622.11000000000001</ele>
        <time>2025-05-18T10:36:05Z</time>
      </trkpt>
      <trkpt lat="43.603851031512022" lon="6.433720970526338">
        <ele>621.14999999999998</ele>
        <time>2025-05-18T10:36:06Z</time>
      </trkpt>
      <trkpt lat="43.60311702825129" lon="6.433607982471585">
        <ele>618.75</ele>
        <time>2025-05-18T10:36:11Z</time>
      </trkpt>
      <trkpt lat="43.603013008832932" lon="6.433669002726674">
        <ele>618.75</ele>
        <time>2025-05-18T10:36:12Z</time>
      </trkpt>
      <trkpt lat="43.602908989414573" lon="6.433729017153382">
        <ele>617.77999999999997</ele>
        <time>2025-05-18T10:36:13Z</time>
      </trkpt>
      <trkpt lat="43.602849980816245" lon="6.433849968016148">
        <ele>617.29999999999995</ele>
        <time>2025-05-18T10:36:14Z</time>
      </trkpt>
      <trkpt lat="43.602800024673343" lon="6.433983994647861">
        <ele>616.82000000000005</ele>
        <time>2025-05-18T10:36:15Z</time>
      </trkpt>
      <trkpt lat="43.602758031338453" lon="6.434124978259206">
        <ele>616.34000000000003</ele>
        <time>2025-05-18T10:36:16Z</time>
      </trkpt>
      <trkpt lat="43.602737998589873" lon="6.434295969083905">
        <ele>615.86000000000001</ele>
        <time>2025-05-18T10:36:17Z</time>
      </trkpt>
      <trkpt lat="43.602699022740126" lon="6.434633005410433">
        <ele>615.38</ele>
        <time>2025-05-18T10:36:19Z</time>
      </trkpt>
      <trkpt lat="43.60273296944797" lon="6.434744987636805">
        <ele>614.89999999999998</ele>
        <time>2025-05-18T10:36:20Z</time>
      </trkpt>
      <trkpt lat="43.602784015238285" lon="6.434898041188717">
        <ele>614.41999999999996</ele>
        <time>2025-05-18T10:36:21Z</time>
      </trkpt>
      <trkpt lat="43.602854004129767" lon="6.434956965968013">
        <ele>613.94000000000005</ele>
        <time>2025-05-18T10:36:22Z</time>
      </trkpt>
      <trkpt lat="43.602961963042617" lon="6.435047993436456">
        <ele>612.98000000000002</ele>
        <time>2025-05-18T10:36:23Z</time>
      </trkpt>
      <trkpt lat="43.603085009381175" lon="6.435151007026434">
        <ele>611.53999999999996</ele>
        <time>2025-05-18T10:36:24Z</time>
      </trkpt>
      <trkpt lat="43.603216018527746" lon="6.435260977596045">
        <ele>610.57000000000005</ele>
        <time>2025-05-18T10:36:25Z</time>
      </trkpt>
      <trkpt lat="43.603335041552782" lon="6.43538000062108">
        <ele>609.13</ele>
        <time>2025-05-18T10:36:26Z</time>
      </trkpt>
      <trkpt lat="43.603412993252277" lon="6.435553003102541">
        <ele>607.21000000000004</ele>
        <time>2025-05-18T10:36:27Z</time>
      </trkpt>
      <trkpt lat="43.603454986587167" lon="6.435735980048776">
        <ele>605.76999999999998</ele>
        <time>2025-05-18T10:36:28Z</time>
      </trkpt>
      <trkpt lat="43.603492034599185" lon="6.435949970036745">
        <ele>604.33000000000004</ele>
        <time>2025-05-18T10:36:29Z</time>
      </trkpt>
      <trkpt lat="43.603519024327397" lon="6.436163960024715">
        <ele>602.39999999999998</ele>
        <time>2025-05-18T10:36:30Z</time>
      </trkpt>
      <trkpt lat="43.603527992963791" lon="6.436378033831716">
        <ele>600.96000000000004</ele>
        <time>2025-05-18T10:36:31Z</time>
      </trkpt>
      <trkpt lat="43.603508966043591" lon="6.436591017991304">
        <ele>599.51999999999998</ele>
        <time>2025-05-18T10:36:32Z</time>
      </trkpt>
      <trkpt lat="43.603492034599185" lon="6.436783969402313">
        <ele>598.55999999999995</ele>
        <time>2025-05-18T10:36:33Z</time>
      </trkpt>
      <trkpt lat="43.603475019335747" lon="6.436974992975593">
        <ele>597.60000000000002</ele>
        <time>2025-05-18T10:36:34Z</time>
      </trkpt>
      <trkpt lat="43.603481976315379" lon="6.437160987406969">
        <ele>596.14999999999998</ele>
        <time>2025-05-18T10:36:35Z</time>
      </trkpt>
      <trkpt lat="43.603495974093676" lon="6.437337007373571">
        <ele>595.19000000000005</ele>
        <time>2025-05-18T10:36:36Z</time>
      </trkpt>
      <trkpt lat="43.603513995185494" lon="6.437558960169554">
        <ele>594.23000000000002</ele>
        <time>2025-05-18T10:36:37Z</time>
      </trkpt>
      <trkpt lat="43.603492034599185" lon="6.437632972374558">
        <ele>592.78999999999996</ele>
        <time>2025-05-18T10:36:38Z</time>
      </trkpt>
      <trkpt lat="43.603454986587167" lon="6.437756018713117">
        <ele>591.83000000000004</ele>
        <time>2025-05-18T10:36:39Z</time>
      </trkpt>
      <trkpt lat="43.60341802239418" lon="6.437879987061024">
        <ele>590.87</ele>
        <time>2025-05-18T10:36:40Z</time>
      </trkpt>
      <trkpt lat="43.603406958281994" lon="6.438173018395901">
        <ele>587.98000000000002</ele>
        <time>2025-05-18T10:36:42Z</time>
      </trkpt>
      <trkpt lat="43.603427996858954" lon="6.438351972028613">
        <ele>586.53999999999996</ele>
        <time>2025-05-18T10:36:43Z</time>
      </trkpt>
      <trkpt lat="43.603449035435915" lon="6.438527991995215">
        <ele>585.10000000000002</ele>
        <time>2025-05-18T10:36:44Z</time>
      </trkpt>
      <trkpt lat="43.603470996022224" lon="6.438718009740114">
        <ele>584.13999999999999</ele>
        <time>2025-05-18T10:36:45Z</time>
      </trkpt>
      <trkpt lat="43.603462027385831" lon="6.43883703276515">
        <ele>582.70000000000005</ele>
        <time>2025-05-18T10:36:46Z</time>
      </trkpt>
      <trkpt lat="43.603423973545432" lon="6.439054040238261">
        <ele>581.25</ele>
        <time>2025-05-18T10:36:47Z</time>
      </trkpt>
      <trkpt lat="43.603341998532414" lon="6.439169039949775">
        <ele>579.80999999999995</ele>
        <time>2025-05-18T10:36:48Z</time>
      </trkpt>
      <trkpt lat="43.603226998820901" lon="6.439325027167797">
        <ele>578.37</ele>
        <time>2025-05-18T10:36:49Z</time>
      </trkpt>
      <trkpt lat="43.603105964139104" lon="6.439424017444253">
        <ele>576.92999999999995</ele>
        <time>2025-05-18T10:36:50Z</time>
      </trkpt>
      <trkpt lat="43.602972021326423" lon="6.439533988013864">
        <ele>575.49000000000001</ele>
        <time>2025-05-18T10:36:51Z</time>
      </trkpt>
      <trkpt lat="43.602529959753156" lon="6.439897008240223">
        <ele>570.67999999999995</ele>
        <time>2025-05-18T10:36:54Z</time>
      </trkpt>
      <trkpt lat="43.60230197198689" lon="6.440129019320011">
        <ele>567.79999999999995</ele>
        <time>2025-05-18T10:36:56Z</time>
      </trkpt>
      <trkpt lat="43.602183032780886" lon="6.440284000709653">
        <ele>566.35000000000002</ele>
        <time>2025-05-18T10:36:57Z</time>
      </trkpt>
      <trkpt lat="43.602166017517447" lon="6.440381985157728">
        <ele>564.90999999999997</ele>
        <time>2025-05-18T10:36:58Z</time>
      </trkpt>
      <trkpt lat="43.602118995040655" lon="6.440649032592773">
        <ele>563.95000000000005</ele>
        <time>2025-05-18T10:36:59Z</time>
      </trkpt>
      <trkpt lat="43.602140033617616" lon="6.440777024254203">
        <ele>563.47000000000003</ele>
        <time>2025-05-18T10:37:00Z</time>
      </trkpt>
      <trkpt lat="43.60217398032546" lon="6.440989002585411">
        <ele>562.50999999999999</ele>
        <time>2025-05-18T10:37:01Z</time>
      </trkpt>
      <trkpt lat="43.602310018613935" lon="6.441729040816426">
        <ele>560.59000000000003</ele>
        <time>2025-05-18T10:37:04Z</time>
      </trkpt>
      <trkpt lat="43.602371960878372" lon="6.441965997219086">
        <ele>559.62</ele>
        <time>2025-05-18T10:37:05Z</time>
      </trkpt>
      <trkpt lat="43.602468017488718" lon="6.442205971106887">
        <ele>558.65999999999997</ele>
        <time>2025-05-18T10:37:06Z</time>
      </trkpt>
      <trkpt lat="43.602759037166834" lon="6.442788010463119">
        <ele>557.70000000000005</ele>
        <time>2025-05-18T10:37:09Z</time>
      </trkpt>
      <trkpt lat="43.602832965552807" lon="6.442954977974296">
        <ele>557.22000000000003</ele>
        <time>2025-05-18T10:37:10Z</time>
      </trkpt>
      <trkpt lat="43.602870013564825" lon="6.443138038739562">
        <ele>555.77999999999997</ele>
        <time>2025-05-18T10:37:11Z</time>
      </trkpt>
      <trkpt lat="43.60283900052309" lon="6.443295031785965">
        <ele>554.82000000000005</ele>
        <time>2025-05-18T10:37:12Z</time>
      </trkpt>
      <trkpt lat="43.602790972217917" lon="6.443448001518846">
        <ele>553.86000000000001</ele>
        <time>2025-05-18T10:37:13Z</time>
      </trkpt>
      <trkpt lat="43.602731041610241" lon="6.443604994565249">
        <ele>553.38</ele>
        <time>2025-05-18T10:37:14Z</time>
      </trkpt>
      <trkpt lat="43.602604977786541" lon="6.443937001749873">
        <ele>552.89999999999998</ele>
        <time>2025-05-18T10:37:16Z</time>
      </trkpt>
      <trkpt lat="43.602571031078696" lon="6.444114027544856">
        <ele>553.38</ele>
        <time>2025-05-18T10:37:17Z</time>
      </trkpt>
      <trkpt lat="43.602550998330116" lon="6.444307984784246">
        <ele>553.38</ele>
        <time>2025-05-18T10:37:18Z</time>
      </trkpt>
      <trkpt lat="43.602571031078696" lon="6.444504037499428">
        <ele>552.89999999999998</ele>
        <time>2025-05-18T10:37:19Z</time>
      </trkpt>
      <trkpt lat="43.602591985836625" lon="6.444709980860353">
        <ele>551.92999999999995</ele>
        <time>2025-05-18T10:37:20Z</time>
      </trkpt>
      <trkpt lat="43.602663986384869" lon="6.446364987641573">
        <ele>545.20000000000005</ele>
        <time>2025-05-18T10:37:27Z</time>
      </trkpt>
      <trkpt lat="43.602631967514753" lon="6.446563974022865">
        <ele>543.75999999999999</ele>
        <time>2025-05-18T10:37:28Z</time>
      </trkpt>
      <trkpt lat="43.602586034685373" lon="6.446758015081286">
        <ele>542.32000000000005</ele>
        <time>2025-05-18T10:37:29Z</time>
      </trkpt>
      <trkpt lat="43.602518979460001" lon="6.446935962885618">
        <ele>541.84000000000003</ele>
        <time>2025-05-18T10:37:30Z</time>
      </trkpt>
      <trkpt lat="43.602425018325448" lon="6.447135033085942">
        <ele>541.36000000000001</ele>
        <time>2025-05-18T10:37:31Z</time>
      </trkpt>
      <trkpt lat="43.602328039705753" lon="6.447339970618486">
        <ele>540.39999999999998</ele>
        <time>2025-05-18T10:37:32Z</time>
      </trkpt>
      <trkpt lat="43.60223600640893" lon="6.447534011676908">
        <ele>539.44000000000005</ele>
        <time>2025-05-18T10:37:33Z</time>
      </trkpt>
      <trkpt lat="43.602074990049005" lon="6.447875993326306">
        <ele>537.99000000000001</ele>
        <time>2025-05-18T10:37:35Z</time>
      </trkpt>
      <trkpt lat="43.601997960358858" lon="6.448042960837483">
        <ele>537.50999999999999</ele>
        <time>2025-05-18T10:37:36Z</time>
      </trkpt>
      <trkpt lat="43.601926965638995" lon="6.448215963318944">
        <ele>536.54999999999995</ele>
        <time>2025-05-18T10:37:37Z</time>
      </trkpt>
      <trkpt lat="43.601851025596261" lon="6.448401035740972">
        <ele>536.07000000000005</ele>
        <time>2025-05-18T10:37:38Z</time>
      </trkpt>
      <trkpt lat="43.601749017834663" lon="6.448568003252149">
        <ele>535.59000000000003</ele>
        <time>2025-05-18T10:37:39Z</time>
      </trkpt>
      <trkpt lat="43.601621026173234" lon="6.448729019612074">
        <ele>535.59000000000003</ele>
        <time>2025-05-18T10:37:40Z</time>
      </trkpt>
      <trkpt lat="43.600981989875436" lon="6.449476014822722">
        <ele>535.59000000000003</ele>
        <time>2025-05-18T10:37:45Z</time>
      </trkpt>
      <trkpt lat="43.600853998214006" lon="6.449586991220713">
        <ele>535.11000000000001</ele>
        <time>2025-05-18T10:37:46Z</time>
      </trkpt>
      <trkpt lat="43.600712008774281" lon="6.449672989547253">
        <ele>534.14999999999998</ele>
        <time>2025-05-18T10:37:47Z</time>
      </trkpt>
      <trkpt lat="43.600476980209351" lon="6.449853032827377">
        <ele>532.23000000000002</ele>
        <time>2025-05-18T10:37:49Z</time>
      </trkpt>
      <trkpt lat="43.600399028509855" lon="6.449940958991647">
        <ele>531.75</ele>
        <time>2025-05-18T10:37:50Z</time>
      </trkpt>
      <trkpt lat="43.600351000204682" lon="6.450083032250404">
        <ele>530.78999999999996</ele>
        <time>2025-05-18T10:37:51Z</time>
      </trkpt>
      <trkpt lat="43.600315963849425" lon="6.450220998376608">
        <ele>530.29999999999995</ele>
        <time>2025-05-18T10:37:52Z</time>
      </trkpt>
      <trkpt lat="43.600278999656439" lon="6.450369022786617">
        <ele>529.82000000000005</ele>
        <time>2025-05-18T10:37:53Z</time>
      </trkpt>
      <trkpt lat="43.600228037685156" lon="6.450672028586268">
        <ele>528.38</ele>
        <time>2025-05-18T10:37:55Z</time>
      </trkpt>
      <trkpt lat="43.600223008543253" lon="6.450847964733839">
        <ele>528.38</ele>
        <time>2025-05-18T10:37:56Z</time>
      </trkpt>
      <trkpt lat="43.60021797940135" lon="6.451047034934163">
        <ele>527.41999999999996</ele>
        <time>2025-05-18T10:37:57Z</time>
      </trkpt>
      <trkpt lat="43.600179003551602" lon="6.451455987989903">
        <ele>526.94000000000005</ele>
        <time>2025-05-18T10:37:59Z</time>
      </trkpt>
      <trkpt lat="43.600144973024726" lon="6.451570987701416">
        <ele>526.46000000000004</ele>
        <time>2025-05-18T10:38:00Z</time>
      </trkpt>
      <trkpt lat="43.600035002455115" lon="6.451655980199575">
        <ele>525.98000000000002</ele>
        <time>2025-05-18T10:38:01Z</time>
      </trkpt>
      <trkpt lat="43.599952021613717" lon="6.451721023768187">
        <ele>525.5</ele>
        <time>2025-05-18T10:38:02Z</time>
      </trkpt>
      <trkpt lat="43.599881026893854" lon="6.451677018776536">
        <ele>524.53999999999996</ele>
        <time>2025-05-18T10:38:03Z</time>
      </trkpt>
      <trkpt lat="43.599780024960637" lon="6.451613986864686">
        <ele>524.05999999999995</ele>
        <time>2025-05-18T10:38:04Z</time>
      </trkpt>
      <trkpt lat="43.599725039675832" lon="6.45151399075985">
        <ele>523.09000000000003</ele>
        <time>2025-05-18T10:38:05Z</time>
      </trkpt>
      <trkpt lat="43.599647004157305" lon="6.451375018805265">
        <ele>522.13</ele>
        <time>2025-05-18T10:38:06Z</time>
      </trkpt>
      <trkpt lat="43.599566034972668" lon="6.451228000223637">
        <ele>521.64999999999998</ele>
        <time>2025-05-18T10:38:07Z</time>
      </trkpt>
      <trkpt lat="43.59950702637434" lon="6.45110696554184">
        <ele>521.16999999999996</ele>
        <time>2025-05-18T10:38:08Z</time>
      </trkpt>
      <trkpt lat="43.599448017776012" lon="6.450984003022313">
        <ele>520.69000000000005</ele>
        <time>2025-05-18T10:38:09Z</time>
      </trkpt>
      <trkpt lat="43.599252970889211" lon="6.450587036088109">
        <ele>518.76999999999998</ele>
        <time>2025-05-18T10:38:13Z</time>
      </trkpt>
      <trkpt lat="43.599203014746308" lon="6.450501959770918">
        <ele>517.80999999999995</ele>
        <time>2025-05-18T10:38:14Z</time>
      </trkpt>
      <trkpt lat="43.599158003926277" lon="6.450414033606648">
        <ele>516.85000000000002</ele>
        <time>2025-05-18T10:38:15Z</time>
      </trkpt>
      <trkpt lat="43.599116010591388" lon="6.450329041108489">
        <ele>516.37</ele>
        <time>2025-05-18T10:38:16Z</time>
      </trkpt>
      <trkpt lat="43.599072005599737" lon="6.450241031125188">
        <ele>515.39999999999998</ele>
        <time>2025-05-18T10:38:17Z</time>
      </trkpt>
      <trkpt lat="43.599030012264848" lon="6.450156960636377">
        <ele>514.91999999999996</ele>
        <time>2025-05-18T10:38:18Z</time>
      </trkpt>
      <trkpt lat="43.598874025046825" lon="6.449893014505506">
        <ele>513.48000000000002</ele>
        <time>2025-05-18T10:38:21Z</time>
      </trkpt>
      <trkpt lat="43.598790960386395" lon="6.449811039492488">
        <ele>513.48000000000002</ele>
        <time>2025-05-18T10:38:22Z</time>
      </trkpt>
      <trkpt lat="43.598709991201758" lon="6.449798969551921">
        <ele>513</ele>
        <time>2025-05-18T10:38:23Z</time>
      </trkpt>
      <trkpt lat="43.598623992875218" lon="6.449785977602005">
        <ele>513</ele>
        <time>2025-05-18T10:38:24Z</time>
      </trkpt>
      <trkpt lat="43.598530031740665" lon="6.449770973995328">
        <ele>512.51999999999998</ele>
        <time>2025-05-18T10:38:25Z</time>
      </trkpt>
      <trkpt lat="43.598258038982749" lon="6.449757982045412">
        <ele>511.56</ele>
        <time>2025-05-18T10:38:28Z</time>
      </trkpt>
      <trkpt lat="43.598170028999448" lon="6.44975395873189">
        <ele>511.56</ele>
        <time>2025-05-18T10:38:29Z</time>
      </trkpt>
      <trkpt lat="43.598088975995779" lon="6.449750019237399">
        <ele>511.07999999999998</ele>
        <time>2025-05-18T10:38:30Z</time>
      </trkpt>
      <trkpt lat="43.598020998761058" lon="6.449747001752257">
        <ele>510.60000000000002</ele>
        <time>2025-05-18T10:38:31Z</time>
      </trkpt>
      <trkpt lat="43.59796098433435" lon="6.44981699064374">
        <ele>510.12</ele>
        <time>2025-05-18T10:38:32Z</time>
      </trkpt>
      <trkpt lat="43.597900969907641" lon="6.449888991191983">
        <ele>509.63999999999999</ele>
        <time>2025-05-18T10:38:33Z</time>
      </trkpt>
      <trkpt lat="43.597838021814823" lon="6.449961997568607">
        <ele>509.16000000000003</ele>
        <time>2025-05-18T10:38:34Z</time>
      </trkpt>
      <trkpt lat="43.597712963819504" lon="6.450110021978617">
        <ele>508.19</ele>
        <time>2025-05-18T10:38:36Z</time>
      </trkpt>
      <trkpt lat="43.597528981044888" lon="6.45028998143971">
        <ele>507.70999999999998</ele>
        <time>2025-05-18T10:38:39Z</time>
      </trkpt>
      <trkpt lat="43.597469972446561" lon="6.450343038886786">
        <ele>507.23000000000002</ele>
        <time>2025-05-18T10:38:40Z</time>
      </trkpt>
      <trkpt lat="43.59740300104022" lon="6.450366005301476">
        <ele>507.23000000000002</ele>
        <time>2025-05-18T10:38:41Z</time>
      </trkpt>
      <trkpt lat="43.597324965521693" lon="6.450357958674431">
        <ele>507.23000000000002</ele>
        <time>2025-05-18T10:38:42Z</time>
      </trkpt>
      <trkpt lat="43.597243996337056" lon="6.450349995866418">
        <ele>506.75</ele>
        <time>2025-05-18T10:38:43Z</time>
      </trkpt>
      <trkpt lat="43.5971640329808" lon="6.450323006138206">
        <ele>506.75</ele>
        <time>2025-05-18T10:38:44Z</time>
      </trkpt>
      <trkpt lat="43.597073005512357" lon="6.45028998143971">
        <ele>506.26999999999998</ele>
        <time>2025-05-18T10:38:45Z</time>
      </trkpt>
      <trkpt lat="43.596991030499339" lon="6.450261985883117">
        <ele>505.79000000000002</ele>
        <time>2025-05-18T10:38:46Z</time>
      </trkpt>
      <trkpt lat="43.596890028566122" lon="6.450254023075104">
        <ele>505.31</ele>
        <time>2025-05-18T10:38:47Z</time>
      </trkpt>
      <trkpt lat="43.596793971955776" lon="6.45024698227644">
        <ele>505.31</ele>
        <time>2025-05-18T10:38:48Z</time>
      </trkpt>
      <trkpt lat="43.596699004992843" lon="6.450242036953569">
        <ele>504.82999999999998</ele>
        <time>2025-05-18T10:38:49Z</time>
      </trkpt>
      <trkpt lat="43.596603032201529" lon="6.450256034731865">
        <ele>504.35000000000002</ele>
        <time>2025-05-18T10:38:50Z</time>
      </trkpt>
      <trkpt lat="43.596508987247944" lon="6.450280006974936">
        <ele>503.87</ele>
        <time>2025-05-18T10:38:51Z</time>
      </trkpt>
      <trkpt lat="43.596323998644948" lon="6.450345972552896">
        <ele>502.43000000000001</ele>
        <time>2025-05-18T10:38:53Z</time>
      </trkpt>
      <trkpt lat="43.596232971176505" lon="6.450377991423011">
        <ele>501.94999999999999</ele>
        <time>2025-05-18T10:38:54Z</time>
      </trkpt>
      <trkpt lat="43.596152001991868" lon="6.450434988364577">
        <ele>501.45999999999998</ele>
        <time>2025-05-18T10:38:55Z</time>
      </trkpt>
      <trkpt lat="43.59607002697885" lon="6.450516963377595">
        <ele>500.98000000000002</ele>
        <time>2025-05-18T10:38:56Z</time>
      </trkpt>
      <trkpt lat="43.595986040309072" lon="6.450601033866406">
        <ele>500.5</ele>
        <time>2025-05-18T10:38:57Z</time>
      </trkpt>
      <trkpt lat="43.595755035057664" lon="6.450871014967561">
        <ele>498.10000000000002</ele>
        <time>2025-05-18T10:39:00Z</time>
      </trkpt>
      <trkpt lat="43.595634000375867" lon="6.451051980257034">
        <ele>496.66000000000003</ele>
        <time>2025-05-18T10:39:02Z</time>
      </trkpt>
      <trkpt lat="43.595537021756172" lon="6.451281979680061">
        <ele>494.74000000000001</ele>
        <time>2025-05-18T10:39:04Z</time>
      </trkpt>
      <trkpt lat="43.595492010936141" lon="6.451397985219955">
        <ele>493.29000000000002</ele>
        <time>2025-05-18T10:39:05Z</time>
      </trkpt>
      <trkpt lat="43.59544700011611" lon="6.451511979103088">
        <ele>492.32999999999998</ele>
        <time>2025-05-18T10:39:06Z</time>
      </trkpt>
      <trkpt lat="43.59542403370142" lon="6.451570987701416">
        <ele>491.37</ele>
        <time>2025-05-18T10:39:07Z</time>
      </trkpt>
      <trkpt lat="43.595431996509433" lon="6.45170602016151">
        <ele>489.93000000000001</ele>
        <time>2025-05-18T10:39:08Z</time>
      </trkpt>
      <trkpt lat="43.595439037308097" lon="6.451820014044642">
        <ele>488.49000000000001</ele>
        <time>2025-05-18T10:39:09Z</time>
      </trkpt>
      <trkpt lat="43.595445994287729" lon="6.451936019584537">
        <ele>487.05000000000001</ele>
        <time>2025-05-18T10:39:10Z</time>
      </trkpt>
      <trkpt lat="43.595445994287729" lon="6.452067028731108">
        <ele>486.07999999999998</ele>
        <time>2025-05-18T10:39:11Z</time>
      </trkpt>
      <trkpt lat="43.59542797319591" lon="6.452193008735776">
        <ele>485.12</ele>
        <time>2025-05-18T10:39:12Z</time>
      </trkpt>
      <trkpt lat="43.595378017053008" lon="6.452314965426922">
        <ele>484.16000000000003</ele>
        <time>2025-05-18T10:39:13Z</time>
      </trkpt>
      <trkpt lat="43.595325965434313" lon="6.452442035079002">
        <ele>483.19999999999999</ele>
        <time>2025-05-18T10:39:14Z</time>
      </trkpt>
      <trkpt lat="43.59527600929141" lon="6.452563991770148">
        <ele>481.75999999999999</ele>
        <time>2025-05-18T10:39:15Z</time>
      </trkpt>
      <trkpt lat="43.595234015956521" lon="6.452698018401861">
        <ele>480.80000000000001</ele>
        <time>2025-05-18T10:39:16Z</time>
      </trkpt>
      <trkpt lat="43.595160003751516" lon="6.453009992837906">
        <ele>477.91000000000003</ele>
        <time>2025-05-18T10:39:18Z</time>
      </trkpt>
      <trkpt lat="43.595119016245008" lon="6.453175032511354">
        <ele>476.47000000000003</ele>
        <time>2025-05-18T10:39:19Z</time>
      </trkpt>
      <trkpt lat="43.595027988776565" lon="6.453494969755411">
        <ele>474.06999999999999</ele>
        <time>2025-05-18T10:39:21Z</time>
      </trkpt>
      <trkpt lat="43.594983983784914" lon="6.453650034964085">
        <ele>473.11000000000001</ele>
        <time>2025-05-18T10:39:22Z</time>
      </trkpt>
      <trkpt lat="43.594948025420308" lon="6.453809961676598">
        <ele>471.66000000000003</ele>
        <time>2025-05-18T10:39:23Z</time>
      </trkpt>
      <trkpt lat="43.594925981014967" lon="6.454111961647868">
        <ele>470.22000000000003</ele>
        <time>2025-05-18T10:39:25Z</time>
      </trkpt>
      <trkpt lat="43.594913994893432" lon="6.454279012978077">
        <ele>469.74000000000001</ele>
        <time>2025-05-18T10:39:26Z</time>
      </trkpt>
      <trkpt lat="43.594922041520476" lon="6.454472970217466">
        <ele>468.77999999999997</ele>
        <time>2025-05-18T10:39:27Z</time>
      </trkpt>
      <trkpt lat="43.594967974349856" lon="6.455261036753655">
        <ele>464.93000000000001</ele>
        <time>2025-05-18T10:39:31Z</time>
      </trkpt>
      <trkpt lat="43.594985995441675" lon="6.455464968457818">
        <ele>463.49000000000001</ele>
        <time>2025-05-18T10:39:32Z</time>
      </trkpt>
      <trkpt lat="43.595036035403609" lon="6.455670995637775">
        <ele>462.05000000000001</ele>
        <time>2025-05-18T10:39:33Z</time>
      </trkpt>
      <trkpt lat="43.595085991546512" lon="6.455880962312222">
        <ele>461.08999999999997</ele>
        <time>2025-05-18T10:39:34Z</time>
      </trkpt>
      <trkpt lat="43.595100995153189" lon="6.456111967563629">
        <ele>459.64999999999998</ele>
        <time>2025-05-18T10:39:35Z</time>
      </trkpt>
      <trkpt lat="43.595097977668047" lon="6.45634800195694">
        <ele>458.20999999999998</ele>
        <time>2025-05-18T10:39:36Z</time>
      </trkpt>
      <trkpt lat="43.595081968232989" lon="6.457955986261368">
        <ele>450.02999999999997</ele>
        <time>2025-05-18T10:39:43Z</time>
      </trkpt>
      <trkpt lat="43.595206020399928" lon="6.4587970264256">
        <ele>444.26999999999998</ele>
        <time>2025-05-18T10:39:47Z</time>
      </trkpt>
      <trkpt lat="43.595259999856353" lon="6.459006993100047">
        <ele>443.31</ele>
        <time>2025-05-18T10:39:48Z</time>
      </trkpt>
      <trkpt lat="43.595542972907424" lon="6.459769997745752">
        <ele>438.98000000000002</ele>
        <time>2025-05-18T10:39:52Z</time>
      </trkpt>
      <trkpt lat="43.595583038404584" lon="6.459949035197496">
        <ele>437.54000000000002</ele>
        <time>2025-05-18T10:39:53Z</time>
      </trkpt>
      <trkpt lat="43.595584966242313" lon="6.460140980780125">
        <ele>436.10000000000002</ele>
        <time>2025-05-18T10:39:54Z</time>
      </trkpt>
      <trkpt lat="43.595548002049327" lon="6.460318006575108">
        <ele>435.13</ele>
        <time>2025-05-18T10:39:55Z</time>
      </trkpt>
      <trkpt lat="43.595511959865689" lon="6.460492014884949">
        <ele>434.17000000000002</ele>
        <time>2025-05-18T10:39:56Z</time>
      </trkpt>
      <trkpt lat="43.595497962087393" lon="6.460680020973086">
        <ele>433.69</ele>
        <time>2025-05-18T10:39:57Z</time>
      </trkpt>
      <trkpt lat="43.595521012321115" lon="6.460872972384095">
        <ele>432.73000000000002</ele>
        <time>2025-05-18T10:39:58Z</time>
      </trkpt>
      <trkpt lat="43.595543978735805" lon="6.461071036756039">
        <ele>432.25</ele>
        <time>2025-05-18T10:39:59Z</time>
      </trkpt>
      <trkpt lat="43.595610028132796" lon="6.461258959025145">
        <ele>431.29000000000002</ele>
        <time>2025-05-18T10:40:00Z</time>
      </trkpt>
      <trkpt lat="43.595689991489053" lon="6.461427016183734">
        <ele>430.32999999999998</ele>
        <time>2025-05-18T10:40:01Z</time>
      </trkpt>
      <trkpt lat="43.59576903283596" lon="6.461590966209769">
        <ele>429.37</ele>
        <time>2025-05-18T10:40:02Z</time>
      </trkpt>
      <trkpt lat="43.59585402533412" lon="6.461727004498243">
        <ele>428.39999999999998</ele>
        <time>2025-05-18T10:40:03Z</time>
      </trkpt>
      <trkpt lat="43.595944968983531" lon="6.461832029744983">
        <ele>427.92000000000002</ele>
        <time>2025-05-18T10:40:04Z</time>
      </trkpt>
      <trkpt lat="43.596072038635612" lon="6.461877962574363">
        <ele>427.44</ele>
        <time>2025-05-18T10:40:05Z</time>
      </trkpt>
      <trkpt lat="43.596187960356474" lon="6.461908975616098">
        <ele>426.95999999999998</ele>
        <time>2025-05-18T10:40:06Z</time>
      </trkpt>
      <trkpt lat="43.596385018900037" lon="6.461977958679199">
        <ele>426</ele>
        <time>2025-05-18T10:40:08Z</time>
      </trkpt>
      <trkpt lat="43.596431035548449" lon="6.462039984762669">
        <ele>426</ele>
        <time>2025-05-18T10:40:09Z</time>
      </trkpt>
      <trkpt lat="43.596419971436262" lon="6.462142998352647">
        <ele>425.51999999999998</ele>
        <time>2025-05-18T10:40:10Z</time>
      </trkpt>
      <trkpt lat="43.596405973657966" lon="6.462249029427767">
        <ele>425.51999999999998</ele>
        <time>2025-05-18T10:40:11Z</time>
      </trkpt>
      <trkpt lat="43.596388958394527" lon="6.462381966412067">
        <ele>425.51999999999998</ele>
        <time>2025-05-18T10:40:12Z</time>
      </trkpt>
      <trkpt lat="43.596216039732099" lon="6.46363103762269">
        <ele>424.07999999999998</ele>
        <time>2025-05-18T10:40:18Z</time>
      </trkpt>
      <trkpt lat="43.595885960385203" lon="6.465625008568168">
        <ele>422.63999999999999</ele>
        <time>2025-05-18T10:40:26Z</time>
      </trkpt>
      <trkpt lat="43.595846984535456" lon="6.465825000777841">
        <ele>422.63999999999999</ele>
        <time>2025-05-18T10:40:27Z</time>
      </trkpt>
      <trkpt lat="43.595810020342469" lon="6.466012001037598">
        <ele>423.12</ele>
        <time>2025-05-18T10:40:28Z</time>
      </trkpt>
      <trkpt lat="43.595736008137465" lon="6.466161031275988">
        <ele>423.12</ele>
        <time>2025-05-18T10:40:29Z</time>
      </trkpt>
      <trkpt lat="43.59566199593246" lon="6.466308971866965">
        <ele>423.12</ele>
        <time>2025-05-18T10:40:30Z</time>
      </trkpt>
      <trkpt lat="43.595570968464017" lon="6.466439981013537">
        <ele>423.60000000000002</ele>
        <time>2025-05-18T10:40:31Z</time>
      </trkpt>
      <trkpt lat="43.594677960500121" lon="6.467384034767747">
        <ele>426</ele>
        <time>2025-05-18T10:40:40Z</time>
      </trkpt>
      <trkpt lat="43.594548963010311" lon="6.467531975358725">
        <ele>426.48000000000002</ele>
        <time>2025-05-18T10:40:42Z</time>
      </trkpt>
      <trkpt lat="43.594508981332183" lon="6.467581009492278">
        <ele>426.95999999999998</ele>
        <time>2025-05-18T10:40:43Z</time>
      </trkpt>
      <trkpt lat="43.594519961625338" lon="6.467679999768734">
        <ele>426.95999999999998</ele>
        <time>2025-05-18T10:40:44Z</time>
      </trkpt>
      <trkpt lat="43.594570001587272" lon="6.467710006982088">
        <ele>427.44</ele>
        <time>2025-05-18T10:40:45Z</time>
      </trkpt>
      <trkpt lat="43.594634039327502" lon="6.467747977003455">
        <ele>427.92000000000002</ele>
        <time>2025-05-18T10:40:46Z</time>
      </trkpt>
      <trkpt lat="43.594705034047365" lon="6.467789970338345">
        <ele>428.39999999999998</ele>
        <time>2025-05-18T10:40:47Z</time>
      </trkpt>
      <trkpt lat="43.595171989873052" lon="6.468106973916292">
        <ele>429.37</ele>
        <time>2025-05-18T10:40:53Z</time>
      </trkpt>
      <trkpt lat="43.59521297737956" lon="6.468152990564704">
        <ele>429.37</ele>
        <time>2025-05-18T10:40:54Z</time>
      </trkpt>
      <trkpt lat="43.595273997634649" lon="6.468221973627806">
        <ele>428.88999999999999</ele>
        <time>2025-05-18T10:40:55Z</time>
      </trkpt>
      <trkpt lat="43.595273997634649" lon="6.468221973627806">
        <ele>428.88999999999999</ele>
        <time>2025-05-18T10:40:56Z</time>
      </trkpt>
      <trkpt lat="43.59521197155118" lon="6.468362035229802">
        <ele>429.37</ele>
        <time>2025-05-18T10:40:57Z</time>
      </trkpt>
      <trkpt lat="43.595156986266375" lon="6.468368992209435">
        <ele>429.37</ele>
        <time>2025-05-18T10:40:58Z</time>
      </trkpt>
      <trkpt lat="43.59508397988975" lon="6.468378966674209">
        <ele>429.85000000000002</ele>
        <time>2025-05-18T10:40:59Z</time>
      </trkpt>
      <trkpt lat="43.594522979110479" lon="6.468565966933966">
        <ele>432.25</ele>
        <time>2025-05-18T10:41:04Z</time>
      </trkpt>
      <trkpt lat="43.594408985227346" lon="6.468650959432125">
        <ele>432.73000000000002</ele>
        <time>2025-05-18T10:41:05Z</time>
      </trkpt>
      <trkpt lat="43.593816971406341" lon="6.469049016013742">
        <ele>435.61000000000001</ele>
        <time>2025-05-18T10:41:09Z</time>
      </trkpt>
      <trkpt lat="43.593650003895164" lon="6.469145994633436">
        <ele>436.10000000000002</ele>
        <time>2025-05-18T10:41:10Z</time>
      </trkpt>
      <trkpt lat="43.593487981706858" lon="6.469191005453467">
        <ele>437.06</ele>
        <time>2025-05-18T10:41:11Z</time>
      </trkpt>
      <trkpt lat="43.593300981447101" lon="6.4691979624331">
        <ele>438.01999999999998</ele>
        <time>2025-05-18T10:41:12Z</time>
      </trkpt>
      <trkpt lat="43.593113981187344" lon="6.469205003231764">
        <ele>438.98000000000002</ele>
        <time>2025-05-18T10:41:13Z</time>
      </trkpt>
      <trkpt lat="43.592935027554631" lon="6.46923802793026">
        <ele>439.94</ele>
        <time>2025-05-18T10:41:14Z</time>
      </trkpt>
      <trkpt lat="43.592806030064821" lon="6.469295024871826">
        <ele>440.42000000000002</ele>
        <time>2025-05-18T10:41:15Z</time>
      </trkpt>
      <trkpt lat="43.592652976512909" lon="6.469452017918229">
        <ele>440.89999999999998</ele>
        <time>2025-05-18T10:41:16Z</time>
      </trkpt>
      <trkpt lat="43.592506963759661" lon="6.469601970165968">
        <ele>441.86000000000001</ele>
        <time>2025-05-18T10:41:17Z</time>
      </trkpt>
      <trkpt lat="43.592348964884877" lon="6.469763992354274">
        <ele>443.31</ele>
        <time>2025-05-18T10:41:18Z</time>
      </trkpt>
      <trkpt lat="43.591295024380088" lon="6.47084902971983">
        <ele>451.48000000000002</ele>
        <time>2025-05-18T10:41:25Z</time>
      </trkpt>
      <trkpt lat="43.591178013011813" lon="6.470870990306139">
        <ele>452.92000000000002</ele>
        <time>2025-05-18T10:41:26Z</time>
      </trkpt>
      <trkpt lat="43.591047003865242" lon="6.470882976427674">
        <ele>453.88</ele>
        <time>2025-05-18T10:41:27Z</time>
      </trkpt>
      <trkpt lat="43.591005010530353" lon="6.470832014456391">
        <ele>454.83999999999997</ele>
        <time>2025-05-18T10:41:28Z</time>
      </trkpt>
      <trkpt lat="43.590939966961741" lon="6.470708968117833">
        <ele>455.80000000000001</ele>
        <time>2025-05-18T10:41:29Z</time>
      </trkpt>
      <trkpt lat="43.590939966961741" lon="6.470577036961913">
        <ele>456.75999999999999</ele>
        <time>2025-05-18T10:41:30Z</time>
      </trkpt>
      <trkpt lat="43.590969974175096" lon="6.470427000895143">
        <ele>457.72000000000003</ele>
        <time>2025-05-18T10:41:31Z</time>
      </trkpt>
      <trkpt lat="43.591054966673255" lon="6.470310995355249">
        <ele>458.69</ele>
        <time>2025-05-18T10:41:32Z</time>
      </trkpt>
      <trkpt lat="43.591151023283601" lon="6.470208987593651">
        <ele>460.13</ele>
        <time>2025-05-18T10:41:33Z</time>
      </trkpt>
      <trkpt lat="43.591251019388437" lon="6.470102034509182">
        <ele>461.08999999999997</ele>
        <time>2025-05-18T10:41:34Z</time>
      </trkpt>
      <trkpt lat="43.591318996623158" lon="6.469971025362611">
        <ele>462.05000000000001</ele>
        <time>2025-05-18T10:41:35Z</time>
      </trkpt>
      <trkpt lat="43.591371970251203" lon="6.469830963760614">
        <ele>463.00999999999999</ele>
        <time>2025-05-18T10:41:36Z</time>
      </trkpt>
      <trkpt lat="43.591397032141685" lon="6.469698026776314">
        <ele>463.97000000000003</ele>
        <time>2025-05-18T10:41:37Z</time>
      </trkpt>
      <trkpt lat="43.591335006058216" lon="6.46958596073091">
        <ele>464.93000000000001</ele>
        <time>2025-05-18T10:41:38Z</time>
      </trkpt>
      <trkpt lat="43.591264011338353" lon="6.469490993767977">
        <ele>465.89999999999998</ele>
        <time>2025-05-18T10:41:39Z</time>
      </trkpt>
      <trkpt lat="43.591184969991446" lon="6.469467021524906">
        <ele>466.86000000000001</ele>
        <time>2025-05-18T10:41:40Z</time>
      </trkpt>
      <trkpt lat="43.591047003865242" lon="6.469467021524906">
        <ele>467.33999999999997</ele>
        <time>2025-05-18T10:41:41Z</time>
      </trkpt>
      <trkpt lat="43.590980032458901" lon="6.46949996240437">
        <ele>468.30000000000001</ele>
        <time>2025-05-18T10:41:42Z</time>
      </trkpt>
      <trkpt lat="43.590875007212162" lon="6.469553019851446">
        <ele>469.25999999999999</ele>
        <time>2025-05-18T10:41:43Z</time>
      </trkpt>
      <trkpt lat="43.59063696116209" lon="6.469789976254106">
        <ele>470.69999999999999</ele>
        <time>2025-05-18T10:41:45Z</time>
      </trkpt>
      <trkpt lat="43.590512992814183" lon="6.469914028421044">
        <ele>471.18000000000001</ele>
        <time>2025-05-18T10:41:46Z</time>
      </trkpt>
      <trkpt lat="43.590360023081303" lon="6.470068003982306">
        <ele>472.13999999999999</ele>
        <time>2025-05-18T10:41:47Z</time>
      </trkpt>
      <trkpt lat="43.590254997834563" lon="6.470213010907173">
        <ele>472.63</ele>
        <time>2025-05-18T10:41:48Z</time>
      </trkpt>
      <trkpt lat="43.590131029486656" lon="6.470384001731873">
        <ele>473.58999999999997</ele>
        <time>2025-05-18T10:41:49Z</time>
      </trkpt>
      <trkpt lat="43.589843027293682" lon="6.470692036673427">
        <ele>475.02999999999997</ele>
        <time>2025-05-18T10:41:51Z</time>
      </trkpt>
      <trkpt lat="43.589069964364171" lon="6.471406007185578">
        <ele>480.80000000000001</ele>
        <time>2025-05-18T10:41:56Z</time>
      </trkpt>
      <trkpt lat="43.588950019329786" lon="6.471578003838658">
        <ele>481.75999999999999</ele>
        <time>2025-05-18T10:41:57Z</time>
      </trkpt>
      <trkpt lat="43.588838037103415" lon="6.471759974956513">
        <ele>483.19999999999999</ele>
        <time>2025-05-18T10:41:58Z</time>
      </trkpt>
      <trkpt lat="43.58865799382329" lon="6.472086030989885">
        <ele>485.12</ele>
        <time>2025-05-18T10:42:00Z</time>
      </trkpt>
      <trkpt lat="43.588634021580219" lon="6.472228020429611">
        <ele>485.60000000000002</ele>
        <time>2025-05-18T10:42:01Z</time>
      </trkpt>
      <trkpt lat="43.588633015751839" lon="6.47231200709939">
        <ele>486.56</ele>
        <time>2025-05-18T10:42:02Z</time>
      </trkpt>
      <trkpt lat="43.588695041835308" lon="6.472387025132775">
        <ele>487.05000000000001</ele>
        <time>2025-05-18T10:42:03Z</time>
      </trkpt>
      <trkpt lat="43.588781040161848" lon="6.472451984882355">
        <ele>488.00999999999999</ele>
        <time>2025-05-18T10:42:04Z</time>
      </trkpt>
      <trkpt lat="43.588899979367852" lon="6.47250697016716">
        <ele>488.49000000000001</ele>
        <time>2025-05-18T10:42:05Z</time>
      </trkpt>
      <trkpt lat="43.589025037363172" lon="6.472565978765488">
        <ele>488.97000000000003</ele>
        <time>2025-05-18T10:42:06Z</time>
      </trkpt>
      <trkpt lat="43.589114975184202" lon="6.472674021497369">
        <ele>489.44999999999999</ele>
        <time>2025-05-18T10:42:07Z</time>
      </trkpt>
      <trkpt lat="43.589188987389207" lon="6.47278499789536">
        <ele>490.41000000000003</ele>
        <time>2025-05-18T10:42:08Z</time>
      </trkpt>
      <trkpt lat="43.589223017916083" lon="6.472935033962131">
        <ele>491.37</ele>
        <time>2025-05-18T10:42:09Z</time>
      </trkpt>
      <trkpt lat="43.589202985167503" lon="6.473103007301688">
        <ele>491.85000000000002</ele>
        <time>2025-05-18T10:42:10Z</time>
      </trkpt>
      <trkpt lat="43.589145988225937" lon="6.473251031711698">
        <ele>493.29000000000002</ele>
        <time>2025-05-18T10:42:11Z</time>
      </trkpt>
      <trkpt lat="43.589086979627609" lon="6.47340701892972">
        <ele>493.76999999999998</ele>
        <time>2025-05-18T10:42:12Z</time>
      </trkpt>
      <trkpt lat="43.588493037968874" lon="6.474766982719302">
        <ele>497.13999999999999</ele>
        <time>2025-05-18T10:42:19Z</time>
      </trkpt>
      <trkpt lat="43.588058017194271" lon="6.476069027557969">
        <ele>495.69999999999999</ele>
        <time>2025-05-18T10:42:25Z</time>
      </trkpt>
      <trkpt lat="43.588024992495775" lon="6.476292992010713">
        <ele>494.74000000000001</ele>
        <time>2025-05-18T10:42:26Z</time>
      </trkpt>
      <trkpt lat="43.58797000721097" lon="6.476675039157271">
        <ele>493.76999999999998</ele>
        <time>2025-05-18T10:42:28Z</time>
      </trkpt>
      <trkpt lat="43.587931031361222" lon="6.476819962263107">
        <ele>492.81</ele>
        <time>2025-05-18T10:42:29Z</time>
      </trkpt>
      <trkpt lat="43.587888032197952" lon="6.476918030530214">
        <ele>492.32999999999998</ele>
        <time>2025-05-18T10:42:30Z</time>
      </trkpt>
      <trkpt lat="43.587823994457722" lon="6.476987013593316">
        <ele>491.85000000000002</ele>
        <time>2025-05-18T10:42:31Z</time>
      </trkpt>
      <trkpt lat="43.587760962545872" lon="6.477028001099825">
        <ele>491.85000000000002</ele>
        <time>2025-05-18T10:42:32Z</time>
      </trkpt>
      <trkpt lat="43.587673958390951" lon="6.476981984451413">
        <ele>491.37</ele>
        <time>2025-05-18T10:42:33Z</time>
      </trkpt>
      <trkpt lat="43.587571028620005" lon="6.476891040802002">
        <ele>490.88999999999999</ele>
        <time>2025-05-18T10:42:34Z</time>
      </trkpt>
      <trkpt lat="43.587516965344548" lon="6.47680202499032">
        <ele>490.41000000000003</ele>
        <time>2025-05-18T10:42:35Z</time>
      </trkpt>
      <trkpt lat="43.587430967018008" lon="6.476661963388324">
        <ele>489.93000000000001</ele>
        <time>2025-05-18T10:42:36Z</time>
      </trkpt>
      <trkpt lat="43.587338011711836" lon="6.476508993655443">
        <ele>489.44999999999999</ele>
        <time>2025-05-18T10:42:37Z</time>
      </trkpt>
      <trkpt lat="43.587224017828703" lon="6.476364992558956">
        <ele>488.49000000000001</ele>
        <time>2025-05-18T10:42:38Z</time>
      </trkpt>
      <trkpt lat="43.587081022560596" lon="6.476263990625739">
        <ele>488.00999999999999</ele>
        <time>2025-05-18T10:42:39Z</time>
      </trkpt>
      <trkpt lat="43.586928974837065" lon="6.47615703754127">
        <ele>487.05000000000001</ele>
        <time>2025-05-18T10:42:40Z</time>
      </trkpt>
      <trkpt lat="43.586747003719211" lon="6.476097023114562">
        <ele>486.56</ele>
        <time>2025-05-18T10:42:41Z</time>
      </trkpt>
      <trkpt lat="43.586565032601357" lon="6.476046983152628">
        <ele>486.07999999999998</ele>
        <time>2025-05-18T10:42:42Z</time>
      </trkpt>
      <trkpt lat="43.58638096600771" lon="6.475997027009726">
        <ele>485.12</ele>
        <time>2025-05-18T10:42:43Z</time>
      </trkpt>
      <trkpt lat="43.586191032081842" lon="6.475947992876172">
        <ele>484.16000000000003</ele>
        <time>2025-05-18T10:42:44Z</time>
      </trkpt>
      <trkpt lat="43.58601400628686" lon="6.475972970947623">
        <ele>483.19999999999999</ele>
        <time>2025-05-18T10:42:45Z</time>
      </trkpt>
      <trkpt lat="43.585835974663496" lon="6.475998032838106">
        <ele>482.72000000000003</ele>
        <time>2025-05-18T10:42:46Z</time>
      </trkpt>
      <trkpt lat="43.585646962746978" lon="6.475995015352964">
        <ele>481.27999999999997</ele>
        <time>2025-05-18T10:42:47Z</time>
      </trkpt>
      <trkpt lat="43.585453005507588" lon="6.475962996482849">
        <ele>480.31999999999999</ele>
        <time>2025-05-18T10:42:48Z</time>
      </trkpt>
      <trkpt lat="43.58526399359107" lon="6.475930977612734">
        <ele>479.35000000000002</ele>
        <time>2025-05-18T10:42:49Z</time>
      </trkpt>
      <trkpt lat="43.585081016644835" lon="6.475909017026424">
        <ele>478.38999999999999</ele>
        <time>2025-05-18T10:42:50Z</time>
      </trkpt>
      <trkpt lat="43.584895022213459" lon="6.475955033674836">
        <ele>476.94999999999999</ele>
        <time>2025-05-18T10:42:51Z</time>
      </trkpt>
      <trkpt lat="43.584712967276573" lon="6.476054023951292">
        <ele>475.50999999999999</ele>
        <time>2025-05-18T10:42:52Z</time>
      </trkpt>
      <trkpt lat="43.584524039179087" lon="6.47615603171289">
        <ele>474.06999999999999</ele>
        <time>2025-05-18T10:42:53Z</time>
      </trkpt>
      <trkpt lat="43.583773020654917" lon="6.476528020575643">
        <ele>468.77999999999997</ele>
        <time>2025-05-18T10:42:57Z</time>
      </trkpt>
      <trkpt lat="43.583617033436894" lon="6.476660035550594">
        <ele>467.33999999999997</ele>
        <time>2025-05-18T10:42:58Z</time>
      </trkpt>
      <trkpt lat="43.583487030118704" lon="6.476828008890152">
        <ele>465.89999999999998</ele>
        <time>2025-05-18T10:42:59Z</time>
      </trkpt>
      <trkpt lat="43.583370018750429" lon="6.477021966129541">
        <ele>464.44999999999999</ele>
        <time>2025-05-18T10:43:00Z</time>
      </trkpt>
      <trkpt lat="43.583246972411871" lon="6.477228999137878">
        <ele>463.00999999999999</ele>
        <time>2025-05-18T10:43:01Z</time>
      </trkpt>
      <trkpt lat="43.5831159632653" lon="6.477432008832693">
        <ele>461.56999999999999</ele>
        <time>2025-05-18T10:43:02Z</time>
      </trkpt>
      <trkpt lat="43.582726959139109" lon="6.478046989068389">
        <ele>457.24000000000001</ele>
        <time>2025-05-18T10:43:05Z</time>
      </trkpt>
      <trkpt lat="43.582286993041635" lon="6.479096990078688">
        <ele>450.51999999999998</ele>
        <time>2025-05-18T10:43:09Z</time>
      </trkpt>
      <trkpt lat="43.582198983058333" lon="6.47937904112041">
        <ele>449.06999999999999</ele>
        <time>2025-05-18T10:43:10Z</time>
      </trkpt>
      <trkpt lat="43.581931013613939" lon="6.480171969160438">
        <ele>443.31</ele>
        <time>2025-05-18T10:43:13Z</time>
      </trkpt>
      <trkpt lat="43.581797992810607" lon="6.480383025482297">
        <ele>441.86000000000001</ele>
        <time>2025-05-18T10:43:14Z</time>
      </trkpt>
      <trkpt lat="43.581549972295761" lon="6.480846041813493">
        <ele>438.5</ele>
        <time>2025-05-18T10:43:16Z</time>
      </trkpt>
      <trkpt lat="43.581455005332828" lon="6.481114011257887">
        <ele>437.06</ele>
        <time>2025-05-18T10:43:17Z</time>
      </trkpt>
      <trkpt lat="43.581355009227991" lon="6.481388015672565">
        <ele>435.13</ele>
        <time>2025-05-18T10:43:18Z</time>
      </trkpt>
      <trkpt lat="43.580627962946892" lon="6.48329003714025">
        <ele>423.60000000000002</ele>
        <time>2025-05-18T10:43:25Z</time>
      </trkpt>
      <trkpt lat="43.580550011247396" lon="6.483566975221038">
        <ele>422.16000000000003</ele>
        <time>2025-05-18T10:43:26Z</time>
      </trkpt>
      <trkpt lat="43.580466024577618" lon="6.483838967978954">
        <ele>421.19</ele>
        <time>2025-05-18T10:43:27Z</time>
      </trkpt>
      <trkpt lat="43.58036401681602" lon="6.484096040949225">
        <ele>419.75</ele>
        <time>2025-05-18T10:43:28Z</time>
      </trkpt>
      <trkpt lat="43.580263014882803" lon="6.484352024272084">
        <ele>418.31</ele>
        <time>2025-05-18T10:43:29Z</time>
      </trkpt>
      <trkpt lat="43.580162012949586" lon="6.484607001766563">
        <ele>416.87</ele>
        <time>2025-05-18T10:43:30Z</time>
      </trkpt>
      <trkpt lat="43.580090012401342" lon="6.484875977039337">
        <ele>415.91000000000003</ele>
        <time>2025-05-18T10:43:31Z</time>
      </trkpt>
      <trkpt lat="43.57993402518332" lon="6.485646022483707">
        <ele>411.10000000000002</ele>
        <time>2025-05-18T10:43:34Z</time>
      </trkpt>
      <trkpt lat="43.579940982162952" lon="6.485898988321424">
        <ele>410.13999999999999</ele>
        <time>2025-05-18T10:43:35Z</time>
      </trkpt>
      <trkpt lat="43.579945005476475" lon="6.486400980502367">
        <ele>407.74000000000001</ele>
        <time>2025-05-18T10:43:37Z</time>
      </trkpt>
      <trkpt lat="43.579916004091501" lon="6.486633997410536">
        <ele>406.76999999999998</ele>
        <time>2025-05-18T10:43:38Z</time>
      </trkpt>
      <trkpt lat="43.579840986058116" lon="6.486841030418873">
        <ele>405.81</ele>
        <time>2025-05-18T10:43:39Z</time>
      </trkpt>
      <trkpt lat="43.579759011045098" lon="6.487038005143404">
        <ele>404.85000000000002</ele>
        <time>2025-05-18T10:43:40Z</time>
      </trkpt>
      <trkpt lat="43.579690027981997" lon="6.48724302649498">
        <ele>403.41000000000003</ele>
        <time>2025-05-18T10:43:41Z</time>
      </trkpt>
      <trkpt lat="43.579666977748275" lon="6.487463973462582">
        <ele>402.44999999999999</ele>
        <time>2025-05-18T10:43:42Z</time>
      </trkpt>
      <trkpt lat="43.579643005505204" lon="6.487702019512653">
        <ele>401.00999999999999</ele>
        <time>2025-05-18T10:43:43Z</time>
      </trkpt>
      <trkpt lat="43.579574022442102" lon="6.488372990861535">
        <ele>398.12</ele>
        <time>2025-05-18T10:43:46Z</time>
      </trkpt>
      <trkpt lat="43.579514008015394" lon="6.488540964201093">
        <ele>397.63999999999999</ele>
        <time>2025-05-18T10:43:47Z</time>
      </trkpt>
      <trkpt lat="43.579480983316898" lon="6.488607013598084">
        <ele>396.68000000000001</ele>
        <time>2025-05-18T10:43:48Z</time>
      </trkpt>
      <trkpt lat="43.579380987212062" lon="6.488689994439483">
        <ele>395.72000000000003</ele>
        <time>2025-05-18T10:43:49Z</time>
      </trkpt>
      <trkpt lat="43.579314015805721" lon="6.488713966682553">
        <ele>395.24000000000001</ele>
        <time>2025-05-18T10:43:50Z</time>
      </trkpt>
      <trkpt lat="43.579232040792704" lon="6.488713966682553">
        <ele>394.27999999999997</ele>
        <time>2025-05-18T10:43:51Z</time>
      </trkpt>
      <trkpt lat="43.579158028587699" lon="6.488648001104593">
        <ele>393.31999999999999</ele>
        <time>2025-05-18T10:43:52Z</time>
      </trkpt>
      <trkpt lat="43.579093990847468" lon="6.488552028313279">
        <ele>393.31999999999999</ele>
        <time>2025-05-18T10:43:53Z</time>
      </trkpt>
      <trkpt lat="43.579068006947637" lon="6.488431999459863">
        <ele>393.31999999999999</ele>
        <time>2025-05-18T10:43:54Z</time>
      </trkpt>
      <trkpt lat="43.579051997512579" lon="6.488198982551694">
        <ele>392.83999999999997</ele>
        <time>2025-05-18T10:43:55Z</time>
      </trkpt>
      <trkpt lat="43.579080998897552" lon="6.488075014203787">
        <ele>392.83999999999997</ele>
        <time>2025-05-18T10:43:56Z</time>
      </trkpt>
      <trkpt lat="43.579125003889203" lon="6.487880973145366">
        <ele>392.36000000000001</ele>
        <time>2025-05-18T10:43:57Z</time>
      </trkpt>
      <trkpt lat="43.579212008044124" lon="6.487492974847555">
        <ele>391.38999999999999</ele>
        <time>2025-05-18T10:43:59Z</time>
      </trkpt>
      <trkpt lat="43.579250983893871" lon="6.487307986244559">
        <ele>390.91000000000003</ele>
        <time>2025-05-18T10:44:00Z</time>
      </trkpt>
      <trkpt lat="43.579254001379013" lon="6.487144036218524">
        <ele>390.43000000000001</ele>
        <time>2025-05-18T10:44:01Z</time>
      </trkpt>
      <trkpt lat="43.579212008044124" lon="6.486997017636895">
        <ele>390.43000000000001</ele>
        <time>2025-05-18T10:44:02Z</time>
      </trkpt>
      <trkpt lat="43.579158028587699" lon="6.486857961863279">
        <ele>389.47000000000003</ele>
        <time>2025-05-18T10:44:03Z</time>
      </trkpt>
      <trkpt lat="43.57907303608954" lon="6.486746985465288">
        <ele>388.99000000000001</ele>
        <time>2025-05-18T10:44:04Z</time>
      </trkpt>
      <trkpt lat="43.578972034156322" lon="6.486656963825226">
        <ele>388.50999999999999</ele>
        <time>2025-05-18T10:44:05Z</time>
      </trkpt>
      <trkpt lat="43.578849993646145" lon="6.48662100546062">
        <ele>387.55000000000001</ele>
        <time>2025-05-18T10:44:06Z</time>
      </trkpt>
      <trkpt lat="43.57873298227787" lon="6.486628968268633">
        <ele>387.06999999999999</ele>
        <time>2025-05-18T10:44:07Z</time>
      </trkpt>
      <trkpt lat="43.57862301170826" lon="6.486675990745425">
        <ele>386.11000000000001</ele>
        <time>2025-05-18T10:44:08Z</time>
      </trkpt>
      <trkpt lat="43.578521003946662" lon="6.486800964921713">
        <ele>385.14999999999998</ele>
        <time>2025-05-18T10:44:09Z</time>
      </trkpt>
      <trkpt lat="43.578415978699923" lon="6.486943038180471">
        <ele>384.18000000000001</ele>
        <time>2025-05-18T10:44:10Z</time>
      </trkpt>
      <trkpt lat="43.578337021172047" lon="6.48711696267128">
        <ele>382.74000000000001</ele>
        <time>2025-05-18T10:44:11Z</time>
      </trkpt>
      <trkpt lat="43.578283041715622" lon="6.487303962931037">
        <ele>381.77999999999997</ele>
        <time>2025-05-18T10:44:12Z</time>
      </trkpt>
      <trkpt lat="43.578231995925307" lon="6.48750202730298">
        <ele>380.81999999999999</ele>
        <time>2025-05-18T10:44:13Z</time>
      </trkpt>
      <trkpt lat="43.57808698900044" lon="6.488122036680579">
        <ele>378.42000000000002</ele>
        <time>2025-05-18T10:44:16Z</time>
      </trkpt>
      <trkpt lat="43.578067040070891" lon="6.488333009183407">
        <ele>377.94</ele>
        <time>2025-05-18T10:44:17Z</time>
      </trkpt>
      <trkpt lat="43.578075002878904" lon="6.488558985292912">
        <ele>377.94</ele>
        <time>2025-05-18T10:44:18Z</time>
      </trkpt>
      <trkpt lat="43.578082965686917" lon="6.488799965009093">
        <ele>377.94</ele>
        <time>2025-05-18T10:44:19Z</time>
      </trkpt>
      <trkpt lat="43.578095035627484" lon="6.489055026322603">
        <ele>377.44999999999999</ele>
        <time>2025-05-18T10:44:20Z</time>
      </trkpt>
      <trkpt lat="43.578328974545002" lon="6.491338005289435">
        <ele>375.05000000000001</ele>
        <time>2025-05-18T10:44:28Z</time>
      </trkpt>
      <trkpt lat="43.578386977314949" lon="6.492900978773832">
        <ele>374.56999999999999</ele>
        <time>2025-05-18T10:44:33Z</time>
      </trkpt>
      <trkpt lat="43.578069973737001" lon="6.494394969195128">
        <ele>375.52999999999997</ele>
        <time>2025-05-18T10:44:38Z</time>
      </trkpt>
      <trkpt lat="43.577946005389094" lon="6.494660004973412">
        <ele>375.52999999999997</ele>
        <time>2025-05-18T10:44:39Z</time>
      </trkpt>
      <trkpt lat="43.577823964878917" lon="6.494920011609793">
        <ele>375.52999999999997</ele>
        <time>2025-05-18T10:44:40Z</time>
      </trkpt>
      <trkpt lat="43.577675018459558" lon="6.495152022689581">
        <ele>375.05000000000001</ele>
        <time>2025-05-18T10:44:41Z</time>
      </trkpt>
      <trkpt lat="43.577510984614491" lon="6.495372969657183">
        <ele>374.56999999999999</ele>
        <time>2025-05-18T10:44:42Z</time>
      </trkpt>
      <trkpt lat="43.577334964647889" lon="6.4955810084939">
        <ele>373.61000000000001</ele>
        <time>2025-05-18T10:44:43Z</time>
      </trkpt>
      <trkpt lat="43.577145030722022" lon="6.49577303789556">
        <ele>372.64999999999998</ele>
        <time>2025-05-18T10:44:44Z</time>
      </trkpt>
      <trkpt lat="43.576954007148743" lon="6.49596699513495">
        <ele>371.69</ele>
        <time>2025-05-18T10:44:45Z</time>
      </trkpt>
      <trkpt lat="43.575292965397239" lon="6.497643040493131">
        <ele>358.70999999999998</ele>
        <time>2025-05-18T10:44:53Z</time>
      </trkpt>
      <trkpt lat="43.574737999588251" lon="6.498304037377238">
        <ele>353.42000000000002</ele>
        <time>2025-05-18T10:44:56Z</time>
      </trkpt>
      <trkpt lat="43.574602967128158" lon="6.498560020700097">
        <ele>351.5</ele>
        <time>2025-05-18T10:44:57Z</time>
      </trkpt>
      <trkpt lat="43.574504982680082" lon="6.498822038993239">
        <ele>350.06</ele>
        <time>2025-05-18T10:44:58Z</time>
      </trkpt>
      <trkpt lat="43.574418984353542" lon="6.499084979295731">
        <ele>348.62</ele>
        <time>2025-05-18T10:44:59Z</time>
      </trkpt>
      <trkpt lat="43.574330974370241" lon="6.499356972053647">
        <ele>347.17000000000002</ele>
        <time>2025-05-18T10:45:00Z</time>
      </trkpt>
      <trkpt lat="43.574299961328506" lon="6.499607004225254">
        <ele>345.73000000000002</ele>
        <time>2025-05-18T10:45:01Z</time>
      </trkpt>
      <trkpt lat="43.574267020449042" lon="6.499873967841268">
        <ele>344.29000000000002</ele>
        <time>2025-05-18T10:45:02Z</time>
      </trkpt>
      <trkpt lat="43.574232989922166" lon="6.500141015276313">
        <ele>342.85000000000002</ele>
        <time>2025-05-18T10:45:03Z</time>
      </trkpt>
      <trkpt lat="43.574168030172586" lon="6.500667985528708">
        <ele>339.95999999999998</ele>
        <time>2025-05-18T10:45:05Z</time>
      </trkpt>
      <trkpt lat="43.573967032134533" lon="6.502643013373017">
        <ele>330.35000000000002</ele>
        <time>2025-05-18T10:45:12Z</time>
      </trkpt>
      <trkpt lat="43.573792017996311" lon="6.504057962447405">
        <ele>322.66000000000003</ele>
        <time>2025-05-18T10:45:17Z</time>
      </trkpt>
      <trkpt lat="43.573735021054745" lon="6.504289973527193">
        <ele>321.22000000000003</ele>
        <time>2025-05-18T10:45:18Z</time>
      </trkpt>
      <trkpt lat="43.573623038828373" lon="6.504506981000304">
        <ele>319.77999999999997</ele>
        <time>2025-05-18T10:45:19Z</time>
      </trkpt>
      <trkpt lat="43.573496975004673" lon="6.504661962389946">
        <ele>317.85000000000002</ele>
        <time>2025-05-18T10:45:20Z</time>
      </trkpt>
      <trkpt lat="43.573329001665115" lon="6.504768999293447">
        <ele>316.41000000000003</ele>
        <time>2025-05-18T10:45:21Z</time>
      </trkpt>
      <trkpt lat="43.573149964213371" lon="6.504848040640354">
        <ele>314.97000000000003</ele>
        <time>2025-05-18T10:45:22Z</time>
      </trkpt>
      <trkpt lat="43.572964975610375" lon="6.504924986511469">
        <ele>313.52999999999997</ele>
        <time>2025-05-18T10:45:23Z</time>
      </trkpt>
      <trkpt lat="43.57277998700738" lon="6.505001010373235">
        <ele>312.08999999999997</ele>
        <time>2025-05-18T10:45:24Z</time>
      </trkpt>
      <trkpt lat="43.572606984525919" lon="6.505072005093098">
        <ele>311.12</ele>
        <time>2025-05-18T10:45:25Z</time>
      </trkpt>
      <trkpt lat="43.572452003136277" lon="6.505169989541173">
        <ele>309.68000000000001</ele>
        <time>2025-05-18T10:45:26Z</time>
      </trkpt>
      <trkpt lat="43.572310013696551" lon="6.505299992859364">
        <ele>308.72000000000003</ele>
        <time>2025-05-18T10:45:27Z</time>
      </trkpt>
      <trkpt lat="43.572187973186374" lon="6.505462015047669">
        <ele>306.80000000000001</ele>
        <time>2025-05-18T10:45:28Z</time>
      </trkpt>
      <trkpt lat="43.57211496680975" lon="6.505653960630298">
        <ele>305.36000000000001</ele>
        <time>2025-05-18T10:45:29Z</time>
      </trkpt>
      <trkpt lat="43.572047995403409" lon="6.505869040265679">
        <ele>303.91000000000003</ele>
        <time>2025-05-18T10:45:30Z</time>
      </trkpt>
      <trkpt lat="43.571980018168688" lon="6.506089987233281">
        <ele>302.47000000000003</ele>
        <time>2025-05-18T10:45:31Z</time>
      </trkpt>
      <trkpt lat="43.571909023448825" lon="6.506316969171166">
        <ele>300.55000000000001</ele>
        <time>2025-05-18T10:45:32Z</time>
      </trkpt>
      <trkpt lat="43.571836017072201" lon="6.506543029099703">
        <ele>299.11000000000001</ele>
        <time>2025-05-18T10:45:33Z</time>
      </trkpt>
      <trkpt lat="43.571716994047165" lon="6.506733968853951">
        <ele>297.67000000000002</ele>
        <time>2025-05-18T10:45:34Z</time>
      </trkpt>
      <trkpt lat="43.571584979072213" lon="6.50690202601254">
        <ele>296.22000000000003</ele>
        <time>2025-05-18T10:45:35Z</time>
      </trkpt>
      <trkpt lat="43.571421029046178" lon="6.507003027945757">
        <ele>294.77999999999997</ele>
        <time>2025-05-18T10:45:36Z</time>
      </trkpt>
      <trkpt lat="43.571248026564717" lon="6.507064970210195">
        <ele>293.33999999999997</ele>
        <time>2025-05-18T10:45:37Z</time>
      </trkpt>
      <trkpt lat="43.57106395997107" lon="6.507075028494">
        <ele>292.38</ele>
        <time>2025-05-18T10:45:38Z</time>
      </trkpt>
      <trkpt lat="43.570879977196455" lon="6.507069999352098">
        <ele>290.94</ele>
        <time>2025-05-18T10:45:39Z</time>
      </trkpt>
      <trkpt lat="43.570691971108317" lon="6.50703202933073">
        <ele>289.97000000000003</ele>
        <time>2025-05-18T10:45:40Z</time>
      </trkpt>
      <trkpt lat="43.568326011300087" lon="6.506720976904035">
        <ele>281.31999999999999</ele>
        <time>2025-05-18T10:45:52Z</time>
      </trkpt>
      <trkpt lat="43.567960979416966" lon="6.506784008815885">
        <ele>280.83999999999997</ele>
        <time>2025-05-18T10:45:54Z</time>
      </trkpt>
      <trkpt lat="43.567785965278745" lon="6.506839999929071">
        <ele>280.36000000000001</ele>
        <time>2025-05-18T10:45:55Z</time>
      </trkpt>
      <trkpt lat="43.567617991939187" lon="6.506912000477314">
        <ele>280.36000000000001</ele>
        <time>2025-05-18T10:45:56Z</time>
      </trkpt>
      <trkpt lat="43.566177980974317" lon="6.50769897736609">
        <ele>279.39999999999998</ele>
        <time>2025-05-18T10:46:05Z</time>
      </trkpt>
      <trkpt lat="43.564514005556703" lon="6.508784014731646">
        <ele>276.04000000000002</ele>
        <time>2025-05-18T10:46:15Z</time>
      </trkpt>
      <trkpt lat="43.562864027917385" lon="6.510324021801353">
        <ele>272.67000000000002</ele>
        <time>2025-05-18T10:46:25Z</time>
      </trkpt>
      <trkpt lat="43.562724972143769" lon="6.510526025667787">
        <ele>272.19</ele>
        <time>2025-05-18T10:46:26Z</time>
      </trkpt>
      <trkpt lat="43.561553014442325" lon="6.512216990813613">
        <ele>266.89999999999998</ele>
        <time>2025-05-18T10:46:35Z</time>
      </trkpt>
      <trkpt lat="43.561412030830979" lon="6.512311035767198">
        <ele>266.89999999999998</ele>
        <time>2025-05-18T10:46:36Z</time>
      </trkpt>
      <trkpt lat="43.561260988935828" lon="6.512392004951835">
        <ele>266.42000000000002</ele>
        <time>2025-05-18T10:46:37Z</time>
      </trkpt>
      <trkpt lat="43.561101984232664" lon="6.512478003278375">
        <ele>266.42000000000002</ele>
        <time>2025-05-18T10:46:38Z</time>
      </trkpt>
      <trkpt lat="43.560930993407965" lon="6.512561989948154">
        <ele>265.94</ele>
        <time>2025-05-18T10:46:39Z</time>
      </trkpt>
      <trkpt lat="43.559090998023748" lon="6.513257017359138">
        <ele>263.06</ele>
        <time>2025-05-18T10:46:49Z</time>
      </trkpt>
      <trkpt lat="43.558912966400385" lon="6.51334997266531">
        <ele>263.06</ele>
        <time>2025-05-18T10:46:50Z</time>
      </trkpt>
      <trkpt lat="43.55842899531126" lon="6.513636969029903">
        <ele>261.13999999999999</ele>
        <time>2025-05-18T10:46:53Z</time>
      </trkpt>
      <trkpt lat="43.557215966284275" lon="6.514095040038228">
        <ele>255.84999999999999</ele>
        <time>2025-05-18T10:47:01Z</time>
      </trkpt>
      <trkpt lat="43.557081017643213" lon="6.514206016436219">
        <ele>255.37</ele>
        <time>2025-05-18T10:47:02Z</time>
      </trkpt>
      <trkpt lat="43.556942967697978" lon="6.514323027804494">
        <ele>254.88999999999999</ele>
        <time>2025-05-18T10:47:03Z</time>
      </trkpt>
      <trkpt lat="43.556818999350071" lon="6.514469040557742">
        <ele>254.41</ele>
        <time>2025-05-18T10:47:04Z</time>
      </trkpt>
      <trkpt lat="43.556692013517022" lon="6.514626033604145">
        <ele>253.93000000000001</ele>
        <time>2025-05-18T10:47:05Z</time>
      </trkpt>
      <trkpt lat="43.556583970785141" lon="6.514816973358393">
        <ele>253.93000000000001</ele>
        <time>2025-05-18T10:47:06Z</time>
      </trkpt>
      <trkpt lat="43.556484980508685" lon="6.51502501219511">
        <ele>253.44</ele>
        <time>2025-05-18T10:47:07Z</time>
      </trkpt>
      <trkpt lat="43.555302964523435" lon="6.517586018890142">
        <ele>250.56</ele>
        <time>2025-05-18T10:47:19Z</time>
      </trkpt>
      <trkpt lat="43.554324964061379" lon="6.519687026739121">
        <ele>250.08000000000001</ele>
        <time>2025-05-18T10:47:28Z</time>
      </trkpt>
      <trkpt lat="43.554064035415649" lon="6.52035104110837">
        <ele>250.08000000000001</ele>
        <time>2025-05-18T10:47:31Z</time>
      </trkpt>
      <trkpt lat="43.554007960483432" lon="6.520572993904352">
        <ele>249.59999999999999</ele>
        <time>2025-05-18T10:47:32Z</time>
      </trkpt>
      <trkpt lat="43.553997986018658" lon="6.520817996934056">
        <ele>250.08000000000001</ele>
        <time>2025-05-18T10:47:33Z</time>
      </trkpt>
      <trkpt lat="43.553990023210645" lon="6.521066017448902">
        <ele>250.08000000000001</ele>
        <time>2025-05-18T10:47:34Z</time>
      </trkpt>
      <trkpt lat="43.553993962705135" lon="6.521318983286619">
        <ele>250.08000000000001</ele>
        <time>2025-05-18T10:47:35Z</time>
      </trkpt>
      <trkpt lat="43.554007960483432" lon="6.522358004003763">
        <ele>250.56</ele>
        <time>2025-05-18T10:47:39Z</time>
      </trkpt>
      <trkpt lat="43.553970996290445" lon="6.522577023133636">
        <ele>250.56</ele>
        <time>2025-05-18T10:47:40Z</time>
      </trkpt>
      <trkpt lat="43.553892038762569" lon="6.522761005908251">
        <ele>250.08000000000001</ele>
        <time>2025-05-18T10:47:41Z</time>
      </trkpt>
      <trkpt lat="43.553811991587281" lon="6.522933002561331">
        <ele>250.56</ele>
        <time>2025-05-18T10:47:42Z</time>
      </trkpt>
      <trkpt lat="43.553736973553896" lon="6.523097036406398">
        <ele>250.56</ele>
        <time>2025-05-18T10:47:43Z</time>
      </trkpt>
      <trkpt lat="43.553518038243055" lon="6.523625012487173">
        <ele>249.59999999999999</ele>
        <time>2025-05-18T10:47:47Z</time>
      </trkpt>
      <trkpt lat="43.553366996347904" lon="6.523732971400023">
        <ele>249.12</ele>
        <time>2025-05-18T10:47:48Z</time>
      </trkpt>
      <trkpt lat="43.553356016054749" lon="6.523749986663461">
        <ele>249.12</ele>
        <time>2025-05-18T10:47:49Z</time>
      </trkpt>
      <trkpt lat="43.553307987749577" lon="6.523846965283155">
        <ele>249.59999999999999</ele>
        <time>2025-05-18T10:47:50Z</time>
      </trkpt>
      <trkpt lat="43.553320979699492" lon="6.523935981094837">
        <ele>249.12</ele>
        <time>2025-05-18T10:47:51Z</time>
      </trkpt>
      <trkpt lat="43.553341012448072" lon="6.524015022441745">
        <ele>248.63999999999999</ele>
        <time>2025-05-18T10:47:52Z</time>
      </trkpt>
      <trkpt lat="43.553376970812678" lon="6.524033965542913">
        <ele>248.63999999999999</ele>
        <time>2025-05-18T10:47:53Z</time>
      </trkpt>
      <trkpt lat="43.553450983017683" lon="6.524033965542913">
        <ele>248.16</ele>
        <time>2025-05-18T10:47:54Z</time>
      </trkpt>
      <trkpt lat="43.553495993837714" lon="6.524033965542913">
        <ele>248.16</ele>
        <time>2025-05-18T10:47:55Z</time>
      </trkpt>
      <trkpt lat="43.553657010197639" lon="6.524042012169957">
        <ele>248.63999999999999</ele>
        <time>2025-05-18T10:47:56Z</time>
      </trkpt>
      <trkpt lat="43.553745020180941" lon="6.524106971919537">
        <ele>249.12</ele>
        <time>2025-05-18T10:47:57Z</time>
      </trkpt>
      <trkpt lat="43.554494027048349" lon="6.524554984644055">
        <ele>250.56</ele>
        <time>2025-05-18T10:48:03Z</time>
      </trkpt>
      <trkpt lat="43.55572298169136" lon="6.525117997080088">
        <ele>250.56</ele>
        <time>2025-05-18T10:48:11Z</time>
      </trkpt>
      <trkpt lat="43.557355022057891" lon="6.525619989261031">
        <ele>251.52000000000001</ele>
        <time>2025-05-18T10:48:20Z</time>
      </trkpt>
      <trkpt lat="43.559365002438426" lon="6.52621703222394">
        <ele>252</ele>
        <time>2025-05-18T10:48:29Z</time>
      </trkpt>
      <trkpt lat="43.561269035562873" lon="6.526800999417901">
        <ele>254.88999999999999</ele>
        <time>2025-05-18T10:48:38Z</time>
      </trkpt>
      <trkpt lat="43.562645008787513" lon="6.527192015200853">
        <ele>255.84999999999999</ele>
        <time>2025-05-18T10:48:45Z</time>
      </trkpt>
      <trkpt lat="43.564922958612442" lon="6.527901040390134">
        <ele>262.10000000000002</ele>
        <time>2025-05-18T10:48:56Z</time>
      </trkpt>
      <trkpt lat="43.565685963258147" lon="6.528068007901311">
        <ele>264.5</ele>
        <time>2025-05-18T10:49:00Z</time>
      </trkpt>
      <trkpt lat="43.565858965739608" lon="6.528055015951395">
        <ele>265.45999999999998</ele>
        <time>2025-05-18T10:49:01Z</time>
      </trkpt>
      <trkpt lat="43.566032974049449" lon="6.527964994311333">
        <ele>265.94</ele>
        <time>2025-05-18T10:49:02Z</time>
      </trkpt>
      <trkpt lat="43.566407980397344" lon="6.527771959081292">
        <ele>266.42000000000002</ele>
        <time>2025-05-18T10:49:04Z</time>
      </trkpt>
      <trkpt lat="43.566595986485481" lon="6.527724014595151">
        <ele>266.89999999999998</ele>
        <time>2025-05-18T10:49:05Z</time>
      </trkpt>
      <trkpt lat="43.566794972866774" lon="6.527724014595151">
        <ele>266.89999999999998</ele>
        <time>2025-05-18T10:49:06Z</time>
      </trkpt>
      <trkpt lat="43.56745395809412" lon="6.527706999331713">
        <ele>266.42000000000002</ele>
        <time>2025-05-18T10:49:09Z</time>
      </trkpt>
      <trkpt lat="43.568854993209243" lon="6.527420002967119">
        <ele>264.01999999999998</ele>
        <time>2025-05-18T10:49:15Z</time>
      </trkpt>
      <trkpt lat="43.569225976243615" lon="6.527369040995836">
        <ele>264.01999999999998</ele>
        <time>2025-05-18T10:49:17Z</time>
      </trkpt>
      <trkpt lat="43.569362014532089" lon="6.52740097604692">
        <ele>263.54000000000002</ele>
        <time>2025-05-18T10:49:18Z</time>
      </trkpt>
      <trkpt lat="43.569524958729744" lon="6.527510024607182">
        <ele>263.54000000000002</ele>
        <time>2025-05-18T10:49:19Z</time>
      </trkpt>
      <trkpt lat="43.569634007290006" lon="6.527646984905005">
        <ele>264.01999999999998</ele>
        <time>2025-05-18T10:49:20Z</time>
      </trkpt>
      <trkpt lat="43.5697500128299" lon="6.52783096767962">
        <ele>264.5</ele>
        <time>2025-05-18T10:49:21Z</time>
      </trkpt>
      <trkpt lat="43.569855960085988" lon="6.528035989031196">
        <ele>264.5</ele>
        <time>2025-05-18T10:49:22Z</time>
      </trkpt>
      <trkpt lat="43.569973977282643" lon="6.528179990127683">
        <ele>264.5</ele>
        <time>2025-05-18T10:49:23Z</time>
      </trkpt>
      <trkpt lat="43.570119990035892" lon="6.528283003717661">
        <ele>264.5</ele>
        <time>2025-05-18T10:49:24Z</time>
      </trkpt>
      <trkpt lat="43.570263991132379" lon="6.52828199788928">
        <ele>264.98000000000002</ele>
        <time>2025-05-18T10:49:25Z</time>
      </trkpt>
      <trkpt lat="43.570398017764091" lon="6.528233969584107">
        <ele>264.98000000000002</ele>
        <time>2025-05-18T10:49:26Z</time>
      </trkpt>
      <trkpt lat="43.57056800276041" lon="6.528157023712993">
        <ele>265.45999999999998</ele>
        <time>2025-05-18T10:49:27Z</time>
      </trkpt>
      <trkpt lat="43.570935968309641" lon="6.528017967939377">
        <ele>266.42000000000002</ele>
        <time>2025-05-18T10:49:29Z</time>
      </trkpt>
      <trkpt lat="43.571335030719638" lon="6.52804696932435">
        <ele>267.86000000000001</ele>
        <time>2025-05-18T10:49:31Z</time>
      </trkpt>
      <trkpt lat="43.571538040414453" lon="6.528083011507988">
        <ele>268.35000000000002</ele>
        <time>2025-05-18T10:49:32Z</time>
      </trkpt>
      <trkpt lat="43.571692015975714" lon="6.528111007064581">
        <ele>269.31</ele>
        <time>2025-05-18T10:49:33Z</time>
      </trkpt>
      <trkpt lat="43.571853032335639" lon="6.528236987069249">
        <ele>269.79000000000002</ele>
        <time>2025-05-18T10:49:34Z</time>
      </trkpt>
      <trkpt lat="43.571992004290223" lon="6.528347041457892">
        <ele>270.75</ele>
        <time>2025-05-18T10:49:35Z</time>
      </trkpt>
      <trkpt lat="43.572058975696564" lon="6.528499005362392">
        <ele>271.70999999999998</ele>
        <time>2025-05-18T10:49:36Z</time>
      </trkpt>
      <trkpt lat="43.572144974023104" lon="6.528696985915303">
        <ele>272.19</ele>
        <time>2025-05-18T10:49:37Z</time>
      </trkpt>
      <trkpt lat="43.572238013148308" lon="6.528924973681569">
        <ele>273.63</ele>
        <time>2025-05-18T10:49:38Z</time>
      </trkpt>
      <trkpt lat="43.572712009772658" lon="6.530231963843107">
        <ele>280.36000000000001</ele>
        <time>2025-05-18T10:49:44Z</time>
      </trkpt>
      <trkpt lat="43.572743022814393" lon="6.530414018779993">
        <ele>280.36000000000001</ele>
        <time>2025-05-18T10:49:45Z</time>
      </trkpt>
      <trkpt lat="43.572743022814393" lon="6.530594984069467">
        <ele>280.83999999999997</ele>
        <time>2025-05-18T10:49:46Z</time>
      </trkpt>
      <trkpt lat="43.572703041136265" lon="6.530774021521211">
        <ele>280.83999999999997</ele>
        <time>2025-05-18T10:49:47Z</time>
      </trkpt>
      <trkpt lat="43.572634980082512" lon="6.530961021780968">
        <ele>281.31999999999999</ele>
        <time>2025-05-18T10:49:48Z</time>
      </trkpt>
      <trkpt lat="43.572562979534268" lon="6.531157996505499">
        <ele>281.31999999999999</ele>
        <time>2025-05-18T10:49:49Z</time>
      </trkpt>
      <trkpt lat="43.572421995922923" lon="6.531543983146548">
        <ele>281.80000000000001</ele>
        <time>2025-05-18T10:49:51Z</time>
      </trkpt>
      <trkpt lat="43.57237002812326" lon="6.531751016154885">
        <ele>281.80000000000001</ele>
        <time>2025-05-18T10:49:52Z</time>
      </trkpt>
      <trkpt lat="43.572339015081525" lon="6.531967017799616">
        <ele>281.80000000000001</ele>
        <time>2025-05-18T10:49:53Z</time>
      </trkpt>
      <trkpt lat="43.572252010926604" lon="6.533755967393518">
        <ele>277.95999999999998</ele>
        <time>2025-05-18T10:50:01Z</time>
      </trkpt>
      <trkpt lat="43.572142962366343" lon="6.53569302521646">
        <ele>272.67000000000002</ele>
        <time>2025-05-18T10:50:09Z</time>
      </trkpt>
      <trkpt lat="43.572094012051821" lon="6.536650992929936">
        <ele>271.70999999999998</ele>
        <time>2025-05-18T10:50:13Z</time>
      </trkpt>
      <trkpt lat="43.572081020101905" lon="6.536884009838104">
        <ele>271.23000000000002</ele>
        <time>2025-05-18T10:50:14Z</time>
      </trkpt>
      <trkpt lat="43.571869041770697" lon="6.539108986034989">
        <ele>267.38</ele>
        <time>2025-05-18T10:50:23Z</time>
      </trkpt>
      <trkpt lat="43.571980018168688" lon="6.541186021640897">
        <ele>262.10000000000002</ele>
        <time>2025-05-18T10:50:31Z</time>
      </trkpt>
      <trkpt lat="43.572238013148308" lon="6.543632028624415">
        <ele>263.06</ele>
        <time>2025-05-18T10:50:40Z</time>
      </trkpt>
      <trkpt lat="43.572266008704901" lon="6.546060014516115">
        <ele>267.38</ele>
        <time>2025-05-18T10:50:49Z</time>
      </trkpt>
      <trkpt lat="43.572271037846804" lon="6.546332007274032">
        <ele>267.86000000000001</ele>
        <time>2025-05-18T10:50:50Z</time>
      </trkpt>
      <trkpt lat="43.572305990383029" lon="6.546595031395555">
        <ele>268.35000000000002</ele>
        <time>2025-05-18T10:50:51Z</time>
      </trkpt>
      <trkpt lat="43.572649983689189" lon="6.548819001764059">
        <ele>270.26999999999998</ele>
        <time>2025-05-18T10:50:59Z</time>
      </trkpt>
      <trkpt lat="43.572778981178999" lon="6.551038026809692">
        <ele>274.58999999999997</ele>
        <time>2025-05-18T10:51:07Z</time>
      </trkpt>
      <trkpt lat="43.572391988709569" lon="6.553565002977848">
        <ele>274.58999999999997</ele>
        <time>2025-05-18T10:51:16Z</time>
      </trkpt>
      <trkpt lat="43.571978006511927" lon="6.556819025427103">
        <ele>270.26999999999998</ele>
        <time>2025-05-18T10:51:27Z</time>
      </trkpt>
      <trkpt lat="43.572175987064838" lon="6.559299984946847">
        <ele>269.79000000000002</ele>
        <time>2025-05-18T10:51:36Z</time>
      </trkpt>
      <trkpt lat="43.572360975667834" lon="6.560212019830942">
        <ele>271.23000000000002</ele>
        <time>2025-05-18T10:51:40Z</time>
      </trkpt>
      <trkpt lat="43.572946032509208" lon="6.561415996402502">
        <ele>274.11000000000001</ele>
        <time>2025-05-18T10:51:48Z</time>
      </trkpt>
      <trkpt lat="43.573006968945265" lon="6.561533007770777">
        <ele>274.58999999999997</ele>
        <time>2025-05-18T10:51:49Z</time>
      </trkpt>
      <trkpt lat="43.573068995028734" lon="6.561655970290303">
        <ele>274.58999999999997</ele>
        <time>2025-05-18T10:51:50Z</time>
      </trkpt>
      <trkpt lat="43.573134960606694" lon="6.561787985265255">
        <ele>275.06999999999999</ele>
        <time>2025-05-18T10:51:51Z</time>
      </trkpt>
      <trkpt lat="43.573208972811699" lon="6.56192796304822">
        <ele>275.56</ele>
        <time>2025-05-18T10:51:52Z</time>
      </trkpt>
      <trkpt lat="43.573301006108522" lon="6.5620999597013">
        <ele>276.04000000000002</ele>
        <time>2025-05-18T10:51:53Z</time>
      </trkpt>
      <trkpt lat="43.573380969464779" lon="6.562225017696619">
        <ele>277</ele>
        <time>2025-05-18T10:51:54Z</time>
      </trkpt>
      <trkpt lat="43.573856977745891" lon="6.563208969309926">
        <ele>283.25</ele>
        <time>2025-05-18T10:51:59Z</time>
      </trkpt>
      <trkpt lat="43.57393903657794" lon="6.56345397233963">
        <ele>284.69</ele>
        <time>2025-05-18T10:52:00Z</time>
      </trkpt>
      <trkpt lat="43.574020005762577" lon="6.563713978976011">
        <ele>286.13</ele>
        <time>2025-05-18T10:52:01Z</time>
      </trkpt>
      <trkpt lat="43.574441028758883" lon="6.565604014322162">
        <ele>293.81999999999999</ele>
        <time>2025-05-18T10:52:07Z</time>
      </trkpt>
      <trkpt lat="43.574708998203278" lon="6.566788963973522">
        <ele>296.69999999999999</ele>
        <time>2025-05-18T10:52:11Z</time>
      </trkpt>
      <trkpt lat="43.574677985161543" lon="6.567069003358483">
        <ele>296.69999999999999</ele>
        <time>2025-05-18T10:52:12Z</time>
      </trkpt>
      <trkpt lat="43.574644960463047" lon="6.567363040521741">
        <ele>297.18000000000001</ele>
        <time>2025-05-18T10:52:13Z</time>
      </trkpt>
      <trkpt lat="43.574571032077074" lon="6.567925969138742">
        <ele>297.67000000000002</ele>
        <time>2025-05-18T10:52:15Z</time>
      </trkpt>
      <trkpt lat="43.574582012370229" lon="6.568187987431884">
        <ele>297.67000000000002</ele>
        <time>2025-05-18T10:52:16Z</time>
      </trkpt>
      <trkpt lat="43.574615959078074" lon="6.568424021825194">
        <ele>297.67000000000002</ele>
        <time>2025-05-18T10:52:17Z</time>
      </trkpt>
      <trkpt lat="43.574691982939839" lon="6.56865200959146">
        <ele>297.67000000000002</ele>
        <time>2025-05-18T10:52:18Z</time>
      </trkpt>
      <trkpt lat="43.574779992923141" lon="6.568883014842868">
        <ele>297.67000000000002</ele>
        <time>2025-05-18T10:52:19Z</time>
      </trkpt>
      <trkpt lat="43.574889963492751" lon="6.56912399455905">
        <ele>297.67000000000002</ele>
        <time>2025-05-18T10:52:20Z</time>
      </trkpt>
      <trkpt lat="43.575006974861026" lon="6.569376960396767">
        <ele>297.67000000000002</ele>
        <time>2025-05-18T10:52:21Z</time>
      </trkpt>
      <trkpt lat="43.575814990326762" lon="6.571313012391329">
        <ele>301.50999999999999</ele>
        <time>2025-05-18T10:52:28Z</time>
      </trkpt>
      <trkpt lat="43.57589403167367" lon="6.571618029847741">
        <ele>302.47000000000003</ele>
        <time>2025-05-18T10:52:29Z</time>
      </trkpt>
      <trkpt lat="43.575958991423249" lon="6.571930004283786">
        <ele>303.91000000000003</ele>
        <time>2025-05-18T10:52:30Z</time>
      </trkpt>
      <trkpt lat="43.576005008071661" lon="6.572269974276424">
        <ele>305.36000000000001</ele>
        <time>2025-05-18T10:52:31Z</time>
      </trkpt>
      <trkpt lat="43.576037026941776" lon="6.572578009217978">
        <ele>307.27999999999997</ele>
        <time>2025-05-18T10:52:32Z</time>
      </trkpt>
      <trkpt lat="43.576123025268316" lon="6.575206993147731">
        <ele>321.69999999999999</ele>
        <time>2025-05-18T10:52:40Z</time>
      </trkpt>
      <trkpt lat="43.576080026105046" lon="6.576744988560677">
        <ele>326.01999999999998</ele>
        <time>2025-05-18T10:52:45Z</time>
      </trkpt>
      <trkpt lat="43.576019005849957" lon="6.577050006017089">
        <ele>326.01999999999998</ele>
        <time>2025-05-18T10:52:46Z</time>
      </trkpt>
      <trkpt lat="43.575953040271997" lon="6.577358962967992">
        <ele>326.01999999999998</ele>
        <time>2025-05-18T10:52:47Z</time>
      </trkpt>
      <trkpt lat="43.575846003368497" lon="6.577974027022719">
        <ele>325.06</ele>
        <time>2025-05-18T10:52:49Z</time>
      </trkpt>
      <trkpt lat="43.575803004205227" lon="6.578289018943906">
        <ele>324.57999999999998</ele>
        <time>2025-05-18T10:52:50Z</time>
      </trkpt>
      <trkpt lat="43.575771991163492" lon="6.578594958409667">
        <ele>323.62</ele>
        <time>2025-05-18T10:52:51Z</time>
      </trkpt>
      <trkpt lat="43.575785988941789" lon="6.578905005007982">
        <ele>322.66000000000003</ele>
        <time>2025-05-18T10:52:52Z</time>
      </trkpt>
      <trkpt lat="43.575800992548466" lon="6.579212034121156">
        <ele>321.69999999999999</ele>
        <time>2025-05-18T10:52:53Z</time>
      </trkpt>
      <trkpt lat="43.575814990326762" lon="6.579518979415298">
        <ele>320.25999999999999</ele>
        <time>2025-05-18T10:52:54Z</time>
      </trkpt>
      <trkpt lat="43.57615303248167" lon="6.582320965826511">
        <ele>309.68000000000001</ele>
        <time>2025-05-18T10:53:03Z</time>
      </trkpt>
      <trkpt lat="43.5766919888556" lon="6.585167041048408">
        <ele>302.47000000000003</ele>
        <time>2025-05-18T10:53:13Z</time>
      </trkpt>
      <trkpt lat="43.577042017132044" lon="6.586455004289746">
        <ele>300.06999999999999</ele>
        <time>2025-05-18T10:53:18Z</time>
      </trkpt>
      <trkpt lat="43.577073030173779" lon="6.586747029796243">
        <ele>299.11000000000001</ele>
        <time>2025-05-18T10:53:19Z</time>
      </trkpt>
      <trkpt lat="43.577094990760088" lon="6.587053975090385">
        <ele>298.63</ele>
        <time>2025-05-18T10:53:20Z</time>
      </trkpt>
      <trkpt lat="43.577071018517017" lon="6.587369972839952">
        <ele>297.67000000000002</ele>
        <time>2025-05-18T10:53:21Z</time>
      </trkpt>
      <trkpt lat="43.577033970504999" lon="6.587689993903041">
        <ele>297.18000000000001</ele>
        <time>2025-05-18T10:53:22Z</time>
      </trkpt>
      <trkpt lat="43.576685031875968" lon="6.590505978092551">
        <ele>291.89999999999998</ele>
        <time>2025-05-18T10:53:31Z</time>
      </trkpt>
      <trkpt lat="43.576401975005865" lon="6.592492992058396">
        <ele>289.00999999999999</ele>
        <time>2025-05-18T10:53:38Z</time>
      </trkpt>
      <trkpt lat="43.576395018026233" lon="6.592773031443358">
        <ele>289.00999999999999</ele>
        <time>2025-05-18T10:53:39Z</time>
      </trkpt>
      <trkpt lat="43.57639099471271" lon="6.593053992837668">
        <ele>289.00999999999999</ele>
        <time>2025-05-18T10:53:40Z</time>
      </trkpt>
      <trkpt lat="43.576451009139419" lon="6.59537997096777">
        <ele>289.49000000000001</ele>
        <time>2025-05-18T10:53:48Z</time>
      </trkpt>
      <trkpt lat="43.576503982767463" lon="6.595652969554067">
        <ele>289.49000000000001</ele>
        <time>2025-05-18T10:53:49Z</time>
      </trkpt>
      <trkpt lat="43.576555028557777" lon="6.595912976190448">
        <ele>289.49000000000001</ele>
        <time>2025-05-18T10:53:50Z</time>
      </trkpt>
      <trkpt lat="43.576601967215538" lon="6.5961520280689">
        <ele>289.49000000000001</ele>
        <time>2025-05-18T10:53:51Z</time>
      </trkpt>
      <trkpt lat="43.57664798386395" lon="6.596383033320308">
        <ele>289.49000000000001</ele>
        <time>2025-05-18T10:53:52Z</time>
      </trkpt>
      <trkpt lat="43.57660599052906" lon="6.596615966409445">
        <ele>289.00999999999999</ele>
        <time>2025-05-18T10:53:53Z</time>
      </trkpt>
      <trkpt lat="43.576551005244255" lon="6.596799027174711">
        <ele>289.00999999999999</ele>
        <time>2025-05-18T10:53:54Z</time>
      </trkpt>
      <trkpt lat="43.576471963897347" lon="6.596958031877875">
        <ele>289.00999999999999</ele>
        <time>2025-05-18T10:53:55Z</time>
      </trkpt>
      <trkpt lat="43.576394012197852" lon="6.597114019095898">
        <ele>289.49000000000001</ele>
        <time>2025-05-18T10:53:56Z</time>
      </trkpt>
      <trkpt lat="43.576370039954782" lon="6.5972900390625">
        <ele>289.49000000000001</ele>
        <time>2025-05-18T10:53:57Z</time>
      </trkpt>
      <trkpt lat="43.576370039954782" lon="6.597491037100554">
        <ele>289.49000000000001</ele>
        <time>2025-05-18T10:53:58Z</time>
      </trkpt>
      <trkpt lat="43.576399041339755" lon="6.597672002390027">
        <ele>289.49000000000001</ele>
        <time>2025-05-18T10:53:59Z</time>
      </trkpt>
      <trkpt lat="43.576459977775812" lon="6.597843999043107">
        <ele>289.00999999999999</ele>
        <time>2025-05-18T10:54:00Z</time>
      </trkpt>
      <trkpt lat="43.576549999415874" lon="6.597964027896524">
        <ele>289.00999999999999</ele>
        <time>2025-05-18T10:54:01Z</time>
      </trkpt>
      <trkpt lat="43.576659969985485" lon="6.598053965717554">
        <ele>288.52999999999997</ele>
        <time>2025-05-18T10:54:02Z</time>
      </trkpt>
      <trkpt lat="43.576790979132056" lon="6.59810702316463">
        <ele>288.52999999999997</ele>
        <time>2025-05-18T10:54:03Z</time>
      </trkpt>
      <trkpt lat="43.57692601159215" lon="6.598090007901192">
        <ele>288.52999999999997</ele>
        <time>2025-05-18T10:54:04Z</time>
      </trkpt>
      <trkpt lat="43.577057020738721" lon="6.598030999302864">
        <ele>288.05000000000001</ele>
        <time>2025-05-18T10:54:05Z</time>
      </trkpt>
      <trkpt lat="43.577188029885292" lon="6.597972996532917">
        <ele>288.05000000000001</ele>
        <time>2025-05-18T10:54:06Z</time>
      </trkpt>
      <trkpt lat="43.577318033203483" lon="6.597954975441098">
        <ele>287.56999999999999</ele>
        <time>2025-05-18T10:54:07Z</time>
      </trkpt>
      <trkpt lat="43.57742004096508" lon="6.597989005967975">
        <ele>286.61000000000001</ele>
        <time>2025-05-18T10:54:08Z</time>
      </trkpt>
      <trkpt lat="43.577500004321337" lon="6.598066035658121">
        <ele>285.64999999999998</ele>
        <time>2025-05-18T10:54:09Z</time>
      </trkpt>
      <trkpt lat="43.57757200486958" lon="6.598194027319551">
        <ele>285.17000000000002</ele>
        <time>2025-05-18T10:54:10Z</time>
      </trkpt>
      <trkpt lat="43.577603017911315" lon="6.598370969295502">
        <ele>284.20999999999998</ele>
        <time>2025-05-18T10:54:11Z</time>
      </trkpt>
      <trkpt lat="43.577635958790779" lon="6.598565010353923">
        <ele>283.73000000000002</ele>
        <time>2025-05-18T10:54:12Z</time>
      </trkpt>
      <trkpt lat="43.577635958790779" lon="6.598791992291808">
        <ele>283.25</ele>
        <time>2025-05-18T10:54:13Z</time>
      </trkpt>
      <trkpt lat="43.577575022354722" lon="6.598974969238043">
        <ele>282.27999999999997</ele>
        <time>2025-05-18T10:54:14Z</time>
      </trkpt>
      <trkpt lat="43.577468991279602" lon="6.599156018346548">
        <ele>281.31999999999999</ele>
        <time>2025-05-18T10:54:15Z</time>
      </trkpt>
      <trkpt lat="43.577344017103314" lon="6.599318962544203">
        <ele>280.83999999999997</ele>
        <time>2025-05-18T10:54:16Z</time>
      </trkpt>
      <trkpt lat="43.577233040705323" lon="6.59950302913785">
        <ele>280.36000000000001</ele>
        <time>2025-05-18T10:54:17Z</time>
      </trkpt>
      <trkpt lat="43.577137989923358" lon="6.599724981933832">
        <ele>279.88</ele>
        <time>2025-05-18T10:54:18Z</time>
      </trkpt>
      <trkpt lat="43.577041011303663" lon="6.599951963871718">
        <ele>278.92000000000002</ele>
        <time>2025-05-18T10:54:19Z</time>
      </trkpt>
      <trkpt lat="43.576941015198827" lon="6.600183974951506">
        <ele>278.44</ele>
        <time>2025-05-18T10:54:20Z</time>
      </trkpt>
      <trkpt lat="43.576747979968786" lon="6.600635005161166">
        <ele>277.48000000000002</ele>
        <time>2025-05-18T10:54:22Z</time>
      </trkpt>
      <trkpt lat="43.576682014390826" lon="6.60085896961391">
        <ele>276.51999999999998</ele>
        <time>2025-05-18T10:54:23Z</time>
      </trkpt>
      <trkpt lat="43.576654018834233" lon="6.601112019270659">
        <ele>276.04000000000002</ele>
        <time>2025-05-18T10:54:24Z</time>
      </trkpt>
      <trkpt lat="43.576608002185822" lon="6.601594984531403">
        <ele>274.58999999999997</ele>
        <time>2025-05-18T10:54:26Z</time>
      </trkpt>
      <trkpt lat="43.576621999964118" lon="6.601811992004514">
        <ele>273.63</ele>
        <time>2025-05-18T10:54:27Z</time>
      </trkpt>
      <trkpt lat="43.576672961935401" lon="6.602009972557426">
        <ele>272.67000000000002</ele>
        <time>2025-05-18T10:54:28Z</time>
      </trkpt>
      <trkpt lat="43.576756026595831" lon="6.602204013615847">
        <ele>271.70999999999998</ele>
        <time>2025-05-18T10:54:29Z</time>
      </trkpt>
      <trkpt lat="43.576851999387145" lon="6.602323958650231">
        <ele>270.26999999999998</ele>
        <time>2025-05-18T10:54:30Z</time>
      </trkpt>
      <trkpt lat="43.576972028240561" lon="6.602473994717002">
        <ele>269.31</ele>
        <time>2025-05-18T10:54:31Z</time>
      </trkpt>
      <trkpt lat="43.577103037387133" lon="6.602652026340365">
        <ele>267.86000000000001</ele>
        <time>2025-05-18T10:54:32Z</time>
      </trkpt>
      <trkpt lat="43.577145030722022" lon="6.602862998843193">
        <ele>266.89999999999998</ele>
        <time>2025-05-18T10:54:33Z</time>
      </trkpt>
      <trkpt lat="43.577188029885292" lon="6.603076988831163">
        <ele>265.94</ele>
        <time>2025-05-18T10:54:34Z</time>
      </trkpt>
      <trkpt lat="43.577252989634871" lon="6.60328502766788">
        <ele>264.98000000000002</ele>
        <time>2025-05-18T10:54:35Z</time>
      </trkpt>
      <trkpt lat="43.577361032366753" lon="6.603458030149341">
        <ele>264.5</ele>
        <time>2025-05-18T10:54:36Z</time>
      </trkpt>
      <trkpt lat="43.577493969351053" lon="6.603601025417447">
        <ele>264.01999999999998</ele>
        <time>2025-05-18T10:54:37Z</time>
      </trkpt>
      <trkpt lat="43.57761500403285" lon="6.60377997905016">
        <ele>263.06</ele>
        <time>2025-05-18T10:54:38Z</time>
      </trkpt>
      <trkpt lat="43.57778599485755" lon="6.604156997054815">
        <ele>262.10000000000002</ele>
        <time>2025-05-18T10:54:40Z</time>
      </trkpt>
      <trkpt lat="43.577924966812134" lon="6.604276020079851">
        <ele>261.62</ele>
        <time>2025-05-18T10:54:41Z</time>
      </trkpt>
      <trkpt lat="43.578061005100608" lon="6.604392025619745">
        <ele>260.64999999999998</ele>
        <time>2025-05-18T10:54:42Z</time>
      </trkpt>
      <trkpt lat="43.578164018690586" lon="6.604538038372994">
        <ele>259.69</ele>
        <time>2025-05-18T10:54:43Z</time>
      </trkpt>
      <trkpt lat="43.57821598649025" lon="6.604698970913887">
        <ele>258.73000000000002</ele>
        <time>2025-05-18T10:54:44Z</time>
      </trkpt>
      <trkpt lat="43.578221015632153" lon="6.604864010587335">
        <ele>258.25</ele>
        <time>2025-05-18T10:54:45Z</time>
      </trkpt>
      <trkpt lat="43.578171981498599" lon="6.605057967826724">
        <ele>257.76999999999998</ele>
        <time>2025-05-18T10:54:46Z</time>
      </trkpt>
      <trkpt lat="43.578085983172059" lon="6.605186965316534">
        <ele>256.81</ele>
        <time>2025-05-18T10:54:47Z</time>
      </trkpt>
      <trkpt lat="43.577954974025488" lon="6.605314034968615">
        <ele>256.32999999999998</ele>
        <time>2025-05-18T10:54:48Z</time>
      </trkpt>
      <trkpt lat="43.577812984585762" lon="6.605452001094818">
        <ele>254.88999999999999</ele>
        <time>2025-05-18T10:54:49Z</time>
      </trkpt>
      <trkpt lat="43.577377963811159" lon="6.605873024091125">
        <ele>252.47999999999999</ele>
        <time>2025-05-18T10:54:52Z</time>
      </trkpt>
      <trkpt lat="43.577282996848226" lon="6.606088019907475">
        <ele>251.52000000000001</ele>
        <time>2025-05-18T10:54:53Z</time>
      </trkpt>
      <trkpt lat="43.577203033491969" lon="6.60629597492516">
        <ele>250.56</ele>
        <time>2025-05-18T10:54:54Z</time>
      </trkpt>
      <trkpt lat="43.577173026278615" lon="6.60655003041029">
        <ele>249.59999999999999</ele>
        <time>2025-05-18T10:54:55Z</time>
      </trkpt>
      <trkpt lat="43.577143019065261" lon="6.606814982369542">
        <ele>249.12</ele>
        <time>2025-05-18T10:54:56Z</time>
      </trkpt>
      <trkpt lat="43.577095996588469" lon="6.607084041461349">
        <ele>248.16</ele>
        <time>2025-05-18T10:54:57Z</time>
      </trkpt>
      <trkpt lat="43.577009998261929" lon="6.607343964278698">
        <ele>247.19999999999999</ele>
        <time>2025-05-18T10:54:58Z</time>
      </trkpt>
      <trkpt lat="43.576921988278627" lon="6.60760598257184">
        <ele>246.22999999999999</ele>
        <time>2025-05-18T10:54:59Z</time>
      </trkpt>
      <trkpt lat="43.576744040474296" lon="6.608139993622899">
        <ele>243.83000000000001</ele>
        <time>2025-05-18T10:55:01Z</time>
      </trkpt>
      <trkpt lat="43.576674973592162" lon="6.608430007472634">
        <ele>242.87</ele>
        <time>2025-05-18T10:55:02Z</time>
      </trkpt>
      <trkpt lat="43.576635997742414" lon="6.608728989958763">
        <ele>241.91</ele>
        <time>2025-05-18T10:55:03Z</time>
      </trkpt>
      <trkpt lat="43.576488979160786" lon="6.609875969588757">
        <ele>237.58000000000001</ele>
        <time>2025-05-18T10:55:07Z</time>
      </trkpt>
      <trkpt lat="43.576429970562458" lon="6.610124995931983">
        <ele>236.13999999999999</ele>
        <time>2025-05-18T10:55:08Z</time>
      </trkpt>
      <trkpt lat="43.576337015256286" lon="6.610324988141656">
        <ele>235.18000000000001</ele>
        <time>2025-05-18T10:55:09Z</time>
      </trkpt>
      <trkpt lat="43.576212041079998" lon="6.610494973137975">
        <ele>234.22</ele>
        <time>2025-05-18T10:55:10Z</time>
      </trkpt>
      <trkpt lat="43.576072985306382" lon="6.610638974234462">
        <ele>233.25999999999999</ele>
        <time>2025-05-18T10:55:11Z</time>
      </trkpt>
      <trkpt lat="43.575906017795205" lon="6.610775012522936">
        <ele>232.30000000000001</ele>
        <time>2025-05-18T10:55:12Z</time>
      </trkpt>
      <trkpt lat="43.575562024489045" lon="6.611054968088865">
        <ele>230.84999999999999</ele>
        <time>2025-05-18T10:55:14Z</time>
      </trkpt>
      <trkpt lat="43.5754020139575" lon="6.611208021640778">
        <ele>229.88999999999999</ele>
        <time>2025-05-18T10:55:15Z</time>
      </trkpt>
      <trkpt lat="43.575262958183885" lon="6.611369960010052">
        <ele>228.93000000000001</ele>
        <time>2025-05-18T10:55:16Z</time>
      </trkpt>
      <trkpt lat="43.575161034241319" lon="6.611582022160292">
        <ele>228.44999999999999</ele>
        <time>2025-05-18T10:55:17Z</time>
      </trkpt>
      <trkpt lat="43.575090039521456" lon="6.6117940004915">
        <ele>227.97</ele>
        <time>2025-05-18T10:55:18Z</time>
      </trkpt>
      <trkpt lat="43.575033964589238" lon="6.612017964944243">
        <ele>227.00999999999999</ele>
        <time>2025-05-18T10:55:19Z</time>
      </trkpt>
      <trkpt lat="43.574988031759858" lon="6.612256010994315">
        <ele>226.05000000000001</ele>
        <time>2025-05-18T10:55:20Z</time>
      </trkpt>
      <trkpt lat="43.574942015111446" lon="6.612492967396975">
        <ele>225.09</ele>
        <time>2025-05-18T10:55:21Z</time>
      </trkpt>
      <trkpt lat="43.574875965714455" lon="6.61271802149713">
        <ele>224.12</ele>
        <time>2025-05-18T10:55:22Z</time>
      </trkpt>
      <trkpt lat="43.574768006801605" lon="6.612908039242029">
        <ele>223.16</ele>
        <time>2025-05-18T10:55:23Z</time>
      </trkpt>
      <trkpt lat="43.574635991826653" lon="6.613078024238348">
        <ele>222.68000000000001</ele>
        <time>2025-05-18T10:55:24Z</time>
      </trkpt>
      <trkpt lat="43.574486039578915" lon="6.613220013678074">
        <ele>221.72</ele>
        <time>2025-05-18T10:55:25Z</time>
      </trkpt>
      <trkpt lat="43.574343966320157" lon="6.613354040309787">
        <ele>221.24000000000001</ele>
        <time>2025-05-18T10:55:26Z</time>
      </trkpt>
      <trkpt lat="43.574222009629011" lon="6.613500975072384">
        <ele>220.28</ele>
        <time>2025-05-18T10:55:27Z</time>
      </trkpt>
      <trkpt lat="43.574146991595626" lon="6.613678000867367">
        <ele>219.31999999999999</ele>
        <time>2025-05-18T10:55:28Z</time>
      </trkpt>
      <trkpt lat="43.574108015745878" lon="6.613869024440646">
        <ele>218.36000000000001</ele>
        <time>2025-05-18T10:55:29Z</time>
      </trkpt>
      <trkpt lat="43.574095023795962" lon="6.614048983901739">
        <ele>217.88</ele>
        <time>2025-05-18T10:55:30Z</time>
      </trkpt>
      <trkpt lat="43.574153026565909" lon="6.614256016910076">
        <ele>216.91</ele>
        <time>2025-05-18T10:55:31Z</time>
      </trkpt>
      <trkpt lat="43.574202982708812" lon="6.614434970542789">
        <ele>216.43000000000001</ele>
        <time>2025-05-18T10:55:32Z</time>
      </trkpt>
      <trkpt lat="43.574312031269073" lon="6.614585006609559">
        <ele>215.47</ele>
        <time>2025-05-18T10:55:33Z</time>
      </trkpt>
      <trkpt lat="43.574431976303458" lon="6.614688020199537">
        <ele>214.50999999999999</ele>
        <time>2025-05-18T10:55:34Z</time>
      </trkpt>
      <trkpt lat="43.574573965743184" lon="6.614730013534427">
        <ele>214.03</ele>
        <time>2025-05-18T10:55:35Z</time>
      </trkpt>
      <trkpt lat="43.574739005416632" lon="6.6147780418396">
        <ele>213.06999999999999</ele>
        <time>2025-05-18T10:55:36Z</time>
      </trkpt>
      <trkpt lat="43.574856016784906" lon="6.614735964685679">
        <ele>212.59</ele>
        <time>2025-05-18T10:55:37Z</time>
      </trkpt>
      <trkpt lat="43.575016027316451" lon="6.614677961915731">
        <ele>212.11000000000001</ele>
        <time>2025-05-18T10:55:38Z</time>
      </trkpt>
      <trkpt lat="43.575177965685725" lon="6.614619959145784">
        <ele>211.63</ele>
        <time>2025-05-18T10:55:39Z</time>
      </trkpt>
      <trkpt lat="43.575339987874031" lon="6.614561034366489">
        <ele>211.15000000000001</ele>
        <time>2025-05-18T10:55:40Z</time>
      </trkpt>
      <trkpt lat="43.57551097869873" lon="6.614499008283019">
        <ele>210.66999999999999</ele>
        <time>2025-05-18T10:55:41Z</time>
      </trkpt>
      <trkpt lat="43.575653973966837" lon="6.614490961655974">
        <ele>210.19</ele>
        <time>2025-05-18T10:55:42Z</time>
      </trkpt>
      <trkpt lat="43.57581096701324" lon="6.6144809871912">
        <ele>210.19</ele>
        <time>2025-05-18T10:55:43Z</time>
      </trkpt>
      <trkpt lat="43.576278006657958" lon="6.614435976371169">
        <ele>208.74000000000001</ele>
        <time>2025-05-18T10:55:46Z</time>
      </trkpt>
      <trkpt lat="43.576427958905697" lon="6.614383002743125">
        <ele>207.78</ele>
        <time>2025-05-18T10:55:47Z</time>
      </trkpt>
      <trkpt lat="43.576726019382477" lon="6.614278983324766">
        <ele>206.34</ele>
        <time>2025-05-18T10:55:49Z</time>
      </trkpt>
      <trkpt lat="43.577015027403831" lon="6.614177981391549">
        <ele>204.41999999999999</ele>
        <time>2025-05-18T10:55:51Z</time>
      </trkpt>
      <trkpt lat="43.577149976044893" lon="6.614091983065009">
        <ele>203.94</ele>
        <time>2025-05-18T10:55:52Z</time>
      </trkpt>
      <trkpt lat="43.57729397714138" lon="6.613954016938806">
        <ele>203.46000000000001</ele>
        <time>2025-05-18T10:55:53Z</time>
      </trkpt>
      <trkpt lat="43.578170975670218" lon="6.612807037308812">
        <ele>200.56999999999999</ele>
        <time>2025-05-18T10:55:58Z</time>
      </trkpt>
      <trkpt lat="43.578346995636821" lon="6.612577037885785">
        <ele>199.13</ele>
        <time>2025-05-18T10:55:59Z</time>
      </trkpt>
      <trkpt lat="43.578545982018113" lon="6.612433036789298">
        <ele>198.16999999999999</ele>
        <time>2025-05-18T10:56:00Z</time>
      </trkpt>
      <trkpt lat="43.578743962571025" lon="6.612318959087133">
        <ele>197.69</ele>
        <time>2025-05-18T10:56:01Z</time>
      </trkpt>
      <trkpt lat="43.578928029164672" lon="6.612213011831045">
        <ele>196.72999999999999</ele>
        <time>2025-05-18T10:56:02Z</time>
      </trkpt>
      <trkpt lat="43.579102037474513" lon="6.612172024324536">
        <ele>195.77000000000001</ele>
        <time>2025-05-18T10:56:03Z</time>
      </trkpt>
      <trkpt lat="43.579261964187026" lon="6.612140005454421">
        <ele>194.80000000000001</ele>
        <time>2025-05-18T10:56:04Z</time>
      </trkpt>
      <trkpt lat="43.57937403023243" lon="6.612181998789311">
        <ele>193.84</ele>
        <time>2025-05-18T10:56:05Z</time>
      </trkpt>
      <trkpt lat="43.579465979710221" lon="6.612296998500824">
        <ele>192.88</ele>
        <time>2025-05-18T10:56:06Z</time>
      </trkpt>
      <trkpt lat="43.57954896055162" lon="6.612405041232705">
        <ele>192.40000000000001</ele>
        <time>2025-05-18T10:56:07Z</time>
      </trkpt>
      <trkpt lat="43.579607969149947" lon="6.61256899125874">
        <ele>191.91999999999999</ele>
        <time>2025-05-18T10:56:08Z</time>
      </trkpt>
      <trkpt lat="43.579672006890178" lon="6.612749034538865">
        <ele>191.44</ele>
        <time>2025-05-18T10:56:09Z</time>
      </trkpt>
      <trkpt lat="43.579774014651775" lon="6.61312404088676">
        <ele>191.44</ele>
        <time>2025-05-18T10:56:11Z</time>
      </trkpt>
      <trkpt lat="43.579801004379988" lon="6.613304000347853">
        <ele>191.44</ele>
        <time>2025-05-18T10:56:12Z</time>
      </trkpt>
      <trkpt lat="43.579789018258452" lon="6.613498963415623">
        <ele>191.44</ele>
        <time>2025-05-18T10:56:13Z</time>
      </trkpt>
      <trkpt lat="43.579740989953279" lon="6.613687975332141">
        <ele>191.91999999999999</ele>
        <time>2025-05-18T10:56:14Z</time>
      </trkpt>
      <trkpt lat="43.579636970534921" lon="6.613867012783885">
        <ele>192.88</ele>
        <time>2025-05-18T10:56:15Z</time>
      </trkpt>
      <trkpt lat="43.579523982480168" lon="6.614059964194894">
        <ele>193.84</ele>
        <time>2025-05-18T10:56:16Z</time>
      </trkpt>
      <trkpt lat="43.578919982537627" lon="6.615564012899995">
        <ele>199.13</ele>
        <time>2025-05-18T10:56:22Z</time>
      </trkpt>
      <trkpt lat="43.578652013093233" lon="6.616664975881577">
        <ele>203.46000000000001</ele>
        <time>2025-05-18T10:56:26Z</time>
      </trkpt>
      <trkpt lat="43.578643966466188" lon="6.616910984739661">
        <ele>204.41999999999999</ele>
        <time>2025-05-18T10:56:27Z</time>
      </trkpt>
      <trkpt lat="43.578643966466188" lon="6.617132015526295">
        <ele>205.38</ele>
        <time>2025-05-18T10:56:28Z</time>
      </trkpt>
      <trkpt lat="43.578643966466188" lon="6.617327984422445">
        <ele>205.86000000000001</ele>
        <time>2025-05-18T10:56:29Z</time>
      </trkpt>
      <trkpt lat="43.578594010323286" lon="6.617479026317596">
        <ele>205.86000000000001</ele>
        <time>2025-05-18T10:56:30Z</time>
      </trkpt>
      <trkpt lat="43.578525027260184" lon="6.617582961916924">
        <ele>206.34</ele>
        <time>2025-05-18T10:56:31Z</time>
      </trkpt>
      <trkpt lat="43.578418996185064" lon="6.617628978565335">
        <ele>206.81999999999999</ele>
        <time>2025-05-18T10:56:32Z</time>
      </trkpt>
      <trkpt lat="43.578294022008777" lon="6.617645993828774">
        <ele>207.30000000000001</ele>
        <time>2025-05-18T10:56:33Z</time>
      </trkpt>
      <trkpt lat="43.578147003427148" lon="6.617630990222096">
        <ele>208.25999999999999</ele>
        <time>2025-05-18T10:56:34Z</time>
      </trkpt>
      <trkpt lat="43.577984981238842" lon="6.617612969130278">
        <ele>208.74000000000001</ele>
        <time>2025-05-18T10:56:35Z</time>
      </trkpt>
      <trkpt lat="43.577812984585762" lon="6.617676001042128">
        <ele>210.19</ele>
        <time>2025-05-18T10:56:36Z</time>
      </trkpt>
      <trkpt lat="43.57763696461916" lon="6.617768034338951">
        <ele>211.15000000000001</ele>
        <time>2025-05-18T10:56:37Z</time>
      </trkpt>
      <trkpt lat="43.577455999329686" lon="6.617876999080181">
        <ele>212.11000000000001</ele>
        <time>2025-05-18T10:56:38Z</time>
      </trkpt>
      <trkpt lat="43.57727101072669" lon="6.617991998791695">
        <ele>213.55000000000001</ele>
        <time>2025-05-18T10:56:39Z</time>
      </trkpt>
      <trkpt lat="43.577103037387133" lon="6.618122002109885">
        <ele>214.50999999999999</ele>
        <time>2025-05-18T10:56:40Z</time>
      </trkpt>
      <trkpt lat="43.5769700165838" lon="6.618313025683165">
        <ele>215.47</ele>
        <time>2025-05-18T10:56:41Z</time>
      </trkpt>
      <trkpt lat="43.576851999387145" lon="6.618521986529231">
        <ele>216.91</ele>
        <time>2025-05-18T10:56:42Z</time>
      </trkpt>
      <trkpt lat="43.576310025528073" lon="6.619766028597951">
        <ele>221.72</ele>
        <time>2025-05-18T10:56:47Z</time>
      </trkpt>
      <trkpt lat="43.576140040531754" lon="6.620245976373553">
        <ele>223.63999999999999</ele>
        <time>2025-05-18T10:56:49Z</time>
      </trkpt>
      <trkpt lat="43.576049013063312" lon="6.620471030473709">
        <ele>224.61000000000001</ele>
        <time>2025-05-18T10:56:50Z</time>
      </trkpt>
      <trkpt lat="43.575910963118076" lon="6.620654007419944">
        <ele>226.05000000000001</ele>
        <time>2025-05-18T10:56:51Z</time>
      </trkpt>
      <trkpt lat="43.575740978121758" lon="6.620794991031289">
        <ele>227.00999999999999</ele>
        <time>2025-05-18T10:56:52Z</time>
      </trkpt>
      <trkpt lat="43.575559007003903" lon="6.6209049616009">
        <ele>228.44999999999999</ele>
        <time>2025-05-18T10:56:53Z</time>
      </trkpt>
      <trkpt lat="43.575383992865682" lon="6.620996994897723">
        <ele>229.41</ele>
        <time>2025-05-18T10:56:54Z</time>
      </trkpt>
      <trkpt lat="43.575219037011266" lon="6.621102020144463">
        <ele>230.84999999999999</ele>
        <time>2025-05-18T10:56:55Z</time>
      </trkpt>
      <trkpt lat="43.575064977630973" lon="6.621218025684357">
        <ele>232.30000000000001</ele>
        <time>2025-05-18T10:56:56Z</time>
      </trkpt>
      <trkpt lat="43.57495098374784" lon="6.621353980153799">
        <ele>233.25999999999999</ele>
        <time>2025-05-18T10:56:57Z</time>
      </trkpt>
      <trkpt lat="43.574894992634654" lon="6.621489012613893">
        <ele>233.74000000000001</ele>
        <time>2025-05-18T10:56:58Z</time>
      </trkpt>
      <trkpt lat="43.574868002906442" lon="6.621623039245606">
        <ele>234.22</ele>
        <time>2025-05-18T10:56:59Z</time>
      </trkpt>
      <trkpt lat="43.574903961271048" lon="6.621714988723397">
        <ele>235.18000000000001</ele>
        <time>2025-05-18T10:57:00Z</time>
      </trkpt>
      <trkpt lat="43.574976967647672" lon="6.621769974008203">
        <ele>235.66</ele>
        <time>2025-05-18T10:57:01Z</time>
      </trkpt>
      <trkpt lat="43.575063971802592" lon="6.621769974008203">
        <ele>236.13999999999999</ele>
        <time>2025-05-18T10:57:02Z</time>
      </trkpt>
      <trkpt lat="43.575172014534473" lon="6.621712977066636">
        <ele>237.09999999999999</ele>
        <time>2025-05-18T10:57:03Z</time>
      </trkpt>
      <trkpt lat="43.575293971225619" lon="6.621647011488676">
        <ele>238.06</ele>
        <time>2025-05-18T10:57:04Z</time>
      </trkpt>
      <trkpt lat="43.575435960665345" lon="6.62161398679018">
        <ele>239.02000000000001</ele>
        <time>2025-05-18T10:57:05Z</time>
      </trkpt>
      <trkpt lat="43.575598988682032" lon="6.621599989011884">
        <ele>239.50999999999999</ele>
        <time>2025-05-18T10:57:06Z</time>
      </trkpt>
      <trkpt lat="43.575769979506731" lon="6.621583979576826">
        <ele>240.47</ele>
        <time>2025-05-18T10:57:07Z</time>
      </trkpt>
      <trkpt lat="43.575952034443617" lon="6.621580040082336">
        <ele>241.43000000000001</ele>
        <time>2025-05-18T10:57:08Z</time>
      </trkpt>
      <trkpt lat="43.576151020824909" lon="6.621577022597194">
        <ele>242.87</ele>
        <time>2025-05-18T10:57:09Z</time>
      </trkpt>
      <trkpt lat="43.577000023797154" lon="6.62150401622057">
        <ele>248.63999999999999</ele>
        <time>2025-05-18T10:57:13Z</time>
      </trkpt>
      <trkpt lat="43.578757960349321" lon="6.621082993224263">
        <ele>260.64999999999998</ele>
        <time>2025-05-18T10:57:21Z</time>
      </trkpt>
      <trkpt lat="43.579478971660137" lon="6.620818041265011">
        <ele>265.94</ele>
        <time>2025-05-18T10:57:25Z</time>
      </trkpt>
      <trkpt lat="43.579638982191682" lon="6.620849976316094">
        <ele>267.38</ele>
        <time>2025-05-18T10:57:26Z</time>
      </trkpt>
      <trkpt lat="43.579796981066465" lon="6.620900016278029">
        <ele>268.35000000000002</ele>
        <time>2025-05-18T10:57:27Z</time>
      </trkpt>
      <trkpt lat="43.579925978556275" lon="6.621019039303064">
        <ele>269.31</ele>
        <time>2025-05-18T10:57:28Z</time>
      </trkpt>
      <trkpt lat="43.580053970217705" lon="6.621187012642622">
        <ele>270.26999999999998</ele>
        <time>2025-05-18T10:57:29Z</time>
      </trkpt>
      <trkpt lat="43.580166036263108" lon="6.621387004852295">
        <ele>271.23000000000002</ele>
        <time>2025-05-18T10:57:30Z</time>
      </trkpt>
      <trkpt lat="43.580259997397661" lon="6.621629996225238">
        <ele>272.19</ele>
        <time>2025-05-18T10:57:31Z</time>
      </trkpt>
      <trkpt lat="43.580358987674117" lon="6.621883967891336">
        <ele>273.14999999999998</ele>
        <time>2025-05-18T10:57:32Z</time>
      </trkpt>
      <trkpt lat="43.580422019585967" lon="6.622155038639903">
        <ele>274.11000000000001</ele>
        <time>2025-05-18T10:57:33Z</time>
      </trkpt>
      <trkpt lat="43.58047298155725" lon="6.622424013912678">
        <ele>275.06999999999999</ele>
        <time>2025-05-18T10:57:34Z</time>
      </trkpt>
      <trkpt lat="43.580521009862423" lon="6.622678991407156">
        <ele>276.04000000000002</ele>
        <time>2025-05-18T10:57:35Z</time>
      </trkpt>
      <trkpt lat="43.580624023452401" lon="6.623228006064892">
        <ele>276.51999999999998</ele>
        <time>2025-05-18T10:57:37Z</time>
      </trkpt>
      <trkpt lat="43.580695018172264" lon="6.623496981337667">
        <ele>276.04000000000002</ele>
        <time>2025-05-18T10:57:38Z</time>
      </trkpt>
      <trkpt lat="43.58081697486341" lon="6.623754976317287">
        <ele>275.56</ele>
        <time>2025-05-18T10:57:39Z</time>
      </trkpt>
      <trkpt lat="43.581062983721495" lon="6.624300973489881">
        <ele>273.63</ele>
        <time>2025-05-18T10:57:41Z</time>
      </trkpt>
      <trkpt lat="43.581156022846699" lon="6.624590987339616">
        <ele>272.19</ele>
        <time>2025-05-18T10:57:42Z</time>
      </trkpt>
      <trkpt lat="43.58120103366673" lon="6.624906985089183">
        <ele>271.23000000000002</ele>
        <time>2025-05-18T10:57:43Z</time>
      </trkpt>
      <trkpt lat="43.581228023394942" lon="6.625217031687498">
        <ele>270.75</ele>
        <time>2025-05-18T10:57:44Z</time>
      </trkpt>
      <trkpt lat="43.581254007294774" lon="6.625518025830388">
        <ele>270.26999999999998</ele>
        <time>2025-05-18T10:57:45Z</time>
      </trkpt>
      <trkpt lat="43.581306980922818" lon="6.625804016366601">
        <ele>269.79000000000002</ele>
        <time>2025-05-18T10:57:46Z</time>
      </trkpt>
      <trkpt lat="43.581372024491429" lon="6.62608003243804">
        <ele>268.82999999999998</ele>
        <time>2025-05-18T10:57:47Z</time>
      </trkpt>
      <trkpt lat="43.581432960927486" lon="6.62633903324604">
        <ele>267.86000000000001</ele>
        <time>2025-05-18T10:57:48Z</time>
      </trkpt>
      <trkpt lat="43.581421980634332" lon="6.626600967720151">
        <ele>267.38</ele>
        <time>2025-05-18T10:57:49Z</time>
      </trkpt>
      <trkpt lat="43.581402031704783" lon="6.626842031255364">
        <ele>266.89999999999998</ele>
        <time>2025-05-18T10:57:50Z</time>
      </trkpt>
      <trkpt lat="43.581317961215973" lon="6.627050992101431">
        <ele>266.42000000000002</ele>
        <time>2025-05-18T10:57:51Z</time>
      </trkpt>
      <trkpt lat="43.581216037273407" lon="6.627262970432639">
        <ele>266.42000000000002</ele>
        <time>2025-05-18T10:57:52Z</time>
      </trkpt>
      <trkpt lat="43.581101037561893" lon="6.627476960420609">
        <ele>266.42000000000002</ele>
        <time>2025-05-18T10:57:53Z</time>
      </trkpt>
      <trkpt lat="43.580982014536858" lon="6.627696985378861">
        <ele>266.42000000000002</ele>
        <time>2025-05-18T10:57:54Z</time>
      </trkpt>
      <trkpt lat="43.580861985683441" lon="6.627921033650637">
        <ele>266.89999999999998</ele>
        <time>2025-05-18T10:57:55Z</time>
      </trkpt>
      <trkpt lat="43.580775987356901" lon="6.628175005316734">
        <ele>267.86000000000001</ele>
        <time>2025-05-18T10:57:56Z</time>
      </trkpt>
      <trkpt lat="43.580530984327197" lon="6.629222994670272">
        <ele>271.23000000000002</ele>
        <time>2025-05-18T10:58:00Z</time>
      </trkpt>
      <trkpt lat="43.580495025962591" lon="6.629504039883614">
        <ele>271.23000000000002</ele>
        <time>2025-05-18T10:58:01Z</time>
      </trkpt>
      <trkpt lat="43.580252034589648" lon="6.63229102268815">
        <ele>271.70999999999998</ele>
        <time>2025-05-18T10:58:10Z</time>
      </trkpt>
      <trkpt lat="43.580161007121205" lon="6.633917028084397">
        <ele>271.70999999999998</ele>
        <time>2025-05-18T10:58:16Z</time>
      </trkpt>
      <trkpt lat="43.580194031819701" lon="6.634163036942482">
        <ele>270.75</ele>
        <time>2025-05-18T10:58:17Z</time>
      </trkpt>
      <trkpt lat="43.580267038196325" lon="6.634420026093721">
        <ele>270.26999999999998</ele>
        <time>2025-05-18T10:58:18Z</time>
      </trkpt>
      <trkpt lat="43.580337027087808" lon="6.634670980274677">
        <ele>269.79000000000002</ele>
        <time>2025-05-18T10:58:19Z</time>
      </trkpt>
      <trkpt lat="43.580425959080458" lon="6.634885976091027">
        <ele>269.79000000000002</ele>
        <time>2025-05-18T10:58:20Z</time>
      </trkpt>
      <trkpt lat="43.580524027347565" lon="6.635080017149448">
        <ele>269.79000000000002</ele>
        <time>2025-05-18T10:58:21Z</time>
      </trkpt>
      <trkpt lat="43.580627040937543" lon="6.635221000760794">
        <ele>269.79000000000002</ele>
        <time>2025-05-18T10:58:22Z</time>
      </trkpt>
      <trkpt lat="43.580758972093463" lon="6.635316973552108">
        <ele>269.79000000000002</ele>
        <time>2025-05-18T10:58:23Z</time>
      </trkpt>
      <trkpt lat="43.580897022038698" lon="6.635365001857281">
        <ele>269.79000000000002</ele>
        <time>2025-05-18T10:58:24Z</time>
      </trkpt>
      <trkpt lat="43.58107496984303" lon="6.6353830229491">
        <ele>269.79000000000002</ele>
        <time>2025-05-18T10:58:25Z</time>
      </trkpt>
      <trkpt lat="43.581270016729832" lon="6.635402971878648">
        <ele>269.31</ele>
        <time>2025-05-18T10:58:26Z</time>
      </trkpt>
      <trkpt lat="43.581662960350513" lon="6.635452006012201">
        <ele>267.86000000000001</ele>
        <time>2025-05-18T10:58:28Z</time>
      </trkpt>
      <trkpt lat="43.581820959225297" lon="6.63555895909667">
        <ele>266.89999999999998</ele>
        <time>2025-05-18T10:58:29Z</time>
      </trkpt>
      <trkpt lat="43.58197602443397" lon="6.63566499017179">
        <ele>265.94</ele>
        <time>2025-05-18T10:58:30Z</time>
      </trkpt>
      <trkpt lat="43.582120025530457" lon="6.635763980448246">
        <ele>264.98000000000002</ele>
        <time>2025-05-18T10:58:31Z</time>
      </trkpt>
      <trkpt lat="43.582317000254989" lon="6.635852996259928">
        <ele>264.01999999999998</ele>
        <time>2025-05-18T10:58:32Z</time>
      </trkpt>
      <trkpt lat="43.582511963322759" lon="6.635941006243229">
        <ele>262.57999999999998</ele>
        <time>2025-05-18T10:58:33Z</time>
      </trkpt>
      <trkpt lat="43.582708016037941" lon="6.636030022054911">
        <ele>261.13999999999999</ele>
        <time>2025-05-18T10:58:34Z</time>
      </trkpt>
      <trkpt lat="43.583075981587172" lon="6.636195983737707">
        <ele>259.69</ele>
        <time>2025-05-18T10:58:36Z</time>
      </trkpt>
      <trkpt lat="43.583248984068632" lon="6.636275025084615">
        <ele>259.20999999999998</ele>
        <time>2025-05-18T10:58:37Z</time>
      </trkpt>
      <trkpt lat="43.583423998206854" lon="6.636239988729358">
        <ele>258.25</ele>
        <time>2025-05-18T10:58:38Z</time>
      </trkpt>
      <trkpt lat="43.583603035658598" lon="6.636196989566088">
        <ele>256.81</ele>
        <time>2025-05-18T10:58:39Z</time>
      </trkpt>
      <trkpt lat="43.583770003169775" lon="6.636088024824858">
        <ele>255.84999999999999</ele>
        <time>2025-05-18T10:58:40Z</time>
      </trkpt>
      <trkpt lat="43.583948034793139" lon="6.635961961001158">
        <ele>254.41</ele>
        <time>2025-05-18T10:58:41Z</time>
      </trkpt>
      <trkpt lat="43.584137968719006" lon="6.635827012360096">
        <ele>252.96000000000001</ele>
        <time>2025-05-18T10:58:42Z</time>
      </trkpt>
      <trkpt lat="43.585841003805399" lon="6.634167982265353">
        <ele>241.43000000000001</ele>
        <time>2025-05-18T10:58:52Z</time>
      </trkpt>
      <trkpt lat="43.585995985195041" lon="6.634011995047331">
        <ele>240.47</ele>
        <time>2025-05-18T10:58:53Z</time>
      </trkpt>
      <trkpt lat="43.586178962141275" lon="6.633917028084397">
        <ele>239.50999999999999</ele>
        <time>2025-05-18T10:58:54Z</time>
      </trkpt>
      <trkpt lat="43.586354982107878" lon="6.633887020871043">
        <ele>239.02000000000001</ele>
        <time>2025-05-18T10:58:55Z</time>
      </trkpt>
      <trkpt lat="43.586536031216383" lon="6.633909987285733">
        <ele>238.06</ele>
        <time>2025-05-18T10:58:56Z</time>
      </trkpt>
      <trkpt lat="43.586718002334237" lon="6.633932031691074">
        <ele>237.58000000000001</ele>
        <time>2025-05-18T10:58:57Z</time>
      </trkpt>
      <trkpt lat="43.586873989552259" lon="6.634019035845995">
        <ele>236.62</ele>
        <time>2025-05-18T10:58:58Z</time>
      </trkpt>
      <trkpt lat="43.587018996477127" lon="6.634136969223619">
        <ele>235.66</ele>
        <time>2025-05-18T10:58:59Z</time>
      </trkpt>
      <trkpt lat="43.587148999795318" lon="6.634273007512093">
        <ele>234.69999999999999</ele>
        <time>2025-05-18T10:59:00Z</time>
      </trkpt>
      <trkpt lat="43.587241033092141" lon="6.634449027478695">
        <ele>233.74000000000001</ele>
        <time>2025-05-18T10:59:01Z</time>
      </trkpt>
      <trkpt lat="43.587334994226694" lon="6.634625969454646">
        <ele>232.78</ele>
        <time>2025-05-18T10:59:02Z</time>
      </trkpt>
      <trkpt lat="43.587377993389964" lon="6.634820010513067">
        <ele>231.81</ele>
        <time>2025-05-18T10:59:03Z</time>
      </trkpt>
      <trkpt lat="43.587343962863088" lon="6.63497700355947">
        <ele>230.84999999999999</ele>
        <time>2025-05-18T10:59:04Z</time>
      </trkpt>
      <trkpt lat="43.587291995063424" lon="6.635227035731077">
        <ele>229.88999999999999</ele>
        <time>2025-05-18T10:59:05Z</time>
      </trkpt>
      <trkpt lat="43.587216977030039" lon="6.635400960221887">
        <ele>229.41</ele>
        <time>2025-05-18T10:59:06Z</time>
      </trkpt>
      <trkpt lat="43.587124021723866" lon="6.635614028200507">
        <ele>229.41</ele>
        <time>2025-05-18T10:59:07Z</time>
      </trkpt>
      <trkpt lat="43.586614988744259" lon="6.636791015043855">
        <ele>229.41</ele>
        <time>2025-05-18T10:59:12Z</time>
      </trkpt>
      <trkpt lat="43.586571989580989" lon="6.637070970609784">
        <ele>229.88999999999999</ele>
        <time>2025-05-18T10:59:13Z</time>
      </trkpt>
      <trkpt lat="43.586540976539254" lon="6.637341035529971">
        <ele>230.37</ele>
        <time>2025-05-18T10:59:14Z</time>
      </trkpt>
      <trkpt lat="43.586546005681157" lon="6.637602970004082">
        <ele>231.33000000000001</ele>
        <time>2025-05-18T10:59:15Z</time>
      </trkpt>
      <trkpt lat="43.586580036208034" lon="6.637837998569012">
        <ele>232.30000000000001</ele>
        <time>2025-05-18T10:59:16Z</time>
      </trkpt>
      <trkpt lat="43.586669974029064" lon="6.638029022142291">
        <ele>233.25999999999999</ele>
        <time>2025-05-18T10:59:17Z</time>
      </trkpt>
      <trkpt lat="43.586763013154268" lon="6.638204958289862">
        <ele>234.69999999999999</ele>
        <time>2025-05-18T10:59:18Z</time>
      </trkpt>
      <trkpt lat="43.58689796179533" lon="6.638320041820407">
        <ele>235.66</ele>
        <time>2025-05-18T10:59:19Z</time>
      </trkpt>
      <trkpt lat="43.587039029225707" lon="6.638423977419734">
        <ele>236.62</ele>
        <time>2025-05-18T10:59:20Z</time>
      </trkpt>
      <trkpt lat="43.587184958159924" lon="6.638484997674823">
        <ele>237.58000000000001</ele>
        <time>2025-05-18T10:59:21Z</time>
      </trkpt>
      <trkpt lat="43.587345974519849" lon="6.638519028201699">
        <ele>238.53999999999999</ele>
        <time>2025-05-18T10:59:22Z</time>
      </trkpt>
      <trkpt lat="43.587493998929858" lon="6.638550041243434">
        <ele>239.50999999999999</ele>
        <time>2025-05-18T10:59:23Z</time>
      </trkpt>
      <trkpt lat="43.587600030004978" lon="6.638661017641425">
        <ele>240.47</ele>
        <time>2025-05-18T10:59:24Z</time>
      </trkpt>
      <trkpt lat="43.587673958390951" lon="6.638788003474474">
        <ele>241.91</ele>
        <time>2025-05-18T10:59:25Z</time>
      </trkpt>
      <trkpt lat="43.587716035544872" lon="6.638941979035735">
        <ele>242.87</ele>
        <time>2025-05-18T10:59:26Z</time>
      </trkpt>
      <trkpt lat="43.587710000574589" lon="6.639099977910519">
        <ele>243.83000000000001</ele>
        <time>2025-05-18T10:59:27Z</time>
      </trkpt>
      <trkpt lat="43.587684016674757" lon="6.639283960685134">
        <ele>245.27000000000001</ele>
        <time>2025-05-18T10:59:28Z</time>
      </trkpt>
      <trkpt lat="43.587619978934526" lon="6.639464003965259">
        <ele>246.22999999999999</ele>
        <time>2025-05-18T10:59:29Z</time>
      </trkpt>
      <trkpt lat="43.587480001151562" lon="6.639860970899463">
        <ele>248.63999999999999</ele>
        <time>2025-05-18T10:59:31Z</time>
      </trkpt>
      <trkpt lat="43.587429039180279" lon="6.640086024999619">
        <ele>249.59999999999999</ele>
        <time>2025-05-18T10:59:32Z</time>
      </trkpt>
      <trkpt lat="43.587403977289796" lon="6.640324993059039">
        <ele>250.56</ele>
        <time>2025-05-18T10:59:33Z</time>
      </trkpt>
      <trkpt lat="43.587287971749902" lon="6.641069976612926">
        <ele>252.96000000000001</ele>
        <time>2025-05-18T10:59:36Z</time>
      </trkpt>
      <trkpt lat="43.587189987301826" lon="6.641297964379191">
        <ele>252.96000000000001</ele>
        <time>2025-05-18T10:59:37Z</time>
      </trkpt>
      <trkpt lat="43.587078005075455" lon="6.641503991559148">
        <ele>253.44</ele>
        <time>2025-05-18T10:59:38Z</time>
      </trkpt>
      <trkpt lat="43.586958982050419" lon="6.641700966283679">
        <ele>253.93000000000001</ele>
        <time>2025-05-18T10:59:39Z</time>
      </trkpt>
      <trkpt lat="43.586821015924215" lon="6.641855025663972">
        <ele>254.41</ele>
        <time>2025-05-18T10:59:40Z</time>
      </trkpt>
      <trkpt lat="43.586211986839771" lon="6.642837971448898">
        <ele>258.73000000000002</ele>
        <time>2025-05-18T10:59:46Z</time>
      </trkpt>
      <trkpt lat="43.585416963323951" lon="6.644489038735628">
        <ele>257.29000000000002</ele>
        <time>2025-05-18T10:59:54Z</time>
      </trkpt>
      <trkpt lat="43.58496299944818" lon="6.645530993118882">
        <ele>254.88999999999999</ele>
        <time>2025-05-18T10:59:59Z</time>
      </trkpt>
      <trkpt lat="43.584921006113291" lon="6.645767027512193">
        <ele>254.41</ele>
        <time>2025-05-18T11:00:00Z</time>
      </trkpt>
      <trkpt lat="43.584901979193091" lon="6.6459980327636">
        <ele>253.93000000000001</ele>
        <time>2025-05-18T11:00:01Z</time>
      </trkpt>
      <trkpt lat="43.584803994745016" lon="6.647406024858356">
        <ele>250.56</ele>
        <time>2025-05-18T11:00:07Z</time>
      </trkpt>
      <trkpt lat="43.584849005565047" lon="6.647615991532803">
        <ele>249.59999999999999</ele>
        <time>2025-05-18T11:00:08Z</time>
      </trkpt>
      <trkpt lat="43.584912037476897" lon="6.647827969864011">
        <ele>249.12</ele>
        <time>2025-05-18T11:00:09Z</time>
      </trkpt>
      <trkpt lat="43.585034999996424" lon="6.648243041709065">
        <ele>247.68000000000001</ele>
        <time>2025-05-18T11:00:11Z</time>
      </trkpt>
      <trkpt lat="43.585082022473216" lon="6.648458037525415">
        <ele>247.19999999999999</ele>
        <time>2025-05-18T11:00:12Z</time>
      </trkpt>
      <trkpt lat="43.585082022473216" lon="6.648676972836256">
        <ele>246.22999999999999</ele>
        <time>2025-05-18T11:00:13Z</time>
      </trkpt>
      <trkpt lat="43.585082022473216" lon="6.648903032764792">
        <ele>245.27000000000001</ele>
        <time>2025-05-18T11:00:14Z</time>
      </trkpt>
      <trkpt lat="43.585041034966707" lon="6.649149041622877">
        <ele>244.31</ele>
        <time>2025-05-18T11:00:15Z</time>
      </trkpt>
      <trkpt lat="43.584997029975057" lon="6.649398989975452">
        <ele>242.87</ele>
        <time>2025-05-18T11:00:16Z</time>
      </trkpt>
      <trkpt lat="43.584864009171724" lon="6.650186972692609">
        <ele>239.50999999999999</ele>
        <time>2025-05-18T11:00:19Z</time>
      </trkpt>
      <trkpt lat="43.584845988079906" lon="6.650452008470893">
        <ele>238.06</ele>
        <time>2025-05-18T11:00:20Z</time>
      </trkpt>
      <trkpt lat="43.584882030263543" lon="6.650706985965371">
        <ele>237.09999999999999</ele>
        <time>2025-05-18T11:00:21Z</time>
      </trkpt>
      <trkpt lat="43.58491899445653" lon="6.650948971509934">
        <ele>236.13999999999999</ele>
        <time>2025-05-18T11:00:22Z</time>
      </trkpt>
      <trkpt lat="43.584972973912954" lon="6.651191962882876">
        <ele>235.66</ele>
        <time>2025-05-18T11:00:23Z</time>
      </trkpt>
      <trkpt lat="43.585075987502933" lon="6.651409976184368">
        <ele>235.18000000000001</ele>
        <time>2025-05-18T11:00:24Z</time>
      </trkpt>
      <trkpt lat="43.585170032456517" lon="6.65162798948586">
        <ele>235.18000000000001</ele>
        <time>2025-05-18T11:00:25Z</time>
      </trkpt>
      <trkpt lat="43.585254019126296" lon="6.651836028322578">
        <ele>234.69999999999999</ele>
        <time>2025-05-18T11:00:26Z</time>
      </trkpt>
      <trkpt lat="43.585339011624455" lon="6.652050018310547">
        <ele>234.22</ele>
        <time>2025-05-18T11:00:27Z</time>
      </trkpt>
      <trkpt lat="43.585375975817442" lon="6.652271971106529">
        <ele>234.22</ele>
        <time>2025-05-18T11:00:28Z</time>
      </trkpt>
      <trkpt lat="43.585400031879544" lon="6.652524014934897">
        <ele>234.22</ele>
        <time>2025-05-18T11:00:29Z</time>
      </trkpt>
      <trkpt lat="43.585390979424119" lon="6.652792990207672">
        <ele>234.22</ele>
        <time>2025-05-18T11:00:30Z</time>
      </trkpt>
      <trkpt lat="43.585366001352668" lon="6.655518030747771">
        <ele>237.58000000000001</ele>
        <time>2025-05-18T11:00:39Z</time>
      </trkpt>
      <trkpt lat="43.58534898608923" lon="6.657307986170054">
        <ele>239.50999999999999</ele>
        <time>2025-05-18T11:00:45Z</time>
      </trkpt>
      <trkpt lat="43.585304981097579" lon="6.657578973099589">
        <ele>240.47</ele>
        <time>2025-05-18T11:00:46Z</time>
      </trkpt>
      <trkpt lat="43.585218982771039" lon="6.657826993614435">
        <ele>240.94999999999999</ele>
        <time>2025-05-18T11:00:47Z</time>
      </trkpt>
      <trkpt lat="43.585122004151344" lon="6.658071996644139">
        <ele>241.43000000000001</ele>
        <time>2025-05-18T11:00:48Z</time>
      </trkpt>
      <trkpt lat="43.584980014711618" lon="6.658277017995715">
        <ele>241.91</ele>
        <time>2025-05-18T11:00:49Z</time>
      </trkpt>
      <trkpt lat="43.584840036928654" lon="6.658479021862149">
        <ele>242.87</ele>
        <time>2025-05-18T11:00:50Z</time>
      </trkpt>
      <trkpt lat="43.584708021953702" lon="6.658666022121906">
        <ele>243.34999999999999</ele>
        <time>2025-05-18T11:00:51Z</time>
      </trkpt>
      <trkpt lat="43.584612971171737" lon="6.658871965482831">
        <ele>244.31</ele>
        <time>2025-05-18T11:00:52Z</time>
      </trkpt>
      <trkpt lat="43.584548011422157" lon="6.659080004319549">
        <ele>244.78999999999999</ele>
        <time>2025-05-18T11:00:53Z</time>
      </trkpt>
      <trkpt lat="43.584564020857215" lon="6.659292988479137">
        <ele>245.27000000000001</ele>
        <time>2025-05-18T11:00:54Z</time>
      </trkpt>
      <trkpt lat="43.584581036120653" lon="6.659478982910514">
        <ele>246.22999999999999</ele>
        <time>2025-05-18T11:00:55Z</time>
      </trkpt>
      <trkpt lat="43.584622023627162" lon="6.659655002877116">
        <ele>246.72</ele>
        <time>2025-05-18T11:00:56Z</time>
      </trkpt>
      <trkpt lat="43.58470500446856" lon="6.659826999530196">
        <ele>247.19999999999999</ele>
        <time>2025-05-18T11:00:57Z</time>
      </trkpt>
      <trkpt lat="43.584841964766383" lon="6.659951973706484">
        <ele>248.16</ele>
        <time>2025-05-18T11:00:58Z</time>
      </trkpt>
      <trkpt lat="43.585003986954689" lon="6.660062028095126">
        <ele>249.59999999999999</ele>
        <time>2025-05-18T11:00:59Z</time>
      </trkpt>
      <trkpt lat="43.585165003314614" lon="6.660171998664737">
        <ele>250.56</ele>
        <time>2025-05-18T11:01:00Z</time>
      </trkpt>
      <trkpt lat="43.58528696000576" lon="6.660274006426334">
        <ele>251.52000000000001</ele>
        <time>2025-05-18T11:01:01Z</time>
      </trkpt>
      <trkpt lat="43.585350997745991" lon="6.660418007522821">
        <ele>252</ele>
        <time>2025-05-18T11:01:02Z</time>
      </trkpt>
      <trkpt lat="43.585352003574371" lon="6.660562008619309">
        <ele>252.96000000000001</ele>
        <time>2025-05-18T11:01:03Z</time>
      </trkpt>
      <trkpt lat="43.585339011624455" lon="6.660740040242672">
        <ele>253.44</ele>
        <time>2025-05-18T11:01:04Z</time>
      </trkpt>
      <trkpt lat="43.585246978327632" lon="6.660869037732482">
        <ele>253.93000000000001</ele>
        <time>2025-05-18T11:01:05Z</time>
      </trkpt>
      <trkpt lat="43.585146982222795" lon="6.661009015515447">
        <ele>254.41</ele>
        <time>2025-05-18T11:01:06Z</time>
      </trkpt>
      <trkpt lat="43.585042962804437" lon="6.661154022440314">
        <ele>255.37</ele>
        <time>2025-05-18T11:01:07Z</time>
      </trkpt>
      <trkpt lat="43.584821010008454" lon="6.661465996876359">
        <ele>256.81</ele>
        <time>2025-05-18T11:01:09Z</time>
      </trkpt>
      <trkpt lat="43.584740040823817" lon="6.661677975207567">
        <ele>257.76999999999998</ele>
        <time>2025-05-18T11:01:10Z</time>
      </trkpt>
      <trkpt lat="43.584670973941684" lon="6.661913003772497">
        <ele>259.20999999999998</ele>
        <time>2025-05-18T11:01:11Z</time>
      </trkpt>
      <trkpt lat="43.584645995870233" lon="6.66217502206564">
        <ele>260.17000000000002</ele>
        <time>2025-05-18T11:01:12Z</time>
      </trkpt>
      <trkpt lat="43.584621017798781" lon="6.662449026480317">
        <ele>261.13999999999999</ele>
        <time>2025-05-18T11:01:13Z</time>
      </trkpt>
      <trkpt lat="43.584472993388772" lon="6.663845032453537">
        <ele>265.94</ele>
        <time>2025-05-18T11:01:18Z</time>
      </trkpt>
      <trkpt lat="43.584413984790444" lon="6.664061034098268">
        <ele>266.42000000000002</ele>
        <time>2025-05-18T11:01:19Z</time>
      </trkpt>
      <trkpt lat="43.584332009777427" lon="6.664238981902599">
        <ele>267.38</ele>
        <time>2025-05-18T11:01:20Z</time>
      </trkpt>
      <trkpt lat="43.584239976480603" lon="6.664393041282892">
        <ele>268.82999999999998</ele>
        <time>2025-05-18T11:01:21Z</time>
      </trkpt>
      <trkpt lat="43.584129000082612" lon="6.664513992145658">
        <ele>269.79000000000002</ele>
        <time>2025-05-18T11:01:22Z</time>
      </trkpt>
      <trkpt lat="43.584014000371099" lon="6.664637960493565">
        <ele>270.75</ele>
        <time>2025-05-18T11:01:23Z</time>
      </trkpt>
      <trkpt lat="43.583897994831204" lon="6.664763018488884">
        <ele>271.70999999999998</ele>
        <time>2025-05-18T11:01:24Z</time>
      </trkpt>
      <trkpt lat="43.583681993186474" lon="6.664997041225433">
        <ele>273.63</ele>
        <time>2025-05-18T11:01:26Z</time>
      </trkpt>
      <trkpt lat="43.583401031792164" lon="6.665368024259806">
        <ele>276.04000000000002</ele>
        <time>2025-05-18T11:01:29Z</time>
      </trkpt>
      <trkpt lat="43.583336994051933" lon="6.665525017306209">
        <ele>276.51999999999998</ele>
        <time>2025-05-18T11:01:30Z</time>
      </trkpt>
      <trkpt lat="43.583272034302354" lon="6.665686033666134">
        <ele>277</ele>
        <time>2025-05-18T11:01:31Z</time>
      </trkpt>
      <trkpt lat="43.583215037360787" lon="6.665826011449099">
        <ele>277.48000000000002</ele>
        <time>2025-05-18T11:01:32Z</time>
      </trkpt>
      <trkpt lat="43.583206990733743" lon="6.666016029193997">
        <ele>277.95999999999998</ele>
        <time>2025-05-18T11:01:33Z</time>
      </trkpt>
      <trkpt lat="43.58320003375411" lon="6.666186014190316">
        <ele>277.95999999999998</ele>
        <time>2025-05-18T11:01:34Z</time>
      </trkpt>
      <trkpt lat="43.583192992955446" lon="6.666362034156919">
        <ele>278.44</ele>
        <time>2025-05-18T11:01:35Z</time>
      </trkpt>
      <trkpt lat="43.5832230001688" lon="6.666542999446392">
        <ele>278.44</ele>
        <time>2025-05-18T11:01:36Z</time>
      </trkpt>
      <trkpt lat="43.583489041775465" lon="6.668177973479033">
        <ele>278.92000000000002</ele>
        <time>2025-05-18T11:01:43Z</time>
      </trkpt>
      <trkpt lat="43.58363295905292" lon="6.668655993416905">
        <ele>279.39999999999998</ele>
        <time>2025-05-18T11:01:45Z</time>
      </trkpt>
      <trkpt lat="43.583700014278293" lon="6.668848022818565">
        <ele>279.39999999999998</ele>
        <time>2025-05-18T11:01:46Z</time>
      </trkpt>
      <trkpt lat="43.583814008161426" lon="6.668999986723065">
        <ele>279.88</ele>
        <time>2025-05-18T11:01:47Z</time>
      </trkpt>
      <trkpt lat="43.583945017307997" lon="6.669105011969805">
        <ele>279.88</ele>
        <time>2025-05-18T11:01:48Z</time>
      </trkpt>
      <trkpt lat="43.584093041718006" lon="6.669198973104358">
        <ele>279.88</ele>
        <time>2025-05-18T11:01:49Z</time>
      </trkpt>
      <trkpt lat="43.58427501283586" lon="6.669271979480982">
        <ele>280.36000000000001</ele>
        <time>2025-05-18T11:01:50Z</time>
      </trkpt>
      <trkpt lat="43.584464024752378" lon="6.669349009171128">
        <ele>280.36000000000001</ele>
        <time>2025-05-18T11:01:51Z</time>
      </trkpt>
      <trkpt lat="43.584843976423144" lon="6.669501978904009">
        <ele>281.31999999999999</ele>
        <time>2025-05-18T11:01:53Z</time>
      </trkpt>
      <trkpt lat="43.585037011653185" lon="6.669615972787142">
        <ele>281.80000000000001</ele>
        <time>2025-05-18T11:01:54Z</time>
      </trkpt>
      <trkpt lat="43.585790041834116" lon="6.670159958302975">
        <ele>282.76999999999998</ele>
        <time>2025-05-18T11:01:58Z</time>
      </trkpt>
      <trkpt lat="43.585968995466828" lon="6.670213015750051">
        <ele>282.76999999999998</ele>
        <time>2025-05-18T11:01:59Z</time>
      </trkpt>
      <trkpt lat="43.586153984069824" lon="6.670268001034856">
        <ele>283.25</ele>
        <time>2025-05-18T11:02:00Z</time>
      </trkpt>
      <trkpt lat="43.586297985166311" lon="6.670246962457895">
        <ele>283.25</ele>
        <time>2025-05-18T11:02:01Z</time>
      </trkpt>
      <trkpt lat="43.586452966555953" lon="6.670158030465245">
        <ele>283.73000000000002</ele>
        <time>2025-05-18T11:02:02Z</time>
      </trkpt>
      <trkpt lat="43.586601996794343" lon="6.670025009661913">
        <ele>284.20999999999998</ele>
        <time>2025-05-18T11:02:03Z</time>
      </trkpt>
      <trkpt lat="43.586742980405688" lon="6.669869022443891">
        <ele>284.69</ele>
        <time>2025-05-18T11:02:04Z</time>
      </trkpt>
      <trkpt lat="43.587055960670114" lon="6.669570039957762">
        <ele>284.69</ele>
        <time>2025-05-18T11:02:06Z</time>
      </trkpt>
      <trkpt lat="43.587208008393645" lon="6.669452022761107">
        <ele>284.69</ele>
        <time>2025-05-18T11:02:07Z</time>
      </trkpt>
      <trkpt lat="43.587313033640385" lon="6.669409023597837">
        <ele>284.69</ele>
        <time>2025-05-18T11:02:08Z</time>
      </trkpt>
      <trkpt lat="43.587488969787955" lon="6.669428972527385">
        <ele>284.69</ele>
        <time>2025-05-18T11:02:09Z</time>
      </trkpt>
      <trkpt lat="43.587560970336199" lon="6.669496027752757">
        <ele>284.69</ele>
        <time>2025-05-18T11:02:10Z</time>
      </trkpt>
      <trkpt lat="43.587631965056062" lon="6.669596023857594">
        <ele>285.17000000000002</ele>
        <time>2025-05-18T11:02:11Z</time>
      </trkpt>
      <trkpt lat="43.587720980867743" lon="6.669773971661925">
        <ele>285.17000000000002</ele>
        <time>2025-05-18T11:02:12Z</time>
      </trkpt>
      <trkpt lat="43.587720980867743" lon="6.669927025213838">
        <ele>285.17000000000002</ele>
        <time>2025-05-18T11:02:13Z</time>
      </trkpt>
      <trkpt lat="43.587720980867743" lon="6.670145960524678">
        <ele>285.17000000000002</ele>
        <time>2025-05-18T11:02:14Z</time>
      </trkpt>
      <trkpt lat="43.587679993361235" lon="6.670378977432847">
        <ele>285.17000000000002</ele>
        <time>2025-05-18T11:02:15Z</time>
      </trkpt>
      <trkpt lat="43.587598018348217" lon="6.670601014047861">
        <ele>285.64999999999998</ele>
        <time>2025-05-18T11:02:16Z</time>
      </trkpt>
      <trkpt lat="43.587513025850058" lon="6.670837970450521">
        <ele>285.64999999999998</ele>
        <time>2025-05-18T11:02:17Z</time>
      </trkpt>
      <trkpt lat="43.586927969008684" lon="6.672220984473825">
        <ele>288.05000000000001</ele>
        <time>2025-05-18T11:02:23Z</time>
      </trkpt>
      <trkpt lat="43.586858985945582" lon="6.672433968633413">
        <ele>288.52999999999997</ele>
        <time>2025-05-18T11:02:24Z</time>
      </trkpt>
      <trkpt lat="43.586815986782312" lon="6.672665979713202">
        <ele>289.00999999999999</ele>
        <time>2025-05-18T11:02:25Z</time>
      </trkpt>
      <trkpt lat="43.586801989004016" lon="6.672907965257764">
        <ele>289.49000000000001</ele>
        <time>2025-05-18T11:02:26Z</time>
      </trkpt>
      <trkpt lat="43.586821015924215" lon="6.673141987994313">
        <ele>289.49000000000001</ele>
        <time>2025-05-18T11:02:27Z</time>
      </trkpt>
      <trkpt lat="43.586864015087485" lon="6.67339202016592">
        <ele>289.97000000000003</ele>
        <time>2025-05-18T11:02:28Z</time>
      </trkpt>
      <trkpt lat="43.586925035342574" lon="6.673658983781934">
        <ele>289.97000000000003</ele>
        <time>2025-05-18T11:02:29Z</time>
      </trkpt>
      <trkpt lat="43.58739098533988" lon="6.675554970279336">
        <ele>292.38</ele>
        <time>2025-05-18T11:02:36Z</time>
      </trkpt>
      <trkpt lat="43.587480001151562" lon="6.675735013559461">
        <ele>292.86000000000001</ele>
        <time>2025-05-18T11:02:37Z</time>
      </trkpt>
      <trkpt lat="43.587588965892792" lon="6.6758849658072">
        <ele>293.81999999999999</ele>
        <time>2025-05-18T11:02:38Z</time>
      </trkpt>
      <trkpt lat="43.587737996131182" lon="6.675942968577147">
        <ele>294.30000000000001</ele>
        <time>2025-05-18T11:02:39Z</time>
      </trkpt>
      <trkpt lat="43.587890965864062" lon="6.675998037680984">
        <ele>294.77999999999997</ele>
        <time>2025-05-18T11:02:40Z</time>
      </trkpt>
      <trkpt lat="43.588063968345523" lon="6.676060985773802">
        <ele>295.25999999999999</ele>
        <time>2025-05-18T11:02:41Z</time>
      </trkpt>
      <trkpt lat="43.589577991515398" lon="6.676449989899993">
        <ele>295.25999999999999</ele>
        <time>2025-05-18T11:02:49Z</time>
      </trkpt>
      <trkpt lat="43.58994897454977" lon="6.676607988774777">
        <ele>295.74000000000001</ele>
        <time>2025-05-18T11:02:51Z</time>
      </trkpt>
      <trkpt lat="43.59007503837347" lon="6.676731035113335">
        <ele>295.25999999999999</ele>
        <time>2025-05-18T11:02:52Z</time>
      </trkpt>
      <trkpt lat="43.590171011164784" lon="6.676879981532693">
        <ele>295.74000000000001</ele>
        <time>2025-05-18T11:02:53Z</time>
      </trkpt>
      <trkpt lat="43.590229013934731" lon="6.677060024812818">
        <ele>295.25999999999999</ele>
        <time>2025-05-18T11:02:54Z</time>
      </trkpt>
      <trkpt lat="43.590262038633227" lon="6.677267979830504">
        <ele>295.74000000000001</ele>
        <time>2025-05-18T11:02:55Z</time>
      </trkpt>
      <trkpt lat="43.590258015319705" lon="6.677475012838841">
        <ele>296.22000000000003</ele>
        <time>2025-05-18T11:02:56Z</time>
      </trkpt>
      <trkpt lat="43.590230019763112" lon="6.677693026140332">
        <ele>296.22000000000003</ele>
        <time>2025-05-18T11:02:57Z</time>
      </trkpt>
      <trkpt lat="43.590180985629559" lon="6.677898969501257">
        <ele>296.69999999999999</ele>
        <time>2025-05-18T11:02:58Z</time>
      </trkpt>
      <trkpt lat="43.590083001181483" lon="6.678095022216439">
        <ele>297.18000000000001</ele>
        <time>2025-05-18T11:02:59Z</time>
      </trkpt>
      <trkpt lat="43.589981999248266" lon="6.678299037739635">
        <ele>297.67000000000002</ele>
        <time>2025-05-18T11:03:00Z</time>
      </trkpt>
      <trkpt lat="43.589871022850275" lon="6.678507998585701">
        <ele>298.14999999999998</ele>
        <time>2025-05-18T11:03:01Z</time>
      </trkpt>
      <trkpt lat="43.589121010154486" lon="6.679783975705504">
        <ele>302.94999999999999</ele>
        <time>2025-05-18T11:03:07Z</time>
      </trkpt>
      <trkpt lat="43.589067030698061" lon="6.680000983178616">
        <ele>303.43000000000001</ele>
        <time>2025-05-18T11:03:08Z</time>
      </trkpt>
      <trkpt lat="43.589015984907746" lon="6.680213967338204">
        <ele>303.91000000000003</ele>
        <time>2025-05-18T11:03:09Z</time>
      </trkpt>
      <trkpt lat="43.589029982686043" lon="6.680416977033019">
        <ele>304.38999999999999</ele>
        <time>2025-05-18T11:03:10Z</time>
      </trkpt>
      <trkpt lat="43.589055966585875" lon="6.680626021698117">
        <ele>305.36000000000001</ele>
        <time>2025-05-18T11:03:11Z</time>
      </trkpt>
      <trkpt lat="43.589102989062667" lon="6.680814027786255">
        <ele>305.83999999999997</ele>
        <time>2025-05-18T11:03:12Z</time>
      </trkpt>
      <trkpt lat="43.589198039844632" lon="6.680979989469051">
        <ele>306.80000000000001</ele>
        <time>2025-05-18T11:03:13Z</time>
      </trkpt>
      <trkpt lat="43.58932301402092" lon="6.681104963645339">
        <ele>307.27999999999997</ele>
        <time>2025-05-18T11:03:14Z</time>
      </trkpt>
      <trkpt lat="43.589484030380845" lon="6.681198002770543">
        <ele>308.24000000000001</ele>
        <time>2025-05-18T11:03:15Z</time>
      </trkpt>
      <trkpt lat="43.589662984013557" lon="6.681284001097083">
        <ele>308.72000000000003</ele>
        <time>2025-05-18T11:03:16Z</time>
      </trkpt>
      <trkpt lat="43.591091008856893" lon="6.681903004646301">
        <ele>309.68000000000001</ele>
        <time>2025-05-18T11:03:23Z</time>
      </trkpt>
      <trkpt lat="43.592625986784697" lon="6.682548997923732">
        <ele>303.43000000000001</ele>
        <time>2025-05-18T11:03:31Z</time>
      </trkpt>
      <trkpt lat="43.592958999797702" lon="6.682682018727064">
        <ele>301.50999999999999</ele>
        <time>2025-05-18T11:03:33Z</time>
      </trkpt>
      <trkpt lat="43.593136025592685" lon="6.682728035375476">
        <ele>300.06999999999999</ele>
        <time>2025-05-18T11:03:34Z</time>
      </trkpt>
      <trkpt lat="43.594360034912825" lon="6.68297303840518">
        <ele>292.86000000000001</ele>
        <time>2025-05-18T11:03:41Z</time>
      </trkpt>
      <trkpt lat="43.594485009089112" lon="6.683046966791153">
        <ele>291.89999999999998</ele>
        <time>2025-05-18T11:03:42Z</time>
      </trkpt>
      <trkpt lat="43.594567989930511" lon="6.683142017573118">
        <ele>290.94</ele>
        <time>2025-05-18T11:03:43Z</time>
      </trkpt>
      <trkpt lat="43.594616018235683" lon="6.683260034769774">
        <ele>289.97000000000003</ele>
        <time>2025-05-18T11:03:44Z</time>
      </trkpt>
      <trkpt lat="43.594657005742192" lon="6.683415016159415">
        <ele>289.49000000000001</ele>
        <time>2025-05-18T11:03:45Z</time>
      </trkpt>
      <trkpt lat="43.594682989642024" lon="6.683598998934031">
        <ele>289.00999999999999</ele>
        <time>2025-05-18T11:03:46Z</time>
      </trkpt>
      <trkpt lat="43.594687012955546" lon="6.683804020285606">
        <ele>288.05000000000001</ele>
        <time>2025-05-18T11:03:47Z</time>
      </trkpt>
      <trkpt lat="43.59467402100563" lon="6.684009963646531">
        <ele>287.08999999999997</ele>
        <time>2025-05-18T11:03:48Z</time>
      </trkpt>
      <trkpt lat="43.594645019620657" lon="6.68422001414001">
        <ele>286.61000000000001</ele>
        <time>2025-05-18T11:03:49Z</time>
      </trkpt>
      <trkpt lat="43.594593973830342" lon="6.68443601578474">
        <ele>285.64999999999998</ele>
        <time>2025-05-18T11:03:50Z</time>
      </trkpt>
      <trkpt lat="43.594051999971271" lon="6.686153970658779">
        <ele>278.44</ele>
        <time>2025-05-18T11:03:57Z</time>
      </trkpt>
      <trkpt lat="43.593639023602009" lon="6.687579983845353">
        <ele>269.79000000000002</ele>
        <time>2025-05-18T11:04:03Z</time>
      </trkpt>
      <trkpt lat="43.593622008338571" lon="6.687805959954858">
        <ele>268.35000000000002</ele>
        <time>2025-05-18T11:04:04Z</time>
      </trkpt>
      <trkpt lat="43.593635000288486" lon="6.688034031540155">
        <ele>266.89999999999998</ele>
        <time>2025-05-18T11:04:05Z</time>
      </trkpt>
      <trkpt lat="43.593679005280137" lon="6.68823704123497">
        <ele>265.45999999999998</ele>
        <time>2025-05-18T11:04:06Z</time>
      </trkpt>
      <trkpt lat="43.593777995556593" lon="6.68841197155416">
        <ele>264.5</ele>
        <time>2025-05-18T11:04:07Z</time>
      </trkpt>
      <trkpt lat="43.593884026631713" lon="6.688576005399227">
        <ele>263.54000000000002</ele>
        <time>2025-05-18T11:04:08Z</time>
      </trkpt>
      <trkpt lat="43.594020986929536" lon="6.688730986788869">
        <ele>262.57999999999998</ele>
        <time>2025-05-18T11:04:09Z</time>
      </trkpt>
      <trkpt lat="43.594173034653068" lon="6.688876999542117">
        <ele>261.62</ele>
        <time>2025-05-18T11:04:10Z</time>
      </trkpt>
      <trkpt lat="43.594327010214329" lon="6.689026029780507">
        <ele>260.64999999999998</ele>
        <time>2025-05-18T11:04:11Z</time>
      </trkpt>
      <trkpt lat="43.594476040452719" lon="6.689170030876994">
        <ele>259.69</ele>
        <time>2025-05-18T11:04:12Z</time>
      </trkpt>
      <trkpt lat="43.594636972993612" lon="6.689247982576489">
        <ele>258.73000000000002</ele>
        <time>2025-05-18T11:04:13Z</time>
      </trkpt>
      <trkpt lat="43.594792960211635" lon="6.689293999224901">
        <ele>257.76999999999998</ele>
        <time>2025-05-18T11:04:14Z</time>
      </trkpt>
      <trkpt lat="43.594957999885082" lon="6.689317971467972">
        <ele>257.29000000000002</ele>
        <time>2025-05-18T11:04:15Z</time>
      </trkpt>
      <trkpt lat="43.595133014023304" lon="6.689309002831578">
        <ele>256.81</ele>
        <time>2025-05-18T11:04:16Z</time>
      </trkpt>
      <trkpt lat="43.595310961827636" lon="6.689301040023565">
        <ele>255.37</ele>
        <time>2025-05-18T11:04:17Z</time>
      </trkpt>
      <trkpt lat="43.596183015033603" lon="6.689378991723061">
        <ele>249.59999999999999</ele>
        <time>2025-05-18T11:04:23Z</time>
      </trkpt>
      <trkpt lat="43.596303965896368" lon="6.689421990886331">
        <ele>248.63999999999999</ele>
        <time>2025-05-18T11:04:24Z</time>
      </trkpt>
      <trkpt lat="43.596417959779501" lon="6.689487034454942">
        <ele>248.16</ele>
        <time>2025-05-18T11:04:25Z</time>
      </trkpt>
      <trkpt lat="43.596527008339763" lon="6.689569009467959">
        <ele>247.19999999999999</ele>
        <time>2025-05-18T11:04:26Z</time>
      </trkpt>
      <trkpt lat="43.59662801027298" lon="6.689675962552428">
        <ele>246.72</ele>
        <time>2025-05-18T11:04:27Z</time>
      </trkpt>
      <trkpt lat="43.596821967512369" lon="6.689880983904004">
        <ele>245.75</ele>
        <time>2025-05-18T11:04:29Z</time>
      </trkpt>
      <trkpt lat="43.596903020516038" lon="6.690012998878956">
        <ele>245.27000000000001</ele>
        <time>2025-05-18T11:04:30Z</time>
      </trkpt>
      <trkpt lat="43.596956999972463" lon="6.690132021903992">
        <ele>245.27000000000001</ele>
        <time>2025-05-18T11:04:31Z</time>
      </trkpt>
      <trkpt lat="43.596925986930728" lon="6.690351963043213">
        <ele>245.27000000000001</ele>
        <time>2025-05-18T11:04:32Z</time>
      </trkpt>
      <trkpt lat="43.596925986930728" lon="6.69040703214705">
        <ele>244.78999999999999</ele>
        <time>2025-05-18T11:04:33Z</time>
      </trkpt>
      <trkpt lat="43.596925986930728" lon="6.690522031858563">
        <ele>244.78999999999999</ele>
        <time>2025-05-18T11:04:34Z</time>
      </trkpt>
      <trkpt lat="43.596925986930728" lon="6.690635019913316">
        <ele>244.78999999999999</ele>
        <time>2025-05-18T11:04:35Z</time>
      </trkpt>
      <trkpt lat="43.597026988863945" lon="6.690696040168405">
        <ele>244.31</ele>
        <time>2025-05-18T11:04:36Z</time>
      </trkpt>
      <trkpt lat="43.597171995788813" lon="6.690824031829834">
        <ele>243.83000000000001</ele>
        <time>2025-05-18T11:04:37Z</time>
      </trkpt>
      <trkpt lat="43.597181970253587" lon="6.690957974642515">
        <ele>243.83000000000001</ele>
        <time>2025-05-18T11:04:38Z</time>
      </trkpt>
      <trkpt lat="43.597179036587477" lon="6.691113039851189">
        <ele>243.83000000000001</ele>
        <time>2025-05-18T11:04:39Z</time>
      </trkpt>
      <trkpt lat="43.597174007445574" lon="6.691269027069211">
        <ele>243.83000000000001</ele>
        <time>2025-05-18T11:04:40Z</time>
      </trkpt>
      <trkpt lat="43.59716797247529" lon="6.69143901206553">
        <ele>243.83000000000001</ele>
        <time>2025-05-18T11:04:41Z</time>
      </trkpt>
      <trkpt lat="43.597156992182136" lon="6.691627018153667">
        <ele>243.34999999999999</ele>
        <time>2025-05-18T11:04:42Z</time>
      </trkpt>
      <trkpt lat="43.59712396748364" lon="6.691824998706579">
        <ele>243.34999999999999</ele>
        <time>2025-05-18T11:04:43Z</time>
      </trkpt>
      <trkpt lat="43.597089014947414" lon="6.692038988694549">
        <ele>242.87</ele>
        <time>2025-05-18T11:04:44Z</time>
      </trkpt>
      <trkpt lat="43.596481997519732" lon="6.693683015182614">
        <ele>242.38999999999999</ele>
        <time>2025-05-18T11:04:51Z</time>
      </trkpt>
      <trkpt lat="43.596173962578177" lon="6.694421041756868">
        <ele>242.87</ele>
        <time>2025-05-18T11:04:54Z</time>
      </trkpt>
      <trkpt lat="43.596139010041952" lon="6.694692028686404">
        <ele>242.87</ele>
        <time>2025-05-18T11:04:55Z</time>
      </trkpt>
      <trkpt lat="43.596102967858315" lon="6.694964021444321">
        <ele>242.87</ele>
        <time>2025-05-18T11:04:56Z</time>
      </trkpt>
      <trkpt lat="43.596100034192204" lon="6.695223022252321">
        <ele>242.87</ele>
        <time>2025-05-18T11:04:57Z</time>
      </trkpt>
      <trkpt lat="43.596118977293372" lon="6.695482023060322">
        <ele>242.87</ele>
        <time>2025-05-18T11:04:58Z</time>
      </trkpt>
      <trkpt lat="43.596150996163487" lon="6.695727026090026">
        <ele>242.38999999999999</ele>
        <time>2025-05-18T11:04:59Z</time>
      </trkpt>
      <trkpt lat="43.596234982833266" lon="6.695966999977827">
        <ele>242.38999999999999</ele>
        <time>2025-05-18T11:05:00Z</time>
      </trkpt>
      <trkpt lat="43.596321986988187" lon="6.696216026321054">
        <ele>242.38999999999999</ele>
        <time>2025-05-18T11:05:01Z</time>
      </trkpt>
      <trkpt lat="43.596791038289666" lon="6.697490997612476">
        <ele>242.38999999999999</ele>
        <time>2025-05-18T11:05:06Z</time>
      </trkpt>
      <trkpt lat="43.596921963617206" lon="6.697719991207123">
        <ele>242.38999999999999</ele>
        <time>2025-05-18T11:05:07Z</time>
      </trkpt>
      <trkpt lat="43.59725397080183" lon="6.698091980069876">
        <ele>242.38999999999999</ele>
        <time>2025-05-18T11:05:09Z</time>
      </trkpt>
      <trkpt lat="43.597426973283291" lon="6.698257019743323">
        <ele>242.87</ele>
        <time>2025-05-18T11:05:10Z</time>
      </trkpt>
      <trkpt lat="43.597619002684951" lon="6.698385011404753">
        <ele>242.87</ele>
        <time>2025-05-18T11:05:11Z</time>
      </trkpt>
      <trkpt lat="43.59780902042985" lon="6.698499005287886">
        <ele>242.87</ele>
        <time>2025-05-18T11:05:12Z</time>
      </trkpt>
      <trkpt lat="43.598002977669239" lon="6.698577040806413">
        <ele>242.87</ele>
        <time>2025-05-18T11:05:13Z</time>
      </trkpt>
      <trkpt lat="43.598191989585757" lon="6.698623979464173">
        <ele>242.87</ele>
        <time>2025-05-18T11:05:14Z</time>
      </trkpt>
      <trkpt lat="43.598373038694263" lon="6.698668990284205">
        <ele>242.38999999999999</ele>
        <time>2025-05-18T11:05:15Z</time>
      </trkpt>
      <trkpt lat="43.599924026057124" lon="6.69906796887517">
        <ele>239.02000000000001</ele>
        <time>2025-05-18T11:05:23Z</time>
      </trkpt>
      <trkpt lat="43.601039992645383" lon="6.699357982724905">
        <ele>236.62</ele>
        <time>2025-05-18T11:05:28Z</time>
      </trkpt>
      <trkpt lat="43.601252976804972" lon="6.69941196218133">
        <ele>236.13999999999999</ele>
        <time>2025-05-18T11:05:29Z</time>
      </trkpt>
      <trkpt lat="43.602916030213237" lon="6.699836002662778">
        <ele>232.78</ele>
        <time>2025-05-18T11:05:37Z</time>
      </trkpt>
      <trkpt lat="43.603852037340403" lon="6.700197011232376">
        <ele>229.41</ele>
        <time>2025-05-18T11:05:42Z</time>
      </trkpt>
      <trkpt lat="43.605488017201424" lon="6.700931014493108">
        <ele>227.00999999999999</ele>
        <time>2025-05-18T11:05:51Z</time>
      </trkpt>
      <trkpt lat="43.606285974383354" lon="6.701354971155524">
        <ele>227.49000000000001</ele>
        <time>2025-05-18T11:05:56Z</time>
      </trkpt>
      <trkpt lat="43.606411032378674" lon="6.701496038585901">
        <ele>227.00999999999999</ele>
        <time>2025-05-18T11:05:57Z</time>
      </trkpt>
      <trkpt lat="43.606530977413058" lon="6.701656971126795">
        <ele>226.53</ele>
        <time>2025-05-18T11:05:58Z</time>
      </trkpt>
      <trkpt lat="43.606652012094855" lon="6.70181798748672">
        <ele>226.53</ele>
        <time>2025-05-18T11:05:59Z</time>
      </trkpt>
      <trkpt lat="43.606746979057789" lon="6.702012028545141">
        <ele>226.05000000000001</ele>
        <time>2025-05-18T11:06:00Z</time>
      </trkpt>
      <trkpt lat="43.606813028454781" lon="6.702224006876349">
        <ele>225.56999999999999</ele>
        <time>2025-05-18T11:06:01Z</time>
      </trkpt>
      <trkpt lat="43.606858961284161" lon="6.702447971329093">
        <ele>225.09</ele>
        <time>2025-05-18T11:06:02Z</time>
      </trkpt>
      <trkpt lat="43.606903972104192" lon="6.702680988237262">
        <ele>225.09</ele>
        <time>2025-05-18T11:06:03Z</time>
      </trkpt>
      <trkpt lat="43.606949988752604" lon="6.702918028458953">
        <ele>224.61000000000001</ele>
        <time>2025-05-18T11:06:04Z</time>
      </trkpt>
      <trkpt lat="43.607278978452086" lon="6.705299997702241">
        <ele>219.80000000000001</ele>
        <time>2025-05-18T11:06:13Z</time>
      </trkpt>
      <trkpt lat="43.607653984799981" lon="6.70796200633049">
        <ele>221.24000000000001</ele>
        <time>2025-05-18T11:06:23Z</time>
      </trkpt>
      <trkpt lat="43.607991021126509" lon="6.710618985816836">
        <ele>221.24000000000001</ele>
        <time>2025-05-18T11:06:34Z</time>
      </trkpt>
      <trkpt lat="43.608041983097792" lon="6.710955016314983">
        <ele>221.24000000000001</ele>
        <time>2025-05-18T11:06:36Z</time>
      </trkpt>
      <trkpt lat="43.608066961169243" lon="6.711103040724993">
        <ele>220.75999999999999</ele>
        <time>2025-05-18T11:06:37Z</time>
      </trkpt>
      <trkpt lat="43.607977023348212" lon="6.711337985470891">
        <ele>220.75999999999999</ele>
        <time>2025-05-18T11:06:38Z</time>
      </trkpt>
      <trkpt lat="43.607977023348212" lon="6.711404034867883">
        <ele>220.28</ele>
        <time>2025-05-18T11:06:39Z</time>
      </trkpt>
      <trkpt lat="43.607977023348212" lon="6.71150897629559">
        <ele>220.28</ele>
        <time>2025-05-18T11:06:40Z</time>
      </trkpt>
      <trkpt lat="43.608138961717486" lon="6.711648032069206">
        <ele>220.28</ele>
        <time>2025-05-18T11:06:41Z</time>
      </trkpt>
      <trkpt lat="43.608167041093111" lon="6.711812987923622">
        <ele>220.28</ele>
        <time>2025-05-18T11:06:42Z</time>
      </trkpt>
      <trkpt lat="43.608192019164562" lon="6.712003005668521">
        <ele>220.28</ele>
        <time>2025-05-18T11:06:43Z</time>
      </trkpt>
      <trkpt lat="43.608411960303783" lon="6.713710986077786">
        <ele>218.84</ele>
        <time>2025-05-18T11:06:50Z</time>
      </trkpt>
      <trkpt lat="43.608508016914129" lon="6.714271986857057">
        <ele>218.36000000000001</ele>
        <time>2025-05-18T11:06:52Z</time>
      </trkpt>
      <trkpt lat="43.608568031340837" lon="6.714554037898779">
        <ele>218.36000000000001</ele>
        <time>2025-05-18T11:06:53Z</time>
      </trkpt>
      <trkpt lat="43.608656041324139" lon="6.714821001514792">
        <ele>218.36000000000001</ele>
        <time>2025-05-18T11:06:54Z</time>
      </trkpt>
      <trkpt lat="43.609332041814923" lon="6.716696033254266">
        <ele>214.99000000000001</ele>
        <time>2025-05-18T11:07:02Z</time>
      </trkpt>
      <trkpt lat="43.60981903038919" lon="6.71866200864315">
        <ele>216.43000000000001</ele>
        <time>2025-05-18T11:07:10Z</time>
      </trkpt>
      <trkpt lat="43.610165035352111" lon="6.721630040556192">
        <ele>219.80000000000001</ele>
        <time>2025-05-18T11:07:21Z</time>
      </trkpt>
      <trkpt lat="43.610398974269629" lon="6.72433496452868">
        <ele>224.12</ele>
        <time>2025-05-18T11:07:31Z</time>
      </trkpt>
      <trkpt lat="43.610605001449585" lon="6.725673973560333">
        <ele>226.05000000000001</ele>
        <time>2025-05-18T11:07:36Z</time>
      </trkpt>
      <trkpt lat="43.610630985349417" lon="6.72594303265214">
        <ele>226.53</ele>
        <time>2025-05-18T11:07:37Z</time>
      </trkpt>
      <trkpt lat="43.610656969249249" lon="6.726212007924914">
        <ele>227.00999999999999</ele>
        <time>2025-05-18T11:07:38Z</time>
      </trkpt>
      <trkpt lat="43.610440967604518" lon="6.728591965511441">
        <ele>229.88999999999999</ele>
        <time>2025-05-18T11:07:47Z</time>
      </trkpt>
      <trkpt lat="43.610140979290009" lon="6.731007965281606">
        <ele>225.09</ele>
        <time>2025-05-18T11:07:57Z</time>
      </trkpt>
      <trkpt lat="43.61010099761188" lon="6.731355981901288">
        <ele>224.12</ele>
        <time>2025-05-18T11:07:59Z</time>
      </trkpt>
      <trkpt lat="43.61010099761188" lon="6.731506017968059">
        <ele>223.63999999999999</ele>
        <time>2025-05-18T11:08:00Z</time>
      </trkpt>
      <trkpt lat="43.61010099761188" lon="6.731648007407785">
        <ele>223.16</ele>
        <time>2025-05-18T11:08:01Z</time>
      </trkpt>
      <trkpt lat="43.610042994841933" lon="6.731958976015449">
        <ele>223.16</ele>
        <time>2025-05-18T11:08:03Z</time>
      </trkpt>
      <trkpt lat="43.610085994005203" lon="6.732099959626794">
        <ele>223.16</ele>
        <time>2025-05-18T11:08:04Z</time>
      </trkpt>
      <trkpt lat="43.610111977905035" lon="6.732446970418096">
        <ele>223.16</ele>
        <time>2025-05-18T11:08:06Z</time>
      </trkpt>
      <trkpt lat="43.61012002453208" lon="6.732647968456149">
        <ele>223.16</ele>
        <time>2025-05-18T11:08:07Z</time>
      </trkpt>
      <trkpt lat="43.610103009268641" lon="6.732858018949628">
        <ele>223.63999999999999</ele>
        <time>2025-05-18T11:08:08Z</time>
      </trkpt>
      <trkpt lat="43.610068978741765" lon="6.733080977573991">
        <ele>223.63999999999999</ele>
        <time>2025-05-18T11:08:09Z</time>
      </trkpt>
      <trkpt lat="43.610033020377159" lon="6.733316006138921">
        <ele>224.12</ele>
        <time>2025-05-18T11:08:10Z</time>
      </trkpt>
      <trkpt lat="43.60999396070838" lon="6.733567966148257">
        <ele>224.12</ele>
        <time>2025-05-18T11:08:11Z</time>
      </trkpt>
      <trkpt lat="43.609458021819592" lon="6.735884975641966">
        <ele>217.88</ele>
        <time>2025-05-18T11:08:19Z</time>
      </trkpt>
      <trkpt lat="43.608331996947527" lon="6.740696020424366">
        <ele>206.34</ele>
        <time>2025-05-18T11:08:34Z</time>
      </trkpt>
      <trkpt lat="43.608070984482765" lon="6.741740992292762">
        <ele>203.94</ele>
        <time>2025-05-18T11:08:39Z</time>
      </trkpt>
      <trkpt lat="43.6079310066998" lon="6.742311967536807">
        <ele>202.00999999999999</ele>
        <time>2025-05-18T11:08:44Z</time>
      </trkpt>
      <trkpt lat="43.607891025021672" lon="6.742408024147153">
        <ele>201.53</ele>
        <time>2025-05-18T11:08:45Z</time>
      </trkpt>
      <trkpt lat="43.607849031686783" lon="6.742506008595228">
        <ele>201.53</ele>
        <time>2025-05-18T11:08:46Z</time>
      </trkpt>
      <trkpt lat="43.607826987281442" lon="6.742642968893051">
        <ele>201.53</ele>
        <time>2025-05-18T11:08:47Z</time>
      </trkpt>
      <trkpt lat="43.607826987281442" lon="6.742729973047972">
        <ele>201.05000000000001</ele>
        <time>2025-05-18T11:08:48Z</time>
      </trkpt>
      <trkpt lat="43.607892030850053" lon="6.742841033264995">
        <ele>201.05000000000001</ele>
        <time>2025-05-18T11:08:49Z</time>
      </trkpt>
      <trkpt lat="43.607904016971588" lon="6.742943041026592">
        <ele>201.05000000000001</ele>
        <time>2025-05-18T11:08:50Z</time>
      </trkpt>
      <trkpt lat="43.60790996812284" lon="6.743057034909725">
        <ele>201.05000000000001</ele>
        <time>2025-05-18T11:08:51Z</time>
      </trkpt>
      <trkpt lat="43.607903011143208" lon="6.743179997429252">
        <ele>201.05000000000001</ele>
        <time>2025-05-18T11:08:52Z</time>
      </trkpt>
      <trkpt lat="43.607894964516163" lon="6.743315029889345">
        <ele>201.05000000000001</ele>
        <time>2025-05-18T11:08:53Z</time>
      </trkpt>
      <trkpt lat="43.607782982289791" lon="6.744798962026835">
        <ele>200.56999999999999</ele>
        <time>2025-05-18T11:09:01Z</time>
      </trkpt>
      <trkpt lat="43.607749035581946" lon="6.745339008048177">
        <ele>200.56999999999999</ele>
        <time>2025-05-18T11:09:03Z</time>
      </trkpt>
      <trkpt lat="43.607528004795313" lon="6.746722022071481">
        <ele>199.61000000000001</ele>
        <time>2025-05-18T11:09:09Z</time>
      </trkpt>
      <trkpt lat="43.607148975133896" lon="6.748250965029001">
        <ele>199.13</ele>
        <time>2025-05-18T11:09:19Z</time>
      </trkpt>
      <trkpt lat="43.606653017923236" lon="6.750001022592187">
        <ele>197.69</ele>
        <time>2025-05-18T11:09:30Z</time>
      </trkpt>
      <trkpt lat="43.606258984655142" lon="6.751945037394762">
        <ele>196.25</ele>
        <time>2025-05-18T11:09:40Z</time>
      </trkpt>
      <trkpt lat="43.605968970805407" lon="6.753690987825394">
        <ele>191.91999999999999</ele>
        <time>2025-05-18T11:09:50Z</time>
      </trkpt>
      <trkpt lat="43.605934018269181" lon="6.753992987796664">
        <ele>190.96000000000001</ele>
        <time>2025-05-18T11:09:52Z</time>
      </trkpt>
      <trkpt lat="43.605827987194061" lon="6.754635041579604">
        <ele>189.52000000000001</ele>
        <time>2025-05-18T11:09:57Z</time>
      </trkpt>
      <trkpt lat="43.605788005515933" lon="6.754875015467405">
        <ele>189.03999999999999</ele>
        <time>2025-05-18T11:09:59Z</time>
      </trkpt>
      <trkpt lat="43.605680968612432" lon="6.755004012957215">
        <ele>188.56</ele>
        <time>2025-05-18T11:10:00Z</time>
      </trkpt>
      <trkpt lat="43.605650039389729" lon="6.755051035434008">
        <ele>188.56</ele>
        <time>2025-05-18T11:10:01Z</time>
      </trkpt>
      <trkpt lat="43.605594970285892" lon="6.755133010447025">
        <ele>188.08000000000001</ele>
        <time>2025-05-18T11:10:02Z</time>
      </trkpt>
      <trkpt lat="43.605594970285892" lon="6.755284974351525">
        <ele>188.56</ele>
        <time>2025-05-18T11:10:03Z</time>
      </trkpt>
      <trkpt lat="43.605594970285892" lon="6.755347000434995">
        <ele>188.56</ele>
        <time>2025-05-18T11:10:04Z</time>
      </trkpt>
      <trkpt lat="43.605702007189393" lon="6.755483038723469">
        <ele>188.08000000000001</ele>
        <time>2025-05-18T11:10:05Z</time>
      </trkpt>
      <trkpt lat="43.605702007189393" lon="6.755604995414615">
        <ele>188.08000000000001</ele>
        <time>2025-05-18T11:10:06Z</time>
      </trkpt>
      <trkpt lat="43.605712987482548" lon="6.755731981247664">
        <ele>187.59</ele>
        <time>2025-05-18T11:10:07Z</time>
      </trkpt>
      <trkpt lat="43.605723967775702" lon="6.755882017314434">
        <ele>187.59</ele>
        <time>2025-05-18T11:10:08Z</time>
      </trkpt>
      <trkpt lat="43.605626989156008" lon="6.757214991375804">
        <ele>186.15000000000001</ele>
        <time>2025-05-18T11:10:15Z</time>
      </trkpt>
      <trkpt lat="43.605535039678216" lon="6.757837012410164">
        <ele>185.19</ele>
        <time>2025-05-18T11:10:18Z</time>
      </trkpt>
      <trkpt lat="43.605508971959352" lon="6.758043961599469">
        <ele>185.19</ele>
        <time>2025-05-18T11:10:19Z</time>
      </trkpt>
      <trkpt lat="43.605591030791402" lon="6.76036398857832">
        <ele>185.19</ele>
        <time>2025-05-18T11:10:29Z</time>
      </trkpt>
      <trkpt lat="43.605714999139309" lon="6.761681037023664">
        <ele>186.63</ele>
        <time>2025-05-18T11:10:36Z</time>
      </trkpt>
      <trkpt lat="43.605727991089225" lon="6.761809028685093">
        <ele>187.11000000000001</ele>
        <time>2025-05-18T11:10:37Z</time>
      </trkpt>
      <trkpt lat="43.60573997721076" lon="6.761937020346522">
        <ele>187.11000000000001</ele>
        <time>2025-05-18T11:10:38Z</time>
      </trkpt>
      <trkpt lat="43.605745006352663" lon="6.762257041409612">
        <ele>187.59</ele>
        <time>2025-05-18T11:10:40Z</time>
      </trkpt>
      <trkpt lat="43.605723967775702" lon="6.763680037111044">
        <ele>187.59</ele>
        <time>2025-05-18T11:10:47Z</time>
      </trkpt>
      <trkpt lat="43.60578197054565" lon="6.765566971153021">
        <ele>186.63</ele>
        <time>2025-05-18T11:10:56Z</time>
      </trkpt>
      <trkpt lat="43.605626989156008" lon="6.76766999065876">
        <ele>183.27000000000001</ele>
        <time>2025-05-18T11:11:06Z</time>
      </trkpt>
      <trkpt lat="43.605195991694927" lon="6.769195999950171">
        <ele>182.31</ele>
        <time>2025-05-18T11:11:14Z</time>
      </trkpt>
      <trkpt lat="43.605086021125317" lon="6.76962498575449">
        <ele>182.31</ele>
        <time>2025-05-18T11:11:17Z</time>
      </trkpt>
      <trkpt lat="43.605044027790427" lon="6.769764041528106">
        <ele>182.31</ele>
        <time>2025-05-18T11:11:18Z</time>
      </trkpt>
      <trkpt lat="43.605054002255201" lon="6.769872000440955">
        <ele>182.31</ele>
        <time>2025-05-18T11:11:19Z</time>
      </trkpt>
      <trkpt lat="43.604928022250533" lon="6.770195038989186">
        <ele>182.31</ele>
        <time>2025-05-18T11:11:21Z</time>
      </trkpt>
      <trkpt lat="43.60485996119678" lon="6.770347002893686">
        <ele>182.31</ele>
        <time>2025-05-18T11:11:22Z</time>
      </trkpt>
      <trkpt lat="43.604785026982427" lon="6.770513970404863">
        <ele>182.31</ele>
        <time>2025-05-18T11:11:23Z</time>
      </trkpt>
      <trkpt lat="43.604565002024174" lon="6.771097015589476">
        <ele>182.78999999999999</ele>
        <time>2025-05-18T11:11:26Z</time>
      </trkpt>
      <trkpt lat="43.603818006813526" lon="6.773201962932944">
        <ele>185.19</ele>
        <time>2025-05-18T11:11:36Z</time>
      </trkpt>
      <trkpt lat="43.603007979691029" lon="6.775550991296768">
        <ele>189.03999999999999</ele>
        <time>2025-05-18T11:11:46Z</time>
      </trkpt>
      <trkpt lat="43.602275988087058" lon="6.777604976668954">
        <ele>188.56</ele>
        <time>2025-05-18T11:11:56Z</time>
      </trkpt>
      <trkpt lat="43.602063003927469" lon="6.778210988268256">
        <ele>188.08000000000001</ele>
        <time>2025-05-18T11:12:00Z</time>
      </trkpt>
      <trkpt lat="43.601903999224305" lon="6.778286006301642">
        <ele>188.08000000000001</ele>
        <time>2025-05-18T11:12:01Z</time>
      </trkpt>
      <trkpt lat="43.601866029202938" lon="6.778323976323009">
        <ele>188.08000000000001</ele>
        <time>2025-05-18T11:12:02Z</time>
      </trkpt>
      <trkpt lat="43.601810038089752" lon="6.778448028489947">
        <ele>188.56</ele>
        <time>2025-05-18T11:12:03Z</time>
      </trkpt>
      <trkpt lat="43.601797968149185" lon="6.778559004887939">
        <ele>188.56</ele>
        <time>2025-05-18T11:12:04Z</time>
      </trkpt>
      <trkpt lat="43.601830992847681" lon="6.778655983507633">
        <ele>188.56</ele>
        <time>2025-05-18T11:12:05Z</time>
      </trkpt>
      <trkpt lat="43.601842978969216" lon="6.778828985989094">
        <ele>188.56</ele>
        <time>2025-05-18T11:12:06Z</time>
      </trkpt>
      <trkpt lat="43.601793022826314" lon="6.778967035934329">
        <ele>189.03999999999999</ele>
        <time>2025-05-18T11:12:07Z</time>
      </trkpt>
      <trkpt lat="43.601739965379238" lon="6.779108019545674">
        <ele>188.56</ele>
        <time>2025-05-18T11:12:08Z</time>
      </trkpt>
      <trkpt lat="43.601360013708472" lon="6.780095994472504">
        <ele>189.52000000000001</ele>
        <time>2025-05-18T11:12:13Z</time>
      </trkpt>
      <trkpt lat="43.600378995761275" lon="6.782721960917115">
        <ele>192.88</ele>
        <time>2025-05-18T11:12:23Z</time>
      </trkpt>
      <trkpt lat="43.599906004965305" lon="6.783982012420893">
        <ele>197.21000000000001</ele>
        <time>2025-05-18T11:12:29Z</time>
      </trkpt>
      <trkpt lat="43.599285995587707" lon="6.785430992022157">
        <ele>204.90000000000001</ele>
        <time>2025-05-18T11:12:38Z</time>
      </trkpt>
      <trkpt lat="43.599240984767675" lon="6.7855029925704">
        <ele>205.38</ele>
        <time>2025-05-18T11:12:39Z</time>
      </trkpt>
      <trkpt lat="43.599178958684206" lon="6.785602988675237">
        <ele>205.86000000000001</ele>
        <time>2025-05-18T11:12:40Z</time>
      </trkpt>
      <trkpt lat="43.599108969792724" lon="6.785643976181746">
        <ele>206.81999999999999</ele>
        <time>2025-05-18T11:12:41Z</time>
      </trkpt>
      <trkpt lat="43.599010985344648" lon="6.785703990608454">
        <ele>207.30000000000001</ele>
        <time>2025-05-18T11:12:42Z</time>
      </trkpt>
      <trkpt lat="43.598920963704586" lon="6.78580398671329">
        <ele>207.78</ele>
        <time>2025-05-18T11:12:43Z</time>
      </trkpt>
      <trkpt lat="43.598891040310264" lon="6.785956034436822">
        <ele>208.74000000000001</ele>
        <time>2025-05-18T11:12:44Z</time>
      </trkpt>
      <trkpt lat="43.598879976198077" lon="6.7861039750278">
        <ele>209.22</ele>
        <time>2025-05-18T11:12:45Z</time>
      </trkpt>
      <trkpt lat="43.598963040858507" lon="6.786285024136305">
        <ele>209.69999999999999</ele>
        <time>2025-05-18T11:12:46Z</time>
      </trkpt>
      <trkpt lat="43.598943008109927" lon="6.786438999697566">
        <ele>209.69999999999999</ele>
        <time>2025-05-18T11:12:47Z</time>
      </trkpt>
      <trkpt lat="43.598879976198077" lon="6.786647038534284">
        <ele>210.19</ele>
        <time>2025-05-18T11:12:48Z</time>
      </trkpt>
      <trkpt lat="43.59882096759975" lon="6.786842001602054">
        <ele>211.15000000000001</ele>
        <time>2025-05-18T11:12:49Z</time>
      </trkpt>
      <trkpt lat="43.598252004012465" lon="6.788515029475093">
        <ele>220.28</ele>
        <time>2025-05-18T11:12:57Z</time>
      </trkpt>
      <trkpt lat="43.597685974091291" lon="6.789667960256338">
        <ele>227.00999999999999</ele>
        <time>2025-05-18T11:13:03Z</time>
      </trkpt>
      <trkpt lat="43.597547002136707" lon="6.790053024888039">
        <ele>228.93000000000001</ele>
        <time>2025-05-18T11:13:05Z</time>
      </trkpt>
      <trkpt lat="43.597375005483627" lon="6.790668005123735">
        <ele>230.84999999999999</ele>
        <time>2025-05-18T11:13:08Z</time>
      </trkpt>
      <trkpt lat="43.597321026027203" lon="6.790867997333407">
        <ele>231.33000000000001</ele>
        <time>2025-05-18T11:13:09Z</time>
      </trkpt>
      <trkpt lat="43.597179958596826" lon="6.791394967585802">
        <ele>233.74000000000001</ele>
        <time>2025-05-18T11:13:12Z</time>
      </trkpt>
      <trkpt lat="43.597154980525374" lon="6.791550032794476">
        <ele>234.69999999999999</ele>
        <time>2025-05-18T11:13:13Z</time>
      </trkpt>
      <trkpt lat="43.597140982747078" lon="6.791718006134033">
        <ele>235.18000000000001</ele>
        <time>2025-05-18T11:13:14Z</time>
      </trkpt>
      <trkpt lat="43.597161015495658" lon="6.793550960719585">
        <ele>245.27000000000001</ele>
        <time>2025-05-18T11:13:25Z</time>
      </trkpt>
      <trkpt lat="43.597127990797162" lon="6.793717006221414">
        <ele>245.75</ele>
        <time>2025-05-18T11:13:26Z</time>
      </trkpt>
      <trkpt lat="43.597001004964113" lon="6.794370040297508">
        <ele>246.72</ele>
        <time>2025-05-18T11:13:30Z</time>
      </trkpt>
      <trkpt lat="43.596945013850927" lon="6.794533990323544">
        <ele>247.19999999999999</ele>
        <time>2025-05-18T11:13:31Z</time>
      </trkpt>
      <trkpt lat="43.596532037481666" lon="6.795923039317131">
        <ele>254.41</ele>
        <time>2025-05-18T11:13:40Z</time>
      </trkpt>
      <trkpt lat="43.596518961712718" lon="6.796245994046331">
        <ele>256.32999999999998</ele>
        <time>2025-05-18T11:13:42Z</time>
      </trkpt>
      <trkpt lat="43.596540000289679" lon="6.796420002356172">
        <ele>257.29000000000002</ele>
        <time>2025-05-18T11:13:43Z</time>
      </trkpt>
      <trkpt lat="43.596561038866639" lon="6.796582024544478">
        <ele>257.76999999999998</ele>
        <time>2025-05-18T11:13:44Z</time>
      </trkpt>
      <trkpt lat="43.596582999452949" lon="6.79676097817719">
        <ele>258.73000000000002</ele>
        <time>2025-05-18T11:13:45Z</time>
      </trkpt>
      <trkpt lat="43.596630021929741" lon="6.796893998980522">
        <ele>259.20999999999998</ele>
        <time>2025-05-18T11:13:46Z</time>
      </trkpt>
      <trkpt lat="43.596684001386166" lon="6.797046968713403">
        <ele>259.69</ele>
        <time>2025-05-18T11:13:47Z</time>
      </trkpt>
      <trkpt lat="43.59673697501421" lon="6.797198010608554">
        <ele>259.69</ele>
        <time>2025-05-18T11:13:48Z</time>
      </trkpt>
      <trkpt lat="43.596896985545754" lon="6.797651974484325">
        <ele>260.17000000000002</ele>
        <time>2025-05-18T11:13:51Z</time>
      </trkpt>
      <trkpt lat="43.59695197083056" lon="6.797802010551095">
        <ele>260.17000000000002</ele>
        <time>2025-05-18T11:13:52Z</time>
      </trkpt>
      <trkpt lat="43.597007039934397" lon="6.797954980283976">
        <ele>260.64999999999998</ele>
        <time>2025-05-18T11:13:53Z</time>
      </trkpt>
      <trkpt lat="43.597063031047583" lon="6.798108033835888">
        <ele>261.13999999999999</ele>
        <time>2025-05-18T11:13:54Z</time>
      </trkpt>
      <trkpt lat="43.597120027989149" lon="6.79826402105391">
        <ele>261.13999999999999</ele>
        <time>2025-05-18T11:13:55Z</time>
      </trkpt>
      <trkpt lat="43.597592012956738" lon="6.799680981785059">
        <ele>262.10000000000002</ele>
        <time>2025-05-18T11:14:03Z</time>
      </trkpt>
      <trkpt lat="43.598210010677576" lon="6.800855034962297">
        <ele>257.76999999999998</ele>
        <time>2025-05-18T11:14:10Z</time>
      </trkpt>
      <trkpt lat="43.598609995096922" lon="6.801516031846404">
        <ele>258.25</ele>
        <time>2025-05-18T11:14:16Z</time>
      </trkpt>
      <trkpt lat="43.598637990653515" lon="6.801554001867771">
        <ele>258.25</ele>
        <time>2025-05-18T11:14:17Z</time>
      </trkpt>
      <trkpt lat="43.598658023402095" lon="6.801580991595984">
        <ele>258.25</ele>
        <time>2025-05-18T11:14:18Z</time>
      </trkpt>
      <trkpt lat="43.598658023402095" lon="6.801580991595984">
        <ele>258.25</ele>
        <time>2025-05-18T11:14:27Z</time>
      </trkpt>
      <trkpt lat="43.598658023402095" lon="6.801580991595984">
        <ele>258.25</ele>
        <time>2025-05-18T11:15:22Z</time>
      </trkpt>
      <trkpt lat="43.598658023402095" lon="6.801580991595984">
        <ele>258.25</ele>
        <time>2025-05-18T11:16:36Z</time>
      </trkpt>
      <trkpt lat="43.598658023402095" lon="6.801580991595984">
        <ele>257.76999999999998</ele>
        <time>2025-05-18T11:17:33Z</time>
      </trkpt>
      <trkpt lat="43.598757013678551" lon="6.801715018227696">
        <ele>258.25</ele>
        <time>2025-05-18T11:18:13Z</time>
      </trkpt>
      <trkpt lat="43.599235033616424" lon="6.802259003743529">
        <ele>259.69</ele>
        <time>2025-05-18T11:18:19Z</time>
      </trkpt>
      <trkpt lat="43.600158970803022" lon="6.803381005302072">
        <ele>260.64999999999998</ele>
        <time>2025-05-18T11:18:27Z</time>
      </trkpt>
      <trkpt lat="43.601235961541533" lon="6.804868038743734">
        <ele>257.76999999999998</ele>
        <time>2025-05-18T11:18:35Z</time>
      </trkpt>
      <trkpt lat="43.602488972246647" lon="6.805857019498944">
        <ele>254.41</ele>
        <time>2025-05-18T11:18:42Z</time>
      </trkpt>
      <trkpt lat="43.602670021355152" lon="6.805993979796767">
        <ele>253.93000000000001</ele>
        <time>2025-05-18T11:18:43Z</time>
      </trkpt>
      <trkpt lat="43.603329006582499" lon="6.806660005822778">
        <ele>252</ele>
        <time>2025-05-18T11:18:47Z</time>
      </trkpt>
      <trkpt lat="43.603505026549101" lon="6.806795038282871">
        <ele>251.52000000000001</ele>
        <time>2025-05-18T11:18:48Z</time>
      </trkpt>
      <trkpt lat="43.603703007102013" lon="6.806873995810747">
        <ele>250.56</ele>
        <time>2025-05-18T11:18:49Z</time>
      </trkpt>
      <trkpt lat="43.605316020548344" lon="6.807542033493519">
        <ele>247.68000000000001</ele>
        <time>2025-05-18T11:18:57Z</time>
      </trkpt>
      <trkpt lat="43.605671999976039" lon="6.807833975180984">
        <ele>247.19999999999999</ele>
        <time>2025-05-18T11:18:59Z</time>
      </trkpt>
      <trkpt lat="43.605852965265512" lon="6.807983005419374">
        <ele>246.22999999999999</ele>
        <time>2025-05-18T11:19:00Z</time>
      </trkpt>
      <trkpt lat="43.605993026867509" lon="6.80819196626544">
        <ele>245.75</ele>
        <time>2025-05-18T11:19:01Z</time>
      </trkpt>
      <trkpt lat="43.606131998822093" lon="6.808396987617016">
        <ele>245.27000000000001</ele>
        <time>2025-05-18T11:19:02Z</time>
      </trkpt>
      <trkpt lat="43.606267031282187" lon="6.808597985655069">
        <ele>244.78999999999999</ele>
        <time>2025-05-18T11:19:03Z</time>
      </trkpt>
      <trkpt lat="43.606402985751629" lon="6.808799989521503">
        <ele>243.83000000000001</ele>
        <time>2025-05-18T11:19:04Z</time>
      </trkpt>
      <trkpt lat="43.606544975191355" lon="6.808996964246035">
        <ele>242.87</ele>
        <time>2025-05-18T11:19:05Z</time>
      </trkpt>
      <trkpt lat="43.606714038178325" lon="6.809166027233005">
        <ele>241.91</ele>
        <time>2025-05-18T11:19:06Z</time>
      </trkpt>
      <trkpt lat="43.606884023174644" lon="6.809314973652363">
        <ele>240.94999999999999</ele>
        <time>2025-05-18T11:19:07Z</time>
      </trkpt>
      <trkpt lat="43.607061970978975" lon="6.809447994455695">
        <ele>239.50999999999999</ele>
        <time>2025-05-18T11:19:08Z</time>
      </trkpt>
      <trkpt lat="43.608164023607969" lon="6.810076972469688">
        <ele>234.22</ele>
        <time>2025-05-18T11:19:14Z</time>
      </trkpt>
      <trkpt lat="43.608678001910448" lon="6.810352988541126">
        <ele>231.33000000000001</ele>
        <time>2025-05-18T11:19:17Z</time>
      </trkpt>
      <trkpt lat="43.608822003006935" lon="6.810480980202556">
        <ele>230.37</ele>
        <time>2025-05-18T11:19:18Z</time>
      </trkpt>
      <trkpt lat="43.608933985233307" lon="6.810649959370494">
        <ele>229.88999999999999</ele>
        <time>2025-05-18T11:19:19Z</time>
      </trkpt>
      <trkpt lat="43.609036998823285" lon="6.810837965458632">
        <ele>229.41</ele>
        <time>2025-05-18T11:19:20Z</time>
      </trkpt>
      <trkpt lat="43.609118973836303" lon="6.811062013730407">
        <ele>228.44999999999999</ele>
        <time>2025-05-18T11:19:21Z</time>
      </trkpt>
      <trkpt lat="43.609163984656334" lon="6.811329983174801">
        <ele>227.97</ele>
        <time>2025-05-18T11:19:22Z</time>
      </trkpt>
      <trkpt lat="43.60919700935483" lon="6.811593007296324">
        <ele>227.00999999999999</ele>
        <time>2025-05-18T11:19:23Z</time>
      </trkpt>
      <trkpt lat="43.609179994091392" lon="6.811867011711001">
        <ele>226.53</ele>
        <time>2025-05-18T11:19:24Z</time>
      </trkpt>
      <trkpt lat="43.609162978827953" lon="6.812133975327015">
        <ele>225.56999999999999</ele>
        <time>2025-05-18T11:19:25Z</time>
      </trkpt>
      <trkpt lat="43.609147975221276" lon="6.812385013327003">
        <ele>224.61000000000001</ele>
        <time>2025-05-18T11:19:26Z</time>
      </trkpt>
      <trkpt lat="43.609146969392896" lon="6.812621969729662">
        <ele>223.63999999999999</ele>
        <time>2025-05-18T11:19:27Z</time>
      </trkpt>
      <trkpt lat="43.609199021011591" lon="6.812841994687915">
        <ele>222.68000000000001</ele>
        <time>2025-05-18T11:19:28Z</time>
      </trkpt>
      <trkpt lat="43.609280996024609" lon="6.813039975240827">
        <ele>221.72</ele>
        <time>2025-05-18T11:19:29Z</time>
      </trkpt>
      <trkpt lat="43.609397001564503" lon="6.813235022127628">
        <ele>220.75999999999999</ele>
        <time>2025-05-18T11:19:30Z</time>
      </trkpt>
      <trkpt lat="43.609518958255649" lon="6.813440965488553">
        <ele>219.31999999999999</ele>
        <time>2025-05-18T11:19:31Z</time>
      </trkpt>
      <trkpt lat="43.609659019857645" lon="6.81362796574831">
        <ele>218.36000000000001</ele>
        <time>2025-05-18T11:19:32Z</time>
      </trkpt>
      <trkpt lat="43.60981903038919" lon="6.813812032341957">
        <ele>216.91</ele>
        <time>2025-05-18T11:19:33Z</time>
      </trkpt>
      <trkpt lat="43.611245965585113" lon="6.815156992524862">
        <ele>206.81999999999999</ele>
        <time>2025-05-18T11:19:41Z</time>
      </trkpt>
      <trkpt lat="43.611517958343029" lon="6.815530993044376">
        <ele>204.41999999999999</ele>
        <time>2025-05-18T11:19:43Z</time>
      </trkpt>
      <trkpt lat="43.611633963882923" lon="6.815727967768908">
        <ele>203.94</ele>
        <time>2025-05-18T11:19:44Z</time>
      </trkpt>
      <trkpt lat="43.611736977472901" lon="6.815932989120483">
        <ele>202.97999999999999</ele>
        <time>2025-05-18T11:19:45Z</time>
      </trkpt>
      <trkpt lat="43.611811995506287" lon="6.816147984936833">
        <ele>202.49000000000001</ele>
        <time>2025-05-18T11:19:46Z</time>
      </trkpt>
      <trkpt lat="43.61188299022615" lon="6.816358035430312">
        <ele>202.00999999999999</ele>
        <time>2025-05-18T11:19:47Z</time>
      </trkpt>
      <trkpt lat="43.611924983561039" lon="6.816574959084392">
        <ele>201.05000000000001</ele>
        <time>2025-05-18T11:19:48Z</time>
      </trkpt>
      <trkpt lat="43.611964965239167" lon="6.81678400374949">
        <ele>200.09</ele>
        <time>2025-05-18T11:19:49Z</time>
      </trkpt>
      <trkpt lat="43.612280040979385" lon="6.81835200637579">
        <ele>194.80000000000001</ele>
        <time>2025-05-18T11:19:57Z</time>
      </trkpt>
      <trkpt lat="43.612455977126956" lon="6.818828014656901">
        <ele>193.36000000000001</ele>
        <time>2025-05-18T11:19:59Z</time>
      </trkpt>
      <trkpt lat="43.612582962960005" lon="6.819031024351716">
        <ele>192.40000000000001</ele>
        <time>2025-05-18T11:20:00Z</time>
      </trkpt>
      <trkpt lat="43.612711960449815" lon="6.819244008511305">
        <ele>191.44</ele>
        <time>2025-05-18T11:20:01Z</time>
      </trkpt>
      <trkpt lat="43.613010020926595" lon="6.819600993767381">
        <ele>189.52000000000001</ele>
        <time>2025-05-18T11:20:03Z</time>
      </trkpt>
      <trkpt lat="43.614026997238398" lon="6.820732969790697">
        <ele>180.38</ele>
        <time>2025-05-18T11:20:10Z</time>
      </trkpt>
      <trkpt lat="43.614175021648407" lon="6.820856016129255">
        <ele>178.94</ele>
        <time>2025-05-18T11:20:11Z</time>
      </trkpt>
      <trkpt lat="43.614334026351571" lon="6.820908989757299">
        <ele>177.5</ele>
        <time>2025-05-18T11:20:12Z</time>
      </trkpt>
      <trkpt lat="43.614503005519509" lon="6.820965986698866">
        <ele>176.06</ele>
        <time>2025-05-18T11:20:13Z</time>
      </trkpt>
      <trkpt lat="43.615760039538145" lon="6.821423973888159">
        <ele>172.21000000000001</ele>
        <time>2025-05-18T11:20:20Z</time>
      </trkpt>
      <trkpt lat="43.616268988698721" lon="6.821710970252752">
        <ele>172.69</ele>
        <time>2025-05-18T11:20:23Z</time>
      </trkpt>
      <trkpt lat="43.616424975916743" lon="6.821853965520859">
        <ele>172.69</ele>
        <time>2025-05-18T11:20:24Z</time>
      </trkpt>
      <trkpt lat="43.616576017811894" lon="6.821993021294475">
        <ele>173.16999999999999</ele>
        <time>2025-05-18T11:20:25Z</time>
      </trkpt>
      <trkpt lat="43.616870976984501" lon="6.822264008224011">
        <ele>172.69</ele>
        <time>2025-05-18T11:20:27Z</time>
      </trkpt>
      <trkpt lat="43.61704096198082" lon="6.822335002943873">
        <ele>171.72999999999999</ele>
        <time>2025-05-18T11:20:28Z</time>
      </trkpt>
      <trkpt lat="43.617208013311028" lon="6.822398034855723">
        <ele>170.77000000000001</ele>
        <time>2025-05-18T11:20:29Z</time>
      </trkpt>
      <trkpt lat="43.617526022717357" lon="6.822519991546869">
        <ele>168.84999999999999</ele>
        <time>2025-05-18T11:20:31Z</time>
      </trkpt>
      <trkpt lat="43.617672035470605" lon="6.822614958509803">
        <ele>168.37</ele>
        <time>2025-05-18T11:20:32Z</time>
      </trkpt>
      <trkpt lat="43.617806984111667" lon="6.82275703176856">
        <ele>167.41</ele>
        <time>2025-05-18T11:20:33Z</time>
      </trkpt>
      <trkpt lat="43.617948973551393" lon="6.822903966531158">
        <ele>166.44999999999999</ele>
        <time>2025-05-18T11:20:34Z</time>
      </trkpt>
      <trkpt lat="43.61809398047626" lon="6.823055008426309">
        <ele>165.47999999999999</ele>
        <time>2025-05-18T11:20:35Z</time>
      </trkpt>
      <trkpt lat="43.618245022371411" lon="6.823192974552512">
        <ele>165</ele>
        <time>2025-05-18T11:20:36Z</time>
      </trkpt>
      <trkpt lat="43.618403021246195" lon="6.823308980092406">
        <ele>164.03999999999999</ele>
        <time>2025-05-18T11:20:37Z</time>
      </trkpt>
      <trkpt lat="43.619189998134971" lon="6.823782976716757">
        <ele>160.19999999999999</ele>
        <time>2025-05-18T11:20:42Z</time>
      </trkpt>
      <trkpt lat="43.619359983131289" lon="6.823808960616589">
        <ele>159.24000000000001</ele>
        <time>2025-05-18T11:20:43Z</time>
      </trkpt>
      <trkpt lat="43.619534997269511" lon="6.823822958394885">
        <ele>158.27000000000001</ele>
        <time>2025-05-18T11:20:44Z</time>
      </trkpt>
      <trkpt lat="43.61970498226583" lon="6.823837039992213">
        <ele>157.31</ele>
        <time>2025-05-18T11:20:45Z</time>
      </trkpt>
      <trkpt lat="43.619870021939278" lon="6.823909962549806">
        <ele>156.34999999999999</ele>
        <time>2025-05-18T11:20:46Z</time>
      </trkpt>
      <trkpt lat="43.620029026642442" lon="6.823993027210236">
        <ele>155.38999999999999</ele>
        <time>2025-05-18T11:20:47Z</time>
      </trkpt>
      <trkpt lat="43.620185013860464" lon="6.824073996394873">
        <ele>154.43000000000001</ele>
        <time>2025-05-18T11:20:48Z</time>
      </trkpt>
      <trkpt lat="43.62034703604877" lon="6.824126970022917">
        <ele>153.47</ele>
        <time>2025-05-18T11:20:49Z</time>
      </trkpt>
      <trkpt lat="43.62052196636796" lon="6.824162006378174">
        <ele>152.50999999999999</ele>
        <time>2025-05-18T11:20:50Z</time>
      </trkpt>
      <trkpt lat="43.620708966627717" lon="6.824162006378174">
        <ele>151.53999999999999</ele>
        <time>2025-05-18T11:20:51Z</time>
      </trkpt>
      <trkpt lat="43.620899990200996" lon="6.824162006378174">
        <ele>150.58000000000001</ele>
        <time>2025-05-18T11:20:52Z</time>
      </trkpt>
      <trkpt lat="43.62107902765274" lon="6.824136022478342">
        <ele>149.62</ele>
        <time>2025-05-18T11:20:53Z</time>
      </trkpt>
      <trkpt lat="43.621252030134201" lon="6.824098974466324">
        <ele>149.13999999999999</ele>
        <time>2025-05-18T11:20:54Z</time>
      </trkpt>
      <trkpt lat="43.621425032615662" lon="6.824011970311403">
        <ele>148.18000000000001</ele>
        <time>2025-05-18T11:20:55Z</time>
      </trkpt>
      <trkpt lat="43.621933981776237" lon="6.823731008917093">
        <ele>146.25999999999999</ele>
        <time>2025-05-18T11:20:58Z</time>
      </trkpt>
      <trkpt lat="43.622093992307782" lon="6.823595976457">
        <ele>144.81999999999999</ele>
        <time>2025-05-18T11:20:59Z</time>
      </trkpt>
      <trkpt lat="43.622255008667707" lon="6.823459016159177">
        <ele>143.84999999999999</ele>
        <time>2025-05-18T11:21:00Z</time>
      </trkpt>
      <trkpt lat="43.622415019199252" lon="6.823320966213942">
        <ele>142.41</ele>
        <time>2025-05-18T11:21:01Z</time>
      </trkpt>
      <trkpt lat="43.622576035559177" lon="6.823184005916119">
        <ele>140.97</ele>
        <time>2025-05-18T11:21:02Z</time>
      </trkpt>
      <trkpt lat="43.622746020555496" lon="6.823064982891083">
        <ele>140.00999999999999</ele>
        <time>2025-05-18T11:21:03Z</time>
      </trkpt>
      <trkpt lat="43.622921034693718" lon="6.822949983179569">
        <ele>138.56999999999999</ele>
        <time>2025-05-18T11:21:04Z</time>
      </trkpt>
      <trkpt lat="43.623253041878343" lon="6.822731969878078">
        <ele>136.16</ele>
        <time>2025-05-18T11:21:06Z</time>
      </trkpt>
      <trkpt lat="43.623395031318069" lon="6.822596015408635">
        <ele>134.72</ele>
        <time>2025-05-18T11:21:07Z</time>
      </trkpt>
      <trkpt lat="43.623522017151117" lon="6.822456959635019">
        <ele>133.28</ele>
        <time>2025-05-18T11:21:08Z</time>
      </trkpt>
      <trkpt lat="43.623891994357109" lon="6.822121012955904">
        <ele>129.91999999999999</ele>
        <time>2025-05-18T11:21:11Z</time>
      </trkpt>
      <trkpt lat="43.6240029707551" lon="6.822097962722182">
        <ele>128.47</ele>
        <time>2025-05-18T11:21:12Z</time>
      </trkpt>
      <trkpt lat="43.624121993780136" lon="6.822092011570931">
        <ele>127.03</ele>
        <time>2025-05-18T11:21:13Z</time>
      </trkpt>
      <trkpt lat="43.624240010976791" lon="6.822084970772266">
        <ele>125.59</ele>
        <time>2025-05-18T11:21:14Z</time>
      </trkpt>
      <trkpt lat="43.624364985153079" lon="6.822030991315842">
        <ele>123.67</ele>
        <time>2025-05-18T11:21:15Z</time>
      </trkpt>
      <trkpt lat="43.624456012621522" lon="6.821909034624696">
        <ele>121.73999999999999</ele>
        <time>2025-05-18T11:21:16Z</time>
      </trkpt>
      <trkpt lat="43.624501023441553" lon="6.821798980236054">
        <ele>120.3</ele>
        <time>2025-05-18T11:21:17Z</time>
      </trkpt>
      <trkpt lat="43.624561037868261" lon="6.821653973311186">
        <ele>118.86</ele>
        <time>2025-05-18T11:21:18Z</time>
      </trkpt>
      <trkpt lat="43.624631026759744" lon="6.821482982486486">
        <ele>116.94</ele>
        <time>2025-05-18T11:21:19Z</time>
      </trkpt>
      <trkpt lat="43.624789025634527" lon="6.821098001673818">
        <ele>113.56999999999999</ele>
        <time>2025-05-18T11:21:21Z</time>
      </trkpt>
      <trkpt lat="43.624884998425841" lon="6.820974033325911">
        <ele>112.13</ele>
        <time>2025-05-18T11:21:22Z</time>
      </trkpt>
      <trkpt lat="43.624998992308974" lon="6.820843024179339">
        <ele>110.69</ele>
        <time>2025-05-18T11:21:23Z</time>
      </trkpt>
      <trkpt lat="43.62511801533401" lon="6.820724001154304">
        <ele>109.25</ele>
        <time>2025-05-18T11:21:24Z</time>
      </trkpt>
      <trkpt lat="43.62526997923851" lon="6.820622999221087">
        <ele>107.31999999999999</ele>
        <time>2025-05-18T11:21:25Z</time>
      </trkpt>
      <trkpt lat="43.625412974506617" lon="6.820496013388038">
        <ele>105.88</ele>
        <time>2025-05-18T11:21:26Z</time>
      </trkpt>
      <trkpt lat="43.62552797421813" lon="6.82037296704948">
        <ele>103.95999999999999</ele>
        <time>2025-05-18T11:21:27Z</time>
      </trkpt>
      <trkpt lat="43.625652026385069" lon="6.820216979831457">
        <ele>102.52</ele>
        <time>2025-05-18T11:21:28Z</time>
      </trkpt>
      <trkpt lat="43.625726038590074" lon="6.820025034248829">
        <ele>101.08</ele>
        <time>2025-05-18T11:21:29Z</time>
      </trkpt>
      <trkpt lat="43.625807007774711" lon="6.81981397792697">
        <ele>100.11</ele>
        <time>2025-05-18T11:21:30Z</time>
      </trkpt>
      <trkpt lat="43.625976992771029" lon="6.819370994344354">
        <ele>98.670000000000002</ele>
        <time>2025-05-18T11:21:32Z</time>
      </trkpt>
      <trkpt lat="43.626057039946318" lon="6.819163961336017">
        <ele>98.189999999999998</ele>
        <time>2025-05-18T11:21:33Z</time>
      </trkpt>
      <trkpt lat="43.626174973323941" lon="6.819035969674587">
        <ele>97.709999999999994</ele>
        <time>2025-05-18T11:21:34Z</time>
      </trkpt>
      <trkpt lat="43.626320986077189" lon="6.818895991891623">
        <ele>96.75</ele>
        <time>2025-05-18T11:21:35Z</time>
      </trkpt>
      <trkpt lat="43.626483008265495" lon="6.8187400046736">
        <ele>96.269999999999996</ele>
        <time>2025-05-18T11:21:36Z</time>
      </trkpt>
      <trkpt lat="43.626644024625421" lon="6.818579994142056">
        <ele>95.310000000000002</ele>
        <time>2025-05-18T11:21:37Z</time>
      </trkpt>
      <trkpt lat="43.626786014065146" lon="6.81841503828764">
        <ele>94.349999999999994</ele>
        <time>2025-05-18T11:21:38Z</time>
      </trkpt>
      <trkpt lat="43.627432007342577" lon="6.817602999508381">
        <ele>90.019999999999996</ele>
        <time>2025-05-18T11:21:44Z</time>
      </trkpt>
      <trkpt lat="43.627606015652418" lon="6.817392027005553">
        <ele>89.060000000000002</ele>
        <time>2025-05-18T11:21:46Z</time>
      </trkpt>
      <trkpt lat="43.627685979008675" lon="6.817339975386858">
        <ele>88.099999999999994</ele>
        <time>2025-05-18T11:21:47Z</time>
      </trkpt>
      <trkpt lat="43.62780399620533" lon="6.817295970395207">
        <ele>87.620000000000005</ele>
        <time>2025-05-18T11:21:48Z</time>
      </trkpt>
      <trkpt lat="43.627878008410335" lon="6.817345004528761">
        <ele>87.140000000000001</ele>
        <time>2025-05-18T11:21:49Z</time>
      </trkpt>
      <trkpt lat="43.627970963716507" lon="6.817442988976836">
        <ele>87.140000000000001</ele>
        <time>2025-05-18T11:21:50Z</time>
      </trkpt>
      <trkpt lat="43.62804296426475" lon="6.81755798868835">
        <ele>87.140000000000001</ele>
        <time>2025-05-18T11:21:51Z</time>
      </trkpt>
      <trkpt lat="43.628111025318503" lon="6.817677011713386">
        <ele>87.620000000000005</ele>
        <time>2025-05-18T11:21:52Z</time>
      </trkpt>
      <trkpt lat="43.628229964524508" lon="6.817947998642921">
        <ele>88.099999999999994</ele>
        <time>2025-05-18T11:21:54Z</time>
      </trkpt>
      <trkpt lat="43.62825402058661" lon="6.818096023052931">
        <ele>88.099999999999994</ele>
        <time>2025-05-18T11:21:55Z</time>
      </trkpt>
      <trkpt lat="43.62825402058661" lon="6.818242035806179">
        <ele>88.099999999999994</ele>
        <time>2025-05-18T11:21:56Z</time>
      </trkpt>
      <trkpt lat="43.628200041130185" lon="6.818343037739396">
        <ele>87.620000000000005</ele>
        <time>2025-05-18T11:21:57Z</time>
      </trkpt>
      <trkpt lat="43.628142960369587" lon="6.818428030237556">
        <ele>87.620000000000005</ele>
        <time>2025-05-18T11:21:58Z</time>
      </trkpt>
      <trkpt lat="43.62808302976191" lon="6.818518973886967">
        <ele>87.140000000000001</ele>
        <time>2025-05-18T11:21:59Z</time>
      </trkpt>
      <trkpt lat="43.627984961494803" lon="6.818616036325693">
        <ele>87.140000000000001</ele>
        <time>2025-05-18T11:22:00Z</time>
      </trkpt>
      <trkpt lat="43.627882031723857" lon="6.81871896609664">
        <ele>86.659999999999997</ele>
        <time>2025-05-18T11:22:01Z</time>
      </trkpt>
      <trkpt lat="43.627593023702502" lon="6.819051979109645">
        <ele>89.060000000000002</ele>
        <time>2025-05-18T11:22:04Z</time>
      </trkpt>
      <trkpt lat="43.627510964870453" lon="6.819193968549371">
        <ele>90.019999999999996</ele>
        <time>2025-05-18T11:22:05Z</time>
      </trkpt>
      <trkpt lat="43.627339974045753" lon="6.819564029574394">
        <ele>91.939999999999998</ele>
        <time>2025-05-18T11:22:07Z</time>
      </trkpt>
      <trkpt lat="43.62726797349751" lon="6.819753963500261">
        <ele>93.390000000000001</ele>
        <time>2025-05-18T11:22:08Z</time>
      </trkpt>
      <trkpt lat="43.627147022634745" lon="6.82011497206986">
        <ele>95.310000000000002</ele>
        <time>2025-05-18T11:22:10Z</time>
      </trkpt>
      <trkpt lat="43.62709597684443" lon="6.820278000086546">
        <ele>95.790000000000006</ele>
        <time>2025-05-18T11:22:11Z</time>
      </trkpt>
      <trkpt lat="43.627011990174651" lon="6.820375984534621">
        <ele>96.75</ele>
        <time>2025-05-18T11:22:12Z</time>
      </trkpt>
      <trkpt lat="43.626909982413054" lon="6.820495007559657">
        <ele>97.230000000000004</ele>
        <time>2025-05-18T11:22:13Z</time>
      </trkpt>
      <trkpt lat="43.62681501545012" lon="6.820605983957648">
        <ele>97.709999999999994</ele>
        <time>2025-05-18T11:22:14Z</time>
      </trkpt>
      <trkpt lat="43.626722982153296" lon="6.820712015032768">
        <ele>98.670000000000002</ele>
        <time>2025-05-18T11:22:15Z</time>
      </trkpt>
      <trkpt lat="43.626655004918575" lon="6.820860039442778">
        <ele>99.150000000000006</ele>
        <time>2025-05-18T11:22:16Z</time>
      </trkpt>
      <trkpt lat="43.626598007977009" lon="6.821008985862136">
        <ele>100.11</ele>
        <time>2025-05-18T11:22:17Z</time>
      </trkpt>
      <trkpt lat="43.626571018248796" lon="6.821159021928906">
        <ele>101.08</ele>
        <time>2025-05-18T11:22:18Z</time>
      </trkpt>
      <trkpt lat="43.626526007428765" lon="6.821303023025394">
        <ele>101.56</ele>
        <time>2025-05-18T11:22:19Z</time>
      </trkpt>
      <trkpt lat="43.626451995223761" lon="6.821479965001345">
        <ele>103</ele>
        <time>2025-05-18T11:22:20Z</time>
      </trkpt>
      <trkpt lat="43.626201041042805" lon="6.821914985775948">
        <ele>106.84</ele>
        <time>2025-05-18T11:22:23Z</time>
      </trkpt>
      <trkpt lat="43.626118982210755" lon="6.82206803932786">
        <ele>107.81</ele>
        <time>2025-05-18T11:22:24Z</time>
      </trkpt>
      <trkpt lat="43.626062991097569" lon="6.822226038202643">
        <ele>108.29000000000001</ele>
        <time>2025-05-18T11:22:25Z</time>
      </trkpt>
      <trkpt lat="43.625540966168046" lon="6.823807032778859">
        <ele>119.34</ele>
        <time>2025-05-18T11:22:35Z</time>
      </trkpt>
      <trkpt lat="43.625256987288594" lon="6.824845969676971">
        <ele>125.11</ele>
        <time>2025-05-18T11:22:41Z</time>
      </trkpt>
      <trkpt lat="43.62522698007524" lon="6.825030036270618">
        <ele>126.06999999999999</ele>
        <time>2025-05-18T11:22:42Z</time>
      </trkpt>
      <trkpt lat="43.625112986192107" lon="6.82595900259912">
        <ele>130.88</ele>
        <time>2025-05-18T11:22:47Z</time>
      </trkpt>
      <trkpt lat="43.624922968447208" lon="6.826627040281892">
        <ele>135.68000000000001</ele>
        <time>2025-05-18T11:22:51Z</time>
      </trkpt>
      <trkpt lat="43.624889021739364" lon="6.826782021671534">
        <ele>137.13</ele>
        <time>2025-05-18T11:22:52Z</time>
      </trkpt>
      <trkpt lat="43.624843005090952" lon="6.826994000002742">
        <ele>138.56999999999999</ele>
        <time>2025-05-18T11:22:53Z</time>
      </trkpt>
      <trkpt lat="43.62490301951766" lon="6.828424958512187">
        <ele>146.74000000000001</ele>
        <time>2025-05-18T11:23:01Z</time>
      </trkpt>
      <trkpt lat="43.625056995078921" lon="6.829967983067036">
        <ele>154.43000000000001</ele>
        <time>2025-05-18T11:23:10Z</time>
      </trkpt>
      <trkpt lat="43.625251036137342" lon="6.831908980384469">
        <ele>163.56</ele>
        <time>2025-05-18T11:23:21Z</time>
      </trkpt>
      <trkpt lat="43.625308033078909" lon="6.832062033936381">
        <ele>165</ele>
        <time>2025-05-18T11:23:22Z</time>
      </trkpt>
      <trkpt lat="43.625478018075228" lon="6.832515997812152">
        <ele>166.93000000000001</ele>
        <time>2025-05-18T11:23:25Z</time>
      </trkpt>
      <trkpt lat="43.625524034723639" lon="6.832679025828838">
        <ele>167.41</ele>
        <time>2025-05-18T11:23:26Z</time>
      </trkpt>
      <trkpt lat="43.625556975603104" lon="6.832848004996777">
        <ele>168.37</ele>
        <time>2025-05-18T11:23:27Z</time>
      </trkpt>
      <trkpt lat="43.625657977536321" lon="6.833367012441158">
        <ele>171.25</ele>
        <time>2025-05-18T11:23:30Z</time>
      </trkpt>
      <trkpt lat="43.625726960599422" lon="6.833483017981052">
        <ele>171.72999999999999</ele>
        <time>2025-05-18T11:23:31Z</time>
      </trkpt>
      <trkpt lat="43.626492982730269" lon="6.834707027301192">
        <ele>180.87</ele>
        <time>2025-05-18T11:23:40Z</time>
      </trkpt>
      <trkpt lat="43.626917023211718" lon="6.835342962294817">
        <ele>184.71000000000001</ele>
        <time>2025-05-18T11:23:45Z</time>
      </trkpt>
      <trkpt lat="43.62776099704206" lon="6.836306964978576">
        <ele>190.47999999999999</ele>
        <time>2025-05-18T11:23:53Z</time>
      </trkpt>
      <trkpt lat="43.627864010632038" lon="6.836373014375567">
        <ele>191.44</ele>
        <time>2025-05-18T11:23:54Z</time>
      </trkpt>
      <trkpt lat="43.627971969544888" lon="6.836440991610289">
        <ele>192.40000000000001</ele>
        <time>2025-05-18T11:23:55Z</time>
      </trkpt>
      <trkpt lat="43.628086969256401" lon="6.836483990773559">
        <ele>192.88</ele>
        <time>2025-05-18T11:23:56Z</time>
      </trkpt>
      <trkpt lat="43.628208003938198" lon="6.836519027128816">
        <ele>193.84</ele>
        <time>2025-05-18T11:23:57Z</time>
      </trkpt>
      <trkpt lat="43.628328032791615" lon="6.836554985493422">
        <ele>194.80000000000001</ele>
        <time>2025-05-18T11:23:58Z</time>
      </trkpt>
      <trkpt lat="43.628443032503128" lon="6.836628997698426">
        <ele>196.25</ele>
        <time>2025-05-18T11:23:59Z</time>
      </trkpt>
      <trkpt lat="43.628554008901119" lon="6.836716001853347">
        <ele>196.72999999999999</ele>
        <time>2025-05-18T11:24:00Z</time>
      </trkpt>
      <trkpt lat="43.628670014441013" lon="6.8368099629879">
        <ele>197.69</ele>
        <time>2025-05-18T11:24:01Z</time>
      </trkpt>
      <trkpt lat="43.628772022202611" lon="6.836928986012936">
        <ele>198.65000000000001</ele>
        <time>2025-05-18T11:24:02Z</time>
      </trkpt>
      <trkpt lat="43.628872018307447" lon="6.83704499155283">
        <ele>199.61000000000001</ele>
        <time>2025-05-18T11:24:03Z</time>
      </trkpt>
      <trkpt lat="43.629037979990244" lon="6.837325030937791">
        <ele>201.53</ele>
        <time>2025-05-18T11:24:05Z</time>
      </trkpt>
      <trkpt lat="43.629112998023629" lon="6.837468026205897">
        <ele>202.49000000000001</ele>
        <time>2025-05-18T11:24:06Z</time>
      </trkpt>
      <trkpt lat="43.629166977480054" lon="6.837623007595539">
        <ele>203.46000000000001</ele>
        <time>2025-05-18T11:24:07Z</time>
      </trkpt>
      <trkpt lat="43.629221962764859" lon="6.837781006470323">
        <ele>204.41999999999999</ele>
        <time>2025-05-18T11:24:08Z</time>
      </trkpt>
      <trkpt lat="43.629276026040316" lon="6.837939005345106">
        <ele>205.38</ele>
        <time>2025-05-18T11:24:09Z</time>
      </trkpt>
      <trkpt lat="43.629327993839979" lon="6.838089041411877">
        <ele>206.34</ele>
        <time>2025-05-18T11:24:10Z</time>
      </trkpt>
      <trkpt lat="43.629419021308422" lon="6.838217033073306">
        <ele>207.78</ele>
        <time>2025-05-18T11:24:11Z</time>
      </trkpt>
      <trkpt lat="43.629508959129453" lon="6.838343013077974">
        <ele>208.74000000000001</ele>
        <time>2025-05-18T11:24:12Z</time>
      </trkpt>
      <trkpt lat="43.629613984376192" lon="6.838411996141076">
        <ele>209.69999999999999</ele>
        <time>2025-05-18T11:24:13Z</time>
      </trkpt>
      <trkpt lat="43.62973703071475" lon="6.838453989475966">
        <ele>210.66999999999999</ele>
        <time>2025-05-18T11:24:14Z</time>
      </trkpt>
      <trkpt lat="43.629870973527431" lon="6.838474022224546">
        <ele>211.63</ele>
        <time>2025-05-18T11:24:15Z</time>
      </trkpt>
      <trkpt lat="43.630003994330764" lon="6.838474022224546">
        <ele>212.59</ele>
        <time>2025-05-18T11:24:16Z</time>
      </trkpt>
      <trkpt lat="43.630374977365136" lon="6.838474022224546">
        <ele>214.50999999999999</ele>
        <time>2025-05-18T11:24:19Z</time>
      </trkpt>
      <trkpt lat="43.630487965419888" lon="6.838523978367448">
        <ele>214.99000000000001</ele>
        <time>2025-05-18T11:24:20Z</time>
      </trkpt>
      <trkpt lat="43.63059701398015" lon="6.838573012501001">
        <ele>215.47</ele>
        <time>2025-05-18T11:24:21Z</time>
      </trkpt>
      <trkpt lat="43.63070597872138" lon="6.838621962815523">
        <ele>216.43000000000001</ele>
        <time>2025-05-18T11:24:22Z</time>
      </trkpt>
      <trkpt lat="43.630823995918036" lon="6.83867996558547">
        <ele>216.91</ele>
        <time>2025-05-18T11:24:23Z</time>
      </trkpt>
      <trkpt lat="43.63192998804152" lon="6.83955998159945">
        <ele>224.61000000000001</ele>
        <time>2025-05-18T11:24:33Z</time>
      </trkpt>
      <trkpt lat="43.632031995803118" lon="6.839643968269229">
        <ele>225.09</ele>
        <time>2025-05-18T11:24:34Z</time>
      </trkpt>
      <trkpt lat="43.632115982472897" lon="6.839766008779407">
        <ele>225.56999999999999</ele>
        <time>2025-05-18T11:24:35Z</time>
      </trkpt>
      <trkpt lat="43.632157975807786" lon="6.839901963248849">
        <ele>226.53</ele>
        <time>2025-05-18T11:24:36Z</time>
      </trkpt>
      <trkpt lat="43.632178008556366" lon="6.840054010972381">
        <ele>227.00999999999999</ele>
        <time>2025-05-18T11:24:37Z</time>
      </trkpt>
      <trkpt lat="43.632169961929321" lon="6.840213015675545">
        <ele>227.49000000000001</ele>
        <time>2025-05-18T11:24:38Z</time>
      </trkpt>
      <trkpt lat="43.632163004949689" lon="6.840378977358341">
        <ele>227.97</ele>
        <time>2025-05-18T11:24:39Z</time>
      </trkpt>
      <trkpt lat="43.632168034091592" lon="6.840545022860169">
        <ele>228.44999999999999</ele>
        <time>2025-05-18T11:24:40Z</time>
      </trkpt>
      <trkpt lat="43.632191000506282" lon="6.840706039220095">
        <ele>229.41</ele>
        <time>2025-05-18T11:24:41Z</time>
      </trkpt>
      <trkpt lat="43.632254032418132" lon="6.840845011174679">
        <ele>229.88999999999999</ele>
        <time>2025-05-18T11:24:42Z</time>
      </trkpt>
      <trkpt lat="43.632332989946008" lon="6.840978031978011">
        <ele>229.88999999999999</ele>
        <time>2025-05-18T11:24:43Z</time>
      </trkpt>
      <trkpt lat="43.632427034899592" lon="6.841098982840776">
        <ele>229.88999999999999</ele>
        <time>2025-05-18T11:24:44Z</time>
      </trkpt>
      <trkpt lat="43.632535999640822" lon="6.841172995045781">
        <ele>230.37</ele>
        <time>2025-05-18T11:24:45Z</time>
      </trkpt>
      <trkpt lat="43.632648987695575" lon="6.841242983937264">
        <ele>230.84999999999999</ele>
        <time>2025-05-18T11:24:46Z</time>
      </trkpt>
      <trkpt lat="43.632748983800411" lon="6.841306015849114">
        <ele>230.84999999999999</ele>
        <time>2025-05-18T11:24:47Z</time>
      </trkpt>
      <trkpt lat="43.632825007662177" lon="6.841356977820396">
        <ele>230.84999999999999</ele>
        <time>2025-05-18T11:24:48Z</time>
      </trkpt>
      <trkpt lat="43.63287596963346" lon="6.841460997238755">
        <ele>231.33000000000001</ele>
        <time>2025-05-18T11:24:49Z</time>
      </trkpt>
      <trkpt lat="43.632876975461841" lon="6.841565016657114">
        <ele>231.81</ele>
        <time>2025-05-18T11:24:50Z</time>
      </trkpt>
      <trkpt lat="43.632858032360673" lon="6.841670041903853">
        <ele>232.30000000000001</ele>
        <time>2025-05-18T11:24:51Z</time>
      </trkpt>
      <trkpt lat="43.632803969085217" lon="6.841753022745252">
        <ele>232.78</ele>
        <time>2025-05-18T11:24:52Z</time>
      </trkpt>
      <trkpt lat="43.632729034870863" lon="6.841776994988322">
        <ele>232.78</ele>
        <time>2025-05-18T11:24:53Z</time>
      </trkpt>
      <trkpt lat="43.632629038766026" lon="6.841756962239742">
        <ele>232.78</ele>
        <time>2025-05-18T11:24:54Z</time>
      </trkpt>
      <trkpt lat="43.632510015740991" lon="6.841732989996672">
        <ele>232.78</ele>
        <time>2025-05-18T11:24:55Z</time>
      </trkpt>
      <trkpt lat="43.632373977452517" lon="6.841706000268459">
        <ele>233.25999999999999</ele>
        <time>2025-05-18T11:24:56Z</time>
      </trkpt>
      <trkpt lat="43.632222013548017" lon="6.84172997251153">
        <ele>233.25999999999999</ele>
        <time>2025-05-18T11:24:57Z</time>
      </trkpt>
      <trkpt lat="43.632080024108291" lon="6.841790992766619">
        <ele>233.74000000000001</ele>
        <time>2025-05-18T11:24:58Z</time>
      </trkpt>
      <trkpt lat="43.631941974163055" lon="6.841881014406681">
        <ele>234.22</ele>
        <time>2025-05-18T11:24:59Z</time>
      </trkpt>
      <trkpt lat="43.63182102330029" lon="6.841986961662769">
        <ele>234.69999999999999</ele>
        <time>2025-05-18T11:25:00Z</time>
      </trkpt>
      <trkpt lat="43.631712980568409" lon="6.842081006616354">
        <ele>234.69999999999999</ele>
        <time>2025-05-18T11:25:01Z</time>
      </trkpt>
      <trkpt lat="43.631626982241869" lon="6.842187959700823">
        <ele>235.66</ele>
        <time>2025-05-18T11:25:02Z</time>
      </trkpt>
      <trkpt lat="43.631565039977431" lon="6.842294996604323">
        <ele>236.62</ele>
        <time>2025-05-18T11:25:03Z</time>
      </trkpt>
      <trkpt lat="43.631510976701975" lon="6.842407984659076">
        <ele>237.58000000000001</ele>
        <time>2025-05-18T11:25:04Z</time>
      </trkpt>
      <trkpt lat="43.631489016115665" lon="6.842527007684112">
        <ele>239.02000000000001</ele>
        <time>2025-05-18T11:25:05Z</time>
      </trkpt>
      <trkpt lat="43.631473006680608" lon="6.842647958546877">
        <ele>239.99000000000001</ele>
        <time>2025-05-18T11:25:06Z</time>
      </trkpt>
      <trkpt lat="43.631483986973763" lon="6.842777039855719">
        <ele>241.43000000000001</ele>
        <time>2025-05-18T11:25:07Z</time>
      </trkpt>
      <trkpt lat="43.631503013893962" lon="6.842904025688767">
        <ele>242.38999999999999</ele>
        <time>2025-05-18T11:25:08Z</time>
      </trkpt>
      <trkpt lat="43.631521034985781" lon="6.843021037057042">
        <ele>243.34999999999999</ele>
        <time>2025-05-18T11:25:09Z</time>
      </trkpt>
      <trkpt lat="43.631537966430187" lon="6.843134025111795">
        <ele>244.31</ele>
        <time>2025-05-18T11:25:10Z</time>
      </trkpt>
      <trkpt lat="43.631545007228851" lon="6.843296969309449">
        <ele>245.27000000000001</ele>
        <time>2025-05-18T11:25:11Z</time>
      </trkpt>
      <trkpt lat="43.631451968103647" lon="6.843410041183233">
        <ele>246.22999999999999</ele>
        <time>2025-05-18T11:25:12Z</time>
      </trkpt>
      <trkpt lat="43.631451968103647" lon="6.843501990661025">
        <ele>247.19999999999999</ele>
        <time>2025-05-18T11:25:13Z</time>
      </trkpt>
      <trkpt lat="43.631559005007148" lon="6.843645991757512">
        <ele>247.68000000000001</ele>
        <time>2025-05-18T11:25:14Z</time>
      </trkpt>
      <trkpt lat="43.63158599473536" lon="6.84374900534749">
        <ele>248.16</ele>
        <time>2025-05-18T11:25:15Z</time>
      </trkpt>
      <trkpt lat="43.631709963083267" lon="6.844229036942124">
        <ele>248.63999999999999</ele>
        <time>2025-05-18T11:25:18Z</time>
      </trkpt>
      <trkpt lat="43.63177701830864" lon="6.844379995018244">
        <ele>248.16</ele>
        <time>2025-05-18T11:25:19Z</time>
      </trkpt>
      <trkpt lat="43.631865028291941" lon="6.844512009993196">
        <ele>248.16</ele>
        <time>2025-05-18T11:25:20Z</time>
      </trkpt>
      <trkpt lat="43.63197298720479" lon="6.844620974734426">
        <ele>248.16</ele>
        <time>2025-05-18T11:25:21Z</time>
      </trkpt>
      <trkpt lat="43.632094021886587" lon="6.844712002202869">
        <ele>248.63999999999999</ele>
        <time>2025-05-18T11:25:22Z</time>
      </trkpt>
      <trkpt lat="43.632206004112959" lon="6.844795988872647">
        <ele>248.63999999999999</ele>
        <time>2025-05-18T11:25:23Z</time>
      </trkpt>
      <trkpt lat="43.632602971047163" lon="6.845120033249259">
        <ele>247.68000000000001</ele>
        <time>2025-05-18T11:25:27Z</time>
      </trkpt>
      <trkpt lat="43.632689975202084" lon="6.845217011868954">
        <ele>247.68000000000001</ele>
        <time>2025-05-18T11:25:28Z</time>
      </trkpt>
      <trkpt lat="43.632775973528624" lon="6.845326982438564">
        <ele>247.68000000000001</ele>
        <time>2025-05-18T11:25:29Z</time>
      </trkpt>
      <trkpt lat="43.632845040410757" lon="6.845457991585136">
        <ele>247.68000000000001</ele>
        <time>2025-05-18T11:25:30Z</time>
      </trkpt>
      <trkpt lat="43.632893990725279" lon="6.845608027651906">
        <ele>247.68000000000001</ele>
        <time>2025-05-18T11:25:31Z</time>
      </trkpt>
      <trkpt lat="43.632937995716929" lon="6.8457689601928">
        <ele>247.68000000000001</ele>
        <time>2025-05-18T11:25:32Z</time>
      </trkpt>
      <trkpt lat="43.63298200070858" lon="6.845931988209486">
        <ele>248.16</ele>
        <time>2025-05-18T11:25:33Z</time>
      </trkpt>
      <trkpt lat="43.632997004315257" lon="6.846105996519327">
        <ele>248.16</ele>
        <time>2025-05-18T11:25:34Z</time>
      </trkpt>
      <trkpt lat="43.632992981001735" lon="6.846289979293943">
        <ele>248.16</ele>
        <time>2025-05-18T11:25:35Z</time>
      </trkpt>
      <trkpt lat="43.632978983223438" lon="6.846783002838492">
        <ele>248.16</ele>
        <time>2025-05-18T11:25:38Z</time>
      </trkpt>
      <trkpt lat="43.632957022637129" lon="6.847753040492535">
        <ele>248.63999999999999</ele>
        <time>2025-05-18T11:25:45Z</time>
      </trkpt>
      <trkpt lat="43.632970014587045" lon="6.847924031317234">
        <ele>248.63999999999999</ele>
        <time>2025-05-18T11:25:46Z</time>
      </trkpt>
      <trkpt lat="43.633003039285541" lon="6.848085969686508">
        <ele>248.16</ele>
        <time>2025-05-18T11:25:47Z</time>
      </trkpt>
      <trkpt lat="43.633056012913585" lon="6.848242962732911">
        <ele>247.68000000000001</ele>
        <time>2025-05-18T11:25:48Z</time>
      </trkpt>
      <trkpt lat="43.633107980713248" lon="6.848400961607695">
        <ele>247.68000000000001</ele>
        <time>2025-05-18T11:25:49Z</time>
      </trkpt>
      <trkpt lat="43.633645009249449" lon="6.849714992567897">
        <ele>246.72</ele>
        <time>2025-05-18T11:25:58Z</time>
      </trkpt>
      <trkpt lat="43.634111965075135" lon="6.850747978314757">
        <ele>246.72</ele>
        <time>2025-05-18T11:26:06Z</time>
      </trkpt>
      <trkpt lat="43.634353028610349" lon="6.851335968822241">
        <ele>245.75</ele>
        <time>2025-05-18T11:26:12Z</time>
      </trkpt>
      <trkpt lat="43.634397033601999" lon="6.851476030424237">
        <ele>245.75</ele>
        <time>2025-05-18T11:26:13Z</time>
      </trkpt>
      <trkpt lat="43.634416982531548" lon="6.85163201764226">
        <ele>245.75</ele>
        <time>2025-05-18T11:26:14Z</time>
      </trkpt>
      <trkpt lat="43.634438021108508" lon="6.851793034002185">
        <ele>245.75</ele>
        <time>2025-05-18T11:26:15Z</time>
      </trkpt>
      <trkpt lat="43.634457970038056" lon="6.851952960714698">
        <ele>245.75</ele>
        <time>2025-05-18T11:26:16Z</time>
      </trkpt>
      <trkpt lat="43.634536005556583" lon="6.852599959820509">
        <ele>245.75</ele>
        <time>2025-05-18T11:26:20Z</time>
      </trkpt>
      <trkpt lat="43.634559977799654" lon="6.852745972573757">
        <ele>245.75</ele>
        <time>2025-05-18T11:26:21Z</time>
      </trkpt>
      <trkpt lat="43.634584033861756" lon="6.852888967841864">
        <ele>246.22999999999999</ele>
        <time>2025-05-18T11:26:22Z</time>
      </trkpt>
      <trkpt lat="43.634609011933208" lon="6.853039003908634">
        <ele>246.22999999999999</ele>
        <time>2025-05-18T11:26:23Z</time>
      </trkpt>
      <trkpt lat="43.634632984176278" lon="6.853184010833502">
        <ele>246.72</ele>
        <time>2025-05-18T11:26:24Z</time>
      </trkpt>
      <trkpt lat="43.635064987465739" lon="6.855187034234405">
        <ele>247.68000000000001</ele>
        <time>2025-05-18T11:26:38Z</time>
      </trkpt>
      <trkpt lat="43.635114021599293" lon="6.855447040870786">
        <ele>247.68000000000001</ele>
        <time>2025-05-18T11:26:40Z</time>
      </trkpt>
      <trkpt lat="43.635174036026001" lon="6.855636974796653">
        <ele>247.68000000000001</ele>
        <time>2025-05-18T11:26:42Z</time>
      </trkpt>
      <trkpt lat="43.635221980512142" lon="6.855860017240048">
        <ele>247.68000000000001</ele>
        <time>2025-05-18T11:26:44Z</time>
      </trkpt>
      <trkpt lat="43.635616013780236" lon="6.857321988791227">
        <ele>247.19999999999999</ele>
        <time>2025-05-18T11:26:54Z</time>
      </trkpt>
      <trkpt lat="43.635864034295082" lon="6.858089016750455">
        <ele>246.22999999999999</ele>
        <time>2025-05-18T11:27:00Z</time>
      </trkpt>
      <trkpt lat="43.635828997939825" lon="6.858214996755123">
        <ele>246.22999999999999</ele>
        <time>2025-05-18T11:27:01Z</time>
      </trkpt>
      <trkpt lat="43.63583997823298" lon="6.858294038102031">
        <ele>246.22999999999999</ele>
        <time>2025-05-18T11:27:02Z</time>
      </trkpt>
      <trkpt lat="43.635979034006596" lon="6.858409037813544">
        <ele>246.22999999999999</ele>
        <time>2025-05-18T11:27:03Z</time>
      </trkpt>
      <trkpt lat="43.635994959622622" lon="6.85844499617815">
        <ele>245.75</ele>
        <time>2025-05-18T11:27:04Z</time>
      </trkpt>
      <trkpt lat="43.636440960690379" lon="6.859482005238533">
        <ele>241.91</ele>
        <time>2025-05-18T11:27:11Z</time>
      </trkpt>
      <trkpt lat="43.63697798922658" lon="6.860659997910261">
        <ele>237.09999999999999</ele>
        <time>2025-05-18T11:27:19Z</time>
      </trkpt>
      <trkpt lat="43.63704496063292" lon="6.860809028148651">
        <ele>236.62</ele>
        <time>2025-05-18T11:27:20Z</time>
      </trkpt>
      <trkpt lat="43.637424996122718" lon="6.861693989485502">
        <ele>232.30000000000001</ele>
        <time>2025-05-18T11:27:26Z</time>
      </trkpt>
      <trkpt lat="43.637466989457607" lon="6.861820975318551">
        <ele>231.33000000000001</ele>
        <time>2025-05-18T11:27:27Z</time>
      </trkpt>
      <trkpt lat="43.637474030256271" lon="6.861928012222052">
        <ele>230.37</ele>
        <time>2025-05-18T11:27:28Z</time>
      </trkpt>
      <trkpt lat="43.637466989457607" lon="6.861987020820379">
        <ele>229.41</ele>
        <time>2025-05-18T11:27:29Z</time>
      </trkpt>
      <trkpt lat="43.637461038306355" lon="6.862049968913198">
        <ele>228.93000000000001</ele>
        <time>2025-05-18T11:27:30Z</time>
      </trkpt>
      <trkpt lat="43.637442011386156" lon="6.862115012481809">
        <ele>227.97</ele>
        <time>2025-05-18T11:27:31Z</time>
      </trkpt>
      <trkpt lat="43.637414015829563" lon="6.862205034121871">
        <ele>227.49000000000001</ele>
        <time>2025-05-18T11:27:32Z</time>
      </trkpt>
      <trkpt lat="43.637374034151435" lon="6.862335037440062">
        <ele>227.00999999999999</ele>
        <time>2025-05-18T11:27:33Z</time>
      </trkpt>
      <trkpt lat="43.637314019724727" lon="6.862445008009672">
        <ele>226.05000000000001</ele>
        <time>2025-05-18T11:27:34Z</time>
      </trkpt>
      <trkpt lat="43.637245036661625" lon="6.862571993842721">
        <ele>225.09</ele>
        <time>2025-05-18T11:27:35Z</time>
      </trkpt>
      <trkpt lat="43.636563001200557" lon="6.863799020648003">
        <ele>219.80000000000001</ele>
        <time>2025-05-18T11:27:43Z</time>
      </trkpt>
      <trkpt lat="43.63648496568203" lon="6.863938998430967">
        <ele>219.31999999999999</ele>
        <time>2025-05-18T11:27:44Z</time>
      </trkpt>
      <trkpt lat="43.636379018425941" lon="6.8642239831388">
        <ele>217.88</ele>
        <time>2025-05-18T11:27:46Z</time>
      </trkpt>
      <trkpt lat="43.636368960142136" lon="6.864369995892048">
        <ele>217.40000000000001</ele>
        <time>2025-05-18T11:27:47Z</time>
      </trkpt>
      <trkpt lat="43.636397961527109" lon="6.864493964239955">
        <ele>217.40000000000001</ele>
        <time>2025-05-18T11:27:48Z</time>
      </trkpt>
      <trkpt lat="43.636450013145804" lon="6.864618016406894">
        <ele>216.91</ele>
        <time>2025-05-18T11:27:49Z</time>
      </trkpt>
      <trkpt lat="43.636511033400893" lon="6.864695968106389">
        <ele>216.91</ele>
        <time>2025-05-18T11:27:50Z</time>
      </trkpt>
      <trkpt lat="43.636607006192207" lon="6.864749025553465">
        <ele>216.43000000000001</ele>
        <time>2025-05-18T11:27:51Z</time>
      </trkpt>
      <trkpt lat="43.636704990640283" lon="6.86478297226131">
        <ele>215.47</ele>
        <time>2025-05-18T11:27:52Z</time>
      </trkpt>
      <trkpt lat="43.636819990351796" lon="6.864790013059974">
        <ele>214.50999999999999</ele>
        <time>2025-05-18T11:27:53Z</time>
      </trkpt>
      <trkpt lat="43.636938007548451" lon="6.864795964211226">
        <ele>214.03</ele>
        <time>2025-05-18T11:27:54Z</time>
      </trkpt>
      <trkpt lat="43.637277977541089" lon="6.864819014444947">
        <ele>212.59</ele>
        <time>2025-05-18T11:27:57Z</time>
      </trkpt>
      <trkpt lat="43.637691959738731" lon="6.864838963374496">
        <ele>210.19</ele>
        <time>2025-05-18T11:28:01Z</time>
      </trkpt>
      <trkpt lat="43.638143995776772" lon="6.864901995286346">
        <ele>205.86000000000001</ele>
        <time>2025-05-18T11:28:05Z</time>
      </trkpt>
      <trkpt lat="43.638271987438202" lon="6.86495304107666">
        <ele>204.90000000000001</ele>
        <time>2025-05-18T11:28:06Z</time>
      </trkpt>
      <trkpt lat="43.638363014906645" lon="6.865056976675987">
        <ele>203.94</ele>
        <time>2025-05-18T11:28:07Z</time>
      </trkpt>
      <trkpt lat="43.63843702711165" lon="6.865196032449603">
        <ele>203.46000000000001</ele>
        <time>2025-05-18T11:28:08Z</time>
      </trkpt>
      <trkpt lat="43.638485977426171" lon="6.865333998575807">
        <ele>202.97999999999999</ele>
        <time>2025-05-18T11:28:09Z</time>
      </trkpt>
      <trkpt lat="43.638530988246202" lon="6.865495014935732">
        <ele>202.49000000000001</ele>
        <time>2025-05-18T11:28:10Z</time>
      </trkpt>
      <trkpt lat="43.638875987380743" lon="6.867393013089895">
        <ele>194.80000000000001</ele>
        <time>2025-05-18T11:28:21Z</time>
      </trkpt>
      <trkpt lat="43.639042032882571" lon="6.869301991537213">
        <ele>191.91999999999999</ele>
        <time>2025-05-18T11:28:33Z</time>
      </trkpt>
      <trkpt lat="43.639023005962372" lon="6.869618995115161">
        <ele>191.44</ele>
        <time>2025-05-18T11:28:35Z</time>
      </trkpt>
      <trkpt lat="43.639013031497598" lon="6.869786968454719">
        <ele>191.44</ele>
        <time>2025-05-18T11:28:36Z</time>
      </trkpt>
      <trkpt lat="43.638875987380743" lon="6.87142001464963">
        <ele>190.96000000000001</ele>
        <time>2025-05-18T11:28:47Z</time>
      </trkpt>
      <trkpt lat="43.63880499266088" lon="6.871577007696033">
        <ele>191.44</ele>
        <time>2025-05-18T11:28:48Z</time>
      </trkpt>
      <trkpt lat="43.638832988217473" lon="6.871648002415896">
        <ele>191.44</ele>
        <time>2025-05-18T11:28:49Z</time>
      </trkpt>
      <trkpt lat="43.638951005414128" lon="6.871844977140427">
        <ele>191.44</ele>
        <time>2025-05-18T11:28:51Z</time>
      </trkpt>
      <trkpt lat="43.639018982648849" lon="6.87270998954773">
        <ele>191.91999999999999</ele>
        <time>2025-05-18T11:28:56Z</time>
      </trkpt>
      <trkpt lat="43.639013031497598" lon="6.872899001464248">
        <ele>191.91999999999999</ele>
        <time>2025-05-18T11:28:57Z</time>
      </trkpt>
      <trkpt lat="43.639004984870553" lon="6.873170994222164">
        <ele>191.44</ele>
        <time>2025-05-18T11:28:58Z</time>
      </trkpt>
      <trkpt lat="43.638920998200774" lon="6.874916022643447">
        <ele>193.84</ele>
        <time>2025-05-18T11:29:08Z</time>
      </trkpt>
      <trkpt lat="43.638961985707283" lon="6.875575007870793">
        <ele>197.21000000000001</ele>
        <time>2025-05-18T11:29:12Z</time>
      </trkpt>
      <trkpt lat="43.639004984870553" lon="6.875722026452422">
        <ele>197.69</ele>
        <time>2025-05-18T11:29:13Z</time>
      </trkpt>
      <trkpt lat="43.639049995690584" lon="6.875873990356922">
        <ele>198.16999999999999</ele>
        <time>2025-05-18T11:29:14Z</time>
      </trkpt>
      <trkpt lat="43.639103975147009" lon="6.876012962311506">
        <ele>198.65000000000001</ele>
        <time>2025-05-18T11:29:15Z</time>
      </trkpt>
      <trkpt lat="43.639163989573717" lon="6.876141037791967">
        <ele>199.13</ele>
        <time>2025-05-18T11:29:16Z</time>
      </trkpt>
      <trkpt lat="43.639224004000425" lon="6.876267017796636">
        <ele>200.09</ele>
        <time>2025-05-18T11:29:17Z</time>
      </trkpt>
      <trkpt lat="43.639285024255514" lon="6.876382017508149">
        <ele>200.56999999999999</ele>
        <time>2025-05-18T11:29:18Z</time>
      </trkpt>
      <trkpt lat="43.639356018975377" lon="6.876484025269747">
        <ele>201.05000000000001</ele>
        <time>2025-05-18T11:29:19Z</time>
      </trkpt>
      <trkpt lat="43.639522986486554" lon="6.876649986952543">
        <ele>201.53</ele>
        <time>2025-05-18T11:29:21Z</time>
      </trkpt>
      <trkpt lat="43.639601022005081" lon="6.876729028299451">
        <ele>201.53</ele>
        <time>2025-05-18T11:29:22Z</time>
      </trkpt>
      <trkpt lat="43.639674028381705" lon="6.876802034676075">
        <ele>201.53</ele>
        <time>2025-05-18T11:29:23Z</time>
      </trkpt>
      <trkpt lat="43.640199992805719" lon="6.87720101326704">
        <ele>202.00999999999999</ele>
        <time>2025-05-18T11:29:31Z</time>
      </trkpt>
      <trkpt lat="43.640421023592353" lon="6.877369992434979">
        <ele>202.00999999999999</ele>
        <time>2025-05-18T11:29:34Z</time>
      </trkpt>
      <trkpt lat="43.641048995777965" lon="6.878242967650294">
        <ele>200.56999999999999</ele>
        <time>2025-05-18T11:29:44Z</time>
      </trkpt>
      <trkpt lat="43.641430037096143" lon="6.878750994801521">
        <ele>195.28</ele>
        <time>2025-05-18T11:29:51Z</time>
      </trkpt>
      <trkpt lat="43.642002018168569" lon="6.879577031359077">
        <ele>191.91999999999999</ele>
        <time>2025-05-18T11:30:00Z</time>
      </trkpt>
      <trkpt lat="43.642638036981225" lon="6.88057498075068">
        <ele>188.56</ele>
        <time>2025-05-18T11:30:09Z</time>
      </trkpt>
      <trkpt lat="43.643323006108403" lon="6.881946008652449">
        <ele>191.44</ele>
        <time>2025-05-18T11:30:20Z</time>
      </trkpt>
      <trkpt lat="43.643869003280997" lon="6.883271019905806">
        <ele>197.21000000000001</ele>
        <time>2025-05-18T11:30:31Z</time>
      </trkpt>
      <trkpt lat="43.6439189594239" lon="6.883320976048708">
        <ele>197.21000000000001</ele>
        <time>2025-05-18T11:30:32Z</time>
      </trkpt>
      <trkpt lat="43.644056003540754" lon="6.883510993793607">
        <ele>197.69</ele>
        <time>2025-05-18T11:30:34Z</time>
      </trkpt>
      <trkpt lat="43.644114006310701" lon="6.883626999333501">
        <ele>198.16999999999999</ele>
        <time>2025-05-18T11:30:35Z</time>
      </trkpt>
      <trkpt lat="43.644662015140057" lon="6.884737014770508">
        <ele>201.05000000000001</ele>
        <time>2025-05-18T11:30:43Z</time>
      </trkpt>
      <trkpt lat="43.645476987585425" lon="6.886462010443211">
        <ele>204.41999999999999</ele>
        <time>2025-05-18T11:30:55Z</time>
      </trkpt>
      <trkpt lat="43.645726013928652" lon="6.887057041749358">
        <ele>205.38</ele>
        <time>2025-05-18T11:30:59Z</time>
      </trkpt>
      <trkpt lat="43.645768007263541" lon="6.887209005653858">
        <ele>205.38</ele>
        <time>2025-05-18T11:31:00Z</time>
      </trkpt>
      <trkpt lat="43.645804971456528" lon="6.887367004528642">
        <ele>205.86000000000001</ele>
        <time>2025-05-18T11:31:01Z</time>
      </trkpt>
      <trkpt lat="43.645826010033488" lon="6.887531960383058">
        <ele>206.34</ele>
        <time>2025-05-18T11:31:02Z</time>
      </trkpt>
      <trkpt lat="43.645828021690249" lon="6.88770798034966">
        <ele>206.81999999999999</ele>
        <time>2025-05-18T11:31:03Z</time>
      </trkpt>
      <trkpt lat="43.645828021690249" lon="6.887891041114926">
        <ele>207.78</ele>
        <time>2025-05-18T11:31:04Z</time>
      </trkpt>
      <trkpt lat="43.645804971456528" lon="6.8880720064044">
        <ele>208.25999999999999</ele>
        <time>2025-05-18T11:31:05Z</time>
      </trkpt>
      <trkpt lat="43.645773958414793" lon="6.888261018320918">
        <ele>209.22</ele>
        <time>2025-05-18T11:31:06Z</time>
      </trkpt>
      <trkpt lat="43.645720984786749" lon="6.88843703828752">
        <ele>209.69999999999999</ele>
        <time>2025-05-18T11:31:07Z</time>
      </trkpt>
      <trkpt lat="43.64565996453166" lon="6.888607023283839">
        <ele>210.66999999999999</ele>
        <time>2025-05-18T11:31:08Z</time>
      </trkpt>
      <trkpt lat="43.645600033923984" lon="6.888771979138255">
        <ele>211.15000000000001</ele>
        <time>2025-05-18T11:31:09Z</time>
      </trkpt>
      <trkpt lat="43.645543036982417" lon="6.888928972184658">
        <ele>212.11000000000001</ele>
        <time>2025-05-18T11:31:10Z</time>
      </trkpt>
      <trkpt lat="43.644964015111327" lon="6.890405025333166">
        <ele>217.40000000000001</ele>
        <time>2025-05-18T11:31:20Z</time>
      </trkpt>
      <trkpt lat="43.644660003483295" lon="6.891320999711752">
        <ele>222.19999999999999</ele>
        <time>2025-05-18T11:31:26Z</time>
      </trkpt>
      <trkpt lat="43.644642988219857" lon="6.8914860393852">
        <ele>222.68000000000001</ele>
        <time>2025-05-18T11:31:27Z</time>
      </trkpt>
      <trkpt lat="43.644633013755083" lon="6.891656024381518">
        <ele>223.16</ele>
        <time>2025-05-18T11:31:28Z</time>
      </trkpt>
      <trkpt lat="43.644634019583464" lon="6.891822991892695">
        <ele>223.63999999999999</ele>
        <time>2025-05-18T11:31:29Z</time>
      </trkpt>
      <trkpt lat="43.644652962684631" lon="6.891990965232253">
        <ele>224.12</ele>
        <time>2025-05-18T11:31:30Z</time>
      </trkpt>
      <trkpt lat="43.644681964069605" lon="6.892139995470643">
        <ele>224.61000000000001</ele>
        <time>2025-05-18T11:31:31Z</time>
      </trkpt>
      <trkpt lat="43.644709959626198" lon="6.892302017658949">
        <ele>225.09</ele>
        <time>2025-05-18T11:31:32Z</time>
      </trkpt>
      <trkpt lat="43.644683975726366" lon="6.892447024583817">
        <ele>225.56999999999999</ele>
        <time>2025-05-18T11:31:33Z</time>
      </trkpt>
      <trkpt lat="43.64466997794807" lon="6.892525982111692">
        <ele>225.56999999999999</ele>
        <time>2025-05-18T11:31:34Z</time>
      </trkpt>
      <trkpt lat="43.644771985709667" lon="6.893240958452225">
        <ele>224.61000000000001</ele>
        <time>2025-05-18T11:31:38Z</time>
      </trkpt>
      <trkpt lat="43.64482001401484" lon="6.893386971205473">
        <ele>224.12</ele>
        <time>2025-05-18T11:31:39Z</time>
      </trkpt>
      <trkpt lat="43.64486301317811" lon="6.893536001443863">
        <ele>223.63999999999999</ele>
        <time>2025-05-18T11:31:40Z</time>
      </trkpt>
      <trkpt lat="43.644905006513" lon="6.893682014197111">
        <ele>223.63999999999999</ele>
        <time>2025-05-18T11:31:41Z</time>
      </trkpt>
      <trkpt lat="43.644943982362747" lon="6.893820986151695">
        <ele>223.16</ele>
        <time>2025-05-18T11:31:42Z</time>
      </trkpt>
      <trkpt lat="43.64497097209096" lon="6.893959036096931">
        <ele>222.68000000000001</ele>
        <time>2025-05-18T11:31:43Z</time>
      </trkpt>
      <trkpt lat="43.645048001781106" lon="6.894212001934648">
        <ele>221.72</ele>
        <time>2025-05-18T11:31:45Z</time>
      </trkpt>
      <trkpt lat="43.645146992057562" lon="6.894446024671197">
        <ele>219.80000000000001</ele>
        <time>2025-05-18T11:31:47Z</time>
      </trkpt>
      <trkpt lat="43.64524899981916" lon="6.894650962203741">
        <ele>217.88</ele>
        <time>2025-05-18T11:31:49Z</time>
      </trkpt>
      <trkpt lat="43.64524899981916" lon="6.894787000492215">
        <ele>216.91</ele>
        <time>2025-05-18T11:31:50Z</time>
      </trkpt>
      <trkpt lat="43.64524899981916" lon="6.894919015467167">
        <ele>215.94999999999999</ele>
        <time>2025-05-18T11:31:51Z</time>
      </trkpt>
      <trkpt lat="43.645242964848876" lon="6.895058993250132">
        <ele>214.99000000000001</ele>
        <time>2025-05-18T11:31:52Z</time>
      </trkpt>
      <trkpt lat="43.645201977342367" lon="6.895219003781676">
        <ele>214.03</ele>
        <time>2025-05-18T11:31:53Z</time>
      </trkpt>
      <trkpt lat="43.645072979852557" lon="6.895718984305859">
        <ele>211.15000000000001</ele>
        <time>2025-05-18T11:31:56Z</time>
      </trkpt>
      <trkpt lat="43.645029980689287" lon="6.895880000665784">
        <ele>210.66999999999999</ele>
        <time>2025-05-18T11:31:57Z</time>
      </trkpt>
      <trkpt lat="43.644987987354398" lon="6.896037999540567">
        <ele>209.69999999999999</ele>
        <time>2025-05-18T11:31:58Z</time>
      </trkpt>
      <trkpt lat="43.644944988191128" lon="6.896197004243732">
        <ele>209.22</ele>
        <time>2025-05-18T11:31:59Z</time>
      </trkpt>
      <trkpt lat="43.644901989027858" lon="6.896353997290134">
        <ele>208.74000000000001</ele>
        <time>2025-05-18T11:32:00Z</time>
      </trkpt>
      <trkpt lat="43.644313998520374" lon="6.897842036560178">
        <ele>202.49000000000001</ele>
        <time>2025-05-18T11:32:10Z</time>
      </trkpt>
      <trkpt lat="43.644279967993498" lon="6.89799701794982">
        <ele>202.00999999999999</ele>
        <time>2025-05-18T11:32:11Z</time>
      </trkpt>
      <trkpt lat="43.644246021285653" lon="6.898154010996223">
        <ele>200.56999999999999</ele>
        <time>2025-05-18T11:32:12Z</time>
      </trkpt>
      <trkpt lat="43.644219031557441" lon="6.898314021527767">
        <ele>199.61000000000001</ele>
        <time>2025-05-18T11:32:13Z</time>
      </trkpt>
      <trkpt lat="43.644219031557441" lon="6.898453999310732">
        <ele>199.13</ele>
        <time>2025-05-18T11:32:14Z</time>
      </trkpt>
      <trkpt lat="43.644220037385821" lon="6.898561036214232">
        <ele>198.16999999999999</ele>
        <time>2025-05-18T11:32:15Z</time>
      </trkpt>
      <trkpt lat="43.644223976880312" lon="6.898636976256967">
        <ele>197.69</ele>
        <time>2025-05-18T11:32:16Z</time>
      </trkpt>
      <trkpt lat="43.644223976880312" lon="6.899430993944407">
        <ele>192.88</ele>
        <time>2025-05-18T11:32:26Z</time>
      </trkpt>
      <trkpt lat="43.644219031557441" lon="6.899792002514005">
        <ele>192.40000000000001</ele>
        <time>2025-05-18T11:32:29Z</time>
      </trkpt>
      <trkpt lat="43.644219031557441" lon="6.89991001971066">
        <ele>192.40000000000001</ele>
        <time>2025-05-18T11:32:30Z</time>
      </trkpt>
      <trkpt lat="43.644250966608524" lon="6.900022001937032">
        <ele>192.40000000000001</ele>
        <time>2025-05-18T11:32:31Z</time>
      </trkpt>
      <trkpt lat="43.644289020448923" lon="6.900129038840532">
        <ele>192.40000000000001</ele>
        <time>2025-05-18T11:32:32Z</time>
      </trkpt>
      <trkpt lat="43.644327996298671" lon="6.900241021066904">
        <ele>192.88</ele>
        <time>2025-05-18T11:32:33Z</time>
      </trkpt>
      <trkpt lat="43.644373007118702" lon="6.900361971929669">
        <ele>192.88</ele>
        <time>2025-05-18T11:32:34Z</time>
      </trkpt>
      <trkpt lat="43.644449030980468" lon="6.900444030761719">
        <ele>192.88</ele>
        <time>2025-05-18T11:32:35Z</time>
      </trkpt>
      <trkpt lat="43.644532011821866" lon="6.900532962754369">
        <ele>192.88</ele>
        <time>2025-05-18T11:32:36Z</time>
      </trkpt>
      <trkpt lat="43.645289987325668" lon="6.90141599625349">
        <ele>188.08000000000001</ele>
        <time>2025-05-18T11:32:44Z</time>
      </trkpt>
      <trkpt lat="43.645491991192102" lon="6.901824027299881">
        <ele>185.66999999999999</ele>
        <time>2025-05-18T11:32:47Z</time>
      </trkpt>
      <trkpt lat="43.64552803337574" lon="6.901988983154297">
        <ele>185.19</ele>
        <time>2025-05-18T11:32:48Z</time>
      </trkpt>
      <trkpt lat="43.64552803337574" lon="6.902132984250784">
        <ele>184.22999999999999</ele>
        <time>2025-05-18T11:32:49Z</time>
      </trkpt>
      <trkpt lat="43.64552803337574" lon="6.902246978133917">
        <ele>183.75</ele>
        <time>2025-05-18T11:32:50Z</time>
      </trkpt>
      <trkpt lat="43.64548796787858" lon="6.9024049770087">
        <ele>183.27000000000001</ele>
        <time>2025-05-18T11:32:51Z</time>
      </trkpt>
      <trkpt lat="43.645455026999116" lon="6.902536991983652">
        <ele>183.27000000000001</ele>
        <time>2025-05-18T11:32:52Z</time>
      </trkpt>
      <trkpt lat="43.64542200230062" lon="6.902671018615365">
        <ele>182.78999999999999</ele>
        <time>2025-05-18T11:32:53Z</time>
      </trkpt>
      <trkpt lat="43.64533600397408" lon="6.90276900306344">
        <ele>182.78999999999999</ele>
        <time>2025-05-18T11:32:54Z</time>
      </trkpt>
      <trkpt lat="43.645256040617824" lon="6.902858018875122">
        <ele>182.31</ele>
        <time>2025-05-18T11:32:55Z</time>
      </trkpt>
      <trkpt lat="43.645171970129013" lon="6.902908980846405">
        <ele>181.83000000000001</ele>
        <time>2025-05-18T11:32:56Z</time>
      </trkpt>
      <trkpt lat="43.645088989287615" lon="6.902935970574617">
        <ele>181.83000000000001</ele>
        <time>2025-05-18T11:32:57Z</time>
      </trkpt>
      <trkpt lat="43.644999973475933" lon="6.902942005544901">
        <ele>181.34999999999999</ele>
        <time>2025-05-18T11:32:58Z</time>
      </trkpt>
      <trkpt lat="43.644908023998141" lon="6.902905963361263">
        <ele>181.34999999999999</ele>
        <time>2025-05-18T11:32:59Z</time>
      </trkpt>
      <trkpt lat="43.644692022353411" lon="6.902839997783303">
        <ele>181.34999999999999</ele>
        <time>2025-05-18T11:33:01Z</time>
      </trkpt>
      <trkpt lat="43.644572999328375" lon="6.902829017490149">
        <ele>180.87</ele>
        <time>2025-05-18T11:33:02Z</time>
      </trkpt>
      <trkpt lat="43.644236968830228" lon="6.902924990281463">
        <ele>180.38</ele>
        <time>2025-05-18T11:33:05Z</time>
      </trkpt>
      <trkpt lat="43.644122974947095" lon="6.902924990281463">
        <ele>180.38</ele>
        <time>2025-05-18T11:33:06Z</time>
      </trkpt>
      <trkpt lat="43.644004035741091" lon="6.902911998331547">
        <ele>180.38</ele>
        <time>2025-05-18T11:33:07Z</time>
      </trkpt>
      <trkpt lat="43.643765989691019" lon="6.902876039966941">
        <ele>180.87</ele>
        <time>2025-05-18T11:33:09Z</time>
      </trkpt>
      <trkpt lat="43.643644032999873" lon="6.90289699472487">
        <ele>181.34999999999999</ele>
        <time>2025-05-18T11:33:10Z</time>
      </trkpt>
      <trkpt lat="43.64352903328836" lon="6.902933958917856">
        <ele>181.83000000000001</ele>
        <time>2025-05-18T11:33:11Z</time>
      </trkpt>
      <trkpt lat="43.643428031355143" lon="6.90302699804306">
        <ele>182.78999999999999</ele>
        <time>2025-05-18T11:33:12Z</time>
      </trkpt>
      <trkpt lat="43.643328035250306" lon="6.903119031339884">
        <ele>183.27000000000001</ele>
        <time>2025-05-18T11:33:13Z</time>
      </trkpt>
      <trkpt lat="43.643262991681695" lon="6.90326202660799">
        <ele>184.71000000000001</ele>
        <time>2025-05-18T11:33:14Z</time>
      </trkpt>
      <trkpt lat="43.643218986690044" lon="6.903410973027349">
        <ele>185.66999999999999</ele>
        <time>2025-05-18T11:33:15Z</time>
      </trkpt>
      <trkpt lat="43.643189985305071" lon="6.903561009094119">
        <ele>186.63</ele>
        <time>2025-05-18T11:33:16Z</time>
      </trkpt>
      <trkpt lat="43.643194008618593" lon="6.903713978827">
        <ele>187.59</ele>
        <time>2025-05-18T11:33:17Z</time>
      </trkpt>
      <trkpt lat="43.643198031932116" lon="6.903868960216641">
        <ele>188.08000000000001</ele>
        <time>2025-05-18T11:33:18Z</time>
      </trkpt>
      <trkpt lat="43.643201971426606" lon="6.904018996283412">
        <ele>189.03999999999999</ele>
        <time>2025-05-18T11:33:19Z</time>
      </trkpt>
      <trkpt lat="43.643204988911748" lon="6.90416500903666">
        <ele>190</ele>
        <time>2025-05-18T11:33:20Z</time>
      </trkpt>
      <trkpt lat="43.643291993066669" lon="6.904964977875352">
        <ele>194.31999999999999</ele>
        <time>2025-05-18T11:33:26Z</time>
      </trkpt>
      <trkpt lat="43.643284030258656" lon="6.905094981193543">
        <ele>195.28</ele>
        <time>2025-05-18T11:33:27Z</time>
      </trkpt>
      <trkpt lat="43.643268020823598" lon="6.905234958976507">
        <ele>195.77000000000001</ele>
        <time>2025-05-18T11:33:28Z</time>
      </trkpt>
      <trkpt lat="43.64325100556016" lon="6.905361022800207">
        <ele>196.25</ele>
        <time>2025-05-18T11:33:29Z</time>
      </trkpt>
      <trkpt lat="43.643185961991549" lon="6.90547501668334">
        <ele>197.21000000000001</ele>
        <time>2025-05-18T11:33:30Z</time>
      </trkpt>
      <trkpt lat="43.642978006973863" lon="6.905892016366124">
        <ele>199.61000000000001</ele>
        <time>2025-05-18T11:33:33Z</time>
      </trkpt>
      <trkpt lat="43.642925033345819" lon="6.906058983877301">
        <ele>200.09</ele>
        <time>2025-05-18T11:33:34Z</time>
      </trkpt>
      <trkpt lat="43.642737027257681" lon="6.906681004911661">
        <ele>203.94</ele>
        <time>2025-05-18T11:33:38Z</time>
      </trkpt>
      <trkpt lat="43.642618004232645" lon="6.90712901763618">
        <ele>206.34</ele>
        <time>2025-05-18T11:33:41Z</time>
      </trkpt>
      <trkpt lat="43.642587997019291" lon="6.907267989590764">
        <ele>206.81999999999999</ele>
        <time>2025-05-18T11:33:42Z</time>
      </trkpt>
      <trkpt lat="43.642597971484065" lon="6.907420959323645">
        <ele>207.30000000000001</ele>
        <time>2025-05-18T11:33:43Z</time>
      </trkpt>
      <trkpt lat="43.642608029767871" lon="6.907560015097261">
        <ele>207.78</ele>
        <time>2025-05-18T11:33:44Z</time>
      </trkpt>
      <trkpt lat="43.642637031152844" lon="6.90768800675869">
        <ele>208.25999999999999</ele>
        <time>2025-05-18T11:33:45Z</time>
      </trkpt>
      <trkpt lat="43.642676007002592" lon="6.907828990370035">
        <ele>208.74000000000001</ele>
        <time>2025-05-18T11:33:46Z</time>
      </trkpt>
      <trkpt lat="43.642734009772539" lon="6.907954970374703">
        <ele>208.74000000000001</ele>
        <time>2025-05-18T11:33:47Z</time>
      </trkpt>
      <trkpt lat="43.642791006714106" lon="6.90807499922812">
        <ele>208.25999999999999</ele>
        <time>2025-05-18T11:33:48Z</time>
      </trkpt>
      <trkpt lat="43.642969038337469" lon="6.908510020002723">
        <ele>208.74000000000001</ele>
        <time>2025-05-18T11:33:52Z</time>
      </trkpt>
      <trkpt lat="43.642955962568521" lon="6.908595012500882">
        <ele>209.22</ele>
        <time>2025-05-18T11:33:53Z</time>
      </trkpt>
      <trkpt lat="43.642915980890393" lon="6.908646980300546">
        <ele>209.22</ele>
        <time>2025-05-18T11:33:54Z</time>
      </trkpt>
      <trkpt lat="43.642845991998911" lon="6.90867799334228">
        <ele>209.69999999999999</ele>
        <time>2025-05-18T11:33:55Z</time>
      </trkpt>
      <trkpt lat="43.642716994509101" lon="6.908641029149294">
        <ele>209.69999999999999</ele>
        <time>2025-05-18T11:33:56Z</time>
      </trkpt>
      <trkpt lat="43.642663015052676" lon="6.908589983358979">
        <ele>210.19</ele>
        <time>2025-05-18T11:33:57Z</time>
      </trkpt>
      <trkpt lat="43.642569975927472" lon="6.908503985032439">
        <ele>210.66999999999999</ele>
        <time>2025-05-18T11:33:58Z</time>
      </trkpt>
      <trkpt lat="43.642472997307777" lon="6.908412035554647">
        <ele>210.66999999999999</ele>
        <time>2025-05-18T11:33:59Z</time>
      </trkpt>
      <trkpt lat="43.642374007031322" lon="6.908318996429443">
        <ele>211.15000000000001</ele>
        <time>2025-05-18T11:34:00Z</time>
      </trkpt>
      <trkpt lat="43.642271999269724" lon="6.90822402946651">
        <ele>211.63</ele>
        <time>2025-05-18T11:34:01Z</time>
      </trkpt>
      <trkpt lat="43.64196396432817" lon="6.907958993688226">
        <ele>212.59</ele>
        <time>2025-05-18T11:34:04Z</time>
      </trkpt>
      <trkpt lat="43.641841001808643" lon="6.907910965383053">
        <ele>213.06999999999999</ele>
        <time>2025-05-18T11:34:05Z</time>
      </trkpt>
      <trkpt lat="43.641717033460736" lon="6.907910965383053">
        <ele>213.55000000000001</ele>
        <time>2025-05-18T11:34:06Z</time>
      </trkpt>
      <trkpt lat="43.641590969637036" lon="6.907940972596407">
        <ele>214.03</ele>
        <time>2025-05-18T11:34:07Z</time>
      </trkpt>
      <trkpt lat="43.641474964097142" lon="6.907986989244819">
        <ele>214.99000000000001</ele>
        <time>2025-05-18T11:34:08Z</time>
      </trkpt>
      <trkpt lat="43.641370022669435" lon="6.908078016713262">
        <ele>215.94999999999999</ele>
        <time>2025-05-18T11:34:09Z</time>
      </trkpt>
      <trkpt lat="43.64127597771585" lon="6.908170972019434">
        <ele>216.91</ele>
        <time>2025-05-18T11:34:10Z</time>
      </trkpt>
      <trkpt lat="43.641197020187974" lon="6.908265016973019">
        <ele>217.88</ele>
        <time>2025-05-18T11:34:11Z</time>
      </trkpt>
      <trkpt lat="43.641137005761266" lon="6.908367024734616">
        <ele>219.31999999999999</ele>
        <time>2025-05-18T11:34:12Z</time>
      </trkpt>
      <trkpt lat="43.641083026304841" lon="6.908458974212408">
        <ele>220.28</ele>
        <time>2025-05-18T11:34:13Z</time>
      </trkpt>
      <trkpt lat="43.640915974974632" lon="6.908821994438767">
        <ele>223.63999999999999</ele>
        <time>2025-05-18T11:34:17Z</time>
      </trkpt>
      <trkpt lat="43.640764011070132" lon="6.909241005778313">
        <ele>225.56999999999999</ele>
        <time>2025-05-18T11:34:21Z</time>
      </trkpt>
      <trkpt lat="43.640764011070132" lon="6.909438986331224">
        <ele>227.00999999999999</ele>
        <time>2025-05-18T11:34:23Z</time>
      </trkpt>
      <trkpt lat="43.640764011070132" lon="6.909512998536229">
        <ele>227.97</ele>
        <time>2025-05-18T11:34:24Z</time>
      </trkpt>
      <trkpt lat="43.640764011070132" lon="6.909635039046407">
        <ele>229.41</ele>
        <time>2025-05-18T11:34:26Z</time>
      </trkpt>
      <trkpt lat="43.640764011070132" lon="6.909693963825703">
        <ele>229.88999999999999</ele>
        <time>2025-05-18T11:34:27Z</time>
      </trkpt>
      <trkpt lat="43.640764011070132" lon="6.909763030707836">
        <ele>230.37</ele>
        <time>2025-05-18T11:34:28Z</time>
      </trkpt>
      <trkpt lat="43.640764011070132" lon="6.909821033477783">
        <ele>231.33000000000001</ele>
        <time>2025-05-18T11:34:29Z</time>
      </trkpt>
      <trkpt lat="43.640693016350269" lon="6.909951958805323">
        <ele>231.81</ele>
        <time>2025-05-18T11:34:30Z</time>
      </trkpt>
      <trkpt lat="43.640710031613708" lon="6.91002999432385">
        <ele>232.30000000000001</ele>
        <time>2025-05-18T11:34:31Z</time>
      </trkpt>
      <trkpt lat="43.640785971656442" lon="6.910099983215332">
        <ele>233.25999999999999</ele>
        <time>2025-05-18T11:34:32Z</time>
      </trkpt>
      <trkpt lat="43.640811033546925" lon="6.910175001248717">
        <ele>233.25999999999999</ele>
        <time>2025-05-18T11:34:33Z</time>
      </trkpt>
      <trkpt lat="43.640871969982982" lon="6.910337023437023">
        <ele>234.22</ele>
        <time>2025-05-18T11:34:35Z</time>
      </trkpt>
      <trkpt lat="43.640960985794663" lon="6.910507008433342">
        <ele>235.18000000000001</ele>
        <time>2025-05-18T11:34:37Z</time>
      </trkpt>
      <trkpt lat="43.641430037096143" lon="6.911136992275715">
        <ele>239.50999999999999</ele>
        <time>2025-05-18T11:34:45Z</time>
      </trkpt>
      <trkpt lat="43.641467001289129" lon="6.911178985610604">
        <ele>239.99000000000001</ele>
        <time>2025-05-18T11:34:46Z</time>
      </trkpt>
      <trkpt lat="43.641529027372599" lon="6.911295996978879">
        <ele>240.47</ele>
        <time>2025-05-18T11:34:47Z</time>
      </trkpt>
      <trkpt lat="43.641493991017342" lon="6.911473022773862">
        <ele>240.94999999999999</ele>
        <time>2025-05-18T11:34:49Z</time>
      </trkpt>
      <trkpt lat="43.641523998230696" lon="6.911528008058667">
        <ele>241.43000000000001</ele>
        <time>2025-05-18T11:34:50Z</time>
      </trkpt>
      <trkpt lat="43.641565991565585" lon="6.911604031920433">
        <ele>241.91</ele>
        <time>2025-05-18T11:34:51Z</time>
      </trkpt>
      <trkpt lat="43.641614019870758" lon="6.911667985841632">
        <ele>241.91</ele>
        <time>2025-05-18T11:34:52Z</time>
      </trkpt>
      <trkpt lat="43.64168300293386" lon="6.911677960306406">
        <ele>242.38999999999999</ele>
        <time>2025-05-18T11:34:53Z</time>
      </trkpt>
      <trkpt lat="43.641750980168581" lon="6.911688018590212">
        <ele>242.87</ele>
        <time>2025-05-18T11:34:54Z</time>
      </trkpt>
      <trkpt lat="43.641934962943196" lon="6.91172800026834">
        <ele>243.83000000000001</ele>
        <time>2025-05-18T11:34:56Z</time>
      </trkpt>
      <trkpt lat="43.64200402982533" lon="6.91181399859488">
        <ele>244.78999999999999</ele>
        <time>2025-05-18T11:34:57Z</time>
      </trkpt>
      <trkpt lat="43.642160017043352" lon="6.911987001076341">
        <ele>246.22999999999999</ele>
        <time>2025-05-18T11:34:59Z</time>
      </trkpt>
      <trkpt lat="43.64224199205637" lon="6.91207098774612">
        <ele>246.72</ele>
        <time>2025-05-18T11:35:00Z</time>
      </trkpt>
      <trkpt lat="43.642508033663034" lon="6.912337029352784">
        <ele>248.63999999999999</ele>
        <time>2025-05-18T11:35:03Z</time>
      </trkpt>
      <trkpt lat="43.642601994797587" lon="6.912430990487337">
        <ele>249.59999999999999</ele>
        <time>2025-05-18T11:35:04Z</time>
      </trkpt>
      <trkpt lat="43.643677979707718" lon="6.913503035902977">
        <ele>258.73000000000002</ele>
        <time>2025-05-18T11:35:16Z</time>
      </trkpt>
      <trkpt lat="43.644163962453604" lon="6.913907965645194">
        <ele>264.01999999999998</ele>
        <time>2025-05-18T11:35:21Z</time>
      </trkpt>
      <trkpt lat="43.644514996558428" lon="6.914279032498598">
        <ele>268.35000000000002</ele>
        <time>2025-05-18T11:35:25Z</time>
      </trkpt>
      <trkpt lat="43.644606024026871" lon="6.914306022226811">
        <ele>269.31</ele>
        <time>2025-05-18T11:35:26Z</time>
      </trkpt>
      <trkpt lat="43.644717000424862" lon="6.914334017783403">
        <ele>269.79000000000002</ele>
        <time>2025-05-18T11:35:27Z</time>
      </trkpt>
      <trkpt lat="43.64486301317811" lon="6.914369976148009">
        <ele>270.26999999999998</ele>
        <time>2025-05-18T11:35:28Z</time>
      </trkpt>
      <trkpt lat="43.644934007897973" lon="6.914369976148009">
        <ele>270.75</ele>
        <time>2025-05-18T11:35:29Z</time>
      </trkpt>
      <trkpt lat="43.645037021487951" lon="6.914369976148009">
        <ele>271.70999999999998</ele>
        <time>2025-05-18T11:35:30Z</time>
      </trkpt>
      <trkpt lat="43.645134000107646" lon="6.914368970319629">
        <ele>271.70999999999998</ele>
        <time>2025-05-18T11:35:31Z</time>
      </trkpt>
      <trkpt lat="43.645633980631828" lon="6.914310967549682">
        <ele>274.11000000000001</ele>
        <time>2025-05-18T11:35:36Z</time>
      </trkpt>
      <trkpt lat="43.645839001983404" lon="6.914246007800102">
        <ele>273.63</ele>
        <time>2025-05-18T11:35:38Z</time>
      </trkpt>
      <trkpt lat="43.645940003916621" lon="6.914207031950355">
        <ele>273.63</ele>
        <time>2025-05-18T11:35:39Z</time>
      </trkpt>
      <trkpt lat="43.64724799990654" lon="6.913386024534702">
        <ele>277</ele>
        <time>2025-05-18T11:35:52Z</time>
      </trkpt>
      <trkpt lat="43.647352019324899" lon="6.91331896930933">
        <ele>277.48000000000002</ele>
        <time>2025-05-18T11:35:53Z</time>
      </trkpt>
      <trkpt lat="43.647421002388" lon="6.913306983187795">
        <ele>277.95999999999998</ele>
        <time>2025-05-18T11:35:54Z</time>
      </trkpt>
      <trkpt lat="43.647490991279483" lon="6.91329600289464">
        <ele>277.95999999999998</ele>
        <time>2025-05-18T11:35:55Z</time>
      </trkpt>
      <trkpt lat="43.647630969062448" lon="6.913340007886291">
        <ele>278.44</ele>
        <time>2025-05-18T11:35:56Z</time>
      </trkpt>
      <trkpt lat="43.647630969062448" lon="6.913340007886291">
        <ele>278.44</ele>
        <time>2025-05-18T11:35:57Z</time>
      </trkpt>
      <trkpt lat="43.647724008187652" lon="6.913465987890959">
        <ele>278.44</ele>
        <time>2025-05-18T11:35:58Z</time>
      </trkpt>
      <trkpt lat="43.647750997915864" lon="6.913582999259234">
        <ele>278.44</ele>
        <time>2025-05-18T11:35:59Z</time>
      </trkpt>
      <trkpt lat="43.647758960723877" lon="6.913724988698959">
        <ele>277.95999999999998</ele>
        <time>2025-05-18T11:36:00Z</time>
      </trkpt>
      <trkpt lat="43.647758960723877" lon="6.91385499201715">
        <ele>277.95999999999998</ele>
        <time>2025-05-18T11:36:01Z</time>
      </trkpt>
      <trkpt lat="43.647731970995665" lon="6.914500985294581">
        <ele>279.39999999999998</ele>
        <time>2025-05-18T11:36:07Z</time>
      </trkpt>
      <trkpt lat="43.647725014016032" lon="6.914602993056178">
        <ele>279.88</ele>
        <time>2025-05-18T11:36:08Z</time>
      </trkpt>
      <trkpt lat="43.647716967388988" lon="6.91473500803113">
        <ele>280.36000000000001</ele>
        <time>2025-05-18T11:36:09Z</time>
      </trkpt>
      <trkpt lat="43.647712022066116" lon="6.914845984429121">
        <ele>280.83999999999997</ele>
        <time>2025-05-18T11:36:10Z</time>
      </trkpt>
      <trkpt lat="43.647705987095833" lon="6.914962995797396">
        <ele>281.31999999999999</ele>
        <time>2025-05-18T11:36:11Z</time>
      </trkpt>
      <trkpt lat="43.647690983489156" lon="6.915316041558981">
        <ele>282.76999999999998</ele>
        <time>2025-05-18T11:36:14Z</time>
      </trkpt>
      <trkpt lat="43.647686960175633" lon="6.915441015735269">
        <ele>283.25</ele>
        <time>2025-05-18T11:36:15Z</time>
      </trkpt>
      <trkpt lat="43.647654019296169" lon="6.916348021477461">
        <ele>286.61000000000001</ele>
        <time>2025-05-18T11:36:23Z</time>
      </trkpt>
      <trkpt lat="43.647694000974298" lon="6.916581960394979">
        <ele>287.56999999999999</ele>
        <time>2025-05-18T11:36:25Z</time>
      </trkpt>
      <trkpt lat="43.647716967388988" lon="6.916687991470099">
        <ele>287.56999999999999</ele>
        <time>2025-05-18T11:36:26Z</time>
      </trkpt>
      <trkpt lat="43.647777987644076" lon="6.916779018938541">
        <ele>288.05000000000001</ele>
        <time>2025-05-18T11:36:27Z</time>
      </trkpt>
      <trkpt lat="43.647838002070785" lon="6.916869962587953">
        <ele>288.52999999999997</ele>
        <time>2025-05-18T11:36:28Z</time>
      </trkpt>
      <trkpt lat="43.647887958213687" lon="6.916944980621338">
        <ele>289.00999999999999</ele>
        <time>2025-05-18T11:36:29Z</time>
      </trkpt>
      <trkpt lat="43.647971022874117" lon="6.916980016976595">
        <ele>289.97000000000003</ele>
        <time>2025-05-18T11:36:30Z</time>
      </trkpt>
      <trkpt lat="43.648054003715515" lon="6.91701396368444">
        <ele>290.45999999999998</ele>
        <time>2025-05-18T11:36:31Z</time>
      </trkpt>
      <trkpt lat="43.648137990385294" lon="6.917049000039697">
        <ele>290.45999999999998</ele>
        <time>2025-05-18T11:36:32Z</time>
      </trkpt>
      <trkpt lat="43.648217031732202" lon="6.917082024738193">
        <ele>290.94</ele>
        <time>2025-05-18T11:36:33Z</time>
      </trkpt>
      <trkpt lat="43.648294983431697" lon="6.917113959789276">
        <ele>291.42000000000002</ele>
        <time>2025-05-18T11:36:34Z</time>
      </trkpt>
      <trkpt lat="43.648375030606985" lon="6.917147990316153">
        <ele>291.89999999999998</ele>
        <time>2025-05-18T11:36:35Z</time>
      </trkpt>
      <trkpt lat="43.648454993963242" lon="6.917181015014648">
        <ele>292.38</ele>
        <time>2025-05-18T11:36:36Z</time>
      </trkpt>
      <trkpt lat="43.648534035310149" lon="6.917214039713144">
        <ele>292.86000000000001</ele>
        <time>2025-05-18T11:36:37Z</time>
      </trkpt>
      <trkpt lat="43.648986993357539" lon="6.917347982525826">
        <ele>296.22000000000003</ele>
        <time>2025-05-18T11:36:43Z</time>
      </trkpt>
      <trkpt lat="43.649061005562544" lon="6.91737798973918">
        <ele>296.69999999999999</ele>
        <time>2025-05-18T11:36:44Z</time>
      </trkpt>
      <trkpt lat="43.649135017767549" lon="6.917411014437676">
        <ele>296.69999999999999</ele>
        <time>2025-05-18T11:36:45Z</time>
      </trkpt>
      <trkpt lat="43.649498960003257" lon="6.917573036625981">
        <ele>297.18000000000001</ele>
        <time>2025-05-18T11:36:50Z</time>
      </trkpt>
      <trkpt lat="43.649583030492067" lon="6.917610000818968">
        <ele>297.67000000000002</ele>
        <time>2025-05-18T11:36:51Z</time>
      </trkpt>
      <trkpt lat="43.649634998291731" lon="6.917652999982238">
        <ele>297.67000000000002</ele>
        <time>2025-05-18T11:36:52Z</time>
      </trkpt>
      <trkpt lat="43.649702975526452" lon="6.917859027162194">
        <ele>298.63</ele>
        <time>2025-05-18T11:36:54Z</time>
      </trkpt>
      <trkpt lat="43.649789979681373" lon="6.917910994961858">
        <ele>298.63</ele>
        <time>2025-05-18T11:36:55Z</time>
      </trkpt>
      <trkpt lat="43.649841025471687" lon="6.917910994961858">
        <ele>299.11000000000001</ele>
        <time>2025-05-18T11:36:56Z</time>
      </trkpt>
      <trkpt lat="43.65008301101625" lon="6.917818039655685">
        <ele>299.58999999999997</ele>
        <time>2025-05-18T11:36:59Z</time>
      </trkpt>
      <trkpt lat="43.650145037099719" lon="6.917878976091743">
        <ele>300.06999999999999</ele>
        <time>2025-05-18T11:37:00Z</time>
      </trkpt>
      <trkpt lat="43.650204967707396" lon="6.917950976639986">
        <ele>300.55000000000001</ele>
        <time>2025-05-18T11:37:01Z</time>
      </trkpt>
      <trkpt lat="43.650264982134104" lon="6.918021971359849">
        <ele>301.50999999999999</ele>
        <time>2025-05-18T11:37:02Z</time>
      </trkpt>
      <trkpt lat="43.650333965197206" lon="6.918104030191898">
        <ele>301.99000000000001</ele>
        <time>2025-05-18T11:37:03Z</time>
      </trkpt>
      <trkpt lat="43.65074803121388" lon="6.918993014842272">
        <ele>305.36000000000001</ele>
        <time>2025-05-18T11:37:12Z</time>
      </trkpt>
      <trkpt lat="43.650802010670304" lon="6.919108014553785">
        <ele>305.83999999999997</ele>
        <time>2025-05-18T11:37:13Z</time>
      </trkpt>
      <trkpt lat="43.65085800178349" lon="6.919227037578821">
        <ele>305.83999999999997</ele>
        <time>2025-05-18T11:37:14Z</time>
      </trkpt>
      <trkpt lat="43.651091018691659" lon="6.919708997011185">
        <ele>307.75999999999999</ele>
        <time>2025-05-18T11:37:19Z</time>
      </trkpt>
      <trkpt lat="43.65113602951169" lon="6.919774040579796">
        <ele>308.24000000000001</ele>
        <time>2025-05-18T11:37:20Z</time>
      </trkpt>
      <trkpt lat="43.651180034503341" lon="6.919839000329375">
        <ele>308.72000000000003</ele>
        <time>2025-05-18T11:37:21Z</time>
      </trkpt>
      <trkpt lat="43.651219010353088" lon="6.919895997270942">
        <ele>309.68000000000001</ele>
        <time>2025-05-18T11:37:22Z</time>
      </trkpt>
      <trkpt lat="43.651248011738062" lon="6.919937990605831">
        <ele>310.16000000000003</ele>
        <time>2025-05-18T11:37:23Z</time>
      </trkpt>
      <trkpt lat="43.6512650270015" lon="6.919962968677282">
        <ele>310.63999999999999</ele>
        <time>2025-05-18T11:37:24Z</time>
      </trkpt>
      <trkpt lat="43.6512650270015" lon="6.919962968677282">
        <ele>311.12</ele>
        <time>2025-05-18T11:37:37Z</time>
      </trkpt>
      <trkpt lat="43.6512650270015" lon="6.919962968677282">
        <ele>312.56999999999999</ele>
        <time>2025-05-18T11:37:51Z</time>
      </trkpt>
      <trkpt lat="43.651301991194487" lon="6.920016026124358">
        <ele>312.56999999999999</ele>
        <time>2025-05-18T11:37:52Z</time>
      </trkpt>
      <trkpt lat="43.651342978700995" lon="6.920056007802486">
        <ele>313.05000000000001</ele>
        <time>2025-05-18T11:37:53Z</time>
      </trkpt>
      <trkpt lat="43.651708010584116" lon="6.920180981978774">
        <ele>312.08999999999997</ele>
        <time>2025-05-18T11:38:01Z</time>
      </trkpt>
      <trkpt lat="43.651708010584116" lon="6.920180981978774">
        <ele>313.52999999999997</ele>
        <time>2025-05-18T11:38:13Z</time>
      </trkpt>
      <trkpt lat="43.651757966727018" lon="6.920182993635535">
        <ele>313.52999999999997</ele>
        <time>2025-05-18T11:38:36Z</time>
      </trkpt>
      <trkpt lat="43.651810018345714" lon="6.920164972543716">
        <ele>314.00999999999999</ele>
        <time>2025-05-18T11:38:44Z</time>
      </trkpt>
      <trkpt lat="43.651810018345714" lon="6.920164972543716">
        <ele>314.00999999999999</ele>
        <time>2025-05-18T11:39:06Z</time>
      </trkpt>
      <trkpt lat="43.651890987530351" lon="6.920288018882275">
        <ele>303.43000000000001</ele>
        <time>2025-05-18T12:03:01Z</time>
      </trkpt>
      <trkpt lat="43.651881013065577" lon="6.920301010832191">
        <ele>301.50999999999999</ele>
        <time>2025-05-18T12:03:33Z</time>
      </trkpt>
      <trkpt lat="43.651876989752054" lon="6.920205038040876">
        <ele>301.50999999999999</ele>
        <time>2025-05-18T12:03:51Z</time>
      </trkpt>
      <trkpt lat="43.651873972266912" lon="6.920180981978774">
        <ele>302.47000000000003</ele>
        <time>2025-05-18T12:03:55Z</time>
      </trkpt>
      <trkpt lat="43.651843965053558" lon="6.920153992250562">
        <ele>301.99000000000001</ele>
        <time>2025-05-18T12:03:57Z</time>
      </trkpt>
      <trkpt lat="43.651808006688952" lon="6.920165978372097">
        <ele>302.47000000000003</ele>
        <time>2025-05-18T12:03:58Z</time>
      </trkpt>
      <trkpt lat="43.651761990040541" lon="6.920180981978774">
        <ele>302.47000000000003</ele>
        <time>2025-05-18T12:03:59Z</time>
      </trkpt>
      <trkpt lat="43.651701975613832" lon="6.920180981978774">
        <ele>302.47000000000003</ele>
        <time>2025-05-18T12:04:00Z</time>
      </trkpt>
      <trkpt lat="43.651642967015505" lon="6.920176036655903">
        <ele>302.47000000000003</ele>
        <time>2025-05-18T12:04:01Z</time>
      </trkpt>
      <trkpt lat="43.651581024751067" lon="6.920171007514">
        <ele>301.99000000000001</ele>
        <time>2025-05-18T12:04:02Z</time>
      </trkpt>
      <trkpt lat="43.65152201615274" lon="6.920165978372097">
        <ele>301.99000000000001</ele>
        <time>2025-05-18T12:04:03Z</time>
      </trkpt>
      <trkpt lat="43.651453033089638" lon="6.920136976987124">
        <ele>301.99000000000001</ele>
        <time>2025-05-18T12:04:04Z</time>
      </trkpt>
      <trkpt lat="43.651396036148071" lon="6.920099006965756">
        <ele>301.99000000000001</ele>
        <time>2025-05-18T12:04:05Z</time>
      </trkpt>
      <trkpt lat="43.65132998675108" lon="6.920044021680951">
        <ele>301.99000000000001</ele>
        <time>2025-05-18T12:04:06Z</time>
      </trkpt>
      <trkpt lat="43.651269972324371" lon="6.919969003647566">
        <ele>301.99000000000001</ele>
        <time>2025-05-18T12:04:07Z</time>
      </trkpt>
      <trkpt lat="43.651212975382805" lon="6.919887028634548">
        <ele>301.99000000000001</ele>
        <time>2025-05-18T12:04:08Z</time>
      </trkpt>
      <trkpt lat="43.651155978441238" lon="6.919804969802499">
        <ele>301.50999999999999</ele>
        <time>2025-05-18T12:04:09Z</time>
      </trkpt>
      <trkpt lat="43.651046007871628" lon="6.919631967321038">
        <ele>301.02999999999997</ele>
        <time>2025-05-18T12:04:11Z</time>
      </trkpt>
      <trkpt lat="43.651012983173132" lon="6.919559966772795">
        <ele>300.55000000000001</ele>
        <time>2025-05-18T12:04:12Z</time>
      </trkpt>
      <trkpt lat="43.650983981788158" lon="6.919499030336738">
        <ele>299.58999999999997</ele>
        <time>2025-05-18T12:04:13Z</time>
      </trkpt>
      <trkpt lat="43.65092103369534" lon="6.919363997876644">
        <ele>297.67000000000002</ele>
        <time>2025-05-18T12:04:15Z</time>
      </trkpt>
      <trkpt lat="43.65085699595511" lon="6.919226031750441">
        <ele>295.74000000000001</ele>
        <time>2025-05-18T12:04:17Z</time>
      </trkpt>
      <trkpt lat="43.650782983750105" lon="6.919067027047277">
        <ele>294.30000000000001</ele>
        <time>2025-05-18T12:04:19Z</time>
      </trkpt>
      <trkpt lat="43.650467991828918" lon="6.918391026556492">
        <ele>288.52999999999997</ele>
        <time>2025-05-18T12:04:25Z</time>
      </trkpt>
      <trkpt lat="43.650419041514397" lon="6.918286001309753">
        <ele>287.08999999999997</ele>
        <time>2025-05-18T12:04:26Z</time>
      </trkpt>
      <trkpt lat="43.650131039321423" lon="6.917862966656685">
        <ele>281.80000000000001</ele>
        <time>2025-05-18T12:04:32Z</time>
      </trkpt>
      <trkpt lat="43.650098014622927" lon="6.917824996635318">
        <ele>281.80000000000001</ele>
        <time>2025-05-18T12:04:33Z</time>
      </trkpt>
      <trkpt lat="43.650098014622927" lon="6.917824996635318">
        <ele>279.88</ele>
        <time>2025-05-18T12:04:42Z</time>
      </trkpt>
      <trkpt lat="43.650098014622927" lon="6.917824996635318">
        <ele>279.88</ele>
        <time>2025-05-18T12:04:54Z</time>
      </trkpt>
      <trkpt lat="43.650087034329772" lon="6.917819967493415">
        <ele>278.92000000000002</ele>
        <time>2025-05-18T12:04:55Z</time>
      </trkpt>
      <trkpt lat="43.649861980229616" lon="6.917781997472048">
        <ele>276.04000000000002</ele>
        <time>2025-05-18T12:05:00Z</time>
      </trkpt>
      <trkpt lat="43.6496970243752" lon="6.917805969715118">
        <ele>276.51999999999998</ele>
        <time>2025-05-18T12:05:01Z</time>
      </trkpt>
      <trkpt lat="43.649755027145147" lon="6.917910994961858">
        <ele>280.83999999999997</ele>
        <time>2025-05-18T12:05:03Z</time>
      </trkpt>
      <trkpt lat="43.649755027145147" lon="6.917910994961858">
        <ele>282.27999999999997</ele>
        <time>2025-05-18T12:05:04Z</time>
      </trkpt>
      <trkpt lat="43.649814035743475" lon="6.917910994961858">
        <ele>282.76999999999998</ele>
        <time>2025-05-18T12:05:05Z</time>
      </trkpt>
      <trkpt lat="43.649915037676692" lon="6.917781997472048">
        <ele>281.80000000000001</ele>
        <time>2025-05-18T12:05:07Z</time>
      </trkpt>
      <trkpt lat="43.649975974112749" lon="6.917781997472048">
        <ele>281.80000000000001</ele>
        <time>2025-05-18T12:05:08Z</time>
      </trkpt>
      <trkpt lat="43.65006297826767" lon="6.917809993028641">
        <ele>281.80000000000001</ele>
        <time>2025-05-18T12:05:09Z</time>
      </trkpt>
      <trkpt lat="43.650204967707396" lon="6.917949970811606">
        <ele>281.80000000000001</ele>
        <time>2025-05-18T12:05:10Z</time>
      </trkpt>
      <trkpt lat="43.650264982134104" lon="6.918020965531468">
        <ele>282.27999999999997</ele>
        <time>2025-05-18T12:05:12Z</time>
      </trkpt>
      <trkpt lat="43.650334971025586" lon="6.918104030191898">
        <ele>282.76999999999998</ele>
        <time>2025-05-18T12:05:13Z</time>
      </trkpt>
      <trkpt lat="43.650380987673998" lon="6.918205032125115">
        <ele>282.76999999999998</ele>
        <time>2025-05-18T12:05:14Z</time>
      </trkpt>
      <trkpt lat="43.65042801015079" lon="6.918304022401571">
        <ele>283.73000000000002</ele>
        <time>2025-05-18T12:05:15Z</time>
      </trkpt>
      <trkpt lat="43.650725986808538" lon="6.918944986537099">
        <ele>286.13</ele>
        <time>2025-05-18T12:05:20Z</time>
      </trkpt>
      <trkpt lat="43.650778038427234" lon="6.919055040925741">
        <ele>287.56999999999999</ele>
        <time>2025-05-18T12:05:21Z</time>
      </trkpt>
      <trkpt lat="43.651226973161101" lon="6.919906977564097">
        <ele>293.81999999999999</ele>
        <time>2025-05-18T12:05:29Z</time>
      </trkpt>
      <trkpt lat="43.651299979537725" lon="6.920014014467597">
        <ele>297.18000000000001</ele>
        <time>2025-05-18T12:05:31Z</time>
      </trkpt>
      <trkpt lat="43.651457978412509" lon="6.920139994472265">
        <ele>298.63</ele>
        <time>2025-05-18T12:05:32Z</time>
      </trkpt>
      <trkpt lat="43.651636010035872" lon="6.920175030827522">
        <ele>302.47000000000003</ele>
        <time>2025-05-18T12:05:34Z</time>
      </trkpt>
      <trkpt lat="43.651730976998806" lon="6.920182993635535">
        <ele>303.91000000000003</ele>
        <time>2025-05-18T12:05:35Z</time>
      </trkpt>
      <trkpt lat="43.651820998638868" lon="6.920162038877606">
        <ele>305.83999999999997</ele>
        <time>2025-05-18T12:05:37Z</time>
      </trkpt>
      <trkpt lat="43.652014033868909" lon="6.920081991702318">
        <ele>306.80000000000001</ele>
        <time>2025-05-18T12:05:38Z</time>
      </trkpt>
      <trkpt lat="43.652113024145365" lon="6.920037986710668">
        <ele>309.19999999999999</ele>
        <time>2025-05-18T12:05:40Z</time>
      </trkpt>
      <trkpt lat="43.652206985279918" lon="6.919996999204159">
        <ele>310.16000000000003</ele>
        <time>2025-05-18T12:05:41Z</time>
      </trkpt>
      <trkpt lat="43.652302036061883" lon="6.919950982555747">
        <ele>311.60000000000002</ele>
        <time>2025-05-18T12:05:42Z</time>
      </trkpt>
      <trkpt lat="43.652398008853197" lon="6.919897003099322">
        <ele>312.56999999999999</ele>
        <time>2025-05-18T12:05:43Z</time>
      </trkpt>
      <trkpt lat="43.652883991599083" lon="6.919633978977799">
        <ele>317.85000000000002</ele>
        <time>2025-05-18T12:05:48Z</time>
      </trkpt>
      <trkpt lat="43.653073003515601" lon="6.919534988701344">
        <ele>318.81</ele>
        <time>2025-05-18T12:05:50Z</time>
      </trkpt>
      <trkpt lat="43.653151039034128" lon="6.919471034780145">
        <ele>318.81</ele>
        <time>2025-05-18T12:05:51Z</time>
      </trkpt>
      <trkpt lat="43.653317000716925" lon="6.919304989278317">
        <ele>318.81</ele>
        <time>2025-05-18T12:05:52Z</time>
      </trkpt>
      <trkpt lat="43.653565021231771" lon="6.919087981805205">
        <ele>320.74000000000001</ele>
        <time>2025-05-18T12:05:55Z</time>
      </trkpt>
      <trkpt lat="43.653730982914567" lon="6.918994020670652">
        <ele>322.18000000000001</ele>
        <time>2025-05-18T12:05:57Z</time>
      </trkpt>
      <trkpt lat="43.65401697345078" lon="6.918893018737435">
        <ele>324.57999999999998</ele>
        <time>2025-05-18T12:06:01Z</time>
      </trkpt>
      <trkpt lat="43.654515026137233" lon="6.918724039569497">
        <ele>327.47000000000003</ele>
        <time>2025-05-18T12:06:08Z</time>
      </trkpt>
      <trkpt lat="43.654579985886812" lon="6.918704006820917">
        <ele>327.47000000000003</ele>
        <time>2025-05-18T12:06:09Z</time>
      </trkpt>
      <trkpt lat="43.654656009748578" lon="6.918685985729098">
        <ele>327.94999999999999</ele>
        <time>2025-05-18T12:06:10Z</time>
      </trkpt>
      <trkpt lat="43.654715018346906" lon="6.91870803013444">
        <ele>328.43000000000001</ele>
        <time>2025-05-18T12:06:11Z</time>
      </trkpt>
      <trkpt lat="43.654779978096485" lon="6.918733008205891">
        <ele>328.91000000000003</ele>
        <time>2025-05-18T12:06:12Z</time>
      </trkpt>
      <trkpt lat="43.654848039150238" lon="6.918767038732767">
        <ele>329.38999999999999</ele>
        <time>2025-05-18T12:06:14Z</time>
      </trkpt>
      <trkpt lat="43.655183985829353" lon="6.918991003185511">
        <ele>331.79000000000002</ele>
        <time>2025-05-18T12:06:18Z</time>
      </trkpt>
      <trkpt lat="43.655251041054726" lon="6.919036014005542">
        <ele>332.75</ele>
        <time>2025-05-18T12:06:19Z</time>
      </trkpt>
      <trkpt lat="43.655422031879425" lon="6.919149002060294">
        <ele>334.68000000000001</ele>
        <time>2025-05-18T12:06:22Z</time>
      </trkpt>
      <trkpt lat="43.655481962487102" lon="6.919189989566803">
        <ele>336.12</ele>
        <time>2025-05-18T12:06:23Z</time>
      </trkpt>
      <trkpt lat="43.655749009922147" lon="6.919370032846928">
        <ele>339</ele>
        <time>2025-05-18T12:06:27Z</time>
      </trkpt>
      <trkpt lat="43.65579703822732" lon="6.919401967898011">
        <ele>339.48000000000002</ele>
        <time>2025-05-18T12:06:28Z</time>
      </trkpt>
      <trkpt lat="43.655913965776563" lon="6.919482015073299">
        <ele>340.92000000000002</ele>
        <time>2025-05-18T12:06:31Z</time>
      </trkpt>
      <trkpt lat="43.656602958217263" lon="6.919957017526031">
        <ele>343.81</ele>
        <time>2025-05-18T12:06:41Z</time>
      </trkpt>
      <trkpt lat="43.656646041199565" lon="6.919983001425862">
        <ele>344.29000000000002</ele>
        <time>2025-05-18T12:06:42Z</time>
      </trkpt>
      <trkpt lat="43.656697003170848" lon="6.920007979497314">
        <ele>344.29000000000002</ele>
        <time>2025-05-18T12:06:43Z</time>
      </trkpt>
      <trkpt lat="43.65674301981926" lon="6.920031029731035">
        <ele>344.76999999999998</ele>
        <time>2025-05-18T12:06:44Z</time>
      </trkpt>
      <trkpt lat="43.656749976798892" lon="6.920034969225526">
        <ele>345.25</ele>
        <time>2025-05-18T12:06:45Z</time>
      </trkpt>
      <trkpt lat="43.656858019530773" lon="6.920142006129026">
        <ele>345.25</ele>
        <time>2025-05-18T12:06:46Z</time>
      </trkpt>
      <trkpt lat="43.656863970682025" lon="6.920153992250562">
        <ele>344.76999999999998</ele>
        <time>2025-05-18T12:06:48Z</time>
      </trkpt>
      <trkpt lat="43.657089024782181" lon="6.920538973063231">
        <ele>341.41000000000003</ele>
        <time>2025-05-18T12:06:54Z</time>
      </trkpt>
      <trkpt lat="43.657122971490026" lon="6.920596975833178">
        <ele>340.92000000000002</ele>
        <time>2025-05-18T12:06:55Z</time>
      </trkpt>
      <trkpt lat="43.657158007845283" lon="6.920656990259886">
        <ele>340.44</ele>
        <time>2025-05-18T12:06:56Z</time>
      </trkpt>
      <trkpt lat="43.657261021435261" lon="6.920895958319306">
        <ele>339.95999999999998</ele>
        <time>2025-05-18T12:06:59Z</time>
      </trkpt>
      <trkpt lat="43.657285999506712" lon="6.920956978574395">
        <ele>339.48000000000002</ele>
        <time>2025-05-18T12:07:00Z</time>
      </trkpt>
      <trkpt lat="43.657287005335093" lon="6.920957984402776">
        <ele>339.48000000000002</ele>
        <time>2025-05-18T12:07:01Z</time>
      </trkpt>
      <trkpt lat="43.65734601393342" lon="6.921144984662533">
        <ele>339</ele>
        <time>2025-05-18T12:07:02Z</time>
      </trkpt>
      <trkpt lat="43.657414996996522" lon="6.921108020469546">
        <ele>338.51999999999998</ele>
        <time>2025-05-18T12:07:04Z</time>
      </trkpt>
      <trkpt lat="43.657460007816553" lon="6.921108020469546">
        <ele>338.51999999999998</ele>
        <time>2025-05-18T12:07:05Z</time>
      </trkpt>
      <trkpt lat="43.657512981444597" lon="6.921108020469546">
        <ele>338.51999999999998</ele>
        <time>2025-05-18T12:07:06Z</time>
      </trkpt>
      <trkpt lat="43.65760400891304" lon="6.921170968562365">
        <ele>338.51999999999998</ele>
        <time>2025-05-18T12:07:07Z</time>
      </trkpt>
      <trkpt lat="43.657696964219213" lon="6.921269958838821">
        <ele>339</ele>
        <time>2025-05-18T12:07:09Z</time>
      </trkpt>
      <trkpt lat="43.657747004181147" lon="6.921323016285896">
        <ele>339</ele>
        <time>2025-05-18T12:07:10Z</time>
      </trkpt>
      <trkpt lat="43.657831996679306" lon="6.921413037925959">
        <ele>339.48000000000002</ele>
        <time>2025-05-18T12:07:12Z</time>
      </trkpt>
      <trkpt lat="43.657866027206182" lon="6.921450002118945">
        <ele>339.48000000000002</ele>
        <time>2025-05-18T12:07:13Z</time>
      </trkpt>
      <trkpt lat="43.658002987504005" lon="6.921587968245149">
        <ele>339</ele>
        <time>2025-05-18T12:07:16Z</time>
      </trkpt>
      <trkpt lat="43.658055039122701" lon="6.921637002378702">
        <ele>338.51999999999998</ele>
        <time>2025-05-18T12:07:17Z</time>
      </trkpt>
      <trkpt lat="43.658320996910334" lon="6.921863984316587">
        <ele>337.56</ele>
        <time>2025-05-18T12:07:22Z</time>
      </trkpt>
      <trkpt lat="43.658361984416842" lon="6.921899020671845">
        <ele>337.56</ele>
        <time>2025-05-18T12:07:23Z</time>
      </trkpt>
      <trkpt lat="43.658410012722015" lon="6.921940008178353">
        <ele>337.07999999999998</ele>
        <time>2025-05-18T12:07:24Z</time>
      </trkpt>
      <trkpt lat="43.658458963036537" lon="6.921982001513243">
        <ele>337.07999999999998</ele>
        <time>2025-05-18T12:07:25Z</time>
      </trkpt>
      <trkpt lat="43.658501962199807" lon="6.922017959877849">
        <ele>337.07999999999998</ele>
        <time>2025-05-18T12:07:26Z</time>
      </trkpt>
      <trkpt lat="43.658543033525348" lon="6.922052996233106">
        <ele>337.07999999999998</ele>
        <time>2025-05-18T12:07:28Z</time>
      </trkpt>
      <trkpt lat="43.658661972731352" lon="6.922142012044787">
        <ele>337.07999999999998</ele>
        <time>2025-05-18T12:07:36Z</time>
      </trkpt>
      <trkpt lat="43.658661972731352" lon="6.922142012044787">
        <ele>337.07999999999998</ele>
        <time>2025-05-18T12:07:55Z</time>
      </trkpt>
      <trkpt lat="43.658694997429848" lon="6.922167995944619">
        <ele>383.69999999999999</ele>
        <time>2025-05-18T13:11:10Z</time>
      </trkpt>
      <trkpt lat="43.658655015751719" lon="6.922137988731265">
        <ele>380.33999999999997</ele>
        <time>2025-05-18T13:11:31Z</time>
      </trkpt>
      <trkpt lat="43.658595001325011" lon="6.922065988183022">
        <ele>372.64999999999998</ele>
        <time>2025-05-18T13:12:01Z</time>
      </trkpt>
      <trkpt lat="43.658657027408481" lon="6.92214896902442">
        <ele>370.24000000000001</ele>
        <time>2025-05-18T13:12:40Z</time>
      </trkpt>
      <trkpt lat="43.658640012145042" lon="6.922152992337942">
        <ele>368.80000000000001</ele>
        <time>2025-05-18T13:13:30Z</time>
      </trkpt>
      <trkpt lat="43.658641017973423" lon="6.922156009823084">
        <ele>368.80000000000001</ele>
        <time>2025-05-18T13:14:16Z</time>
      </trkpt>
      <trkpt lat="43.658645041286945" lon="6.922160033136606">
        <ele>368.80000000000001</ele>
        <time>2025-05-18T13:15:05Z</time>
      </trkpt>
      <trkpt lat="43.658645963296294" lon="6.922156009823084">
        <ele>368.31999999999999</ele>
        <time>2025-05-18T13:15:50Z</time>
      </trkpt>
      <trkpt lat="43.658702960237861" lon="6.9221499748528">
        <ele>368.31999999999999</ele>
        <time>2025-05-18T13:16:27Z</time>
      </trkpt>
      <trkpt lat="43.658720981329679" lon="6.922150980681181">
        <ele>368.31999999999999</ele>
        <time>2025-05-18T13:16:28Z</time>
      </trkpt>
      <trkpt lat="43.658786024898291" lon="6.922121979296207">
        <ele>366.39999999999998</ele>
        <time>2025-05-18T13:16:44Z</time>
      </trkpt>
      <trkpt lat="43.658786024898291" lon="6.922121979296207">
        <ele>366.39999999999998</ele>
        <time>2025-05-18T13:16:59Z</time>
      </trkpt>
      <trkpt lat="43.658811002969742" lon="6.922209989279509">
        <ele>365.92000000000002</ele>
        <time>2025-05-18T13:17:01Z</time>
      </trkpt>
      <trkpt lat="43.658915022388101" lon="6.922231027856469">
        <ele>363.51999999999998</ele>
        <time>2025-05-18T13:17:03Z</time>
      </trkpt>
      <trkpt lat="43.659560009837151" lon="6.922325994819403">
        <ele>357.75</ele>
        <time>2025-05-18T13:17:13Z</time>
      </trkpt>
      <trkpt lat="43.659631004557014" lon="6.922332029789686">
        <ele>356.79000000000002</ele>
        <time>2025-05-18T13:17:14Z</time>
      </trkpt>
      <trkpt lat="43.659698981791735" lon="6.922347033396363">
        <ele>356.31</ele>
        <time>2025-05-18T13:17:15Z</time>
      </trkpt>
      <trkpt lat="43.659778023138642" lon="6.92236497066915">
        <ele>355.33999999999997</ele>
        <time>2025-05-18T13:17:16Z</time>
      </trkpt>
      <trkpt lat="43.659853963181376" lon="6.922379974275827">
        <ele>354.86000000000001</ele>
        <time>2025-05-18T13:17:17Z</time>
      </trkpt>
      <trkpt lat="43.659920012578368" lon="6.922392966225743">
        <ele>354.38</ele>
        <time>2025-05-18T13:17:18Z</time>
      </trkpt>
      <trkpt lat="43.659973992034793" lon="6.922403024509549">
        <ele>353.42000000000002</ele>
        <time>2025-05-18T13:17:19Z</time>
      </trkpt>
      <trkpt lat="43.660025959834456" lon="6.922412998974323">
        <ele>352.94</ele>
        <time>2025-05-18T13:17:20Z</time>
      </trkpt>
      <trkpt lat="43.660081028938293" lon="6.922422973439097">
        <ele>352.45999999999998</ele>
        <time>2025-05-18T13:17:21Z</time>
      </trkpt>
      <trkpt lat="43.660150012001395" lon="6.922435965389013">
        <ele>351.5</ele>
        <time>2025-05-18T13:17:22Z</time>
      </trkpt>
      <trkpt lat="43.660161998122931" lon="6.922437977045775">
        <ele>351.5</ele>
        <time>2025-05-18T13:17:23Z</time>
      </trkpt>
      <trkpt lat="43.660254031419754" lon="6.922453986480832">
        <ele>351.01999999999998</ele>
        <time>2025-05-18T13:17:24Z</time>
      </trkpt>
      <trkpt lat="43.660308010876179" lon="6.922446023672819">
        <ele>351.01999999999998</ele>
        <time>2025-05-18T13:17:25Z</time>
      </trkpt>
      <trkpt lat="43.660364001989365" lon="6.922458009794354">
        <ele>351.01999999999998</ele>
        <time>2025-05-18T13:17:26Z</time>
      </trkpt>
      <trkpt lat="43.660425022244453" lon="6.92247100174427">
        <ele>351.01999999999998</ele>
        <time>2025-05-18T13:17:27Z</time>
      </trkpt>
      <trkpt lat="43.660492999479175" lon="6.922484999522567">
        <ele>351.01999999999998</ele>
        <time>2025-05-18T13:17:28Z</time>
      </trkpt>
      <trkpt lat="43.660567011684179" lon="6.922501008957624">
        <ele>351.98000000000002</ele>
        <time>2025-05-18T13:17:30Z</time>
      </trkpt>
      <trkpt lat="43.660715958103538" lon="6.92251400090754">
        <ele>351.98000000000002</ele>
        <time>2025-05-18T13:17:31Z</time>
      </trkpt>
      <trkpt lat="43.660775972530246" lon="6.922503020614386">
        <ele>351.98000000000002</ele>
        <time>2025-05-18T13:17:32Z</time>
      </trkpt>
      <trkpt lat="43.660822995007038" lon="6.922549959272146">
        <ele>352.45999999999998</ele>
        <time>2025-05-18T13:17:33Z</time>
      </trkpt>
      <trkpt lat="43.66084897890687" lon="6.922621037811041">
        <ele>352.45999999999998</ele>
        <time>2025-05-18T13:17:34Z</time>
      </trkpt>
      <trkpt lat="43.660878986120224" lon="6.92270502448082">
        <ele>352.94</ele>
        <time>2025-05-18T13:17:35Z</time>
      </trkpt>
      <trkpt lat="43.660970013588667" lon="6.922851959243417">
        <ele>352.45999999999998</ele>
        <time>2025-05-18T13:17:37Z</time>
      </trkpt>
      <trkpt lat="43.661023993045092" lon="6.922897975891829">
        <ele>352.45999999999998</ele>
        <time>2025-05-18T13:17:38Z</time>
      </trkpt>
      <trkpt lat="43.661062968894839" lon="6.922932006418705">
        <ele>352.45999999999998</ele>
        <time>2025-05-18T13:17:40Z</time>
      </trkpt>
      <trkpt lat="43.66115097887814" lon="6.922932006418705">
        <ele>352.45999999999998</ele>
        <time>2025-05-18T13:17:41Z</time>
      </trkpt>
      <trkpt lat="43.661202024668455" lon="6.922932006418705">
        <ele>352.45999999999998</ele>
        <time>2025-05-18T13:17:42Z</time>
      </trkpt>
      <trkpt lat="43.661374021321535" lon="6.923015993088484">
        <ele>351.01999999999998</ele>
        <time>2025-05-18T13:17:45Z</time>
      </trkpt>
      <trkpt lat="43.661435041576624" lon="6.923069972544909">
        <ele>350.06</ele>
        <time>2025-05-18T13:17:46Z</time>
      </trkpt>
      <trkpt lat="43.661498995497823" lon="6.923126969486475">
        <ele>349.57999999999998</ele>
        <time>2025-05-18T13:17:47Z</time>
      </trkpt>
      <trkpt lat="43.661949019879103" lon="6.923584034666419">
        <ele>345.25</ele>
        <time>2025-05-18T13:17:53Z</time>
      </trkpt>
      <trkpt lat="43.662010040134192" lon="6.923670032992959">
        <ele>344.76999999999998</ele>
        <time>2025-05-18T13:17:54Z</time>
      </trkpt>
      <trkpt lat="43.662065025418997" lon="6.923763994127512">
        <ele>343.81</ele>
        <time>2025-05-18T13:17:55Z</time>
      </trkpt>
      <trkpt lat="43.662415975704789" lon="6.924628000706434">
        <ele>336.12</ele>
        <time>2025-05-18T13:18:03Z</time>
      </trkpt>
      <trkpt lat="43.662620997056365" lon="6.924922959879041">
        <ele>333.23000000000002</ele>
        <time>2025-05-18T13:18:06Z</time>
      </trkpt>
      <trkpt lat="43.663005977869034" lon="6.925321016460657">
        <ele>327.47000000000003</ele>
        <time>2025-05-18T13:18:11Z</time>
      </trkpt>
      <trkpt lat="43.6630820017308" lon="6.925399973988533">
        <ele>326.5</ele>
        <time>2025-05-18T13:18:12Z</time>
      </trkpt>
      <trkpt lat="43.663131035864353" lon="6.925492007285357">
        <ele>325.54000000000002</ele>
        <time>2025-05-18T13:18:13Z</time>
      </trkpt>
      <trkpt lat="43.66314796730876" lon="6.925609018653631">
        <ele>324.57999999999998</ele>
        <time>2025-05-18T13:18:14Z</time>
      </trkpt>
      <trkpt lat="43.663164982572198" lon="6.925719995051622">
        <ele>323.62</ele>
        <time>2025-05-18T13:18:15Z</time>
      </trkpt>
      <trkpt lat="43.663183003664017" lon="6.925838012248278">
        <ele>323.13999999999999</ele>
        <time>2025-05-18T13:18:16Z</time>
      </trkpt>
      <trkpt lat="43.663160037249327" lon="6.925954017788172">
        <ele>322.66000000000003</ele>
        <time>2025-05-18T13:18:17Z</time>
      </trkpt>
      <trkpt lat="43.663119971752167" lon="6.926074968650937">
        <ele>322.18000000000001</ele>
        <time>2025-05-18T13:18:18Z</time>
      </trkpt>
      <trkpt lat="43.663079990074039" lon="6.926194997504354">
        <ele>321.69999999999999</ele>
        <time>2025-05-18T13:18:19Z</time>
      </trkpt>
      <trkpt lat="43.663045959547162" lon="6.926314020529389">
        <ele>321.69999999999999</ele>
        <time>2025-05-18T13:18:20Z</time>
      </trkpt>
      <trkpt lat="43.66301603615284" lon="6.926451986655593">
        <ele>321.22000000000003</ele>
        <time>2025-05-18T13:18:21Z</time>
      </trkpt>
      <trkpt lat="43.66301997564733" lon="6.926576960831881">
        <ele>320.25999999999999</ele>
        <time>2025-05-18T13:18:22Z</time>
      </trkpt>
      <trkpt lat="43.663033973425627" lon="6.926962025463581">
        <ele>317.37</ele>
        <time>2025-05-18T13:18:26Z</time>
      </trkpt>
      <trkpt lat="43.663035985082388" lon="6.927027991041541">
        <ele>316.41000000000003</ele>
        <time>2025-05-18T13:18:27Z</time>
      </trkpt>
      <trkpt lat="43.66301997564733" lon="6.927060009911656">
        <ele>315.44999999999999</ele>
        <time>2025-05-18T13:18:28Z</time>
      </trkpt>
      <trkpt lat="43.662990974262357" lon="6.927075013518333">
        <ele>314.00999999999999</ele>
        <time>2025-05-18T13:18:29Z</time>
      </trkpt>
      <trkpt lat="43.662935988977551" lon="6.927064033225179">
        <ele>313.05000000000001</ele>
        <time>2025-05-18T13:18:30Z</time>
      </trkpt>
      <trkpt lat="43.662916040048003" lon="6.927023967728019">
        <ele>312.08999999999997</ele>
        <time>2025-05-18T13:18:31Z</time>
      </trkpt>
      <trkpt lat="43.662915034219623" lon="6.926923971623182">
        <ele>310.63999999999999</ele>
        <time>2025-05-18T13:18:32Z</time>
      </trkpt>
      <trkpt lat="43.662920985370874" lon="6.926847025752068">
        <ele>309.68000000000001</ele>
        <time>2025-05-18T13:18:33Z</time>
      </trkpt>
      <trkpt lat="43.662927020341158" lon="6.926763039082289">
        <ele>308.72000000000003</ele>
        <time>2025-05-18T13:18:34Z</time>
      </trkpt>
      <trkpt lat="43.662945963442326" lon="6.926496997475624">
        <ele>306.31999999999999</ele>
        <time>2025-05-18T13:18:37Z</time>
      </trkpt>
      <trkpt lat="43.662961972877383" lon="6.926285019144416">
        <ele>304.38999999999999</ele>
        <time>2025-05-18T13:18:39Z</time>
      </trkpt>
      <trkpt lat="43.662970019504428" lon="6.926178988069296">
        <ele>303.91000000000003</ele>
        <time>2025-05-18T13:18:40Z</time>
      </trkpt>
      <trkpt lat="43.66297697648406" lon="6.925745978951454">
        <ele>301.99000000000001</ele>
        <time>2025-05-18T13:18:44Z</time>
      </trkpt>
      <trkpt lat="43.662951998412609" lon="6.925593009218574">
        <ele>301.50999999999999</ele>
        <time>2025-05-18T13:18:45Z</time>
      </trkpt>
      <trkpt lat="43.662926014512777" lon="6.925570964813232">
        <ele>300.55000000000001</ele>
        <time>2025-05-18T13:18:46Z</time>
      </trkpt>
      <trkpt lat="43.662862982600927" lon="6.925516985356808">
        <ele>300.06999999999999</ele>
        <time>2025-05-18T13:18:47Z</time>
      </trkpt>
      <trkpt lat="43.662767009809613" lon="6.925462000072002">
        <ele>299.58999999999997</ele>
        <time>2025-05-18T13:18:48Z</time>
      </trkpt>
      <trkpt lat="43.662681011483073" lon="6.925458982586861">
        <ele>299.58999999999997</ele>
        <time>2025-05-18T13:18:49Z</time>
      </trkpt>
      <trkpt lat="43.662590989843011" lon="6.925454959273338">
        <ele>299.11000000000001</ele>
        <time>2025-05-18T13:18:50Z</time>
      </trkpt>
      <trkpt lat="43.66243802011013" lon="6.925449008122087">
        <ele>297.18000000000001</ele>
        <time>2025-05-18T13:18:52Z</time>
      </trkpt>
      <trkpt lat="43.662360990419984" lon="6.925444984808564">
        <ele>296.22000000000003</ele>
        <time>2025-05-18T13:18:53Z</time>
      </trkpt>
      <trkpt lat="43.662283960729837" lon="6.925440961495042">
        <ele>295.74000000000001</ele>
        <time>2025-05-18T13:18:54Z</time>
      </trkpt>
      <trkpt lat="43.662211038172245" lon="6.925386982038617">
        <ele>295.25999999999999</ele>
        <time>2025-05-18T13:18:55Z</time>
      </trkpt>
      <trkpt lat="43.662139037624002" lon="6.925333002582192">
        <ele>294.77999999999997</ele>
        <time>2025-05-18T13:18:56Z</time>
      </trkpt>
      <trkpt lat="43.662066031247377" lon="6.925280028954148">
        <ele>294.77999999999997</ele>
        <time>2025-05-18T13:18:57Z</time>
      </trkpt>
      <trkpt lat="43.66175296716392" lon="6.924977023154497">
        <ele>296.22000000000003</ele>
        <time>2025-05-18T13:19:02Z</time>
      </trkpt>
      <trkpt lat="43.661716002970934" lon="6.924884989857674">
        <ele>296.69999999999999</ele>
        <time>2025-05-18T13:19:03Z</time>
      </trkpt>
      <trkpt lat="43.661678032949567" lon="6.924792034551501">
        <ele>297.18000000000001</ele>
        <time>2025-05-18T13:19:04Z</time>
      </trkpt>
      <trkpt lat="43.661641990765929" lon="6.924701007083058">
        <ele>297.67000000000002</ele>
        <time>2025-05-18T13:19:05Z</time>
      </trkpt>
      <trkpt lat="43.661606032401323" lon="6.924629006534815">
        <ele>298.63</ele>
        <time>2025-05-18T13:19:06Z</time>
      </trkpt>
      <trkpt lat="43.661552974954247" lon="6.924563962966204">
        <ele>299.58999999999997</ele>
        <time>2025-05-18T13:19:07Z</time>
      </trkpt>
      <trkpt lat="43.661497989669442" lon="6.924540996551514">
        <ele>301.02999999999997</ele>
        <time>2025-05-18T13:19:08Z</time>
      </trkpt>
      <trkpt lat="43.66144903935492" lon="6.924540996551514">
        <ele>301.99000000000001</ele>
        <time>2025-05-18T13:19:09Z</time>
      </trkpt>
      <trkpt lat="43.661351976916194" lon="6.924637975171208">
        <ele>303.91000000000003</ele>
        <time>2025-05-18T13:19:11Z</time>
      </trkpt>
      <trkpt lat="43.66129900328815" lon="6.924691032618284">
        <ele>304.38999999999999</ele>
        <time>2025-05-18T13:19:12Z</time>
      </trkpt>
      <trkpt lat="43.661262961104512" lon="6.924759009853005">
        <ele>305.36000000000001</ele>
        <time>2025-05-18T13:19:13Z</time>
      </trkpt>
      <trkpt lat="43.661032039672136" lon="6.925150025635958">
        <ele>306.31999999999999</ele>
        <time>2025-05-18T13:19:18Z</time>
      </trkpt>
      <trkpt lat="43.660986023023725" lon="6.925223032012582">
        <ele>306.31999999999999</ele>
        <time>2025-05-18T13:19:19Z</time>
      </trkpt>
      <trkpt lat="43.660940006375313" lon="6.925293020904064">
        <ele>305.83999999999997</ele>
        <time>2025-05-18T13:19:20Z</time>
      </trkpt>
      <trkpt lat="43.660856019705534" lon="6.925352029502392">
        <ele>305.36000000000001</ele>
        <time>2025-05-18T13:19:21Z</time>
      </trkpt>
      <trkpt lat="43.660787036642432" lon="6.92537197843194">
        <ele>304.88</ele>
        <time>2025-05-18T13:19:22Z</time>
      </trkpt>
      <trkpt lat="43.660713024437428" lon="6.925394022837281">
        <ele>304.88</ele>
        <time>2025-05-18T13:19:23Z</time>
      </trkpt>
      <trkpt lat="43.660279009491205" lon="6.925506005063653">
        <ele>302.94999999999999</ele>
        <time>2025-05-18T13:19:29Z</time>
      </trkpt>
      <trkpt lat="43.660025959834456" lon="6.925616981461644">
        <ele>301.99000000000001</ele>
        <time>2025-05-18T13:19:33Z</time>
      </trkpt>
      <trkpt lat="43.65988296456635" lon="6.925721000880003">
        <ele>301.50999999999999</ele>
        <time>2025-05-18T13:19:34Z</time>
      </trkpt>
      <trkpt lat="43.65988296456635" lon="6.925721000880003">
        <ele>301.50999999999999</ele>
        <time>2025-05-18T13:19:35Z</time>
      </trkpt>
      <trkpt lat="43.659714991226792" lon="6.925856033340097">
        <ele>301.50999999999999</ele>
        <time>2025-05-18T13:19:38Z</time>
      </trkpt>
      <trkpt lat="43.65964500233531" lon="6.925911018624902">
        <ele>301.02999999999997</ele>
        <time>2025-05-18T13:19:39Z</time>
      </trkpt>
      <trkpt lat="43.659561015665531" lon="6.925978995859623">
        <ele>301.02999999999997</ele>
        <time>2025-05-18T13:19:40Z</time>
      </trkpt>
      <trkpt lat="43.659561015665531" lon="6.925978995859623">
        <ele>300.55000000000001</ele>
        <time>2025-05-18T13:19:41Z</time>
      </trkpt>
      <trkpt lat="43.659403016790748" lon="6.926000034436584">
        <ele>300.55000000000001</ele>
        <time>2025-05-18T13:19:42Z</time>
      </trkpt>
      <trkpt lat="43.659330010414124" lon="6.926010008901358">
        <ele>300.06999999999999</ele>
        <time>2025-05-18T13:19:43Z</time>
      </trkpt>
      <trkpt lat="43.659035973250866" lon="6.926028029993177">
        <ele>298.63</ele>
        <time>2025-05-18T13:19:47Z</time>
      </trkpt>
      <trkpt lat="43.658953998237848" lon="6.926003973931074">
        <ele>298.14999999999998</ele>
        <time>2025-05-18T13:19:48Z</time>
      </trkpt>
      <trkpt lat="43.658846961334348" lon="6.925937002524734">
        <ele>297.67000000000002</ele>
        <time>2025-05-18T13:19:50Z</time>
      </trkpt>
      <trkpt lat="43.658802034333348" lon="6.925912024453282">
        <ele>297.18000000000001</ele>
        <time>2025-05-18T13:19:51Z</time>
      </trkpt>
      <trkpt lat="43.658748976886272" lon="6.925892997533083">
        <ele>296.69999999999999</ele>
        <time>2025-05-18T13:19:52Z</time>
      </trkpt>
      <trkpt lat="43.658689968287945" lon="6.925871958956122">
        <ele>296.69999999999999</ele>
        <time>2025-05-18T13:19:53Z</time>
      </trkpt>
      <trkpt lat="43.658629031851888" lon="6.925851004198194">
        <ele>296.69999999999999</ele>
        <time>2025-05-18T13:19:54Z</time>
      </trkpt>
      <trkpt lat="43.658487964421511" lon="6.92580096423626">
        <ele>296.22000000000003</ele>
        <time>2025-05-18T13:19:56Z</time>
      </trkpt>
      <trkpt lat="43.658418981358409" lon="6.925776991993189">
        <ele>296.22000000000003</ele>
        <time>2025-05-18T13:19:57Z</time>
      </trkpt>
      <trkpt lat="43.658284032717347" lon="6.925728963688016">
        <ele>296.22000000000003</ele>
        <time>2025-05-18T13:19:59Z</time>
      </trkpt>
      <trkpt lat="43.658158974722028" lon="6.925684958696365">
        <ele>296.22000000000003</ele>
        <time>2025-05-18T13:20:01Z</time>
      </trkpt>
      <trkpt lat="43.658025031909347" lon="6.925639025866985">
        <ele>296.69999999999999</ele>
        <time>2025-05-18T13:20:03Z</time>
      </trkpt>
      <trkpt lat="43.657611971721053" lon="6.925452025607228">
        <ele>297.18000000000001</ele>
        <time>2025-05-18T13:20:09Z</time>
      </trkpt>
      <trkpt lat="43.657546006143093" lon="6.925396034494042">
        <ele>297.18000000000001</ele>
        <time>2025-05-18T13:20:10Z</time>
      </trkpt>
      <trkpt lat="43.657490015029907" lon="6.92532503977418">
        <ele>297.67000000000002</ele>
        <time>2025-05-18T13:20:11Z</time>
      </trkpt>
      <trkpt lat="43.657378032803535" lon="6.925182966515422">
        <ele>298.14999999999998</ele>
        <time>2025-05-18T13:20:13Z</time>
      </trkpt>
      <trkpt lat="43.657326987013221" lon="6.925109038129449">
        <ele>298.14999999999998</ele>
        <time>2025-05-18T13:20:14Z</time>
      </trkpt>
      <trkpt lat="43.657304020598531" lon="6.925020022317767">
        <ele>298.14999999999998</ele>
        <time>2025-05-18T13:20:15Z</time>
      </trkpt>
      <trkpt lat="43.657287005335093" lon="6.924917008727789">
        <ele>298.63</ele>
        <time>2025-05-18T13:20:16Z</time>
      </trkpt>
      <trkpt lat="43.657287005335093" lon="6.924821035936475">
        <ele>298.63</ele>
        <time>2025-05-18T13:20:17Z</time>
      </trkpt>
      <trkpt lat="43.657287005335093" lon="6.924734031781554">
        <ele>298.63</ele>
        <time>2025-05-18T13:20:18Z</time>
      </trkpt>
      <trkpt lat="43.657307960093021" lon="6.924619032070041">
        <ele>298.14999999999998</ele>
        <time>2025-05-18T13:20:19Z</time>
      </trkpt>
      <trkpt lat="43.65732598118484" lon="6.924524987116456">
        <ele>298.14999999999998</ele>
        <time>2025-05-18T13:20:20Z</time>
      </trkpt>
      <trkpt lat="43.657344002276659" lon="6.924428008496761">
        <ele>297.67000000000002</ele>
        <time>2025-05-18T13:20:21Z</time>
      </trkpt>
      <trkpt lat="43.657362023368478" lon="6.92433899268508">
        <ele>297.18000000000001</ele>
        <time>2025-05-18T13:20:22Z</time>
      </trkpt>
      <trkpt lat="43.657379960641265" lon="6.924257017672062">
        <ele>296.69999999999999</ele>
        <time>2025-05-18T13:20:23Z</time>
      </trkpt>
      <trkpt lat="43.657395970076323" lon="6.924179987981916">
        <ele>296.69999999999999</ele>
        <time>2025-05-18T13:20:24Z</time>
      </trkpt>
      <trkpt lat="43.657410973683" lon="6.924109999090433">
        <ele>296.22000000000003</ele>
        <time>2025-05-18T13:20:25Z</time>
      </trkpt>
      <trkpt lat="43.657480040565133" lon="6.924004973843694">
        <ele>296.22000000000003</ele>
        <time>2025-05-18T13:20:26Z</time>
      </trkpt>
      <trkpt lat="43.657472999766469" lon="6.92397303879261">
        <ele>295.74000000000001</ele>
        <time>2025-05-18T13:20:27Z</time>
      </trkpt>
      <trkpt lat="43.657350959256291" lon="6.923918975517154">
        <ele>295.74000000000001</ele>
        <time>2025-05-18T13:20:28Z</time>
      </trkpt>
      <trkpt lat="43.657349031418562" lon="6.923916963860393">
        <ele>295.25999999999999</ele>
        <time>2025-05-18T13:20:29Z</time>
      </trkpt>
      <trkpt lat="43.657301003113389" lon="6.923868013545871">
        <ele>294.77999999999997</ele>
        <time>2025-05-18T13:20:30Z</time>
      </trkpt>
      <trkpt lat="43.657248029485345" lon="6.923805987462401">
        <ele>294.77999999999997</ele>
        <time>2025-05-18T13:20:31Z</time>
      </trkpt>
      <trkpt lat="43.657192038372159" lon="6.923731975257397">
        <ele>294.30000000000001</ele>
        <time>2025-05-18T13:20:32Z</time>
      </trkpt>
      <trkpt lat="43.657143004238605" lon="6.92365100607276">
        <ele>293.81999999999999</ele>
        <time>2025-05-18T13:20:33Z</time>
      </trkpt>
      <trkpt lat="43.656802028417587" lon="6.923081958666444">
        <ele>292.38</ele>
        <time>2025-05-18T13:20:41Z</time>
      </trkpt>
      <trkpt lat="43.656802028417587" lon="6.923081958666444">
        <ele>292.38</ele>
        <time>2025-05-18T13:20:42Z</time>
      </trkpt>
      <trkpt lat="43.656685017049313" lon="6.922909962013364">
        <ele>291.89999999999998</ele>
        <time>2025-05-18T13:20:44Z</time>
      </trkpt>
      <trkpt lat="43.656639000400901" lon="6.922864029183984">
        <ele>291.89999999999998</ele>
        <time>2025-05-18T13:20:45Z</time>
      </trkpt>
      <trkpt lat="43.656589966267347" lon="6.922822035849094">
        <ele>291.89999999999998</ele>
        <time>2025-05-18T13:20:46Z</time>
      </trkpt>
      <trkpt lat="43.656536992639303" lon="6.922779958695173">
        <ele>292.38</ele>
        <time>2025-05-18T13:20:47Z</time>
      </trkpt>
      <trkpt lat="43.656478989869356" lon="6.922736037522554">
        <ele>292.86000000000001</ele>
        <time>2025-05-18T13:20:48Z</time>
      </trkpt>
      <trkpt lat="43.656416963785887" lon="6.92268599756062">
        <ele>292.86000000000001</ele>
        <time>2025-05-18T13:20:49Z</time>
      </trkpt>
      <trkpt lat="43.656347980722785" lon="6.922626988962293">
        <ele>293.33999999999997</ele>
        <time>2025-05-18T13:20:50Z</time>
      </trkpt>
      <trkpt lat="43.655889993533492" lon="6.922221975401044">
        <ele>293.33999999999997</ele>
        <time>2025-05-18T13:20:56Z</time>
      </trkpt>
      <trkpt lat="43.655737023800611" lon="6.92208300344646">
        <ele>292.86000000000001</ele>
        <time>2025-05-18T13:20:58Z</time>
      </trkpt>
      <trkpt lat="43.655288005247712" lon="6.921705985441804">
        <ele>293.33999999999997</ele>
        <time>2025-05-18T13:21:05Z</time>
      </trkpt>
      <trkpt lat="43.655222961679101" lon="6.921652005985379">
        <ele>293.81999999999999</ele>
        <time>2025-05-18T13:21:06Z</time>
      </trkpt>
      <trkpt lat="43.654665984213352" lon="6.921188989654183">
        <ele>292.86000000000001</ele>
        <time>2025-05-18T13:21:14Z</time>
      </trkpt>
      <trkpt lat="43.654599012807012" lon="6.921134004369378">
        <ele>292.38</ele>
        <time>2025-05-18T13:21:15Z</time>
      </trkpt>
      <trkpt lat="43.654132978990674" lon="6.920753968879581">
        <ele>288.05000000000001</ele>
        <time>2025-05-18T13:21:22Z</time>
      </trkpt>
      <trkpt lat="43.654058966785669" lon="6.920717004686594">
        <ele>287.56999999999999</ele>
        <time>2025-05-18T13:21:23Z</time>
      </trkpt>
      <trkpt lat="43.653988977894187" lon="6.920699989423156">
        <ele>287.08999999999997</ele>
        <time>2025-05-18T13:21:24Z</time>
      </trkpt>
      <trkpt lat="43.653901973739266" lon="6.920699989423156">
        <ele>286.61000000000001</ele>
        <time>2025-05-18T13:21:25Z</time>
      </trkpt>
      <trkpt lat="43.653829973191023" lon="6.920727984979749">
        <ele>286.61000000000001</ele>
        <time>2025-05-18T13:21:26Z</time>
      </trkpt>
      <trkpt lat="43.653769958764315" lon="6.920798979699612">
        <ele>286.13</ele>
        <time>2025-05-18T13:21:27Z</time>
      </trkpt>
      <trkpt lat="43.653708016499877" lon="6.920870980247855">
        <ele>286.13</ele>
        <time>2025-05-18T13:21:28Z</time>
      </trkpt>
      <trkpt lat="43.653190014883876" lon="6.921434998512268">
        <ele>285.17000000000002</ele>
        <time>2025-05-18T13:21:36Z</time>
      </trkpt>
      <trkpt lat="43.653117008507252" lon="6.921467017382383">
        <ele>285.17000000000002</ele>
        <time>2025-05-18T13:21:37Z</time>
      </trkpt>
      <trkpt lat="43.653038972988725" lon="6.921472968533635">
        <ele>285.17000000000002</ele>
        <time>2025-05-18T13:21:38Z</time>
      </trkpt>
      <trkpt lat="43.652963032945991" lon="6.921472968533635">
        <ele>285.17000000000002</ele>
        <time>2025-05-18T13:21:39Z</time>
      </trkpt>
      <trkpt lat="43.65287896245718" lon="6.921476991847158">
        <ele>285.64999999999998</ele>
        <time>2025-05-18T13:21:40Z</time>
      </trkpt>
      <trkpt lat="43.652798999100924" lon="6.921487972140312">
        <ele>285.64999999999998</ele>
        <time>2025-05-18T13:21:41Z</time>
      </trkpt>
      <trkpt lat="43.652718029916286" lon="6.921499958261848">
        <ele>286.61000000000001</ele>
        <time>2025-05-18T13:21:42Z</time>
      </trkpt>
      <trkpt lat="43.652635971084237" lon="6.921512028202415">
        <ele>287.08999999999997</ele>
        <time>2025-05-18T13:21:43Z</time>
      </trkpt>
      <trkpt lat="43.652559025213122" lon="6.921558966860175">
        <ele>287.56999999999999</ele>
        <time>2025-05-18T13:21:44Z</time>
      </trkpt>
      <trkpt lat="43.652490964159369" lon="6.921617975458503">
        <ele>288.05000000000001</ele>
        <time>2025-05-18T13:21:45Z</time>
      </trkpt>
      <trkpt lat="43.652359033003449" lon="6.921731969341636">
        <ele>289.00999999999999</ele>
        <time>2025-05-18T13:21:47Z</time>
      </trkpt>
      <trkpt lat="43.652293989434838" lon="6.921788966283202">
        <ele>289.97000000000003</ele>
        <time>2025-05-18T13:21:48Z</time>
      </trkpt>
      <trkpt lat="43.652040017768741" lon="6.922008991241455">
        <ele>291.89999999999998</ele>
        <time>2025-05-18T13:21:52Z</time>
      </trkpt>
      <trkpt lat="43.651828961446881" lon="6.922110999003053">
        <ele>292.86000000000001</ele>
        <time>2025-05-18T13:21:55Z</time>
      </trkpt>
      <trkpt lat="43.651682026684284" lon="6.922151986509562">
        <ele>292.86000000000001</ele>
        <time>2025-05-18T13:21:57Z</time>
      </trkpt>
      <trkpt lat="43.651616983115673" lon="6.92217000760138">
        <ele>292.86000000000001</ele>
        <time>2025-05-18T13:21:58Z</time>
      </trkpt>
      <trkpt lat="43.651211969554424" lon="6.922120973467827">
        <ele>292.38</ele>
        <time>2025-05-18T13:22:04Z</time>
      </trkpt>
      <trkpt lat="43.651147009804845" lon="6.922104964032769">
        <ele>292.86000000000001</ele>
        <time>2025-05-18T13:22:05Z</time>
      </trkpt>
      <trkpt lat="43.651066040620208" lon="6.922094989567995">
        <ele>293.33999999999997</ele>
        <time>2025-05-18T13:22:06Z</time>
      </trkpt>
      <trkpt lat="43.650996973738074" lon="6.922094989567995">
        <ele>293.33999999999997</ele>
        <time>2025-05-18T13:22:07Z</time>
      </trkpt>
      <trkpt lat="43.650935031473637" lon="6.922094989567995">
        <ele>293.81999999999999</ele>
        <time>2025-05-18T13:22:08Z</time>
      </trkpt>
      <trkpt lat="43.65085699595511" lon="6.922130025923252">
        <ele>293.81999999999999</ele>
        <time>2025-05-18T13:22:09Z</time>
      </trkpt>
      <trkpt lat="43.650795975700021" lon="6.922157015651465">
        <ele>294.30000000000001</ele>
        <time>2025-05-18T13:22:10Z</time>
      </trkpt>
      <trkpt lat="43.650709977373481" lon="6.922132037580013">
        <ele>294.77999999999997</ele>
        <time>2025-05-18T13:22:11Z</time>
      </trkpt>
      <trkpt lat="43.650655997917056" lon="6.922051990404725">
        <ele>295.25999999999999</ele>
        <time>2025-05-18T13:22:12Z</time>
      </trkpt>
      <trkpt lat="43.650604030117393" lon="6.922058025375009">
        <ele>295.25999999999999</ele>
        <time>2025-05-18T13:22:13Z</time>
      </trkpt>
      <trkpt lat="43.650542004033923" lon="6.922065988183022">
        <ele>295.74000000000001</ele>
        <time>2025-05-18T13:22:14Z</time>
      </trkpt>
      <trkpt lat="43.650485007092357" lon="6.922073028981686">
        <ele>295.74000000000001</ele>
        <time>2025-05-18T13:22:15Z</time>
      </trkpt>
      <trkpt lat="43.650424992665648" lon="6.922147963196039">
        <ele>295.74000000000001</ele>
        <time>2025-05-18T13:22:16Z</time>
      </trkpt>
      <trkpt lat="43.650399008765817" lon="6.922180987894535">
        <ele>295.74000000000001</ele>
        <time>2025-05-18T13:22:17Z</time>
      </trkpt>
      <trkpt lat="43.650399008765817" lon="6.922303028404713">
        <ele>295.25999999999999</ele>
        <time>2025-05-18T13:22:18Z</time>
      </trkpt>
      <trkpt lat="43.650249978527427" lon="6.922562029212713">
        <ele>294.30000000000001</ele>
        <time>2025-05-18T13:22:20Z</time>
      </trkpt>
      <trkpt lat="43.649519998580217" lon="6.923312963917851">
        <ele>288.52999999999997</ele>
        <time>2025-05-18T13:22:28Z</time>
      </trkpt>
      <trkpt lat="43.649090006947517" lon="6.923812022432685">
        <ele>282.76999999999998</ele>
        <time>2025-05-18T13:22:33Z</time>
      </trkpt>
      <trkpt lat="43.649050025269389" lon="6.923930961638689">
        <ele>281.31999999999999</ele>
        <time>2025-05-18T13:22:34Z</time>
      </trkpt>
      <trkpt lat="43.649006020277739" lon="6.924062976613641">
        <ele>280.36000000000001</ele>
        <time>2025-05-18T13:22:35Z</time>
      </trkpt>
      <trkpt lat="43.64875003695488" lon="6.925204005092382">
        <ele>274.11000000000001</ele>
        <time>2025-05-18T13:22:43Z</time>
      </trkpt>
      <trkpt lat="43.648690022528172" lon="6.925483038648963">
        <ele>272.67000000000002</ele>
        <time>2025-05-18T13:22:45Z</time>
      </trkpt>
      <trkpt lat="43.648659009486437" lon="6.92562703974545">
        <ele>272.19</ele>
        <time>2025-05-18T13:22:46Z</time>
      </trkpt>
      <trkpt lat="43.648586003109813" lon="6.92595100030303">
        <ele>271.23000000000002</ele>
        <time>2025-05-18T13:22:48Z</time>
      </trkpt>
      <trkpt lat="43.648416018113494" lon="6.926533039659262">
        <ele>269.31</ele>
        <time>2025-05-18T13:22:52Z</time>
      </trkpt>
      <trkpt lat="43.64836597815156" lon="6.926676034927368">
        <ele>268.82999999999998</ele>
        <time>2025-05-18T13:22:53Z</time>
      </trkpt>
      <trkpt lat="43.648296995088458" lon="6.926802014932036">
        <ele>267.86000000000001</ele>
        <time>2025-05-18T13:22:54Z</time>
      </trkpt>
      <trkpt lat="43.647819980978966" lon="6.927695022895932">
        <ele>262.10000000000002</ele>
        <time>2025-05-18T13:23:01Z</time>
      </trkpt>
      <trkpt lat="43.64780698902905" lon="6.927846986800432">
        <ele>261.13999999999999</ele>
        <time>2025-05-18T13:23:02Z</time>
      </trkpt>
      <trkpt lat="43.647792991250753" lon="6.928003979846835">
        <ele>260.17000000000002</ele>
        <time>2025-05-18T13:23:03Z</time>
      </trkpt>
      <trkpt lat="43.64778502844274" lon="6.928158039227128">
        <ele>258.73000000000002</ele>
        <time>2025-05-18T13:23:04Z</time>
      </trkpt>
      <trkpt lat="43.647836996242404" lon="6.928302040323615">
        <ele>257.76999999999998</ele>
        <time>2025-05-18T13:23:05Z</time>
      </trkpt>
      <trkpt lat="43.647887958213687" lon="6.928446041420102">
        <ele>256.32999999999998</ele>
        <time>2025-05-18T13:23:06Z</time>
      </trkpt>
      <trkpt lat="43.647968005388975" lon="6.92857101559639">
        <ele>254.41</ele>
        <time>2025-05-18T13:23:07Z</time>
      </trkpt>
      <trkpt lat="43.648049980401993" lon="6.928699007257819">
        <ele>252.96000000000001</ele>
        <time>2025-05-18T13:23:08Z</time>
      </trkpt>
      <trkpt lat="43.648132961243391" lon="6.928824987262487">
        <ele>251.52000000000001</ele>
        <time>2025-05-18T13:23:09Z</time>
      </trkpt>
      <trkpt lat="43.648455999791622" lon="6.929340977221727">
        <ele>245.75</ele>
        <time>2025-05-18T13:23:13Z</time>
      </trkpt>
      <trkpt lat="43.64858197979629" lon="6.929789995774627">
        <ele>241.91</ele>
        <time>2025-05-18T13:23:16Z</time>
      </trkpt>
      <trkpt lat="43.648591032251716" lon="6.929956041276455">
        <ele>240.94999999999999</ele>
        <time>2025-05-18T13:23:17Z</time>
      </trkpt>
      <trkpt lat="43.648600000888109" lon="6.930124014616013">
        <ele>239.50999999999999</ele>
        <time>2025-05-18T13:23:18Z</time>
      </trkpt>
      <trkpt lat="43.648664960637689" lon="6.930937981233001">
        <ele>233.74000000000001</ele>
        <time>2025-05-18T13:23:23Z</time>
      </trkpt>
      <trkpt lat="43.648721035569906" lon="6.931081982329488">
        <ele>232.78</ele>
        <time>2025-05-18T13:23:24Z</time>
      </trkpt>
      <trkpt lat="43.648778032511473" lon="6.931226989254355">
        <ele>231.33000000000001</ele>
        <time>2025-05-18T13:23:25Z</time>
      </trkpt>
      <trkpt lat="43.648851038888097" lon="6.931354980915785">
        <ele>230.84999999999999</ele>
        <time>2025-05-18T13:23:26Z</time>
      </trkpt>
      <trkpt lat="43.648931002244353" lon="6.931480960920453">
        <ele>229.41</ele>
        <time>2025-05-18T13:23:27Z</time>
      </trkpt>
      <trkpt lat="43.64900903776288" lon="6.931605013087392">
        <ele>228.93000000000001</ele>
        <time>2025-05-18T13:23:28Z</time>
      </trkpt>
      <trkpt lat="43.649077014997602" lon="6.931739039719105">
        <ele>228.44999999999999</ele>
        <time>2025-05-18T13:23:29Z</time>
      </trkpt>
      <trkpt lat="43.649111967533827" lon="6.931883962824941">
        <ele>227.49000000000001</ele>
        <time>2025-05-18T13:23:30Z</time>
      </trkpt>
      <trkpt lat="43.6491409689188" lon="6.932026958093047">
        <ele>226.53</ele>
        <time>2025-05-18T13:23:31Z</time>
      </trkpt>
      <trkpt lat="43.649153960868716" lon="6.932180011644959">
        <ele>226.05000000000001</ele>
        <time>2025-05-18T13:23:32Z</time>
      </trkpt>
      <trkpt lat="43.649145998060703" lon="6.932344967499375">
        <ele>225.09</ele>
        <time>2025-05-18T13:23:33Z</time>
      </trkpt>
      <trkpt lat="43.649126971140504" lon="6.932511013001204">
        <ele>224.12</ele>
        <time>2025-05-18T13:23:34Z</time>
      </trkpt>
      <trkpt lat="43.648893032222986" lon="6.933829989284277">
        <ele>216.43000000000001</ele>
        <time>2025-05-18T13:23:42Z</time>
      </trkpt>
      <trkpt lat="43.648864030838013" lon="6.933982037007809">
        <ele>215.94999999999999</ele>
        <time>2025-05-18T13:23:43Z</time>
      </trkpt>
      <trkpt lat="43.648834023624659" lon="6.934141963720322">
        <ele>214.99000000000001</ele>
        <time>2025-05-18T13:23:44Z</time>
      </trkpt>
      <trkpt lat="43.648739978671074" lon="6.934649990871549">
        <ele>212.11000000000001</ele>
        <time>2025-05-18T13:23:47Z</time>
      </trkpt>
      <trkpt lat="43.64853898063302" lon="6.935628997161984">
        <ele>206.34</ele>
        <time>2025-05-18T13:23:53Z</time>
      </trkpt>
      <trkpt lat="43.648489024490118" lon="6.935781966894865">
        <ele>205.38</ele>
        <time>2025-05-18T13:23:54Z</time>
      </trkpt>
      <trkpt lat="43.648416018113494" lon="6.935913981869817">
        <ele>204.90000000000001</ele>
        <time>2025-05-18T13:23:55Z</time>
      </trkpt>
      <trkpt lat="43.648329013958573" lon="6.936030993238092">
        <ele>203.94</ele>
        <time>2025-05-18T13:23:56Z</time>
      </trkpt>
      <trkpt lat="43.648234969004989" lon="6.936124032363296">
        <ele>202.97999999999999</ele>
        <time>2025-05-18T13:23:57Z</time>
      </trkpt>
      <trkpt lat="43.648114018142223" lon="6.936174994334579">
        <ele>202.49000000000001</ele>
        <time>2025-05-18T13:23:58Z</time>
      </trkpt>
      <trkpt lat="43.647993989288807" lon="6.936206007376313">
        <ele>201.53</ele>
        <time>2025-05-18T13:23:59Z</time>
      </trkpt>
      <trkpt lat="43.647874966263771" lon="6.936238026246429">
        <ele>201.05000000000001</ele>
        <time>2025-05-18T13:24:00Z</time>
      </trkpt>
      <trkpt lat="43.647522004321218" lon="6.936330981552601">
        <ele>198.65000000000001</ele>
        <time>2025-05-18T13:24:03Z</time>
      </trkpt>
      <trkpt lat="43.647425025701523" lon="6.936408011242747">
        <ele>197.69</ele>
        <time>2025-05-18T13:24:04Z</time>
      </trkpt>
      <trkpt lat="43.647344978526235" lon="6.936513958498836">
        <ele>197.21000000000001</ele>
        <time>2025-05-18T13:24:05Z</time>
      </trkpt>
      <trkpt lat="43.647300973534584" lon="6.936644967645407">
        <ele>196.72999999999999</ele>
        <time>2025-05-18T13:24:06Z</time>
      </trkpt>
      <trkpt lat="43.647286975756288" lon="6.936804978176951">
        <ele>196.25</ele>
        <time>2025-05-18T13:24:07Z</time>
      </trkpt>
      <trkpt lat="43.647317988798022" lon="6.936975969001651">
        <ele>196.25</ele>
        <time>2025-05-18T13:24:08Z</time>
      </trkpt>
      <trkpt lat="43.647390995174646" lon="6.937094992026687">
        <ele>195.77000000000001</ele>
        <time>2025-05-18T13:24:09Z</time>
      </trkpt>
      <trkpt lat="43.647476993501186" lon="6.937202028930187">
        <ele>194.80000000000001</ele>
        <time>2025-05-18T13:24:10Z</time>
      </trkpt>
      <trkpt lat="43.647566009312868" lon="6.937314011156559">
        <ele>193.84</ele>
        <time>2025-05-18T13:24:11Z</time>
      </trkpt>
      <trkpt lat="43.64765603095293" lon="6.937425993382931">
        <ele>192.88</ele>
        <time>2025-05-18T13:24:12Z</time>
      </trkpt>
      <trkpt lat="43.647726019844413" lon="6.937554990872741">
        <ele>191.44</ele>
        <time>2025-05-18T13:24:13Z</time>
      </trkpt>
      <trkpt lat="43.647755021229386" lon="6.937719024717808">
        <ele>190</ele>
        <time>2025-05-18T13:24:14Z</time>
      </trkpt>
      <trkpt lat="43.647779999300838" lon="6.937868976965547">
        <ele>188.56</ele>
        <time>2025-05-18T13:24:15Z</time>
      </trkpt>
      <trkpt lat="43.647748986259103" lon="6.938027981668711">
        <ele>187.11000000000001</ele>
        <time>2025-05-18T13:24:16Z</time>
      </trkpt>
      <trkpt lat="43.647728031501174" lon="6.938196960836649">
        <ele>185.66999999999999</ele>
        <time>2025-05-18T13:24:17Z</time>
      </trkpt>
      <trkpt lat="43.647632980719209" lon="6.938688978552818">
        <ele>181.83000000000001</ele>
        <time>2025-05-18T13:24:20Z</time>
      </trkpt>
      <trkpt lat="43.647598028182983" lon="6.938826022669673">
        <ele>180.87</ele>
        <time>2025-05-18T13:24:21Z</time>
      </trkpt>
      <trkpt lat="43.647511024028063" lon="6.938942028209567">
        <ele>179.41999999999999</ele>
        <time>2025-05-18T13:24:22Z</time>
      </trkpt>
      <trkpt lat="43.647413039579988" lon="6.939030038192868">
        <ele>177.97999999999999</ele>
        <time>2025-05-18T13:24:23Z</time>
      </trkpt>
      <trkpt lat="43.647296028211713" lon="6.939093992114067">
        <ele>176.53999999999999</ele>
        <time>2025-05-18T13:24:24Z</time>
      </trkpt>
      <trkpt lat="43.647177005186677" lon="6.939107989892364">
        <ele>175.58000000000001</ele>
        <time>2025-05-18T13:24:25Z</time>
      </trkpt>
      <trkpt lat="43.647053958848119" lon="6.939123999327421">
        <ele>174.13999999999999</ele>
        <time>2025-05-18T13:24:26Z</time>
      </trkpt>
      <trkpt lat="43.646930996328592" lon="6.939139002934098">
        <ele>173.16999999999999</ele>
        <time>2025-05-18T13:24:27Z</time>
      </trkpt>
      <trkpt lat="43.646443001925945" lon="6.939211003482342">
        <ele>169.81</ele>
        <time>2025-05-18T13:24:31Z</time>
      </trkpt>
      <trkpt lat="43.646323978900909" lon="6.939231958240271">
        <ele>168.84999999999999</ele>
        <time>2025-05-18T13:24:32Z</time>
      </trkpt>
      <trkpt lat="43.646082999184728" lon="6.939275041222572">
        <ele>167.88999999999999</ele>
        <time>2025-05-18T13:24:34Z</time>
      </trkpt>
      <trkpt lat="43.645964981988072" lon="6.939312005415559">
        <ele>167.41</ele>
        <time>2025-05-18T13:24:35Z</time>
      </trkpt>
      <trkpt lat="43.645846964791417" lon="6.939367996528745">
        <ele>166.44999999999999</ele>
        <time>2025-05-18T13:24:36Z</time>
      </trkpt>
      <trkpt lat="43.645251011475921" lon="6.940075010061264">
        <ele>164.03999999999999</ele>
        <time>2025-05-18T13:24:44Z</time>
      </trkpt>
      <trkpt lat="43.645202983170748" lon="6.940137958154082">
        <ele>163.56</ele>
        <time>2025-05-18T13:24:45Z</time>
      </trkpt>
      <trkpt lat="43.645202983170748" lon="6.940137958154082">
        <ele>163.56</ele>
        <time>2025-05-18T13:24:46Z</time>
      </trkpt>
      <trkpt lat="43.64496803842485" lon="6.940191015601158">
        <ele>164.03999999999999</ele>
        <time>2025-05-18T13:24:48Z</time>
      </trkpt>
      <trkpt lat="43.64490601234138" lon="6.940269973129034">
        <ele>164.52000000000001</ele>
        <time>2025-05-18T13:24:50Z</time>
      </trkpt>
      <trkpt lat="43.644147031009197" lon="6.941455006599426">
        <ele>171.25</ele>
        <time>2025-05-18T13:25:01Z</time>
      </trkpt>
      <trkpt lat="43.643989032134414" lon="6.941659022122622">
        <ele>172.69</ele>
        <time>2025-05-18T13:25:03Z</time>
      </trkpt>
      <trkpt lat="43.643900016322732" lon="6.941747032105923">
        <ele>172.69</ele>
        <time>2025-05-18T13:25:04Z</time>
      </trkpt>
      <trkpt lat="43.643798008561134" lon="6.941802017390728">
        <ele>173.16999999999999</ele>
        <time>2025-05-18T13:25:05Z</time>
      </trkpt>
      <trkpt lat="43.643690971657634" lon="6.941843004897237">
        <ele>173.16999999999999</ele>
        <time>2025-05-18T13:25:06Z</time>
      </trkpt>
      <trkpt lat="43.643583012744784" lon="6.941884998232126">
        <ele>173.66</ele>
        <time>2025-05-18T13:25:07Z</time>
      </trkpt>
      <trkpt lat="43.643476981669664" lon="6.941925985738635">
        <ele>173.16999999999999</ele>
        <time>2025-05-18T13:25:08Z</time>
      </trkpt>
      <trkpt lat="43.643153021112084" lon="6.942017013207078">
        <ele>172.69</ele>
        <time>2025-05-18T13:25:11Z</time>
      </trkpt>
      <trkpt lat="43.642673995345831" lon="6.942093037068844">
        <ele>171.25</ele>
        <time>2025-05-18T13:25:16Z</time>
      </trkpt>
      <trkpt lat="43.642597971484065" lon="6.942104017361999">
        <ele>170.77000000000001</ele>
        <time>2025-05-18T13:25:17Z</time>
      </trkpt>
      <trkpt lat="43.642523037269711" lon="6.942114997655153">
        <ele>170.77000000000001</ele>
        <time>2025-05-18T13:25:18Z</time>
      </trkpt>
      <trkpt lat="43.642458999529481" lon="6.942151039838791">
        <ele>170.77000000000001</ele>
        <time>2025-05-18T13:25:19Z</time>
      </trkpt>
      <trkpt lat="43.642385993152857" lon="6.942240977659822">
        <ele>170.77000000000001</ele>
        <time>2025-05-18T13:25:20Z</time>
      </trkpt>
      <trkpt lat="43.642293037846684" lon="6.942292023450136">
        <ele>170.77000000000001</ele>
        <time>2025-05-18T13:25:21Z</time>
      </trkpt>
      <trkpt lat="43.642194969579577" lon="6.94232395850122">
        <ele>171.25</ele>
        <time>2025-05-18T13:25:22Z</time>
      </trkpt>
      <trkpt lat="43.642083993181586" lon="6.942328987643123">
        <ele>171.25</ele>
        <time>2025-05-18T13:25:23Z</time>
      </trkpt>
      <trkpt lat="43.641866985708475" lon="6.942328987643123">
        <ele>171.72999999999999</ele>
        <time>2025-05-18T13:25:25Z</time>
      </trkpt>
      <trkpt lat="43.641761038452387" lon="6.942328987643123">
        <ele>172.21000000000001</ele>
        <time>2025-05-18T13:25:26Z</time>
      </trkpt>
      <trkpt lat="43.641087971627712" lon="6.94228095933795">
        <ele>172.69</ele>
        <time>2025-05-18T13:25:32Z</time>
      </trkpt>
      <trkpt lat="43.640635013580322" lon="6.942148022353649">
        <ele>172.21000000000001</ele>
        <time>2025-05-18T13:25:36Z</time>
      </trkpt>
      <trkpt lat="43.639302961528301" lon="6.941391974687576">
        <ele>173.66</ele>
        <time>2025-05-18T13:25:48Z</time>
      </trkpt>
      <trkpt lat="43.639155020937324" lon="6.941342018544674">
        <ele>173.66</ele>
        <time>2025-05-18T13:25:49Z</time>
      </trkpt>
      <trkpt lat="43.639070028439164" lon="6.941332966089249">
        <ele>174.13999999999999</ele>
        <time>2025-05-18T13:25:50Z</time>
      </trkpt>
      <trkpt lat="43.638205016031861" lon="6.941331960260868">
        <ele>175.58000000000001</ele>
        <time>2025-05-18T13:25:57Z</time>
      </trkpt>
      <trkpt lat="43.637952972203493" lon="6.941287033259869">
        <ele>175.58000000000001</ele>
        <time>2025-05-18T13:25:59Z</time>
      </trkpt>
      <trkpt lat="43.637738982215524" lon="6.941159963607788">
        <ele>175.09999999999999</ele>
        <time>2025-05-18T13:26:01Z</time>
      </trkpt>
      <trkpt lat="43.63764401525259" lon="6.941104978322983">
        <ele>175.09999999999999</ele>
        <time>2025-05-18T13:26:02Z</time>
      </trkpt>
      <trkpt lat="43.637589029967785" lon="6.941062984988093">
        <ele>174.62</ele>
        <time>2025-05-18T13:26:03Z</time>
      </trkpt>
      <trkpt lat="43.637417033314705" lon="6.940956031903625">
        <ele>174.13999999999999</ele>
        <time>2025-05-18T13:26:04Z</time>
      </trkpt>
      <trkpt lat="43.637410998344421" lon="6.940954020246863">
        <ele>174.13999999999999</ele>
        <time>2025-05-18T13:26:05Z</time>
      </trkpt>
      <trkpt lat="43.637331034988165" lon="6.94092602469027">
        <ele>173.66</ele>
        <time>2025-05-18T13:26:06Z</time>
      </trkpt>
      <trkpt lat="43.636838011443615" lon="6.940762996673584">
        <ele>172.21000000000001</ele>
        <time>2025-05-18T13:26:13Z</time>
      </trkpt>
      <trkpt lat="43.63676299341023" lon="6.940644979476929">
        <ele>172.21000000000001</ele>
        <time>2025-05-18T13:26:15Z</time>
      </trkpt>
      <trkpt lat="43.636704990640283" lon="6.940644979476929">
        <ele>172.69</ele>
        <time>2025-05-18T13:26:16Z</time>
      </trkpt>
      <trkpt lat="43.636670960113406" lon="6.940686972811818">
        <ele>172.69</ele>
        <time>2025-05-18T13:26:17Z</time>
      </trkpt>
      <trkpt lat="43.636660985648632" lon="6.940760985016823">
        <ele>172.69</ele>
        <time>2025-05-18T13:26:18Z</time>
      </trkpt>
      <trkpt lat="43.636685041710734" lon="6.940822005271912">
        <ele>173.16999999999999</ele>
        <time>2025-05-18T13:26:19Z</time>
      </trkpt>
      <trkpt lat="43.636727035045624" lon="6.940880008041859">
        <ele>173.16999999999999</ele>
        <time>2025-05-18T13:26:20Z</time>
      </trkpt>
      <trkpt lat="43.636755030602217" lon="6.940955026075244">
        <ele>172.69</ele>
        <time>2025-05-18T13:26:21Z</time>
      </trkpt>
      <trkpt lat="43.63676399923861" lon="6.941067008301616">
        <ele>172.69</ele>
        <time>2025-05-18T13:26:22Z</time>
      </trkpt>
      <trkpt lat="43.636771040037274" lon="6.94120698608458">
        <ele>172.69</ele>
        <time>2025-05-18T13:26:23Z</time>
      </trkpt>
      <trkpt lat="43.636746983975172" lon="6.941350987181068">
        <ele>172.69</ele>
        <time>2025-05-18T13:26:24Z</time>
      </trkpt>
      <trkpt lat="43.636470967903733" lon="6.942815976217389">
        <ele>166.93000000000001</ele>
        <time>2025-05-18T13:26:34Z</time>
      </trkpt>
      <trkpt lat="43.63633300177753" lon="6.943351998925209">
        <ele>165</ele>
        <time>2025-05-18T13:26:37Z</time>
      </trkpt>
      <trkpt lat="43.635633029043674" lon="6.944797961041331">
        <ele>159.72</ele>
        <time>2025-05-18T13:26:44Z</time>
      </trkpt>
      <trkpt lat="43.634674977511168" lon="6.945769004523754">
        <ele>153.94999999999999</ele>
        <time>2025-05-18T13:26:51Z</time>
      </trkpt>
      <trkpt lat="43.633968969807029" lon="6.946187010034919">
        <ele>150.09999999999999</ele>
        <time>2025-05-18T13:26:54Z</time>
      </trkpt>
      <trkpt lat="43.632326032966375" lon="6.946678021922708">
        <ele>139.05000000000001</ele>
        <time>2025-05-18T13:27:03Z</time>
      </trkpt>
      <trkpt lat="43.629944985732436" lon="6.947267018258572">
        <ele>127.98999999999999</ele>
        <time>2025-05-18T13:27:16Z</time>
      </trkpt>
      <trkpt lat="43.627605009824038" lon="6.94788702763617">
        <ele>121.26000000000001</ele>
        <time>2025-05-18T13:27:28Z</time>
      </trkpt>
      <trkpt lat="43.625726038590074" lon="6.948165977373719">
        <ele>115.5</ele>
        <time>2025-05-18T13:27:39Z</time>
      </trkpt>
      <trkpt lat="43.623904986307025" lon="6.947707990184426">
        <ele>107.31999999999999</ele>
        <time>2025-05-18T13:27:47Z</time>
      </trkpt>
      <trkpt lat="43.621946973726153" lon="6.946545001119375">
        <ele>96.269999999999996</ele>
        <time>2025-05-18T13:27:57Z</time>
      </trkpt>
      <trkpt lat="43.621541038155556" lon="6.946388008072972">
        <ele>94.829999999999998</ele>
        <time>2025-05-18T13:27:59Z</time>
      </trkpt>
      <trkpt lat="43.620679965242743" lon="6.946234032511711">
        <ele>90.980000000000004</ele>
        <time>2025-05-18T13:28:03Z</time>
      </trkpt>
      <trkpt lat="43.620459018275142" lon="6.946249958127737">
        <ele>90.019999999999996</ele>
        <time>2025-05-18T13:28:04Z</time>
      </trkpt>
      <trkpt lat="43.620244022458792" lon="6.946309972554445">
        <ele>89.060000000000002</ele>
        <time>2025-05-18T13:28:05Z</time>
      </trkpt>
      <trkpt lat="43.620032966136932" lon="6.946394965052605">
        <ele>88.579999999999998</ele>
        <time>2025-05-18T13:28:06Z</time>
      </trkpt>
      <trkpt lat="43.619825011119246" lon="6.946483980864286">
        <ele>88.099999999999994</ele>
        <time>2025-05-18T13:28:07Z</time>
      </trkpt>
      <trkpt lat="43.619633987545967" lon="6.946623958647251">
        <ele>87.140000000000001</ele>
        <time>2025-05-18T13:28:08Z</time>
      </trkpt>
      <trkpt lat="43.619451010599732" lon="6.946787992492318">
        <ele>86.659999999999997</ele>
        <time>2025-05-18T13:28:09Z</time>
      </trkpt>
      <trkpt lat="43.619283959269524" lon="6.946979016065598">
        <ele>86.180000000000007</ele>
        <time>2025-05-18T13:28:10Z</time>
      </trkpt>
      <trkpt lat="43.619121015071869" lon="6.947167022153735">
        <ele>85.209999999999994</ele>
        <time>2025-05-18T13:28:11Z</time>
      </trkpt>
      <trkpt lat="43.618980031460524" lon="6.947386963292956">
        <ele>84.730000000000004</ele>
        <time>2025-05-18T13:28:12Z</time>
      </trkpt>
      <trkpt lat="43.61884499900043" lon="6.947611011564732">
        <ele>83.769999999999996</ele>
        <time>2025-05-18T13:28:13Z</time>
      </trkpt>
      <trkpt lat="43.617976969107985" lon="6.94954002276063">
        <ele>78.480000000000004</ele>
        <time>2025-05-18T13:28:21Z</time>
      </trkpt>
      <trkpt lat="43.617369029670954" lon="6.951910005882382">
        <ele>79.930000000000007</ele>
        <time>2025-05-18T13:28:30Z</time>
      </trkpt>
      <trkpt lat="43.616972984746099" lon="6.954649966210127">
        <ele>79.450000000000003</ele>
        <time>2025-05-18T13:28:40Z</time>
      </trkpt>
      <trkpt lat="43.616300001740456" lon="6.957494029775262">
        <ele>84.25</ele>
        <time>2025-05-18T13:28:51Z</time>
      </trkpt>
      <trkpt lat="43.615343039855361" lon="6.959795029833913">
        <ele>89.540000000000006</ele>
        <time>2025-05-18T13:29:00Z</time>
      </trkpt>
      <trkpt lat="43.614436034113169" lon="6.96187399327755">
        <ele>95.790000000000006</ele>
        <time>2025-05-18T13:29:08Z</time>
      </trkpt>
      <trkpt lat="43.613221999257803" lon="6.964670028537512">
        <ele>104.92</ele>
        <time>2025-05-18T13:29:19Z</time>
      </trkpt>
      <trkpt lat="43.612041994929314" lon="6.967378975823522">
        <ele>112.13</ele>
        <time>2025-05-18T13:29:30Z</time>
      </trkpt>
      <trkpt lat="43.610965004190803" lon="6.969711994752288">
        <ele>115.98</ele>
        <time>2025-05-18T13:29:39Z</time>
      </trkpt>
      <trkpt lat="43.609256017953157" lon="6.973449988290668">
        <ele>117.90000000000001</ele>
        <time>2025-05-18T13:29:53Z</time>
      </trkpt>
      <trkpt lat="43.60855202190578" lon="6.975100971758366">
        <ele>111.65000000000001</ele>
        <time>2025-05-18T13:29:59Z</time>
      </trkpt>
      <trkpt lat="43.607849031686783" lon="6.977673964574933">
        <ele>106.36</ele>
        <time>2025-05-18T13:30:08Z</time>
      </trkpt>
      <trkpt lat="43.607663959264755" lon="6.980343014001846">
        <ele>109.73</ele>
        <time>2025-05-18T13:30:17Z</time>
      </trkpt>
      <trkpt lat="43.607566980645061" lon="6.983698038384318">
        <ele>119.34</ele>
        <time>2025-05-18T13:30:29Z</time>
      </trkpt>
      <trkpt lat="43.607434965670109" lon="6.984791038557887">
        <ele>126.06999999999999</ele>
        <time>2025-05-18T13:30:33Z</time>
      </trkpt>
      <trkpt lat="43.607376962900162" lon="6.985071999952197">
        <ele>127.98999999999999</ele>
        <time>2025-05-18T13:30:34Z</time>
      </trkpt>
      <trkpt lat="43.607293982058764" lon="6.98533502407372">
        <ele>129.43000000000001</ele>
        <time>2025-05-18T13:30:35Z</time>
      </trkpt>
      <trkpt lat="43.606480015441775" lon="6.98709798976779">
        <ele>137.13</ele>
        <time>2025-05-18T13:30:42Z</time>
      </trkpt>
      <trkpt lat="43.605676023289561" lon="6.9889020267874">
        <ele>142.41</ele>
        <time>2025-05-18T13:30:50Z</time>
      </trkpt>
      <trkpt lat="43.604897009208798" lon="6.991484994068742">
        <ele>149.13999999999999</ele>
        <time>2025-05-18T13:31:01Z</time>
      </trkpt>
      <trkpt lat="43.604801036417484" lon="6.992328967899084">
        <ele>152.03</ele>
        <time>2025-05-18T13:31:04Z</time>
      </trkpt>
      <trkpt lat="43.604801036417484" lon="6.992614036425948">
        <ele>152.99000000000001</ele>
        <time>2025-05-18T13:31:05Z</time>
      </trkpt>
      <trkpt lat="43.604801036417484" lon="6.9928980153054">
        <ele>153.94999999999999</ele>
        <time>2025-05-18T13:31:06Z</time>
      </trkpt>
      <trkpt lat="43.605198003351688" lon="6.994973961263895">
        <ele>160.19999999999999</ele>
        <time>2025-05-18T13:31:14Z</time>
      </trkpt>
      <trkpt lat="43.605547025799751" lon="6.996457977220416">
        <ele>165.96000000000001</ele>
        <time>2025-05-18T13:31:20Z</time>
      </trkpt>
      <trkpt lat="43.605594970285892" lon="6.99700397439301">
        <ele>167.88999999999999</ele>
        <time>2025-05-18T13:31:22Z</time>
      </trkpt>
      <trkpt lat="43.605578038841486" lon="6.997289964929223">
        <ele>169.33000000000001</ele>
        <time>2025-05-18T13:31:23Z</time>
      </trkpt>
      <trkpt lat="43.605560017749667" lon="6.997573021799326">
        <ele>170.28999999999999</ele>
        <time>2025-05-18T13:31:24Z</time>
      </trkpt>
      <trkpt lat="43.605543002486229" lon="6.997858006507158">
        <ele>171.72999999999999</ele>
        <time>2025-05-18T13:31:25Z</time>
      </trkpt>
      <trkpt lat="43.605506960302591" lon="6.998137962073088">
        <ele>173.16999999999999</ele>
        <time>2025-05-18T13:31:26Z</time>
      </trkpt>
      <trkpt lat="43.605432026088238" lon="6.998408026993275">
        <ele>174.13999999999999</ele>
        <time>2025-05-18T13:31:27Z</time>
      </trkpt>
      <trkpt lat="43.605356002226472" lon="6.998675996437669">
        <ele>175.58000000000001</ele>
        <time>2025-05-18T13:31:28Z</time>
      </trkpt>
      <trkpt lat="43.60526698641479" lon="6.998929968103766">
        <ele>176.53999999999999</ele>
        <time>2025-05-18T13:31:29Z</time>
      </trkpt>
      <trkpt lat="43.605164978653193" lon="6.999163990840316">
        <ele>177.5</ele>
        <time>2025-05-18T13:31:30Z</time>
      </trkpt>
      <trkpt lat="43.605042016133666" lon="6.99938896112144">
        <ele>178.46000000000001</ele>
        <time>2025-05-18T13:31:31Z</time>
      </trkpt>
      <trkpt lat="43.603895036503673" lon="7.001099037006497">
        <ele>184.22999999999999</ele>
        <time>2025-05-18T13:31:39Z</time>
      </trkpt>
      <trkpt lat="43.60264697112143" lon="7.002213997766376">
        <ele>184.71000000000001</ele>
        <time>2025-05-18T13:31:46Z</time>
      </trkpt>
      <trkpt lat="43.601289018988609" lon="7.002579029649496">
        <ele>178.94</ele>
        <time>2025-05-18T13:31:53Z</time>
      </trkpt>
      <trkpt lat="43.599446006119251" lon="7.002334026619792">
        <ele>165.47999999999999</ele>
        <time>2025-05-18T13:32:02Z</time>
      </trkpt>
      <trkpt lat="43.597860988229513" lon="7.001442024484277">
        <ele>153.47</ele>
        <time>2025-05-18T13:32:10Z</time>
      </trkpt>
      <trkpt lat="43.596129035577178" lon="7.000452037900686">
        <ele>141.93000000000001</ele>
        <time>2025-05-18T13:32:19Z</time>
      </trkpt>
      <trkpt lat="43.59533803537488" lon="7.000093962997198">
        <ele>137.13</ele>
        <time>2025-05-18T13:32:23Z</time>
      </trkpt>
      <trkpt lat="43.595139971002936" lon="7.000041995197535">
        <ele>135.68000000000001</ele>
        <time>2025-05-18T13:32:24Z</time>
      </trkpt>
      <trkpt lat="43.594933021813631" lon="6.99998902156949">
        <ele>134.72</ele>
        <time>2025-05-18T13:32:25Z</time>
      </trkpt>
      <trkpt lat="43.59329997561872" lon="6.999974017962813">
        <ele>123.67</ele>
        <time>2025-05-18T13:32:33Z</time>
      </trkpt>
      <trkpt lat="43.591168960556388" lon="7.000592015683651">
        <ele>114.05</ele>
        <time>2025-05-18T13:32:44Z</time>
      </trkpt>
      <trkpt lat="43.589578997343779" lon="7.001676969230175">
        <ele>112.13</ele>
        <time>2025-05-18T13:32:53Z</time>
      </trkpt>
      <trkpt lat="43.587894989177585" lon="7.003466002643108">
        <ele>118.38</ele>
        <time>2025-05-18T13:33:04Z</time>
      </trkpt>
      <trkpt lat="43.587079010903835" lon="7.004505023360252">
        <ele>126.06999999999999</ele>
        <time>2025-05-18T13:33:11Z</time>
      </trkpt>
      <trkpt lat="43.586774999275804" lon="7.004833007231355">
        <ele>130.40000000000001</ele>
        <time>2025-05-18T13:33:17Z</time>
      </trkpt>
      <trkpt lat="43.586754966527224" lon="7.004853961989284">
        <ele>132.31999999999999</ele>
        <time>2025-05-18T13:33:25Z</time>
      </trkpt>
      <trkpt lat="43.586515998467803" lon="7.005032999441028">
        <ele>135.68000000000001</ele>
        <time>2025-05-18T13:33:45Z</time>
      </trkpt>
      <trkpt lat="43.586367974057794" lon="7.005110029131174">
        <ele>137.61000000000001</ele>
        <time>2025-05-18T13:33:49Z</time>
      </trkpt>
      <trkpt lat="43.586367974057794" lon="7.005110029131174">
        <ele>137.61000000000001</ele>
        <time>2025-05-18T13:33:50Z</time>
      </trkpt>
      <trkpt lat="43.586235959082842" lon="7.005136013031006">
        <ele>138.09</ele>
        <time>2025-05-18T13:33:51Z</time>
      </trkpt>
      <trkpt lat="43.586077960208058" lon="7.005152022466064">
        <ele>138.56999999999999</ele>
        <time>2025-05-18T13:33:53Z</time>
      </trkpt>
      <trkpt lat="43.586007971316576" lon="7.005189992487431">
        <ele>139.05000000000001</ele>
        <time>2025-05-18T13:33:54Z</time>
      </trkpt>
      <trkpt lat="43.585933959111571" lon="7.0052520185709">
        <ele>139.05000000000001</ele>
        <time>2025-05-18T13:33:55Z</time>
      </trkpt>
      <trkpt lat="43.585863970220089" lon="7.005310021340847">
        <ele>139.05000000000001</ele>
        <time>2025-05-18T13:33:56Z</time>
      </trkpt>
      <trkpt lat="43.585790041834116" lon="7.005371963605285">
        <ele>139.53</ele>
        <time>2025-05-18T13:33:57Z</time>
      </trkpt>
      <trkpt lat="43.58577998355031" lon="7.005397025495768">
        <ele>139.53</ele>
        <time>2025-05-18T13:33:58Z</time>
      </trkpt>
      <trkpt lat="43.585770009085536" lon="7.005419991910458">
        <ele>139.53</ele>
        <time>2025-05-18T13:33:59Z</time>
      </trkpt>
      <trkpt lat="43.585770009085536" lon="7.005419991910458">
        <ele>139.53</ele>
        <time>2025-05-18T13:34:13Z</time>
      </trkpt>
      <trkpt lat="43.58573698438704" lon="7.005500961095095">
        <ele>139.53</ele>
        <time>2025-05-18T13:34:25Z</time>
      </trkpt>
      <trkpt lat="43.58562701381743" lon="7.005821987986565">
        <ele>139.05000000000001</ele>
        <time>2025-05-18T13:34:29Z</time>
      </trkpt>
      <trkpt lat="43.585594994947314" lon="7.006032960489392">
        <ele>139.05000000000001</ele>
        <time>2025-05-18T13:34:31Z</time>
      </trkpt>
      <trkpt lat="43.585574962198734" lon="7.006505029276013">
        <ele>138.56999999999999</ele>
        <time>2025-05-18T13:34:35Z</time>
      </trkpt>
      <trkpt lat="43.585544032976031" lon="7.006616005674005">
        <ele>138.56999999999999</ele>
        <time>2025-05-18T13:34:36Z</time>
      </trkpt>
      <trkpt lat="43.585511008277535" lon="7.006733017042279">
        <ele>138.56999999999999</ele>
        <time>2025-05-18T13:34:37Z</time>
      </trkpt>
      <trkpt lat="43.585472032427788" lon="7.006847010925412">
        <ele>138.09</ele>
        <time>2025-05-18T13:34:38Z</time>
      </trkpt>
      <trkpt lat="43.585422998294234" lon="7.006955975666642">
        <ele>138.09</ele>
        <time>2025-05-18T13:34:39Z</time>
      </trkpt>
      <trkpt lat="43.585381004959345" lon="7.007048008963466">
        <ele>137.61000000000001</ele>
        <time>2025-05-18T13:34:40Z</time>
      </trkpt>
      <trkpt lat="43.585118986666203" lon="7.007500967010856">
        <ele>135.68000000000001</ele>
        <time>2025-05-18T13:34:48Z</time>
      </trkpt>
      <trkpt lat="43.585085039958358" lon="7.007561987265945">
        <ele>135.68000000000001</ele>
        <time>2025-05-18T13:34:49Z</time>
      </trkpt>
      <trkpt lat="43.58504899777472" lon="7.007625019177795">
        <ele>135.19999999999999</ele>
        <time>2025-05-18T13:34:50Z</time>
      </trkpt>
      <trkpt lat="43.584582963958383" lon="7.008444014936686">
        <ele>130.40000000000001</ele>
        <time>2025-05-18T13:35:00Z</time>
      </trkpt>
      <trkpt lat="43.584453966468573" lon="7.008629003539681">
        <ele>128.94999999999999</ele>
        <time>2025-05-18T13:35:02Z</time>
      </trkpt>
      <trkpt lat="43.584094969555736" lon="7.00897098518908">
        <ele>124.63</ele>
        <time>2025-05-18T13:35:10Z</time>
      </trkpt>
      <trkpt lat="43.584064040333033" lon="7.008992023766041">
        <ele>122.22</ele>
        <time>2025-05-18T13:35:21Z</time>
      </trkpt>
      <trkpt lat="43.583689033985138" lon="7.009241972118616">
        <ele>119.34</ele>
        <time>2025-05-18T13:35:28Z</time>
      </trkpt>
      <trkpt lat="43.582612965255976" lon="7.009644974023104">
        <ele>117.42</ele>
        <time>2025-05-18T13:35:41Z</time>
      </trkpt>
      <trkpt lat="43.581599006429315" lon="7.010147972032428">
        <ele>115.5</ele>
        <time>2025-05-18T13:35:51Z</time>
      </trkpt>
      <trkpt lat="43.580238958820701" lon="7.01086001470685">
        <ele>108.77</ele>
        <time>2025-05-18T13:36:03Z</time>
      </trkpt>
      <trkpt lat="43.578757038339972" lon="7.011631987988949">
        <ele>100.11</ele>
        <time>2025-05-18T13:36:16Z</time>
      </trkpt>
      <trkpt lat="43.577201021835208" lon="7.012130962684751">
        <ele>93.390000000000001</ele>
        <time>2025-05-18T13:36:29Z</time>
      </trkpt>
      <trkpt lat="43.57540100812912" lon="7.012207992374897">
        <ele>83.290000000000006</ele>
        <time>2025-05-18T13:36:44Z</time>
      </trkpt>
      <trkpt lat="43.574555022642016" lon="7.012239005416632">
        <ele>78.480000000000004</ele>
        <time>2025-05-18T13:36:51Z</time>
      </trkpt>
      <trkpt lat="43.574439017102122" lon="7.012241017073393">
        <ele>78</ele>
        <time>2025-05-18T13:36:52Z</time>
      </trkpt>
      <trkpt lat="43.574077002704144" lon="7.012286027893424">
        <ele>75.120000000000005</ele>
        <time>2025-05-18T13:36:55Z</time>
      </trkpt>
      <trkpt lat="43.573262030258775" lon="7.012595990672708">
        <ele>69.829999999999998</ele>
        <time>2025-05-18T13:37:02Z</time>
      </trkpt>
      <trkpt lat="43.573130015283823" lon="7.012667991220951">
        <ele>69.349999999999994</ele>
        <time>2025-05-18T13:37:03Z</time>
      </trkpt>
      <trkpt lat="43.573032030835748" lon="7.01272901147604">
        <ele>69.349999999999994</ele>
        <time>2025-05-18T13:37:04Z</time>
      </trkpt>
      <trkpt lat="43.572366004809737" lon="7.013148022815585">
        <ele>67.430000000000007</ele>
        <time>2025-05-18T13:37:10Z</time>
      </trkpt>
      <trkpt lat="43.572258967906237" lon="7.013219017535448">
        <ele>66.950000000000003</ele>
        <time>2025-05-18T13:37:11Z</time>
      </trkpt>
      <trkpt lat="43.571058008819818" lon="7.014096016064286">
        <ele>65.510000000000005</ele>
        <time>2025-05-18T13:37:22Z</time>
      </trkpt>
      <trkpt lat="43.570769000798464" lon="7.0144700165838">
        <ele>65.030000000000001</ele>
        <time>2025-05-18T13:37:25Z</time>
      </trkpt>
      <trkpt lat="43.570457026362419" lon="7.014948958531022">
        <ele>64.549999999999997</ele>
        <time>2025-05-18T13:37:29Z</time>
      </trkpt>
      <trkpt lat="43.570378990843892" lon="7.015065969899297">
        <ele>64.069999999999993</ele>
        <time>2025-05-18T13:37:30Z</time>
      </trkpt>
      <trkpt lat="43.569927038624883" lon="7.015794022008777">
        <ele>62.619999999999997</ele>
        <time>2025-05-18T13:37:38Z</time>
      </trkpt>
      <trkpt lat="43.569697039201856" lon="7.016055034473538">
        <ele>62.140000000000001</ele>
        <time>2025-05-18T13:37:42Z</time>
      </trkpt>
      <trkpt lat="43.569587990641594" lon="7.016179002821446">
        <ele>61.659999999999997</ele>
        <time>2025-05-18T13:37:44Z</time>
      </trkpt>
      <trkpt lat="43.569485982879996" lon="7.016254020854831">
        <ele>61.659999999999997</ele>
        <time>2025-05-18T13:37:46Z</time>
      </trkpt>
      <trkpt lat="43.569393027573824" lon="7.016259972006083">
        <ele>61.18</ele>
        <time>2025-05-18T13:37:48Z</time>
      </trkpt>
      <trkpt lat="43.569352962076664" lon="7.016262989491224">
        <ele>61.18</ele>
        <time>2025-05-18T13:37:49Z</time>
      </trkpt>
      <trkpt lat="43.569315997883677" lon="7.016266006976366">
        <ele>60.700000000000003</ele>
        <time>2025-05-18T13:37:50Z</time>
      </trkpt>
      <trkpt lat="43.569280039519072" lon="7.016269024461508">
        <ele>60.700000000000003</ele>
        <time>2025-05-18T13:37:51Z</time>
      </trkpt>
      <trkpt lat="43.569241985678673" lon="7.016271036118269">
        <ele>60.700000000000003</ele>
        <time>2025-05-18T13:37:52Z</time>
      </trkpt>
      <trkpt lat="43.569198986515403" lon="7.01627497561276">
        <ele>60.219999999999999</ele>
        <time>2025-05-18T13:37:53Z</time>
      </trkpt>
      <trkpt lat="43.569147018715739" lon="7.016278998926282">
        <ele>60.219999999999999</ele>
        <time>2025-05-18T13:37:54Z</time>
      </trkpt>
      <trkpt lat="43.569088010117412" lon="7.016284028068185">
        <ele>60.219999999999999</ele>
        <time>2025-05-18T13:37:55Z</time>
      </trkpt>
      <trkpt lat="43.568897992372513" lon="7.016299031674862">
        <ele>59.740000000000002</ele>
        <time>2025-05-18T13:37:58Z</time>
      </trkpt>
      <trkpt lat="43.568684002384543" lon="7.016314035281539">
        <ele>59.259999999999998</ele>
        <time>2025-05-18T13:38:02Z</time>
      </trkpt>
      <trkpt lat="43.568633962422609" lon="7.01631797477603">
        <ele>59.259999999999998</ele>
        <time>2025-05-18T13:38:03Z</time>
      </trkpt>
      <trkpt lat="43.568530026823282" lon="7.016325015574694">
        <ele>58.780000000000001</ele>
        <time>2025-05-18T13:38:05Z</time>
      </trkpt>
      <trkpt lat="43.568479986861348" lon="7.016329038888216">
        <ele>58.299999999999997</ele>
        <time>2025-05-18T13:38:06Z</time>
      </trkpt>
      <trkpt lat="43.568375967442989" lon="7.016335995867848">
        <ele>58.299999999999997</ele>
        <time>2025-05-18T13:38:08Z</time>
      </trkpt>
      <trkpt lat="43.568325005471706" lon="7.016340019181371">
        <ele>58.299999999999997</ele>
        <time>2025-05-18T13:38:09Z</time>
      </trkpt>
      <trkpt lat="43.568277982994914" lon="7.016343036666513">
        <ele>57.82</ele>
        <time>2025-05-18T13:38:10Z</time>
      </trkpt>
      <trkpt lat="43.568239007145166" lon="7.016345970332623">
        <ele>57.82</ele>
        <time>2025-05-18T13:38:11Z</time>
      </trkpt>
      <trkpt lat="43.568201037123799" lon="7.016348987817764">
        <ele>57.82</ele>
        <time>2025-05-18T13:38:12Z</time>
      </trkpt>
      <trkpt lat="43.56816197745502" lon="7.016350999474526">
        <ele>57.82</ele>
        <time>2025-05-18T13:38:13Z</time>
      </trkpt>
      <trkpt lat="43.567951004952192" lon="7.016349993646145">
        <ele>57.82</ele>
        <time>2025-05-18T13:38:18Z</time>
      </trkpt>
      <trkpt lat="43.567700972780585" lon="7.016294002532959">
        <ele>56.859999999999999</ele>
        <time>2025-05-18T13:38:26Z</time>
      </trkpt>
      <trkpt lat="43.567708013579249" lon="7.016298025846481">
        <ele>56.859999999999999</ele>
        <time>2025-05-18T13:38:36Z</time>
      </trkpt>
      <trkpt lat="43.5674739908427" lon="7.016357034444809">
        <ele>55.890000000000001</ele>
        <time>2025-05-18T13:38:47Z</time>
      </trkpt>
      <trkpt lat="43.567248014733195" lon="7.016385030001402">
        <ele>54.450000000000003</ele>
        <time>2025-05-18T13:38:53Z</time>
      </trkpt>
      <trkpt lat="43.566956995055079" lon="7.016413025557995">
        <ele>53.969999999999999</ele>
        <time>2025-05-18T13:38:58Z</time>
      </trkpt>
      <trkpt lat="43.566438993439078" lon="7.016449989750981">
        <ele>53.969999999999999</ele>
        <time>2025-05-18T13:39:08Z</time>
      </trkpt>
      <trkpt lat="43.566354000940919" lon="7.016454013064504">
        <ele>54.450000000000003</ele>
        <time>2025-05-18T13:39:15Z</time>
      </trkpt>
      <trkpt lat="43.566124001517892" lon="7.016465999186039">
        <ele>54.450000000000003</ele>
        <time>2025-05-18T13:39:29Z</time>
      </trkpt>
      <trkpt lat="43.5656279604882" lon="7.01646700501442">
        <ele>52.049999999999997</ele>
        <time>2025-05-18T13:39:38Z</time>
      </trkpt>
      <trkpt lat="43.565574986860156" lon="7.016472034156323">
        <ele>52.049999999999997</ele>
        <time>2025-05-18T13:39:39Z</time>
      </trkpt>
      <trkpt lat="43.565339036285877" lon="7.016495000571013">
        <ele>50.130000000000003</ele>
        <time>2025-05-18T13:39:43Z</time>
      </trkpt>
      <trkpt lat="43.56528296135366" lon="7.016500029712915">
        <ele>49.159999999999997</ele>
        <time>2025-05-18T13:39:44Z</time>
      </trkpt>
      <trkpt lat="43.565228981897235" lon="7.016504975035787">
        <ele>48.68</ele>
        <time>2025-05-18T13:39:45Z</time>
      </trkpt>
      <trkpt lat="43.564904015511274" lon="7.01653003692627">
        <ele>45.32</ele>
        <time>2025-05-18T13:39:51Z</time>
      </trkpt>
      <trkpt lat="43.564848024398088" lon="7.01653003692627">
        <ele>45.32</ele>
        <time>2025-05-18T13:39:52Z</time>
      </trkpt>
      <trkpt lat="43.564795972779393" lon="7.01653003692627">
        <ele>45.32</ele>
        <time>2025-05-18T13:39:53Z</time>
      </trkpt>
      <trkpt lat="43.564782980829477" lon="7.01653003692627">
        <ele>45.32</ele>
        <time>2025-05-18T13:39:54Z</time>
      </trkpt>
      <trkpt lat="43.564697988331318" lon="7.01653003692627">
        <ele>44.840000000000003</ele>
        <time>2025-05-18T13:39:55Z</time>
      </trkpt>
      <trkpt lat="43.564653983339667" lon="7.01653003692627">
        <ele>44.840000000000003</ele>
        <time>2025-05-18T13:39:56Z</time>
      </trkpt>
      <trkpt lat="43.564504031091928" lon="7.01653003692627">
        <ele>43.880000000000003</ele>
        <time>2025-05-18T13:40:02Z</time>
      </trkpt>
      <trkpt lat="43.564375033602118" lon="7.016508998349309">
        <ele>42.439999999999998</ele>
        <time>2025-05-18T13:40:27Z</time>
      </trkpt>
      <trkpt lat="43.56367195956409" lon="7.016551997512579">
        <ele>39.07</ele>
        <time>2025-05-18T13:40:37Z</time>
      </trkpt>
      <trkpt lat="43.563252026215196" lon="7.016573958098888">
        <ele>35.710000000000001</ele>
        <time>2025-05-18T13:40:43Z</time>
      </trkpt>
      <trkpt lat="43.563192011788487" lon="7.016579993069172">
        <ele>35.229999999999997</ele>
        <time>2025-05-18T13:40:44Z</time>
      </trkpt>
      <trkpt lat="43.563122022897005" lon="7.016588039696217">
        <ele>34.740000000000002</ele>
        <time>2025-05-18T13:40:45Z</time>
      </trkpt>
      <trkpt lat="43.563066031783819" lon="7.016593990847468">
        <ele>33.780000000000001</ele>
        <time>2025-05-18T13:40:46Z</time>
      </trkpt>
      <trkpt lat="43.562963018193841" lon="7.016601031646133">
        <ele>33.299999999999997</ele>
        <time>2025-05-18T13:40:47Z</time>
      </trkpt>
      <trkpt lat="43.562877019867301" lon="7.016606982797384">
        <ele>32.82</ele>
        <time>2025-05-18T13:40:48Z</time>
      </trkpt>
      <trkpt lat="43.562795966863632" lon="7.016612011939287">
        <ele>31.859999999999999</ele>
        <time>2025-05-18T13:40:49Z</time>
      </trkpt>
      <trkpt lat="43.562743999063969" lon="7.01661603525281">
        <ele>31.379999999999999</ele>
        <time>2025-05-18T13:40:50Z</time>
      </trkpt>
      <trkpt lat="43.562652971595526" lon="7.016620980575681">
        <ele>30.899999999999999</ele>
        <time>2025-05-18T13:40:51Z</time>
      </trkpt>
      <trkpt lat="43.562579965218902" lon="7.016623998060823">
        <ele>30.420000000000002</ele>
        <time>2025-05-18T13:40:52Z</time>
      </trkpt>
      <trkpt lat="43.562501007691026" lon="7.016629027202725">
        <ele>29.940000000000001</ele>
        <time>2025-05-18T13:40:53Z</time>
      </trkpt>
      <trkpt lat="43.56242498382926" lon="7.016632966697216">
        <ele>29.940000000000001</ele>
        <time>2025-05-18T13:40:54Z</time>
      </trkpt>
      <trkpt lat="43.562271008267999" lon="7.016636990010738">
        <ele>29.940000000000001</ele>
        <time>2025-05-18T13:40:56Z</time>
      </trkpt>
      <trkpt lat="43.561992980539799" lon="7.016636990010738">
        <ele>28.98</ele>
        <time>2025-05-18T13:40:59Z</time>
      </trkpt>
      <trkpt lat="43.561906982213259" lon="7.016636990010738">
        <ele>28.98</ele>
        <time>2025-05-18T13:41:00Z</time>
      </trkpt>
      <trkpt lat="43.561892984434962" lon="7.016637995839119">
        <ele>28.98</ele>
        <time>2025-05-18T13:41:01Z</time>
      </trkpt>
      <trkpt lat="43.561563994735479" lon="7.01665903441608">
        <ele>27.530000000000001</ele>
        <time>2025-05-18T13:41:05Z</time>
      </trkpt>
      <trkpt lat="43.561513032764196" lon="7.016660962253809">
        <ele>26.57</ele>
        <time>2025-05-18T13:41:06Z</time>
      </trkpt>
      <trkpt lat="43.561437008902431" lon="7.016663979738951">
        <ele>26.09</ele>
        <time>2025-05-18T13:41:07Z</time>
      </trkpt>
      <trkpt lat="43.561356961727142" lon="7.016668003052473">
        <ele>25.129999999999999</ele>
        <time>2025-05-18T13:41:08Z</time>
      </trkpt>
      <trkpt lat="43.561293007805943" lon="7.016671020537615">
        <ele>24.649999999999999</ele>
        <time>2025-05-18T13:41:09Z</time>
      </trkpt>
      <trkpt lat="43.561245985329151" lon="7.016673032194376">
        <ele>23.690000000000001</ele>
        <time>2025-05-18T13:41:10Z</time>
      </trkpt>
      <trkpt lat="43.561183037236333" lon="7.016674960032105">
        <ele>23.690000000000001</ele>
        <time>2025-05-18T13:41:11Z</time>
      </trkpt>
      <trkpt lat="43.560941973701119" lon="7.01665903441608">
        <ele>20.32</ele>
        <time>2025-05-18T13:41:17Z</time>
      </trkpt>
      <trkpt lat="43.560891011729836" lon="7.016664985567331">
        <ele>19.84</ele>
        <time>2025-05-18T13:41:18Z</time>
      </trkpt>
      <trkpt lat="43.560828985646367" lon="7.016673032194376">
        <ele>19.359999999999999</ele>
        <time>2025-05-18T13:41:19Z</time>
      </trkpt>
      <trkpt lat="43.560757990926504" lon="7.016680995002389">
        <ele>19.359999999999999</ele>
        <time>2025-05-18T13:41:20Z</time>
      </trkpt>
      <trkpt lat="43.560683978721499" lon="7.016685018315911">
        <ele>18.879999999999999</ele>
        <time>2025-05-18T13:41:21Z</time>
      </trkpt>
      <trkpt lat="43.560606027022004" lon="7.016689041629434">
        <ele>18.879999999999999</ele>
        <time>2025-05-18T13:41:22Z</time>
      </trkpt>
      <trkpt lat="43.560539977625012" lon="7.016691975295544">
        <ele>19.359999999999999</ele>
        <time>2025-05-18T13:41:23Z</time>
      </trkpt>
      <trkpt lat="43.560479963198304" lon="7.016694992780685">
        <ele>19.359999999999999</ele>
        <time>2025-05-18T13:41:24Z</time>
      </trkpt>
      <trkpt lat="43.56042698957026" lon="7.016698010265827">
        <ele>19.84</ele>
        <time>2025-05-18T13:41:25Z</time>
      </trkpt>
      <trkpt lat="43.560372004285455" lon="7.016701027750969">
        <ele>20.32</ele>
        <time>2025-05-18T13:41:26Z</time>
      </trkpt>
      <trkpt lat="43.560311989858747" lon="7.016703961417079">
        <ele>20.809999999999999</ele>
        <time>2025-05-18T13:41:27Z</time>
      </trkpt>
      <trkpt lat="43.560248035937548" lon="7.016707984730601">
        <ele>21.289999999999999</ele>
        <time>2025-05-18T13:41:28Z</time>
      </trkpt>
      <trkpt lat="43.559935977682471" lon="7.01672499999404">
        <ele>23.210000000000001</ele>
        <time>2025-05-18T13:41:32Z</time>
      </trkpt>
      <trkpt lat="43.55933197773993" lon="7.01674503274262">
        <ele>27.050000000000001</ele>
        <time>2025-05-18T13:41:39Z</time>
      </trkpt>
      <trkpt lat="43.55933197773993" lon="7.01674503274262">
        <ele>27.050000000000001</ele>
        <time>2025-05-18T13:41:40Z</time>
      </trkpt>
      <trkpt lat="43.559293001890182" lon="7.01674796640873">
        <ele>27.050000000000001</ele>
        <time>2025-05-18T13:41:41Z</time>
      </trkpt>
      <trkpt lat="43.559041963890195" lon="7.016772022470832">
        <ele>28.5</ele>
        <time>2025-05-18T13:41:45Z</time>
      </trkpt>
      <trkpt lat="43.558975998312235" lon="7.016778979450464">
        <ele>28.98</ele>
        <time>2025-05-18T13:41:46Z</time>
      </trkpt>
      <trkpt lat="43.558785980567336" lon="7.016793983057141">
        <ele>29.940000000000001</ele>
        <time>2025-05-18T13:41:49Z</time>
      </trkpt>
      <trkpt lat="43.558738958090544" lon="7.016798006370664">
        <ele>29.940000000000001</ele>
        <time>2025-05-18T13:41:50Z</time>
      </trkpt>
      <trkpt lat="43.558705011382699" lon="7.016800018027425">
        <ele>30.420000000000002</ele>
        <time>2025-05-18T13:41:51Z</time>
      </trkpt>
      <trkpt lat="43.558679027482867" lon="7.016802029684186">
        <ele>31.859999999999999</ele>
        <time>2025-05-18T13:42:00Z</time>
      </trkpt>
      <trkpt lat="43.558636028319597" lon="7.016804963350296">
        <ele>32.340000000000003</ele>
        <time>2025-05-18T13:42:02Z</time>
      </trkpt>
      <trkpt lat="43.558450033888221" lon="7.016808986663818">
        <ele>33.780000000000001</ele>
        <time>2025-05-18T13:42:06Z</time>
      </trkpt>
      <trkpt lat="43.558398988097906" lon="7.016808986663818">
        <ele>33.780000000000001</ele>
        <time>2025-05-18T13:42:07Z</time>
      </trkpt>
      <trkpt lat="43.558355988934636" lon="7.016808986663818">
        <ele>34.259999999999998</ele>
        <time>2025-05-18T13:42:08Z</time>
      </trkpt>
      <trkpt lat="43.558323970064521" lon="7.016808986663818">
        <ele>34.259999999999998</ele>
        <time>2025-05-18T13:42:09Z</time>
      </trkpt>
      <trkpt lat="43.558291029185057" lon="7.016807980835438">
        <ele>34.259999999999998</ele>
        <time>2025-05-18T13:42:10Z</time>
      </trkpt>
      <trkpt lat="43.558215005323291" lon="7.016804041340947">
        <ele>35.229999999999997</ele>
        <time>2025-05-18T13:42:14Z</time>
      </trkpt>
      <trkpt lat="43.558215005323291" lon="7.016804041340947">
        <ele>35.229999999999997</ele>
        <time>2025-05-18T13:42:15Z</time>
      </trkpt>
      <trkpt lat="43.55808399617672" lon="7.016798006370664">
        <ele>36.670000000000002</ele>
        <time>2025-05-18T13:42:27Z</time>
      </trkpt>
      <trkpt lat="43.557798005640507" lon="7.016794988885522">
        <ele>35.710000000000001</ele>
        <time>2025-05-18T13:42:38Z</time>
      </trkpt>
      <trkpt lat="43.557704966515303" lon="7.016804041340947">
        <ele>34.740000000000002</ele>
        <time>2025-05-18T13:42:40Z</time>
      </trkpt>
      <trkpt lat="43.557382011786103" lon="7.016836982220411">
        <ele>29.940000000000001</ele>
        <time>2025-05-18T13:42:50Z</time>
      </trkpt>
      <trkpt lat="43.557382011786103" lon="7.016836982220411">
        <ele>29.940000000000001</ele>
        <time>2025-05-18T13:43:19Z</time>
      </trkpt>
      <trkpt lat="43.557176990434527" lon="7.016852991655469">
        <ele>30.899999999999999</ele>
        <time>2025-05-18T13:43:35Z</time>
      </trkpt>
      <trkpt lat="43.557165004312992" lon="7.01685399748385">
        <ele>31.379999999999999</ele>
        <time>2025-05-18T13:43:50Z</time>
      </trkpt>
      <trkpt lat="43.556937016546726" lon="7.016860032454133">
        <ele>28.98</ele>
        <time>2025-05-18T13:44:01Z</time>
      </trkpt>
      <trkpt lat="43.556886976584792" lon="7.016861038282514">
        <ele>28.98</ele>
        <time>2025-05-18T13:44:02Z</time>
      </trkpt>
      <trkpt lat="43.556740041822195" lon="7.016864977777004">
        <ele>28.02</ele>
        <time>2025-05-18T13:44:05Z</time>
      </trkpt>
      <trkpt lat="43.556692013517022" lon="7.016866989433765">
        <ele>27.530000000000001</ele>
        <time>2025-05-18T13:44:06Z</time>
      </trkpt>
      <trkpt lat="43.556639039888978" lon="7.016867995262146">
        <ele>27.530000000000001</ele>
        <time>2025-05-18T13:44:07Z</time>
      </trkpt>
      <trkpt lat="43.556581037119031" lon="7.016870006918907">
        <ele>27.530000000000001</ele>
        <time>2025-05-18T13:44:08Z</time>
      </trkpt>
      <trkpt lat="43.556520016863942" lon="7.016872018575668">
        <ele>27.530000000000001</ele>
        <time>2025-05-18T13:44:09Z</time>
      </trkpt>
      <trkpt lat="43.556361012160778" lon="7.01687796972692">
        <ele>26.57</ele>
        <time>2025-05-18T13:44:12Z</time>
      </trkpt>
      <trkpt lat="43.556310972198844" lon="7.016880987212062">
        <ele>26.57</ele>
        <time>2025-05-18T13:44:13Z</time>
      </trkpt>
      <trkpt lat="43.556260010227561" lon="7.016882998868823">
        <ele>26.57</ele>
        <time>2025-05-18T13:44:14Z</time>
      </trkpt>
      <trkpt lat="43.556204019114375" lon="7.016886016353965">
        <ele>26.57</ele>
        <time>2025-05-18T13:44:15Z</time>
      </trkpt>
      <trkpt lat="43.556148028001189" lon="7.016889033839107">
        <ele>26.57</ele>
        <time>2025-05-18T13:44:16Z</time>
      </trkpt>
      <trkpt lat="43.556027999147773" lon="7.016894984990358">
        <ele>26.57</ele>
        <time>2025-05-18T13:44:18Z</time>
      </trkpt>
      <trkpt lat="43.555969996377826" lon="7.016902025789022">
        <ele>26.57</ele>
        <time>2025-05-18T13:44:19Z</time>
      </trkpt>
      <trkpt lat="43.555903024971485" lon="7.016909988597035">
        <ele>26.57</ele>
        <time>2025-05-18T13:44:20Z</time>
      </trkpt>
      <trkpt lat="43.555643018335104" lon="7.016935972496867">
        <ele>28.02</ele>
        <time>2025-05-18T13:44:25Z</time>
      </trkpt>
      <trkpt lat="43.555332971736789" lon="7.016925998032093">
        <ele>28.5</ele>
        <time>2025-05-18T13:44:29Z</time>
      </trkpt>
      <trkpt lat="43.554932987317443" lon="7.016945024952292">
        <ele>28.98</ele>
        <time>2025-05-18T13:44:34Z</time>
      </trkpt>
      <trkpt lat="43.554845983162522" lon="7.01696103438735">
        <ele>28.98</ele>
        <time>2025-05-18T13:44:35Z</time>
      </trkpt>
      <trkpt lat="43.554764008149505" lon="7.016965979710221">
        <ele>28.5</ele>
        <time>2025-05-18T13:44:36Z</time>
      </trkpt>
      <trkpt lat="43.554686978459358" lon="7.016971008852124">
        <ele>28.98</ele>
        <time>2025-05-18T13:44:37Z</time>
      </trkpt>
      <trkpt lat="43.554616989567876" lon="7.016975032165647">
        <ele>28.98</ele>
        <time>2025-05-18T13:44:38Z</time>
      </trkpt>
      <trkpt lat="43.554525962099433" lon="7.016980983316898">
        <ele>28.98</ele>
        <time>2025-05-18T13:44:39Z</time>
      </trkpt>
      <trkpt lat="43.554348014295101" lon="7.016980983316898">
        <ele>28.02</ele>
        <time>2025-05-18T13:44:44Z</time>
      </trkpt>
      <trkpt lat="43.554348014295101" lon="7.016980983316898">
        <ele>27.530000000000001</ele>
        <time>2025-05-18T13:44:52Z</time>
      </trkpt>
      <trkpt lat="43.554348014295101" lon="7.016980983316898">
        <ele>26.57</ele>
        <time>2025-05-18T13:45:14Z</time>
      </trkpt>
      <trkpt lat="43.554348014295101" lon="7.016980983316898">
        <ele>26.57</ele>
        <time>2025-05-18T13:45:41Z</time>
      </trkpt>
      <trkpt lat="43.554247012361884" lon="7.016980983316898">
        <ele>28.5</ele>
        <time>2025-05-18T13:46:03Z</time>
      </trkpt>
      <trkpt lat="43.554139975458384" lon="7.017066981643438">
        <ele>28.98</ele>
        <time>2025-05-18T13:46:04Z</time>
      </trkpt>
      <trkpt lat="43.553775027394295" lon="7.017051978036761">
        <ele>28.02</ele>
        <time>2025-05-18T13:46:13Z</time>
      </trkpt>
      <trkpt lat="43.553775027394295" lon="7.017051978036761">
        <ele>28.02</ele>
        <time>2025-05-18T13:46:28Z</time>
      </trkpt>
      <trkpt lat="43.553775027394295" lon="7.017051978036761">
        <ele>28.02</ele>
        <time>2025-05-18T13:47:08Z</time>
      </trkpt>
      <trkpt lat="43.553752982988954" lon="7.017045021057129">
        <ele>29.460000000000001</ele>
        <time>2025-05-18T13:47:47Z</time>
      </trkpt>
      <trkpt lat="43.553708977997303" lon="7.01702599413693">
        <ele>29.940000000000001</ele>
        <time>2025-05-18T13:48:01Z</time>
      </trkpt>
      <trkpt lat="43.553708977997303" lon="7.01702599413693">
        <ele>29.940000000000001</ele>
        <time>2025-05-18T13:48:29Z</time>
      </trkpt>
      <trkpt lat="43.553708977997303" lon="7.01702599413693">
        <ele>29.460000000000001</ele>
        <time>2025-05-18T13:49:17Z</time>
      </trkpt>
      <trkpt lat="43.553662039339542" lon="7.01700596138835">
        <ele>28.98</ele>
        <time>2025-05-18T13:49:51Z</time>
      </trkpt>
      <trkpt lat="43.553662039339542" lon="7.01700596138835">
        <ele>28.98</ele>
        <time>2025-05-18T13:50:28Z</time>
      </trkpt>
      <trkpt lat="43.553662039339542" lon="7.01700596138835">
        <ele>27.050000000000001</ele>
        <time>2025-05-18T13:51:01Z</time>
      </trkpt>
      <trkpt lat="43.553662039339542" lon="7.01700596138835">
        <ele>26.57</ele>
        <time>2025-05-18T13:51:53Z</time>
      </trkpt>
      <trkpt lat="43.553546033799648" lon="7.016934966668487">
        <ele>24.170000000000002</ele>
        <time>2025-05-18T13:52:05Z</time>
      </trkpt>
      <trkpt lat="43.553495993837714" lon="7.016894984990358">
        <ele>23.690000000000001</ele>
        <time>2025-05-18T13:52:06Z</time>
      </trkpt>
      <trkpt lat="43.553495993837714" lon="7.016894984990358">
        <ele>23.210000000000001</ele>
        <time>2025-05-18T13:52:07Z</time>
      </trkpt>
      <trkpt lat="43.553495993837714" lon="7.016894984990358">
        <ele>23.210000000000001</ele>
        <time>2025-05-18T13:52:08Z</time>
      </trkpt>
      <trkpt lat="43.553481996059418" lon="7.016904037445784">
        <ele>22.73</ele>
        <time>2025-05-18T13:52:09Z</time>
      </trkpt>
      <trkpt lat="43.553481996059418" lon="7.016904037445784">
        <ele>22.25</ele>
        <time>2025-05-18T13:52:10Z</time>
      </trkpt>
      <trkpt lat="43.553481996059418" lon="7.016904037445784">
        <ele>21.77</ele>
        <time>2025-05-18T13:52:25Z</time>
      </trkpt>
      <trkpt lat="43.553481996059418" lon="7.016904037445784">
        <ele>21.77</ele>
        <time>2025-05-18T13:53:11Z</time>
      </trkpt>
      <trkpt lat="43.553458023816347" lon="7.016921974718571">
        <ele>21.289999999999999</ele>
        <time>2025-05-18T13:53:36Z</time>
      </trkpt>
      <trkpt lat="43.553440002724528" lon="7.016934966668487">
        <ele>20.809999999999999</ele>
        <time>2025-05-18T13:53:37Z</time>
      </trkpt>
      <trkpt lat="43.553415024653077" lon="7.016951981931925">
        <ele>20.809999999999999</ele>
        <time>2025-05-18T13:53:38Z</time>
      </trkpt>
      <trkpt lat="43.553389962762594" lon="7.016970003023744">
        <ele>20.809999999999999</ele>
        <time>2025-05-18T13:53:39Z</time>
      </trkpt>
      <trkpt lat="43.553362973034382" lon="7.016990035772324">
        <ele>21.289999999999999</ele>
        <time>2025-05-18T13:53:40Z</time>
      </trkpt>
      <trkpt lat="43.553321985527873" lon="7.01700696721673">
        <ele>21.77</ele>
        <time>2025-05-18T13:53:41Z</time>
      </trkpt>
      <trkpt lat="43.553242022171617" lon="7.01702599413693">
        <ele>24.649999999999999</ele>
        <time>2025-05-18T13:53:50Z</time>
      </trkpt>
      <trkpt lat="43.553242022171617" lon="7.01702599413693">
        <ele>24.649999999999999</ele>
        <time>2025-05-18T13:54:11Z</time>
      </trkpt>
      <trkpt lat="43.553242022171617" lon="7.01702599413693">
        <ele>25.129999999999999</ele>
        <time>2025-05-18T13:54:40Z</time>
      </trkpt>
      <trkpt lat="43.5531410202384" lon="7.01704996638">
        <ele>29.460000000000001</ele>
        <time>2025-05-18T13:55:13Z</time>
      </trkpt>
      <trkpt lat="43.5531410202384" lon="7.01704996638">
        <ele>32.340000000000003</ele>
        <time>2025-05-18T13:55:25Z</time>
      </trkpt>
      <trkpt lat="43.5531410202384" lon="7.01704996638">
        <ele>33.299999999999997</ele>
        <time>2025-05-18T13:55:41Z</time>
      </trkpt>
      <trkpt lat="43.5531410202384" lon="7.01704996638">
        <ele>33.299999999999997</ele>
        <time>2025-05-18T13:56:03Z</time>
      </trkpt>
      <trkpt lat="43.5531410202384" lon="7.01704996638">
        <ele>35.229999999999997</ele>
        <time>2025-05-18T13:56:27Z</time>
      </trkpt>
      <trkpt lat="43.552975980564952" lon="7.01708902604878">
        <ele>35.229999999999997</ele>
        <time>2025-05-18T13:56:37Z</time>
      </trkpt>
      <trkpt lat="43.552934993058443" lon="7.017097994685173">
        <ele>35.710000000000001</ele>
        <time>2025-05-18T13:56:38Z</time>
      </trkpt>
      <trkpt lat="43.552589993923903" lon="7.01717896386981">
        <ele>29.460000000000001</ele>
        <time>2025-05-18T13:56:52Z</time>
      </trkpt>
      <trkpt lat="43.552589993923903" lon="7.01717896386981">
        <ele>29.460000000000001</ele>
        <time>2025-05-18T13:57:14Z</time>
      </trkpt>
      <trkpt lat="43.552589993923903" lon="7.01717896386981">
        <ele>29.940000000000001</ele>
        <time>2025-05-18T13:57:48Z</time>
      </trkpt>
      <trkpt lat="43.552589993923903" lon="7.01717896386981">
        <ele>28.5</ele>
        <time>2025-05-18T13:58:09Z</time>
      </trkpt>
      <trkpt lat="43.552589993923903" lon="7.01717896386981">
        <ele>28.5</ele>
        <time>2025-05-18T13:58:36Z</time>
      </trkpt>
      <trkpt lat="43.552589993923903" lon="7.01717896386981">
        <ele>27.530000000000001</ele>
        <time>2025-05-18T13:59:14Z</time>
      </trkpt>
      <trkpt lat="43.552399976179004" lon="7.017222968861461">
        <ele>20.809999999999999</ele>
        <time>2025-05-18T13:59:43Z</time>
      </trkpt>
      <trkpt lat="43.552249018102884" lon="7.017252976074815">
        <ele>17.440000000000001</ele>
        <time>2025-05-18T13:59:50Z</time>
      </trkpt>
      <trkpt lat="43.552249018102884" lon="7.017252976074815">
        <ele>16.960000000000001</ele>
        <time>2025-05-18T14:00:13Z</time>
      </trkpt>
      <trkpt lat="43.552249018102884" lon="7.017252976074815">
        <ele>16.960000000000001</ele>
        <time>2025-05-18T14:00:34Z</time>
      </trkpt>
      <trkpt lat="43.552199983969331" lon="7.01726102270186">
        <ele>14.08</ele>
        <time>2025-05-18T14:00:48Z</time>
      </trkpt>
      <trkpt lat="43.552199983969331" lon="7.01726102270186">
        <ele>13.119999999999999</ele>
        <time>2025-05-18T14:01:10Z</time>
      </trkpt>
      <trkpt lat="43.552199983969331" lon="7.01726102270186">
        <ele>13.119999999999999</ele>
        <time>2025-05-18T14:01:38Z</time>
      </trkpt>
      <trkpt lat="43.552199983969331" lon="7.01726102270186">
        <ele>12.630000000000001</ele>
        <time>2025-05-18T14:01:47Z</time>
      </trkpt>
      <trkpt lat="43.552039973437786" lon="7.017288012430072">
        <ele>11.19</ele>
        <time>2025-05-18T14:01:58Z</time>
      </trkpt>
      <trkpt lat="43.552039973437786" lon="7.017288012430072">
        <ele>10.23</ele>
        <time>2025-05-18T14:02:24Z</time>
      </trkpt>
      <trkpt lat="43.551951041445136" lon="7.017303016036749">
        <ele>9.75</ele>
        <time>2025-05-18T14:02:47Z</time>
      </trkpt>
      <trkpt lat="43.551944000646472" lon="7.01730402186513">
        <ele>9.27</ele>
        <time>2025-05-18T14:02:56Z</time>
      </trkpt>
      <trkpt lat="43.551927991211414" lon="7.017306033521891">
        <ele>8.789999999999999</ele>
        <time>2025-05-18T14:02:57Z</time>
      </trkpt>
      <trkpt lat="43.551927991211414" lon="7.017306033521891">
        <ele>7.35</ele>
        <time>2025-05-18T14:03:08Z</time>
      </trkpt>
      <trkpt lat="43.551879040896893" lon="7.017313996329904">
        <ele>6.87</ele>
        <time>2025-05-18T14:03:18Z</time>
      </trkpt>
      <trkpt lat="43.551879040896893" lon="7.017313996329904">
        <ele>5.91</ele>
        <time>2025-05-18T14:03:32Z</time>
      </trkpt>
      <trkpt lat="43.551692962646484" lon="7.017346015200019">
        <ele>2.54</ele>
        <time>2025-05-18T14:03:47Z</time>
      </trkpt>
      <trkpt lat="43.551692962646484" lon="7.017346015200019">
        <ele>2.06</ele>
        <time>2025-05-18T14:03:58Z</time>
      </trkpt>
      <trkpt lat="43.551692962646484" lon="7.017346015200019">
        <ele>2.54</ele>
        <time>2025-05-18T14:04:12Z</time>
      </trkpt>
      <trkpt lat="43.55159598402679" lon="7.017346015200019">
        <ele>2.54</ele>
        <time>2025-05-18T14:04:35Z</time>
      </trkpt>
      <trkpt lat="43.55159598402679" lon="7.017346015200019">
        <ele>0.62</ele>
        <time>2025-05-18T14:04:52Z</time>
      </trkpt>
      <trkpt lat="43.551415018737316" lon="7.017346015200019">
        <ele>-0.34</ele>
        <time>2025-05-18T14:05:13Z</time>
      </trkpt>
      <trkpt lat="43.55136196129024" lon="7.017635023221374">
        <ele>-1.3</ele>
        <time>2025-05-18T14:05:23Z</time>
      </trkpt>
      <trkpt lat="43.551285015419126" lon="7.017901986837387">
        <ele>-1.79</ele>
        <time>2025-05-18T14:05:27Z</time>
      </trkpt>
      <trkpt lat="43.551271017640829" lon="7.017954960465431">
        <ele>-1.79</ele>
        <time>2025-05-18T14:05:28Z</time>
      </trkpt>
      <trkpt lat="43.551260959357023" lon="7.017997037619352">
        <ele>-1.79</ele>
        <time>2025-05-18T14:05:29Z</time>
      </trkpt>
      <trkpt lat="43.551248973235488" lon="7.018039030954242">
        <ele>-1.3</ele>
        <time>2025-05-18T14:05:30Z</time>
      </trkpt>
      <trkpt lat="43.551240004599094" lon="7.018074989318848">
        <ele>-1.3</ele>
        <time>2025-05-18T14:05:31Z</time>
      </trkpt>
      <trkpt lat="43.551217960193753" lon="7.018157970160246">
        <ele>-0.82</ele>
        <time>2025-05-18T14:05:34Z</time>
      </trkpt>
      <trkpt lat="43.551217960193753" lon="7.018157970160246">
        <ele>-0.34</ele>
        <time>2025-05-18T14:05:35Z</time>
      </trkpt>
      <trkpt lat="43.551217960193753" lon="7.018157970160246">
        <ele>0.14</ele>
        <time>2025-05-18T14:05:36Z</time>
      </trkpt>
      <trkpt lat="43.551202034577727" lon="7.018223013728857">
        <ele>0.14</ele>
        <time>2025-05-18T14:05:37Z</time>
      </trkpt>
      <trkpt lat="43.551190970465541" lon="7.018261989578605">
        <ele>0.14</ele>
        <time>2025-05-18T14:05:38Z</time>
      </trkpt>
      <trkpt lat="43.551033977419138" lon="7.018713019788265">
        <ele>-1.3</ele>
        <time>2025-05-18T14:05:44Z</time>
      </trkpt>
      <trkpt lat="43.551008999347687" lon="7.018782002851367">
        <ele>-1.79</ele>
        <time>2025-05-18T14:05:45Z</time>
      </trkpt>
      <trkpt lat="43.550990978255868" lon="7.018831958994269">
        <ele>-2.27</ele>
        <time>2025-05-18T14:05:46Z</time>
      </trkpt>
      <trkpt lat="43.550867009907961" lon="7.019216017797589">
        <ele>-10.92</ele>
        <time>2025-05-18T14:05:55Z</time>
      </trkpt>
      <trkpt lat="43.550847982987761" lon="7.019278965890408">
        <ele>-11.880000000000001</ele>
        <time>2025-05-18T14:05:56Z</time>
      </trkpt>
      <trkpt lat="43.550828034058213" lon="7.019349038600922">
        <ele>-12.84</ele>
        <time>2025-05-18T14:05:57Z</time>
      </trkpt>
      <trkpt lat="43.550786962732673" lon="7.019499996677041">
        <ele>-13.800000000000001</ele>
        <time>2025-05-18T14:05:59Z</time>
      </trkpt>
      <trkpt lat="43.550774976611137" lon="7.019573003053665">
        <ele>-14.279999999999999</ele>
        <time>2025-05-18T14:06:00Z</time>
      </trkpt>
      <trkpt lat="43.550762990489602" lon="7.019642991945148">
        <ele>-14.76</ele>
        <time>2025-05-18T14:06:01Z</time>
      </trkpt>
      <trkpt lat="43.550753016024828" lon="7.019706023856998">
        <ele>-15.24</ele>
        <time>2025-05-18T14:06:02Z</time>
      </trkpt>
      <trkpt lat="43.550744969397783" lon="7.019751034677029">
        <ele>-15.24</ele>
        <time>2025-05-18T14:06:03Z</time>
      </trkpt>
      <trkpt lat="43.550741029903293" lon="7.019780036062002">
        <ele>-16.210000000000001</ele>
        <time>2025-05-18T14:06:04Z</time>
      </trkpt>
      <trkpt lat="43.550734994933009" lon="7.019810965284705">
        <ele>-16.210000000000001</ele>
        <time>2025-05-18T14:06:05Z</time>
      </trkpt>
      <trkpt lat="43.550729965791106" lon="7.01984197832644">
        <ele>-16.210000000000001</ele>
        <time>2025-05-18T14:06:06Z</time>
      </trkpt>
      <trkpt lat="43.550723008811474" lon="7.019883971661329">
        <ele>-15.720000000000001</ele>
        <time>2025-05-18T14:06:07Z</time>
      </trkpt>
      <trkpt lat="43.550712028518319" lon="7.01994901522994">
        <ele>-15.720000000000001</ele>
        <time>2025-05-18T14:06:08Z</time>
      </trkpt>
      <trkpt lat="43.550701970234513" lon="7.020041970536113">
        <ele>-15.720000000000001</ele>
        <time>2025-05-18T14:06:09Z</time>
      </trkpt>
      <trkpt lat="43.550697024911642" lon="7.02012101188302">
        <ele>-14.76</ele>
        <time>2025-05-18T14:06:10Z</time>
      </trkpt>
      <trkpt lat="43.550690989941359" lon="7.020203992724419">
        <ele>-14.279999999999999</ele>
        <time>2025-05-18T14:06:11Z</time>
      </trkpt>
      <trkpt lat="43.550685960799456" lon="7.020279010757804">
        <ele>-13.32</ele>
        <time>2025-05-18T14:06:12Z</time>
      </trkpt>
      <trkpt lat="43.550667017698288" lon="7.020557038486004">
        <ele>-10.44</ele>
        <time>2025-05-18T14:06:18Z</time>
      </trkpt>
      <trkpt lat="43.550662994384766" lon="7.020608000457287">
        <ele>-9.960000000000001</ele>
        <time>2025-05-18T14:06:19Z</time>
      </trkpt>
      <trkpt lat="43.550647990778089" lon="7.020732974633575">
        <ele>-9</ele>
        <time>2025-05-18T14:06:21Z</time>
      </trkpt>
      <trkpt lat="43.55060800909996" lon="7.021054001525044">
        <ele>-7.55</ele>
        <time>2025-05-18T14:06:26Z</time>
      </trkpt>
      <trkpt lat="43.550599962472916" lon="7.021115021780133">
        <ele>-7.55</ele>
        <time>2025-05-18T14:06:27Z</time>
      </trkpt>
      <trkpt lat="43.550578001886606" lon="7.021293975412846">
        <ele>-6.59</ele>
        <time>2025-05-18T14:06:29Z</time>
      </trkpt>
      <trkpt lat="43.550492003560066" lon="7.021636962890625">
        <ele>-3.71</ele>
        <time>2025-05-18T14:06:39Z</time>
      </trkpt>
      <trkpt lat="43.550475994125009" lon="7.021728996187449">
        <ele>-2.75</ele>
        <time>2025-05-18T14:06:52Z</time>
      </trkpt>
      <trkpt lat="43.550408016890287" lon="7.022122023627162">
        <ele>-1.3</ele>
        <time>2025-05-18T14:07:01Z</time>
      </trkpt>
      <trkpt lat="43.55032604187727" lon="7.022598031908274">
        <ele>-0.34</ele>
        <time>2025-05-18T14:07:13Z</time>
      </trkpt>
      <trkpt lat="43.550277007743716" lon="7.022882010787725">
        <ele>1.1</ele>
        <time>2025-05-18T14:07:23Z</time>
      </trkpt>
      <trkpt lat="43.550212970003486" lon="7.023203037679195">
        <ele>1.1</ele>
        <time>2025-05-18T14:07:32Z</time>
      </trkpt>
      <trkpt lat="43.550196960568428" lon="7.023284006863833">
        <ele>1.1</ele>
        <time>2025-05-18T14:07:33Z</time>
      </trkpt>
      <trkpt lat="43.550163013860583" lon="7.023462038487196">
        <ele>1.58</ele>
        <time>2025-05-18T14:07:36Z</time>
      </trkpt>
      <trkpt lat="43.550152033567429" lon="7.023520041257143">
        <ele>1.1</ele>
        <time>2025-05-18T14:07:37Z</time>
      </trkpt>
      <trkpt lat="43.550140969455242" lon="7.023576032370329">
        <ele>1.1</ele>
        <time>2025-05-18T14:07:38Z</time>
      </trkpt>
      <trkpt lat="43.550129989162087" lon="7.023635962978005">
        <ele>1.1</ele>
        <time>2025-05-18T14:07:39Z</time>
      </trkpt>
      <trkpt lat="43.550118003040552" lon="7.023694971576333">
        <ele>0.62</ele>
        <time>2025-05-18T14:07:40Z</time>
      </trkpt>
      <trkpt lat="43.550106016919017" lon="7.023759009316564">
        <ele>0.62</ele>
        <time>2025-05-18T14:07:41Z</time>
      </trkpt>
      <trkpt lat="43.55009201914072" lon="7.023826986551285">
        <ele>0.62</ele>
        <time>2025-05-18T14:07:42Z</time>
      </trkpt>
      <trkpt lat="43.550081038847566" lon="7.023887000977993">
        <ele>0.62</ele>
        <time>2025-05-18T14:07:43Z</time>
      </trkpt>
      <trkpt lat="43.550068968906999" lon="7.023947015404701">
        <ele>0.14</ele>
        <time>2025-05-18T14:07:44Z</time>
      </trkpt>
      <trkpt lat="43.550056982785463" lon="7.024014992639422">
        <ele>0.14</ele>
        <time>2025-05-18T14:07:45Z</time>
      </trkpt>
      <trkpt lat="43.55004801414907" lon="7.024077018722892">
        <ele>0.14</ele>
        <time>2025-05-18T14:07:46Z</time>
      </trkpt>
      <trkpt lat="43.550040973350406" lon="7.024125969037414">
        <ele>0.14</ele>
        <time>2025-05-18T14:07:47Z</time>
      </trkpt>
      <trkpt lat="43.550038039684296" lon="7.024136027321219">
        <ele>-0.34</ele>
        <time>2025-05-18T14:07:48Z</time>
      </trkpt>
      <trkpt lat="43.549965033307672" lon="7.024369966238737">
        <ele>-1.79</ele>
        <time>2025-05-18T14:07:55Z</time>
      </trkpt>
      <trkpt lat="43.549931002780795" lon="7.024483038112521">
        <ele>-2.27</ele>
        <time>2025-05-18T14:07:57Z</time>
      </trkpt>
      <trkpt lat="43.549918010830879" lon="7.024538023397327">
        <ele>-2.27</ele>
        <time>2025-05-18T14:07:58Z</time>
      </trkpt>
      <trkpt lat="43.549905018880963" lon="7.024590997025371">
        <ele>-2.75</ele>
        <time>2025-05-18T14:07:59Z</time>
      </trkpt>
      <trkpt lat="43.549893032759428" lon="7.024641036987305">
        <ele>-2.75</ele>
        <time>2025-05-18T14:08:00Z</time>
      </trkpt>
      <trkpt lat="43.549880962818861" lon="7.024689987301827">
        <ele>-3.23</ele>
        <time>2025-05-18T14:08:01Z</time>
      </trkpt>
      <trkpt lat="43.549869982525706" lon="7.024738015606999">
        <ele>-3.23</ele>
        <time>2025-05-18T14:08:02Z</time>
      </trkpt>
      <trkpt lat="43.549860008060932" lon="7.024781014770269">
        <ele>-3.23</ele>
        <time>2025-05-18T14:08:03Z</time>
      </trkpt>
      <trkpt lat="43.549849027767777" lon="7.024824013933539">
        <ele>-3.23</ele>
        <time>2025-05-18T14:08:04Z</time>
      </trkpt>
      <trkpt lat="43.549800999462605" lon="7.025013025850058">
        <ele>2.06</ele>
        <time>2025-05-18T14:08:12Z</time>
      </trkpt>
      <trkpt lat="43.549800999462605" lon="7.025013025850058">
        <ele>2.06</ele>
        <time>2025-05-18T14:08:41Z</time>
      </trkpt>
      <trkpt lat="43.549800999462605" lon="7.025013025850058">
        <ele>2.54</ele>
        <time>2025-05-18T14:08:55Z</time>
      </trkpt>
      <trkpt lat="43.549800999462605" lon="7.025013025850058">
        <ele>9.75</ele>
        <time>2025-05-18T14:08:57Z</time>
      </trkpt>
      <trkpt lat="43.54976998642087" lon="7.02512601390481">
        <ele>11.19</ele>
        <time>2025-05-18T14:08:58Z</time>
      </trkpt>
      <trkpt lat="43.549763029441237" lon="7.025149986147881">
        <ele>12.15</ele>
        <time>2025-05-18T14:08:59Z</time>
      </trkpt>
      <trkpt lat="43.549753976985812" lon="7.025184016674757">
        <ele>12.630000000000001</ele>
        <time>2025-05-18T14:09:00Z</time>
      </trkpt>
      <trkpt lat="43.549740985035896" lon="7.025230033323169">
        <ele>13.119999999999999</ele>
        <time>2025-05-18T14:09:01Z</time>
      </trkpt>
      <trkpt lat="43.549516014754772" lon="7.025969987735152">
        <ele>10.710000000000001</ele>
        <time>2025-05-18T14:09:12Z</time>
      </trkpt>
      <trkpt lat="43.549491036683321" lon="7.026048023253679">
        <ele>11.19</ele>
        <time>2025-05-18T14:09:13Z</time>
      </trkpt>
      <trkpt lat="43.54944602586329" lon="7.026184983551502">
        <ele>11.19</ele>
        <time>2025-05-18T14:09:15Z</time>
      </trkpt>
      <trkpt lat="43.549377964809537" lon="7.0263940282166">
        <ele>12.630000000000001</ele>
        <time>2025-05-18T14:09:21Z</time>
      </trkpt>
      <trkpt lat="43.549366984516382" lon="7.026425041258335">
        <ele>12.630000000000001</ele>
        <time>2025-05-18T14:09:22Z</time>
      </trkpt>
      <trkpt lat="43.549356004223228" lon="7.026456976309419">
        <ele>12.630000000000001</ele>
        <time>2025-05-18T14:09:23Z</time>
      </trkpt>
      <trkpt lat="43.549346029758453" lon="7.026483966037631">
        <ele>12.630000000000001</ele>
        <time>2025-05-18T14:09:24Z</time>
      </trkpt>
      <trkpt lat="43.549337983131409" lon="7.026508022099733">
        <ele>12.630000000000001</ele>
        <time>2025-05-18T14:09:25Z</time>
      </trkpt>
      <trkpt lat="43.549332031980157" lon="7.026525037363172">
        <ele>12.630000000000001</ele>
        <time>2025-05-18T14:09:26Z</time>
      </trkpt>
      <trkpt lat="43.549323985353112" lon="7.0265459921211">
        <ele>12.630000000000001</ele>
        <time>2025-05-18T14:09:27Z</time>
      </trkpt>
      <trkpt lat="43.549315016716719" lon="7.026570970192552">
        <ele>13.119999999999999</ele>
        <time>2025-05-18T14:09:28Z</time>
      </trkpt>
      <trkpt lat="43.549305964261293" lon="7.026597037911415">
        <ele>13.119999999999999</ele>
        <time>2025-05-18T14:09:29Z</time>
      </trkpt>
      <trkpt lat="43.549299007281661" lon="7.026615981012583">
        <ele>13.6</ele>
        <time>2025-05-18T14:09:30Z</time>
      </trkpt>
      <trkpt lat="43.549269000068307" lon="7.026700973510742">
        <ele>13.6</ele>
        <time>2025-05-18T14:09:31Z</time>
      </trkpt>
      <trkpt lat="43.549229018390179" lon="7.026811027899385">
        <ele>15.52</ele>
        <time>2025-05-18T14:09:43Z</time>
      </trkpt>
      <trkpt lat="43.549114018678665" lon="7.027126019820571">
        <ele>14.56</ele>
        <time>2025-05-18T14:09:50Z</time>
      </trkpt>
      <trkpt lat="43.548925006762147" lon="7.027626000344753">
        <ele>13.119999999999999</ele>
        <time>2025-05-18T14:10:02Z</time>
      </trkpt>
      <trkpt lat="43.548901034519076" lon="7.027687020599842">
        <ele>13.119999999999999</ele>
        <time>2025-05-18T14:10:03Z</time>
      </trkpt>
      <trkpt lat="43.548878990113735" lon="7.027741000056267">
        <ele>13.119999999999999</ele>
        <time>2025-05-18T14:10:04Z</time>
      </trkpt>
      <trkpt lat="43.548859963193536" lon="7.027791040018201">
        <ele>13.119999999999999</ele>
        <time>2025-05-18T14:10:05Z</time>
      </trkpt>
      <trkpt lat="43.548836996778846" lon="7.027848958969116">
        <ele>13.119999999999999</ele>
        <time>2025-05-18T14:10:06Z</time>
      </trkpt>
      <trkpt lat="43.548814030364156" lon="7.027906961739063">
        <ele>13.119999999999999</ele>
        <time>2025-05-18T14:10:07Z</time>
      </trkpt>
      <trkpt lat="43.548793997615576" lon="7.027958007529378">
        <ele>13.119999999999999</ele>
        <time>2025-05-18T14:10:08Z</time>
      </trkpt>
      <trkpt lat="43.548772959038615" lon="7.028010981157422">
        <ele>13.119999999999999</ele>
        <time>2025-05-18T14:10:09Z</time>
      </trkpt>
      <trkpt lat="43.548732977360487" lon="7.02811298891902">
        <ele>13.6</ele>
        <time>2025-05-18T14:10:11Z</time>
      </trkpt>
      <trkpt lat="43.548614960163832" lon="7.028412977233529">
        <ele>15.52</ele>
        <time>2025-05-18T14:10:20Z</time>
      </trkpt>
      <trkpt lat="43.548604985699058" lon="7.028439966961741">
        <ele>15.52</ele>
        <time>2025-05-18T14:10:32Z</time>
      </trkpt>
      <trkpt lat="43.548431983217597" lon="7.028868030756712">
        <ele>15.039999999999999</ele>
        <time>2025-05-18T14:10:42Z</time>
      </trkpt>
      <trkpt lat="43.548363000154495" lon="7.029004991054535">
        <ele>14.08</ele>
        <time>2025-05-18T14:10:45Z</time>
      </trkpt>
      <trkpt lat="43.548213969916105" lon="7.029304979369044">
        <ele>13.6</ele>
        <time>2025-05-18T14:10:53Z</time>
      </trkpt>
      <trkpt lat="43.548203995451331" lon="7.029323000460863">
        <ele>13.6</ele>
        <time>2025-05-18T14:10:54Z</time>
      </trkpt>
      <trkpt lat="43.548195026814938" lon="7.029342027381063">
        <ele>13.119999999999999</ele>
        <time>2025-05-18T14:11:10Z</time>
      </trkpt>
      <trkpt lat="43.548141969367862" lon="7.029448980465531">
        <ele>14.56</ele>
        <time>2025-05-18T14:11:57Z</time>
      </trkpt>
      <trkpt lat="43.548117997124791" lon="7.029492985457182">
        <ele>15.039999999999999</ele>
        <time>2025-05-18T14:12:10Z</time>
      </trkpt>
      <trkpt lat="43.548117997124791" lon="7.029492985457182">
        <ele>14.56</ele>
        <time>2025-05-18T14:12:55Z</time>
      </trkpt>
      <trkpt lat="43.548117997124791" lon="7.029492985457182">
        <ele>14.56</ele>
        <time>2025-05-18T14:13:45Z</time>
      </trkpt>
      <trkpt lat="43.548091007396579" lon="7.029540007933974">
        <ele>13.6</ele>
        <time>2025-05-18T14:14:28Z</time>
      </trkpt>
      <trkpt lat="43.548053037375212" lon="7.029606979340315">
        <ele>13.6</ele>
        <time>2025-05-18T14:14:39Z</time>
      </trkpt>
      <trkpt lat="43.548053037375212" lon="7.029606979340315">
        <ele>13.6</ele>
        <time>2025-05-18T14:15:00Z</time>
      </trkpt>
      <trkpt lat="43.548053037375212" lon="7.029606979340315">
        <ele>10.710000000000001</ele>
        <time>2025-05-18T14:15:13Z</time>
      </trkpt>
      <trkpt lat="43.548053037375212" lon="7.029606979340315">
        <ele>8.310000000000001</ele>
        <time>2025-05-18T14:15:25Z</time>
      </trkpt>
      <trkpt lat="43.547941977158189" lon="7.029804037883878">
        <ele>3.5</ele>
        <time>2025-05-18T14:15:39Z</time>
      </trkpt>
      <trkpt lat="43.547747014090419" lon="7.030151970684528">
        <ele>-1.3</ele>
        <time>2025-05-18T14:15:51Z</time>
      </trkpt>
      <trkpt lat="43.547479966655374" lon="7.030686987563968">
        <ele>-2.75</ele>
        <time>2025-05-18T14:16:00Z</time>
      </trkpt>
      <trkpt lat="43.5474509652704" lon="7.030739961192012">
        <ele>-2.75</ele>
        <time>2025-05-18T14:16:01Z</time>
      </trkpt>
      <trkpt lat="43.547421963885427" lon="7.030794024467468">
        <ele>-3.23</ele>
        <time>2025-05-18T14:16:02Z</time>
      </trkpt>
      <trkpt lat="43.547421963885427" lon="7.030793018639088">
        <ele>-3.71</ele>
        <time>2025-05-18T14:16:03Z</time>
      </trkpt>
      <trkpt lat="43.547397991642356" lon="7.030836017802358">
        <ele>-3.71</ele>
        <time>2025-05-18T14:16:04Z</time>
      </trkpt>
      <trkpt lat="43.547355998307467" lon="7.030914975330234">
        <ele>-3.71</ele>
        <time>2025-05-18T14:16:05Z</time>
      </trkpt>
      <trkpt lat="43.547339988872409" lon="7.030950011685491">
        <ele>-3.71</ele>
        <time>2025-05-18T14:16:06Z</time>
      </trkpt>
      <trkpt lat="43.547320961952209" lon="7.030996028333902">
        <ele>-4.19</ele>
        <time>2025-05-18T14:16:07Z</time>
      </trkpt>
      <trkpt lat="43.547294978052378" lon="7.031056964769959">
        <ele>-3.71</ele>
        <time>2025-05-18T14:16:08Z</time>
      </trkpt>
      <trkpt lat="43.547294978052378" lon="7.031056964769959">
        <ele>-3.23</ele>
        <time>2025-05-18T14:16:09Z</time>
      </trkpt>
      <trkpt lat="43.547257008031011" lon="7.031117985025048">
        <ele>-2.75</ele>
        <time>2025-05-18T14:16:10Z</time>
      </trkpt>
      <trkpt lat="43.547238986939192" lon="7.031145980581641">
        <ele>-1.79</ele>
        <time>2025-05-18T14:16:11Z</time>
      </trkpt>
      <trkpt lat="43.547187019139528" lon="7.031228961423039">
        <ele>-1.3</ele>
        <time>2025-05-18T14:16:12Z</time>
      </trkpt>
      <trkpt lat="43.547207973897457" lon="7.031195014715195">
        <ele>-0.82</ele>
        <time>2025-05-18T14:16:13Z</time>
      </trkpt>
      <trkpt lat="43.547186013311148" lon="7.031230973079801">
        <ele>-0.34</ele>
        <time>2025-05-18T14:16:14Z</time>
      </trkpt>
      <trkpt lat="43.547173021361232" lon="7.031257040798664">
        <ele>0.14</ele>
        <time>2025-05-18T14:16:15Z</time>
      </trkpt>
      <trkpt lat="43.547157011926174" lon="7.031289981678128">
        <ele>0.62</ele>
        <time>2025-05-18T14:16:16Z</time>
      </trkpt>
      <trkpt lat="43.547141002491117" lon="7.031322000548244">
        <ele>1.1</ele>
        <time>2025-05-18T14:16:17Z</time>
      </trkpt>
      <trkpt lat="43.547109989449382" lon="7.031383020803332">
        <ele>1.58</ele>
        <time>2025-05-18T14:16:19Z</time>
      </trkpt>
      <trkpt lat="43.546983003616333" lon="7.031635986641049">
        <ele>5.42</ele>
        <time>2025-05-18T14:16:27Z</time>
      </trkpt>
      <trkpt lat="43.546957019716501" lon="7.031687032431364">
        <ele>5.91</ele>
        <time>2025-05-18T14:16:28Z</time>
      </trkpt>
      <trkpt lat="43.54693204164505" lon="7.031734976917505">
        <ele>5.91</ele>
        <time>2025-05-18T14:16:29Z</time>
      </trkpt>
      <trkpt lat="43.546732971444726" lon="7.032125992700458">
        <ele>5.91</ele>
        <time>2025-05-18T14:16:35Z</time>
      </trkpt>
      <trkpt lat="43.546698018908501" lon="7.032196987420321">
        <ele>5.91</ele>
        <time>2025-05-18T14:16:36Z</time>
      </trkpt>
      <trkpt lat="43.54626702144742" lon="7.033066023141146">
        <ele>8.789999999999999</ele>
        <time>2025-05-18T14:16:46Z</time>
      </trkpt>
      <trkpt lat="43.546172976493835" lon="7.033236008137465">
        <ele>8.789999999999999</ele>
        <time>2025-05-18T14:16:48Z</time>
      </trkpt>
      <trkpt lat="43.546046996489167" lon="7.033467013388872">
        <ele>7.83</ele>
        <time>2025-05-18T14:16:51Z</time>
      </trkpt>
      <trkpt lat="43.546023024246097" lon="7.033520992845297">
        <ele>7.35</ele>
        <time>2025-05-18T14:16:52Z</time>
      </trkpt>
      <trkpt lat="43.546002991497517" lon="7.033567009493709">
        <ele>7.35</ele>
        <time>2025-05-18T14:16:53Z</time>
      </trkpt>
      <trkpt lat="43.545968038961291" lon="7.033644039183855">
        <ele>5.42</ele>
        <time>2025-05-18T14:17:01Z</time>
      </trkpt>
      <trkpt lat="43.545954963192344" lon="7.033716039732099">
        <ele>5.91</ele>
        <time>2025-05-18T14:17:17Z</time>
      </trkpt>
      <trkpt lat="43.545954963192344" lon="7.033716039732099">
        <ele>6.39</ele>
        <time>2025-05-18T14:17:38Z</time>
      </trkpt>
      <trkpt lat="43.54594498872757" lon="7.033786028623581">
        <ele>5.91</ele>
        <time>2025-05-18T14:18:00Z</time>
      </trkpt>
      <trkpt lat="43.545938031747937" lon="7.033839002251625">
        <ele>6.39</ele>
        <time>2025-05-18T14:18:01Z</time>
      </trkpt>
      <trkpt lat="43.545929985120893" lon="7.033897005021572">
        <ele>6.39</ele>
        <time>2025-05-18T14:18:02Z</time>
      </trkpt>
      <trkpt lat="43.545921016484499" lon="7.033954001963139">
        <ele>6.39</ele>
        <time>2025-05-18T14:18:03Z</time>
      </trkpt>
      <trkpt lat="43.545939959585667" lon="7.033972023054957">
        <ele>6.39</ele>
        <time>2025-05-18T14:18:04Z</time>
      </trkpt>
      <trkpt lat="43.545940965414047" lon="7.033973028883338">
        <ele>6.39</ele>
        <time>2025-05-18T14:18:05Z</time>
      </trkpt>
      <trkpt lat="43.545999974012375" lon="7.034032037481666">
        <ele>6.39</ele>
        <time>2025-05-18T14:18:06Z</time>
      </trkpt>
      <trkpt lat="43.546291999518871" lon="7.034329008311033">
        <ele>6.39</ele>
        <time>2025-05-18T14:18:16Z</time>
      </trkpt>
      <trkpt lat="43.546429965645075" lon="7.034604018554092">
        <ele>7.35</ele>
        <time>2025-05-18T14:18:27Z</time>
      </trkpt>
      <trkpt lat="43.546538008376956" lon="7.034964021295309">
        <ele>7.83</ele>
        <time>2025-05-18T14:18:35Z</time>
      </trkpt>
      <trkpt lat="43.546548988670111" lon="7.035025041550398">
        <ele>7.83</ele>
        <time>2025-05-18T14:18:36Z</time>
      </trkpt>
      <trkpt lat="43.546558963134885" lon="7.035550000146031">
        <ele>9.27</ele>
        <time>2025-05-18T14:18:46Z</time>
      </trkpt>
      <trkpt lat="43.546551000326872" lon="7.035646978765726">
        <ele>9.27</ele>
        <time>2025-05-18T14:18:48Z</time>
      </trkpt>
      <trkpt lat="43.546544965356588" lon="7.035715039819479">
        <ele>9.27</ele>
        <time>2025-05-18T14:18:49Z</time>
      </trkpt>
      <trkpt lat="43.546538008376956" lon="7.035791985690594">
        <ele>9.27</ele>
        <time>2025-05-18T14:18:50Z</time>
      </trkpt>
      <trkpt lat="43.546529961749911" lon="7.035881001502276">
        <ele>9.75</ele>
        <time>2025-05-18T14:18:51Z</time>
      </trkpt>
      <trkpt lat="43.546521998941898" lon="7.035971023142338">
        <ele>9.27</ele>
        <time>2025-05-18T14:18:52Z</time>
      </trkpt>
      <trkpt lat="43.546515963971615" lon="7.036142013967037">
        <ele>8.789999999999999</ele>
        <time>2025-05-18T14:18:54Z</time>
      </trkpt>
      <trkpt lat="43.546513030305505" lon="7.036222983151674">
        <ele>9.27</ele>
        <time>2025-05-18T14:18:55Z</time>
      </trkpt>
      <trkpt lat="43.546478999778628" lon="7.037280024960637">
        <ele>11.67</ele>
        <time>2025-05-18T14:19:07Z</time>
      </trkpt>
      <trkpt lat="43.546457961201668" lon="7.037551011890173">
        <ele>13.6</ele>
        <time>2025-05-18T14:19:11Z</time>
      </trkpt>
      <trkpt lat="43.546414962038398" lon="7.037686966359615">
        <ele>14.08</ele>
        <time>2025-05-18T14:19:12Z</time>
      </trkpt>
      <trkpt lat="43.546414040029049" lon="7.037690989673138">
        <ele>14.08</ele>
        <time>2025-05-18T14:19:13Z</time>
      </trkpt>
      <trkpt lat="43.546399036422372" lon="7.037751004099846">
        <ele>14.56</ele>
        <time>2025-05-18T14:19:14Z</time>
      </trkpt>
      <trkpt lat="43.546422002837062" lon="7.037811018526554">
        <ele>14.56</ele>
        <time>2025-05-18T14:19:15Z</time>
      </trkpt>
      <trkpt lat="43.546457039192319" lon="7.037885030731559">
        <ele>14.56</ele>
        <time>2025-05-18T14:19:16Z</time>
      </trkpt>
      <trkpt lat="43.546449998393655" lon="7.038035988807678">
        <ele>14.56</ele>
        <time>2025-05-18T14:19:18Z</time>
      </trkpt>
      <trkpt lat="43.546445975080132" lon="7.038121987134218">
        <ele>14.56</ele>
        <time>2025-05-18T14:19:19Z</time>
      </trkpt>
      <trkpt lat="43.546442035585642" lon="7.038205973803997">
        <ele>14.56</ele>
        <time>2025-05-18T14:19:20Z</time>
      </trkpt>
      <trkpt lat="43.546423008665442" lon="7.038576034829021">
        <ele>15.52</ele>
        <time>2025-05-18T14:19:25Z</time>
      </trkpt>
      <trkpt lat="43.546409010887146" lon="7.038784995675087">
        <ele>16.48</ele>
        <time>2025-05-18T14:19:28Z</time>
      </trkpt>
      <trkpt lat="43.546402975916862" lon="7.038856996223331">
        <ele>16</ele>
        <time>2025-05-18T14:19:29Z</time>
      </trkpt>
      <trkpt lat="43.546398030593991" lon="7.038925979286432">
        <ele>16</ele>
        <time>2025-05-18T14:19:30Z</time>
      </trkpt>
      <trkpt lat="43.546393001452088" lon="7.038994040340185">
        <ele>16</ele>
        <time>2025-05-18T14:19:31Z</time>
      </trkpt>
      <trkpt lat="43.546388978138566" lon="7.039061011746526">
        <ele>16</ele>
        <time>2025-05-18T14:19:32Z</time>
      </trkpt>
      <trkpt lat="43.546371962875128" lon="7.039403999224305">
        <ele>15.039999999999999</ele>
        <time>2025-05-18T14:19:37Z</time>
      </trkpt>
      <trkpt lat="43.546371040865779" lon="7.039433000609279">
        <ele>14.56</ele>
        <time>2025-05-18T14:19:38Z</time>
      </trkpt>
      <trkpt lat="43.546365005895495" lon="7.039555041119456">
        <ele>15.039999999999999</ele>
        <time>2025-05-18T14:19:40Z</time>
      </trkpt>
      <trkpt lat="43.546361988410354" lon="7.039614971727133">
        <ele>15.039999999999999</ele>
        <time>2025-05-18T14:19:41Z</time>
      </trkpt>
      <trkpt lat="43.546358970925212" lon="7.039675991982222">
        <ele>15.039999999999999</ele>
        <time>2025-05-18T14:19:42Z</time>
      </trkpt>
      <trkpt lat="43.546356037259102" lon="7.03973701223731">
        <ele>15.039999999999999</ele>
        <time>2025-05-18T14:19:43Z</time>
      </trkpt>
      <trkpt lat="43.54635301977396" lon="7.03980197198689">
        <ele>15.52</ele>
        <time>2025-05-18T14:19:44Z</time>
      </trkpt>
      <trkpt lat="43.546351008117199" lon="7.039871038869023">
        <ele>16</ele>
        <time>2025-05-18T14:19:45Z</time>
      </trkpt>
      <trkpt lat="43.546347990632057" lon="7.040313016623259">
        <ele>18.879999999999999</ele>
        <time>2025-05-18T14:19:51Z</time>
      </trkpt>
      <trkpt lat="43.546331981197" lon="7.040747031569481">
        <ele>22.25</ele>
        <time>2025-05-18T14:19:59Z</time>
      </trkpt>
      <trkpt lat="43.546290993690491" lon="7.041884958744049">
        <ele>24.170000000000002</ele>
        <time>2025-05-18T14:20:11Z</time>
      </trkpt>
      <trkpt lat="43.546308008953929" lon="7.042155023664236">
        <ele>24.170000000000002</ele>
        <time>2025-05-18T14:20:14Z</time>
      </trkpt>
      <trkpt lat="43.546312032267451" lon="7.042247978970408">
        <ele>24.170000000000002</ele>
        <time>2025-05-18T14:20:15Z</time>
      </trkpt>
      <trkpt lat="43.546367017552257" lon="7.042784001678228">
        <ele>22.73</ele>
        <time>2025-05-18T14:20:21Z</time>
      </trkpt>
      <trkpt lat="43.546388978138566" lon="7.043014001101255">
        <ele>21.77</ele>
        <time>2025-05-18T14:20:24Z</time>
      </trkpt>
      <trkpt lat="43.546397024765611" lon="7.043092036619782">
        <ele>21.77</ele>
        <time>2025-05-18T14:20:25Z</time>
      </trkpt>
      <trkpt lat="43.546449998393655" lon="7.043614983558655">
        <ele>21.289999999999999</ele>
        <time>2025-05-18T14:20:31Z</time>
      </trkpt>
      <trkpt lat="43.546458967030048" lon="7.043705005198717">
        <ele>21.289999999999999</ele>
        <time>2025-05-18T14:20:32Z</time>
      </trkpt>
      <trkpt lat="43.546467013657093" lon="7.043789997696877">
        <ele>20.809999999999999</ele>
        <time>2025-05-18T14:20:33Z</time>
      </trkpt>
      <trkpt lat="43.546533985063434" lon="7.044230969622731">
        <ele>21.289999999999999</ele>
        <time>2025-05-18T14:20:38Z</time>
      </trkpt>
      <trkpt lat="43.546572960913181" lon="7.044300036504865">
        <ele>21.289999999999999</ele>
        <time>2025-05-18T14:20:39Z</time>
      </trkpt>
      <trkpt lat="43.546607997268438" lon="7.044360972940922">
        <ele>21.77</ele>
        <time>2025-05-18T14:20:40Z</time>
      </trkpt>
      <trkpt lat="43.546673962846398" lon="7.044414030387998">
        <ele>21.77</ele>
        <time>2025-05-18T14:20:41Z</time>
      </trkpt>
      <trkpt lat="43.546715034171939" lon="7.044446971267462">
        <ele>21.77</ele>
        <time>2025-05-18T14:20:42Z</time>
      </trkpt>
      <trkpt lat="43.54674001224339" lon="7.044446971267462">
        <ele>21.289999999999999</ele>
        <time>2025-05-18T14:20:43Z</time>
      </trkpt>
      <trkpt lat="43.546759961172938" lon="7.044446971267462">
        <ele>21.289999999999999</ele>
        <time>2025-05-18T14:20:44Z</time>
      </trkpt>
      <trkpt lat="43.546759961172938" lon="7.044446971267462">
        <ele>21.289999999999999</ele>
        <time>2025-05-18T14:20:45Z</time>
      </trkpt>
      <trkpt lat="43.546941010281444" lon="7.044446971267462">
        <ele>21.77</ele>
        <time>2025-05-18T14:20:54Z</time>
      </trkpt>
      <trkpt lat="43.547110995277762" lon="7.044446971267462">
        <ele>21.77</ele>
        <time>2025-05-18T14:20:59Z</time>
      </trkpt>
      <trkpt lat="43.547152988612652" lon="7.044491982087493">
        <ele>21.77</ele>
        <time>2025-05-18T14:21:00Z</time>
      </trkpt>
      <trkpt lat="43.54725600220263" lon="7.044652998447418">
        <ele>22.25</ele>
        <time>2025-05-18T14:21:05Z</time>
      </trkpt>
      <trkpt lat="43.547260025516152" lon="7.044713012874126">
        <ele>21.77</ele>
        <time>2025-05-18T14:21:06Z</time>
      </trkpt>
      <trkpt lat="43.547262959182262" lon="7.044773027300835">
        <ele>21.77</ele>
        <time>2025-05-18T14:21:07Z</time>
      </trkpt>
      <trkpt lat="43.547274023294449" lon="7.044948041439056">
        <ele>21.289999999999999</ele>
        <time>2025-05-18T14:21:10Z</time>
      </trkpt>
      <trkpt lat="43.547283997759223" lon="7.045017024502158">
        <ele>20.809999999999999</ele>
        <time>2025-05-18T14:21:11Z</time>
      </trkpt>
      <trkpt lat="43.547294978052378" lon="7.045090030878782">
        <ele>20.809999999999999</ele>
        <time>2025-05-18T14:21:12Z</time>
      </trkpt>
      <trkpt lat="43.547294978052378" lon="7.045158008113504">
        <ele>20.32</ele>
        <time>2025-05-18T14:21:13Z</time>
      </trkpt>
      <trkpt lat="43.547295983880758" lon="7.045234031975269">
        <ele>20.32</ele>
        <time>2025-05-18T14:21:14Z</time>
      </trkpt>
      <trkpt lat="43.547312999144197" lon="7.045419020578265">
        <ele>20.32</ele>
        <time>2025-05-18T14:21:17Z</time>
      </trkpt>
      <trkpt lat="43.54732196778059" lon="7.045480962842703">
        <ele>20.32</ele>
        <time>2025-05-18T14:21:18Z</time>
      </trkpt>
      <trkpt lat="43.547347029671073" lon="7.045672992244363">
        <ele>19.84</ele>
        <time>2025-05-18T14:21:21Z</time>
      </trkpt>
      <trkpt lat="43.547273017466068" lon="7.046331977471709">
        <ele>18.399999999999999</ele>
        <time>2025-05-18T14:21:29Z</time>
      </trkpt>
      <trkpt lat="43.547305958345532" lon="7.046435996890068">
        <ele>18.399999999999999</ele>
        <time>2025-05-18T14:21:30Z</time>
      </trkpt>
      <trkpt lat="43.547346023842692" lon="7.04650497995317">
        <ele>17.920000000000002</ele>
        <time>2025-05-18T14:21:31Z</time>
      </trkpt>
      <trkpt lat="43.547372007742524" lon="7.046585027128458">
        <ele>17.920000000000002</ele>
        <time>2025-05-18T14:21:32Z</time>
      </trkpt>
      <trkpt lat="43.547389023005962" lon="7.046662978827953">
        <ele>17.440000000000001</ele>
        <time>2025-05-18T14:21:33Z</time>
      </trkpt>
      <trkpt lat="43.547404026612639" lon="7.0467400085181">
        <ele>17.440000000000001</ele>
        <time>2025-05-18T14:21:34Z</time>
      </trkpt>
      <trkpt lat="43.547409977763891" lon="7.046811003237963">
        <ele>16.960000000000001</ele>
        <time>2025-05-18T14:21:35Z</time>
      </trkpt>
      <trkpt lat="43.547416012734175" lon="7.046875040978193">
        <ele>16.960000000000001</ele>
        <time>2025-05-18T14:21:36Z</time>
      </trkpt>
      <trkpt lat="43.547445014119148" lon="7.047228002920747">
        <ele>15.52</ele>
        <time>2025-05-18T14:21:42Z</time>
      </trkpt>
      <trkpt lat="43.547445014119148" lon="7.047291034832597">
        <ele>15.52</ele>
        <time>2025-05-18T14:21:43Z</time>
      </trkpt>
      <trkpt lat="43.547447025775909" lon="7.047361023724079">
        <ele>15.039999999999999</ele>
        <time>2025-05-18T14:21:44Z</time>
      </trkpt>
      <trkpt lat="43.547449037432671" lon="7.047435035929084">
        <ele>15.039999999999999</ele>
        <time>2025-05-18T14:21:45Z</time>
      </trkpt>
      <trkpt lat="43.547451971098781" lon="7.047508964315057">
        <ele>14.56</ele>
        <time>2025-05-18T14:21:46Z</time>
      </trkpt>
      <trkpt lat="43.547454988583922" lon="7.047585994005203">
        <ele>14.56</ele>
        <time>2025-05-18T14:21:47Z</time>
      </trkpt>
      <trkpt lat="43.547488013282418" lon="7.04860900528729">
        <ele>13.6</ele>
        <time>2025-05-18T14:21:57Z</time>
      </trkpt>
      <trkpt lat="43.547379970550537" lon="7.050223024562001">
        <ele>13.6</ele>
        <time>2025-05-18T14:22:08Z</time>
      </trkpt>
      <trkpt lat="43.547477032989264" lon="7.051568990573287">
        <ele>15.039999999999999</ele>
        <time>2025-05-18T14:22:17Z</time>
      </trkpt>
      <trkpt lat="43.54770602658391" lon="7.052911017090082">
        <ele>16.48</ele>
        <time>2025-05-18T14:22:28Z</time>
      </trkpt>
      <trkpt lat="43.548026969656348" lon="7.05378700979054">
        <ele>18.399999999999999</ele>
        <time>2025-05-18T14:22:38Z</time>
      </trkpt>
      <trkpt lat="43.548620995134115" lon="7.054830975830555">
        <ele>21.289999999999999</ele>
        <time>2025-05-18T14:22:48Z</time>
      </trkpt>
      <trkpt lat="43.549442002549767" lon="7.05576203763485">
        <ele>23.210000000000001</ele>
        <time>2025-05-18T14:22:57Z</time>
      </trkpt>
      <trkpt lat="43.550284970551729" lon="7.056420017033815">
        <ele>21.77</ele>
        <time>2025-05-18T14:23:07Z</time>
      </trkpt>
      <trkpt lat="43.551137996837497" lon="7.05701001919806">
        <ele>18.879999999999999</ele>
        <time>2025-05-18T14:23:19Z</time>
      </trkpt>
      <trkpt lat="43.552016001194715" lon="7.057703034952283">
        <ele>19.359999999999999</ele>
        <time>2025-05-18T14:23:30Z</time>
      </trkpt>
      <trkpt lat="43.553003976121545" lon="7.058549020439386">
        <ele>22.73</ele>
        <time>2025-05-18T14:23:41Z</time>
      </trkpt>
      <trkpt lat="43.553927997127175" lon="7.059602038934827">
        <ele>19.359999999999999</ele>
        <time>2025-05-18T14:23:51Z</time>
      </trkpt>
      <trkpt lat="43.555158041417599" lon="7.060936018824577">
        <ele>14.56</ele>
        <time>2025-05-18T14:24:02Z</time>
      </trkpt>
      <trkpt lat="43.556555975228548" lon="7.061971016228199">
        <ele>12.630000000000001</ele>
        <time>2025-05-18T14:24:13Z</time>
      </trkpt>
      <trkpt lat="43.55793203227222" lon="7.062957985326648">
        <ele>15.039999999999999</ele>
        <time>2025-05-18T14:24:25Z</time>
      </trkpt>
      <trkpt lat="43.558324975892901" lon="7.063364004716277">
        <ele>20.32</ele>
        <time>2025-05-18T14:24:33Z</time>
      </trkpt>
      <trkpt lat="43.558906009420753" lon="7.063944032415748">
        <ele>22.25</ele>
        <time>2025-05-18T14:24:40Z</time>
      </trkpt>
      <trkpt lat="43.559936983510852" lon="7.064925972372294">
        <ele>17.440000000000001</ele>
        <time>2025-05-18T14:24:50Z</time>
      </trkpt>
      <trkpt lat="43.561138026416302" lon="7.065825015306473">
        <ele>13.6</ele>
        <time>2025-05-18T14:24:59Z</time>
      </trkpt>
      <trkpt lat="43.562406962737441" lon="7.066453993320465">
        <ele>15.52</ele>
        <time>2025-05-18T14:25:08Z</time>
      </trkpt>
      <trkpt lat="43.563084974884987" lon="7.06685003824532">
        <ele>16.48</ele>
        <time>2025-05-18T14:25:15Z</time>
      </trkpt>
      <trkpt lat="43.563141971826553" lon="7.066912986338139">
        <ele>16</ele>
        <time>2025-05-18T14:25:16Z</time>
      </trkpt>
      <trkpt lat="43.563193017616868" lon="7.06698196940124">
        <ele>16</ele>
        <time>2025-05-18T14:25:17Z</time>
      </trkpt>
      <trkpt lat="43.563281027600169" lon="7.067169975489378">
        <ele>15.52</ele>
        <time>2025-05-18T14:25:19Z</time>
      </trkpt>
      <trkpt lat="43.563416982069612" lon="7.067204006016254">
        <ele>15.52</ele>
        <time>2025-05-18T14:25:20Z</time>
      </trkpt>
      <trkpt lat="43.563644969835877" lon="7.067492008209229">
        <ele>14.56</ele>
        <time>2025-05-18T14:25:23Z</time>
      </trkpt>
      <trkpt lat="43.563725017011166" lon="7.067549005150795">
        <ele>14.08</ele>
        <time>2025-05-18T14:25:24Z</time>
      </trkpt>
      <trkpt lat="43.563904976472259" lon="7.067665010690689">
        <ele>13.6</ele>
        <time>2025-05-18T14:25:26Z</time>
      </trkpt>
      <trkpt lat="43.564663035795093" lon="7.068392978981137">
        <ele>15.039999999999999</ele>
        <time>2025-05-18T14:25:34Z</time>
      </trkpt>
      <trkpt lat="43.564855987206101" lon="7.068603029474616">
        <ele>16</ele>
        <time>2025-05-18T14:25:36Z</time>
      </trkpt>
      <trkpt lat="43.565724017098546" lon="7.069763001054525">
        <ele>14.56</ele>
        <time>2025-05-18T14:25:46Z</time>
      </trkpt>
      <trkpt lat="43.566467994824052" lon="7.070615021511912">
        <ele>16.960000000000001</ele>
        <time>2025-05-18T14:25:54Z</time>
      </trkpt>
      <trkpt lat="43.566562961786985" lon="7.070709988474846">
        <ele>17.440000000000001</ele>
        <time>2025-05-18T14:25:55Z</time>
      </trkpt>
      <trkpt lat="43.566652983427048" lon="7.070800010114908">
        <ele>17.440000000000001</ele>
        <time>2025-05-18T14:25:56Z</time>
      </trkpt>
      <trkpt lat="43.566746022552252" lon="7.070892965421081">
        <ele>17.440000000000001</ele>
        <time>2025-05-18T14:25:57Z</time>
      </trkpt>
      <trkpt lat="43.56682900339365" lon="7.07097502425313">
        <ele>17.440000000000001</ele>
        <time>2025-05-18T14:25:58Z</time>
      </trkpt>
      <trkpt lat="43.566903015598655" lon="7.071049958467484">
        <ele>17.440000000000001</ele>
        <time>2025-05-18T14:25:59Z</time>
      </trkpt>
      <trkpt lat="43.566969987004995" lon="7.071120031177998">
        <ele>17.920000000000002</ele>
        <time>2025-05-18T14:26:00Z</time>
      </trkpt>
      <trkpt lat="43.567025978118181" lon="7.071179961785674">
        <ele>17.920000000000002</ele>
        <time>2025-05-18T14:26:01Z</time>
      </trkpt>
      <trkpt lat="43.56719302944839" lon="7.071357993409038">
        <ele>16.960000000000001</ele>
        <time>2025-05-18T14:26:08Z</time>
      </trkpt>
      <trkpt lat="43.567209960892797" lon="7.071376014500856">
        <ele>16.960000000000001</ele>
        <time>2025-05-18T14:26:20Z</time>
      </trkpt>
      <trkpt lat="43.567511960864067" lon="7.071697963401675">
        <ele>16</ele>
        <time>2025-05-18T14:26:27Z</time>
      </trkpt>
      <trkpt lat="43.567871963605285" lon="7.072229962795973">
        <ele>15.52</ele>
        <time>2025-05-18T14:26:34Z</time>
      </trkpt>
      <trkpt lat="43.568158037960529" lon="7.072860030457377">
        <ele>14.56</ele>
        <time>2025-05-18T14:26:42Z</time>
      </trkpt>
      <trkpt lat="43.5681820102036" lon="7.072918033227325">
        <ele>14.56</ele>
        <time>2025-05-18T14:26:43Z</time>
      </trkpt>
      <trkpt lat="43.568284017965198" lon="7.073174016550183">
        <ele>14.56</ele>
        <time>2025-05-18T14:26:48Z</time>
      </trkpt>
      <trkpt lat="43.568306984379888" lon="7.073235036805272">
        <ele>14.08</ele>
        <time>2025-05-18T14:26:49Z</time>
      </trkpt>
      <trkpt lat="43.568330034613609" lon="7.073295973241329">
        <ele>13.6</ele>
        <time>2025-05-18T14:26:50Z</time>
      </trkpt>
      <trkpt lat="43.568470012396574" lon="7.073651030659676">
        <ele>12.630000000000001</ele>
        <time>2025-05-18T14:26:55Z</time>
      </trkpt>
      <trkpt lat="43.568504964932799" lon="7.07372797653079">
        <ele>12.15</ele>
        <time>2025-05-18T14:26:56Z</time>
      </trkpt>
      <trkpt lat="43.568647960200906" lon="7.074084961786866">
        <ele>10.710000000000001</ele>
        <time>2025-05-18T14:27:00Z</time>
      </trkpt>
      <trkpt lat="43.568695988506079" lon="7.074171965941787">
        <ele>10.23</ele>
        <time>2025-05-18T14:27:01Z</time>
      </trkpt>
      <trkpt lat="43.568746028468013" lon="7.074255030602217">
        <ele>9.75</ele>
        <time>2025-05-18T14:27:02Z</time>
      </trkpt>
      <trkpt lat="43.568796990439296" lon="7.074340023100376">
        <ele>9.27</ele>
        <time>2025-05-18T14:27:03Z</time>
      </trkpt>
      <trkpt lat="43.56884803622961" lon="7.074425015598536">
        <ele>8.789999999999999</ele>
        <time>2025-05-18T14:27:04Z</time>
      </trkpt>
      <trkpt lat="43.568997988477349" lon="7.074661972001195">
        <ele>7.83</ele>
        <time>2025-05-18T14:27:07Z</time>
      </trkpt>
      <trkpt lat="43.569037970155478" lon="7.07475601695478">
        <ele>8.310000000000001</ele>
        <time>2025-05-18T14:27:08Z</time>
      </trkpt>
      <trkpt lat="43.569156993180513" lon="7.075074026361108">
        <ele>10.23</ele>
        <time>2025-05-18T14:27:15Z</time>
      </trkpt>
      <trkpt lat="43.56927802786231" lon="7.075451966375113">
        <ele>9.75</ele>
        <time>2025-05-18T14:27:22Z</time>
      </trkpt>
      <trkpt lat="43.569466033950448" lon="7.076096031814814">
        <ele>9.27</ele>
        <time>2025-05-18T14:27:29Z</time>
      </trkpt>
      <trkpt lat="43.569495035335422" lon="7.076197033748031">
        <ele>9.75</ele>
        <time>2025-05-18T14:27:30Z</time>
      </trkpt>
      <trkpt lat="43.569523030892015" lon="7.0763039868325">
        <ele>9.75</ele>
        <time>2025-05-18T14:27:31Z</time>
      </trkpt>
      <trkpt lat="43.569529987871647" lon="7.076404988765717">
        <ele>9.27</ele>
        <time>2025-05-18T14:27:32Z</time>
      </trkpt>
      <trkpt lat="43.569538034498692" lon="7.076520994305611">
        <ele>8.789999999999999</ele>
        <time>2025-05-18T14:27:33Z</time>
      </trkpt>
      <trkpt lat="43.569544991478324" lon="7.076652003452182">
        <ele>8.310000000000001</ele>
        <time>2025-05-18T14:27:34Z</time>
      </trkpt>
      <trkpt lat="43.569553960114717" lon="7.076788041740656">
        <ele>8.310000000000001</ele>
        <time>2025-05-18T14:27:35Z</time>
      </trkpt>
      <trkpt lat="43.569562006741762" lon="7.077935021370649">
        <ele>5.91</ele>
        <time>2025-05-18T14:27:44Z</time>
      </trkpt>
      <trkpt lat="43.569576004520059" lon="7.078062007203698">
        <ele>5.42</ele>
        <time>2025-05-18T14:27:45Z</time>
      </trkpt>
      <trkpt lat="43.569595031440258" lon="7.078183963894844">
        <ele>4.94</ele>
        <time>2025-05-18T14:27:46Z</time>
      </trkpt>
      <trkpt lat="43.569648005068302" lon="7.078404994681478">
        <ele>3.5</ele>
        <time>2025-05-18T14:27:48Z</time>
      </trkpt>
      <trkpt lat="43.570058969780803" lon="7.079223990440369">
        <ele>0.14</ele>
        <time>2025-05-18T14:27:56Z</time>
      </trkpt>
      <trkpt lat="43.570104986429214" lon="7.079317029565573">
        <ele>0.14</ele>
        <time>2025-05-18T14:27:57Z</time>
      </trkpt>
      <trkpt lat="43.570143962278962" lon="7.079394981265068">
        <ele>-0.34</ele>
        <time>2025-05-18T14:27:58Z</time>
      </trkpt>
      <trkpt lat="43.570174975320697" lon="7.079456001520157">
        <ele>-0.34</ele>
        <time>2025-05-18T14:27:59Z</time>
      </trkpt>
      <trkpt lat="43.57020397670567" lon="7.079514004290104">
        <ele>-0.34</ele>
        <time>2025-05-18T14:28:00Z</time>
      </trkpt>
      <trkpt lat="43.570229960605502" lon="7.079573012888432">
        <ele>-0.34</ele>
        <time>2025-05-18T14:28:01Z</time>
      </trkpt>
      <trkpt lat="43.570295004174113" lon="7.079725982621312">
        <ele>-0.82</ele>
        <time>2025-05-18T14:28:04Z</time>
      </trkpt>
      <trkpt lat="43.570317970588803" lon="7.079779040068388">
        <ele>-1.3</ele>
        <time>2025-05-18T14:28:05Z</time>
      </trkpt>
      <trkpt lat="43.570344038307667" lon="7.079839976504445">
        <ele>-1.3</ele>
        <time>2025-05-18T14:28:06Z</time>
      </trkpt>
      <trkpt lat="43.570373961701989" lon="7.079908959567547">
        <ele>-1.3</ele>
        <time>2025-05-18T14:28:07Z</time>
      </trkpt>
      <trkpt lat="43.570407992228866" lon="7.079991018399596">
        <ele>-1.79</ele>
        <time>2025-05-18T14:28:08Z</time>
      </trkpt>
      <trkpt lat="43.570436993613839" lon="7.08008699119091">
        <ele>-1.79</ele>
        <time>2025-05-18T14:28:09Z</time>
      </trkpt>
      <trkpt lat="43.570606978610158" lon="7.080871034413576">
        <ele>0.62</ele>
        <time>2025-05-18T14:28:16Z</time>
      </trkpt>
      <trkpt lat="43.570777969434857" lon="7.081896979361773">
        <ele>5.42</ele>
        <time>2025-05-18T14:28:26Z</time>
      </trkpt>
      <trkpt lat="43.570820968598127" lon="7.082137959077954">
        <ele>5.91</ele>
        <time>2025-05-18T14:28:28Z</time>
      </trkpt>
      <trkpt lat="43.570852987468243" lon="7.082254970446229">
        <ele>5.91</ele>
        <time>2025-05-18T14:28:29Z</time>
      </trkpt>
      <trkpt lat="43.57089196331799" lon="7.082369970157743">
        <ele>6.39</ele>
        <time>2025-05-18T14:28:30Z</time>
      </trkpt>
      <trkpt lat="43.570946026593447" lon="7.08247197791934">
        <ele>6.39</ele>
        <time>2025-05-18T14:28:31Z</time>
      </trkpt>
      <trkpt lat="43.570992965251207" lon="7.082563005387783">
        <ele>6.87</ele>
        <time>2025-05-18T14:28:32Z</time>
      </trkpt>
      <trkpt lat="43.571038981899619" lon="7.082650009542704">
        <ele>6.87</ele>
        <time>2025-05-18T14:28:33Z</time>
      </trkpt>
      <trkpt lat="43.571338970214128" lon="7.083096010610461">
        <ele>7.35</ele>
        <time>2025-05-18T14:28:38Z</time>
      </trkpt>
      <trkpt lat="43.57140501961112" lon="7.083189971745014">
        <ele>7.35</ele>
        <time>2025-05-18T14:28:39Z</time>
      </trkpt>
      <trkpt lat="43.571722023189068" lon="7.083634966984391">
        <ele>8.789999999999999</ele>
        <time>2025-05-18T14:28:44Z</time>
      </trkpt>
      <trkpt lat="43.571772985160351" lon="7.083706967532635">
        <ele>8.789999999999999</ele>
        <time>2025-05-18T14:28:45Z</time>
      </trkpt>
      <trkpt lat="43.572014970704913" lon="7.084009973332286">
        <ele>9.75</ele>
        <time>2025-05-18T14:28:53Z</time>
      </trkpt>
      <trkpt lat="43.572109015658498" lon="7.084113992750645">
        <ele>11.19</ele>
        <time>2025-05-18T14:29:17Z</time>
      </trkpt>
      <trkpt lat="43.572621988132596" lon="7.084807008504868">
        <ele>14.08</ele>
        <time>2025-05-18T14:29:26Z</time>
      </trkpt>
      <trkpt lat="43.572668004781008" lon="7.084925025701523">
        <ele>14.08</ele>
        <time>2025-05-18T14:29:27Z</time>
      </trkpt>
      <trkpt lat="43.573017027229071" lon="7.085834965109825">
        <ele>13.6</ele>
        <time>2025-05-18T14:29:37Z</time>
      </trkpt>
      <trkpt lat="43.573177037760615" lon="7.08629697561264">
        <ele>12.630000000000001</ele>
        <time>2025-05-18T14:29:46Z</time>
      </trkpt>
      <trkpt lat="43.573202015832067" lon="7.086368976160884">
        <ele>12.630000000000001</ele>
        <time>2025-05-18T14:29:47Z</time>
      </trkpt>
      <trkpt lat="43.573227999731898" lon="7.086442988365889">
        <ele>13.119999999999999</ele>
        <time>2025-05-18T14:29:48Z</time>
      </trkpt>
      <trkpt lat="43.57325398363173" lon="7.086517000570893">
        <ele>13.119999999999999</ele>
        <time>2025-05-18T14:29:49Z</time>
      </trkpt>
      <trkpt lat="43.573278961703181" lon="7.086590006947517">
        <ele>13.119999999999999</ele>
        <time>2025-05-18T14:29:50Z</time>
      </trkpt>
      <trkpt lat="43.573364960029721" lon="7.086806008592248">
        <ele>12.630000000000001</ele>
        <time>2025-05-18T14:29:53Z</time>
      </trkpt>
      <trkpt lat="43.573388010263443" lon="7.086859988048673">
        <ele>12.630000000000001</ele>
        <time>2025-05-18T14:29:54Z</time>
      </trkpt>
      <trkpt lat="43.573455987498164" lon="7.087180009111762">
        <ele>11.67</ele>
        <time>2025-05-18T14:30:03Z</time>
      </trkpt>
      <trkpt lat="43.573507033288479" lon="7.087645037099719">
        <ele>9.27</ele>
        <time>2025-05-18T14:30:11Z</time>
      </trkpt>
      <trkpt lat="43.573536034673452" lon="7.088381974026561">
        <ele>7.35</ele>
        <time>2025-05-18T14:30:18Z</time>
      </trkpt>
      <trkpt lat="43.573798974975944" lon="7.089653005823493">
        <ele>8.789999999999999</ele>
        <time>2025-05-18T14:30:29Z</time>
      </trkpt>
      <trkpt lat="43.573882961645722" lon="7.090042009949684">
        <ele>9.75</ele>
        <time>2025-05-18T14:30:33Z</time>
      </trkpt>
      <trkpt lat="43.573894025757909" lon="7.090122979134321">
        <ele>9.75</ele>
        <time>2025-05-18T14:30:34Z</time>
      </trkpt>
      <trkpt lat="43.573925960808992" lon="7.090358007699251">
        <ele>10.23</ele>
        <time>2025-05-18T14:30:37Z</time>
      </trkpt>
      <trkpt lat="43.573937024921179" lon="7.090435037389398">
        <ele>10.23</ele>
        <time>2025-05-18T14:30:38Z</time>
      </trkpt>
      <trkpt lat="43.57393903657794" lon="7.090506032109261">
        <ele>10.23</ele>
        <time>2025-05-18T14:30:39Z</time>
      </trkpt>
      <trkpt lat="43.573905006051064" lon="7.090575015172362">
        <ele>10.710000000000001</ele>
        <time>2025-05-18T14:30:40Z</time>
      </trkpt>
      <trkpt lat="43.573887990787625" lon="7.090680962428451">
        <ele>10.710000000000001</ele>
        <time>2025-05-18T14:30:41Z</time>
      </trkpt>
      <trkpt lat="43.573897965252399" lon="7.090758997946978">
        <ele>10.710000000000001</ele>
        <time>2025-05-18T14:30:42Z</time>
      </trkpt>
      <trkpt lat="43.573923027142882" lon="7.090829992666841">
        <ele>11.19</ele>
        <time>2025-05-18T14:30:43Z</time>
      </trkpt>
      <trkpt lat="43.573967032134533" lon="7.090901993215084">
        <ele>10.710000000000001</ele>
        <time>2025-05-18T14:30:44Z</time>
      </trkpt>
      <trkpt lat="43.574011959135532" lon="7.090962007641792">
        <ele>10.710000000000001</ele>
        <time>2025-05-18T14:30:45Z</time>
      </trkpt>
      <trkpt lat="43.574058981612325" lon="7.091030990704894">
        <ele>10.710000000000001</ele>
        <time>2025-05-18T14:30:46Z</time>
      </trkpt>
      <trkpt lat="43.574112039059401" lon="7.091109026223421">
        <ele>10.710000000000001</ele>
        <time>2025-05-18T14:30:47Z</time>
      </trkpt>
      <trkpt lat="43.574167024344206" lon="7.091202987357974">
        <ele>10.23</ele>
        <time>2025-05-18T14:30:48Z</time>
      </trkpt>
      <trkpt lat="43.574212035164237" lon="7.091330979019404">
        <ele>9.75</ele>
        <time>2025-05-18T14:30:49Z</time>
      </trkpt>
      <trkpt lat="43.574754009023309" lon="7.093083970248699">
        <ele>9.27</ele>
        <time>2025-05-18T14:31:02Z</time>
      </trkpt>
      <trkpt lat="43.575091967359185" lon="7.09445801563561">
        <ele>12.15</ele>
        <time>2025-05-18T14:31:12Z</time>
      </trkpt>
      <trkpt lat="43.575093979015946" lon="7.095665009692311">
        <ele>13.6</ele>
        <time>2025-05-18T14:31:22Z</time>
      </trkpt>
      <trkpt lat="43.575074030086398" lon="7.095866007730365">
        <ele>14.08</ele>
        <time>2025-05-18T14:31:27Z</time>
      </trkpt>
      <trkpt lat="43.575071012601256" lon="7.095895009115338">
        <ele>14.08</ele>
        <time>2025-05-18T14:31:34Z</time>
      </trkpt>
      <trkpt lat="43.575032958760858" lon="7.096276972442865">
        <ele>14.08</ele>
        <time>2025-05-18T14:31:41Z</time>
      </trkpt>
      <trkpt lat="43.575004041194916" lon="7.09656497463584">
        <ele>14.56</ele>
        <time>2025-05-18T14:31:47Z</time>
      </trkpt>
      <trkpt lat="43.574966993182898" lon="7.096945010125637">
        <ele>14.08</ele>
        <time>2025-05-18T14:31:51Z</time>
      </trkpt>
      <trkpt lat="43.574958024546504" lon="7.097033020108938">
        <ele>14.08</ele>
        <time>2025-05-18T14:31:52Z</time>
      </trkpt>
      <trkpt lat="43.574954001232982" lon="7.09708197042346">
        <ele>14.08</ele>
        <time>2025-05-18T14:31:53Z</time>
      </trkpt>
      <trkpt lat="43.574960036203265" lon="7.097179032862186">
        <ele>14.08</ele>
        <time>2025-05-18T14:31:54Z</time>
      </trkpt>
      <trkpt lat="43.574964981526136" lon="7.097248015925288">
        <ele>14.08</ele>
        <time>2025-05-18T14:31:55Z</time>
      </trkpt>
      <trkpt lat="43.574997000396252" lon="7.098026024177671">
        <ele>14.56</ele>
        <time>2025-05-18T14:32:04Z</time>
      </trkpt>
      <trkpt lat="43.575018038973212" lon="7.098288964480162">
        <ele>14.08</ele>
        <time>2025-05-18T14:32:07Z</time>
      </trkpt>
      <trkpt lat="43.575018038973212" lon="7.098332969471812">
        <ele>14.08</ele>
        <time>2025-05-18T14:32:08Z</time>
      </trkpt>
      <trkpt lat="43.575018038973212" lon="7.098359959200025">
        <ele>14.08</ele>
        <time>2025-05-18T14:32:09Z</time>
      </trkpt>
      <trkpt lat="43.575018038973212" lon="7.098359959200025">
        <ele>14.08</ele>
        <time>2025-05-18T14:32:23Z</time>
      </trkpt>
      <trkpt lat="43.575018038973212" lon="7.098359959200025">
        <ele>14.56</ele>
        <time>2025-05-18T14:33:02Z</time>
      </trkpt>
      <trkpt lat="43.575018038973212" lon="7.098363982513547">
        <ele>14.56</ele>
        <time>2025-05-18T14:33:21Z</time>
      </trkpt>
      <trkpt lat="43.575059026479721" lon="7.098824987187982">
        <ele>14.56</ele>
        <time>2025-05-18T14:33:26Z</time>
      </trkpt>
      <trkpt lat="43.575190035626292" lon="7.099484978243709">
        <ele>14.56</ele>
        <time>2025-05-18T14:33:30Z</time>
      </trkpt>
      <trkpt lat="43.575277961790562" lon="7.099602995440364">
        <ele>14.56</ele>
        <time>2025-05-18T14:33:31Z</time>
      </trkpt>
      <trkpt lat="43.575365971773863" lon="7.099705003201962">
        <ele>14.56</ele>
        <time>2025-05-18T14:33:32Z</time>
      </trkpt>
      <trkpt lat="43.575555989518762" lon="7.099896026775241">
        <ele>14.56</ele>
        <time>2025-05-18T14:33:34Z</time>
      </trkpt>
      <trkpt lat="43.575630001723766" lon="7.100029969587922">
        <ele>14.08</ele>
        <time>2025-05-18T14:33:35Z</time>
      </trkpt>
      <trkpt lat="43.575685992836952" lon="7.10017598234117">
        <ele>13.119999999999999</ele>
        <time>2025-05-18T14:33:36Z</time>
      </trkpt>
      <trkpt lat="43.575790012255311" lon="7.100450992584229">
        <ele>11.19</ele>
        <time>2025-05-18T14:33:38Z</time>
      </trkpt>
      <trkpt lat="43.575858995318413" lon="7.100560963153839">
        <ele>9.75</ele>
        <time>2025-05-18T14:33:39Z</time>
      </trkpt>
      <trkpt lat="43.575943987816572" lon="7.100632963702083">
        <ele>8.789999999999999</ele>
        <time>2025-05-18T14:33:40Z</time>
      </trkpt>
      <trkpt lat="43.576052030548453" lon="7.100658025592566">
        <ele>8.310000000000001</ele>
        <time>2025-05-18T14:33:41Z</time>
      </trkpt>
      <trkpt lat="43.576163006946445" lon="7.100684009492397">
        <ele>6.87</ele>
        <time>2025-05-18T14:33:42Z</time>
      </trkpt>
      <trkpt lat="43.5762810241431" lon="7.100705970078707">
        <ele>5.91</ele>
        <time>2025-05-18T14:33:43Z</time>
      </trkpt>
      <trkpt lat="43.576387977227569" lon="7.100724996998906">
        <ele>5.42</ele>
        <time>2025-05-18T14:33:44Z</time>
      </trkpt>
      <trkpt lat="43.576446985825896" lon="7.100804038345814">
        <ele>4.46</ele>
        <time>2025-05-18T14:33:45Z</time>
      </trkpt>
      <trkpt lat="43.576504988595843" lon="7.100928006693721">
        <ele>3.5</ele>
        <time>2025-05-18T14:33:46Z</time>
      </trkpt>
      <trkpt lat="43.57656299136579" lon="7.101052980870009">
        <ele>3.02</ele>
        <time>2025-05-18T14:33:47Z</time>
      </trkpt>
      <trkpt lat="43.576608002185822" lon="7.101203016936779">
        <ele>2.06</ele>
        <time>2025-05-18T14:33:48Z</time>
      </trkpt>
      <trkpt lat="43.57690597884357" lon="7.102746963500977">
        <ele>4.94</ele>
        <time>2025-05-18T14:33:58Z</time>
      </trkpt>
      <trkpt lat="43.577261958271265" lon="7.103991005569696">
        <ele>7.83</ele>
        <time>2025-05-18T14:34:07Z</time>
      </trkpt>
      <trkpt lat="43.577328007668257" lon="7.104560974985361">
        <ele>10.23</ele>
        <time>2025-05-18T14:34:11Z</time>
      </trkpt>
      <trkpt lat="43.577321972697973" lon="7.104693995788693">
        <ele>11.19</ele>
        <time>2025-05-18T14:34:12Z</time>
      </trkpt>
      <trkpt lat="43.57731400988996" lon="7.105038994923234">
        <ele>13.119999999999999</ele>
        <time>2025-05-18T14:34:15Z</time>
      </trkpt>
      <trkpt lat="43.57731400988996" lon="7.105106972157955">
        <ele>14.08</ele>
        <time>2025-05-18T14:34:16Z</time>
      </trkpt>
      <trkpt lat="43.577370001003146" lon="7.105186013504863">
        <ele>14.56</ele>
        <time>2025-05-18T14:34:17Z</time>
      </trkpt>
      <trkpt lat="43.577413000166416" lon="7.105246027931571">
        <ele>15.039999999999999</ele>
        <time>2025-05-18T14:34:18Z</time>
      </trkpt>
      <trkpt lat="43.577420962974429" lon="7.105258014053106">
        <ele>15.52</ele>
        <time>2025-05-18T14:34:19Z</time>
      </trkpt>
      <trkpt lat="43.577514002099633" lon="7.105422969907522">
        <ele>16.48</ele>
        <time>2025-05-18T14:34:21Z</time>
      </trkpt>
      <trkpt lat="43.57767703011632" lon="7.105734022334218">
        <ele>16.960000000000001</ele>
        <time>2025-05-18T14:34:24Z</time>
      </trkpt>
      <trkpt lat="43.578212969005108" lon="7.106960965320468">
        <ele>19.359999999999999</ele>
        <time>2025-05-18T14:34:32Z</time>
      </trkpt>
      <trkpt lat="43.57922600582242" lon="7.108611026778817">
        <ele>26.09</ele>
        <time>2025-05-18T14:34:41Z</time>
      </trkpt>
      <trkpt lat="43.579873004928231" lon="7.110155979171395">
        <ele>29.940000000000001</ele>
        <time>2025-05-18T14:34:48Z</time>
      </trkpt>
      <trkpt lat="43.579920027405024" lon="7.110405005514622">
        <ele>29.460000000000001</ele>
        <time>2025-05-18T14:34:49Z</time>
      </trkpt>
      <trkpt lat="43.580057993531227" lon="7.112074010074139">
        <ele>28.02</ele>
        <time>2025-05-18T14:34:56Z</time>
      </trkpt>
      <trkpt lat="43.580081965774298" lon="7.114231009036303">
        <ele>24.170000000000002</ele>
        <time>2025-05-18T14:35:05Z</time>
      </trkpt>
      <trkpt lat="43.580425037071109" lon="7.115544034168124">
        <ele>21.77</ele>
        <time>2025-05-18T14:35:12Z</time>
      </trkpt>
      <trkpt lat="43.580746985971928" lon="7.116287006065249">
        <ele>20.32</ele>
        <time>2025-05-18T14:35:15Z</time>
      </trkpt>
      <trkpt lat="43.581723980605602" lon="7.117439014837146">
        <ele>16</ele>
        <time>2025-05-18T14:35:23Z</time>
      </trkpt>
      <trkpt lat="43.582741040736437" lon="7.118024993687868">
        <ele>12.15</ele>
        <time>2025-05-18T14:35:30Z</time>
      </trkpt>
      <trkpt lat="43.583891037851572" lon="7.118420032784343">
        <ele>9.27</ele>
        <time>2025-05-18T14:35:38Z</time>
      </trkpt>
      <trkpt lat="43.584008971229196" lon="7.118453979492188">
        <ele>8.789999999999999</ele>
        <time>2025-05-18T14:35:39Z</time>
      </trkpt>
      <trkpt lat="43.584096981212497" lon="7.118489015847445">
        <ele>8.310000000000001</ele>
        <time>2025-05-18T14:35:40Z</time>
      </trkpt>
      <trkpt lat="43.584191026166081" lon="7.118526985868812">
        <ele>7.83</ele>
        <time>2025-05-18T14:35:41Z</time>
      </trkpt>
      <trkpt lat="43.58427400700748" lon="7.118547018617392">
        <ele>7.35</ele>
        <time>2025-05-18T14:35:42Z</time>
      </trkpt>
      <trkpt lat="43.584739034995437" lon="7.118616001680493">
        <ele>6.39</ele>
        <time>2025-05-18T14:35:49Z</time>
      </trkpt>
      <trkpt lat="43.584802988916636" lon="7.118625976145268">
        <ele>6.39</ele>
        <time>2025-05-18T14:35:50Z</time>
      </trkpt>
      <trkpt lat="43.584836013615131" lon="7.118625976145268">
        <ele>6.39</ele>
        <time>2025-05-18T14:35:51Z</time>
      </trkpt>
      <trkpt lat="43.585036005824804" lon="7.118605021387339">
        <ele>7.35</ele>
        <time>2025-05-18T14:35:55Z</time>
      </trkpt>
      <trkpt lat="43.585082022473216" lon="7.118575014173985">
        <ele>7.83</ele>
        <time>2025-05-18T14:35:56Z</time>
      </trkpt>
      <trkpt lat="43.585131978616118" lon="7.118541989475489">
        <ele>7.83</ele>
        <time>2025-05-18T14:35:57Z</time>
      </trkpt>
      <trkpt lat="43.585167014971375" lon="7.118518017232418">
        <ele>8.310000000000001</ele>
        <time>2025-05-18T14:35:58Z</time>
      </trkpt>
      <trkpt lat="43.585183024406433" lon="7.118473006412387">
        <ele>8.310000000000001</ele>
        <time>2025-05-18T14:35:59Z</time>
      </trkpt>
      <trkpt lat="43.58524102717638" lon="7.118297992274165">
        <ele>10.23</ele>
        <time>2025-05-18T14:36:04Z</time>
      </trkpt>
      <trkpt lat="43.585382010787725" lon="7.118324982002378">
        <ele>10.23</ele>
        <time>2025-05-18T14:36:05Z</time>
      </trkpt>
      <trkpt lat="43.585641011595726" lon="7.118431013077498">
        <ele>11.19</ele>
        <time>2025-05-18T14:36:08Z</time>
      </trkpt>
      <trkpt lat="43.585743019357324" lon="7.118472000584006">
        <ele>11.19</ele>
        <time>2025-05-18T14:36:09Z</time>
      </trkpt>
      <trkpt lat="43.585846032947302" lon="7.118513993918896">
        <ele>11.19</ele>
        <time>2025-05-18T14:36:10Z</time>
      </trkpt>
      <trkpt lat="43.585961032658815" lon="7.118561016395688">
        <ele>11.19</ele>
        <time>2025-05-18T14:36:11Z</time>
      </trkpt>
      <trkpt lat="43.586050970479846" lon="7.118594041094184">
        <ele>11.67</ele>
        <time>2025-05-18T14:36:12Z</time>
      </trkpt>
      <trkpt lat="43.586496971547604" lon="7.118763020262122">
        <ele>12.630000000000001</ele>
        <time>2025-05-18T14:36:17Z</time>
      </trkpt>
      <trkpt lat="43.586572995409369" lon="7.118793027475476">
        <ele>12.630000000000001</ele>
        <time>2025-05-18T14:36:18Z</time>
      </trkpt>
      <trkpt lat="43.587125027552247" lon="7.119005005806685">
        <ele>15.52</ele>
        <time>2025-05-18T14:36:27Z</time>
      </trkpt>
      <trkpt lat="43.587284032255411" lon="7.119065020233393">
        <ele>16.960000000000001</ele>
        <time>2025-05-18T14:36:37Z</time>
      </trkpt>
      <trkpt lat="43.587313033640385" lon="7.119076000526547">
        <ele>16.960000000000001</ele>
        <time>2025-05-18T14:36:57Z</time>
      </trkpt>
      <trkpt lat="43.587375981733203" lon="7.11910299025476">
        <ele>17.920000000000002</ele>
        <time>2025-05-18T14:36:58Z</time>
      </trkpt>
      <trkpt lat="43.587443958967924" lon="7.119131991639733">
        <ele>17.920000000000002</ele>
        <time>2025-05-18T14:36:59Z</time>
      </trkpt>
      <trkpt lat="43.58837996609509" lon="7.119460981339216">
        <ele>19.359999999999999</ele>
        <time>2025-05-18T14:37:09Z</time>
      </trkpt>
      <trkpt lat="43.589574974030256" lon="7.120207976549864">
        <ele>21.289999999999999</ele>
        <time>2025-05-18T14:37:21Z</time>
      </trkpt>
      <trkpt lat="43.590644001960754" lon="7.120797978714109">
        <ele>23.690000000000001</ele>
        <time>2025-05-18T14:37:32Z</time>
      </trkpt>
      <trkpt lat="43.590839970856905" lon="7.120855981484056">
        <ele>24.649999999999999</ele>
        <time>2025-05-18T14:37:34Z</time>
      </trkpt>
      <trkpt lat="43.591374987736344" lon="7.120899986475706">
        <ele>26.09</ele>
        <time>2025-05-18T14:37:40Z</time>
      </trkpt>
      <trkpt lat="43.591470960527658" lon="7.120899986475706">
        <ele>27.050000000000001</ele>
        <time>2025-05-18T14:37:41Z</time>
      </trkpt>
      <trkpt lat="43.592235976830125" lon="7.120804013684392">
        <ele>28.02</ele>
        <time>2025-05-18T14:37:48Z</time>
      </trkpt>
      <trkpt lat="43.592447033151984" lon="7.120727989822626">
        <ele>27.530000000000001</ele>
        <time>2025-05-18T14:37:50Z</time>
      </trkpt>
      <trkpt lat="43.592875013127923" lon="7.120486004278064">
        <ele>25.609999999999999</ele>
        <time>2025-05-18T14:37:55Z</time>
      </trkpt>
      <trkpt lat="43.593063019216061" lon="7.120382990688086">
        <ele>24.649999999999999</ele>
        <time>2025-05-18T14:37:57Z</time>
      </trkpt>
      <trkpt lat="43.593157986178994" lon="7.120333034545183">
        <ele>24.649999999999999</ele>
        <time>2025-05-18T14:37:58Z</time>
      </trkpt>
      <trkpt lat="43.593838009983301" lon="7.120108986273408">
        <ele>24.170000000000002</ele>
        <time>2025-05-18T14:38:06Z</time>
      </trkpt>
      <trkpt lat="43.593943035230041" lon="7.120089959353209">
        <ele>23.690000000000001</ele>
        <time>2025-05-18T14:38:14Z</time>
      </trkpt>
      <trkpt lat="43.594176974147558" lon="7.12004603818059">
        <ele>23.210000000000001</ele>
        <time>2025-05-18T14:38:33Z</time>
      </trkpt>
      <trkpt lat="43.594989012926817" lon="7.120038997381926">
        <ele>21.289999999999999</ele>
        <time>2025-05-18T14:38:40Z</time>
      </trkpt>
      <trkpt lat="43.596345037221909" lon="7.120062969624996">
        <ele>20.32</ele>
        <time>2025-05-18T14:38:51Z</time>
      </trkpt>
      <trkpt lat="43.597577009350061" lon="7.120187021791935">
        <ele>21.289999999999999</ele>
        <time>2025-05-18T14:39:01Z</time>
      </trkpt>
      <trkpt lat="43.599118022248149" lon="7.120669987052679">
        <ele>20.32</ele>
        <time>2025-05-18T14:39:14Z</time>
      </trkpt>
      <trkpt lat="43.599455980584025" lon="7.120875008404255">
        <ele>17.920000000000002</ele>
        <time>2025-05-18T14:39:17Z</time>
      </trkpt>
      <trkpt lat="43.599825035780668" lon="7.121225036680698">
        <ele>15.52</ele>
        <time>2025-05-18T14:39:21Z</time>
      </trkpt>
      <trkpt lat="43.599987979978323" lon="7.121386975049973">
        <ele>14.08</ele>
        <time>2025-05-18T14:39:24Z</time>
      </trkpt>
      <trkpt lat="43.600027039647102" lon="7.121426034718752">
        <ele>13.6</ele>
        <time>2025-05-18T14:39:25Z</time>
      </trkpt>
      <trkpt lat="43.600054029375315" lon="7.121453024446964">
        <ele>13.6</ele>
        <time>2025-05-18T14:39:26Z</time>
      </trkpt>
      <trkpt lat="43.600071966648102" lon="7.121470961719751">
        <ele>13.119999999999999</ele>
        <time>2025-05-18T14:39:27Z</time>
      </trkpt>
      <trkpt lat="43.600085964426398" lon="7.121484959498048">
        <ele>12.630000000000001</ele>
        <time>2025-05-18T14:39:28Z</time>
      </trkpt>
      <trkpt lat="43.600085964426398" lon="7.121484959498048">
        <ele>11.67</ele>
        <time>2025-05-18T14:39:44Z</time>
      </trkpt>
      <trkpt lat="43.600372038781643" lon="7.121782014146447">
        <ele>12.15</ele>
        <time>2025-05-18T14:40:03Z</time>
      </trkpt>
      <trkpt lat="43.601160021498799" lon="7.12225902825594">
        <ele>10.23</ele>
        <time>2025-05-18T14:40:11Z</time>
      </trkpt>
      <trkpt lat="43.602356035262346" lon="7.122569996863604">
        <ele>11.67</ele>
        <time>2025-05-18T14:40:21Z</time>
      </trkpt>
      <trkpt lat="43.603449035435915" lon="7.122809970751405">
        <ele>13.119999999999999</ele>
        <time>2025-05-18T14:40:30Z</time>
      </trkpt>
      <trkpt lat="43.603559006005526" lon="7.122832015156746">
        <ele>13.119999999999999</ele>
        <time>2025-05-18T14:40:31Z</time>
      </trkpt>
      <trkpt lat="43.605119967833161" lon="7.123253960162401">
        <ele>13.119999999999999</ele>
        <time>2025-05-18T14:40:44Z</time>
      </trkpt>
      <trkpt lat="43.606489989906549" lon="7.123756036162376">
        <ele>13.119999999999999</ele>
        <time>2025-05-18T14:40:56Z</time>
      </trkpt>
      <trkpt lat="43.606821997091174" lon="7.123880004510284">
        <ele>13.6</ele>
        <time>2025-05-18T14:41:03Z</time>
      </trkpt>
      <trkpt lat="43.607099018990993" lon="7.123967008665204">
        <ele>14.08</ele>
        <time>2025-05-18T14:41:17Z</time>
      </trkpt>
      <trkpt lat="43.607443012297153" lon="7.124145040288568">
        <ele>14.08</ele>
        <time>2025-05-18T14:41:23Z</time>
      </trkpt>
      <trkpt lat="43.608442973345518" lon="7.124636974185705">
        <ele>15.039999999999999</ele>
        <time>2025-05-18T14:41:32Z</time>
      </trkpt>
      <trkpt lat="43.609645022079349" lon="7.125241979956627">
        <ele>15.039999999999999</ele>
        <time>2025-05-18T14:41:40Z</time>
      </trkpt>
      <trkpt lat="43.611183017492294" lon="7.126011019572616">
        <ele>10.710000000000001</ele>
        <time>2025-05-18T14:41:51Z</time>
      </trkpt>
      <trkpt lat="43.61229001544416" lon="7.126521980389953">
        <ele>9.75</ele>
        <time>2025-05-18T14:42:00Z</time>
      </trkpt>
      <trkpt lat="43.613301962614059" lon="7.127064038068056">
        <ele>9.27</ele>
        <time>2025-05-18T14:42:09Z</time>
      </trkpt>
      <trkpt lat="43.615598017349839" lon="7.128036003559828">
        <ele>10.710000000000001</ele>
        <time>2025-05-18T14:42:22Z</time>
      </trkpt>
      <trkpt lat="43.617613026872277" lon="7.128695994615555">
        <ele>11.19</ele>
        <time>2025-05-18T14:42:34Z</time>
      </trkpt>
      <trkpt lat="43.619641028344631" lon="7.12937300093472">
        <ele>11.67</ele>
        <time>2025-05-18T14:42:46Z</time>
      </trkpt>
      <trkpt lat="43.621159996837378" lon="7.129913968965411">
        <ele>12.15</ele>
        <time>2025-05-18T14:42:55Z</time>
      </trkpt>
      <trkpt lat="43.623300986364484" lon="7.130811000242829">
        <ele>12.15</ele>
        <time>2025-05-18T14:43:08Z</time>
      </trkpt>
      <trkpt lat="43.624760024249554" lon="7.13145799934864">
        <ele>11.67</ele>
        <time>2025-05-18T14:43:18Z</time>
      </trkpt>
      <trkpt lat="43.625594023615122" lon="7.13184398598969">
        <ele>11.19</ele>
        <time>2025-05-18T14:43:28Z</time>
      </trkpt>
      <trkpt lat="43.626277986913919" lon="7.132174987345934">
        <ele>10.710000000000001</ele>
        <time>2025-05-18T14:43:37Z</time>
      </trkpt>
      <trkpt lat="43.626717031002045" lon="7.132386965677142">
        <ele>12.630000000000001</ele>
        <time>2025-05-18T14:43:46Z</time>
      </trkpt>
      <trkpt lat="43.627311978489161" lon="7.132670022547245">
        <ele>12.630000000000001</ele>
        <time>2025-05-18T14:43:56Z</time>
      </trkpt>
      <trkpt lat="43.627968030050397" lon="7.132976967841387">
        <ele>12.15</ele>
        <time>2025-05-18T14:44:06Z</time>
      </trkpt>
      <trkpt lat="43.628666996955872" lon="7.133316015824676">
        <ele>10.23</ele>
        <time>2025-05-18T14:44:16Z</time>
      </trkpt>
      <trkpt lat="43.629147028550506" lon="7.133537968620658">
        <ele>10.23</ele>
        <time>2025-05-18T14:44:27Z</time>
      </trkpt>
      <trkpt lat="43.629574002698064" lon="7.133747013285756">
        <ele>10.23</ele>
        <time>2025-05-18T14:44:36Z</time>
      </trkpt>
      <trkpt lat="43.629734013229609" lon="7.133822031319141">
        <ele>11.67</ele>
        <time>2025-05-18T14:44:55Z</time>
      </trkpt>
      <trkpt lat="43.630212033167481" lon="7.134039038792253">
        <ele>12.15</ele>
        <time>2025-05-18T14:45:07Z</time>
      </trkpt>
      <trkpt lat="43.630501963198185" lon="7.134158983826637">
        <ele>12.15</ele>
        <time>2025-05-18T14:45:12Z</time>
      </trkpt>
      <trkpt lat="43.63083497621119" lon="7.134306002408266">
        <ele>11.19</ele>
        <time>2025-05-18T14:45:21Z</time>
      </trkpt>
      <trkpt lat="43.631093977019191" lon="7.13442100211978">
        <ele>11.19</ele>
        <time>2025-05-18T14:45:34Z</time>
      </trkpt>
      <trkpt lat="43.63111300393939" lon="7.134428964927793">
        <ele>11.19</ele>
        <time>2025-05-18T14:45:45Z</time>
      </trkpt>
      <trkpt lat="43.631309978663921" lon="7.1345080062747">
        <ele>10.710000000000001</ele>
        <time>2025-05-18T14:46:03Z</time>
      </trkpt>
      <trkpt lat="43.631449034437537" lon="7.134562991559506">
        <ele>9.75</ele>
        <time>2025-05-18T14:46:05Z</time>
      </trkpt>
      <trkpt lat="43.631897969171405" lon="7.134638009592891">
        <ele>7.83</ele>
        <time>2025-05-18T14:46:14Z</time>
      </trkpt>
      <trkpt lat="43.631922025233507" lon="7.134641027078033">
        <ele>6.87</ele>
        <time>2025-05-18T14:46:30Z</time>
      </trkpt>
      <trkpt lat="43.632265012711287" lon="7.134611019864678">
        <ele>7.83</ele>
        <time>2025-05-18T14:46:39Z</time>
      </trkpt>
      <trkpt lat="43.632611017674208" lon="7.134497025981545">
        <ele>9.27</ele>
        <time>2025-05-18T14:46:48Z</time>
      </trkpt>
      <trkpt lat="43.63313396461308" lon="7.134290998801589">
        <ele>11.19</ele>
        <time>2025-05-18T14:46:57Z</time>
      </trkpt>
      <trkpt lat="43.634214978665113" lon="7.133854972198606">
        <ele>13.6</ele>
        <time>2025-05-18T14:47:10Z</time>
      </trkpt>
      <trkpt lat="43.635209994390607" lon="7.133683981373906">
        <ele>16.48</ele>
        <time>2025-05-18T14:47:22Z</time>
      </trkpt>
      <trkpt lat="43.635979034006596" lon="7.133560013025999">
        <ele>17.920000000000002</ele>
        <time>2025-05-18T14:47:32Z</time>
      </trkpt>
      <trkpt lat="43.636151030659676" lon="7.133646011352539">
        <ele>17.920000000000002</ele>
        <time>2025-05-18T14:47:33Z</time>
      </trkpt>
      <trkpt lat="43.636830970644951" lon="7.13360401801765">
        <ele>19.359999999999999</ele>
        <time>2025-05-18T14:47:39Z</time>
      </trkpt>
      <trkpt lat="43.636932978406549" lon="7.133666966110468">
        <ele>19.84</ele>
        <time>2025-05-18T14:47:40Z</time>
      </trkpt>
      <trkpt lat="43.637035991996527" lon="7.133736032992601">
        <ele>20.32</ele>
        <time>2025-05-18T14:47:41Z</time>
      </trkpt>
      <trkpt lat="43.63713095895946" lon="7.133810967206955">
        <ele>20.809999999999999</ele>
        <time>2025-05-18T14:47:42Z</time>
      </trkpt>
      <trkpt lat="43.637216035276651" lon="7.133903000503779">
        <ele>21.289999999999999</ele>
        <time>2025-05-18T14:47:43Z</time>
      </trkpt>
      <trkpt lat="43.637293986976147" lon="7.133995033800602">
        <ele>21.77</ele>
        <time>2025-05-18T14:47:44Z</time>
      </trkpt>
      <trkpt lat="43.637367999181151" lon="7.134082959964871">
        <ele>21.77</ele>
        <time>2025-05-18T14:47:45Z</time>
      </trkpt>
      <trkpt lat="43.637441005557775" lon="7.134168958291411">
        <ele>21.77</ele>
        <time>2025-05-18T14:47:46Z</time>
      </trkpt>
      <trkpt lat="43.638083981350064" lon="7.135477038100362">
        <ele>19.84</ele>
        <time>2025-05-18T14:47:55Z</time>
      </trkpt>
      <trkpt lat="43.638634001836181" lon="7.136652013286948">
        <ele>15.52</ele>
        <time>2025-05-18T14:48:03Z</time>
      </trkpt>
      <trkpt lat="43.638945976272225" lon="7.137546027079225">
        <ele>13.6</ele>
        <time>2025-05-18T14:48:10Z</time>
      </trkpt>
      <trkpt lat="43.638983024284244" lon="7.137636970728636">
        <ele>13.119999999999999</ele>
        <time>2025-05-18T14:48:11Z</time>
      </trkpt>
      <trkpt lat="43.639353001490235" lon="7.138349013403058">
        <ele>10.710000000000001</ele>
        <time>2025-05-18T14:48:19Z</time>
      </trkpt>
      <trkpt lat="43.639392983168364" lon="7.138431994244456">
        <ele>10.710000000000001</ele>
        <time>2025-05-18T14:48:20Z</time>
      </trkpt>
      <trkpt lat="43.639521980658174" lon="7.138693006709218">
        <ele>11.19</ele>
        <time>2025-05-18T14:48:23Z</time>
      </trkpt>
      <trkpt lat="43.639573026448488" lon="7.138795014470816">
        <ele>11.19</ele>
        <time>2025-05-18T14:48:24Z</time>
      </trkpt>
      <trkpt lat="43.640037970617414" lon="7.139760022982955">
        <ele>11.67</ele>
        <time>2025-05-18T14:48:33Z</time>
      </trkpt>
      <trkpt lat="43.640730986371636" lon="7.141127027571201">
        <ele>10.710000000000001</ele>
        <time>2025-05-18T14:48:45Z</time>
      </trkpt>
      <trkpt lat="43.641622988507152" lon="7.142426976934075">
        <ele>10.23</ele>
        <time>2025-05-18T14:48:57Z</time>
      </trkpt>
      <trkpt lat="43.642705008387566" lon="7.143672024831176">
        <ele>11.67</ele>
        <time>2025-05-18T14:49:10Z</time>
      </trkpt>
      <trkpt lat="43.643043972551823" lon="7.14404602535069">
        <ele>12.15</ele>
        <time>2025-05-18T14:49:14Z</time>
      </trkpt>
      <trkpt lat="43.643127959221601" lon="7.144147027283907">
        <ele>11.67</ele>
        <time>2025-05-18T14:49:15Z</time>
      </trkpt>
      <trkpt lat="43.643624000251293" lon="7.14467198587954">
        <ele>11.67</ele>
        <time>2025-05-18T14:49:22Z</time>
      </trkpt>
      <trkpt lat="43.64370396360755" lon="7.144718002527952">
        <ele>11.67</ele>
        <time>2025-05-18T14:49:23Z</time>
      </trkpt>
      <trkpt lat="43.64379096776247" lon="7.144724959507585">
        <ele>11.67</ele>
        <time>2025-05-18T14:49:24Z</time>
      </trkpt>
      <trkpt lat="43.643878977745771" lon="7.144733006134629">
        <ele>11.67</ele>
        <time>2025-05-18T14:49:25Z</time>
      </trkpt>
      <trkpt lat="43.643967993557453" lon="7.144740968942642">
        <ele>11.67</ele>
        <time>2025-05-18T14:49:26Z</time>
      </trkpt>
      <trkpt lat="43.644235963001847" lon="7.144830990582705">
        <ele>10.710000000000001</ele>
        <time>2025-05-18T14:49:29Z</time>
      </trkpt>
      <trkpt lat="43.644323972985148" lon="7.144902991130948">
        <ele>10.23</ele>
        <time>2025-05-18T14:49:30Z</time>
      </trkpt>
      <trkpt lat="43.644410977140069" lon="7.144974991679192">
        <ele>9.75</ele>
        <time>2025-05-18T14:49:31Z</time>
      </trkpt>
      <trkpt lat="43.644457999616861" lon="7.145072976127267">
        <ele>9.27</ele>
        <time>2025-05-18T14:49:32Z</time>
      </trkpt>
      <trkpt lat="43.644508961588144" lon="7.145179007202387">
        <ele>8.789999999999999</ele>
        <time>2025-05-18T14:49:33Z</time>
      </trkpt>
      <trkpt lat="43.644559001550078" lon="7.145283026620746">
        <ele>8.310000000000001</ele>
        <time>2025-05-18T14:49:34Z</time>
      </trkpt>
      <trkpt lat="43.644840968772769" lon="7.145876968279481">
        <ele>8.310000000000001</ele>
        <time>2025-05-18T14:49:40Z</time>
      </trkpt>
      <trkpt lat="43.644946999847889" lon="7.145966989919543">
        <ele>7.83</ele>
        <time>2025-05-18T14:49:41Z</time>
      </trkpt>
      <trkpt lat="43.645021012052894" lon="7.146033961325884">
        <ele>7.83</ele>
        <time>2025-05-18T14:49:42Z</time>
      </trkpt>
      <trkpt lat="43.645093012601137" lon="7.146101016551256">
        <ele>7.83</ele>
        <time>2025-05-18T14:49:43Z</time>
      </trkpt>
      <trkpt lat="43.645164007321" lon="7.146168993785977">
        <ele>7.35</ele>
        <time>2025-05-18T14:49:44Z</time>
      </trkpt>
      <trkpt lat="43.646110994741321" lon="7.147054960951209">
        <ele>7.35</ele>
        <time>2025-05-18T14:49:57Z</time>
      </trkpt>
      <trkpt lat="43.647134006023407" lon="7.148040002211928">
        <ele>6.39</ele>
        <time>2025-05-18T14:50:10Z</time>
      </trkpt>
      <trkpt lat="43.648116029798985" lon="7.148982966318727">
        <ele>5.42</ele>
        <time>2025-05-18T14:50:23Z</time>
      </trkpt>
      <trkpt lat="43.648512996733189" lon="7.149438019841909">
        <ele>5.42</ele>
        <time>2025-05-18T14:50:31Z</time>
      </trkpt>
      <trkpt lat="43.648548033088446" lon="7.149476995691657">
        <ele>5.42</ele>
        <time>2025-05-18T14:50:32Z</time>
      </trkpt>
      <trkpt lat="43.648582985624671" lon="7.149515971541405">
        <ele>5.42</ele>
        <time>2025-05-18T14:50:33Z</time>
      </trkpt>
      <trkpt lat="43.648620033636689" lon="7.149556959047914">
        <ele>5.42</ele>
        <time>2025-05-18T14:50:34Z</time>
      </trkpt>
      <trkpt lat="43.648656997829676" lon="7.149597024545074">
        <ele>5.42</ele>
        <time>2025-05-18T14:50:35Z</time>
      </trkpt>
      <trkpt lat="43.648691028356552" lon="7.149634994566441">
        <ele>5.91</ele>
        <time>2025-05-18T14:50:36Z</time>
      </trkpt>
      <trkpt lat="43.648723969236016" lon="7.149671036750078">
        <ele>5.91</ele>
        <time>2025-05-18T14:50:37Z</time>
      </trkpt>
      <trkpt lat="43.648784989491105" lon="7.149738008156419">
        <ele>5.91</ele>
        <time>2025-05-18T14:50:39Z</time>
      </trkpt>
      <trkpt lat="43.648818014189601" lon="7.149772960692644">
        <ele>5.91</ele>
        <time>2025-05-18T14:50:40Z</time>
      </trkpt>
      <trkpt lat="43.648850033059716" lon="7.149809002876282">
        <ele>5.91</ele>
        <time>2025-05-18T14:50:41Z</time>
      </trkpt>
      <trkpt lat="43.64909796975553" lon="7.150103040039539">
        <ele>5.91</ele>
        <time>2025-05-18T14:50:51Z</time>
      </trkpt>
      <trkpt lat="43.64911800250411" lon="7.15012701228261">
        <ele>5.42</ele>
        <time>2025-05-18T14:50:59Z</time>
      </trkpt>
      <trkpt lat="43.64911800250411" lon="7.15012701228261">
        <ele>5.42</ele>
        <time>2025-05-18T14:51:22Z</time>
      </trkpt>
      <trkpt lat="43.64911800250411" lon="7.15012701228261">
        <ele>4.94</ele>
        <time>2025-05-18T14:51:41Z</time>
      </trkpt>
      <trkpt lat="43.649416984990239" lon="7.150476034730673">
        <ele>6.39</ele>
        <time>2025-05-18T14:51:54Z</time>
      </trkpt>
      <trkpt lat="43.649572972208261" lon="7.150650965049863">
        <ele>8.310000000000001</ele>
        <time>2025-05-18T14:52:03Z</time>
      </trkpt>
      <trkpt lat="43.649730971083045" lon="7.150825979188085">
        <ele>9.27</ele>
        <time>2025-05-18T14:52:17Z</time>
      </trkpt>
      <trkpt lat="43.649797020480037" lon="7.150946008041501">
        <ele>8.789999999999999</ele>
        <time>2025-05-18T14:52:28Z</time>
      </trkpt>
      <trkpt lat="43.650024002417922" lon="7.151161003857851">
        <ele>6.87</ele>
        <time>2025-05-18T14:52:39Z</time>
      </trkpt>
      <trkpt lat="43.650216031819582" lon="7.151325959712267">
        <ele>6.39</ele>
        <time>2025-05-18T14:52:48Z</time>
      </trkpt>
      <trkpt lat="43.650262970477343" lon="7.151383040472865">
        <ele>5.91</ele>
        <time>2025-05-18T14:52:49Z</time>
      </trkpt>
      <trkpt lat="43.650304963812232" lon="7.151434002444148">
        <ele>5.91</ele>
        <time>2025-05-18T14:52:50Z</time>
      </trkpt>
      <trkpt lat="43.650346035137773" lon="7.151483036577702">
        <ele>5.91</ele>
        <time>2025-05-18T14:52:51Z</time>
      </trkpt>
      <trkpt lat="43.650376964360476" lon="7.151520000770688">
        <ele>5.42</ele>
        <time>2025-05-18T14:52:52Z</time>
      </trkpt>
      <trkpt lat="43.650463968515396" lon="7.151681017130613">
        <ele>4.94</ele>
        <time>2025-05-18T14:53:00Z</time>
      </trkpt>
      <trkpt lat="43.650463968515396" lon="7.151681017130613">
        <ele>4.94</ele>
        <time>2025-05-18T14:53:38Z</time>
      </trkpt>
      <trkpt lat="43.650463968515396" lon="7.151681017130613">
        <ele>4.94</ele>
        <time>2025-05-18T14:54:02Z</time>
      </trkpt>
      <trkpt lat="43.650588020682335" lon="7.151942029595375">
        <ele>4.94</ele>
        <time>2025-05-18T14:54:14Z</time>
      </trkpt>
      <trkpt lat="43.650620961561799" lon="7.152021992951632">
        <ele>4.94</ele>
        <time>2025-05-18T14:54:15Z</time>
      </trkpt>
      <trkpt lat="43.650763034820557" lon="7.151957033202052">
        <ele>4.94</ele>
        <time>2025-05-18T14:54:16Z</time>
      </trkpt>
      <trkpt lat="43.650809973478317" lon="7.151983017101884">
        <ele>4.94</ele>
        <time>2025-05-18T14:54:17Z</time>
      </trkpt>
      <trkpt lat="43.650852972641587" lon="7.152004977688193">
        <ele>4.94</ele>
        <time>2025-05-18T14:54:18Z</time>
      </trkpt>
      <trkpt lat="43.650913992896676" lon="7.152034984901547">
        <ele>5.42</ele>
        <time>2025-05-18T14:54:19Z</time>
      </trkpt>
      <trkpt lat="43.651113985106349" lon="7.152024004608393">
        <ele>3.5</ele>
        <time>2025-05-18T14:54:28Z</time>
      </trkpt>
      <trkpt lat="43.651173999533057" lon="7.15201998129487">
        <ele>2.54</ele>
        <time>2025-05-18T14:54:44Z</time>
      </trkpt>
      <trkpt lat="43.651173999533057" lon="7.15201998129487">
        <ele>2.54</ele>
        <time>2025-05-18T14:55:01Z</time>
      </trkpt>
      <trkpt lat="43.651242982596159" lon="7.15201604180038">
        <ele>2.54</ele>
        <time>2025-05-18T14:55:04Z</time>
      </trkpt>
      <trkpt lat="43.651278018951416" lon="7.152014030143619">
        <ele>2.54</ele>
        <time>2025-05-18T14:55:05Z</time>
      </trkpt>
      <trkpt lat="43.651336021721363" lon="7.152009001001716">
        <ele>3.02</ele>
        <time>2025-05-18T14:55:07Z</time>
      </trkpt>
      <trkpt lat="43.651379020884633" lon="7.152004977688193">
        <ele>3.5</ele>
        <time>2025-05-18T14:55:08Z</time>
      </trkpt>
      <trkpt lat="43.651725025847554" lon="7.151957033202052">
        <ele>3.5</ele>
        <time>2025-05-18T14:55:15Z</time>
      </trkpt>
      <trkpt lat="43.651970028877258" lon="7.151917973533273">
        <ele>3.98</ele>
        <time>2025-05-18T14:55:24Z</time>
      </trkpt>
      <trkpt lat="43.652208996936679" lon="7.151881009340286">
        <ele>4.94</ele>
        <time>2025-05-18T14:55:35Z</time>
      </trkpt>
      <trkpt lat="43.652264988049865" lon="7.151872962713242">
        <ele>5.42</ele>
        <time>2025-05-18T14:55:44Z</time>
      </trkpt>
      <trkpt lat="43.652264988049865" lon="7.151872962713242">
        <ele>5.91</ele>
        <time>2025-05-18T14:56:05Z</time>
      </trkpt>
      <trkpt lat="43.652483001351357" lon="7.151840021833777">
        <ele>10.23</ele>
        <time>2025-05-18T14:56:22Z</time>
      </trkpt>
      <trkpt lat="43.652582997456193" lon="7.1518250182271">
        <ele>11.19</ele>
        <time>2025-05-18T14:56:59Z</time>
      </trkpt>
      <trkpt lat="43.652969989925623" lon="7.151774978265166">
        <ele>12.15</ele>
        <time>2025-05-18T14:57:06Z</time>
      </trkpt>
      <trkpt lat="43.653135029599071" lon="7.151750000193715">
        <ele>14.08</ele>
        <time>2025-05-18T14:57:14Z</time>
      </trkpt>
      <trkpt lat="43.653286993503571" lon="7.151722004637122">
        <ele>14.56</ele>
        <time>2025-05-18T14:57:27Z</time>
      </trkpt>
      <trkpt lat="43.653792003169656" lon="7.151661990210414">
        <ele>14.08</ele>
        <time>2025-05-18T14:57:36Z</time>
      </trkpt>
      <trkpt lat="43.654097020626068" lon="7.151607004925609">
        <ele>14.56</ele>
        <time>2025-05-18T14:57:45Z</time>
      </trkpt>
      <trkpt lat="43.654097020626068" lon="7.151607004925609">
        <ele>15.039999999999999</ele>
        <time>2025-05-18T14:58:03Z</time>
      </trkpt>
      <trkpt lat="43.654322996735573" lon="7.1515660174191">
        <ele>16</ele>
        <time>2025-05-18T14:58:16Z</time>
      </trkpt>
      <trkpt lat="43.654322996735573" lon="7.1515660174191">
        <ele>16.48</ele>
        <time>2025-05-18T14:58:29Z</time>
      </trkpt>
      <trkpt lat="43.654547967016697" lon="7.151527963578701">
        <ele>18.399999999999999</ele>
        <time>2025-05-18T14:58:37Z</time>
      </trkpt>
      <trkpt lat="43.654749970883131" lon="7.151499968022108">
        <ele>19.359999999999999</ele>
        <time>2025-05-18T14:58:44Z</time>
      </trkpt>
      <trkpt lat="43.654749970883131" lon="7.151499968022108">
        <ele>19.359999999999999</ele>
        <time>2025-05-18T14:58:59Z</time>
      </trkpt>
      <trkpt lat="43.654749970883131" lon="7.151499968022108">
        <ele>19.359999999999999</ele>
        <time>2025-05-18T14:59:29Z</time>
      </trkpt>
      <trkpt lat="43.654925990849733" lon="7.151477001607418">
        <ele>16.960000000000001</ele>
        <time>2025-05-18T14:59:58Z</time>
      </trkpt>
      <trkpt lat="43.655205024406314" lon="7.151343980804086">
        <ele>15.52</ele>
        <time>2025-05-18T15:00:03Z</time>
      </trkpt>
      <trkpt lat="43.655257998034358" lon="7.151329983025789">
        <ele>15.52</ele>
        <time>2025-05-18T15:00:04Z</time>
      </trkpt>
      <trkpt lat="43.655308960005641" lon="7.151316991075873">
        <ele>15.52</ele>
        <time>2025-05-18T15:00:05Z</time>
      </trkpt>
      <trkpt lat="43.655366040766239" lon="7.151305004954338">
        <ele>15.52</ele>
        <time>2025-05-18T15:00:06Z</time>
      </trkpt>
      <trkpt lat="43.655412979424" lon="7.151298969984055">
        <ele>15.52</ele>
        <time>2025-05-18T15:00:07Z</time>
      </trkpt>
      <trkpt lat="43.65545698441565" lon="7.151295030489564">
        <ele>15.52</ele>
        <time>2025-05-18T15:00:08Z</time>
      </trkpt>
      <trkpt lat="43.65562504157424" lon="7.151276003569365">
        <ele>16</ele>
        <time>2025-05-18T15:00:13Z</time>
      </trkpt>
      <trkpt lat="43.65562504157424" lon="7.151276003569365">
        <ele>16</ele>
        <time>2025-05-18T15:00:21Z</time>
      </trkpt>
      <trkpt lat="43.65562504157424" lon="7.151276003569365">
        <ele>16</ele>
        <time>2025-05-18T15:00:41Z</time>
      </trkpt>
      <trkpt lat="43.65562504157424" lon="7.151276003569365">
        <ele>16</ele>
        <time>2025-05-18T15:01:13Z</time>
      </trkpt>
      <trkpt lat="43.65562504157424" lon="7.151276003569365">
        <ele>16.48</ele>
        <time>2025-05-18T15:01:37Z</time>
      </trkpt>
      <trkpt lat="43.655682960525155" lon="7.151455041021109">
        <ele>103</ele>
        <time>2025-05-18T15:31:54Z</time>
      </trkpt>
      <trkpt lat="43.655695030465722" lon="7.151325037702918">
        <ele>45.32</ele>
        <time>2025-05-18T15:32:15Z</time>
      </trkpt>
      <trkpt lat="43.655708022415638" lon="7.151325959712267">
        <ele>49.159999999999997</ele>
        <time>2025-05-18T15:32:42Z</time>
      </trkpt>
      <trkpt lat="43.655723026022315" lon="7.151284972205758">
        <ele>48.68</ele>
        <time>2025-05-18T15:32:46Z</time>
      </trkpt>
      <trkpt lat="43.655595034360886" lon="7.151199979707599">
        <ele>40.509999999999998</ele>
        <time>2025-05-18T15:32:57Z</time>
      </trkpt>
      <trkpt lat="43.655586987733841" lon="7.151198973879218">
        <ele>40.030000000000001</ele>
        <time>2025-05-18T15:32:58Z</time>
      </trkpt>
      <trkpt lat="43.655548011884093" lon="7.151283966377378">
        <ele>40.030000000000001</ele>
        <time>2025-05-18T15:33:00Z</time>
      </trkpt>
      <trkpt lat="43.655409961938858" lon="7.151299975812435">
        <ele>36.670000000000002</ele>
        <time>2025-05-18T15:33:10Z</time>
      </trkpt>
      <trkpt lat="43.655291022732854" lon="7.151322020217776">
        <ele>28.5</ele>
        <time>2025-05-18T15:33:37Z</time>
      </trkpt>
      <trkpt lat="43.655199995264411" lon="7.151344986632466">
        <ele>28.02</ele>
        <time>2025-05-18T15:33:45Z</time>
      </trkpt>
      <trkpt lat="43.655107039958239" lon="7.151368036866188">
        <ele>27.050000000000001</ele>
        <time>2025-05-18T15:33:57Z</time>
      </trkpt>
      <trkpt lat="43.655107039958239" lon="7.151368036866188">
        <ele>28.02</ele>
        <time>2025-05-18T15:34:24Z</time>
      </trkpt>
      <trkpt lat="43.655107039958239" lon="7.151368036866188">
        <ele>28.02</ele>
        <time>2025-05-18T15:34:31Z</time>
      </trkpt>
      <trkpt lat="43.655097987502813" lon="7.151369964703918">
        <ele>28.02</ele>
        <time>2025-05-18T15:34:32Z</time>
      </trkpt>
      <trkpt lat="43.655139980837703" lon="7.151483036577702">
        <ele>25.609999999999999</ele>
        <time>2025-05-18T15:34:39Z</time>
      </trkpt>
      <trkpt lat="43.655149033293128" lon="7.151506002992392">
        <ele>25.609999999999999</ele>
        <time>2025-05-18T15:34:41Z</time>
      </trkpt>
      <trkpt lat="43.655164036899805" lon="7.151544978842139">
        <ele>24.649999999999999</ele>
        <time>2025-05-18T15:34:42Z</time>
      </trkpt>
      <trkpt lat="43.65517501719296" lon="7.151574986055493">
        <ele>23.690000000000001</ele>
        <time>2025-05-18T15:34:52Z</time>
      </trkpt>
      <trkpt lat="43.655216004699469" lon="7.151685040444136">
        <ele>22.73</ele>
        <time>2025-05-18T15:35:03Z</time>
      </trkpt>
      <trkpt lat="43.655317006632686" lon="7.152010006830096">
        <ele>22.25</ele>
        <time>2025-05-18T15:35:22Z</time>
      </trkpt>
      <trkpt lat="43.655438963323832" lon="7.152436980977655">
        <ele>19.84</ele>
        <time>2025-05-18T15:35:29Z</time>
      </trkpt>
      <trkpt lat="43.65545698441565" lon="7.152496995404363">
        <ele>19.359999999999999</ele>
        <time>2025-05-18T15:35:30Z</time>
      </trkpt>
      <trkpt lat="43.655491014942527" lon="7.152609983459115">
        <ele>18.399999999999999</ele>
        <time>2025-05-18T15:35:32Z</time>
      </trkpt>
      <trkpt lat="43.655508030205965" lon="7.152665974572301">
        <ele>17.920000000000002</ele>
        <time>2025-05-18T15:35:33Z</time>
      </trkpt>
      <trkpt lat="43.655568966642022" lon="7.152869990095496">
        <ele>14.08</ele>
        <time>2025-05-18T15:35:42Z</time>
      </trkpt>
      <trkpt lat="43.655568966642022" lon="7.152869990095496">
        <ele>14.08</ele>
        <time>2025-05-18T15:36:19Z</time>
      </trkpt>
      <trkpt lat="43.655610959976912" lon="7.153011979535222">
        <ele>10.710000000000001</ele>
        <time>2025-05-18T15:36:23Z</time>
      </trkpt>
      <trkpt lat="43.655633004382253" lon="7.153085991740227">
        <ele>10.23</ele>
        <time>2025-05-18T15:36:24Z</time>
      </trkpt>
      <trkpt lat="43.655870966613293" lon="7.153883026912808">
        <ele>8.310000000000001</ele>
        <time>2025-05-18T15:36:33Z</time>
      </trkpt>
      <trkpt lat="43.655915977433324" lon="7.154088970273733">
        <ele>7.83</ele>
        <time>2025-05-18T15:36:37Z</time>
      </trkpt>
      <trkpt lat="43.655955959111452" lon="7.154216961935163">
        <ele>7.35</ele>
        <time>2025-05-18T15:36:46Z</time>
      </trkpt>
      <trkpt lat="43.655998958274722" lon="7.154354006052017">
        <ele>7.35</ele>
        <time>2025-05-18T15:36:55Z</time>
      </trkpt>
      <trkpt lat="43.656094009056687" lon="7.154647959396243">
        <ele>6.39</ele>
        <time>2025-05-18T15:37:07Z</time>
      </trkpt>
      <trkpt lat="43.656235998496413" lon="7.155077029019594">
        <ele>5.91</ele>
        <time>2025-05-18T15:37:13Z</time>
      </trkpt>
      <trkpt lat="43.656301964074373" lon="7.155256988480687">
        <ele>6.87</ele>
        <time>2025-05-18T15:37:20Z</time>
      </trkpt>
      <trkpt lat="43.656352004036307" lon="7.155392020940781">
        <ele>6.87</ele>
        <time>2025-05-18T15:37:29Z</time>
      </trkpt>
      <trkpt lat="43.6563799995929" lon="7.155463015660644">
        <ele>6.87</ele>
        <time>2025-05-18T15:37:41Z</time>
      </trkpt>
      <trkpt lat="43.656479995697737" lon="7.155691003426909">
        <ele>9.75</ele>
        <time>2025-05-18T15:38:14Z</time>
      </trkpt>
      <trkpt lat="43.656712006777525" lon="7.156269019469619">
        <ele>9.27</ele>
        <time>2025-05-18T15:38:23Z</time>
      </trkpt>
      <trkpt lat="43.656712006777525" lon="7.156269019469619">
        <ele>8.789999999999999</ele>
        <time>2025-05-18T15:38:36Z</time>
      </trkpt>
      <trkpt lat="43.656781995669007" lon="7.156451996415854">
        <ele>9.27</ele>
        <time>2025-05-18T15:38:46Z</time>
      </trkpt>
      <trkpt lat="43.656781995669007" lon="7.156451996415854">
        <ele>9.27</ele>
        <time>2025-05-18T15:39:10Z</time>
      </trkpt>
      <trkpt lat="43.65678995847702" lon="7.156473034992814">
        <ele>9.27</ele>
        <time>2025-05-18T15:39:11Z</time>
      </trkpt>
      <trkpt lat="43.656799010932446" lon="7.156497007235885">
        <ele>9.75</ele>
        <time>2025-05-18T15:39:12Z</time>
      </trkpt>
      <trkpt lat="43.656815020367503" lon="7.156537994742394">
        <ele>10.23</ele>
        <time>2025-05-18T15:39:13Z</time>
      </trkpt>
      <trkpt lat="43.65700101479888" lon="7.157117016613483">
        <ele>10.23</ele>
        <time>2025-05-18T15:39:20Z</time>
      </trkpt>
      <trkpt lat="43.657191032543778" lon="7.15758397243917">
        <ele>9.75</ele>
        <time>2025-05-18T15:39:25Z</time>
      </trkpt>
      <trkpt lat="43.65734500810504" lon="7.157983034849167">
        <ele>10.23</ele>
        <time>2025-05-18T15:39:30Z</time>
      </trkpt>
      <trkpt lat="43.657375015318394" lon="7.158065009862185">
        <ele>10.23</ele>
        <time>2025-05-18T15:39:31Z</time>
      </trkpt>
      <trkpt lat="43.65740804001689" lon="7.158152014017105">
        <ele>10.23</ele>
        <time>2025-05-18T15:39:32Z</time>
      </trkpt>
      <trkpt lat="43.657433018088341" lon="7.1582299657166">
        <ele>10.710000000000001</ele>
        <time>2025-05-18T15:39:33Z</time>
      </trkpt>
      <trkpt lat="43.657459001988173" lon="7.15831596404314">
        <ele>10.710000000000001</ele>
        <time>2025-05-18T15:39:34Z</time>
      </trkpt>
      <trkpt lat="43.657766031101346" lon="7.159239985048771">
        <ele>8.310000000000001</ele>
        <time>2025-05-18T15:39:45Z</time>
      </trkpt>
      <trkpt lat="43.657951019704342" lon="7.159793023020029">
        <ele>10.23</ele>
        <time>2025-05-18T15:39:51Z</time>
      </trkpt>
      <trkpt lat="43.658000975847244" lon="7.159972982481122">
        <ele>11.19</ele>
        <time>2025-05-18T15:39:53Z</time>
      </trkpt>
      <trkpt lat="43.658092003315687" lon="7.160236006602645">
        <ele>12.630000000000001</ele>
        <time>2025-05-18T15:39:56Z</time>
      </trkpt>
      <trkpt lat="43.658124022185802" lon="7.160323010757566">
        <ele>12.630000000000001</ele>
        <time>2025-05-18T15:39:57Z</time>
      </trkpt>
      <trkpt lat="43.658156963065267" lon="7.160411020740867">
        <ele>12.630000000000001</ele>
        <time>2025-05-18T15:39:58Z</time>
      </trkpt>
      <trkpt lat="43.658209014683962" lon="7.160554016008973">
        <ele>12.630000000000001</ele>
        <time>2025-05-18T15:40:00Z</time>
      </trkpt>
      <trkpt lat="43.658277997747064" lon="7.160650994628668">
        <ele>12.630000000000001</ele>
        <time>2025-05-18T15:40:01Z</time>
      </trkpt>
      <trkpt lat="43.658309010788798" lon="7.160736992955208">
        <ele>12.630000000000001</ele>
        <time>2025-05-18T15:40:02Z</time>
      </trkpt>
      <trkpt lat="43.658340023830533" lon="7.160820979624987">
        <ele>12.630000000000001</ele>
        <time>2025-05-18T15:40:03Z</time>
      </trkpt>
      <trkpt lat="43.658369025215507" lon="7.160903960466385">
        <ele>12.630000000000001</ele>
        <time>2025-05-18T15:40:04Z</time>
      </trkpt>
      <trkpt lat="43.658612016588449" lon="7.161605022847652">
        <ele>10.710000000000001</ele>
        <time>2025-05-18T15:40:12Z</time>
      </trkpt>
      <trkpt lat="43.658671025186777" lon="7.161776013672352">
        <ele>10.23</ele>
        <time>2025-05-18T15:40:14Z</time>
      </trkpt>
      <trkpt lat="43.658694997429848" lon="7.161844996735454">
        <ele>9.75</ele>
        <time>2025-05-18T15:40:15Z</time>
      </trkpt>
      <trkpt lat="43.658756017684937" lon="7.162023028358817">
        <ele>8.310000000000001</ele>
        <time>2025-05-18T15:40:22Z</time>
      </trkpt>
      <trkpt lat="43.658756017684937" lon="7.162023028358817">
        <ele>8.310000000000001</ele>
        <time>2025-05-18T15:40:36Z</time>
      </trkpt>
      <trkpt lat="43.658794993534684" lon="7.162143979221582">
        <ele>8.310000000000001</ele>
        <time>2025-05-18T15:41:04Z</time>
      </trkpt>
      <trkpt lat="43.65882801823318" lon="7.162269037216902">
        <ele>7.83</ele>
        <time>2025-05-18T15:41:06Z</time>
      </trkpt>
      <trkpt lat="43.658889960497618" lon="7.162499958649278">
        <ele>9.75</ele>
        <time>2025-05-18T15:41:11Z</time>
      </trkpt>
      <trkpt lat="43.658906975761056" lon="7.162565002217889">
        <ele>10.23</ele>
        <time>2025-05-18T15:41:12Z</time>
      </trkpt>
      <trkpt lat="43.658916028216481" lon="7.162598026916385">
        <ele>11.19</ele>
        <time>2025-05-18T15:41:13Z</time>
      </trkpt>
      <trkpt lat="43.658916028216481" lon="7.162598026916385">
        <ele>10.710000000000001</ele>
        <time>2025-05-18T15:41:25Z</time>
      </trkpt>
      <trkpt lat="43.658970007672906" lon="7.162802964448929">
        <ele>10.23</ele>
        <time>2025-05-18T15:41:39Z</time>
      </trkpt>
      <trkpt lat="43.659081989899278" lon="7.163293976336718">
        <ele>10.710000000000001</ele>
        <time>2025-05-18T15:41:51Z</time>
      </trkpt>
      <trkpt lat="43.659153990447521" lon="7.163683986291289">
        <ele>9.75</ele>
        <time>2025-05-18T15:42:01Z</time>
      </trkpt>
      <trkpt lat="43.659187015146017" lon="7.164348000660539">
        <ele>8.310000000000001</ele>
        <time>2025-05-18T15:42:09Z</time>
      </trkpt>
      <trkpt lat="43.65919497795403" lon="7.164510022848845">
        <ele>8.310000000000001</ele>
        <time>2025-05-18T15:42:11Z</time>
      </trkpt>
      <trkpt lat="43.659201012924314" lon="7.16463197953999">
        <ele>8.310000000000001</ele>
        <time>2025-05-18T15:42:13Z</time>
      </trkpt>
      <trkpt lat="43.659206964075565" lon="7.164756031706929">
        <ele>7.83</ele>
        <time>2025-05-18T15:42:15Z</time>
      </trkpt>
      <trkpt lat="43.659218028187752" lon="7.165062977001071">
        <ele>7.35</ele>
        <time>2025-05-18T15:42:19Z</time>
      </trkpt>
      <trkpt lat="43.659230014309287" lon="7.165536973625422">
        <ele>6.87</ele>
        <time>2025-05-18T15:42:24Z</time>
      </trkpt>
      <trkpt lat="43.659252980723977" lon="7.166066039353609">
        <ele>5.42</ele>
        <time>2025-05-18T15:42:31Z</time>
      </trkpt>
      <trkpt lat="43.65925800986588" lon="7.166167041286826">
        <ele>4.46</ele>
        <time>2025-05-18T15:42:33Z</time>
      </trkpt>
      <trkpt lat="43.659261027351022" lon="7.166230995208025">
        <ele>4.46</ele>
        <time>2025-05-18T15:42:34Z</time>
      </trkpt>
      <trkpt lat="43.659261027351022" lon="7.166282963007689">
        <ele>3.5</ele>
        <time>2025-05-18T15:42:35Z</time>
      </trkpt>
      <trkpt lat="43.659261027351022" lon="7.16630500741303">
        <ele>3.02</ele>
        <time>2025-05-18T15:42:36Z</time>
      </trkpt>
      <trkpt lat="43.659261027351022" lon="7.16630500741303">
        <ele>2.54</ele>
        <time>2025-05-18T15:42:37Z</time>
      </trkpt>
      <trkpt lat="43.659261027351022" lon="7.16630500741303">
        <ele>2.06</ele>
        <time>2025-05-18T15:42:53Z</time>
      </trkpt>
      <trkpt lat="43.659261027351022" lon="7.166369967162609">
        <ele>1.58</ele>
        <time>2025-05-18T15:43:00Z</time>
      </trkpt>
      <trkpt lat="43.659261027351022" lon="7.166411960497499">
        <ele>2.54</ele>
        <time>2025-05-18T15:43:01Z</time>
      </trkpt>
      <trkpt lat="43.659263961017132" lon="7.166604995727539">
        <ele>7.83</ele>
        <time>2025-05-18T15:43:11Z</time>
      </trkpt>
      <trkpt lat="43.659294974058867" lon="7.166843041777611">
        <ele>9.27</ele>
        <time>2025-05-18T15:43:15Z</time>
      </trkpt>
      <trkpt lat="43.659381978213787" lon="7.167517030611634">
        <ele>11.67</ele>
        <time>2025-05-18T15:43:22Z</time>
      </trkpt>
      <trkpt lat="43.659392958506942" lon="7.167603028938174">
        <ele>12.15</ele>
        <time>2025-05-18T15:43:23Z</time>
      </trkpt>
      <trkpt lat="43.659446015954018" lon="7.16804500669241">
        <ele>13.6</ele>
        <time>2025-05-18T15:43:30Z</time>
      </trkpt>
      <trkpt lat="43.659460013732314" lon="7.168160006403923">
        <ele>14.08</ele>
        <time>2025-05-18T15:43:31Z</time>
      </trkpt>
      <trkpt lat="43.659471999853849" lon="7.168272994458675">
        <ele>13.6</ele>
        <time>2025-05-18T15:43:32Z</time>
      </trkpt>
      <trkpt lat="43.659484991803765" lon="7.168387994170189">
        <ele>13.119999999999999</ele>
        <time>2025-05-18T15:43:33Z</time>
      </trkpt>
      <trkpt lat="43.65949597209692" lon="7.168486984446645">
        <ele>12.630000000000001</ele>
        <time>2025-05-18T15:43:34Z</time>
      </trkpt>
      <trkpt lat="43.659507036209106" lon="7.168571976944804">
        <ele>11.19</ele>
        <time>2025-05-18T15:43:35Z</time>
      </trkpt>
      <trkpt lat="43.659517010673881" lon="7.168654035776854">
        <ele>10.710000000000001</ele>
        <time>2025-05-18T15:43:36Z</time>
      </trkpt>
      <trkpt lat="43.659526985138655" lon="7.168731987476349">
        <ele>9.75</ele>
        <time>2025-05-18T15:43:37Z</time>
      </trkpt>
      <trkpt lat="43.659534025937319" lon="7.168789990246296">
        <ele>8.789999999999999</ele>
        <time>2025-05-18T15:43:38Z</time>
      </trkpt>
      <trkpt lat="43.659561015665531" lon="7.169244959950447">
        <ele>4.94</ele>
        <time>2025-05-18T15:43:47Z</time>
      </trkpt>
      <trkpt lat="43.659705016762018" lon="7.170389005914331">
        <ele>6.39</ele>
        <time>2025-05-18T15:43:58Z</time>
      </trkpt>
      <trkpt lat="43.659836025908589" lon="7.171220993623138">
        <ele>8.789999999999999</ele>
        <time>2025-05-18T15:44:05Z</time>
      </trkpt>
      <trkpt lat="43.659933004528284" lon="7.171851983293891">
        <ele>10.710000000000001</ele>
        <time>2025-05-18T15:44:10Z</time>
      </trkpt>
      <trkpt lat="43.659947002306581" lon="7.171948039904237">
        <ele>11.19</ele>
        <time>2025-05-18T15:44:11Z</time>
      </trkpt>
      <trkpt lat="43.660005005076528" lon="7.172339977696538">
        <ele>11.67</ele>
        <time>2025-05-18T15:44:17Z</time>
      </trkpt>
      <trkpt lat="43.660010034218431" lon="7.17236596159637">
        <ele>13.119999999999999</ele>
        <time>2025-05-18T15:44:27Z</time>
      </trkpt>
      <trkpt lat="43.660010034218431" lon="7.17236596159637">
        <ele>13.119999999999999</ele>
        <time>2025-05-18T15:44:33Z</time>
      </trkpt>
      <trkpt lat="43.660020008683205" lon="7.172422036528587">
        <ele>13.119999999999999</ele>
        <time>2025-05-18T15:44:34Z</time>
      </trkpt>
      <trkpt lat="43.660028977319598" lon="7.17247199267149">
        <ele>13.119999999999999</ele>
        <time>2025-05-18T15:44:35Z</time>
      </trkpt>
      <trkpt lat="43.660132996737957" lon="7.173004997894168">
        <ele>14.08</ele>
        <time>2025-05-18T15:44:42Z</time>
      </trkpt>
      <trkpt lat="43.660132996737957" lon="7.173004997894168">
        <ele>14.08</ele>
        <time>2025-05-18T15:44:53Z</time>
      </trkpt>
      <trkpt lat="43.660141965374351" lon="7.17305101454258">
        <ele>14.08</ele>
        <time>2025-05-18T15:45:20Z</time>
      </trkpt>
      <trkpt lat="43.660154035314918" lon="7.173122009262443">
        <ele>13.6</ele>
        <time>2025-05-18T15:45:21Z</time>
      </trkpt>
      <trkpt lat="43.660274986177683" lon="7.173900017514825">
        <ele>14.56</ele>
        <time>2025-05-18T15:45:29Z</time>
      </trkpt>
      <trkpt lat="43.660285966470838" lon="7.174016023054719">
        <ele>14.56</ele>
        <time>2025-05-18T15:45:30Z</time>
      </trkpt>
      <trkpt lat="43.660370958968997" lon="7.174677019938827">
        <ele>14.56</ele>
        <time>2025-05-18T15:45:37Z</time>
      </trkpt>
      <trkpt lat="43.660382023081183" lon="7.174767041578889">
        <ele>14.56</ele>
        <time>2025-05-18T15:45:38Z</time>
      </trkpt>
      <trkpt lat="43.660413036122918" lon="7.175109023228288">
        <ele>14.56</ele>
        <time>2025-05-18T15:45:42Z</time>
      </trkpt>
      <trkpt lat="43.66046198643744" lon="7.175682010129094">
        <ele>16.960000000000001</ele>
        <time>2025-05-18T15:45:51Z</time>
      </trkpt>
      <trkpt lat="43.660519989207387" lon="7.176429005339742">
        <ele>19.359999999999999</ele>
        <time>2025-05-18T15:45:58Z</time>
      </trkpt>
      <trkpt lat="43.660527030006051" lon="7.176568983122706">
        <ele>19.359999999999999</ele>
        <time>2025-05-18T15:45:59Z</time>
      </trkpt>
      <trkpt lat="43.66063398309052" lon="7.178184008225799">
        <ele>20.32</ele>
        <time>2025-05-18T15:46:10Z</time>
      </trkpt>
      <trkpt lat="43.660629037767649" lon="7.178301019594073">
        <ele>20.32</ele>
        <time>2025-05-18T15:46:11Z</time>
      </trkpt>
      <trkpt lat="43.660566005855799" lon="7.17870301567018">
        <ele>18.879999999999999</ele>
        <time>2025-05-18T15:46:15Z</time>
      </trkpt>
      <trkpt lat="43.660543039441109" lon="7.17881198041141">
        <ele>18.879999999999999</ele>
        <time>2025-05-18T15:46:16Z</time>
      </trkpt>
      <trkpt lat="43.660442037507892" lon="7.179134013131261">
        <ele>18.399999999999999</ele>
        <time>2025-05-18T15:46:19Z</time>
      </trkpt>
      <trkpt lat="43.660416975617409" lon="7.179250018671155">
        <ele>18.399999999999999</ele>
        <time>2025-05-18T15:46:20Z</time>
      </trkpt>
      <trkpt lat="43.660342041403055" lon="7.179609015583992">
        <ele>18.879999999999999</ele>
        <time>2025-05-18T15:46:25Z</time>
      </trkpt>
      <trkpt lat="43.660336006432772" lon="7.179641034454107">
        <ele>18.399999999999999</ele>
        <time>2025-05-18T15:46:26Z</time>
      </trkpt>
      <trkpt lat="43.660336006432772" lon="7.179641034454107">
        <ele>18.399999999999999</ele>
        <time>2025-05-18T15:46:27Z</time>
      </trkpt>
      <trkpt lat="43.660298958420753" lon="7.179851001128554">
        <ele>17.920000000000002</ele>
        <time>2025-05-18T15:46:35Z</time>
      </trkpt>
      <trkpt lat="43.660290995612741" lon="7.180057028308511">
        <ele>17.920000000000002</ele>
        <time>2025-05-18T15:46:37Z</time>
      </trkpt>
      <trkpt lat="43.660290995612741" lon="7.180174961686134">
        <ele>17.920000000000002</ele>
        <time>2025-05-18T15:46:38Z</time>
      </trkpt>
      <trkpt lat="43.660290995612741" lon="7.180294990539551">
        <ele>17.440000000000001</ele>
        <time>2025-05-18T15:46:39Z</time>
      </trkpt>
      <trkpt lat="43.660335000604391" lon="7.181281959638">
        <ele>15.52</ele>
        <time>2025-05-18T15:46:47Z</time>
      </trkpt>
      <trkpt lat="43.660373976454139" lon="7.181862993165851">
        <ele>13.119999999999999</ele>
        <time>2025-05-18T15:46:51Z</time>
      </trkpt>
      <trkpt lat="43.660359978675842" lon="7.18201101757586">
        <ele>12.630000000000001</ele>
        <time>2025-05-18T15:46:52Z</time>
      </trkpt>
      <trkpt lat="43.660315973684192" lon="7.182310000061989">
        <ele>12.15</ele>
        <time>2025-05-18T15:46:54Z</time>
      </trkpt>
      <trkpt lat="43.660145988687873" lon="7.183051966130734">
        <ele>11.67</ele>
        <time>2025-05-18T15:46:59Z</time>
      </trkpt>
      <trkpt lat="43.659884976223111" lon="7.18514802865684">
        <ele>8.310000000000001</ele>
        <time>2025-05-18T15:47:12Z</time>
      </trkpt>
      <trkpt lat="43.659891011193395" lon="7.186472034081817">
        <ele>4.94</ele>
        <time>2025-05-18T15:47:20Z</time>
      </trkpt>
      <trkpt lat="43.659896962344646" lon="7.186639001592994">
        <ele>4.46</ele>
        <time>2025-05-18T15:47:21Z</time>
      </trkpt>
      <trkpt lat="43.65990299731493" lon="7.186803035438061">
        <ele>4.46</ele>
        <time>2025-05-18T15:47:22Z</time>
      </trkpt>
      <trkpt lat="43.659915989264846" lon="7.186958016827703">
        <ele>4.46</ele>
        <time>2025-05-18T15:47:23Z</time>
      </trkpt>
      <trkpt lat="43.659933004528284" lon="7.187122972682118">
        <ele>3.98</ele>
        <time>2025-05-18T15:47:24Z</time>
      </trkpt>
      <trkpt lat="43.660161998122931" lon="7.188644036650658">
        <ele>5.42</ele>
        <time>2025-05-18T15:47:34Z</time>
      </trkpt>
      <trkpt lat="43.660237016156316" lon="7.188967997208238">
        <ele>5.91</ele>
        <time>2025-05-18T15:47:36Z</time>
      </trkpt>
      <trkpt lat="43.660789970308542" lon="7.190730962902308">
        <ele>9.75</ele>
        <time>2025-05-18T15:47:48Z</time>
      </trkpt>
      <trkpt lat="43.660884015262127" lon="7.190983006730676">
        <ele>10.23</ele>
        <time>2025-05-18T15:47:50Z</time>
      </trkpt>
      <trkpt lat="43.660933971405029" lon="7.191115021705627">
        <ele>10.710000000000001</ele>
        <time>2025-05-18T15:47:51Z</time>
      </trkpt>
      <trkpt lat="43.660984011366963" lon="7.191248964518309">
        <ele>10.710000000000001</ele>
        <time>2025-05-18T15:47:52Z</time>
      </trkpt>
      <trkpt lat="43.661349965259433" lon="7.192180026322603">
        <ele>11.67</ele>
        <time>2025-05-18T15:48:01Z</time>
      </trkpt>
      <trkpt lat="43.661538977175951" lon="7.192670032382011">
        <ele>14.56</ele>
        <time>2025-05-18T15:48:08Z</time>
      </trkpt>
      <trkpt lat="43.66155800409615" lon="7.192714959383011">
        <ele>15.039999999999999</ele>
        <time>2025-05-18T15:48:09Z</time>
      </trkpt>
      <trkpt lat="43.661713991314173" lon="7.19311703927815">
        <ele>16.48</ele>
        <time>2025-05-18T15:48:19Z</time>
      </trkpt>
      <trkpt lat="43.661721032112837" lon="7.193134976550937">
        <ele>15.52</ele>
        <time>2025-05-18T15:48:29Z</time>
      </trkpt>
      <trkpt lat="43.661723965778947" lon="7.193143023177981">
        <ele>15.52</ele>
        <time>2025-05-18T15:48:44Z</time>
      </trkpt>
      <trkpt lat="43.661767970770597" lon="7.193257017061114">
        <ele>14.56</ele>
        <time>2025-05-18T15:48:47Z</time>
      </trkpt>
      <trkpt lat="43.661789009347558" lon="7.193310996517539">
        <ele>14.56</ele>
        <time>2025-05-18T15:48:48Z</time>
      </trkpt>
      <trkpt lat="43.661807030439377" lon="7.19335600733757">
        <ele>14.56</ele>
        <time>2025-05-18T15:48:49Z</time>
      </trkpt>
      <trkpt lat="43.661824967712164" lon="7.193400012329221">
        <ele>14.56</ele>
        <time>2025-05-18T15:48:50Z</time>
      </trkpt>
      <trkpt lat="43.661847012117505" lon="7.193453991785646">
        <ele>15.039999999999999</ele>
        <time>2025-05-18T15:48:51Z</time>
      </trkpt>
      <trkpt lat="43.661872996017337" lon="7.193520963191986">
        <ele>15.039999999999999</ele>
        <time>2025-05-18T15:48:52Z</time>
      </trkpt>
      <trkpt lat="43.662221012637019" lon="7.194439033046365">
        <ele>17.920000000000002</ele>
        <time>2025-05-18T15:49:02Z</time>
      </trkpt>
      <trkpt lat="43.6628039740026" lon="7.195850964635611">
        <ele>20.32</ele>
        <time>2025-05-18T15:49:11Z</time>
      </trkpt>
      <trkpt lat="43.663454996421933" lon="7.197370016947389">
        <ele>20.32</ele>
        <time>2025-05-18T15:49:21Z</time>
      </trkpt>
      <trkpt lat="43.664252031594515" lon="7.199445040896535">
        <ele>20.809999999999999</ele>
        <time>2025-05-18T15:49:33Z</time>
      </trkpt>
      <trkpt lat="43.665074966847897" lon="7.201659036800265">
        <ele>22.25</ele>
        <time>2025-05-18T15:49:46Z</time>
      </trkpt>
      <trkpt lat="43.665548963472247" lon="7.203414039686322">
        <ele>24.170000000000002</ele>
        <time>2025-05-18T15:49:56Z</time>
      </trkpt>
      <trkpt lat="43.665606966242194" lon="7.203558040782809">
        <ele>24.649999999999999</ele>
        <time>2025-05-18T15:49:57Z</time>
      </trkpt>
      <trkpt lat="43.665681984275579" lon="7.203691983595491">
        <ele>24.649999999999999</ele>
        <time>2025-05-18T15:49:58Z</time>
      </trkpt>
      <trkpt lat="43.665977027267218" lon="7.204219959676266">
        <ele>24.170000000000002</ele>
        <time>2025-05-18T15:50:04Z</time>
      </trkpt>
      <trkpt lat="43.666036035865545" lon="7.204365972429514">
        <ele>23.690000000000001</ele>
        <time>2025-05-18T15:50:14Z</time>
      </trkpt>
      <trkpt lat="43.666085992008448" lon="7.204488012939692">
        <ele>23.210000000000001</ele>
        <time>2025-05-18T15:50:17Z</time>
      </trkpt>
      <trkpt lat="43.666237033903599" lon="7.20487198792398">
        <ele>22.73</ele>
        <time>2025-05-18T15:50:27Z</time>
      </trkpt>
      <trkpt lat="43.666373994201422" lon="7.205295022577047">
        <ele>20.32</ele>
        <time>2025-05-18T15:50:39Z</time>
      </trkpt>
      <trkpt lat="43.666459992527962" lon="7.205597022548318">
        <ele>20.32</ele>
        <time>2025-05-18T15:50:48Z</time>
      </trkpt>
      <trkpt lat="43.666459992527962" lon="7.205597022548318">
        <ele>20.32</ele>
        <time>2025-05-18T15:51:26Z</time>
      </trkpt>
      <trkpt lat="43.666468961164355" lon="7.20562300644815">
        <ele>19.84</ele>
        <time>2025-05-18T15:51:27Z</time>
      </trkpt>
      <trkpt lat="43.666630983352661" lon="7.206083005294204">
        <ele>17.440000000000001</ele>
        <time>2025-05-18T15:51:34Z</time>
      </trkpt>
      <trkpt lat="43.666670965030789" lon="7.206194987520576">
        <ele>16.48</ele>
        <time>2025-05-18T15:51:36Z</time>
      </trkpt>
      <trkpt lat="43.666695021092892" lon="7.206261036917567">
        <ele>16</ele>
        <time>2025-05-18T15:51:37Z</time>
      </trkpt>
      <trkpt lat="43.666940024122596" lon="7.206951035186648">
        <ele>10.710000000000001</ele>
        <time>2025-05-18T15:51:47Z</time>
      </trkpt>
      <trkpt lat="43.666985034942627" lon="7.207077015191317">
        <ele>10.23</ele>
        <time>2025-05-18T15:51:49Z</time>
      </trkpt>
      <trkpt lat="43.667016969993711" lon="7.207165025174618">
        <ele>9.27</ele>
        <time>2025-05-18T15:51:56Z</time>
      </trkpt>
      <trkpt lat="43.667016969993711" lon="7.207165025174618">
        <ele>9.27</ele>
        <time>2025-05-18T15:52:30Z</time>
      </trkpt>
      <trkpt lat="43.6671660002321" lon="7.207595016807318">
        <ele>7.83</ele>
        <time>2025-05-18T15:52:38Z</time>
      </trkpt>
      <trkpt lat="43.667246969416738" lon="7.2078359965235">
        <ele>6.87</ele>
        <time>2025-05-18T15:52:42Z</time>
      </trkpt>
      <trkpt lat="43.667268007993698" lon="7.20790003426373">
        <ele>6.39</ele>
        <time>2025-05-18T15:52:43Z</time>
      </trkpt>
      <trkpt lat="43.667296003550291" lon="7.207974968478084">
        <ele>6.39</ele>
        <time>2025-05-18T15:52:44Z</time>
      </trkpt>
      <trkpt lat="43.667435981333256" lon="7.208404960110784">
        <ele>3.98</ele>
        <time>2025-05-18T15:52:49Z</time>
      </trkpt>
      <trkpt lat="43.667503036558628" lon="7.208577962592244">
        <ele>3.02</ele>
        <time>2025-05-18T15:52:51Z</time>
      </trkpt>
      <trkpt lat="43.667538994923234" lon="7.208672007545829">
        <ele>2.54</ele>
        <time>2025-05-18T15:52:52Z</time>
      </trkpt>
      <trkpt lat="43.667877959087491" lon="7.209555041044951">
        <ele>5.42</ele>
        <time>2025-05-18T15:53:02Z</time>
      </trkpt>
      <trkpt lat="43.667935961857438" lon="7.209713961929083">
        <ele>6.39</ele>
        <time>2025-05-18T15:53:04Z</time>
      </trkpt>
      <trkpt lat="43.667961023747921" lon="7.209788979962468">
        <ele>6.87</ele>
        <time>2025-05-18T15:53:05Z</time>
      </trkpt>
      <trkpt lat="43.667980972677469" lon="7.209856035187841">
        <ele>7.35</ele>
        <time>2025-05-18T15:53:06Z</time>
      </trkpt>
      <trkpt lat="43.667995976284146" lon="7.209904985502362">
        <ele>7.83</ele>
        <time>2025-05-18T15:53:07Z</time>
      </trkpt>
      <trkpt lat="43.668016009032726" lon="7.209971034899354">
        <ele>8.310000000000001</ele>
        <time>2025-05-18T15:53:08Z</time>
      </trkpt>
      <trkpt lat="43.668016009032726" lon="7.209971034899354">
        <ele>8.789999999999999</ele>
        <time>2025-05-18T15:53:09Z</time>
      </trkpt>
      <trkpt lat="43.668027995154262" lon="7.210004981607199">
        <ele>8.789999999999999</ele>
        <time>2025-05-18T15:53:10Z</time>
      </trkpt>
      <trkpt lat="43.668039981275797" lon="7.210037000477314">
        <ele>8.789999999999999</ele>
        <time>2025-05-18T15:53:11Z</time>
      </trkpt>
      <trkpt lat="43.668039981275797" lon="7.210037000477314">
        <ele>9.27</ele>
        <time>2025-05-18T15:53:12Z</time>
      </trkpt>
      <trkpt lat="43.668039981275797" lon="7.210037000477314">
        <ele>13.119999999999999</ele>
        <time>2025-05-18T15:53:20Z</time>
      </trkpt>
      <trkpt lat="43.668078035116196" lon="7.210141019895673">
        <ele>13.6</ele>
        <time>2025-05-18T15:53:35Z</time>
      </trkpt>
      <trkpt lat="43.668092032894492" lon="7.210179995745421">
        <ele>13.6</ele>
        <time>2025-05-18T15:53:36Z</time>
      </trkpt>
      <trkpt lat="43.668112987652421" lon="7.210233975201845">
        <ele>14.08</ele>
        <time>2025-05-18T15:53:37Z</time>
      </trkpt>
      <trkpt lat="43.668142994865775" lon="7.210317039862275">
        <ele>14.08</ele>
        <time>2025-05-18T15:53:38Z</time>
      </trkpt>
      <trkpt lat="43.668173002079129" lon="7.210398009046912">
        <ele>14.08</ele>
        <time>2025-05-18T15:53:39Z</time>
      </trkpt>
      <trkpt lat="43.668205020949244" lon="7.210486019030213">
        <ele>14.08</ele>
        <time>2025-05-18T15:53:40Z</time>
      </trkpt>
      <trkpt lat="43.668309962376952" lon="7.210768992081285">
        <ele>12.630000000000001</ele>
        <time>2025-05-18T15:53:45Z</time>
      </trkpt>
      <trkpt lat="43.668315997347236" lon="7.210786007344723">
        <ele>12.630000000000001</ele>
        <time>2025-05-18T15:53:46Z</time>
      </trkpt>
      <trkpt lat="43.66836603730917" lon="7.210919028148055">
        <ele>11.19</ele>
        <time>2025-05-18T15:53:51Z</time>
      </trkpt>
      <trkpt lat="43.668375005945563" lon="7.210944006219506">
        <ele>11.19</ele>
        <time>2025-05-18T15:53:52Z</time>
      </trkpt>
      <trkpt lat="43.668384980410337" lon="7.210970995947719">
        <ele>10.710000000000001</ele>
        <time>2025-05-18T15:53:53Z</time>
      </trkpt>
      <trkpt lat="43.668394032865763" lon="7.21099304035306">
        <ele>9.75</ele>
        <time>2025-05-18T15:54:06Z</time>
      </trkpt>
      <trkpt lat="43.668499980121851" lon="7.211322030052543">
        <ele>8.789999999999999</ele>
        <time>2025-05-18T15:54:11Z</time>
      </trkpt>
      <trkpt lat="43.668771972879767" lon="7.21211202442646">
        <ele>7.35</ele>
        <time>2025-05-18T15:54:20Z</time>
      </trkpt>
      <trkpt lat="43.668803991749883" lon="7.212198022753">
        <ele>7.35</ele>
        <time>2025-05-18T15:54:21Z</time>
      </trkpt>
      <trkpt lat="43.66883902810514" lon="7.212288966402412">
        <ele>7.35</ele>
        <time>2025-05-18T15:54:22Z</time>
      </trkpt>
      <trkpt lat="43.668913962319493" lon="7.212488036602736">
        <ele>7.35</ele>
        <time>2025-05-18T15:54:24Z</time>
      </trkpt>
      <trkpt lat="43.669071039184928" lon="7.212888021022081">
        <ele>7.35</ele>
        <time>2025-05-18T15:54:28Z</time>
      </trkpt>
      <trkpt lat="43.669302966445684" lon="7.213147021830082">
        <ele>8.789999999999999</ele>
        <time>2025-05-18T15:54:31Z</time>
      </trkpt>
      <trkpt lat="43.669343031942844" lon="7.213247017934918">
        <ele>9.75</ele>
        <time>2025-05-18T15:54:32Z</time>
      </trkpt>
      <trkpt lat="43.669995982199907" lon="7.214910993352532">
        <ele>17.920000000000002</ele>
        <time>2025-05-18T15:54:44Z</time>
      </trkpt>
      <trkpt lat="43.670437959954143" lon="7.216155035421252">
        <ele>20.32</ele>
        <time>2025-05-18T15:54:53Z</time>
      </trkpt>
      <trkpt lat="43.670992003753781" lon="7.217565039172769">
        <ele>20.809999999999999</ele>
        <time>2025-05-18T15:55:02Z</time>
      </trkpt>
      <trkpt lat="43.671663980931044" lon="7.219079984351993">
        <ele>21.77</ele>
        <time>2025-05-18T15:55:11Z</time>
      </trkpt>
      <trkpt lat="43.672624966129661" lon="7.220757035538554">
        <ele>28.02</ele>
        <time>2025-05-18T15:55:21Z</time>
      </trkpt>
      <trkpt lat="43.673559967428446" lon="7.221760014072061">
        <ele>30.420000000000002</ele>
        <time>2025-05-18T15:55:29Z</time>
      </trkpt>
      <trkpt lat="43.674860000610352" lon="7.222655033692718">
        <ele>27.530000000000001</ele>
        <time>2025-05-18T15:55:38Z</time>
      </trkpt>
      <trkpt lat="43.675707997754216" lon="7.223317958414555">
        <ele>30.899999999999999</ele>
        <time>2025-05-18T15:55:44Z</time>
      </trkpt>
      <trkpt lat="43.677089000120759" lon="7.224409030750394">
        <ele>34.740000000000002</ele>
        <time>2025-05-18T15:55:54Z</time>
      </trkpt>
      <trkpt lat="43.678484000265598" lon="7.225619964301586">
        <ele>33.780000000000001</ele>
        <time>2025-05-18T15:56:04Z</time>
      </trkpt>
      <trkpt lat="43.679915964603424" lon="7.227405980229378">
        <ele>30.899999999999999</ele>
        <time>2025-05-18T15:56:15Z</time>
      </trkpt>
      <trkpt lat="43.681148020550609" lon="7.229337003082037">
        <ele>30.420000000000002</ele>
        <time>2025-05-18T15:56:26Z</time>
      </trkpt>
      <trkpt lat="43.682404970750213" lon="7.231264002621174">
        <ele>31.859999999999999</ele>
        <time>2025-05-18T15:56:38Z</time>
      </trkpt>
      <trkpt lat="43.683743979781866" lon="7.233028979972005">
        <ele>26.57</ele>
        <time>2025-05-18T15:56:50Z</time>
      </trkpt>
      <trkpt lat="43.684893976897001" lon="7.234108988195658">
        <ele>24.170000000000002</ele>
        <time>2025-05-18T15:56:59Z</time>
      </trkpt>
      <trkpt lat="43.686349997296929" lon="7.235709009692073">
        <ele>22.73</ele>
        <time>2025-05-18T15:57:11Z</time>
      </trkpt>
      <trkpt lat="43.687638966366649" lon="7.237382037565112">
        <ele>19.84</ele>
        <time>2025-05-18T15:57:23Z</time>
      </trkpt>
      <trkpt lat="43.688555024564266" lon="7.238588025793433">
        <ele>19.359999999999999</ele>
        <time>2025-05-18T15:57:32Z</time>
      </trkpt>
      <trkpt lat="43.689320040866733" lon="7.239608019590378">
        <ele>19.359999999999999</ele>
        <time>2025-05-18T15:57:40Z</time>
      </trkpt>
      <trkpt lat="43.690125038847327" lon="7.240632036700845">
        <ele>22.73</ele>
        <time>2025-05-18T15:57:48Z</time>
      </trkpt>
      <trkpt lat="43.691103961318731" lon="7.241961993277073">
        <ele>24.649999999999999</ele>
        <time>2025-05-18T15:57:57Z</time>
      </trkpt>
      <trkpt lat="43.692410029470921" lon="7.243692018091679">
        <ele>23.690000000000001</ele>
        <time>2025-05-18T15:58:09Z</time>
      </trkpt>
      <trkpt lat="43.693767981603742" lon="7.245475016534329">
        <ele>23.690000000000001</ele>
        <time>2025-05-18T15:58:22Z</time>
      </trkpt>
      <trkpt lat="43.694476000964642" lon="7.246369030326605">
        <ele>25.609999999999999</ele>
        <time>2025-05-18T15:58:28Z</time>
      </trkpt>
      <trkpt lat="43.695390969514847" lon="7.247229013592005">
        <ele>26.09</ele>
        <time>2025-05-18T15:58:35Z</time>
      </trkpt>
      <trkpt lat="43.696701982989907" lon="7.247897973284125">
        <ele>26.57</ele>
        <time>2025-05-18T15:58:44Z</time>
      </trkpt>
      <trkpt lat="43.698220029473305" lon="7.248700959607959">
        <ele>27.050000000000001</ele>
        <time>2025-05-18T15:58:54Z</time>
      </trkpt>
      <trkpt lat="43.698751023039222" lon="7.249234970659018">
        <ele>27.050000000000001</ele>
        <time>2025-05-18T15:58:58Z</time>
      </trkpt>
      <trkpt lat="43.699508998543024" lon="7.250257981941104">
        <ele>28.02</ele>
        <time>2025-05-18T15:59:06Z</time>
      </trkpt>
      <trkpt lat="43.699636990204453" lon="7.250547995790839">
        <ele>27.530000000000001</ele>
        <time>2025-05-18T15:59:13Z</time>
      </trkpt>
      <trkpt lat="43.699644031003118" lon="7.250565011054277">
        <ele>27.530000000000001</ele>
        <time>2025-05-18T15:59:15Z</time>
      </trkpt>
      <trkpt lat="43.699644031003118" lon="7.250565011054277">
        <ele>27.530000000000001</ele>
        <time>2025-05-18T15:59:35Z</time>
      </trkpt>
      <trkpt lat="43.699644031003118" lon="7.250565011054277">
        <ele>27.530000000000001</ele>
        <time>2025-05-18T15:59:55Z</time>
      </trkpt>
      <trkpt lat="43.699688035994768" lon="7.250665007159114">
        <ele>27.050000000000001</ele>
        <time>2025-05-18T16:00:39Z</time>
      </trkpt>
      <trkpt lat="43.699730029329658" lon="7.250761985778809">
        <ele>27.050000000000001</ele>
        <time>2025-05-18T16:00:40Z</time>
      </trkpt>
      <trkpt lat="43.699740003794432" lon="7.250843960791826">
        <ele>27.050000000000001</ele>
        <time>2025-05-18T16:00:41Z</time>
      </trkpt>
      <trkpt lat="43.699752995744348" lon="7.250947980210185">
        <ele>27.050000000000001</ele>
        <time>2025-05-18T16:00:42Z</time>
      </trkpt>
      <trkpt lat="43.699760958552361" lon="7.251049987971783">
        <ele>27.050000000000001</ele>
        <time>2025-05-18T16:00:43Z</time>
      </trkpt>
      <trkpt lat="43.699703039601445" lon="7.251358022913337">
        <ele>27.530000000000001</ele>
        <time>2025-05-18T16:00:46Z</time>
      </trkpt>
      <trkpt lat="43.699601031839848" lon="7.251599002629519">
        <ele>27.050000000000001</ele>
        <time>2025-05-18T16:00:49Z</time>
      </trkpt>
      <trkpt lat="43.699588039889932" lon="7.251693969592452">
        <ele>27.050000000000001</ele>
        <time>2025-05-18T16:00:50Z</time>
      </trkpt>
      <trkpt lat="43.699576975777745" lon="7.251791032031179">
        <ele>27.050000000000001</ele>
        <time>2025-05-18T16:00:51Z</time>
      </trkpt>
      <trkpt lat="43.699570018798113" lon="7.251896979287267">
        <ele>26.57</ele>
        <time>2025-05-18T16:00:52Z</time>
      </trkpt>
      <trkpt lat="43.699562977999449" lon="7.252006027847529">
        <ele>26.09</ele>
        <time>2025-05-18T16:00:53Z</time>
      </trkpt>
      <trkpt lat="43.699558032676578" lon="7.252229992300272">
        <ele>25.609999999999999</ele>
        <time>2025-05-18T16:00:55Z</time>
      </trkpt>
      <trkpt lat="43.699558032676578" lon="7.252350021153688">
        <ele>25.129999999999999</ele>
        <time>2025-05-18T16:00:56Z</time>
      </trkpt>
      <trkpt lat="43.699558032676578" lon="7.252724021673203">
        <ele>24.170000000000002</ele>
        <time>2025-05-18T16:00:59Z</time>
      </trkpt>
      <trkpt lat="43.699558032676578" lon="7.25284799002111">
        <ele>23.690000000000001</ele>
        <time>2025-05-18T16:01:00Z</time>
      </trkpt>
      <trkpt lat="43.699558032676578" lon="7.253109002485871">
        <ele>23.210000000000001</ele>
        <time>2025-05-18T16:01:02Z</time>
      </trkpt>
      <trkpt lat="43.699579993262887" lon="7.254346003755927">
        <ele>22.25</ele>
        <time>2025-05-18T16:01:11Z</time>
      </trkpt>
      <trkpt lat="43.699579993262887" lon="7.254346003755927">
        <ele>22.25</ele>
        <time>2025-05-18T16:01:12Z</time>
      </trkpt>
      <trkpt lat="43.699579993262887" lon="7.254346003755927">
        <ele>22.25</ele>
        <time>2025-05-18T16:01:13Z</time>
      </trkpt>
      <trkpt lat="43.699579993262887" lon="7.254350027069449">
        <ele>22.25</ele>
        <time>2025-05-18T16:01:14Z</time>
      </trkpt>
      <trkpt lat="43.699579993262887" lon="7.254390008747578">
        <ele>22.25</ele>
        <time>2025-05-18T16:01:15Z</time>
      </trkpt>
      <trkpt lat="43.699579993262887" lon="7.25441699847579">
        <ele>21.77</ele>
        <time>2025-05-18T16:01:25Z</time>
      </trkpt>
      <trkpt lat="43.699579993262887" lon="7.254699971526861">
        <ele>21.77</ele>
        <time>2025-05-18T16:01:46Z</time>
      </trkpt>
      <trkpt lat="43.699579993262887" lon="7.25499602034688">
        <ele>21.289999999999999</ele>
        <time>2025-05-18T16:01:50Z</time>
      </trkpt>
      <trkpt lat="43.699579993262887" lon="7.255073972046375">
        <ele>21.289999999999999</ele>
        <time>2025-05-18T16:01:51Z</time>
      </trkpt>
      <trkpt lat="43.699579993262887" lon="7.255158964544535">
        <ele>20.809999999999999</ele>
        <time>2025-05-18T16:01:52Z</time>
      </trkpt>
      <trkpt lat="43.699579993262887" lon="7.255647964775562">
        <ele>19.84</ele>
        <time>2025-05-18T16:01:58Z</time>
      </trkpt>
      <trkpt lat="43.699579993262887" lon="7.255931021645665">
        <ele>19.359999999999999</ele>
        <time>2025-05-18T16:02:02Z</time>
      </trkpt>
      <trkpt lat="43.699579993262887" lon="7.256035041064024">
        <ele>19.359999999999999</ele>
        <time>2025-05-18T16:02:09Z</time>
      </trkpt>
      <trkpt lat="43.699579993262887" lon="7.256035041064024">
        <ele>19.359999999999999</ele>
        <time>2025-05-18T16:02:53Z</time>
      </trkpt>
      <trkpt lat="43.699579993262887" lon="7.256055995821953">
        <ele>19.359999999999999</ele>
        <time>2025-05-18T16:03:05Z</time>
      </trkpt>
      <trkpt lat="43.699579993262887" lon="7.256111986935139">
        <ele>19.359999999999999</ele>
        <time>2025-05-18T16:03:06Z</time>
      </trkpt>
      <trkpt lat="43.699579993262887" lon="7.256193961948156">
        <ele>19.359999999999999</ele>
        <time>2025-05-18T16:03:07Z</time>
      </trkpt>
      <trkpt lat="43.699593991041183" lon="7.25641599856317">
        <ele>18.879999999999999</ele>
        <time>2025-05-18T16:03:09Z</time>
      </trkpt>
      <trkpt lat="43.699598014354706" lon="7.256659995764494">
        <ele>18.879999999999999</ele>
        <time>2025-05-18T16:03:11Z</time>
      </trkpt>
      <trkpt lat="43.699588039889932" lon="7.257098034024239">
        <ele>17.440000000000001</ele>
        <time>2025-05-18T16:03:15Z</time>
      </trkpt>
      <trkpt lat="43.69958502240479" lon="7.257203981280327">
        <ele>16.960000000000001</ele>
        <time>2025-05-18T16:03:16Z</time>
      </trkpt>
      <trkpt lat="43.699582004919648" lon="7.257478991523385">
        <ele>16</ele>
        <time>2025-05-18T16:03:19Z</time>
      </trkpt>
      <trkpt lat="43.699586028233171" lon="7.257543029263616">
        <ele>15.52</ele>
        <time>2025-05-18T16:03:20Z</time>
      </trkpt>
      <trkpt lat="43.699601031839848" lon="7.257821979001164">
        <ele>14.08</ele>
        <time>2025-05-18T16:03:23Z</time>
      </trkpt>
      <trkpt lat="43.699601031839848" lon="7.258439976722002">
        <ele>12.15</ele>
        <time>2025-05-18T16:03:29Z</time>
      </trkpt>
      <trkpt lat="43.699601031839848" lon="7.258558999747038">
        <ele>12.15</ele>
        <time>2025-05-18T16:03:30Z</time>
      </trkpt>
      <trkpt lat="43.699601031839848" lon="7.258682968094945">
        <ele>12.15</ele>
        <time>2025-05-18T16:03:31Z</time>
      </trkpt>
      <trkpt lat="43.699601031839848" lon="7.258810959756374">
        <ele>11.67</ele>
        <time>2025-05-18T16:03:32Z</time>
      </trkpt>
      <trkpt lat="43.699601031839848" lon="7.258931994438171">
        <ele>11.67</ele>
        <time>2025-05-18T16:03:33Z</time>
      </trkpt>
      <trkpt lat="43.699601031839848" lon="7.25903500802815">
        <ele>11.19</ele>
        <time>2025-05-18T16:03:34Z</time>
      </trkpt>
      <trkpt lat="43.699601031839848" lon="7.259258972480893">
        <ele>11.19</ele>
        <time>2025-05-18T16:03:35Z</time>
      </trkpt>
      <trkpt lat="43.699601031839848" lon="7.259258972480893">
        <ele>10.710000000000001</ele>
        <time>2025-05-18T16:03:36Z</time>
      </trkpt>
      <trkpt lat="43.699601031839848" lon="7.259258972480893">
        <ele>10.23</ele>
        <time>2025-05-18T16:03:37Z</time>
      </trkpt>
      <trkpt lat="43.699601031839848" lon="7.259258972480893">
        <ele>8.789999999999999</ele>
        <time>2025-05-18T16:03:52Z</time>
      </trkpt>
      <trkpt lat="43.699601031839848" lon="7.259258972480893">
        <ele>8.789999999999999</ele>
        <time>2025-05-18T16:03:56Z</time>
      </trkpt>
      <trkpt lat="43.699518973007798" lon="7.259245980530977">
        <ele>9.27</ele>
        <time>2025-05-18T16:03:58Z</time>
      </trkpt>
      <trkpt lat="43.699183026328683" lon="7.259192001074553">
        <ele>9.27</ele>
        <time>2025-05-18T16:04:03Z</time>
      </trkpt>
      <trkpt lat="43.699107002466917" lon="7.259179009124637">
        <ele>8.789999999999999</ele>
        <time>2025-05-18T16:04:04Z</time>
      </trkpt>
      <trkpt lat="43.699032990261912" lon="7.259167023003101">
        <ele>8.789999999999999</ele>
        <time>2025-05-18T16:04:05Z</time>
      </trkpt>
      <trkpt lat="43.698873985558748" lon="7.25914103910327">
        <ele>7.83</ele>
        <time>2025-05-18T16:04:07Z</time>
      </trkpt>
      <trkpt lat="43.698656978085637" lon="7.259111031889916">
        <ele>6.87</ele>
        <time>2025-05-18T16:04:10Z</time>
      </trkpt>
      <trkpt lat="43.698599981144071" lon="7.259102985262871">
        <ele>6.39</ele>
        <time>2025-05-18T16:04:11Z</time>
      </trkpt>
      <trkpt lat="43.698550025001168" lon="7.259096028283238">
        <ele>5.91</ele>
        <time>2025-05-18T16:04:12Z</time>
      </trkpt>
      <trkpt lat="43.698497973382473" lon="7.259088987484574">
        <ele>5.91</ele>
        <time>2025-05-18T16:04:13Z</time>
      </trkpt>
      <trkpt lat="43.698444999754429" lon="7.259082030504942">
        <ele>5.42</ele>
        <time>2025-05-18T16:04:14Z</time>
      </trkpt>
      <trkpt lat="43.698392026126385" lon="7.259074989706278">
        <ele>4.94</ele>
        <time>2025-05-18T16:04:15Z</time>
      </trkpt>
      <trkpt lat="43.698164038360119" lon="7.259044982492924">
        <ele>4.94</ele>
        <time>2025-05-18T16:04:18Z</time>
      </trkpt>
      <trkpt lat="43.698164038360119" lon="7.259044982492924">
        <ele>4.94</ele>
        <time>2025-05-18T16:04:19Z</time>
      </trkpt>
      <trkpt lat="43.697907971218228" lon="7.258973987773061">
        <ele>3.98</ele>
        <time>2025-05-18T16:04:27Z</time>
      </trkpt>
      <trkpt lat="43.697872012853622" lon="7.258964013308287">
        <ele>3.02</ele>
        <time>2025-05-18T16:04:39Z</time>
      </trkpt>
      <trkpt lat="43.697618963196874" lon="7.258887989446521">
        <ele>3.02</ele>
        <time>2025-05-18T16:04:58Z</time>
      </trkpt>
      <trkpt lat="43.697527013719082" lon="7.258857982233167">
        <ele>3.5</ele>
        <time>2025-05-18T16:05:00Z</time>
      </trkpt>
      <trkpt lat="43.697472028434277" lon="7.258840966969729">
        <ele>3.98</ele>
        <time>2025-05-18T16:05:01Z</time>
      </trkpt>
      <trkpt lat="43.697356022894382" lon="7.258805008605123">
        <ele>4.46</ele>
        <time>2025-05-18T16:05:03Z</time>
      </trkpt>
      <trkpt lat="43.697014963254333" lon="7.258708029985428">
        <ele>3.98</ele>
        <time>2025-05-18T16:05:12Z</time>
      </trkpt>
      <trkpt lat="43.696734001860023" lon="7.258626976981759">
        <ele>3.98</ele>
        <time>2025-05-18T16:05:18Z</time>
      </trkpt>
      <trkpt lat="43.696410041302443" lon="7.258551036939025">
        <ele>3.98</ele>
        <time>2025-05-18T16:05:24Z</time>
      </trkpt>
      <trkpt lat="43.696338040754199" lon="7.258551036939025">
        <ele>3.98</ele>
        <time>2025-05-18T16:05:25Z</time>
      </trkpt>
      <trkpt lat="43.695930009707808" lon="7.258551036939025">
        <ele>10.23</ele>
        <time>2025-05-18T16:05:32Z</time>
      </trkpt>
      <trkpt lat="43.695884998887777" lon="7.258551036939025">
        <ele>13.6</ele>
        <time>2025-05-18T16:05:43Z</time>
      </trkpt>
      <trkpt lat="43.695884998887777" lon="7.258551036939025">
        <ele>14.08</ele>
        <time>2025-05-18T16:06:20Z</time>
      </trkpt>
      <trkpt lat="43.695787014439702" lon="7.258551036939025">
        <ele>16.960000000000001</ele>
        <time>2025-05-18T16:06:24Z</time>
      </trkpt>
      <trkpt lat="43.695265995338559" lon="7.258551036939025">
        <ele>25.609999999999999</ele>
        <time>2025-05-18T16:06:34Z</time>
      </trkpt>
      <trkpt lat="43.695013029500842" lon="7.258551036939025">
        <ele>29.460000000000001</ele>
        <time>2025-05-18T16:06:46Z</time>
      </trkpt>
      <trkpt lat="43.694656966254115" lon="7.258551036939025">
        <ele>33.780000000000001</ele>
        <time>2025-05-18T16:06:54Z</time>
      </trkpt>
      <trkpt lat="43.694366030395031" lon="7.258551036939025">
        <ele>31.859999999999999</ele>
        <time>2025-05-18T16:07:01Z</time>
      </trkpt>
      <trkpt lat="43.694340968504548" lon="7.258551036939025">
        <ele>28.5</ele>
        <time>2025-05-18T16:07:04Z</time>
      </trkpt>
      <trkpt lat="43.69428195990622" lon="7.258551036939025">
        <ele>27.530000000000001</ele>
        <time>2025-05-18T16:07:05Z</time>
      </trkpt>
      <trkpt lat="43.694248013198376" lon="7.258624965324998">
        <ele>26.57</ele>
        <time>2025-05-18T16:07:06Z</time>
      </trkpt>
      <trkpt lat="43.694259999319911" lon="7.258707024157047">
        <ele>26.09</ele>
        <time>2025-05-18T16:07:07Z</time>
      </trkpt>
      <trkpt lat="43.694275002926588" lon="7.258804002776742">
        <ele>25.609999999999999</ele>
        <time>2025-05-18T16:07:08Z</time>
      </trkpt>
      <trkpt lat="43.694291012361646" lon="7.258913973346353">
        <ele>25.129999999999999</ele>
        <time>2025-05-18T16:07:09Z</time>
      </trkpt>
      <trkpt lat="43.694310039281845" lon="7.25903500802815">
        <ele>24.649999999999999</ele>
        <time>2025-05-18T16:07:10Z</time>
      </trkpt>
      <trkpt lat="43.694329988211393" lon="7.259160988032818">
        <ele>24.170000000000002</ele>
        <time>2025-05-18T16:07:11Z</time>
      </trkpt>
      <trkpt lat="43.694524029269814" lon="7.260556994006038">
        <ele>20.32</ele>
        <time>2025-05-18T16:07:21Z</time>
      </trkpt>
      <trkpt lat="43.694670964032412" lon="7.261759964749217">
        <ele>16.960000000000001</ele>
        <time>2025-05-18T16:07:30Z</time>
      </trkpt>
      <trkpt lat="43.694768026471138" lon="7.262937035411596">
        <ele>14.56</ele>
        <time>2025-05-18T16:07:40Z</time>
      </trkpt>
      <trkpt lat="43.694796022027731" lon="7.263312041759491">
        <ele>13.6</ele>
        <time>2025-05-18T16:07:44Z</time>
      </trkpt>
      <trkpt lat="43.694802979007363" lon="7.263387981802225">
        <ele>13.6</ele>
        <time>2025-05-18T16:07:45Z</time>
      </trkpt>
      <trkpt lat="43.694807002320886" lon="7.263428969308734">
        <ele>13.119999999999999</ele>
        <time>2025-05-18T16:07:46Z</time>
      </trkpt>
      <trkpt lat="43.694809013977647" lon="7.263455037027597">
        <ele>13.119999999999999</ele>
        <time>2025-05-18T16:07:47Z</time>
      </trkpt>
      <trkpt lat="43.694812031462789" lon="7.263489989563823">
        <ele>13.119999999999999</ele>
        <time>2025-05-18T16:07:48Z</time>
      </trkpt>
      <trkpt lat="43.694814965128899" lon="7.263515973463655">
        <ele>12.630000000000001</ele>
        <time>2025-05-18T16:07:49Z</time>
      </trkpt>
      <trkpt lat="43.694814965128899" lon="7.263515973463655">
        <ele>12.630000000000001</ele>
        <time>2025-05-18T16:08:02Z</time>
      </trkpt>
      <trkpt lat="43.694815970957279" lon="7.263787966221571">
        <ele>11.67</ele>
        <time>2025-05-18T16:08:23Z</time>
      </trkpt>
      <trkpt lat="43.694867016747594" lon="7.26488197222352">
        <ele>11.67</ele>
        <time>2025-05-18T16:08:33Z</time>
      </trkpt>
      <trkpt lat="43.694871962070465" lon="7.264968976378441">
        <ele>11.67</ele>
        <time>2025-05-18T16:08:34Z</time>
      </trkpt>
      <trkpt lat="43.694875985383987" lon="7.265055980533361">
        <ele>11.19</ele>
        <time>2025-05-18T16:08:35Z</time>
      </trkpt>
      <trkpt lat="43.694901969283819" lon="7.266056025400758">
        <ele>12.630000000000001</ele>
        <time>2025-05-18T16:08:44Z</time>
      </trkpt>
      <trkpt lat="43.694963995367289" lon="7.267466029152274">
        <ele>11.19</ele>
        <time>2025-05-18T16:08:54Z</time>
      </trkpt>
      <trkpt lat="43.694987967610359" lon="7.26885499432683">
        <ele>11.19</ele>
        <time>2025-05-18T16:09:06Z</time>
      </trkpt>
      <trkpt lat="43.695039013400674" lon="7.269191024824977">
        <ele>10.23</ele>
        <time>2025-05-18T16:09:16Z</time>
      </trkpt>
      <trkpt lat="43.695039013400674" lon="7.269191024824977">
        <ele>10.23</ele>
        <time>2025-05-18T16:09:46Z</time>
      </trkpt>
      <trkpt lat="43.695087963715196" lon="7.269302001222968">
        <ele>11.19</ele>
        <time>2025-05-18T16:09:51Z</time>
      </trkpt>
      <trkpt lat="43.695116965100169" lon="7.269389005377889">
        <ele>10.710000000000001</ele>
        <time>2025-05-18T16:09:52Z</time>
      </trkpt>
      <trkpt lat="43.695116965100169" lon="7.269464023411274">
        <ele>10.710000000000001</ele>
        <time>2025-05-18T16:09:53Z</time>
      </trkpt>
      <trkpt lat="43.695116965100169" lon="7.269538035616279">
        <ele>10.710000000000001</ele>
        <time>2025-05-18T16:09:54Z</time>
      </trkpt>
      <trkpt lat="43.695116965100169" lon="7.269687987864018">
        <ele>10.23</ele>
        <time>2025-05-18T16:09:55Z</time>
      </trkpt>
      <trkpt lat="43.69513800367713" lon="7.270032986998558">
        <ele>9.27</ele>
        <time>2025-05-18T16:10:00Z</time>
      </trkpt>
      <trkpt lat="43.695144960656762" lon="7.270124014467001">
        <ele>9.27</ele>
        <time>2025-05-18T16:10:01Z</time>
      </trkpt>
      <trkpt lat="43.695150995627046" lon="7.270203977823257">
        <ele>8.789999999999999</ele>
        <time>2025-05-18T16:10:02Z</time>
      </trkpt>
      <trkpt lat="43.69513800367713" lon="7.270761039108038">
        <ele>6.87</ele>
        <time>2025-05-18T16:10:13Z</time>
      </trkpt>
      <trkpt lat="43.69513800367713" lon="7.270761039108038">
        <ele>6.87</ele>
        <time>2025-05-18T16:10:37Z</time>
      </trkpt>
      <trkpt lat="43.69513800367713" lon="7.270761039108038">
        <ele>6.39</ele>
        <time>2025-05-18T16:11:10Z</time>
      </trkpt>
      <trkpt lat="43.69513800367713" lon="7.270761039108038">
        <ele>6.39</ele>
        <time>2025-05-18T16:11:53Z</time>
      </trkpt>
      <trkpt lat="43.69513800367713" lon="7.270761039108038">
        <ele>6.39</ele>
        <time>2025-05-18T16:12:41Z</time>
      </trkpt>
      <trkpt lat="43.69513800367713" lon="7.270761039108038">
        <ele>6.39</ele>
        <time>2025-05-18T16:13:19Z</time>
      </trkpt>
      <trkpt lat="43.69513800367713" lon="7.270761039108038">
        <ele>6.87</ele>
        <time>2025-05-18T16:13:58Z</time>
      </trkpt>
      <trkpt lat="43.69513800367713" lon="7.270761039108038">
        <ele>6.87</ele>
        <time>2025-05-18T16:14:16Z</time>
      </trkpt>
      <trkpt lat="43.69513800367713" lon="7.270761039108038">
        <ele>6.87</ele>
        <time>2025-05-18T16:14:19Z</time>
      </trkpt>
      <trkpt lat="43.69513800367713" lon="7.270761039108038">
        <ele>7.35</ele>
        <time>2025-05-18T16:14:20Z</time>
      </trkpt>
      <trkpt lat="43.69513800367713" lon="7.270761039108038">
        <ele>7.83</ele>
        <time>2025-05-18T16:14:24Z</time>
      </trkpt>
      <trkpt lat="43.69513800367713" lon="7.270756009966135">
        <ele>8.310000000000001</ele>
        <time>2025-05-18T16:14:25Z</time>
      </trkpt>
      <trkpt lat="43.695142026990652" lon="7.270673029124737">
        <ele>8.789999999999999</ele>
        <time>2025-05-18T16:14:26Z</time>
      </trkpt>
      <trkpt lat="43.695152001455426" lon="7.270205989480019">
        <ele>9.27</ele>
        <time>2025-05-18T16:14:32Z</time>
      </trkpt>
      <trkpt lat="43.695116965100169" lon="7.269687987864018">
        <ele>9.27</ele>
        <time>2025-05-18T16:14:38Z</time>
      </trkpt>
      <trkpt lat="43.695116965100169" lon="7.269554967060685">
        <ele>9.27</ele>
        <time>2025-05-18T16:14:39Z</time>
      </trkpt>
      <trkpt lat="43.695116965100169" lon="7.269466035068035">
        <ele>9.27</ele>
        <time>2025-05-18T16:14:40Z</time>
      </trkpt>
      <trkpt lat="43.695130040869117" lon="7.269260007888079">
        <ele>9.27</ele>
        <time>2025-05-18T16:14:43Z</time>
      </trkpt>
      <trkpt lat="43.695136997848749" lon="7.269202005118132">
        <ele>9.27</ele>
        <time>2025-05-18T16:14:44Z</time>
      </trkpt>
      <trkpt lat="43.695219978690147" lon="7.269068984314799">
        <ele>9.27</ele>
        <time>2025-05-18T16:14:45Z</time>
      </trkpt>
      <trkpt lat="43.695460958406329" lon="7.269078958779573">
        <ele>9.27</ele>
        <time>2025-05-18T16:14:49Z</time>
      </trkpt>
      <trkpt lat="43.696093037724495" lon="7.269130004569888">
        <ele>9.75</ele>
        <time>2025-05-18T16:14:57Z</time>
      </trkpt>
      <trkpt lat="43.69614701718092" lon="7.269150959327817">
        <ele>9.75</ele>
        <time>2025-05-18T16:14:58Z</time>
      </trkpt>
      <trkpt lat="43.696208037436008" lon="7.269274005666375">
        <ele>9.27</ele>
        <time>2025-05-18T16:14:59Z</time>
      </trkpt>
      <trkpt lat="43.696250030770898" lon="7.269357992336154">
        <ele>9.27</ele>
        <time>2025-05-18T16:15:00Z</time>
      </trkpt>
      <trkpt lat="43.696289006620646" lon="7.2694350220263">
        <ele>9.75</ele>
        <time>2025-05-18T16:15:01Z</time>
      </trkpt>
      <trkpt lat="43.696349021047354" lon="7.269561002030969">
        <ele>10.710000000000001</ele>
        <time>2025-05-18T16:15:03Z</time>
      </trkpt>
      <trkpt lat="43.696393026039004" lon="7.269668960943818">
        <ele>11.19</ele>
        <time>2025-05-18T16:15:11Z</time>
      </trkpt>
      <trkpt lat="43.696464020758867" lon="7.269841963425279">
        <ele>13.6</ele>
        <time>2025-05-18T16:15:41Z</time>
      </trkpt>
      <trkpt lat="43.696539960801601" lon="7.270028041675687">
        <ele>16</ele>
        <time>2025-05-18T16:15:44Z</time>
      </trkpt>
      <trkpt lat="43.696568962186575" lon="7.270100964233279">
        <ele>16.960000000000001</ele>
        <time>2025-05-18T16:15:45Z</time>
      </trkpt>
      <trkpt lat="43.696597963571548" lon="7.270178999751806">
        <ele>17.440000000000001</ele>
        <time>2025-05-18T16:15:46Z</time>
      </trkpt>
      <trkpt lat="43.69672603905201" lon="7.270525004714727">
        <ele>17.440000000000001</ele>
        <time>2025-05-18T16:15:50Z</time>
      </trkpt>
      <trkpt lat="43.696732996031642" lon="7.270545959472656">
        <ele>17.440000000000001</ele>
        <time>2025-05-18T16:15:51Z</time>
      </trkpt>
      <trkpt lat="43.696955032646656" lon="7.271237969398499">
        <ele>16.48</ele>
        <time>2025-05-18T16:15:59Z</time>
      </trkpt>
      <trkpt lat="43.696985961869359" lon="7.271335031837225">
        <ele>16.48</ele>
        <time>2025-05-18T16:16:00Z</time>
      </trkpt>
      <trkpt lat="43.697013035416603" lon="7.271420024335384">
        <ele>16</ele>
        <time>2025-05-18T16:16:01Z</time>
      </trkpt>
      <trkpt lat="43.697154019027948" lon="7.271856972947717">
        <ele>15.52</ele>
        <time>2025-05-18T16:16:06Z</time>
      </trkpt>
      <trkpt lat="43.697183020412922" lon="7.27194800041616">
        <ele>15.039999999999999</ele>
        <time>2025-05-18T16:16:07Z</time>
      </trkpt>
      <trkpt lat="43.697213027626276" lon="7.272041961550713">
        <ele>15.039999999999999</ele>
        <time>2025-05-18T16:16:08Z</time>
      </trkpt>
      <trkpt lat="43.697471022605896" lon="7.272884007543325">
        <ele>15.039999999999999</ele>
        <time>2025-05-18T16:16:18Z</time>
      </trkpt>
      <trkpt lat="43.697486026212573" lon="7.272943016141653">
        <ele>15.039999999999999</ele>
        <time>2025-05-18T16:16:19Z</time>
      </trkpt>
      <trkpt lat="43.697642013430595" lon="7.273570988327265">
        <ele>16</ele>
        <time>2025-05-18T16:16:25Z</time>
      </trkpt>
      <trkpt lat="43.697674032300711" lon="7.273686993867159">
        <ele>16</ele>
        <time>2025-05-18T16:16:26Z</time>
      </trkpt>
      <trkpt lat="43.697702027857304" lon="7.273787995800376">
        <ele>16</ele>
        <time>2025-05-18T16:16:27Z</time>
      </trkpt>
      <trkpt lat="43.697747038677335" lon="7.273951023817062">
        <ele>15.52</ele>
        <time>2025-05-18T16:16:29Z</time>
      </trkpt>
      <trkpt lat="43.697819961234927" lon="7.274214969947934">
        <ele>15.52</ele>
        <time>2025-05-18T16:16:36Z</time>
      </trkpt>
      <trkpt lat="43.697819961234927" lon="7.274214969947934">
        <ele>16</ele>
        <time>2025-05-18T16:17:11Z</time>
      </trkpt>
      <trkpt lat="43.698030011728406" lon="7.274975040927529">
        <ele>16</ele>
        <time>2025-05-18T16:17:18Z</time>
      </trkpt>
      <trkpt lat="43.698498979210854" lon="7.276337016373873">
        <ele>18.879999999999999</ele>
        <time>2025-05-18T16:17:28Z</time>
      </trkpt>
      <trkpt lat="43.698672987520695" lon="7.276672041043639">
        <ele>20.809999999999999</ele>
        <time>2025-05-18T16:17:32Z</time>
      </trkpt>
      <trkpt lat="43.698679022490978" lon="7.276683021336794">
        <ele>21.289999999999999</ele>
        <time>2025-05-18T16:17:38Z</time>
      </trkpt>
      <trkpt lat="43.698699977248907" lon="7.276832973584533">
        <ele>21.289999999999999</ele>
        <time>2025-05-18T16:18:10Z</time>
      </trkpt>
      <trkpt lat="43.698699977248907" lon="7.276832973584533">
        <ele>22.73</ele>
        <time>2025-05-18T16:18:11Z</time>
      </trkpt>
      <trkpt lat="43.698719004169106" lon="7.276871027424932">
        <ele>24.170000000000002</ele>
        <time>2025-05-18T16:18:12Z</time>
      </trkpt>
      <trkpt lat="43.699171962216496" lon="7.277520038187504">
        <ele>21.289999999999999</ele>
        <time>2025-05-18T16:18:21Z</time>
      </trkpt>
      <trkpt lat="43.699921974912286" lon="7.278133006766439">
        <ele>18.879999999999999</ele>
        <time>2025-05-18T16:18:32Z</time>
      </trkpt>
      <trkpt lat="43.700114004313946" lon="7.278192015364766">
        <ele>18.399999999999999</ele>
        <time>2025-05-18T16:18:36Z</time>
      </trkpt>
      <trkpt lat="43.700781036168337" lon="7.278656959533691">
        <ele>21.77</ele>
        <time>2025-05-18T16:18:45Z</time>
      </trkpt>
      <trkpt lat="43.700871979817748" lon="7.278718985617161">
        <ele>21.77</ele>
        <time>2025-05-18T16:18:46Z</time>
      </trkpt>
      <trkpt lat="43.700953032821417" lon="7.278779000043869">
        <ele>21.77</ele>
        <time>2025-05-18T16:18:47Z</time>
      </trkpt>
      <trkpt lat="43.701032996177673" lon="7.278838008642197">
        <ele>21.77</ele>
        <time>2025-05-18T16:18:48Z</time>
      </trkpt>
      <trkpt lat="43.70111002586782" lon="7.278895005583763">
        <ele>21.77</ele>
        <time>2025-05-18T16:18:49Z</time>
      </trkpt>
      <trkpt lat="43.701187977567315" lon="7.27895200252533">
        <ele>21.77</ele>
        <time>2025-05-18T16:18:50Z</time>
      </trkpt>
      <trkpt lat="43.701268024742603" lon="7.279011011123657">
        <ele>21.289999999999999</ele>
        <time>2025-05-18T16:18:51Z</time>
      </trkpt>
      <trkpt lat="43.70134899392724" lon="7.279071025550365">
        <ele>20.809999999999999</ele>
        <time>2025-05-18T16:18:52Z</time>
      </trkpt>
      <trkpt lat="43.701431974768639" lon="7.279131961986423">
        <ele>20.809999999999999</ele>
        <time>2025-05-18T16:18:53Z</time>
      </trkpt>
      <trkpt lat="43.701515961438417" lon="7.279194993898273">
        <ele>20.809999999999999</ele>
        <time>2025-05-18T16:18:54Z</time>
      </trkpt>
      <trkpt lat="43.701595002785325" lon="7.27925299666822">
        <ele>20.32</ele>
        <time>2025-05-18T16:18:55Z</time>
      </trkpt>
      <trkpt lat="43.702086014673114" lon="7.279624985530973">
        <ele>17.440000000000001</ele>
        <time>2025-05-18T16:19:03Z</time>
      </trkpt>
      <trkpt lat="43.702108981087804" lon="7.279644012451172">
        <ele>17.440000000000001</ele>
        <time>2025-05-18T16:19:04Z</time>
      </trkpt>
      <trkpt lat="43.702127002179623" lon="7.279659016057849">
        <ele>17.440000000000001</ele>
        <time>2025-05-18T16:19:05Z</time>
      </trkpt>
      <trkpt lat="43.702127002179623" lon="7.279659016057849">
        <ele>16.960000000000001</ele>
        <time>2025-05-18T16:19:16Z</time>
      </trkpt>
      <trkpt lat="43.702127002179623" lon="7.279659016057849">
        <ele>15.52</ele>
        <time>2025-05-18T16:19:43Z</time>
      </trkpt>
      <trkpt lat="43.702306039631367" lon="7.27979295887053">
        <ele>13.6</ele>
        <time>2025-05-18T16:20:12Z</time>
      </trkpt>
      <trkpt lat="43.702510977163911" lon="7.279925979673863">
        <ele>12.15</ele>
        <time>2025-05-18T16:20:21Z</time>
      </trkpt>
      <trkpt lat="43.702672999352217" lon="7.280153967440128">
        <ele>10.710000000000001</ele>
        <time>2025-05-18T16:20:27Z</time>
      </trkpt>
      <trkpt lat="43.702661013230681" lon="7.280203001573682">
        <ele>10.710000000000001</ele>
        <time>2025-05-18T16:20:28Z</time>
      </trkpt>
      <trkpt lat="43.702645003795624" lon="7.280272990465164">
        <ele>10.23</ele>
        <time>2025-05-18T16:20:29Z</time>
      </trkpt>
      <trkpt lat="43.702624971047044" lon="7.280358988791704">
        <ele>10.23</ele>
        <time>2025-05-18T16:20:30Z</time>
      </trkpt>
      <trkpt lat="43.70259596966207" lon="7.280448004603386">
        <ele>9.75</ele>
        <time>2025-05-18T16:20:31Z</time>
      </trkpt>
      <trkpt lat="43.702176036313176" lon="7.281834958121181">
        <ele>6.87</ele>
        <time>2025-05-18T16:20:43Z</time>
      </trkpt>
      <trkpt lat="43.701845034956932" lon="7.282938016578555">
        <ele>6.39</ele>
        <time>2025-05-18T16:20:52Z</time>
      </trkpt>
      <trkpt lat="43.701726011931896" lon="7.28331302292645">
        <ele>5.91</ele>
        <time>2025-05-18T16:20:59Z</time>
      </trkpt>
      <trkpt lat="43.701705979183316" lon="7.283385023474693">
        <ele>6.87</ele>
        <time>2025-05-18T16:21:29Z</time>
      </trkpt>
      <trkpt lat="43.70151998475194" lon="7.284007966518402">
        <ele>6.39</ele>
        <time>2025-05-18T16:21:37Z</time>
      </trkpt>
      <trkpt lat="43.701431974768639" lon="7.284293035045266">
        <ele>6.39</ele>
        <time>2025-05-18T16:21:42Z</time>
      </trkpt>
      <trkpt lat="43.701374977827072" lon="7.284491015598178">
        <ele>6.39</ele>
        <time>2025-05-18T16:21:44Z</time>
      </trkpt>
      <trkpt lat="43.701314963400364" lon="7.28471003472805">
        <ele>6.39</ele>
        <time>2025-05-18T16:21:46Z</time>
      </trkpt>
      <trkpt lat="43.701285040006042" lon="7.284820005297661">
        <ele>6.39</ele>
        <time>2025-05-18T16:21:47Z</time>
      </trkpt>
      <trkpt lat="43.701038025319576" lon="7.28569901548326">
        <ele>7.83</ele>
        <time>2025-05-18T16:21:55Z</time>
      </trkpt>
      <trkpt lat="43.701012041419744" lon="7.285789959132671">
        <ele>9.27</ele>
        <time>2025-05-18T16:21:56Z</time>
      </trkpt>
      <trkpt lat="43.700669975951314" lon="7.287040958181024">
        <ele>17.440000000000001</ele>
        <time>2025-05-18T16:22:06Z</time>
      </trkpt>
      <trkpt lat="43.700567968189716" lon="7.287257965654135">
        <ele>16.960000000000001</ele>
        <time>2025-05-18T16:22:08Z</time>
      </trkpt>
      <trkpt lat="43.700516000390053" lon="7.287363996729255">
        <ele>16.960000000000001</ele>
        <time>2025-05-18T16:22:09Z</time>
      </trkpt>
      <trkpt lat="43.700277032330632" lon="7.287870012223721">
        <ele>16</ele>
        <time>2025-05-18T16:22:14Z</time>
      </trkpt>
      <trkpt lat="43.700235961005092" lon="7.287978976964951">
        <ele>16</ele>
        <time>2025-05-18T16:22:15Z</time>
      </trkpt>
      <trkpt lat="43.700222969055176" lon="7.288092970848084">
        <ele>16.48</ele>
        <time>2025-05-18T16:22:16Z</time>
      </trkpt>
      <trkpt lat="43.700222969055176" lon="7.288217023015022">
        <ele>16.960000000000001</ele>
        <time>2025-05-18T16:22:17Z</time>
      </trkpt>
      <trkpt lat="43.700222969055176" lon="7.288345014676452">
        <ele>17.440000000000001</ele>
        <time>2025-05-18T16:22:18Z</time>
      </trkpt>
      <trkpt lat="43.700222969055176" lon="7.288474012166262">
        <ele>17.920000000000002</ele>
        <time>2025-05-18T16:22:19Z</time>
      </trkpt>
      <trkpt lat="43.700299998745322" lon="7.288877014070749">
        <ele>20.809999999999999</ele>
        <time>2025-05-18T16:22:22Z</time>
      </trkpt>
      <trkpt lat="43.700351966544986" lon="7.289002994075418">
        <ele>21.77</ele>
        <time>2025-05-18T16:22:23Z</time>
      </trkpt>
      <trkpt lat="43.700408963486552" lon="7.289126040413976">
        <ele>22.73</ele>
        <time>2025-05-18T16:22:24Z</time>
      </trkpt>
      <trkpt lat="43.700870973989367" lon="7.289729034528136">
        <ele>25.609999999999999</ele>
        <time>2025-05-18T16:22:30Z</time>
      </trkpt>
      <trkpt lat="43.70093903504312" lon="7.289879992604256">
        <ele>26.09</ele>
        <time>2025-05-18T16:22:31Z</time>
      </trkpt>
      <trkpt lat="43.700994020327926" lon="7.290024999529123">
        <ele>27.050000000000001</ele>
        <time>2025-05-18T16:22:32Z</time>
      </trkpt>
      <trkpt lat="43.701031990349293" lon="7.290195990353823">
        <ele>28.02</ele>
        <time>2025-05-18T16:22:33Z</time>
      </trkpt>
      <trkpt lat="43.70106702670455" lon="7.290362035855651">
        <ele>28.98</ele>
        <time>2025-05-18T16:22:34Z</time>
      </trkpt>
      <trkpt lat="43.701192000880837" lon="7.291030995547772">
        <ele>34.259999999999998</ele>
        <time>2025-05-18T16:22:38Z</time>
      </trkpt>
      <trkpt lat="43.701200969517231" lon="7.291381023824215">
        <ele>36.670000000000002</ele>
        <time>2025-05-18T16:22:40Z</time>
      </trkpt>
      <trkpt lat="43.701231982558966" lon="7.291917968541384">
        <ele>39.549999999999997</ele>
        <time>2025-05-18T16:22:43Z</time>
      </trkpt>
      <trkpt lat="43.701252015307546" lon="7.292096000164747">
        <ele>40.990000000000002</ele>
        <time>2025-05-18T16:22:44Z</time>
      </trkpt>
      <trkpt lat="43.701316975057125" lon="7.292238995432854">
        <ele>41.950000000000003</ele>
        <time>2025-05-18T16:22:45Z</time>
      </trkpt>
      <trkpt lat="43.701392998918891" lon="7.292390037328005">
        <ele>42.920000000000002</ele>
        <time>2025-05-18T16:22:46Z</time>
      </trkpt>
      <trkpt lat="43.701472040265799" lon="7.292517023161054">
        <ele>44.359999999999999</ele>
        <time>2025-05-18T16:22:47Z</time>
      </trkpt>
      <trkpt lat="43.70156298391521" lon="7.292637974023819">
        <ele>45.32</ele>
        <time>2025-05-18T16:22:48Z</time>
      </trkpt>
      <trkpt lat="43.701655017212033" lon="7.292755991220474">
        <ele>46.280000000000001</ele>
        <time>2025-05-18T16:22:49Z</time>
      </trkpt>
      <trkpt lat="43.70237804017961" lon="7.293758969753981">
        <ele>52.530000000000001</ele>
        <time>2025-05-18T16:22:57Z</time>
      </trkpt>
      <trkpt lat="43.702425984665751" lon="7.293919986113906">
        <ele>53.490000000000002</ele>
        <time>2025-05-18T16:22:58Z</time>
      </trkpt>
      <trkpt lat="43.702434031292796" lon="7.294077984988689">
        <ele>53.969999999999999</ele>
        <time>2025-05-18T16:22:59Z</time>
      </trkpt>
      <trkpt lat="43.702434031292796" lon="7.294234978035092">
        <ele>55.409999999999997</ele>
        <time>2025-05-18T16:23:00Z</time>
      </trkpt>
      <trkpt lat="43.70237804017961" lon="7.294346960261464">
        <ele>56.369999999999997</ele>
        <time>2025-05-18T16:23:01Z</time>
      </trkpt>
      <trkpt lat="43.702317019924521" lon="7.294467994943261">
        <ele>56.859999999999999</ele>
        <time>2025-05-18T16:23:02Z</time>
      </trkpt>
      <trkpt lat="43.70227200910449" lon="7.294531026855111">
        <ele>57.82</ele>
        <time>2025-05-18T16:23:03Z</time>
      </trkpt>
      <trkpt lat="43.702237978577614" lon="7.294570002704859">
        <ele>58.780000000000001</ele>
        <time>2025-05-18T16:23:04Z</time>
      </trkpt>
      <trkpt lat="43.702237978577614" lon="7.294570002704859">
        <ele>60.219999999999999</ele>
        <time>2025-05-18T16:23:12Z</time>
      </trkpt>
      <trkpt lat="43.702154997736216" lon="7.294644014909864">
        <ele>60.700000000000003</ele>
        <time>2025-05-18T16:23:24Z</time>
      </trkpt>
      <trkpt lat="43.702105041593313" lon="7.294648038223386">
        <ele>60.700000000000003</ele>
        <time>2025-05-18T16:23:25Z</time>
      </trkpt>
      <trkpt lat="43.702055001631379" lon="7.294651977717876">
        <ele>61.18</ele>
        <time>2025-05-18T16:23:26Z</time>
      </trkpt>
      <trkpt lat="43.702005967497826" lon="7.294654995203018">
        <ele>61.659999999999997</ele>
        <time>2025-05-18T16:23:27Z</time>
      </trkpt>
      <trkpt lat="43.701952993869781" lon="7.294659018516541">
        <ele>61.659999999999997</ele>
        <time>2025-05-18T16:23:28Z</time>
      </trkpt>
      <trkpt lat="43.701902031898499" lon="7.294662036001682">
        <ele>62.140000000000001</ele>
        <time>2025-05-18T16:23:29Z</time>
      </trkpt>
      <trkpt lat="43.701408002525568" lon="7.294493978843093">
        <ele>65.030000000000001</ele>
        <time>2025-05-18T16:23:36Z</time>
      </trkpt>
      <trkpt lat="43.701224019750953" lon="7.294424995779991">
        <ele>66.469999999999999</ele>
        <time>2025-05-18T16:23:39Z</time>
      </trkpt>
      <trkpt lat="43.701162999495864" lon="7.294401023536921">
        <ele>66.469999999999999</ele>
        <time>2025-05-18T16:23:40Z</time>
      </trkpt>
      <trkpt lat="43.700426984578371" lon="7.294134981930256">
        <ele>68.870000000000005</ele>
        <time>2025-05-18T16:23:48Z</time>
      </trkpt>
      <trkpt lat="43.699278999119997" lon="7.293805992230773">
        <ele>71.760000000000005</ele>
        <time>2025-05-18T16:23:58Z</time>
      </trkpt>
      <trkpt lat="43.698323965072632" lon="7.293832981958985">
        <ele>78.480000000000004</ele>
        <time>2025-05-18T16:24:06Z</time>
      </trkpt>
      <trkpt lat="43.698206031695008" lon="7.293840022757649">
        <ele>79.450000000000003</ele>
        <time>2025-05-18T16:24:07Z</time>
      </trkpt>
      <trkpt lat="43.698088014498353" lon="7.293846979737282">
        <ele>80.409999999999997</ele>
        <time>2025-05-18T16:24:08Z</time>
      </trkpt>
      <trkpt lat="43.69773899205029" lon="7.293848991394043">
        <ele>83.769999999999996</ele>
        <time>2025-05-18T16:24:12Z</time>
      </trkpt>
      <trkpt lat="43.697690963745117" lon="7.293848991394043">
        <ele>84.25</ele>
        <time>2025-05-18T16:24:13Z</time>
      </trkpt>
      <trkpt lat="43.697518967092037" lon="7.293929038569331">
        <ele>85.209999999999994</ele>
        <time>2025-05-18T16:24:15Z</time>
      </trkpt>
      <trkpt lat="43.6974379979074" lon="7.293966002762318">
        <ele>85.689999999999998</ele>
        <time>2025-05-18T16:24:16Z</time>
      </trkpt>
      <trkpt lat="43.697377983480692" lon="7.294030040502548">
        <ele>85.689999999999998</ele>
        <time>2025-05-18T16:24:17Z</time>
      </trkpt>
      <trkpt lat="43.697313023731112" lon="7.294126013293862">
        <ele>86.180000000000007</ele>
        <time>2025-05-18T16:24:18Z</time>
      </trkpt>
      <trkpt lat="43.697249991819263" lon="7.294220980256796">
        <ele>86.659999999999997</ele>
        <time>2025-05-18T16:24:19Z</time>
      </trkpt>
      <trkpt lat="43.697241023182869" lon="7.294324999675155">
        <ele>87.140000000000001</ele>
        <time>2025-05-18T16:24:20Z</time>
      </trkpt>
      <trkpt lat="43.697241023182869" lon="7.294447040185332">
        <ele>87.620000000000005</ele>
        <time>2025-05-18T16:24:21Z</time>
      </trkpt>
      <trkpt lat="43.697241023182869" lon="7.294570002704859">
        <ele>88.579999999999998</ele>
        <time>2025-05-18T16:24:22Z</time>
      </trkpt>
      <trkpt lat="43.697254015132785" lon="7.294666981324554">
        <ele>89.060000000000002</ele>
        <time>2025-05-18T16:24:23Z</time>
      </trkpt>
      <trkpt lat="43.697275975719094" lon="7.294777035713196">
        <ele>89.540000000000006</ele>
        <time>2025-05-18T16:24:24Z</time>
      </trkpt>
      <trkpt lat="43.69730799458921" lon="7.294843001291156">
        <ele>90.5</ele>
        <time>2025-05-18T16:24:25Z</time>
      </trkpt>
      <trkpt lat="43.69737102650106" lon="7.294913996011019">
        <ele>91.459999999999994</ele>
        <time>2025-05-18T16:24:26Z</time>
      </trkpt>
      <trkpt lat="43.697426011785865" lon="7.294977027922869">
        <ele>92.900000000000006</ele>
        <time>2025-05-18T16:24:27Z</time>
      </trkpt>
      <trkpt lat="43.697474040091038" lon="7.295009968802333">
        <ele>93.390000000000001</ele>
        <time>2025-05-18T16:24:28Z</time>
      </trkpt>
      <trkpt lat="43.69752399623394" lon="7.295038970187306">
        <ele>93.870000000000005</ele>
        <time>2025-05-18T16:24:29Z</time>
      </trkpt>
      <trkpt lat="43.697570012882352" lon="7.29506503790617">
        <ele>94.349999999999994</ele>
        <time>2025-05-18T16:24:30Z</time>
      </trkpt>
      <trkpt lat="43.6976089887321" lon="7.29508800432086">
        <ele>94.829999999999998</ele>
        <time>2025-05-18T16:24:31Z</time>
      </trkpt>
      <trkpt lat="43.697642013430595" lon="7.29510803706944">
        <ele>95.310000000000002</ele>
        <time>2025-05-18T16:24:32Z</time>
      </trkpt>
      <trkpt lat="43.697766987606883" lon="7.295168973505497">
        <ele>97.709999999999994</ele>
        <time>2025-05-18T16:24:42Z</time>
      </trkpt>
      <trkpt lat="43.697977960109711" lon="7.295258995145559">
        <ele>101.08</ele>
        <time>2025-05-18T16:24:59Z</time>
      </trkpt>
      <trkpt lat="43.698822017759085" lon="7.295589996501803">
        <ele>103.95999999999999</ele>
        <time>2025-05-18T16:25:09Z</time>
      </trkpt>
      <trkpt lat="43.700073016807437" lon="7.296101963147521">
        <ele>111.17</ele>
        <time>2025-05-18T16:25:21Z</time>
      </trkpt>
      <trkpt lat="43.70027300901711" lon="7.296190978959203">
        <ele>112.61</ele>
        <time>2025-05-18T16:25:23Z</time>
      </trkpt>
      <trkpt lat="43.700379962101579" lon="7.29624898172915">
        <ele>113.56999999999999</ele>
        <time>2025-05-18T16:25:24Z</time>
      </trkpt>
      <trkpt lat="43.700484987348318" lon="7.296315031126142">
        <ele>114.53</ele>
        <time>2025-05-18T16:25:25Z</time>
      </trkpt>
      <trkpt lat="43.701644958928227" lon="7.297210972756147">
        <ele>124.63</ele>
        <time>2025-05-18T16:25:36Z</time>
      </trkpt>
      <trkpt lat="43.702189028263092" lon="7.297653034329414">
        <ele>130.40000000000001</ele>
        <time>2025-05-18T16:25:41Z</time>
      </trkpt>
      <trkpt lat="43.702301010489464" lon="7.29775101877749">
        <ele>132.31999999999999</ele>
        <time>2025-05-18T16:25:42Z</time>
      </trkpt>
      <trkpt lat="43.702409975230694" lon="7.297845985740423">
        <ele>133.75999999999999</ele>
        <time>2025-05-18T16:25:43Z</time>
      </trkpt>
      <trkpt lat="43.703382024541497" lon="7.298687025904656">
        <ele>145.78</ele>
        <time>2025-05-18T16:25:52Z</time>
      </trkpt>
      <trkpt lat="43.703720988705754" lon="7.298977039754391">
        <ele>148.66</ele>
        <time>2025-05-18T16:25:55Z</time>
      </trkpt>
      <trkpt lat="43.704588012769818" lon="7.299777008593082">
        <ele>153.94999999999999</ele>
        <time>2025-05-18T16:26:05Z</time>
      </trkpt>
      <trkpt lat="43.705114983022213" lon="7.300240024924278">
        <ele>156.34999999999999</ele>
        <time>2025-05-18T16:26:12Z</time>
      </trkpt>
      <trkpt lat="43.705763993784785" lon="7.300831032916904">
        <ele>158.75</ele>
        <time>2025-05-18T16:26:22Z</time>
      </trkpt>
      <trkpt lat="43.706039004027843" lon="7.301079975441098">
        <ele>158.75</ele>
        <time>2025-05-18T16:26:26Z</time>
      </trkpt>
      <trkpt lat="43.706108992919326" lon="7.301135966554284">
        <ele>158.27000000000001</ele>
        <time>2025-05-18T16:26:27Z</time>
      </trkpt>
      <trkpt lat="43.706163978204131" lon="7.301205033436418">
        <ele>157.31</ele>
        <time>2025-05-18T16:26:34Z</time>
      </trkpt>
      <trkpt lat="43.706252994015813" lon="7.301316009834409">
        <ele>156.83000000000001</ele>
        <time>2025-05-18T16:27:05Z</time>
      </trkpt>
      <trkpt lat="43.70671802200377" lon="7.301894025877118">
        <ele>155.87</ele>
        <time>2025-05-18T16:27:12Z</time>
      </trkpt>
      <trkpt lat="43.706879038363695" lon="7.302085971459746">
        <ele>155.87</ele>
        <time>2025-05-18T16:27:14Z</time>
      </trkpt>
      <trkpt lat="43.706965036690235" lon="7.302187979221344">
        <ele>156.34999999999999</ele>
        <time>2025-05-18T16:27:15Z</time>
      </trkpt>
      <trkpt lat="43.707497036084533" lon="7.302837995812297">
        <ele>159.24000000000001</ele>
        <time>2025-05-18T16:27:22Z</time>
      </trkpt>
      <trkpt lat="43.707561995834112" lon="7.302969004958868">
        <ele>159.72</ele>
        <time>2025-05-18T16:27:23Z</time>
      </trkpt>
      <trkpt lat="43.70759803801775" lon="7.303095990791917">
        <ele>159.72</ele>
        <time>2025-05-18T16:27:24Z</time>
      </trkpt>
      <trkpt lat="43.707633996382356" lon="7.303320039063692">
        <ele>160.19999999999999</ele>
        <time>2025-05-18T16:27:25Z</time>
      </trkpt>
      <trkpt lat="43.707593008875847" lon="7.303465967997909">
        <ele>160.19999999999999</ele>
        <time>2025-05-18T16:27:26Z</time>
      </trkpt>
      <trkpt lat="43.707553027197719" lon="7.303610974922776">
        <ele>160.19999999999999</ele>
        <time>2025-05-18T16:27:27Z</time>
      </trkpt>
      <trkpt lat="43.707461999729276" lon="7.303741984069347">
        <ele>160.19999999999999</ele>
        <time>2025-05-18T16:27:28Z</time>
      </trkpt>
      <trkpt lat="43.707379018887877" lon="7.30383301153779">
        <ele>160.19999999999999</ele>
        <time>2025-05-18T16:27:29Z</time>
      </trkpt>
      <trkpt lat="43.707294026389718" lon="7.303926972672343">
        <ele>160.68000000000001</ele>
        <time>2025-05-18T16:27:30Z</time>
      </trkpt>
      <trkpt lat="43.707205010578036" lon="7.30402403511107">
        <ele>160.68000000000001</ele>
        <time>2025-05-18T16:27:31Z</time>
      </trkpt>
      <trkpt lat="43.706407975405455" lon="7.304836995899677">
        <ele>160.68000000000001</ele>
        <time>2025-05-18T16:27:40Z</time>
      </trkpt>
      <trkpt lat="43.706328012049198" lon="7.304943026974797">
        <ele>161.16</ele>
        <time>2025-05-18T16:27:41Z</time>
      </trkpt>
      <trkpt lat="43.706271015107632" lon="7.305049980059266">
        <ele>161.16</ele>
        <time>2025-05-18T16:27:42Z</time>
      </trkpt>
      <trkpt lat="43.706219969317317" lon="7.305180989205837">
        <ele>161.16</ele>
        <time>2025-05-18T16:27:43Z</time>
      </trkpt>
      <trkpt lat="43.706169007346034" lon="7.305310992524028">
        <ele>161.63999999999999</ele>
        <time>2025-05-18T16:27:44Z</time>
      </trkpt>
      <trkpt lat="43.706137994304299" lon="7.305437978357077">
        <ele>162.12</ele>
        <time>2025-05-18T16:27:45Z</time>
      </trkpt>
      <trkpt lat="43.706122990697622" lon="7.305577034130693">
        <ele>162.12</ele>
        <time>2025-05-18T16:27:46Z</time>
      </trkpt>
      <trkpt lat="43.706108992919326" lon="7.305713994428515">
        <ele>162.12</ele>
        <time>2025-05-18T16:27:47Z</time>
      </trkpt>
      <trkpt lat="43.706112010404468" lon="7.305843997746706">
        <ele>161.63999999999999</ele>
        <time>2025-05-18T16:27:48Z</time>
      </trkpt>
      <trkpt lat="43.706130031496286" lon="7.305971989408135">
        <ele>162.12</ele>
        <time>2025-05-18T16:27:49Z</time>
      </trkpt>
      <trkpt lat="43.706149980425835" lon="7.306094029918313">
        <ele>162.12</ele>
        <time>2025-05-18T16:27:50Z</time>
      </trkpt>
      <trkpt lat="43.706186022609472" lon="7.306207017973065">
        <ele>161.63999999999999</ele>
        <time>2025-05-18T16:27:51Z</time>
      </trkpt>
      <trkpt lat="43.706220975145698" lon="7.306321011856198">
        <ele>161.63999999999999</ele>
        <time>2025-05-18T16:27:52Z</time>
      </trkpt>
      <trkpt lat="43.706261040642858" lon="7.306438023224473">
        <ele>161.16</ele>
        <time>2025-05-18T16:27:53Z</time>
      </trkpt>
      <trkpt lat="43.706479975953698" lon="7.30675402097404">
        <ele>161.16</ele>
        <time>2025-05-18T16:27:56Z</time>
      </trkpt>
      <trkpt lat="43.706575026735663" lon="7.306835995987058">
        <ele>161.16</ele>
        <time>2025-05-18T16:27:57Z</time>
      </trkpt>
      <trkpt lat="43.706678962334991" lon="7.306914031505585">
        <ele>161.63999999999999</ele>
        <time>2025-05-18T16:27:58Z</time>
      </trkpt>
      <trkpt lat="43.706778958439827" lon="7.306986032053828">
        <ele>161.63999999999999</ele>
        <time>2025-05-18T16:27:59Z</time>
      </trkpt>
      <trkpt lat="43.706883983686566" lon="7.307039005681872">
        <ele>161.63999999999999</ele>
        <time>2025-05-18T16:28:00Z</time>
      </trkpt>
      <trkpt lat="43.706992026418447" lon="7.307091979309917">
        <ele>161.63999999999999</ele>
        <time>2025-05-18T16:28:01Z</time>
      </trkpt>
      <trkpt lat="43.7071050144732" lon="7.307136990129948">
        <ele>161.16</ele>
        <time>2025-05-18T16:28:02Z</time>
      </trkpt>
      <trkpt lat="43.708206983283162" lon="7.307622972875834">
        <ele>165</ele>
        <time>2025-05-18T16:28:12Z</time>
      </trkpt>
      <trkpt lat="43.708316031843424" lon="7.307692039757967">
        <ele>165</ele>
        <time>2025-05-18T16:28:13Z</time>
      </trkpt>
      <trkpt lat="43.70841602794826" lon="7.307774014770985">
        <ele>165.47999999999999</ele>
        <time>2025-05-18T16:28:14Z</time>
      </trkpt>
      <trkpt lat="43.708512000739574" lon="7.30785196647048">
        <ele>165.96000000000001</ele>
        <time>2025-05-18T16:28:15Z</time>
      </trkpt>
      <trkpt lat="43.708604034036398" lon="7.307959003373981">
        <ele>166.44999999999999</ele>
        <time>2025-05-18T16:28:16Z</time>
      </trkpt>
      <trkpt lat="43.708682991564274" lon="7.308080038055778">
        <ele>167.88999999999999</ele>
        <time>2025-05-18T16:28:17Z</time>
      </trkpt>
      <trkpt lat="43.708908967673779" lon="7.308416990563273">
        <ele>170.28999999999999</ele>
        <time>2025-05-18T16:28:20Z</time>
      </trkpt>
      <trkpt lat="43.709085993468761" lon="7.308606002479792">
        <ele>170.77000000000001</ele>
        <time>2025-05-18T16:28:22Z</time>
      </trkpt>
      <trkpt lat="43.709170985966921" lon="7.308698035776615">
        <ele>171.72999999999999</ele>
        <time>2025-05-18T16:28:23Z</time>
      </trkpt>
      <trkpt lat="43.709280034527183" lon="7.308743968605995">
        <ele>171.72999999999999</ele>
        <time>2025-05-18T16:28:24Z</time>
      </trkpt>
      <trkpt lat="43.709391010925174" lon="7.308789985254407">
        <ele>171.72999999999999</ele>
        <time>2025-05-18T16:28:25Z</time>
      </trkpt>
      <trkpt lat="43.709501987323165" lon="7.30883801355958">
        <ele>171.25</ele>
        <time>2025-05-18T16:28:26Z</time>
      </trkpt>
      <trkpt lat="43.709614975377917" lon="7.308885036036372">
        <ele>171.25</ele>
        <time>2025-05-18T16:28:27Z</time>
      </trkpt>
      <trkpt lat="43.709716983139515" lon="7.308928035199642">
        <ele>170.77000000000001</ele>
        <time>2025-05-18T16:28:28Z</time>
      </trkpt>
      <trkpt lat="43.709795018658042" lon="7.30907597579062">
        <ele>170.28999999999999</ele>
        <time>2025-05-18T16:28:29Z</time>
      </trkpt>
      <trkpt lat="43.709848998114467" lon="7.309192987158895">
        <ele>169.81</ele>
        <time>2025-05-18T16:28:30Z</time>
      </trkpt>
      <trkpt lat="43.70985796675086" lon="7.309346040710807">
        <ele>169.81</ele>
        <time>2025-05-18T16:28:31Z</time>
      </trkpt>
      <trkpt lat="43.70985796675086" lon="7.309513008221984">
        <ele>169.81</ele>
        <time>2025-05-18T16:28:32Z</time>
      </trkpt>
      <trkpt lat="43.7098110280931" lon="7.309630019590259">
        <ele>169.81</ele>
        <time>2025-05-18T16:28:33Z</time>
      </trkpt>
      <trkpt lat="43.709756964817643" lon="7.30976496823132">
        <ele>169.81</ele>
        <time>2025-05-18T16:28:34Z</time>
      </trkpt>
      <trkpt lat="43.709692005068064" lon="7.309902012348175">
        <ele>169.81</ele>
        <time>2025-05-18T16:28:35Z</time>
      </trkpt>
      <trkpt lat="43.709499975666404" lon="7.310251034796238">
        <ele>170.28999999999999</ele>
        <time>2025-05-18T16:28:38Z</time>
      </trkpt>
      <trkpt lat="43.709487989544868" lon="7.310381960123777">
        <ele>170.77000000000001</ele>
        <time>2025-05-18T16:28:39Z</time>
      </trkpt>
      <trkpt lat="43.709481032565236" lon="7.310525039210916">
        <ele>171.25</ele>
        <time>2025-05-18T16:28:40Z</time>
      </trkpt>
      <trkpt lat="43.709471980109811" lon="7.310714973136783">
        <ele>171.72999999999999</ele>
        <time>2025-05-18T16:28:41Z</time>
      </trkpt>
      <trkpt lat="43.709522020071745" lon="7.310796026140451">
        <ele>172.21000000000001</ele>
        <time>2025-05-18T16:28:42Z</time>
      </trkpt>
      <trkpt lat="43.709591003134847" lon="7.310908008366823">
        <ele>172.69</ele>
        <time>2025-05-18T16:28:43Z</time>
      </trkpt>
      <trkpt lat="43.70966199785471" lon="7.311010016128421">
        <ele>172.69</ele>
        <time>2025-05-18T16:28:44Z</time>
      </trkpt>
      <trkpt lat="43.709759982302785" lon="7.311090985313058">
        <ele>173.16999999999999</ele>
        <time>2025-05-18T16:28:45Z</time>
      </trkpt>
      <trkpt lat="43.70985696092248" lon="7.311172038316727">
        <ele>173.16999999999999</ele>
        <time>2025-05-18T16:28:46Z</time>
      </trkpt>
      <trkpt lat="43.709944970905781" lon="7.311273962259293">
        <ele>173.66</ele>
        <time>2025-05-18T16:28:47Z</time>
      </trkpt>
      <trkpt lat="43.71002702973783" lon="7.311398014426231">
        <ele>174.13999999999999</ele>
        <time>2025-05-18T16:28:48Z</time>
      </trkpt>
      <trkpt lat="43.710038010030985" lon="7.311564981937408">
        <ele>174.13999999999999</ele>
        <time>2025-05-18T16:28:49Z</time>
      </trkpt>
      <trkpt lat="43.710046978667378" lon="7.311737984418869">
        <ele>174.13999999999999</ele>
        <time>2025-05-18T16:28:50Z</time>
      </trkpt>
      <trkpt lat="43.710046978667378" lon="7.311907969415188">
        <ele>173.66</ele>
        <time>2025-05-18T16:28:51Z</time>
      </trkpt>
      <trkpt lat="43.710040021687746" lon="7.312077032402158">
        <ele>173.66</ele>
        <time>2025-05-18T16:28:52Z</time>
      </trkpt>
      <trkpt lat="43.710032980889082" lon="7.312240982428193">
        <ele>173.16999999999999</ele>
        <time>2025-05-18T16:28:53Z</time>
      </trkpt>
      <trkpt lat="43.710040021687746" lon="7.31240401044488">
        <ele>173.16999999999999</ele>
        <time>2025-05-18T16:28:54Z</time>
      </trkpt>
      <trkpt lat="43.710059970617294" lon="7.312566032633185">
        <ele>173.66</ele>
        <time>2025-05-18T16:28:55Z</time>
      </trkpt>
      <trkpt lat="43.71009198948741" lon="7.312733000144362">
        <ele>174.13999999999999</ele>
        <time>2025-05-18T16:28:56Z</time>
      </trkpt>
      <trkpt lat="43.71013599447906" lon="7.312883036211133">
        <ele>174.62</ele>
        <time>2025-05-18T16:28:57Z</time>
      </trkpt>
      <trkpt lat="43.71017899364233" lon="7.31302997097373">
        <ele>175.09999999999999</ele>
        <time>2025-05-18T16:28:58Z</time>
      </trkpt>
      <trkpt lat="43.710201038047671" lon="7.313159974291921">
        <ele>175.58000000000001</ele>
        <time>2025-05-18T16:28:59Z</time>
      </trkpt>
      <trkpt lat="43.710244037210941" lon="7.313417969271541">
        <ele>176.06</ele>
        <time>2025-05-18T16:29:00Z</time>
      </trkpt>
      <trkpt lat="43.710244037210941" lon="7.313417969271541">
        <ele>177.02000000000001</ele>
        <time>2025-05-18T16:29:01Z</time>
      </trkpt>
      <trkpt lat="43.710268009454012" lon="7.313505979254842">
        <ele>177.5</ele>
        <time>2025-05-18T16:29:02Z</time>
      </trkpt>
      <trkpt lat="43.710308996960521" lon="7.313655009493232">
        <ele>177.97999999999999</ele>
        <time>2025-05-18T16:29:03Z</time>
      </trkpt>
      <trkpt lat="43.710330035537481" lon="7.313804961740971">
        <ele>178.46000000000001</ele>
        <time>2025-05-18T16:29:04Z</time>
      </trkpt>
      <trkpt lat="43.710340010002255" lon="7.313908981159329">
        <ele>178.94</ele>
        <time>2025-05-18T16:29:05Z</time>
      </trkpt>
      <trkpt lat="43.710343027487397" lon="7.3140590172261">
        <ele>178.94</ele>
        <time>2025-05-18T16:29:06Z</time>
      </trkpt>
      <trkpt lat="43.71030698530376" lon="7.314234031364322">
        <ele>178.94</ele>
        <time>2025-05-18T16:29:07Z</time>
      </trkpt>
      <trkpt lat="43.710272032767534" lon="7.31440301053226">
        <ele>178.94</ele>
        <time>2025-05-18T16:29:08Z</time>
      </trkpt>
      <trkpt lat="43.710207995027304" lon="7.314714984968305">
        <ele>179.90000000000001</ele>
        <time>2025-05-18T16:29:10Z</time>
      </trkpt>
      <trkpt lat="43.709909012541175" lon="7.315544961020351">
        <ele>178.94</ele>
        <time>2025-05-18T16:29:16Z</time>
      </trkpt>
      <trkpt lat="43.709884034469724" lon="7.315690973773599">
        <ele>179.41999999999999</ele>
        <time>2025-05-18T16:29:17Z</time>
      </trkpt>
      <trkpt lat="43.709865007549524" lon="7.315834974870086">
        <ele>179.90000000000001</ele>
        <time>2025-05-18T16:29:18Z</time>
      </trkpt>
      <trkpt lat="43.709860984236002" lon="7.315970007330179">
        <ele>180.87</ele>
        <time>2025-05-18T16:29:19Z</time>
      </trkpt>
      <trkpt lat="43.709866013377905" lon="7.316094981506467">
        <ele>181.34999999999999</ele>
        <time>2025-05-18T16:29:20Z</time>
      </trkpt>
      <trkpt lat="43.709872970357537" lon="7.316306959837675">
        <ele>181.83000000000001</ele>
        <time>2025-05-18T16:29:22Z</time>
      </trkpt>
      <trkpt lat="43.70987699367106" lon="7.316399998962879">
        <ele>181.83000000000001</ele>
        <time>2025-05-18T16:29:23Z</time>
      </trkpt>
      <trkpt lat="43.709882022812963" lon="7.31655003502965">
        <ele>181.83000000000001</ele>
        <time>2025-05-18T16:29:25Z</time>
      </trkpt>
      <trkpt lat="43.709884034469724" lon="7.316600997000933">
        <ele>181.83000000000001</ele>
        <time>2025-05-18T16:29:26Z</time>
      </trkpt>
      <trkpt lat="43.709885962307453" lon="7.316643996164203">
        <ele>181.83000000000001</ele>
        <time>2025-05-18T16:29:27Z</time>
      </trkpt>
      <trkpt lat="43.709886968135834" lon="7.316676015034318">
        <ele>181.83000000000001</ele>
        <time>2025-05-18T16:29:28Z</time>
      </trkpt>
      <trkpt lat="43.709886968135834" lon="7.316697975620627">
        <ele>181.83000000000001</ele>
        <time>2025-05-18T16:29:29Z</time>
      </trkpt>
      <trkpt lat="43.709886968135834" lon="7.316697975620627">
        <ele>181.34999999999999</ele>
        <time>2025-05-18T16:29:43Z</time>
      </trkpt>
      <trkpt lat="43.709923010319471" lon="7.316765030846">
        <ele>176.06</ele>
        <time>2025-05-18T16:32:36Z</time>
      </trkpt>
      <trkpt lat="43.709827959537506" lon="7.316742986440659">
        <ele>191.44</ele>
        <time>2025-05-18T16:33:06Z</time>
      </trkpt>
      <trkpt lat="43.709893003106117" lon="7.31685396283865">
        <ele>193.36000000000001</ele>
        <time>2025-05-18T16:33:17Z</time>
      </trkpt>
      <trkpt lat="43.70989702641964" lon="7.316952031105757">
        <ele>192.88</ele>
        <time>2025-05-18T16:33:18Z</time>
      </trkpt>
      <trkpt lat="43.709901971742511" lon="7.317480007186532">
        <ele>193.36000000000001</ele>
        <time>2025-05-18T16:33:22Z</time>
      </trkpt>
      <trkpt lat="43.709907000884414" lon="7.317629037424922">
        <ele>193.36000000000001</ele>
        <time>2025-05-18T16:33:23Z</time>
      </trkpt>
      <trkpt lat="43.709917981177568" lon="7.318555992096663">
        <ele>192.40000000000001</ele>
        <time>2025-05-18T16:33:29Z</time>
      </trkpt>
      <trkpt lat="43.709942037239671" lon="7.318714996799827">
        <ele>192.40000000000001</ele>
        <time>2025-05-18T16:33:30Z</time>
      </trkpt>
      <trkpt lat="43.709965003654361" lon="7.318868972361088">
        <ele>192.88</ele>
        <time>2025-05-18T16:33:31Z</time>
      </trkpt>
      <trkpt lat="43.71004899032414" lon="7.318966034799814">
        <ele>193.36000000000001</ele>
        <time>2025-05-18T16:33:32Z</time>
      </trkpt>
      <trkpt lat="43.710144963115454" lon="7.319077011197805">
        <ele>193.36000000000001</ele>
        <time>2025-05-18T16:33:33Z</time>
      </trkpt>
      <trkpt lat="43.710244037210941" lon="7.319192010909319">
        <ele>193.36000000000001</ele>
        <time>2025-05-18T16:33:34Z</time>
      </trkpt>
      <trkpt lat="43.711116006597877" lon="7.319781007245183">
        <ele>197.69</ele>
        <time>2025-05-18T16:33:42Z</time>
      </trkpt>
      <trkpt lat="43.71142596937716" lon="7.319890977814794">
        <ele>199.61000000000001</ele>
        <time>2025-05-18T16:33:45Z</time>
      </trkpt>
      <trkpt lat="43.711838023737073" lon="7.319975970312953">
        <ele>202.00999999999999</ele>
        <time>2025-05-18T16:33:49Z</time>
      </trkpt>
      <trkpt lat="43.712148992344737" lon="7.3200339730829">
        <ele>203.46000000000001</ele>
        <time>2025-05-18T16:33:52Z</time>
      </trkpt>
      <trkpt lat="43.712252005934715" lon="7.320053000003099">
        <ele>203.94</ele>
        <time>2025-05-18T16:33:53Z</time>
      </trkpt>
      <trkpt lat="43.712350996211171" lon="7.320070015266538">
        <ele>204.41999999999999</ele>
        <time>2025-05-18T16:33:54Z</time>
      </trkpt>
      <trkpt lat="43.71245501562953" lon="7.320070015266538">
        <ele>205.38</ele>
        <time>2025-05-18T16:33:55Z</time>
      </trkpt>
      <trkpt lat="43.712561968713999" lon="7.320070015266538">
        <ele>205.86000000000001</ele>
        <time>2025-05-18T16:33:56Z</time>
      </trkpt>
      <trkpt lat="43.712872015312314" lon="7.320070015266538">
        <ele>207.30000000000001</ele>
        <time>2025-05-18T16:33:59Z</time>
      </trkpt>
      <trkpt lat="43.712968993932009" lon="7.320070015266538">
        <ele>207.78</ele>
        <time>2025-05-18T16:34:00Z</time>
      </trkpt>
      <trkpt lat="43.713084999471903" lon="7.320186020806432">
        <ele>208.74000000000001</ele>
        <time>2025-05-18T16:34:01Z</time>
      </trkpt>
      <trkpt lat="43.713180972263217" lon="7.320281993597746">
        <ele>209.22</ele>
        <time>2025-05-18T16:34:02Z</time>
      </trkpt>
      <trkpt lat="43.713248027488589" lon="7.320411996915937">
        <ele>209.69999999999999</ele>
        <time>2025-05-18T16:34:03Z</time>
      </trkpt>
      <trkpt lat="43.71329496614635" lon="7.320560021325946">
        <ele>210.66999999999999</ele>
        <time>2025-05-18T16:34:04Z</time>
      </trkpt>
      <trkpt lat="43.713309969753027" lon="7.320727994665504">
        <ele>211.15000000000001</ele>
        <time>2025-05-18T16:34:05Z</time>
      </trkpt>
      <trkpt lat="43.713279040530324" lon="7.320896973833442">
        <ele>211.63</ele>
        <time>2025-05-18T16:34:06Z</time>
      </trkpt>
      <trkpt lat="43.713211985304952" lon="7.321054972708225">
        <ele>212.59</ele>
        <time>2025-05-18T16:34:07Z</time>
      </trkpt>
      <trkpt lat="43.713132021948695" lon="7.321196962147951">
        <ele>213.06999999999999</ele>
        <time>2025-05-18T16:34:08Z</time>
      </trkpt>
      <trkpt lat="43.713035965338349" lon="7.321313973516226">
        <ele>213.55000000000001</ele>
        <time>2025-05-18T16:34:09Z</time>
      </trkpt>
      <trkpt lat="43.712686020880938" lon="7.321858964860439">
        <ele>215.47</ele>
        <time>2025-05-18T16:34:13Z</time>
      </trkpt>
      <trkpt lat="43.712615026161075" lon="7.322011012583971">
        <ele>216.43000000000001</ele>
        <time>2025-05-18T16:34:14Z</time>
      </trkpt>
      <trkpt lat="43.712573032826185" lon="7.322200024500489">
        <ele>217.40000000000001</ele>
        <time>2025-05-18T16:34:15Z</time>
      </trkpt>
      <trkpt lat="43.712531039491296" lon="7.322392975911498">
        <ele>217.88</ele>
        <time>2025-05-18T16:34:16Z</time>
      </trkpt>
      <trkpt lat="43.712488962337375" lon="7.3225880227983">
        <ele>218.84</ele>
        <time>2025-05-18T16:34:17Z</time>
      </trkpt>
      <trkpt lat="43.712174976244569" lon="7.324361968785524">
        <ele>225.09</ele>
        <time>2025-05-18T16:34:26Z</time>
      </trkpt>
      <trkpt lat="43.712192997336388" lon="7.324596997350454">
        <ele>226.05000000000001</ele>
        <time>2025-05-18T16:34:27Z</time>
      </trkpt>
      <trkpt lat="43.712230967357755" lon="7.324796989560127">
        <ele>227.00999999999999</ele>
        <time>2025-05-18T16:34:28Z</time>
      </trkpt>
      <trkpt lat="43.712276984006166" lon="7.325005028396845">
        <ele>227.97</ele>
        <time>2025-05-18T16:34:29Z</time>
      </trkpt>
      <trkpt lat="43.712323000654578" lon="7.325214995071292">
        <ele>229.41</ele>
        <time>2025-05-18T16:34:30Z</time>
      </trkpt>
      <trkpt lat="43.71236901730299" lon="7.325424961745739">
        <ele>230.37</ele>
        <time>2025-05-18T16:34:31Z</time>
      </trkpt>
      <trkpt lat="43.712983997538686" lon="7.327776001766324">
        <ele>241.43000000000001</ele>
        <time>2025-05-18T16:34:42Z</time>
      </trkpt>
      <trkpt lat="43.713557990267873" lon="7.329277032986283">
        <ele>250.56</ele>
        <time>2025-05-18T16:34:50Z</time>
      </trkpt>
      <trkpt lat="43.714510006830096" lon="7.331237979233265">
        <ele>261.13999999999999</ele>
        <time>2025-05-18T16:35:02Z</time>
      </trkpt>
      <trkpt lat="43.714981991797686" lon="7.332008024677634">
        <ele>265.45999999999998</ele>
        <time>2025-05-18T16:35:08Z</time>
      </trkpt>
      <trkpt lat="43.715091040357947" lon="7.33208698220551">
        <ele>265.94</ele>
        <time>2025-05-18T16:35:09Z</time>
      </trkpt>
      <trkpt lat="43.715203022584319" lon="7.332165017724037">
        <ele>266.42000000000002</ele>
        <time>2025-05-18T16:35:10Z</time>
      </trkpt>
      <trkpt lat="43.715322967618704" lon="7.332234000787139">
        <ele>267.38</ele>
        <time>2025-05-18T16:35:11Z</time>
      </trkpt>
      <trkpt lat="43.715436961501837" lon="7.332299966365099">
        <ele>267.86000000000001</ele>
        <time>2025-05-18T16:35:12Z</time>
      </trkpt>
      <trkpt lat="43.716568015515804" lon="7.332919975742698">
        <ele>267.86000000000001</ele>
        <time>2025-05-18T16:35:21Z</time>
      </trkpt>
      <trkpt lat="43.716836990788579" lon="7.333142012357712">
        <ele>268.82999999999998</ele>
        <time>2025-05-18T16:35:23Z</time>
      </trkpt>
      <trkpt lat="43.71694402769208" lon="7.333268998190761">
        <ele>268.82999999999998</ele>
        <time>2025-05-18T16:35:24Z</time>
      </trkpt>
      <trkpt lat="43.717056009918451" lon="7.333506960421801">
        <ele>269.31</ele>
        <time>2025-05-18T16:35:25Z</time>
      </trkpt>
      <trkpt lat="43.717128010466695" lon="7.333672000095248">
        <ele>269.79000000000002</ele>
        <time>2025-05-18T16:35:26Z</time>
      </trkpt>
      <trkpt lat="43.718137023970485" lon="7.335624983534217">
        <ele>276.04000000000002</ele>
        <time>2025-05-18T16:35:39Z</time>
      </trkpt>
      <trkpt lat="43.718541031703353" lon="7.336523020640016">
        <ele>277.48000000000002</ele>
        <time>2025-05-18T16:35:45Z</time>
      </trkpt>
      <trkpt lat="43.71877396479249" lon="7.337440000846982">
        <ele>277.95999999999998</ele>
        <time>2025-05-18T16:35:50Z</time>
      </trkpt>
      <trkpt lat="43.719098009169102" lon="7.338281041011214">
        <ele>278.44</ele>
        <time>2025-05-18T16:35:55Z</time>
      </trkpt>
      <trkpt lat="43.719170009717345" lon="7.338431999087334">
        <ele>278.44</ele>
        <time>2025-05-18T16:35:56Z</time>
      </trkpt>
      <trkpt lat="43.719251984730363" lon="7.338562002405524">
        <ele>278.44</ele>
        <time>2025-05-18T16:35:57Z</time>
      </trkpt>
      <trkpt lat="43.719356004148722" lon="7.338666021823883">
        <ele>277.95999999999998</ele>
        <time>2025-05-18T16:35:58Z</time>
      </trkpt>
      <trkpt lat="43.719468992203474" lon="7.338736010715365">
        <ele>277.48000000000002</ele>
        <time>2025-05-18T16:35:59Z</time>
      </trkpt>
      <trkpt lat="43.71958902105689" lon="7.338771969079971">
        <ele>277.48000000000002</ele>
        <time>2025-05-18T16:36:00Z</time>
      </trkpt>
      <trkpt lat="43.719703014940023" lon="7.338781021535397">
        <ele>277.48000000000002</ele>
        <time>2025-05-18T16:36:01Z</time>
      </trkpt>
      <trkpt lat="43.719836035743356" lon="7.338781021535397">
        <ele>277</ele>
        <time>2025-05-18T16:36:02Z</time>
      </trkpt>
      <trkpt lat="43.720108028501272" lon="7.338787978515029">
        <ele>276.51999999999998</ele>
        <time>2025-05-18T16:36:04Z</time>
      </trkpt>
      <trkpt lat="43.720237025991082" lon="7.338811028748751">
        <ele>276.51999999999998</ele>
        <time>2025-05-18T16:36:05Z</time>
      </trkpt>
      <trkpt lat="43.720355965197086" lon="7.338883029296994">
        <ele>276.51999999999998</ele>
        <time>2025-05-18T16:36:06Z</time>
      </trkpt>
      <trkpt lat="43.720525028184056" lon="7.339103976264596">
        <ele>277</ele>
        <time>2025-05-18T16:36:08Z</time>
      </trkpt>
      <trkpt lat="43.7205970287323" lon="7.339232973754406">
        <ele>277</ele>
        <time>2025-05-18T16:36:09Z</time>
      </trkpt>
      <trkpt lat="43.720615971833467" lon="7.339385021477938">
        <ele>277.48000000000002</ele>
        <time>2025-05-18T16:36:10Z</time>
      </trkpt>
      <trkpt lat="43.720625024288893" lon="7.339558023959398">
        <ele>277.48000000000002</ele>
        <time>2025-05-18T16:36:11Z</time>
      </trkpt>
      <trkpt lat="43.720631981268525" lon="7.33973303809762">
        <ele>277.95999999999998</ele>
        <time>2025-05-18T16:36:12Z</time>
      </trkpt>
      <trkpt lat="43.720688978210092" lon="7.341597005724907">
        <ele>279.88</ele>
        <time>2025-05-18T16:36:22Z</time>
      </trkpt>
      <trkpt lat="43.720933981239796" lon="7.34317003749311">
        <ele>280.36000000000001</ele>
        <time>2025-05-18T16:36:30Z</time>
      </trkpt>
      <trkpt lat="43.72098402120173" lon="7.343347985297442">
        <ele>280.36000000000001</ele>
        <time>2025-05-18T16:36:31Z</time>
      </trkpt>
      <trkpt lat="43.721051998436451" lon="7.343502966687083">
        <ele>280.36000000000001</ele>
        <time>2025-05-18T16:36:32Z</time>
      </trkpt>
      <trkpt lat="43.721134979277849" lon="7.343631964176893">
        <ele>280.36000000000001</ele>
        <time>2025-05-18T16:36:33Z</time>
      </trkpt>
      <trkpt lat="43.721231035888195" lon="7.343780994415283">
        <ele>280.36000000000001</ele>
        <time>2025-05-18T16:36:34Z</time>
      </trkpt>
      <trkpt lat="43.721326002851129" lon="7.343864981085062">
        <ele>280.36000000000001</ele>
        <time>2025-05-18T16:36:35Z</time>
      </trkpt>
      <trkpt lat="43.721435973420739" lon="7.343961037695408">
        <ele>280.36000000000001</ele>
        <time>2025-05-18T16:36:36Z</time>
      </trkpt>
      <trkpt lat="43.72154401615262" lon="7.344054998829961">
        <ele>280.36000000000001</ele>
        <time>2025-05-18T16:36:37Z</time>
      </trkpt>
      <trkpt lat="43.721671001985669" lon="7.344114007428289">
        <ele>279.88</ele>
        <time>2025-05-18T16:36:38Z</time>
      </trkpt>
      <trkpt lat="43.721798993647099" lon="7.344156000763178">
        <ele>279.88</ele>
        <time>2025-05-18T16:36:39Z</time>
      </trkpt>
      <trkpt lat="43.721928996965289" lon="7.344151977449656">
        <ele>279.88</ele>
        <time>2025-05-18T16:36:40Z</time>
      </trkpt>
      <trkpt lat="43.722054976969957" lon="7.344132028520107">
        <ele>279.88</ele>
        <time>2025-05-18T16:36:41Z</time>
      </trkpt>
      <trkpt lat="43.722181040793657" lon="7.344111995771527">
        <ele>279.39999999999998</ele>
        <time>2025-05-18T16:36:42Z</time>
      </trkpt>
      <trkpt lat="43.722299979999661" lon="7.344068996608257">
        <ele>279.39999999999998</ele>
        <time>2025-05-18T16:36:43Z</time>
      </trkpt>
      <trkpt lat="43.722410034388304" lon="7.344007976353169">
        <ele>279.88</ele>
        <time>2025-05-18T16:36:44Z</time>
      </trkpt>
      <trkpt lat="43.722632993012667" lon="7.343933964148164">
        <ele>279.88</ele>
        <time>2025-05-18T16:36:46Z</time>
      </trkpt>
      <trkpt lat="43.722735000774264" lon="7.343913009390235">
        <ele>280.36000000000001</ele>
        <time>2025-05-18T16:36:47Z</time>
      </trkpt>
      <trkpt lat="43.722845977172256" lon="7.343929018825293">
        <ele>280.36000000000001</ele>
        <time>2025-05-18T16:36:48Z</time>
      </trkpt>
      <trkpt lat="43.722937004640698" lon="7.343977969139814">
        <ele>280.36000000000001</ele>
        <time>2025-05-18T16:36:49Z</time>
      </trkpt>
      <trkpt lat="43.723040018230677" lon="7.344041001051664">
        <ele>280.36000000000001</ele>
        <time>2025-05-18T16:36:50Z</time>
      </trkpt>
      <trkpt lat="43.723143031820655" lon="7.344108978286386">
        <ele>280.83999999999997</ele>
        <time>2025-05-18T16:36:51Z</time>
      </trkpt>
      <trkpt lat="43.723192987963557" lon="7.344238981604576">
        <ele>281.31999999999999</ele>
        <time>2025-05-18T16:36:52Z</time>
      </trkpt>
      <trkpt lat="43.723245039582253" lon="7.344373008236289">
        <ele>281.80000000000001</ele>
        <time>2025-05-18T16:36:53Z</time>
      </trkpt>
      <trkpt lat="43.723289966583252" lon="7.344513991847634">
        <ele>282.27999999999997</ele>
        <time>2025-05-18T16:36:54Z</time>
      </trkpt>
      <trkpt lat="43.723289966583252" lon="7.344674002379179">
        <ele>282.76999999999998</ele>
        <time>2025-05-18T16:36:55Z</time>
      </trkpt>
      <trkpt lat="43.723289966583252" lon="7.344838036224246">
        <ele>283.25</ele>
        <time>2025-05-18T16:36:56Z</time>
      </trkpt>
      <trkpt lat="43.723289966583252" lon="7.345001986250281">
        <ele>283.25</ele>
        <time>2025-05-18T16:36:57Z</time>
      </trkpt>
      <trkpt lat="43.723289966583252" lon="7.345165014266968">
        <ele>283.73000000000002</ele>
        <time>2025-05-18T16:36:58Z</time>
      </trkpt>
      <trkpt lat="43.723339000716805" lon="7.346043018624187">
        <ele>285.64999999999998</ele>
        <time>2025-05-18T16:37:03Z</time>
      </trkpt>
      <trkpt lat="43.723366996273398" lon="7.346228007227182">
        <ele>286.13</ele>
        <time>2025-05-18T16:37:04Z</time>
      </trkpt>
      <trkpt lat="43.723488030955195" lon="7.346590021625161">
        <ele>288.52999999999997</ele>
        <time>2025-05-18T16:37:06Z</time>
      </trkpt>
      <trkpt lat="43.723558019846678" lon="7.346767969429493">
        <ele>289.49000000000001</ele>
        <time>2025-05-18T16:37:07Z</time>
      </trkpt>
      <trkpt lat="43.72364996932447" lon="7.346927979961038">
        <ele>290.45999999999998</ele>
        <time>2025-05-18T16:37:08Z</time>
      </trkpt>
      <trkpt lat="43.723752982914448" lon="7.347066029906273">
        <ele>291.89999999999998</ele>
        <time>2025-05-18T16:37:09Z</time>
      </trkpt>
      <trkpt lat="43.72386303730309" lon="7.347195027396083">
        <ele>292.86000000000001</ele>
        <time>2025-05-18T16:37:10Z</time>
      </trkpt>
      <trkpt lat="43.723975019529462" lon="7.34731899574399">
        <ele>293.81999999999999</ele>
        <time>2025-05-18T16:37:11Z</time>
      </trkpt>
      <trkpt lat="43.724083984270692" lon="7.347440030425787">
        <ele>294.77999999999997</ele>
        <time>2025-05-18T16:37:12Z</time>
      </trkpt>
      <trkpt lat="43.724313983693719" lon="7.347639016807079">
        <ele>297.18000000000001</ele>
        <time>2025-05-18T16:37:14Z</time>
      </trkpt>
      <trkpt lat="43.724432000890374" lon="7.347723003476858">
        <ele>298.14999999999998</ele>
        <time>2025-05-18T16:37:15Z</time>
      </trkpt>
      <trkpt lat="43.724556975066662" lon="7.347766002640128">
        <ele>299.58999999999997</ele>
        <time>2025-05-18T16:37:16Z</time>
      </trkpt>
      <trkpt lat="43.724688990041614" lon="7.347788969054818">
        <ele>300.55000000000001</ele>
        <time>2025-05-18T16:37:17Z</time>
      </trkpt>
      <trkpt lat="43.724835002794862" lon="7.347815036773682">
        <ele>301.02999999999997</ele>
        <time>2025-05-18T16:37:18Z</time>
      </trkpt>
      <trkpt lat="43.724957965314388" lon="7.347801961004734">
        <ele>301.99000000000001</ele>
        <time>2025-05-18T16:37:19Z</time>
      </trkpt>
      <trkpt lat="43.725241022184491" lon="7.347777988761663">
        <ele>302.94999999999999</ele>
        <time>2025-05-18T16:37:21Z</time>
      </trkpt>
      <trkpt lat="43.725375970825553" lon="7.347817970439792">
        <ele>303.43000000000001</ele>
        <time>2025-05-18T16:37:22Z</time>
      </trkpt>
      <trkpt lat="43.725513014942408" lon="7.347858035936952">
        <ele>303.91000000000003</ele>
        <time>2025-05-18T16:37:23Z</time>
      </trkpt>
      <trkpt lat="43.725641006603837" lon="7.347933975979686">
        <ele>304.38999999999999</ele>
        <time>2025-05-18T16:37:24Z</time>
      </trkpt>
      <trkpt lat="43.725752988830209" lon="7.348045958206058">
        <ele>305.36000000000001</ele>
        <time>2025-05-18T16:37:25Z</time>
      </trkpt>
      <trkpt lat="43.725865976884961" lon="7.348159030079842">
        <ele>306.31999999999999</ele>
        <time>2025-05-18T16:37:26Z</time>
      </trkpt>
      <trkpt lat="43.725963039323688" lon="7.348304959014058">
        <ele>307.27999999999997</ele>
        <time>2025-05-18T16:37:27Z</time>
      </trkpt>
      <trkpt lat="43.726045014336705" lon="7.348461030051112">
        <ele>308.72000000000003</ele>
        <time>2025-05-18T16:37:28Z</time>
      </trkpt>
      <trkpt lat="43.726942967623472" lon="7.350164987146854">
        <ele>318.81</ele>
        <time>2025-05-18T16:37:39Z</time>
      </trkpt>
      <trkpt lat="43.72695998288691" lon="7.35034896992147">
        <ele>319.77999999999997</ele>
        <time>2025-05-18T16:37:40Z</time>
      </trkpt>
      <trkpt lat="43.726976998150349" lon="7.350533958524466">
        <ele>320.74000000000001</ele>
        <time>2025-05-18T16:37:41Z</time>
      </trkpt>
      <trkpt lat="43.726966017857194" lon="7.350731017068029">
        <ele>321.69999999999999</ele>
        <time>2025-05-18T16:37:42Z</time>
      </trkpt>
      <trkpt lat="43.726945985108614" lon="7.350916005671024">
        <ele>322.18000000000001</ele>
        <time>2025-05-18T16:37:43Z</time>
      </trkpt>
      <trkpt lat="43.726853029802442" lon="7.352378983050585">
        <ele>328.43000000000001</ele>
        <time>2025-05-18T16:37:51Z</time>
      </trkpt>
      <trkpt lat="43.726865015923977" lon="7.352564977481961">
        <ele>329.38999999999999</ele>
        <time>2025-05-18T16:37:52Z</time>
      </trkpt>
      <trkpt lat="43.726882031187415" lon="7.352734040468931">
        <ele>330.35000000000002</ele>
        <time>2025-05-18T16:37:53Z</time>
      </trkpt>
      <trkpt lat="43.726933998987079" lon="7.352902013808489">
        <ele>330.82999999999998</ele>
        <time>2025-05-18T16:37:54Z</time>
      </trkpt>
      <trkpt lat="43.726987978443503" lon="7.353071998804808">
        <ele>331.79000000000002</ele>
        <time>2025-05-18T16:37:55Z</time>
      </trkpt>
      <trkpt lat="43.72704598121345" lon="7.353245001286268">
        <ele>332.26999999999998</ele>
        <time>2025-05-18T16:37:56Z</time>
      </trkpt>
      <trkpt lat="43.727102978155017" lon="7.353415992110968">
        <ele>333.23000000000002</ele>
        <time>2025-05-18T16:37:57Z</time>
      </trkpt>
      <trkpt lat="43.72786003164947" lon="7.355245007202029">
        <ele>341.41000000000003</ele>
        <time>2025-05-18T16:38:08Z</time>
      </trkpt>
      <trkpt lat="43.72790202498436" lon="7.355422032997012">
        <ele>341.41000000000003</ele>
        <time>2025-05-18T16:38:09Z</time>
      </trkpt>
      <trkpt lat="43.727928008884192" lon="7.355601992458105">
        <ele>341.88999999999999</ele>
        <time>2025-05-18T16:38:10Z</time>
      </trkpt>
      <trkpt lat="43.72801098972559" lon="7.356484020128846">
        <ele>344.29000000000002</ele>
        <time>2025-05-18T16:38:15Z</time>
      </trkpt>
      <trkpt lat="43.728086007758975" lon="7.356666997075081">
        <ele>344.76999999999998</ele>
        <time>2025-05-18T16:38:16Z</time>
      </trkpt>
      <trkpt lat="43.72816102579236" lon="7.356848968192935">
        <ele>344.76999999999998</ele>
        <time>2025-05-18T16:38:17Z</time>
      </trkpt>
      <trkpt lat="43.728253981098533" lon="7.356917029246688">
        <ele>345.25</ele>
        <time>2025-05-18T16:38:18Z</time>
      </trkpt>
      <trkpt lat="43.728366969153285" lon="7.357001015916467">
        <ele>345.73000000000002</ele>
        <time>2025-05-18T16:38:19Z</time>
      </trkpt>
      <trkpt lat="43.728902991861105" lon="7.357307961210609">
        <ele>347.17000000000002</ele>
        <time>2025-05-18T16:38:24Z</time>
      </trkpt>
      <trkpt lat="43.729138020426035" lon="7.357388008385897">
        <ele>348.13</ele>
        <time>2025-05-18T16:38:26Z</time>
      </trkpt>
      <trkpt lat="43.729243967682123" lon="7.357467971742153">
        <ele>348.13</ele>
        <time>2025-05-18T16:38:27Z</time>
      </trkpt>
      <trkpt lat="43.729340024292469" lon="7.357575008645654">
        <ele>348.62</ele>
        <time>2025-05-18T16:38:28Z</time>
      </trkpt>
      <trkpt lat="43.72943096794188" lon="7.357693025842309">
        <ele>349.57999999999998</ele>
        <time>2025-05-18T16:38:29Z</time>
      </trkpt>
      <trkpt lat="43.729518977925181" lon="7.357816994190216">
        <ele>350.06</ele>
        <time>2025-05-18T16:38:30Z</time>
      </trkpt>
      <trkpt lat="43.72966499067843" lon="7.358055040240288">
        <ele>350.54000000000002</ele>
        <time>2025-05-18T16:38:32Z</time>
      </trkpt>
      <trkpt lat="43.72972802259028" lon="7.358157970011234">
        <ele>351.01999999999998</ele>
        <time>2025-05-18T16:38:33Z</time>
      </trkpt>
      <trkpt lat="43.729743026196957" lon="7.358262995257974">
        <ele>351.01999999999998</ele>
        <time>2025-05-18T16:38:34Z</time>
      </trkpt>
      <trkpt lat="43.729763980954885" lon="7.358410013839603">
        <ele>351.5</ele>
        <time>2025-05-18T16:38:35Z</time>
      </trkpt>
      <trkpt lat="43.72977102175355" lon="7.35855401493609">
        <ele>351.5</ele>
        <time>2025-05-18T16:38:36Z</time>
      </trkpt>
      <trkpt lat="43.729803040623665" lon="7.360409013926983">
        <ele>354.86000000000001</ele>
        <time>2025-05-18T16:38:47Z</time>
      </trkpt>
      <trkpt lat="43.72981402091682" lon="7.361331023275852">
        <ele>357.75</ele>
        <time>2025-05-18T16:38:55Z</time>
      </trkpt>
      <trkpt lat="43.72981402091682" lon="7.361430013552308">
        <ele>357.75</ele>
        <time>2025-05-18T16:38:56Z</time>
      </trkpt>
      <trkpt lat="43.72981402091682" lon="7.36177702434361">
        <ele>358.70999999999998</ele>
        <time>2025-05-18T16:38:59Z</time>
      </trkpt>
      <trkpt lat="43.729816032573581" lon="7.361880037933588">
        <ele>358.70999999999998</ele>
        <time>2025-05-18T16:39:00Z</time>
      </trkpt>
      <trkpt lat="43.729846039786935" lon="7.361981039866805">
        <ele>358.70999999999998</ele>
        <time>2025-05-18T16:39:01Z</time>
      </trkpt>
      <trkpt lat="43.729888033121824" lon="7.36207902431488">
        <ele>359.19</ele>
        <time>2025-05-18T16:39:02Z</time>
      </trkpt>
      <trkpt lat="43.729926003143191" lon="7.362178014591336">
        <ele>359.19</ele>
        <time>2025-05-18T16:39:03Z</time>
      </trkpt>
      <trkpt lat="43.730020970106125" lon="7.362371971830726">
        <ele>359.67000000000002</ele>
        <time>2025-05-18T16:39:05Z</time>
      </trkpt>
      <trkpt lat="43.730634022504091" lon="7.363037997856736">
        <ele>359.67000000000002</ele>
        <time>2025-05-18T16:39:15Z</time>
      </trkpt>
      <trkpt lat="43.730694958940148" lon="7.36315400339663">
        <ele>360.14999999999998</ele>
        <time>2025-05-18T16:39:16Z</time>
      </trkpt>
      <trkpt lat="43.731126040220261" lon="7.363954978063703">
        <ele>361.11000000000001</ele>
        <time>2025-05-18T16:39:23Z</time>
      </trkpt>
      <trkpt lat="43.731185970827937" lon="7.364065032452345">
        <ele>361.11000000000001</ele>
        <time>2025-05-18T16:39:24Z</time>
      </trkpt>
      <trkpt lat="43.731229975819588" lon="7.364199981093407">
        <ele>361.11000000000001</ele>
        <time>2025-05-18T16:39:25Z</time>
      </trkpt>
      <trkpt lat="43.731229975819588" lon="7.364346999675036">
        <ele>361.58999999999997</ele>
        <time>2025-05-18T16:39:26Z</time>
      </trkpt>
      <trkpt lat="43.731229975819588" lon="7.364510027691722">
        <ele>361.58999999999997</ele>
        <time>2025-05-18T16:39:27Z</time>
      </trkpt>
      <trkpt lat="43.731196029111743" lon="7.364661991596222">
        <ele>361.11000000000001</ele>
        <time>2025-05-18T16:39:28Z</time>
      </trkpt>
      <trkpt lat="43.731143977493048" lon="7.36483097076416">
        <ele>361.11000000000001</ele>
        <time>2025-05-18T16:39:29Z</time>
      </trkpt>
      <trkpt lat="43.731056973338127" lon="7.364924009889364">
        <ele>361.11000000000001</ele>
        <time>2025-05-18T16:39:30Z</time>
      </trkpt>
      <trkpt lat="43.730972986668348" lon="7.365015037357807">
        <ele>361.58999999999997</ele>
        <time>2025-05-18T16:39:31Z</time>
      </trkpt>
      <trkpt lat="43.730888999998569" lon="7.365104975178838">
        <ele>362.55000000000001</ele>
        <time>2025-05-18T16:39:32Z</time>
      </trkpt>
      <trkpt lat="43.730806019157171" lon="7.365182004868984">
        <ele>363.04000000000002</ele>
        <time>2025-05-18T16:39:33Z</time>
      </trkpt>
      <trkpt lat="43.730722032487392" lon="7.365255011245608">
        <ele>363.04000000000002</ele>
        <time>2025-05-18T16:39:34Z</time>
      </trkpt>
      <trkpt lat="43.730637961998582" lon="7.365328017622232">
        <ele>364</ele>
        <time>2025-05-18T16:39:35Z</time>
      </trkpt>
      <trkpt lat="43.730488009750843" lon="7.365502025932074">
        <ele>364.95999999999998</ele>
        <time>2025-05-18T16:39:37Z</time>
      </trkpt>
      <trkpt lat="43.730425983667374" lon="7.365605039522052">
        <ele>365.44</ele>
        <time>2025-05-18T16:39:38Z</time>
      </trkpt>
      <trkpt lat="43.730377033352852" lon="7.365721967071295">
        <ele>365.44</ele>
        <time>2025-05-18T16:39:39Z</time>
      </trkpt>
      <trkpt lat="43.73033001087606" lon="7.365841995924711">
        <ele>365.44</ele>
        <time>2025-05-18T16:39:40Z</time>
      </trkpt>
      <trkpt lat="43.730282988399267" lon="7.365962024778128">
        <ele>365.92000000000002</ele>
        <time>2025-05-18T16:39:41Z</time>
      </trkpt>
      <trkpt lat="43.730179974809289" lon="7.366196969524026">
        <ele>365.44</ele>
        <time>2025-05-18T16:39:43Z</time>
      </trkpt>
      <trkpt lat="43.730119038373232" lon="7.366307023912668">
        <ele>365.44</ele>
        <time>2025-05-18T16:39:44Z</time>
      </trkpt>
      <trkpt lat="43.73002901673317" lon="7.366382963955402">
        <ele>365.44</ele>
        <time>2025-05-18T16:39:45Z</time>
      </trkpt>
      <trkpt lat="43.729946035891771" lon="7.366421017795801">
        <ele>364.95999999999998</ele>
        <time>2025-05-18T16:39:46Z</time>
      </trkpt>
      <trkpt lat="43.729865988716483" lon="7.366456976160407">
        <ele>364.95999999999998</ele>
        <time>2025-05-18T16:39:47Z</time>
      </trkpt>
      <trkpt lat="43.729787031188607" lon="7.366498969495297">
        <ele>364.48000000000002</ele>
        <time>2025-05-18T16:39:48Z</time>
      </trkpt>
      <trkpt lat="43.729705978184938" lon="7.366540962830186">
        <ele>364</ele>
        <time>2025-05-18T16:39:49Z</time>
      </trkpt>
      <trkpt lat="43.729618974030018" lon="7.366586979478598">
        <ele>364</ele>
        <time>2025-05-18T16:39:50Z</time>
      </trkpt>
      <trkpt lat="43.729491988196969" lon="7.366655040532351">
        <ele>363.51999999999998</ele>
        <time>2025-05-18T16:39:51Z</time>
      </trkpt>
      <trkpt lat="43.729447983205318" lon="7.366698039695621">
        <ele>363.04000000000002</ele>
        <time>2025-05-18T16:39:52Z</time>
      </trkpt>
      <trkpt lat="43.729117987677455" lon="7.367008002474904">
        <ele>363.04000000000002</ele>
        <time>2025-05-18T16:39:56Z</time>
      </trkpt>
      <trkpt lat="43.729072976857424" lon="7.367123002186418">
        <ele>363.04000000000002</ele>
        <time>2025-05-18T16:39:57Z</time>
      </trkpt>
      <trkpt lat="43.729034001007676" lon="7.367249988019466">
        <ele>363.04000000000002</ele>
        <time>2025-05-18T16:39:58Z</time>
      </trkpt>
      <trkpt lat="43.728998964652419" lon="7.367373034358025">
        <ele>363.04000000000002</ele>
        <time>2025-05-18T16:39:59Z</time>
      </trkpt>
      <trkpt lat="43.729018997400999" lon="7.367517035454512">
        <ele>362.55000000000001</ele>
        <time>2025-05-18T16:40:00Z</time>
      </trkpt>
      <trkpt lat="43.72904104180634" lon="7.367685008794069">
        <ele>362.55000000000001</ele>
        <time>2025-05-18T16:40:01Z</time>
      </trkpt>
      <trkpt lat="43.729071971029043" lon="7.367789028212428">
        <ele>363.04000000000002</ele>
        <time>2025-05-18T16:40:02Z</time>
      </trkpt>
      <trkpt lat="43.729112958535552" lon="7.367929005995393">
        <ele>363.04000000000002</ele>
        <time>2025-05-18T16:40:03Z</time>
      </trkpt>
      <trkpt lat="43.729154029861093" lon="7.368076024577022">
        <ele>362.55000000000001</ele>
        <time>2025-05-18T16:40:04Z</time>
      </trkpt>
      <trkpt lat="43.72921303845942" lon="7.368393028154969">
        <ele>362.06999999999999</ele>
        <time>2025-05-18T16:40:06Z</time>
      </trkpt>
      <trkpt lat="43.729227958247066" lon="7.368534011766315">
        <ele>361.58999999999997</ele>
        <time>2025-05-18T16:40:07Z</time>
      </trkpt>
      <trkpt lat="43.729222007095814" lon="7.368693016469479">
        <ele>361.11000000000001</ele>
        <time>2025-05-18T16:40:08Z</time>
      </trkpt>
      <trkpt lat="43.729202980175614" lon="7.368852021172643">
        <ele>360.63</ele>
        <time>2025-05-18T16:40:09Z</time>
      </trkpt>
      <trkpt lat="43.729181019589305" lon="7.369023011997342">
        <ele>360.14999999999998</ele>
        <time>2025-05-18T16:40:10Z</time>
      </trkpt>
      <trkpt lat="43.729011034592986" lon="7.370193041861057">
        <ele>357.75</ele>
        <time>2025-05-18T16:40:16Z</time>
      </trkpt>
      <trkpt lat="43.728984966874123" lon="7.370375012978911">
        <ele>357.26999999999998</ele>
        <time>2025-05-18T16:40:17Z</time>
      </trkpt>
      <trkpt lat="43.728953031823039" lon="7.37056796438992">
        <ele>356.31</ele>
        <time>2025-05-18T16:40:18Z</time>
      </trkpt>
      <trkpt lat="43.728834008798003" lon="7.371144974604249">
        <ele>355.82999999999998</ele>
        <time>2025-05-18T16:40:21Z</time>
      </trkpt>
      <trkpt lat="43.728787992149591" lon="7.371347984299064">
        <ele>356.31</ele>
        <time>2025-05-18T16:40:22Z</time>
      </trkpt>
      <trkpt lat="43.728638039901853" lon="7.372061032801867">
        <ele>355.33999999999997</ele>
        <time>2025-05-18T16:40:26Z</time>
      </trkpt>
      <trkpt lat="43.72865698300302" lon="7.372216014191508">
        <ele>354.86000000000001</ele>
        <time>2025-05-18T16:40:27Z</time>
      </trkpt>
      <trkpt lat="43.728683972731233" lon="7.372368983924389">
        <ele>354.38</ele>
        <time>2025-05-18T16:40:28Z</time>
      </trkpt>
      <trkpt lat="43.728726971894503" lon="7.372496975585818">
        <ele>353.89999999999998</ele>
        <time>2025-05-18T16:40:29Z</time>
      </trkpt>
      <trkpt lat="43.728796038776636" lon="7.372580962255597">
        <ele>352.94</ele>
        <time>2025-05-18T16:40:30Z</time>
      </trkpt>
      <trkpt lat="43.728887988254428" lon="7.372648017480969">
        <ele>351.98000000000002</ele>
        <time>2025-05-18T16:40:31Z</time>
      </trkpt>
      <trkpt lat="43.728987984359264" lon="7.372721023857594">
        <ele>351.01999999999998</ele>
        <time>2025-05-18T16:40:32Z</time>
      </trkpt>
      <trkpt lat="43.729096027091146" lon="7.372797969728708">
        <ele>350.06</ele>
        <time>2025-05-18T16:40:33Z</time>
      </trkpt>
      <trkpt lat="43.72934203594923" lon="7.372941970825195">
        <ele>347.17000000000002</ele>
        <time>2025-05-18T16:40:35Z</time>
      </trkpt>
      <trkpt lat="43.729519983753562" lon="7.373192002996802">
        <ele>345.25</ele>
        <time>2025-05-18T16:40:37Z</time>
      </trkpt>
      <trkpt lat="43.729611011222005" lon="7.373342039063573">
        <ele>343.81</ele>
        <time>2025-05-18T16:40:38Z</time>
      </trkpt>
      <trkpt lat="43.729698015376925" lon="7.373485034331679">
        <ele>342.85000000000002</ele>
        <time>2025-05-18T16:40:39Z</time>
      </trkpt>
      <trkpt lat="43.729790970683098" lon="7.37361797131598">
        <ele>341.41000000000003</ele>
        <time>2025-05-18T16:40:40Z</time>
      </trkpt>
      <trkpt lat="43.72988099232316" lon="7.37374696880579">
        <ele>340.44</ele>
        <time>2025-05-18T16:40:41Z</time>
      </trkpt>
      <trkpt lat="43.729963973164558" lon="7.373864986002445">
        <ele>339.48000000000002</ele>
        <time>2025-05-18T16:40:42Z</time>
      </trkpt>
      <trkpt lat="43.730086013674736" lon="7.373926006257534">
        <ele>338.04000000000002</ele>
        <time>2025-05-18T16:40:43Z</time>
      </trkpt>
      <trkpt lat="43.730334034189582" lon="7.374049974605441">
        <ele>334.19999999999999</ele>
        <time>2025-05-18T16:40:45Z</time>
      </trkpt>
      <trkpt lat="43.73047904111445" lon="7.374121975153685">
        <ele>332.75</ele>
        <time>2025-05-18T16:40:46Z</time>
      </trkpt>
      <trkpt lat="43.730693031102419" lon="7.374207973480225">
        <ele>330.35000000000002</ele>
        <time>2025-05-18T16:40:48Z</time>
      </trkpt>
      <trkpt lat="43.730799984186888" lon="7.374261030927301">
        <ele>328.91000000000003</ele>
        <time>2025-05-18T16:40:49Z</time>
      </trkpt>
      <trkpt lat="43.730897968634963" lon="7.374349962919951">
        <ele>327.94999999999999</ele>
        <time>2025-05-18T16:40:50Z</time>
      </trkpt>
      <trkpt lat="43.730971980839968" lon="7.374472003430128">
        <ele>326.99000000000001</ele>
        <time>2025-05-18T16:40:51Z</time>
      </trkpt>
      <trkpt lat="43.731057979166508" lon="7.374616004526615">
        <ele>326.5</ele>
        <time>2025-05-18T16:40:52Z</time>
      </trkpt>
      <trkpt lat="43.731076000258327" lon="7.374751958996058">
        <ele>326.01999999999998</ele>
        <time>2025-05-18T16:40:53Z</time>
      </trkpt>
      <trkpt lat="43.731097960844636" lon="7.374921021983028">
        <ele>325.06</ele>
        <time>2025-05-18T16:40:54Z</time>
      </trkpt>
      <trkpt lat="43.731159986928105" lon="7.375617977231741">
        <ele>323.13999999999999</ele>
        <time>2025-05-18T16:40:58Z</time>
      </trkpt>
      <trkpt lat="43.731144983321428" lon="7.376178978011012">
        <ele>320.74000000000001</ele>
        <time>2025-05-18T16:41:01Z</time>
      </trkpt>
      <trkpt lat="43.731110030785203" lon="7.376343011856079">
        <ele>319.30000000000001</ele>
        <time>2025-05-18T16:41:02Z</time>
      </trkpt>
      <trkpt lat="43.730963012203574" lon="7.376598995178938">
        <ele>317.85000000000002</ele>
        <time>2025-05-18T16:41:04Z</time>
      </trkpt>
      <trkpt lat="43.730883970856667" lon="7.376724975183606">
        <ele>316.88999999999999</ele>
        <time>2025-05-18T16:41:05Z</time>
      </trkpt>
      <trkpt lat="43.730473006144166" lon="7.377278013154864">
        <ele>311.12</ele>
        <time>2025-05-18T16:41:10Z</time>
      </trkpt>
      <trkpt lat="43.730397988110781" lon="7.377415979281068">
        <ele>310.63999999999999</ele>
        <time>2025-05-18T16:41:11Z</time>
      </trkpt>
      <trkpt lat="43.73035297729075" lon="7.377560986205936">
        <ele>310.16000000000003</ele>
        <time>2025-05-18T16:41:12Z</time>
      </trkpt>
      <trkpt lat="43.730335962027311" lon="7.377728959545493">
        <ele>309.68000000000001</ele>
        <time>2025-05-18T16:41:13Z</time>
      </trkpt>
      <trkpt lat="43.730348031967878" lon="7.377878995612264">
        <ele>309.19999999999999</ele>
        <time>2025-05-18T16:41:14Z</time>
      </trkpt>
      <trkpt lat="43.730394970625639" lon="7.378017967566848">
        <ele>309.19999999999999</ele>
        <time>2025-05-18T16:41:15Z</time>
      </trkpt>
      <trkpt lat="43.730464959517121" lon="7.378129027783871">
        <ele>309.19999999999999</ele>
        <time>2025-05-18T16:41:16Z</time>
      </trkpt>
      <trkpt lat="43.730542995035648" lon="7.378220977261663">
        <ele>308.72000000000003</ele>
        <time>2025-05-18T16:41:17Z</time>
      </trkpt>
      <trkpt lat="43.730649026110768" lon="7.378290966153145">
        <ele>307.75999999999999</ele>
        <time>2025-05-18T16:41:18Z</time>
      </trkpt>
      <trkpt lat="43.730760002508759" lon="7.37836497835815">
        <ele>306.80000000000001</ele>
        <time>2025-05-18T16:41:19Z</time>
      </trkpt>
      <trkpt lat="43.731103995814919" lon="7.378593971952796">
        <ele>305.36000000000001</ele>
        <time>2025-05-18T16:41:22Z</time>
      </trkpt>
      <trkpt lat="43.731214972212911" lon="7.37868600524962">
        <ele>304.38999999999999</ele>
        <time>2025-05-18T16:41:23Z</time>
      </trkpt>
      <trkpt lat="43.731304993852973" lon="7.378802010789514">
        <ele>303.91000000000003</ele>
        <time>2025-05-18T16:41:24Z</time>
      </trkpt>
      <trkpt lat="43.731387974694371" lon="7.378954980522394">
        <ele>303.91000000000003</ele>
        <time>2025-05-18T16:41:25Z</time>
      </trkpt>
      <trkpt lat="43.731454024091363" lon="7.37911599688232">
        <ele>303.43000000000001</ele>
        <time>2025-05-18T16:41:26Z</time>
      </trkpt>
      <trkpt lat="43.731495011597872" lon="7.379282964393497">
        <ele>302.94999999999999</ele>
        <time>2025-05-18T16:41:27Z</time>
      </trkpt>
      <trkpt lat="43.731538010761142" lon="7.379453033208847">
        <ele>302.47000000000003</ele>
        <time>2025-05-18T16:41:28Z</time>
      </trkpt>
      <trkpt lat="43.731552008539438" lon="7.379655037075281">
        <ele>301.50999999999999</ele>
        <time>2025-05-18T16:41:29Z</time>
      </trkpt>
      <trkpt lat="43.731534993276" lon="7.37984798848629">
        <ele>300.55000000000001</ele>
        <time>2025-05-18T16:41:30Z</time>
      </trkpt>
      <trkpt lat="43.731506997719407" lon="7.380028031766415">
        <ele>299.11000000000001</ele>
        <time>2025-05-18T16:41:31Z</time>
      </trkpt>
      <trkpt lat="43.731470033526421" lon="7.380204973742366">
        <ele>298.14999999999998</ele>
        <time>2025-05-18T16:41:32Z</time>
      </trkpt>
      <trkpt lat="43.731415970250964" lon="7.38036397844553">
        <ele>296.69999999999999</ele>
        <time>2025-05-18T16:41:33Z</time>
      </trkpt>
      <trkpt lat="43.731364002451301" lon="7.380520971491933">
        <ele>294.77999999999997</ele>
        <time>2025-05-18T16:41:34Z</time>
      </trkpt>
      <trkpt lat="43.731314968317747" lon="7.380667990073562">
        <ele>293.81999999999999</ele>
        <time>2025-05-18T16:41:35Z</time>
      </trkpt>
      <trkpt lat="43.731268029659986" lon="7.380808973684907">
        <ele>292.38</ele>
        <time>2025-05-18T16:41:36Z</time>
      </trkpt>
      <trkpt lat="43.731244979426265" lon="7.380964960902929">
        <ele>291.42000000000002</ele>
        <time>2025-05-18T16:41:37Z</time>
      </trkpt>
      <trkpt lat="43.731235004961491" lon="7.381122959777713">
        <ele>290.45999999999998</ele>
        <time>2025-05-18T16:41:38Z</time>
      </trkpt>
      <trkpt lat="43.731255037710071" lon="7.381270984187722">
        <ele>289.49000000000001</ele>
        <time>2025-05-18T16:41:39Z</time>
      </trkpt>
      <trkpt lat="43.731302982196212" lon="7.381398975849152">
        <ele>288.05000000000001</ele>
        <time>2025-05-18T16:41:40Z</time>
      </trkpt>
      <trkpt lat="43.731358973309398" lon="7.381547000259161">
        <ele>287.56999999999999</ele>
        <time>2025-05-18T16:41:41Z</time>
      </trkpt>
      <trkpt lat="43.731452012434602" lon="7.381617994979024">
        <ele>287.08999999999997</ele>
        <time>2025-05-18T16:41:42Z</time>
      </trkpt>
      <trkpt lat="43.731552008539438" lon="7.38169502466917">
        <ele>286.61000000000001</ele>
        <time>2025-05-18T16:41:43Z</time>
      </trkpt>
      <trkpt lat="43.731656027957797" lon="7.381773982197046">
        <ele>285.64999999999998</ele>
        <time>2025-05-18T16:41:44Z</time>
      </trkpt>
      <trkpt lat="43.732000021263957" lon="7.381989983841777">
        <ele>283.73000000000002</ele>
        <time>2025-05-18T16:41:47Z</time>
      </trkpt>
      <trkpt lat="43.732091970741749" lon="7.382083022966981">
        <ele>283.25</ele>
        <time>2025-05-18T16:41:48Z</time>
      </trkpt>
      <trkpt lat="43.732174029573798" lon="7.382195005193353">
        <ele>282.76999999999998</ele>
        <time>2025-05-18T16:41:49Z</time>
      </trkpt>
      <trkpt lat="43.732236977666616" lon="7.382315034046769">
        <ele>282.27999999999997</ele>
        <time>2025-05-18T16:41:50Z</time>
      </trkpt>
      <trkpt lat="43.732285005971789" lon="7.382458029314876">
        <ele>281.31999999999999</ele>
        <time>2025-05-18T16:41:51Z</time>
      </trkpt>
      <trkpt lat="43.732328005135059" lon="7.382606975734234">
        <ele>280.83999999999997</ele>
        <time>2025-05-18T16:41:52Z</time>
      </trkpt>
      <trkpt lat="43.732344014570117" lon="7.38277000375092">
        <ele>279.88</ele>
        <time>2025-05-18T16:41:53Z</time>
      </trkpt>
      <trkpt lat="43.732334962114692" lon="7.38292096182704">
        <ele>278.92000000000002</ele>
        <time>2025-05-18T16:41:54Z</time>
      </trkpt>
      <trkpt lat="43.732316019013524" lon="7.383247017860413">
        <ele>277</ele>
        <time>2025-05-18T16:41:56Z</time>
      </trkpt>
      <trkpt lat="43.732280982658267" lon="7.383926035836339">
        <ele>274.11000000000001</ele>
        <time>2025-05-18T16:42:00Z</time>
      </trkpt>
      <trkpt lat="43.732297997921705" lon="7.384085040539503">
        <ele>273.14999999999998</ele>
        <time>2025-05-18T16:42:01Z</time>
      </trkpt>
      <trkpt lat="43.732328005135059" lon="7.384257037192583">
        <ele>272.19</ele>
        <time>2025-05-18T16:42:02Z</time>
      </trkpt>
      <trkpt lat="43.732373015955091" lon="7.38442299887538">
        <ele>271.70999999999998</ele>
        <time>2025-05-18T16:42:03Z</time>
      </trkpt>
      <trkpt lat="43.732439987361431" lon="7.384580997750163">
        <ele>270.75</ele>
        <time>2025-05-18T16:42:04Z</time>
      </trkpt>
      <trkpt lat="43.732507964596152" lon="7.384741008281708">
        <ele>269.79000000000002</ele>
        <time>2025-05-18T16:42:05Z</time>
      </trkpt>
      <trkpt lat="43.732581976801157" lon="7.384915016591549">
        <ele>269.31</ele>
        <time>2025-05-18T16:42:06Z</time>
      </trkpt>
      <trkpt lat="43.733367025852203" lon="7.386546973139048">
        <ele>261.62</ele>
        <time>2025-05-18T16:42:17Z</time>
      </trkpt>
      <trkpt lat="43.73348998837173" lon="7.386860959231854">
        <ele>260.64999999999998</ele>
        <time>2025-05-18T16:42:19Z</time>
      </trkpt>
      <trkpt lat="43.733503986150026" lon="7.387043014168739">
        <ele>260.17000000000002</ele>
        <time>2025-05-18T16:42:20Z</time>
      </trkpt>
      <trkpt lat="43.733503986150026" lon="7.387208975851536">
        <ele>259.69</ele>
        <time>2025-05-18T16:42:21Z</time>
      </trkpt>
      <trkpt lat="43.733503986150026" lon="7.387374015524983">
        <ele>258.73000000000002</ele>
        <time>2025-05-18T16:42:22Z</time>
      </trkpt>
      <trkpt lat="43.733475990593433" lon="7.387538971379399">
        <ele>258.25</ele>
        <time>2025-05-18T16:42:23Z</time>
      </trkpt>
      <trkpt lat="43.733438020572066" lon="7.387693030759692">
        <ele>257.76999999999998</ele>
        <time>2025-05-18T16:42:24Z</time>
      </trkpt>
      <trkpt lat="43.733397033065557" lon="7.387854969128966">
        <ele>257.29000000000002</ele>
        <time>2025-05-18T16:42:25Z</time>
      </trkpt>
      <trkpt lat="43.733343975618482" lon="7.387999976053834">
        <ele>256.81</ele>
        <time>2025-05-18T16:42:26Z</time>
      </trkpt>
      <trkpt lat="43.733288990333676" lon="7.388151017948985">
        <ele>256.32999999999998</ele>
        <time>2025-05-18T16:42:27Z</time>
      </trkpt>
      <trkpt lat="43.733234005048871" lon="7.388303987681866">
        <ele>255.84999999999999</ele>
        <time>2025-05-18T16:42:28Z</time>
      </trkpt>
      <trkpt lat="43.733201986178756" lon="7.388473972678185">
        <ele>255.37</ele>
        <time>2025-05-18T16:42:29Z</time>
      </trkpt>
      <trkpt lat="43.733172984793782" lon="7.388653010129929">
        <ele>254.88999999999999</ele>
        <time>2025-05-18T16:42:30Z</time>
      </trkpt>
      <trkpt lat="43.732984978705645" lon="7.38975296728313">
        <ele>249.59999999999999</ele>
        <time>2025-05-18T16:42:36Z</time>
      </trkpt>
      <trkpt lat="43.732912978157401" lon="7.389895962551236">
        <ele>248.63999999999999</ele>
        <time>2025-05-18T16:42:37Z</time>
      </trkpt>
      <trkpt lat="43.732840977609158" lon="7.390039041638374">
        <ele>247.68000000000001</ele>
        <time>2025-05-18T16:42:38Z</time>
      </trkpt>
      <trkpt lat="43.732747016474605" lon="7.390165021643043">
        <ele>247.19999999999999</ele>
        <time>2025-05-18T16:42:39Z</time>
      </trkpt>
      <trkpt lat="43.732636040076613" lon="7.390244984999299">
        <ele>246.22999999999999</ele>
        <time>2025-05-18T16:42:40Z</time>
      </trkpt>
      <trkpt lat="43.732524979859591" lon="7.390325032174587">
        <ele>245.75</ele>
        <time>2025-05-18T16:42:41Z</time>
      </trkpt>
      <trkpt lat="43.732403023168445" lon="7.390408013015986">
        <ele>245.27000000000001</ele>
        <time>2025-05-18T16:42:42Z</time>
      </trkpt>
      <trkpt lat="43.732280982658267" lon="7.390402983874083">
        <ele>244.78999999999999</ele>
        <time>2025-05-18T16:42:43Z</time>
      </trkpt>
      <trkpt lat="43.73215701431036" lon="7.390398038551211">
        <ele>244.31</ele>
        <time>2025-05-18T16:42:44Z</time>
      </trkpt>
      <trkpt lat="43.732036985456944" lon="7.390393009409308">
        <ele>242.87</ele>
        <time>2025-05-18T16:42:45Z</time>
      </trkpt>
      <trkpt lat="43.731894996017218" lon="7.390386974439025">
        <ele>241.43000000000001</ele>
        <time>2025-05-18T16:42:46Z</time>
      </trkpt>
      <trkpt lat="43.731794999912381" lon="7.390368031337857">
        <ele>239.99000000000001</ele>
        <time>2025-05-18T16:42:47Z</time>
      </trkpt>
      <trkpt lat="43.730870978906751" lon="7.390252025797963">
        <ele>233.25999999999999</ele>
        <time>2025-05-18T16:42:54Z</time>
      </trkpt>
      <trkpt lat="43.73073996976018" lon="7.390270968899131">
        <ele>232.30000000000001</ele>
        <time>2025-05-18T16:42:55Z</time>
      </trkpt>
      <trkpt lat="43.730473006144166" lon="7.39035596139729">
        <ele>230.84999999999999</ele>
        <time>2025-05-18T16:42:57Z</time>
      </trkpt>
      <trkpt lat="43.730216016992927" lon="7.390498034656048">
        <ele>229.41</ele>
        <time>2025-05-18T16:42:59Z</time>
      </trkpt>
      <trkpt lat="43.730090036988258" lon="7.390582021325827">
        <ele>228.93000000000001</ele>
        <time>2025-05-18T16:43:00Z</time>
      </trkpt>
      <trkpt lat="43.729718970134854" lon="7.390830041840673">
        <ele>226.53</ele>
        <time>2025-05-18T16:43:03Z</time>
      </trkpt>
      <trkpt lat="43.729583015665412" lon="7.390883015468717">
        <ele>225.56999999999999</ele>
        <time>2025-05-18T16:43:04Z</time>
      </trkpt>
      <trkpt lat="43.729441026225686" lon="7.39093498326838">
        <ele>224.61000000000001</ele>
        <time>2025-05-18T16:43:05Z</time>
      </trkpt>
      <trkpt lat="43.72930096462369" lon="7.390987034887075">
        <ele>223.63999999999999</ele>
        <time>2025-05-18T16:43:06Z</time>
      </trkpt>
      <trkpt lat="43.729154029861093" lon="7.39099801518023">
        <ele>222.68000000000001</ele>
        <time>2025-05-18T16:43:07Z</time>
      </trkpt>
      <trkpt lat="43.72900097630918" lon="7.391008995473385">
        <ele>222.19999999999999</ele>
        <time>2025-05-18T16:43:08Z</time>
      </trkpt>
      <trkpt lat="43.728845994919538" lon="7.390975970774889">
        <ele>221.24000000000001</ele>
        <time>2025-05-18T16:43:09Z</time>
      </trkpt>
      <trkpt lat="43.728694031015038" lon="7.390942024067044">
        <ele>220.28</ele>
        <time>2025-05-18T16:43:10Z</time>
      </trkpt>
      <trkpt lat="43.728553969413042" lon="7.390887960791588">
        <ele>219.80000000000001</ele>
        <time>2025-05-18T16:43:11Z</time>
      </trkpt>
      <trkpt lat="43.728422038257122" lon="7.39080497995019">
        <ele>218.84</ele>
        <time>2025-05-18T16:43:12Z</time>
      </trkpt>
      <trkpt lat="43.72826898470521" lon="7.390709007158876">
        <ele>217.88</ele>
        <time>2025-05-18T16:43:13Z</time>
      </trkpt>
      <trkpt lat="43.72816395945847" lon="7.390624014660716">
        <ele>217.40000000000001</ele>
        <time>2025-05-18T16:43:14Z</time>
      </trkpt>
      <trkpt lat="43.727003987878561" lon="7.389333033934236">
        <ele>212.59</ele>
        <time>2025-05-18T16:43:24Z</time>
      </trkpt>
      <trkpt lat="43.726902985945344" lon="7.389186015352607">
        <ele>212.11000000000001</ele>
        <time>2025-05-18T16:43:25Z</time>
      </trkpt>
      <trkpt lat="43.726784968748689" lon="7.389062969014049">
        <ele>211.15000000000001</ele>
        <time>2025-05-18T16:43:26Z</time>
      </trkpt>
      <trkpt lat="43.726681033149362" lon="7.388971019536257">
        <ele>210.66999999999999</ele>
        <time>2025-05-18T16:43:27Z</time>
      </trkpt>
      <trkpt lat="43.726525967940688" lon="7.388906981796026">
        <ele>209.69999999999999</ele>
        <time>2025-05-18T16:43:28Z</time>
      </trkpt>
      <trkpt lat="43.726389007642865" lon="7.38885099068284">
        <ele>209.22</ele>
        <time>2025-05-18T16:43:29Z</time>
      </trkpt>
      <trkpt lat="43.726245006546378" lon="7.388825006783009">
        <ele>208.25999999999999</ele>
        <time>2025-05-18T16:43:30Z</time>
      </trkpt>
      <trkpt lat="43.726097987964749" lon="7.388834981247783">
        <ele>207.30000000000001</ele>
        <time>2025-05-18T16:43:31Z</time>
      </trkpt>
      <trkpt lat="43.725952981039882" lon="7.388863982632756">
        <ele>206.34</ele>
        <time>2025-05-18T16:43:32Z</time>
      </trkpt>
      <trkpt lat="43.725823983550072" lon="7.388931959867477">
        <ele>205.86000000000001</ele>
        <time>2025-05-18T16:43:33Z</time>
      </trkpt>
      <trkpt lat="43.725702026858926" lon="7.388998009264469">
        <ele>204.90000000000001</ele>
        <time>2025-05-18T16:43:34Z</time>
      </trkpt>
      <trkpt lat="43.725586021319032" lon="7.389089958742261">
        <ele>203.94</ele>
        <time>2025-05-18T16:43:35Z</time>
      </trkpt>
      <trkpt lat="43.725479990243912" lon="7.389210993424058">
        <ele>202.97999999999999</ele>
        <time>2025-05-18T16:43:36Z</time>
      </trkpt>
      <trkpt lat="43.725412013009191" lon="7.389367986470461">
        <ele>202.49000000000001</ele>
        <time>2025-05-18T16:43:37Z</time>
      </trkpt>
      <trkpt lat="43.725343029946089" lon="7.389534031972289">
        <ele>201.53</ele>
        <time>2025-05-18T16:43:38Z</time>
      </trkpt>
      <trkpt lat="43.725292989984155" lon="7.389719020575285">
        <ele>200.56999999999999</ele>
        <time>2025-05-18T16:43:39Z</time>
      </trkpt>
      <trkpt lat="43.725242028012872" lon="7.389905015006661">
        <ele>199.13</ele>
        <time>2025-05-18T16:43:40Z</time>
      </trkpt>
      <trkpt lat="43.725088974460959" lon="7.390466015785933">
        <ele>195.77000000000001</ele>
        <time>2025-05-18T16:43:43Z</time>
      </trkpt>
      <trkpt lat="43.725041029974818" lon="7.390651004388928">
        <ele>194.80000000000001</ele>
        <time>2025-05-18T16:43:44Z</time>
      </trkpt>
      <trkpt lat="43.724601985886693" lon="7.392611028626561">
        <ele>185.66999999999999</ele>
        <time>2025-05-18T16:43:56Z</time>
      </trkpt>
      <trkpt lat="43.724609026685357" lon="7.3927609808743">
        <ele>185.19</ele>
        <time>2025-05-18T16:43:57Z</time>
      </trkpt>
      <trkpt lat="43.724617995321751" lon="7.392877992242575">
        <ele>184.71000000000001</ele>
        <time>2025-05-18T16:43:58Z</time>
      </trkpt>
      <trkpt lat="43.724693013355136" lon="7.393404962494969">
        <ele>180.87</ele>
        <time>2025-05-18T16:44:06Z</time>
      </trkpt>
      <trkpt lat="43.724756967276335" lon="7.393673015758395">
        <ele>179.41999999999999</ele>
        <time>2025-05-18T16:44:10Z</time>
      </trkpt>
      <trkpt lat="43.724804995581508" lon="7.393867978826165">
        <ele>178.94</ele>
        <time>2025-05-18T16:44:13Z</time>
      </trkpt>
      <trkpt lat="43.724860986694694" lon="7.394004017114639">
        <ele>178.46000000000001</ele>
        <time>2025-05-18T16:44:15Z</time>
      </trkpt>
      <trkpt lat="43.724961988627911" lon="7.394217001274228">
        <ele>177.5</ele>
        <time>2025-05-18T16:44:18Z</time>
      </trkpt>
      <trkpt lat="43.724997024983168" lon="7.394290007650852">
        <ele>177.02000000000001</ele>
        <time>2025-05-18T16:44:19Z</time>
      </trkpt>
      <trkpt lat="43.725356021896005" lon="7.394874980673194">
        <ele>176.53999999999999</ele>
        <time>2025-05-18T16:44:29Z</time>
      </trkpt>
      <trkpt lat="43.725620973855257" lon="7.395331040024757">
        <ele>174.62</ele>
        <time>2025-05-18T16:44:37Z</time>
      </trkpt>
      <trkpt lat="43.725679982453585" lon="7.395435981452465">
        <ele>174.62</ele>
        <time>2025-05-18T16:44:39Z</time>
      </trkpt>
      <trkpt lat="43.725844016298652" lon="7.395730018615723">
        <ele>174.13999999999999</ele>
        <time>2025-05-18T16:44:49Z</time>
      </trkpt>
      <trkpt lat="43.725850973278284" lon="7.395752985030413">
        <ele>174.13999999999999</ele>
        <time>2025-05-18T16:44:59Z</time>
      </trkpt>
      <trkpt lat="43.725924985483289" lon="7.395999999716878">
        <ele>176.06</ele>
        <time>2025-05-18T16:45:19Z</time>
      </trkpt>
      <trkpt lat="43.726066974923015" lon="7.396729979664087">
        <ele>174.13999999999999</ele>
        <time>2025-05-18T16:45:30Z</time>
      </trkpt>
      <trkpt lat="43.726074015721679" lon="7.39692997187376">
        <ele>173.66</ele>
        <time>2025-05-18T16:45:32Z</time>
      </trkpt>
      <trkpt lat="43.726068986579776" lon="7.397027034312487">
        <ele>173.16999999999999</ele>
        <time>2025-05-18T16:45:33Z</time>
      </trkpt>
      <trkpt lat="43.725921967998147" lon="7.398068988695741">
        <ele>170.28999999999999</ele>
        <time>2025-05-18T16:45:43Z</time>
      </trkpt>
      <trkpt lat="43.725805962458253" lon="7.398782959207892">
        <ele>166.93000000000001</ele>
        <time>2025-05-18T16:45:50Z</time>
      </trkpt>
      <trkpt lat="43.725792970508337" lon="7.398864012211561">
        <ele>166.44999999999999</ele>
        <time>2025-05-18T16:45:51Z</time>
      </trkpt>
      <trkpt lat="43.725718036293983" lon="7.399228038266301">
        <ele>163.08000000000001</ele>
        <time>2025-05-18T16:45:58Z</time>
      </trkpt>
      <trkpt lat="43.725718036293983" lon="7.399228038266301">
        <ele>162.12</ele>
        <time>2025-05-18T16:46:10Z</time>
      </trkpt>
      <trkpt lat="43.725707978010178" lon="7.399260979145765">
        <ele>161.63999999999999</ele>
        <time>2025-05-18T16:46:15Z</time>
      </trkpt>
      <trkpt lat="43.725700015202165" lon="7.399292998015881">
        <ele>161.16</ele>
        <time>2025-05-18T16:46:16Z</time>
      </trkpt>
      <trkpt lat="43.725536987185478" lon="7.399890962988138">
        <ele>160.68000000000001</ele>
        <time>2025-05-18T16:46:24Z</time>
      </trkpt>
      <trkpt lat="43.725203974172473" lon="7.400943981483579">
        <ele>155.87</ele>
        <time>2025-05-18T16:46:32Z</time>
      </trkpt>
      <trkpt lat="43.725144965574145" lon="7.401085970923305">
        <ele>155.38999999999999</ele>
        <time>2025-05-18T16:46:33Z</time>
      </trkpt>
      <trkpt lat="43.72506701387465" lon="7.401228966191411">
        <ele>154.43000000000001</ele>
        <time>2025-05-18T16:46:34Z</time>
      </trkpt>
      <trkpt lat="43.724984033033252" lon="7.40135402418673">
        <ele>153.94999999999999</ele>
        <time>2025-05-18T16:46:35Z</time>
      </trkpt>
      <trkpt lat="43.724897028878331" lon="7.401485033333302">
        <ele>152.99000000000001</ele>
        <time>2025-05-18T16:46:36Z</time>
      </trkpt>
      <trkpt lat="43.724569967016578" lon="7.401969004422426">
        <ele>150.58000000000001</ele>
        <time>2025-05-18T16:46:40Z</time>
      </trkpt>
      <trkpt lat="43.724509030580521" lon="7.402090961113572">
        <ele>149.62</ele>
        <time>2025-05-18T16:46:41Z</time>
      </trkpt>
      <trkpt lat="43.724473994225264" lon="7.402221970260143">
        <ele>149.13999999999999</ele>
        <time>2025-05-18T16:46:42Z</time>
      </trkpt>
      <trkpt lat="43.724448010325432" lon="7.402358008548617">
        <ele>148.66</ele>
        <time>2025-05-18T16:46:43Z</time>
      </trkpt>
      <trkpt lat="43.724425965920091" lon="7.40249496884644">
        <ele>147.69999999999999</ele>
        <time>2025-05-18T16:46:44Z</time>
      </trkpt>
      <trkpt lat="43.724416997283697" lon="7.402640981599689">
        <ele>146.74000000000001</ele>
        <time>2025-05-18T16:46:45Z</time>
      </trkpt>
      <trkpt lat="43.724409034475684" lon="7.402789006009698">
        <ele>145.78</ele>
        <time>2025-05-18T16:46:46Z</time>
      </trkpt>
      <trkpt lat="43.724399982020259" lon="7.402937030419707">
        <ele>145.30000000000001</ele>
        <time>2025-05-18T16:46:47Z</time>
      </trkpt>
      <trkpt lat="43.724381038919091" lon="7.403239030390978">
        <ele>143.37</ele>
        <time>2025-05-18T16:46:49Z</time>
      </trkpt>
      <trkpt lat="43.724371986463666" lon="7.403393005952239">
        <ele>142.41</ele>
        <time>2025-05-18T16:46:50Z</time>
      </trkpt>
      <trkpt lat="43.724362011998892" lon="7.40354597568512">
        <ele>140.97</ele>
        <time>2025-05-18T16:46:51Z</time>
      </trkpt>
      <trkpt lat="43.724324963986874" lon="7.403683019801974">
        <ele>140.00999999999999</ele>
        <time>2025-05-18T16:46:52Z</time>
      </trkpt>
      <trkpt lat="43.724289005622268" lon="7.403819980099797">
        <ele>139.05000000000001</ele>
        <time>2025-05-18T16:46:53Z</time>
      </trkpt>
      <trkpt lat="43.724211975932121" lon="7.404108988121152">
        <ele>137.61000000000001</ele>
        <time>2025-05-18T16:46:55Z</time>
      </trkpt>
      <trkpt lat="43.724087001755834" lon="7.405147003009915">
        <ele>130.40000000000001</ele>
        <time>2025-05-18T16:47:02Z</time>
      </trkpt>
      <trkpt lat="43.724110973998904" lon="7.405300978571177">
        <ele>129.43000000000001</ele>
        <time>2025-05-18T16:47:03Z</time>
      </trkpt>
      <trkpt lat="43.724149027839303" lon="7.405439028516412">
        <ele>128.47</ele>
        <time>2025-05-18T16:47:04Z</time>
      </trkpt>
      <trkpt lat="43.724188003689051" lon="7.405574982985854">
        <ele>127.51000000000001</ele>
        <time>2025-05-18T16:47:05Z</time>
      </trkpt>
      <trkpt lat="43.724238965660334" lon="7.405709009617567">
        <ele>126.55</ele>
        <time>2025-05-18T16:47:06Z</time>
      </trkpt>
      <trkpt lat="43.724308032542467" lon="7.405819986015558">
        <ele>125.59</ele>
        <time>2025-05-18T16:47:07Z</time>
      </trkpt>
      <trkpt lat="43.724591005593538" lon="7.406269004568458">
        <ele>122.70999999999999</ele>
        <time>2025-05-18T16:47:11Z</time>
      </trkpt>
      <trkpt lat="43.724660994485021" lon="7.406365983188152">
        <ele>122.22</ele>
        <time>2025-05-18T16:47:12Z</time>
      </trkpt>
      <trkpt lat="43.724846988916397" lon="7.406505960971117">
        <ele>120.78</ele>
        <time>2025-05-18T16:47:14Z</time>
      </trkpt>
      <trkpt lat="43.724940028041601" lon="7.406564969569445">
        <ele>119.81999999999999</ele>
        <time>2025-05-18T16:47:15Z</time>
      </trkpt>
      <trkpt lat="43.725039018318057" lon="7.406612997874618">
        <ele>118.86</ele>
        <time>2025-05-18T16:47:16Z</time>
      </trkpt>
      <trkpt lat="43.725975025445223" lon="7.407019017264247">
        <ele>113.09</ele>
        <time>2025-05-18T16:47:25Z</time>
      </trkpt>
      <trkpt lat="43.726705005392432" lon="7.407240970060229">
        <ele>108.77</ele>
        <time>2025-05-18T16:47:32Z</time>
      </trkpt>
      <trkpt lat="43.727110018953681" lon="7.407334009185433">
        <ele>106.84</ele>
        <time>2025-05-18T16:47:36Z</time>
      </trkpt>
      <trkpt lat="43.727200962603092" lon="7.407350018620491">
        <ele>106.84</ele>
        <time>2025-05-18T16:47:37Z</time>
      </trkpt>
      <trkpt lat="43.727289978414774" lon="7.407365022227168">
        <ele>106.84</ele>
        <time>2025-05-18T16:47:38Z</time>
      </trkpt>
      <trkpt lat="43.72738896869123" lon="7.407382037490606">
        <ele>106.84</ele>
        <time>2025-05-18T16:47:39Z</time>
      </trkpt>
      <trkpt lat="43.727473961189389" lon="7.407439034432173">
        <ele>106.84</ele>
        <time>2025-05-18T16:47:40Z</time>
      </trkpt>
      <trkpt lat="43.727559959515929" lon="7.407498965039849">
        <ele>106.84</ele>
        <time>2025-05-18T16:47:41Z</time>
      </trkpt>
      <trkpt lat="43.72764403000474" lon="7.407557973638177">
        <ele>107.31999999999999</ele>
        <time>2025-05-18T16:47:42Z</time>
      </trkpt>
      <trkpt lat="43.727787025272846" lon="7.40771496668458">
        <ele>108.77</ele>
        <time>2025-05-18T16:47:44Z</time>
      </trkpt>
      <trkpt lat="43.727857014164329" lon="7.407785961404443">
        <ele>109.25</ele>
        <time>2025-05-18T16:47:45Z</time>
      </trkpt>
      <trkpt lat="43.72792499139905" lon="7.407854022458196">
        <ele>110.69</ele>
        <time>2025-05-18T16:47:46Z</time>
      </trkpt>
      <trkpt lat="43.728038985282183" lon="7.407968016341329">
        <ele>111.65000000000001</ele>
        <time>2025-05-18T16:47:48Z</time>
      </trkpt>
      <trkpt lat="43.728280970826745" lon="7.40820899605751">
        <ele>115.98</ele>
        <time>2025-05-18T16:47:55Z</time>
      </trkpt>
      <trkpt lat="43.72829002328217" lon="7.408217964693904">
        <ele>116.45999999999999</ele>
        <time>2025-05-18T16:47:56Z</time>
      </trkpt>
      <trkpt lat="43.728315001353621" lon="7.408227017149329">
        <ele>116.94</ele>
        <time>2025-05-18T16:47:57Z</time>
      </trkpt>
      <trkpt lat="43.728348026052117" lon="7.408239003270865">
        <ele>116.94</ele>
        <time>2025-05-18T16:47:58Z</time>
      </trkpt>
      <trkpt lat="43.728385996073484" lon="7.408253001049161">
        <ele>117.42</ele>
        <time>2025-05-18T16:47:59Z</time>
      </trkpt>
      <trkpt lat="43.728792015463114" lon="7.408346962183714">
        <ele>121.26000000000001</ele>
        <time>2025-05-18T16:48:07Z</time>
      </trkpt>
      <trkpt lat="43.728868961334229" lon="7.408496998250485">
        <ele>121.73999999999999</ele>
        <time>2025-05-18T16:48:08Z</time>
      </trkpt>
      <trkpt lat="43.728954959660769" lon="7.408496998250485">
        <ele>122.22</ele>
        <time>2025-05-18T16:48:09Z</time>
      </trkpt>
      <trkpt lat="43.728974992409348" lon="7.408517030999064">
        <ele>122.22</ele>
        <time>2025-05-18T16:48:10Z</time>
      </trkpt>
      <trkpt lat="43.729023020714521" lon="7.408562963828445">
        <ele>122.70999999999999</ele>
        <time>2025-05-18T16:48:11Z</time>
      </trkpt>
      <trkpt lat="43.729090997949243" lon="7.408588025718927">
        <ele>122.70999999999999</ele>
        <time>2025-05-18T16:48:12Z</time>
      </trkpt>
      <trkpt lat="43.729299958795309" lon="7.408663965761662">
        <ele>124.15000000000001</ele>
        <time>2025-05-18T16:48:15Z</time>
      </trkpt>
      <trkpt lat="43.729371037334204" lon="7.408689027652144">
        <ele>124.63</ele>
        <time>2025-05-18T16:48:16Z</time>
      </trkpt>
      <trkpt lat="43.730001021176577" lon="7.409082977101207">
        <ele>129.91999999999999</ele>
        <time>2025-05-18T16:48:24Z</time>
      </trkpt>
      <trkpt lat="43.730305032804608" lon="7.409336026757956">
        <ele>131.84</ele>
        <time>2025-05-18T16:48:28Z</time>
      </trkpt>
      <trkpt lat="43.730556992813945" lon="7.409549010917544">
        <ele>133.28</ele>
        <time>2025-05-18T16:48:31Z</time>
      </trkpt>
      <trkpt lat="43.730633016675711" lon="7.409628974273801">
        <ele>133.28</ele>
        <time>2025-05-18T16:48:32Z</time>
      </trkpt>
      <trkpt lat="43.730813981965184" lon="7.409894010052085">
        <ele>134.72</ele>
        <time>2025-05-18T16:48:35Z</time>
      </trkpt>
      <trkpt lat="43.730875002220273" lon="7.409983025863767">
        <ele>134.72</ele>
        <time>2025-05-18T16:48:36Z</time>
      </trkpt>
      <trkpt lat="43.730919007211924" lon="7.410086039453745">
        <ele>135.19999999999999</ele>
        <time>2025-05-18T16:48:37Z</time>
      </trkpt>
      <trkpt lat="43.730996958911419" lon="7.410288965329528">
        <ele>135.19999999999999</ele>
        <time>2025-05-18T16:48:39Z</time>
      </trkpt>
      <trkpt lat="43.731031995266676" lon="7.410382004454732">
        <ele>135.19999999999999</ele>
        <time>2025-05-18T16:48:40Z</time>
      </trkpt>
      <trkpt lat="43.731071976944804" lon="7.41059398278594">
        <ele>135.19999999999999</ele>
        <time>2025-05-18T16:48:42Z</time>
      </trkpt>
      <trkpt lat="43.731103995814919" lon="7.410938981920481">
        <ele>135.68000000000001</ele>
        <time>2025-05-18T16:48:45Z</time>
      </trkpt>
      <trkpt lat="43.731114976108074" lon="7.411062028259039">
        <ele>135.19999999999999</ele>
        <time>2025-05-18T16:48:46Z</time>
      </trkpt>
      <trkpt lat="43.731203991919756" lon="7.411401998251677">
        <ele>134.72</ele>
        <time>2025-05-18T16:48:49Z</time>
      </trkpt>
      <trkpt lat="43.731229975819588" lon="7.411995017901063">
        <ele>135.19999999999999</ele>
        <time>2025-05-18T16:48:53Z</time>
      </trkpt>
      <trkpt lat="43.731216983869672" lon="7.412126027047634">
        <ele>135.68000000000001</ele>
        <time>2025-05-18T16:48:55Z</time>
      </trkpt>
      <trkpt lat="43.731194017454982" lon="7.412367006763816">
        <ele>136.63999999999999</ele>
        <time>2025-05-18T16:48:57Z</time>
      </trkpt>
      <trkpt lat="43.731182031333447" lon="7.412486029788852">
        <ele>137.13</ele>
        <time>2025-05-18T16:48:58Z</time>
      </trkpt>
      <trkpt lat="43.731143977493048" lon="7.413004031404853">
        <ele>139.05000000000001</ele>
        <time>2025-05-18T16:49:03Z</time>
      </trkpt>
      <trkpt lat="43.731194017454982" lon="7.413153983652592">
        <ele>139.05000000000001</ele>
        <time>2025-05-18T16:49:04Z</time>
      </trkpt>
      <trkpt lat="43.731230981647968" lon="7.413264038041234">
        <ele>138.56999999999999</ele>
        <time>2025-05-18T16:49:05Z</time>
      </trkpt>
      <trkpt lat="43.731272974982858" lon="7.413390018045902">
        <ele>138.09</ele>
        <time>2025-05-18T16:49:06Z</time>
      </trkpt>
      <trkpt lat="43.731323014944792" lon="7.413448020815849">
        <ele>137.13</ele>
        <time>2025-05-18T16:49:07Z</time>
      </trkpt>
      <trkpt lat="43.731385041028261" lon="7.413520021364093">
        <ele>136.63999999999999</ele>
        <time>2025-05-18T16:49:08Z</time>
      </trkpt>
      <trkpt lat="43.731400966644287" lon="7.413539970293641">
        <ele>136.16</ele>
        <time>2025-05-18T16:49:09Z</time>
      </trkpt>
      <trkpt lat="43.731480007991195" lon="7.413555979728699">
        <ele>135.19999999999999</ele>
        <time>2025-05-18T16:49:10Z</time>
      </trkpt>
      <trkpt lat="43.731509009376168" lon="7.413561008870602">
        <ele>134.72</ele>
        <time>2025-05-18T16:49:11Z</time>
      </trkpt>
      <trkpt lat="43.731552008539438" lon="7.413711966946721">
        <ele>134.72</ele>
        <time>2025-05-18T16:49:12Z</time>
      </trkpt>
      <trkpt lat="43.731604982167482" lon="7.413734011352062">
        <ele>134.24000000000001</ele>
        <time>2025-05-18T16:49:13Z</time>
      </trkpt>
      <trkpt lat="43.731664996594191" lon="7.413759995251894">
        <ele>133.75999999999999</ele>
        <time>2025-05-18T16:49:14Z</time>
      </trkpt>
      <trkpt lat="43.731744037941098" lon="7.413730993866921">
        <ele>133.75999999999999</ele>
        <time>2025-05-18T16:49:15Z</time>
      </trkpt>
      <trkpt lat="43.731799023225904" lon="7.413490014150739">
        <ele>133.28</ele>
        <time>2025-05-18T16:49:16Z</time>
      </trkpt>
      <trkpt lat="43.731871023774147" lon="7.413483979180455">
        <ele>133.28</ele>
        <time>2025-05-18T16:49:17Z</time>
      </trkpt>
      <trkpt lat="43.732022987678647" lon="7.413480039685965">
        <ele>132.80000000000001</ele>
        <time>2025-05-18T16:49:19Z</time>
      </trkpt>
      <trkpt lat="43.732104040682316" lon="7.413486996665597">
        <ele>132.31999999999999</ele>
        <time>2025-05-18T16:49:20Z</time>
      </trkpt>
      <trkpt lat="43.732367986813188" lon="7.413511974737048">
        <ele>130.40000000000001</ele>
        <time>2025-05-18T16:49:23Z</time>
      </trkpt>
      <trkpt lat="43.732467982918024" lon="7.413521027192473">
        <ele>129.91999999999999</ele>
        <time>2025-05-18T16:49:24Z</time>
      </trkpt>
      <trkpt lat="43.732969975098968" lon="7.413575006648898">
        <ele>124.63</ele>
        <time>2025-05-18T16:49:29Z</time>
      </trkpt>
      <trkpt lat="43.733257977291942" lon="7.413596967235208">
        <ele>118.86</ele>
        <time>2025-05-18T16:49:33Z</time>
      </trkpt>
      <trkpt lat="43.733332995325327" lon="7.413690006360412">
        <ele>117.90000000000001</ele>
        <time>2025-05-18T16:49:34Z</time>
      </trkpt>
      <trkpt lat="43.733456963673234" lon="7.413810035213828">
        <ele>116.45999999999999</ele>
        <time>2025-05-18T16:49:36Z</time>
      </trkpt>
      <trkpt lat="43.734007989987731" lon="7.414692984893918">
        <ele>110.20999999999999</ele>
        <time>2025-05-18T16:49:45Z</time>
      </trkpt>
      <trkpt lat="43.734086025506258" lon="7.414787029847503">
        <ele>109.73</ele>
        <time>2025-05-18T16:49:46Z</time>
      </trkpt>
      <trkpt lat="43.734416021034122" lon="7.415085006505251">
        <ele>105.88</ele>
        <time>2025-05-18T16:49:50Z</time>
      </trkpt>
      <trkpt lat="43.734506964683533" lon="7.41514703258872">
        <ele>104.92</ele>
        <time>2025-05-18T16:49:51Z</time>
      </trkpt>
      <trkpt lat="43.734596986323595" lon="7.415208974853158">
        <ele>104.44</ele>
        <time>2025-05-18T16:49:52Z</time>
      </trkpt>
      <trkpt lat="43.735137032344937" lon="7.415623040869832">
        <ele>98.670000000000002</ele>
        <time>2025-05-18T16:49:58Z</time>
      </trkpt>
      <trkpt lat="43.73544498346746" lon="7.415994023904204">
        <ele>95.310000000000002</ele>
        <time>2025-05-18T16:50:02Z</time>
      </trkpt>
      <trkpt lat="43.735542967915535" lon="7.41613601334393">
        <ele>94.349999999999994</ele>
        <time>2025-05-18T16:50:03Z</time>
      </trkpt>
      <trkpt lat="43.735604993999004" lon="7.41617800667882">
        <ele>92.900000000000006</ele>
        <time>2025-05-18T16:50:04Z</time>
      </trkpt>
      <trkpt lat="43.735785959288478" lon="7.416245983913541">
        <ele>90.980000000000004</ele>
        <time>2025-05-18T16:50:06Z</time>
      </trkpt>
      <trkpt lat="43.735887967050076" lon="7.416267022490501">
        <ele>90.5</ele>
        <time>2025-05-18T16:50:07Z</time>
      </trkpt>
      <trkpt lat="43.735987041145563" lon="7.41628697142005">
        <ele>89.540000000000006</ele>
        <time>2025-05-18T16:50:08Z</time>
      </trkpt>
      <trkpt lat="43.7360870372504" lon="7.41630800999701">
        <ele>89.060000000000002</ele>
        <time>2025-05-18T16:50:09Z</time>
      </trkpt>
      <trkpt lat="43.736293986439705" lon="7.41635100916028">
        <ele>88.579999999999998</ele>
        <time>2025-05-18T16:50:10Z</time>
      </trkpt>
      <trkpt lat="43.736293986439705" lon="7.41635100916028">
        <ele>87.620000000000005</ele>
        <time>2025-05-18T16:50:11Z</time>
      </trkpt>
      <trkpt lat="43.736464977264404" lon="7.41635100916028">
        <ele>86.659999999999997</ele>
        <time>2025-05-18T16:50:12Z</time>
      </trkpt>
      <trkpt lat="43.736464977264404" lon="7.41635100916028">
        <ele>85.689999999999998</ele>
        <time>2025-05-18T16:50:13Z</time>
      </trkpt>
      <trkpt lat="43.736574025824666" lon="7.416386967524886">
        <ele>85.209999999999994</ele>
        <time>2025-05-18T16:50:14Z</time>
      </trkpt>
      <trkpt lat="43.736666981130838" lon="7.416417980566621">
        <ele>84.25</ele>
        <time>2025-05-18T16:50:15Z</time>
      </trkpt>
      <trkpt lat="43.736762031912804" lon="7.416449999436736">
        <ele>83.769999999999996</ele>
        <time>2025-05-18T16:50:16Z</time>
      </trkpt>
      <trkpt lat="43.736851969733834" lon="7.41648000665009">
        <ele>83.290000000000006</ele>
        <time>2025-05-18T16:50:17Z</time>
      </trkpt>
      <trkpt lat="43.736909972503781" lon="7.416567010805011">
        <ele>83.290000000000006</ele>
        <time>2025-05-18T16:50:18Z</time>
      </trkpt>
      <trkpt lat="43.736977027729154" lon="7.416667006909847">
        <ele>83.290000000000006</ele>
        <time>2025-05-18T16:50:19Z</time>
      </trkpt>
      <trkpt lat="43.737042993307114" lon="7.416767003014684">
        <ele>83.290000000000006</ele>
        <time>2025-05-18T16:50:20Z</time>
      </trkpt>
      <trkpt lat="43.737102001905441" lon="7.416854007169604">
        <ele>83.290000000000006</ele>
        <time>2025-05-18T16:50:21Z</time>
      </trkpt>
      <trkpt lat="43.737152041867375" lon="7.417017035186291">
        <ele>82.810000000000002</ele>
        <time>2025-05-18T16:50:23Z</time>
      </trkpt>
      <trkpt lat="43.737170984968543" lon="7.417083000764251">
        <ele>82.810000000000002</ele>
        <time>2025-05-18T16:50:24Z</time>
      </trkpt>
      <trkpt lat="43.737195041030645" lon="7.417165981605649">
        <ele>82.329999999999998</ele>
        <time>2025-05-18T16:50:25Z</time>
      </trkpt>
      <trkpt lat="43.737180959433317" lon="7.41723001934588">
        <ele>81.849999999999994</ele>
        <time>2025-05-18T16:50:26Z</time>
      </trkpt>
      <trkpt lat="43.737152041867375" lon="7.41735901683569">
        <ele>81.370000000000005</ele>
        <time>2025-05-18T16:50:27Z</time>
      </trkpt>
      <trkpt lat="43.737158998847008" lon="7.417417019605637">
        <ele>80.890000000000001</ele>
        <time>2025-05-18T16:50:28Z</time>
      </trkpt>
      <trkpt lat="43.737171990796924" lon="7.417515004053712">
        <ele>80.409999999999997</ele>
        <time>2025-05-18T16:50:29Z</time>
      </trkpt>
      <trkpt lat="43.73718498274684" lon="7.417619023472071">
        <ele>80.409999999999997</ele>
        <time>2025-05-18T16:50:30Z</time>
      </trkpt>
      <trkpt lat="43.737201998010278" lon="7.417714996263385">
        <ele>80.409999999999997</ele>
        <time>2025-05-18T16:50:31Z</time>
      </trkpt>
      <trkpt lat="43.737244997173548" lon="7.41778900846839">
        <ele>80.409999999999997</ele>
        <time>2025-05-18T16:50:32Z</time>
      </trkpt>
      <trkpt lat="43.737281039357185" lon="7.417852962389588">
        <ele>80.409999999999997</ele>
        <time>2025-05-18T16:50:33Z</time>
      </trkpt>
      <trkpt lat="43.737351028248668" lon="7.417917000129819">
        <ele>80.890000000000001</ele>
        <time>2025-05-18T16:50:34Z</time>
      </trkpt>
      <trkpt lat="43.737406013533473" lon="7.417968967929483">
        <ele>80.409999999999997</ele>
        <time>2025-05-18T16:50:35Z</time>
      </trkpt>
      <trkpt lat="43.737579016014934" lon="7.41817600093782">
        <ele>80.409999999999997</ele>
        <time>2025-05-18T16:50:38Z</time>
      </trkpt>
      <trkpt lat="43.737602988258004" lon="7.418260993435979">
        <ele>80.409999999999997</ele>
        <time>2025-05-18T16:50:39Z</time>
      </trkpt>
      <trkpt lat="43.737602988258004" lon="7.418260993435979">
        <ele>79.930000000000007</ele>
        <time>2025-05-18T16:50:40Z</time>
      </trkpt>
      <trkpt lat="43.737581027671695" lon="7.418411029502749">
        <ele>79.930000000000007</ele>
        <time>2025-05-18T16:50:41Z</time>
      </trkpt>
      <trkpt lat="43.737537022680044" lon="7.418528040871024">
        <ele>79.450000000000003</ele>
        <time>2025-05-18T16:50:42Z</time>
      </trkpt>
      <trkpt lat="43.737516989931464" lon="7.418583026155829">
        <ele>79.450000000000003</ele>
        <time>2025-05-18T16:50:43Z</time>
      </trkpt>
      <trkpt lat="43.73744297772646" lon="7.418694002553821">
        <ele>79.450000000000003</ele>
        <time>2025-05-18T16:50:44Z</time>
      </trkpt>
      <trkpt lat="43.737238040193915" lon="7.419012011960149">
        <ele>77.519999999999996</ele>
        <time>2025-05-18T16:50:49Z</time>
      </trkpt>
      <trkpt lat="43.737131003290415" lon="7.419140003621578">
        <ele>77.040000000000006</ele>
        <time>2025-05-18T16:50:50Z</time>
      </trkpt>
      <trkpt lat="43.737131003290415" lon="7.419140003621578">
        <ele>77.040000000000006</ele>
        <time>2025-05-18T16:50:51Z</time>
      </trkpt>
      <trkpt lat="43.737108958885074" lon="7.419194988906384">
        <ele>76.560000000000002</ele>
        <time>2025-05-18T16:50:52Z</time>
      </trkpt>
      <trkpt lat="43.737088004127145" lon="7.419247962534428">
        <ele>76.560000000000002</ele>
        <time>2025-05-18T16:50:53Z</time>
      </trkpt>
      <trkpt lat="43.73705598525703" lon="7.419344019144774">
        <ele>76.560000000000002</ele>
        <time>2025-05-18T16:50:54Z</time>
      </trkpt>
      <trkpt lat="43.737051961943507" lon="7.419446026906371">
        <ele>76.560000000000002</ele>
        <time>2025-05-18T16:50:55Z</time>
      </trkpt>
      <trkpt lat="43.737061014398932" lon="7.419538982212544">
        <ele>76.079999999999998</ele>
        <time>2025-05-18T16:50:56Z</time>
      </trkpt>
      <trkpt lat="43.737086998298764" lon="7.419623974710703">
        <ele>76.079999999999998</ele>
        <time>2025-05-18T16:50:57Z</time>
      </trkpt>
      <trkpt lat="43.737132009118795" lon="7.419696981087327">
        <ele>76.079999999999998</ele>
        <time>2025-05-18T16:50:58Z</time>
      </trkpt>
      <trkpt lat="43.737176014110446" lon="7.419766969978809">
        <ele>75.599999999999994</ele>
        <time>2025-05-18T16:50:59Z</time>
      </trkpt>
      <trkpt lat="43.737219013273716" lon="7.419836036860943">
        <ele>75.599999999999994</ele>
        <time>2025-05-18T16:51:00Z</time>
      </trkpt>
      <trkpt lat="43.737261006608605" lon="7.419902002438903">
        <ele>75.120000000000005</ele>
        <time>2025-05-18T16:51:01Z</time>
      </trkpt>
      <trkpt lat="43.737306017428637" lon="7.419943995773792">
        <ele>74.640000000000001</ele>
        <time>2025-05-18T16:51:02Z</time>
      </trkpt>
      <trkpt lat="43.737361002713442" lon="7.419966040179133">
        <ele>74.159999999999997</ele>
        <time>2025-05-18T16:51:03Z</time>
      </trkpt>
      <trkpt lat="43.737410036846995" lon="7.419957993552089">
        <ele>73.680000000000007</ele>
        <time>2025-05-18T16:51:04Z</time>
      </trkpt>
      <trkpt lat="43.73746401630342" lon="7.419912982732058">
        <ele>73.200000000000003</ele>
        <time>2025-05-18T16:51:05Z</time>
      </trkpt>
      <trkpt lat="43.737538028508425" lon="7.419849028810859">
        <ele>72.719999999999999</ele>
        <time>2025-05-18T16:51:06Z</time>
      </trkpt>
      <trkpt lat="43.737563006579876" lon="7.419802006334066">
        <ele>72.239999999999995</ele>
        <time>2025-05-18T16:51:07Z</time>
      </trkpt>
      <trkpt lat="43.737597959116101" lon="7.419737968593836">
        <ele>72.239999999999995</ele>
        <time>2025-05-18T16:51:08Z</time>
      </trkpt>
      <trkpt lat="43.737632995471358" lon="7.419673008844256">
        <ele>71.760000000000005</ele>
        <time>2025-05-18T16:51:09Z</time>
      </trkpt>
      <trkpt lat="43.737672977149487" lon="7.419598996639252">
        <ele>71.760000000000005</ele>
        <time>2025-05-18T16:51:10Z</time>
      </trkpt>
      <trkpt lat="43.737688986584544" lon="7.419569995254278">
        <ele>71.269999999999996</ele>
        <time>2025-05-18T16:51:11Z</time>
      </trkpt>
      <trkpt lat="43.737770039588213" lon="7.419488020241261">
        <ele>70.790000000000006</ele>
        <time>2025-05-18T16:51:12Z</time>
      </trkpt>
      <trkpt lat="43.737818989902735" lon="7.419439991936088">
        <ele>70.310000000000002</ele>
        <time>2025-05-18T16:51:13Z</time>
      </trkpt>
      <trkpt lat="43.737883027642965" lon="7.419419959187508">
        <ele>69.829999999999998</ele>
        <time>2025-05-18T16:51:14Z</time>
      </trkpt>
      <trkpt lat="43.737951004877687" lon="7.419399004429579">
        <ele>69.349999999999994</ele>
        <time>2025-05-18T16:51:15Z</time>
      </trkpt>
      <trkpt lat="43.738018982112408" lon="7.419377965852618">
        <ele>68.870000000000005</ele>
        <time>2025-05-18T16:51:16Z</time>
      </trkpt>
      <trkpt lat="43.73808897100389" lon="7.419356005266309">
        <ele>68.390000000000001</ele>
        <time>2025-05-18T16:51:17Z</time>
      </trkpt>
      <trkpt lat="43.738161977380514" lon="7.419332033023238">
        <ele>67.909999999999997</ele>
        <time>2025-05-18T16:51:18Z</time>
      </trkpt>
      <trkpt lat="43.7382179684937" lon="7.419288028031588">
        <ele>67.909999999999997</ele>
        <time>2025-05-18T16:51:19Z</time>
      </trkpt>
      <trkpt lat="43.738268008455634" lon="7.419247962534428">
        <ele>67.430000000000007</ele>
        <time>2025-05-18T16:51:20Z</time>
      </trkpt>
      <trkpt lat="43.738317964598536" lon="7.419222984462977">
        <ele>66.950000000000003</ele>
        <time>2025-05-18T16:51:21Z</time>
      </trkpt>
      <trkpt lat="43.738397005945444" lon="7.419183002784848">
        <ele>66.950000000000003</ele>
        <time>2025-05-18T16:51:22Z</time>
      </trkpt>
      <trkpt lat="43.738433970138431" lon="7.419189037755132">
        <ele>66.950000000000003</ele>
        <time>2025-05-18T16:51:23Z</time>
      </trkpt>
      <trkpt lat="43.738524997606874" lon="7.419204963371158">
        <ele>66.469999999999999</ele>
        <time>2025-05-18T16:51:24Z</time>
      </trkpt>
      <trkpt lat="43.738571014255285" lon="7.419249974191189">
        <ele>66.469999999999999</ele>
        <time>2025-05-18T16:51:25Z</time>
      </trkpt>
      <trkpt lat="43.738625999540091" lon="7.419305965304375">
        <ele>66.950000000000003</ele>
        <time>2025-05-18T16:51:26Z</time>
      </trkpt>
      <trkpt lat="43.738682996481657" lon="7.419362040236592">
        <ele>67.430000000000007</ele>
        <time>2025-05-18T16:51:27Z</time>
      </trkpt>
      <trkpt lat="43.738777963444591" lon="7.419555997475982">
        <ele>67.909999999999997</ele>
        <time>2025-05-18T16:51:29Z</time>
      </trkpt>
      <trkpt lat="43.738794978708029" lon="7.419647024944425">
        <ele>67.909999999999997</ele>
        <time>2025-05-18T16:51:30Z</time>
      </trkpt>
      <trkpt lat="43.738804031163454" lon="7.419697986915708">
        <ele>67.430000000000007</ele>
        <time>2025-05-18T16:51:31Z</time>
      </trkpt>
      <trkpt lat="43.738790033385158" lon="7.419793037697673">
        <ele>66.950000000000003</ele>
        <time>2025-05-18T16:51:32Z</time>
      </trkpt>
      <trkpt lat="43.738777041435242" lon="7.419879036024213">
        <ele>66.469999999999999</ele>
        <time>2025-05-18T16:51:33Z</time>
      </trkpt>
      <trkpt lat="43.738762959837914" lon="7.419969979673624">
        <ele>65.989999999999995</ele>
        <time>2025-05-18T16:51:34Z</time>
      </trkpt>
      <trkpt lat="43.738761032000184" lon="7.420072993263602">
        <ele>65.510000000000005</ele>
        <time>2025-05-18T16:51:35Z</time>
      </trkpt>
      <trkpt lat="43.738761032000184" lon="7.420169971883297">
        <ele>64.549999999999997</ele>
        <time>2025-05-18T16:51:36Z</time>
      </trkpt>
      <trkpt lat="43.738787015900016" lon="7.420388991013169">
        <ele>63.100000000000001</ele>
        <time>2025-05-18T16:51:38Z</time>
      </trkpt>
      <trkpt lat="43.738825991749763" lon="7.420492004603148">
        <ele>62.619999999999997</ele>
        <time>2025-05-18T16:51:39Z</time>
      </trkpt>
      <trkpt lat="43.738854993134737" lon="7.420585965737701">
        <ele>62.140000000000001</ele>
        <time>2025-05-18T16:51:40Z</time>
      </trkpt>
      <trkpt lat="43.738886006176472" lon="7.420683028176427">
        <ele>61.659999999999997</ele>
        <time>2025-05-18T16:51:41Z</time>
      </trkpt>
      <trkpt lat="43.738915007561445" lon="7.420775983482599">
        <ele>61.659999999999997</ele>
        <time>2025-05-18T16:51:42Z</time>
      </trkpt>
      <trkpt lat="43.73894602060318" lon="7.420873967930675">
        <ele>61.659999999999997</ele>
        <time>2025-05-18T16:51:43Z</time>
      </trkpt>
      <trkpt lat="43.738978039473295" lon="7.420974969863892">
        <ele>61.659999999999997</ele>
        <time>2025-05-18T16:51:44Z</time>
      </trkpt>
      <trkpt lat="43.739037970080972" lon="7.421165993437171">
        <ele>62.140000000000001</ele>
        <time>2025-05-18T16:51:46Z</time>
      </trkpt>
      <trkpt lat="43.739093961194158" lon="7.421344025060535">
        <ele>62.619999999999997</ele>
        <time>2025-05-18T16:51:48Z</time>
      </trkpt>
      <trkpt lat="43.739119023084641" lon="7.421423988416791">
        <ele>63.100000000000001</ele>
        <time>2025-05-18T16:51:49Z</time>
      </trkpt>
      <trkpt lat="43.739147018641233" lon="7.421513004228473">
        <ele>63.100000000000001</ele>
        <time>2025-05-18T16:51:50Z</time>
      </trkpt>
      <trkpt lat="43.739198986440897" lon="7.421678965911269">
        <ele>63.579999999999998</ele>
        <time>2025-05-18T16:51:52Z</time>
      </trkpt>
      <trkpt lat="43.739246008917689" lon="7.421826990321279">
        <ele>64.549999999999997</ele>
        <time>2025-05-18T16:51:54Z</time>
      </trkpt>
      <trkpt lat="43.739320021122694" lon="7.422063024714589">
        <ele>65.030000000000001</ele>
        <time>2025-05-18T16:51:59Z</time>
      </trkpt>
      <trkpt lat="43.739320021122694" lon="7.422063024714589">
        <ele>64.549999999999997</ele>
        <time>2025-05-18T16:52:13Z</time>
      </trkpt>
      <trkpt lat="43.739349022507668" lon="7.422154974192381">
        <ele>65.510000000000005</ele>
        <time>2025-05-18T16:52:41Z</time>
      </trkpt>
      <trkpt lat="43.739366959780455" lon="7.422213982790709">
        <ele>65.510000000000005</ele>
        <time>2025-05-18T16:52:42Z</time>
      </trkpt>
      <trkpt lat="43.73948598280549" lon="7.422587983310223">
        <ele>67.909999999999997</ele>
        <time>2025-05-18T16:52:48Z</time>
      </trkpt>
      <trkpt lat="43.739511966705322" lon="7.42266995832324">
        <ele>67.430000000000007</ele>
        <time>2025-05-18T16:52:49Z</time>
      </trkpt>
      <trkpt lat="43.739898959174752" lon="7.423861026763916">
        <ele>64.069999999999993</ele>
        <time>2025-05-18T16:52:59Z</time>
      </trkpt>
      <trkpt lat="43.739941958338022" lon="7.423990024253726">
        <ele>63.100000000000001</ele>
        <time>2025-05-18T16:53:01Z</time>
      </trkpt>
      <trkpt lat="43.739997027441859" lon="7.424107035622001">
        <ele>61.18</ele>
        <time>2025-05-18T16:53:03Z</time>
      </trkpt>
      <trkpt lat="43.740039020776749" lon="7.424196973443031">
        <ele>59.740000000000002</ele>
        <time>2025-05-18T16:53:04Z</time>
      </trkpt>
      <trkpt lat="43.740113032981753" lon="7.424354972317815">
        <ele>58.299999999999997</ele>
        <time>2025-05-18T16:53:05Z</time>
      </trkpt>
      <trkpt lat="43.740185033529997" lon="7.424421021714807">
        <ele>55.409999999999997</ele>
        <time>2025-05-18T16:53:07Z</time>
      </trkpt>
      <trkpt lat="43.740261979401112" lon="7.424491010606289">
        <ele>53.969999999999999</ele>
        <time>2025-05-18T16:53:08Z</time>
      </trkpt>
      <trkpt lat="43.740599015727639" lon="7.424799967557192">
        <ele>46.759999999999998</ele>
        <time>2025-05-18T16:53:13Z</time>
      </trkpt>
      <trkpt lat="43.740703035145998" lon="7.425004988908768">
        <ele>44.840000000000003</ele>
        <time>2025-05-18T16:53:15Z</time>
      </trkpt>
      <trkpt lat="43.740848964080215" lon="7.425085036084056">
        <ele>43.399999999999999</ele>
        <time>2025-05-18T16:53:17Z</time>
      </trkpt>
      <trkpt lat="43.740908978506923" lon="7.425112025812268">
        <ele>42.439999999999998</ele>
        <time>2025-05-18T16:53:18Z</time>
      </trkpt>
      <trkpt lat="43.740963963791728" lon="7.425137003883719">
        <ele>41.469999999999999</ele>
        <time>2025-05-18T16:53:19Z</time>
      </trkpt>
      <trkpt lat="43.741121962666512" lon="7.425148990005255">
        <ele>37.630000000000003</ele>
        <time>2025-05-18T16:53:26Z</time>
      </trkpt>
      <trkpt lat="43.741144007071853" lon="7.425171034410596">
        <ele>35.710000000000001</ele>
        <time>2025-05-18T16:54:13Z</time>
      </trkpt>
      <trkpt lat="43.741250960156322" lon="7.425276981666684">
        <ele>33.780000000000001</ele>
        <time>2025-05-18T16:54:14Z</time>
      </trkpt>
      <trkpt lat="43.741250960156322" lon="7.425276981666684">
        <ele>32.82</ele>
        <time>2025-05-18T16:54:15Z</time>
      </trkpt>
      <trkpt lat="43.741254983469844" lon="7.425275975838304">
        <ele>31.859999999999999</ele>
        <time>2025-05-18T16:54:16Z</time>
      </trkpt>
      <trkpt lat="43.741357997059822" lon="7.425233982503414">
        <ele>31.379999999999999</ele>
        <time>2025-05-18T16:54:17Z</time>
      </trkpt>
      <trkpt lat="43.741357997059822" lon="7.425233982503414">
        <ele>30.420000000000002</ele>
        <time>2025-05-18T16:54:18Z</time>
      </trkpt>
      <trkpt lat="43.741377023980021" lon="7.425242029130459">
        <ele>30.420000000000002</ele>
        <time>2025-05-18T16:54:19Z</time>
      </trkpt>
      <trkpt lat="43.741465033963323" lon="7.425276981666684">
        <ele>29.940000000000001</ele>
        <time>2025-05-18T16:54:20Z</time>
      </trkpt>
      <trkpt lat="43.741468973457813" lon="7.425283016636968">
        <ele>29.940000000000001</ele>
        <time>2025-05-18T16:54:21Z</time>
      </trkpt>
      <trkpt lat="43.741980018094182" lon="7.425963962450624">
        <ele>28.98</ele>
        <time>2025-05-18T16:54:32Z</time>
      </trkpt>
      <trkpt lat="43.742027962580323" lon="7.426011990755796">
        <ele>28.98</ele>
        <time>2025-05-18T16:54:33Z</time>
      </trkpt>
      <trkpt lat="43.742043972015381" lon="7.426028000190854">
        <ele>28.98</ele>
        <time>2025-05-18T16:54:34Z</time>
      </trkpt>
      <trkpt lat="43.742117984220386" lon="7.426058007404208">
        <ele>28.98</ele>
        <time>2025-05-18T16:54:35Z</time>
      </trkpt>
      <trkpt lat="43.742194008082151" lon="7.426088014617562">
        <ele>29.460000000000001</ele>
        <time>2025-05-18T16:54:37Z</time>
      </trkpt>
      <trkpt lat="43.742258967831731" lon="7.426113998517394">
        <ele>30.420000000000002</ele>
        <time>2025-05-18T16:54:38Z</time>
      </trkpt>
      <trkpt lat="43.742266008630395" lon="7.426105029881001">
        <ele>30.899999999999999</ele>
        <time>2025-05-18T16:54:39Z</time>
      </trkpt>
      <trkpt lat="43.742288975045085" lon="7.426077034324408">
        <ele>30.899999999999999</ele>
        <time>2025-05-18T16:54:40Z</time>
      </trkpt>
      <trkpt lat="43.742313031107187" lon="7.426046021282673">
        <ele>30.899999999999999</ele>
        <time>2025-05-18T16:54:41Z</time>
      </trkpt>
      <trkpt lat="43.742339015007019" lon="7.426015008240938">
        <ele>30.899999999999999</ele>
        <time>2025-05-18T16:54:42Z</time>
      </trkpt>
      <trkpt lat="43.742366004735231" lon="7.425979971885681">
        <ele>30.420000000000002</ele>
        <time>2025-05-18T16:54:43Z</time>
      </trkpt>
      <trkpt lat="43.742392994463444" lon="7.425947031006217">
        <ele>29.940000000000001</ele>
        <time>2025-05-18T16:54:44Z</time>
      </trkpt>
      <trkpt lat="43.74242601916194" lon="7.425905959680677">
        <ele>29.940000000000001</ele>
        <time>2025-05-18T16:54:45Z</time>
      </trkpt>
      <trkpt lat="43.742462983354926" lon="7.425851980224252">
        <ele>30.420000000000002</ele>
        <time>2025-05-18T16:54:46Z</time>
      </trkpt>
      <trkpt lat="43.742546970024705" lon="7.425727006047964">
        <ele>28.98</ele>
        <time>2025-05-18T16:54:49Z</time>
      </trkpt>
      <trkpt lat="43.742564991116524" lon="7.425701022148132">
        <ele>28.5</ele>
        <time>2025-05-18T16:54:50Z</time>
      </trkpt>
      <trkpt lat="43.742588041350245" lon="7.425666991621256">
        <ele>28.5</ele>
        <time>2025-05-18T16:54:51Z</time>
      </trkpt>
      <trkpt lat="43.742613019421697" lon="7.425632039085031">
        <ele>28.5</ele>
        <time>2025-05-18T16:54:52Z</time>
      </trkpt>
      <trkpt lat="43.742709998041391" lon="7.425491977483034">
        <ele>28.02</ele>
        <time>2025-05-18T16:54:53Z</time>
      </trkpt>
      <trkpt lat="43.742734976112843" lon="7.425522990524769">
        <ele>27.530000000000001</ele>
        <time>2025-05-18T16:54:54Z</time>
      </trkpt>
      <trkpt lat="43.742773029953241" lon="7.425570013001561">
        <ele>27.050000000000001</ele>
        <time>2025-05-18T16:54:55Z</time>
      </trkpt>
      <trkpt lat="43.74281301163137" lon="7.425618963316083">
        <ele>27.050000000000001</ele>
        <time>2025-05-18T16:54:56Z</time>
      </trkpt>
      <trkpt lat="43.74285601079464" lon="7.425671014934778">
        <ele>26.57</ele>
        <time>2025-05-18T16:54:57Z</time>
      </trkpt>
      <trkpt lat="43.742902027443051" lon="7.425728011876345">
        <ele>26.09</ele>
        <time>2025-05-18T16:54:58Z</time>
      </trkpt>
      <trkpt lat="43.743181983008981" lon="7.426070999354124">
        <ele>25.129999999999999</ele>
        <time>2025-05-18T16:55:02Z</time>
      </trkpt>
      <trkpt lat="43.74322003684938" lon="7.426117016002536">
        <ele>25.129999999999999</ele>
        <time>2025-05-18T16:55:04Z</time>
      </trkpt>
      <trkpt lat="43.743289019912481" lon="7.426199996843934">
        <ele>26.57</ele>
        <time>2025-05-18T16:55:05Z</time>
      </trkpt>
      <trkpt lat="43.743332019075751" lon="7.426242996007204">
        <ele>26.57</ele>
        <time>2025-05-18T16:55:06Z</time>
      </trkpt>
      <trkpt lat="43.743707025423646" lon="7.426754040643573">
        <ele>29.460000000000001</ele>
        <time>2025-05-18T16:55:13Z</time>
      </trkpt>
      <trkpt lat="43.743763016536832" lon="7.426829980686307">
        <ele>29.940000000000001</ele>
        <time>2025-05-18T16:55:14Z</time>
      </trkpt>
      <trkpt lat="43.743897965177894" lon="7.427056962624192">
        <ele>33.780000000000001</ele>
        <time>2025-05-18T16:55:17Z</time>
      </trkpt>
      <trkpt lat="43.744007013738155" lon="7.427256032824516">
        <ele>38.109999999999999</ele>
        <time>2025-05-18T16:55:20Z</time>
      </trkpt>
      <trkpt lat="43.744114972651005" lon="7.427358040586114">
        <ele>46.280000000000001</ele>
        <time>2025-05-18T16:55:27Z</time>
      </trkpt>
      <trkpt lat="43.744150009006262" lon="7.427377989515662">
        <ele>47.240000000000002</ele>
        <time>2025-05-18T16:55:28Z</time>
      </trkpt>
      <trkpt lat="43.744217986240983" lon="7.42741696536541">
        <ele>49.159999999999997</ele>
        <time>2025-05-18T16:55:29Z</time>
      </trkpt>
      <trkpt lat="43.744286969304085" lon="7.42745703086257">
        <ele>50.130000000000003</ele>
        <time>2025-05-18T16:55:30Z</time>
      </trkpt>
      <trkpt lat="43.744578994810581" lon="7.427623998373747">
        <ele>55.409999999999997</ele>
        <time>2025-05-18T16:55:36Z</time>
      </trkpt>
      <trkpt lat="43.744653007015586" lon="7.4275469686836">
        <ele>57.82</ele>
        <time>2025-05-18T16:55:37Z</time>
      </trkpt>
      <trkpt lat="43.744652001187205" lon="7.427561972290278">
        <ele>59.740000000000002</ele>
        <time>2025-05-18T16:55:38Z</time>
      </trkpt>
      <trkpt lat="43.744653007015586" lon="7.427553003653884">
        <ele>61.659999999999997</ele>
        <time>2025-05-18T16:55:39Z</time>
      </trkpt>
      <trkpt lat="43.744661975651979" lon="7.427465999498963">
        <ele>63.100000000000001</ele>
        <time>2025-05-18T16:55:40Z</time>
      </trkpt>
      <trkpt lat="43.744659963995218" lon="7.427440015599132">
        <ele>64.069999999999993</ele>
        <time>2025-05-18T16:55:41Z</time>
      </trkpt>
      <trkpt lat="43.744613025337458" lon="7.427202975377441">
        <ele>71.760000000000005</ele>
        <time>2025-05-18T16:55:51Z</time>
      </trkpt>
      <trkpt lat="43.744601961225271" lon="7.427183026447892">
        <ele>72.239999999999995</ele>
        <time>2025-05-18T16:55:52Z</time>
      </trkpt>
      <trkpt lat="43.744587041437626" lon="7.427156958729029">
        <ele>73.200000000000003</ele>
        <time>2025-05-18T16:55:53Z</time>
      </trkpt>
      <trkpt lat="43.744574971497059" lon="7.4271360039711">
        <ele>73.200000000000003</ele>
        <time>2025-05-18T16:55:54Z</time>
      </trkpt>
      <trkpt lat="43.744566002860665" lon="7.427119994536042">
        <ele>73.680000000000007</ele>
        <time>2025-05-18T16:55:55Z</time>
      </trkpt>
      <trkpt lat="43.744555022567511" lon="7.427100967615843">
        <ele>74.159999999999997</ele>
        <time>2025-05-18T16:55:56Z</time>
      </trkpt>
      <trkpt lat="43.744555022567511" lon="7.427100967615843">
        <ele>74.640000000000001</ele>
        <time>2025-05-18T16:55:57Z</time>
      </trkpt>
      <trkpt lat="43.744555022567511" lon="7.427100967615843">
        <ele>76.560000000000002</ele>
        <time>2025-05-18T16:56:00Z</time>
      </trkpt>
      <trkpt lat="43.744618976488709" lon="7.427057968452573">
        <ele>78.480000000000004</ele>
        <time>2025-05-18T16:56:04Z</time>
      </trkpt>
      <trkpt lat="43.744654012843966" lon="7.427078001201153">
        <ele>79.930000000000007</ele>
        <time>2025-05-18T16:56:05Z</time>
      </trkpt>
      <trkpt lat="43.744716038927436" lon="7.42711303755641">
        <ele>81.849999999999994</ele>
        <time>2025-05-18T16:56:06Z</time>
      </trkpt>
      <trkpt lat="43.744787033647299" lon="7.427157964557409">
        <ele>83.290000000000006</ele>
        <time>2025-05-18T16:56:07Z</time>
      </trkpt>
      <trkpt lat="43.744842018932104" lon="7.42720196954906">
        <ele>84.730000000000004</ele>
        <time>2025-05-18T16:56:08Z</time>
      </trkpt>
      <trkpt lat="43.745239991694689" lon="7.427432974800468">
        <ele>90.019999999999996</ele>
        <time>2025-05-18T16:56:15Z</time>
      </trkpt>
      <trkpt lat="43.745283996686339" lon="7.427455019205809">
        <ele>90.5</ele>
        <time>2025-05-18T16:56:16Z</time>
      </trkpt>
      <trkpt lat="43.745320038869977" lon="7.427473040297627">
        <ele>90.5</ele>
        <time>2025-05-18T16:56:17Z</time>
      </trkpt>
      <trkpt lat="43.745349040254951" lon="7.427487960085273">
        <ele>90.5</ele>
        <time>2025-05-18T16:56:18Z</time>
      </trkpt>
      <trkpt lat="43.745386004447937" lon="7.427498018369079">
        <ele>90.980000000000004</ele>
        <time>2025-05-18T16:56:19Z</time>
      </trkpt>
      <trkpt lat="43.745426991954446" lon="7.427510004490614">
        <ele>91.459999999999994</ele>
        <time>2025-05-18T16:56:20Z</time>
      </trkpt>
      <trkpt lat="43.745820019394159" lon="7.427622992545366">
        <ele>94.829999999999998</ele>
        <time>2025-05-18T16:56:26Z</time>
      </trkpt>
      <trkpt lat="43.745901994407177" lon="7.427625004202128">
        <ele>95.310000000000002</ele>
        <time>2025-05-18T16:56:27Z</time>
      </trkpt>
      <trkpt lat="43.745982963591814" lon="7.427598014473915">
        <ele>95.790000000000006</ele>
        <time>2025-05-18T16:56:28Z</time>
      </trkpt>
      <trkpt lat="43.746538013219833" lon="7.427333984524012">
        <ele>100.11</ele>
        <time>2025-05-18T16:56:35Z</time>
      </trkpt>
      <trkpt lat="43.746601967141032" lon="7.427283022552729">
        <ele>100.59999999999999</ele>
        <time>2025-05-18T16:56:36Z</time>
      </trkpt>
      <trkpt lat="43.746898015961051" lon="7.42694104090333">
        <ele>104.44</ele>
        <time>2025-05-18T16:56:45Z</time>
      </trkpt>
      <trkpt lat="43.746917964890599" lon="7.426915979012847">
        <ele>104.92</ele>
        <time>2025-05-18T16:56:46Z</time>
      </trkpt>
      <trkpt lat="43.746946966275573" lon="7.426879014819861">
        <ele>105.88</ele>
        <time>2025-05-18T16:56:47Z</time>
      </trkpt>
      <trkpt lat="43.74698300845921" lon="7.426834003999829">
        <ele>106.36</ele>
        <time>2025-05-18T16:56:48Z</time>
      </trkpt>
      <trkpt lat="43.747066995128989" lon="7.426684973761439">
        <ele>108.29000000000001</ele>
        <time>2025-05-18T16:56:50Z</time>
      </trkpt>
      <trkpt lat="43.747146036475897" lon="7.426433013752103">
        <ele>110.69</ele>
        <time>2025-05-18T16:56:53Z</time>
      </trkpt>
      <trkpt lat="43.747224994003773" lon="7.426181975752115">
        <ele>113.56999999999999</ele>
        <time>2025-05-18T16:56:56Z</time>
      </trkpt>
      <trkpt lat="43.747345022857189" lon="7.425920963287354">
        <ele>116.45999999999999</ele>
        <time>2025-05-18T16:57:00Z</time>
      </trkpt>
      <trkpt lat="43.747345022857189" lon="7.425920963287354">
        <ele>116.45999999999999</ele>
        <time>2025-05-18T16:57:01Z</time>
      </trkpt>
      <trkpt lat="43.747414005920291" lon="7.425897996872664">
        <ele>117.42</ele>
        <time>2025-05-18T16:57:02Z</time>
      </trkpt>
      <trkpt lat="43.747467985376716" lon="7.425879975780845">
        <ele>117.90000000000001</ele>
        <time>2025-05-18T16:57:03Z</time>
      </trkpt>
      <trkpt lat="43.747489023953676" lon="7.425886010751128">
        <ele>118.86</ele>
        <time>2025-05-18T16:57:04Z</time>
      </trkpt>
      <trkpt lat="43.747546020895243" lon="7.425915012136102">
        <ele>119.34</ele>
        <time>2025-05-18T16:57:05Z</time>
      </trkpt>
      <trkpt lat="43.747602012008429" lon="7.425943007692695">
        <ele>120.3</ele>
        <time>2025-05-18T16:57:06Z</time>
      </trkpt>
      <trkpt lat="43.747622966766357" lon="7.425973014906049">
        <ele>120.78</ele>
        <time>2025-05-18T16:57:07Z</time>
      </trkpt>
      <trkpt lat="43.747763028368354" lon="7.426177030429244">
        <ele>123.19</ele>
        <time>2025-05-18T16:57:10Z</time>
      </trkpt>
      <trkpt lat="43.74786201864481" lon="7.426321031525731">
        <ele>125.11</ele>
        <time>2025-05-18T16:57:12Z</time>
      </trkpt>
      <trkpt lat="43.747908035293221" lon="7.426390014588833">
        <ele>126.06999999999999</ele>
        <time>2025-05-18T16:57:13Z</time>
      </trkpt>
      <trkpt lat="43.748104004189372" lon="7.426693020388484">
        <ele>130.88</ele>
        <time>2025-05-18T16:57:19Z</time>
      </trkpt>
      <trkpt lat="43.748116996139288" lon="7.426714980974793">
        <ele>131.84</ele>
        <time>2025-05-18T16:57:20Z</time>
      </trkpt>
      <trkpt lat="43.748116996139288" lon="7.426714980974793">
        <ele>131.84</ele>
        <time>2025-05-18T16:57:21Z</time>
      </trkpt>
      <trkpt lat="43.748090006411076" lon="7.426759991794825">
        <ele>132.31999999999999</ele>
        <time>2025-05-18T16:57:22Z</time>
      </trkpt>
      <trkpt lat="43.748068967834115" lon="7.426795028150082">
        <ele>132.31999999999999</ele>
        <time>2025-05-18T16:57:23Z</time>
      </trkpt>
      <trkpt lat="43.748040972277522" lon="7.426841966807842">
        <ele>132.80000000000001</ele>
        <time>2025-05-18T16:57:24Z</time>
      </trkpt>
      <trkpt lat="43.748005013912916" lon="7.426901981234551">
        <ele>132.80000000000001</ele>
        <time>2025-05-18T16:57:25Z</time>
      </trkpt>
      <trkpt lat="43.74797098338604" lon="7.426969036459923">
        <ele>132.80000000000001</ele>
        <time>2025-05-18T16:57:26Z</time>
      </trkpt>
      <trkpt lat="43.747710976749659" lon="7.42754302918911">
        <ele>132.80000000000001</ele>
        <time>2025-05-18T16:57:36Z</time>
      </trkpt>
    </trkseg>
  </trk>

</gpx>